<?xml version='1.0' encoding='UTF-8'?><gpx version="1.1" creator="JPX - https://github.com/jenetics/jpx" xmlns="http://www.topografix.com/GPX/1/1"><trk><trkseg><trkpt lat="14.55838560829164" lon="120.99548478204895"><ele>9.0</ele><time>2026-04-24T05:58:12.882Z</time></trkpt><trkpt lat="14.558307674624897" lon="120.99552338622647"><ele>9.0</ele><time>2026-04-24T05:58:15.882Z</time></trkpt><trkpt lat="14.558301944892696" lon="120.99559800268226"><ele>9.0</ele><time>2026-04-24T05:58:19.882Z</time></trkpt><trkpt lat="14.558261494604093" lon="120.99566903938934"><ele>9.0</ele><time>2026-04-24T05:58:24.881Z</time></trkpt><trkpt lat="14.558230537944633" lon="120.9957293724916"><ele>9.0</ele><time>2026-04-24T05:58:29.03Z</time></trkpt><trkpt lat="14.557696009710599" lon="120.99506305982575"><ele>8.8</ele><time>2026-04-24T05:59:46.001Z</time></trkpt><trkpt lat="14.557799524571088" lon="120.99494040770513"><ele>8.600000000000001</ele><time>2026-04-24T05:59:48.001Z</time></trkpt><trkpt lat="14.557880030722092" lon="120.99488873223663"><ele>8.4</ele><time>2026-04-24T05:59:50.001Z</time></trkpt><trkpt lat="14.557958575061948" lon="120.99486387271196"><ele>8.200000000000001</ele><time>2026-04-24T05:59:53.001Z</time></trkpt><trkpt lat="14.558040540830856" lon="120.99484486043612"><ele>8.0</ele><time>2026-04-24T05:59:56.001Z</time></trkpt><trkpt lat="14.558137506590725" lon="120.99483071952635"><ele>7.999999999999999</ele><time>2026-04-24T05:59:58.001Z</time></trkpt><trkpt lat="14.558257614237137" lon="120.994816797331"><ele>8.0</ele><time>2026-04-24T06:00:00.002Z</time></trkpt><trkpt lat="14.558317964679846" lon="120.99476088060482"><ele>8.0</ele><time>2026-04-24T06:00:01.002Z</time></trkpt><trkpt lat="14.558388413658008" lon="120.99475178603487"><ele>8.0</ele><time>2026-04-24T06:00:02.002Z</time></trkpt><trkpt lat="14.55846332196031" lon="120.99474427405376"><ele>7.999999999999999</ele><time>2026-04-24T06:00:03.002Z</time></trkpt><trkpt lat="14.558542354214092" lon="120.9947374998597"><ele>8.0</ele><time>2026-04-24T06:00:04.002Z</time></trkpt><trkpt lat="14.558613871167415" lon="120.9947319896222"><ele>7.999999999999999</ele><time>2026-04-24T06:00:05.002Z</time></trkpt><trkpt lat="14.558677451034704" lon="120.99472706879399"><ele>8.0</ele><time>2026-04-24T06:00:06.002Z</time></trkpt><trkpt lat="14.558762540394499" lon="120.99472048321635"><ele>8.0</ele><time>2026-04-24T06:00:09.002Z</time></trkpt><trkpt lat="14.558855217432672" lon="120.99471331038478"><ele>8.0</ele><time>2026-04-24T06:00:11.002Z</time></trkpt><trkpt lat="14.558971841252148" lon="120.9946955612076"><ele>7.999999999999999</ele><time>2026-04-24T06:00:13.002Z</time></trkpt><trkpt lat="14.559041978831322" lon="120.99472797737448"><ele>8.0</ele><time>2026-04-24T06:00:14.002Z</time></trkpt><trkpt lat="14.559114547290845" lon="120.99471756790186"><ele>8.166666666666666</ele><time>2026-04-24T06:00:15.002Z</time></trkpt><trkpt lat="14.559180034735368" lon="120.99471044607911"><ele>8.333333333333332</ele><time>2026-04-24T06:00:16.002Z</time></trkpt><trkpt lat="14.559248089743493" lon="120.99470551856403"><ele>8.5</ele><time>2026-04-24T06:00:17.002Z</time></trkpt><trkpt lat="14.559311776578149" lon="120.99464513402384"><ele>8.666666666666666</ele><time>2026-04-24T06:00:18.002Z</time></trkpt><trkpt lat="14.559440360449324" lon="120.9946256027944"><ele>8.833333333333334</ele><time>2026-04-24T06:00:20.002Z</time></trkpt><trkpt lat="14.559531144630771" lon="120.99461198381323"><ele>9.0</ele><time>2026-04-24T06:00:22.002Z</time></trkpt><trkpt lat="14.5596398565437" lon="120.99459577805315"><ele>9.2</ele><time>2026-04-24T06:00:24.002Z</time></trkpt><trkpt lat="14.55975260487015" lon="120.99457897058025"><ele>9.4</ele><time>2026-04-24T06:00:26.002Z</time></trkpt><trkpt lat="14.559842789555102" lon="120.99458049078622"><ele>9.6</ele><time>2026-04-24T06:00:28.002Z</time></trkpt><trkpt lat="14.559915765750588" lon="120.9945546480723"><ele>9.8</ele><time>2026-04-24T06:00:30.001Z</time></trkpt><trkpt lat="14.559990413806572" lon="120.99455413237216"><ele>10.0</ele><time>2026-04-24T06:00:33.001Z</time></trkpt><trkpt lat="14.560081301607175" lon="120.99451444834358"><ele>10.0</ele><time>2026-04-24T06:00:35.001Z</time></trkpt><trkpt lat="14.560199948000388" lon="120.99448061275125"><ele>10.0</ele><time>2026-04-24T06:00:37.001Z</time></trkpt><trkpt lat="14.560264027825282" lon="120.99445526075273"><ele>10.0</ele><time>2026-04-24T06:00:38.001Z</time></trkpt><trkpt lat="14.560320974049223" lon="120.99442740152521"><ele>10.0</ele><time>2026-04-24T06:00:39.001Z</time></trkpt><trkpt lat="14.56042268158199" lon="120.99435033767813"><ele>10.0</ele><time>2026-04-24T06:00:41Z</time></trkpt><trkpt lat="14.560479633653495" lon="120.99431731261018"><ele>10.0</ele><time>2026-04-24T06:00:42Z</time></trkpt><trkpt lat="14.560570806574027" lon="120.9942676643587"><ele>10.0</ele><time>2026-04-24T06:00:44Z</time></trkpt><trkpt lat="14.560642588262727" lon="120.99422336498716"><ele>10.0</ele><time>2026-04-24T06:00:46Z</time></trkpt><trkpt lat="14.560715017237316" lon="120.99418316403528"><ele>10.0</ele><time>2026-04-24T06:00:48Z</time></trkpt><trkpt lat="14.56080994420376" lon="120.99413634371865"><ele>10.0</ele><time>2026-04-24T06:00:50Z</time></trkpt><trkpt lat="14.560886170358247" lon="120.99409692627614"><ele>10.0</ele><time>2026-04-24T06:00:52Z</time></trkpt><trkpt lat="14.560951308237609" lon="120.99406032821935"><ele>10.0</ele><time>2026-04-24T06:00:54Z</time></trkpt><trkpt lat="14.561008247648529" lon="120.99403061204436"><ele>10.0</ele><time>2026-04-24T06:00:56Z</time></trkpt><trkpt lat="14.56106727909288" lon="120.99399771653117"><ele>10.0</ele><time>2026-04-24T06:00:59Z</time></trkpt><trkpt lat="14.561126654692107" lon="120.99395727220933"><ele>10.0</ele><time>2026-04-24T06:01:01Z</time></trkpt><trkpt lat="14.561196234238336" lon="120.99394023902826"><ele>10.0</ele><time>2026-04-24T06:01:07Z</time></trkpt><trkpt lat="14.56125322510697" lon="120.99399644101183"><ele>10.0</ele><time>2026-04-24T06:01:09Z</time></trkpt><trkpt lat="14.56130934222355" lon="120.99405828452787"><ele>10.0</ele><time>2026-04-24T06:01:11Z</time></trkpt><trkpt lat="14.561378544990669" lon="120.99393129972876"><ele>10.0</ele><time>2026-04-24T06:01:17Z</time></trkpt><trkpt lat="14.561323961503868" lon="120.99386581486011"><ele>10.0</ele><time>2026-04-24T06:01:18.001Z</time></trkpt><trkpt lat="14.561300304206023" lon="120.99379989691919"><ele>10.0</ele><time>2026-04-24T06:01:19.001Z</time></trkpt><trkpt lat="14.561274508090534" lon="120.99369689660897"><ele>10.0</ele><time>2026-04-24T06:01:21.001Z</time></trkpt><trkpt lat="14.561273968435225" lon="120.9936299240206"><ele>10.0</ele><time>2026-04-24T06:01:22.001Z</time></trkpt><trkpt lat="14.561257155684252" lon="120.99355275166154"><ele>10.0</ele><time>2026-04-24T06:01:23.001Z</time></trkpt><trkpt lat="14.561234354063254" lon="120.99346905882915"><ele>10.0</ele><time>2026-04-24T06:01:24.001Z</time></trkpt><trkpt lat="14.561215048230904" lon="120.99338096649045"><ele>10.0</ele><time>2026-04-24T06:01:25.001Z</time></trkpt><trkpt lat="14.561194795556814" lon="120.99329009543764"><ele>10.0</ele><time>2026-04-24T06:01:26.001Z</time></trkpt><trkpt lat="14.561171995785397" lon="120.99319752364848"><ele>10.0</ele><time>2026-04-24T06:01:27.001Z</time></trkpt><trkpt lat="14.561148978033302" lon="120.99310128998445"><ele>10.0</ele><time>2026-04-24T06:01:28.001Z</time></trkpt><trkpt lat="14.561129251433867" lon="120.99301328587389"><ele>10.0</ele><time>2026-04-24T06:01:29.001Z</time></trkpt><trkpt lat="14.56110110459478" lon="120.9929044056743"><ele>10.0</ele><time>2026-04-24T06:01:30.001Z</time></trkpt><trkpt lat="14.561069773395674" lon="120.99279179155637"><ele>10.0</ele><time>2026-04-24T06:01:31.001Z</time></trkpt><trkpt lat="14.561041547888832" lon="120.9926783273617"><ele>10.0</ele><time>2026-04-24T06:01:32.001Z</time></trkpt><trkpt lat="14.561014709536627" lon="120.99256741982943"><ele>10.0</ele><time>2026-04-24T06:01:33.001Z</time></trkpt><trkpt lat="14.56098667271136" lon="120.99244391433173"><ele>10.0</ele><time>2026-04-24T06:01:34.001Z</time></trkpt><trkpt lat="14.560954660199155" lon="120.99233170994079"><ele>10.0</ele><time>2026-04-24T06:01:35.001Z</time></trkpt><trkpt lat="14.560918578626403" lon="120.99220896938048"><ele>10.0</ele><time>2026-04-24T06:01:36.001Z</time></trkpt><trkpt lat="14.560883720912848" lon="120.99208816605712"><ele>10.0</ele><time>2026-04-24T06:01:37.001Z</time></trkpt><trkpt lat="14.560847597157968" lon="120.99196338157044"><ele>10.0</ele><time>2026-04-24T06:01:38.001Z</time></trkpt><trkpt lat="14.560816558648112" lon="120.99183560431028"><ele>10.0</ele><time>2026-04-24T06:01:39.001Z</time></trkpt><trkpt lat="14.560783861313812" lon="120.99170559953174"><ele>10.0</ele><time>2026-04-24T06:01:40.001Z</time></trkpt><trkpt lat="14.56075724030771" lon="120.99157225309624"><ele>10.0</ele><time>2026-04-24T06:01:41.001Z</time></trkpt><trkpt lat="14.560723052259592" lon="120.99144675913874"><ele>10.25</ele><time>2026-04-24T06:01:42.001Z</time></trkpt><trkpt lat="14.56068737159375" lon="120.99131340621045"><ele>10.5</ele><time>2026-04-24T06:01:43.001Z</time></trkpt><trkpt lat="14.560650618625202" lon="120.99118589607453"><ele>10.75</ele><time>2026-04-24T06:01:44.001Z</time></trkpt><trkpt lat="14.56061835989561" lon="120.99105563848967"><ele>11.0</ele><time>2026-04-24T06:01:45.001Z</time></trkpt><trkpt lat="14.560586926300466" lon="120.99092554910409"><ele>11.75</ele><time>2026-04-24T06:01:46.001Z</time></trkpt><trkpt lat="14.560552563594584" lon="120.99079632533115"><ele>12.5</ele><time>2026-04-24T06:01:47.001Z</time></trkpt><trkpt lat="14.560521502987296" lon="120.99066515921812"><ele>13.25</ele><time>2026-04-24T06:01:48.001Z</time></trkpt><trkpt lat="14.560492782299715" lon="120.99054766295475"><ele>14.0</ele><time>2026-04-24T06:01:49.001Z</time></trkpt><trkpt lat="14.56046541869021" lon="120.99043131652202"><ele>14.0</ele><time>2026-04-24T06:01:50.001Z</time></trkpt><trkpt lat="14.560441660653414" lon="120.99032480095737"><ele>13.999999999999998</ele><time>2026-04-24T06:01:51.001Z</time></trkpt><trkpt lat="14.560420997871084" lon="120.99022732092874"><ele>13.999999999999998</ele><time>2026-04-24T06:01:52.001Z</time></trkpt><trkpt lat="14.56039813451255" lon="120.99014559880412"><ele>14.0</ele><time>2026-04-24T06:01:53.001Z</time></trkpt><trkpt lat="14.560382231663839" lon="120.99007275665173"><ele>14.0</ele><time>2026-04-24T06:01:54.001Z</time></trkpt><trkpt lat="14.560359019153" lon="120.98995311841031"><ele>13.500000000000002</ele><time>2026-04-24T06:01:56.001Z</time></trkpt><trkpt lat="14.560327825222897" lon="120.98984393408708"><ele>13.0</ele><time>2026-04-24T06:01:58.001Z</time></trkpt><trkpt lat="14.560303021953207" lon="120.9897739159755"><ele>12.5</ele><time>2026-04-24T06:02:00.001Z</time></trkpt><trkpt lat="14.56028635252973" lon="120.98971053105791"><ele>12.0</ele><time>2026-04-24T06:02:03.001Z</time></trkpt><trkpt lat="14.560266059024698" lon="120.98964812023763"><ele>11.5</ele><time>2026-04-24T06:02:05.001Z</time></trkpt><trkpt lat="14.560242042919464" lon="120.98956595129603"><ele>11.0</ele><time>2026-04-24T06:02:20.002Z</time></trkpt><trkpt lat="14.560212181406978" lon="120.9894558053545"><ele>11.0</ele><time>2026-04-24T06:02:22.002Z</time></trkpt><trkpt lat="14.560200530007473" lon="120.989384563318"><ele>11.0</ele><time>2026-04-24T06:02:23.002Z</time></trkpt><trkpt lat="14.560184396455137" lon="120.98930764810699"><ele>11.0</ele><time>2026-04-24T06:02:24.002Z</time></trkpt><trkpt lat="14.560167980038349" lon="120.98922523442499"><ele>11.0</ele><time>2026-04-24T06:02:25.002Z</time></trkpt><trkpt lat="14.560146422419896" lon="120.9891423981874"><ele>11.0</ele><time>2026-04-24T06:02:26.002Z</time></trkpt><trkpt lat="14.560118035526086" lon="120.98904022130532"><ele>11.0</ele><time>2026-04-24T06:02:27.002Z</time></trkpt><trkpt lat="14.560094091809406" lon="120.98894145898747"><ele>11.333333333333332</ele><time>2026-04-24T06:02:28.002Z</time></trkpt><trkpt lat="14.56006846967128" lon="120.98884474796233"><ele>11.666666666666666</ele><time>2026-04-24T06:02:29.002Z</time></trkpt><trkpt lat="14.560043175179532" lon="120.98875437819606"><ele>12.0</ele><time>2026-04-24T06:02:30.002Z</time></trkpt><trkpt lat="14.560015720191885" lon="120.98866704688749"><ele>12.333333333333332</ele><time>2026-04-24T06:02:31.002Z</time></trkpt><trkpt lat="14.559996344149656" lon="120.98858265704506"><ele>12.666666666666666</ele><time>2026-04-24T06:02:32.002Z</time></trkpt><trkpt lat="14.559973590525207" lon="120.98849486387117"><ele>13.0</ele><time>2026-04-24T06:02:33.002Z</time></trkpt><trkpt lat="14.55994754072169" lon="120.98841085329046"><ele>12.999999999999998</ele><time>2026-04-24T06:02:34.002Z</time></trkpt><trkpt lat="14.559930906503105" lon="120.988328507444"><ele>13.0</ele><time>2026-04-24T06:02:35.002Z</time></trkpt><trkpt lat="14.559917926219544" lon="120.98823526110071"><ele>13.0</ele><time>2026-04-24T06:02:36.001Z</time></trkpt><trkpt lat="14.559883382190915" lon="120.98814833431936"><ele>13.0</ele><time>2026-04-24T06:02:37.001Z</time></trkpt><trkpt lat="14.55985997462619" lon="120.98805913874759"><ele>12.999999999999998</ele><time>2026-04-24T06:02:38.001Z</time></trkpt><trkpt lat="14.55984486815645" lon="120.98797471737666"><ele>13.0</ele><time>2026-04-24T06:02:39.001Z</time></trkpt><trkpt lat="14.559828134474571" lon="120.9878892632185"><ele>12.999999999999998</ele><time>2026-04-24T06:02:40.001Z</time></trkpt><trkpt lat="14.55981404844182" lon="120.98779280494162"><ele>13.0</ele><time>2026-04-24T06:02:42Z</time></trkpt><trkpt lat="14.559799750799682" lon="120.98770275464742"><ele>13.0</ele><time>2026-04-24T06:02:54Z</time></trkpt><trkpt lat="14.559760762863508" lon="120.98762447345203"><ele>13.0</ele><time>2026-04-24T06:02:56Z</time></trkpt><trkpt lat="14.559737454878002" lon="120.98756227119257"><ele>12.999999999999998</ele><time>2026-04-24T06:02:58Z</time></trkpt><trkpt lat="14.55970216884602" lon="120.9874847513213"><ele>13.0</ele><time>2026-04-24T06:03:44.001Z</time></trkpt><trkpt lat="14.559676180137751" lon="120.98736454578673"><ele>12.200000000000001</ele><time>2026-04-24T06:03:46.001Z</time></trkpt><trkpt lat="14.559634389293828" lon="120.9873016632267"><ele>11.4</ele><time>2026-04-24T06:03:47.001Z</time></trkpt><trkpt lat="14.559628247565977" lon="120.98722086202156"><ele>10.600000000000001</ele><time>2026-04-24T06:03:48.001Z</time></trkpt><trkpt lat="14.559617207722049" lon="120.9871321626883"><ele>9.8</ele><time>2026-04-24T06:03:49.001Z</time></trkpt><trkpt lat="14.559592879486106" lon="120.9870476505607"><ele>9.0</ele><time>2026-04-24T06:03:51.001Z</time></trkpt><trkpt lat="14.559326103573712" lon="120.98711685775324"><ele>9.0</ele><time>2026-04-24T06:03:52.001Z</time></trkpt><trkpt lat="14.559258846716599" lon="120.9871419904217"><ele>9.0</ele><time>2026-04-24T06:03:53.001Z</time></trkpt><trkpt lat="14.559190115798762" lon="120.98717808752306"><ele>9.0</ele><time>2026-04-24T06:03:54.001Z</time></trkpt><trkpt lat="14.559103319197542" lon="120.98722599748349"><ele>9.0</ele><time>2026-04-24T06:03:55.001Z</time></trkpt><trkpt lat="14.5590070895939" lon="120.98726814186085"><ele>9.0</ele><time>2026-04-24T06:03:56.001Z</time></trkpt><trkpt lat="14.5589022941559" lon="120.98731151698175"><ele>9.0</ele><time>2026-04-24T06:03:57.001Z</time></trkpt><trkpt lat="14.5587905651592" lon="120.98735794977637"><ele>9.0</ele><time>2026-04-24T06:03:58.001Z</time></trkpt><trkpt lat="14.558670326570283" lon="120.98740964432741"><ele>9.0</ele><time>2026-04-24T06:03:59.001Z</time></trkpt><trkpt lat="14.55854425932912" lon="120.98746159492163"><ele>9.0</ele><time>2026-04-24T06:04:00.001Z</time></trkpt><trkpt lat="14.55841132108879" lon="120.98751254359797"><ele>10.666666666666668</ele><time>2026-04-24T06:04:01.001Z</time></trkpt><trkpt lat="14.558269618373458" lon="120.98756584778901"><ele>12.333333333333334</ele><time>2026-04-24T06:04:02.001Z</time></trkpt><trkpt lat="14.558109947601556" lon="120.98763589943292"><ele>14.0</ele><time>2026-04-24T06:04:03.001Z</time></trkpt><trkpt lat="14.557954322702304" lon="120.98768543435799"><ele>11.333333333333334</ele><time>2026-04-24T06:04:04.001Z</time></trkpt><trkpt lat="14.557799305379847" lon="120.98773207774634"><ele>8.666666666666668</ele><time>2026-04-24T06:04:05.001Z</time></trkpt><trkpt lat="14.557638894016367" lon="120.98777525319417"><ele>6.0</ele><time>2026-04-24T06:04:06.001Z</time></trkpt><trkpt lat="14.557474240109132" lon="120.98783663747871"><ele>6.0</ele><time>2026-04-24T06:04:07.001Z</time></trkpt><trkpt lat="14.557310514727948" lon="120.9878889589107"><ele>6.0</ele><time>2026-04-24T06:04:08.001Z</time></trkpt><trkpt lat="14.557142590375731" lon="120.98793665394368"><ele>6.0</ele><time>2026-04-24T06:04:09.001Z</time></trkpt><trkpt lat="14.556976654945302" lon="120.98798893194635"><ele>7.0</ele><time>2026-04-24T06:04:10.001Z</time></trkpt><trkpt lat="14.556809535014446" lon="120.9880442489779"><ele>8.0</ele><time>2026-04-24T06:04:11.001Z</time></trkpt><trkpt lat="14.556636156300065" lon="120.98809471339123"><ele>9.0</ele><time>2026-04-24T06:04:12.001Z</time></trkpt><trkpt lat="14.556472623060552" lon="120.98815559798979"><ele>9.0</ele><time>2026-04-24T06:04:13.001Z</time></trkpt><trkpt lat="14.556300068872712" lon="120.98820292028174"><ele>9.0</ele><time>2026-04-24T06:04:14.001Z</time></trkpt><trkpt lat="14.55613084602012" lon="120.988264752939"><ele>9.0</ele><time>2026-04-24T06:04:15.001Z</time></trkpt><trkpt lat="14.555959166594356" lon="120.98831777136985"><ele>8.666666666666666</ele><time>2026-04-24T06:04:16.001Z</time></trkpt><trkpt lat="14.555787856392367" lon="120.98837611418216"><ele>8.333333333333332</ele><time>2026-04-24T06:04:17.001Z</time></trkpt><trkpt lat="14.555618755630242" lon="120.98842420759675"><ele>8.0</ele><time>2026-04-24T06:04:18.001Z</time></trkpt><trkpt lat="14.55545768127436" lon="120.98847834291567"><ele>7.333333333333333</ele><time>2026-04-24T06:04:19.001Z</time></trkpt><trkpt lat="14.555293387664657" lon="120.98853369131137"><ele>6.666666666666666</ele><time>2026-04-24T06:04:20.001Z</time></trkpt><trkpt lat="14.555136824247118" lon="120.98859449030834"><ele>6.0</ele><time>2026-04-24T06:04:21.001Z</time></trkpt><trkpt lat="14.55497719218813" lon="120.98863923584005"><ele>6.0</ele><time>2026-04-24T06:04:22.001Z</time></trkpt><trkpt lat="14.554816548119257" lon="120.98868807693633"><ele>6.0</ele><time>2026-04-24T06:04:23.001Z</time></trkpt><trkpt lat="14.55466663412941" lon="120.98874348985946"><ele>6.0</ele><time>2026-04-24T06:04:24.001Z</time></trkpt><trkpt lat="14.554513882418643" lon="120.98879121274533"><ele>6.25</ele><time>2026-04-24T06:04:25.001Z</time></trkpt><trkpt lat="14.554365752017066" lon="120.98883968250479"><ele>6.5</ele><time>2026-04-24T06:04:26.001Z</time></trkpt><trkpt lat="14.55422185960776" lon="120.98888313251742"><ele>6.75</ele><time>2026-04-24T06:04:27.001Z</time></trkpt><trkpt lat="14.554089713971468" lon="120.98892594587468"><ele>7.0</ele><time>2026-04-24T06:04:28.001Z</time></trkpt><trkpt lat="14.553959104540217" lon="120.98896626983374"><ele>7.0</ele><time>2026-04-24T06:04:29.001Z</time></trkpt><trkpt lat="14.553838168142086" lon="120.98900507999188"><ele>7.0</ele><time>2026-04-24T06:04:30.001Z</time></trkpt><trkpt lat="14.553713942891905" lon="120.98904647550832"><ele>7.0</ele><time>2026-04-24T06:04:31.001Z</time></trkpt><trkpt lat="14.553590737337055" lon="120.98908501238768"><ele>7.0</ele><time>2026-04-24T06:04:32.001Z</time></trkpt><trkpt lat="14.553483839337087" lon="120.98912021039274"><ele>6.8</ele><time>2026-04-24T06:04:33.001Z</time></trkpt><trkpt lat="14.553403263580725" lon="120.98914891423453"><ele>6.6</ele><time>2026-04-24T06:04:34.001Z</time></trkpt><trkpt lat="14.55330744445051" lon="120.98917985540882"><ele>6.3999999999999995</ele><time>2026-04-24T06:04:35.001Z</time></trkpt><trkpt lat="14.55321067258105" lon="120.98920089128467"><ele>6.199999999999999</ele><time>2026-04-24T06:04:36.001Z</time></trkpt><trkpt lat="14.55310773089062" lon="120.98923136501345"><ele>6.0</ele><time>2026-04-24T06:04:37.001Z</time></trkpt><trkpt lat="14.553004700584074" lon="120.98926481189339"><ele>6.75</ele><time>2026-04-24T06:04:38.001Z</time></trkpt><trkpt lat="14.55289575158013" lon="120.98930229931197"><ele>7.5</ele><time>2026-04-24T06:04:39.001Z</time></trkpt><trkpt lat="14.552780425059018" lon="120.9893352850143"><ele>8.25</ele><time>2026-04-24T06:04:40.001Z</time></trkpt><trkpt lat="14.552666729414737" lon="120.98937180217624"><ele>9.0</ele><time>2026-04-24T06:04:41.001Z</time></trkpt><trkpt lat="14.552542713685844" lon="120.98941309588253"><ele>9.25</ele><time>2026-04-24T06:04:42Z</time></trkpt><trkpt lat="14.552416794530622" lon="120.9894535516851"><ele>9.5</ele><time>2026-04-24T06:04:43Z</time></trkpt><trkpt lat="14.55229208062611" lon="120.98949152007283"><ele>9.75</ele><time>2026-04-24T06:04:44Z</time></trkpt><trkpt lat="14.552177497183516" lon="120.98952579894282"><ele>10.0</ele><time>2026-04-24T06:04:45Z</time></trkpt><trkpt lat="14.552071449640025" lon="120.98955942761168"><ele>9.8</ele><time>2026-04-24T06:04:46Z</time></trkpt><trkpt lat="14.551980751136742" lon="120.98958921757318"><ele>9.6</ele><time>2026-04-24T06:04:47Z</time></trkpt><trkpt lat="14.551892462409743" lon="120.98961974865807"><ele>9.4</ele><time>2026-04-24T06:04:48Z</time></trkpt><trkpt lat="14.551790114541104" lon="120.9896542242624"><ele>9.2</ele><time>2026-04-24T06:04:49Z</time></trkpt><trkpt lat="14.55167846560963" lon="120.98968888469314"><ele>9.0</ele><time>2026-04-24T06:04:50Z</time></trkpt><trkpt lat="14.551548808123952" lon="120.98972673695583"><ele>9.0</ele><time>2026-04-24T06:04:51Z</time></trkpt><trkpt lat="14.551423057567256" lon="120.98975513213931"><ele>9.0</ele><time>2026-04-24T06:04:52Z</time></trkpt><trkpt lat="14.551293481176284" lon="120.98977751739446"><ele>9.0</ele><time>2026-04-24T06:04:53Z</time></trkpt><trkpt lat="14.551168960960759" lon="120.98980216347151"><ele>9.0</ele><time>2026-04-24T06:04:54Z</time></trkpt><trkpt lat="14.551052528113326" lon="120.98982517919387"><ele>8.6</ele><time>2026-04-24T06:04:55Z</time></trkpt><trkpt lat="14.550956738784912" lon="120.98984180060647"><ele>8.2</ele><time>2026-04-24T06:04:56Z</time></trkpt><trkpt lat="14.550849337175235" lon="120.98986714920149"><ele>7.799999999999999</ele><time>2026-04-24T06:04:57Z</time></trkpt><trkpt lat="14.550734677161891" lon="120.98989576748133"><ele>7.3999999999999995</ele><time>2026-04-24T06:04:58Z</time></trkpt><trkpt lat="14.55061356899564" lon="120.98992350839372"><ele>7.0</ele><time>2026-04-24T06:04:59Z</time></trkpt><trkpt lat="14.550495310494682" lon="120.98995130311647"><ele>7.25</ele><time>2026-04-24T06:05:00Z</time></trkpt><trkpt lat="14.550372246047974" lon="120.98998115188066"><ele>7.5</ele><time>2026-04-24T06:05:01Z</time></trkpt><trkpt lat="14.550256698686189" lon="120.99000967116784"><ele>7.75</ele><time>2026-04-24T06:05:02Z</time></trkpt><trkpt lat="14.55013035200652" lon="120.990035092564"><ele>8.0</ele><time>2026-04-24T06:05:03Z</time></trkpt><trkpt lat="14.550001887476839" lon="120.9900631522969"><ele>8.0</ele><time>2026-04-24T06:05:04Z</time></trkpt><trkpt lat="14.549872784371953" lon="120.99009091497442"><ele>8.0</ele><time>2026-04-24T06:05:05Z</time></trkpt><trkpt lat="14.549734483453465" lon="120.9901235824705"><ele>8.0</ele><time>2026-04-24T06:05:06Z</time></trkpt><trkpt lat="14.549600802439683" lon="120.99015623479"><ele>8.0</ele><time>2026-04-24T06:05:07Z</time></trkpt><trkpt lat="14.549468372131189" lon="120.99019305873848"><ele>8.0</ele><time>2026-04-24T06:05:08Z</time></trkpt><trkpt lat="14.549332406029645" lon="120.99022930547085"><ele>8.0</ele><time>2026-04-24T06:05:09Z</time></trkpt><trkpt lat="14.549205977076548" lon="120.99025904779276"><ele>8.0</ele><time>2026-04-24T06:05:10Z</time></trkpt><trkpt lat="14.549083846794153" lon="120.99028694797607"><ele>8.0</ele><time>2026-04-24T06:05:11Z</time></trkpt><trkpt lat="14.54895372849692" lon="120.99031502082543"><ele>8.0</ele><time>2026-04-24T06:05:12Z</time></trkpt><trkpt lat="14.548827433041588" lon="120.99034705040063"><ele>8.0</ele><time>2026-04-24T06:05:13Z</time></trkpt><trkpt lat="14.54869959090624" lon="120.99038177308583"><ele>8.0</ele><time>2026-04-24T06:05:14Z</time></trkpt><trkpt lat="14.548571904887252" lon="120.99041193301353"><ele>8.0</ele><time>2026-04-24T06:05:15Z</time></trkpt><trkpt lat="14.548449100251371" lon="120.99044329858182"><ele>9.4</ele><time>2026-04-24T06:05:16Z</time></trkpt><trkpt lat="14.548329758997175" lon="120.9904728273061"><ele>10.8</ele><time>2026-04-24T06:05:17Z</time></trkpt><trkpt lat="14.54821829191061" lon="120.99049940466504"><ele>12.2</ele><time>2026-04-24T06:05:18Z</time></trkpt><trkpt lat="14.548121682454985" lon="120.99051850841255"><ele>13.6</ele><time>2026-04-24T06:05:19Z</time></trkpt><trkpt lat="14.54802620586228" lon="120.99054123853199"><ele>15.0</ele><time>2026-04-24T06:05:20Z</time></trkpt><trkpt lat="14.547928838648678" lon="120.99054979372426"><ele>13.6</ele><time>2026-04-24T06:05:21Z</time></trkpt><trkpt lat="14.547854426019615" lon="120.99057931301847"><ele>12.2</ele><time>2026-04-24T06:05:22Z</time></trkpt><trkpt lat="14.547758320137575" lon="120.99060240112985"><ele>10.8</ele><time>2026-04-24T06:05:23Z</time></trkpt><trkpt lat="14.54766723961638" lon="120.99062641551531"><ele>9.4</ele><time>2026-04-24T06:05:24Z</time></trkpt><trkpt lat="14.547580045374644" lon="120.99065079987905"><ele>8.0</ele><time>2026-04-24T06:05:25Z</time></trkpt><trkpt lat="14.54748956711364" lon="120.99067179439201"><ele>8.0</ele><time>2026-04-24T06:05:26Z</time></trkpt><trkpt lat="14.547401738488835" lon="120.9906935315919"><ele>8.0</ele><time>2026-04-24T06:05:27Z</time></trkpt><trkpt lat="14.547301042216752" lon="120.99072129552017"><ele>8.0</ele><time>2026-04-24T06:05:28Z</time></trkpt><trkpt lat="14.547189056404404" lon="120.9907322886083"><ele>8.0</ele><time>2026-04-24T06:05:29Z</time></trkpt><trkpt lat="14.54707682892488" lon="120.99077638413485"><ele>8.0</ele><time>2026-04-24T06:05:30Z</time></trkpt><trkpt lat="14.546941713199393" lon="120.99080430518204"><ele>7.666666666666666</ele><time>2026-04-24T06:05:31Z</time></trkpt><trkpt lat="14.546798870185174" lon="120.99083457085857"><ele>7.333333333333334</ele><time>2026-04-24T06:05:32Z</time></trkpt><trkpt lat="14.546655322305112" lon="120.9908713647525"><ele>7.0</ele><time>2026-04-24T06:05:33Z</time></trkpt><trkpt lat="14.546494849614593" lon="120.99090920573907"><ele>7.0</ele><time>2026-04-24T06:05:34Z</time></trkpt><trkpt lat="14.546340971870805" lon="120.99094481729813"><ele>7.0</ele><time>2026-04-24T06:05:35Z</time></trkpt><trkpt lat="14.54617901409074" lon="120.99098595629164"><ele>7.0</ele><time>2026-04-24T06:05:36Z</time></trkpt><trkpt lat="14.54602316969371" lon="120.9910223982358"><ele>7.0</ele><time>2026-04-24T06:05:37Z</time></trkpt><trkpt lat="14.545865600816589" lon="120.99106601491238"><ele>7.0</ele><time>2026-04-24T06:05:38Z</time></trkpt><trkpt lat="14.545725177440776" lon="120.99109750510803"><ele>7.0</ele><time>2026-04-24T06:05:39Z</time></trkpt><trkpt lat="14.545593427004185" lon="120.99112657674839"><ele>7.0</ele><time>2026-04-24T06:05:40Z</time></trkpt><trkpt lat="14.545451014887707" lon="120.9911618110461"><ele>8.0</ele><time>2026-04-24T06:05:41Z</time></trkpt><trkpt lat="14.545332637479994" lon="120.99118341353419"><ele>9.0</ele><time>2026-04-24T06:05:42Z</time></trkpt><trkpt lat="14.54521598667019" lon="120.99121801302009"><ele>10.0</ele><time>2026-04-24T06:05:43Z</time></trkpt><trkpt lat="14.545107134191248" lon="120.9912458464812"><ele>11.0</ele><time>2026-04-24T06:05:44Z</time></trkpt><trkpt lat="14.545000159535576" lon="120.99127350691737"><ele>11.0</ele><time>2026-04-24T06:05:45Z</time></trkpt><trkpt lat="14.544878820003046" lon="120.99128466929093"><ele>11.0</ele><time>2026-04-24T06:05:46Z</time></trkpt><trkpt lat="14.544765373627087" lon="120.99130740203132"><ele>11.0</ele><time>2026-04-24T06:05:47Z</time></trkpt><trkpt lat="14.544661793393253" lon="120.99133562371293"><ele>11.0</ele><time>2026-04-24T06:05:48Z</time></trkpt><trkpt lat="14.544560794129122" lon="120.99135790926695"><ele>11.0</ele><time>2026-04-24T06:05:49Z</time></trkpt><trkpt lat="14.544458077741206" lon="120.99137671251323"><ele>10.4</ele><time>2026-04-24T06:05:50Z</time></trkpt><trkpt lat="14.544350765799251" lon="120.99139877817144"><ele>9.8</ele><time>2026-04-24T06:05:51Z</time></trkpt><trkpt lat="14.54424254991721" lon="120.99141721249956"><ele>9.200000000000001</ele><time>2026-04-24T06:05:52Z</time></trkpt><trkpt lat="14.544132769279823" lon="120.99143731542743"><ele>8.600000000000001</ele><time>2026-04-24T06:05:53.001Z</time></trkpt><trkpt lat="14.544021369355397" lon="120.99145604696507"><ele>8.0</ele><time>2026-04-24T06:05:54.001Z</time></trkpt><trkpt lat="14.543905449667369" lon="120.99147388127739"><ele>8.0</ele><time>2026-04-24T06:05:55.001Z</time></trkpt><trkpt lat="14.543786403173238" lon="120.991494922327"><ele>8.0</ele><time>2026-04-24T06:05:56.001Z</time></trkpt><trkpt lat="14.543665501726728" lon="120.99151536039226"><ele>8.0</ele><time>2026-04-24T06:05:57.001Z</time></trkpt><trkpt lat="14.543542424362768" lon="120.99153846630823"><ele>8.0</ele><time>2026-04-24T06:05:58.001Z</time></trkpt><trkpt lat="14.543421519593283" lon="120.99155732239149"><ele>7.5</ele><time>2026-04-24T06:05:59.001Z</time></trkpt><trkpt lat="14.543298953732474" lon="120.99157857510144"><ele>7.0</ele><time>2026-04-24T06:06:00.001Z</time></trkpt><trkpt lat="14.543177321161965" lon="120.99160230620186"><ele>6.5</ele><time>2026-04-24T06:06:01.001Z</time></trkpt><trkpt lat="14.543051204233382" lon="120.99162825693148"><ele>6.0</ele><time>2026-04-24T06:06:02.001Z</time></trkpt><trkpt lat="14.542926973187697" lon="120.99164892855231"><ele>5.75</ele><time>2026-04-24T06:06:03.001Z</time></trkpt><trkpt lat="14.542802068144942" lon="120.9916655826356"><ele>5.5</ele><time>2026-04-24T06:06:04.001Z</time></trkpt><trkpt lat="14.54267497846263" lon="120.9916901202544"><ele>5.25</ele><time>2026-04-24T06:06:05.001Z</time></trkpt><trkpt lat="14.542549968355127" lon="120.99171221258324"><ele>5.0</ele><time>2026-04-24T06:06:06.001Z</time></trkpt><trkpt lat="14.542426709937102" lon="120.99173292998893"><ele>5.5</ele><time>2026-04-24T06:06:07.001Z</time></trkpt><trkpt lat="14.542299836509063" lon="120.99175677564635"><ele>6.0</ele><time>2026-04-24T06:06:08.001Z</time></trkpt><trkpt lat="14.542172806734174" lon="120.99177962994384"><ele>6.5</ele><time>2026-04-24T06:06:09.001Z</time></trkpt><trkpt lat="14.542044385062821" lon="120.99180524495898"><ele>7.0</ele><time>2026-04-24T06:06:10.001Z</time></trkpt><trkpt lat="14.541916548414807" lon="120.99182916868436"><ele>7.0</ele><time>2026-04-24T06:06:11.001Z</time></trkpt><trkpt lat="14.54178716205304" lon="120.99185335120835"><ele>7.0</ele><time>2026-04-24T06:06:12.001Z</time></trkpt><trkpt lat="14.541652117738632" lon="120.99186319319205"><ele>7.0</ele><time>2026-04-24T06:06:13.001Z</time></trkpt><trkpt lat="14.541522157411434" lon="120.99188592186798"><ele>7.0</ele><time>2026-04-24T06:06:14.001Z</time></trkpt><trkpt lat="14.54138987143518" lon="120.9919090572734"><ele>7.0</ele><time>2026-04-24T06:06:15.001Z</time></trkpt><trkpt lat="14.541250991020263" lon="120.9919333459763"><ele>7.0</ele><time>2026-04-24T06:06:16.001Z</time></trkpt><trkpt lat="14.541103745205648" lon="120.99195909769797"><ele>7.0</ele><time>2026-04-24T06:06:17.001Z</time></trkpt><trkpt lat="14.54094897941303" lon="120.99198473026952"><ele>7.0</ele><time>2026-04-24T06:06:18.001Z</time></trkpt><trkpt lat="14.540785869139482" lon="120.99201307661717"><ele>7.666666666666667</ele><time>2026-04-24T06:06:19.001Z</time></trkpt><trkpt lat="14.540618583487529" lon="120.99203688604466"><ele>8.333333333333334</ele><time>2026-04-24T06:06:20.001Z</time></trkpt><trkpt lat="14.540448571877754" lon="120.99205849214138"><ele>9.0</ele><time>2026-04-24T06:06:21.001Z</time></trkpt><trkpt lat="14.540264503869453" lon="120.99208188461387"><ele>9.0</ele><time>2026-04-24T06:06:22.001Z</time></trkpt><trkpt lat="14.540093173732497" lon="120.99210365827696"><ele>9.0</ele><time>2026-04-24T06:06:23.001Z</time></trkpt><trkpt lat="14.539927259451714" lon="120.99212474366236"><ele>9.0</ele><time>2026-04-24T06:06:24.001Z</time></trkpt><trkpt lat="14.539769333936325" lon="120.99214481378509"><ele>9.0</ele><time>2026-04-24T06:06:25.001Z</time></trkpt><trkpt lat="14.539610276901762" lon="120.99214678043937"><ele>9.0</ele><time>2026-04-24T06:06:26.001Z</time></trkpt><trkpt lat="14.539443099502597" lon="120.99214730151488"><ele>9.0</ele><time>2026-04-24T06:06:27.001Z</time></trkpt><trkpt lat="14.539290901766652" lon="120.99222785571965"><ele>8.0</ele><time>2026-04-24T06:06:28.001Z</time></trkpt><trkpt lat="14.53914010027723" lon="120.99223792739677"><ele>7.0</ele><time>2026-04-24T06:06:29.001Z</time></trkpt><trkpt lat="14.53898805206058" lon="120.99227199748897"><ele>6.0</ele><time>2026-04-24T06:06:30.001Z</time></trkpt><trkpt lat="14.538838533067366" lon="120.99228999370636"><ele>7.0</ele><time>2026-04-24T06:06:31.001Z</time></trkpt><trkpt lat="14.538679476489941" lon="120.99230173830091"><ele>8.0</ele><time>2026-04-24T06:06:32.001Z</time></trkpt><trkpt lat="14.538528551593126" lon="120.99232483855653"><ele>9.0</ele><time>2026-04-24T06:06:33.001Z</time></trkpt><trkpt lat="14.538375330451176" lon="120.99233788895143"><ele>9.0</ele><time>2026-04-24T06:06:34.001Z</time></trkpt><trkpt lat="14.53822502164245" lon="120.99235997104869"><ele>9.0</ele><time>2026-04-24T06:06:35.001Z</time></trkpt><trkpt lat="14.538075623100488" lon="120.99237850478973"><ele>9.0</ele><time>2026-04-24T06:06:36.001Z</time></trkpt><trkpt lat="14.537933438309802" lon="120.99239151152601"><ele>9.0</ele><time>2026-04-24T06:06:37.001Z</time></trkpt><trkpt lat="14.537788623057265" lon="120.99241110870655"><ele>8.0</ele><time>2026-04-24T06:06:38.001Z</time></trkpt><trkpt lat="14.537641190111852" lon="120.99242800399718"><ele>7.0</ele><time>2026-04-24T06:06:39.001Z</time></trkpt><trkpt lat="14.53749865983816" lon="120.99243878975437"><ele>6.0</ele><time>2026-04-24T06:06:40.001Z</time></trkpt><trkpt lat="14.53735823747942" lon="120.99245852362701"><ele>5.0</ele><time>2026-04-24T06:06:41.001Z</time></trkpt><trkpt lat="14.537220129463476" lon="120.99247531637687"><ele>5.0</ele><time>2026-04-24T06:06:42.001Z</time></trkpt><trkpt lat="14.537081702091221" lon="120.99249437076183"><ele>5.0</ele><time>2026-04-24T06:06:43.001Z</time></trkpt><trkpt lat="14.536947414547356" lon="120.99250570697518"><ele>5.0</ele><time>2026-04-24T06:06:44.001Z</time></trkpt><trkpt lat="14.53680913825764" lon="120.99251821245"><ele>5.0</ele><time>2026-04-24T06:06:45.001Z</time></trkpt><trkpt lat="14.53667112156447" lon="120.99253573961965"><ele>6.0</ele><time>2026-04-24T06:06:46.001Z</time></trkpt><trkpt lat="14.53653503079969" lon="120.9925544730425"><ele>7.0</ele><time>2026-04-24T06:06:47.001Z</time></trkpt><trkpt lat="14.5364041530354" lon="120.99256942433966"><ele>8.0</ele><time>2026-04-24T06:06:47.999Z</time></trkpt><trkpt lat="14.536288417708512" lon="120.99259621008649"><ele>9.0</ele><time>2026-04-24T06:06:48.999Z</time></trkpt><trkpt lat="14.536173904575044" lon="120.99263453401623"><ele>9.0</ele><time>2026-04-24T06:06:49.999Z</time></trkpt><trkpt lat="14.536036234400177" lon="120.99261942915551"><ele>9.0</ele><time>2026-04-24T06:06:50.999Z</time></trkpt><trkpt lat="14.535908081560635" lon="120.99263142588389"><ele>9.0</ele><time>2026-04-24T06:06:51.999Z</time></trkpt><trkpt lat="14.53577720441004" lon="120.99264674757417"><ele>9.0</ele><time>2026-04-24T06:06:52.999Z</time></trkpt><trkpt lat="14.535638282651169" lon="120.99266621453377"><ele>9.0</ele><time>2026-04-24T06:06:53.999Z</time></trkpt><trkpt lat="14.535503939418007" lon="120.99268398089973"><ele>9.0</ele><time>2026-04-24T06:06:54.999Z</time></trkpt><trkpt lat="14.53538027785064" lon="120.99269505031256"><ele>9.0</ele><time>2026-04-24T06:06:55.999Z</time></trkpt><trkpt lat="14.535261002504367" lon="120.99271029573747"><ele>9.0</ele><time>2026-04-24T06:06:56.999Z</time></trkpt><trkpt lat="14.535151239729634" lon="120.99271836741896"><ele>9.0</ele><time>2026-04-24T06:06:57.999Z</time></trkpt><trkpt lat="14.535050276609857" lon="120.99272752426467"><ele>9.0</ele><time>2026-04-24T06:06:58.999Z</time></trkpt><trkpt lat="14.53495195545385" lon="120.99273497372522"><ele>9.0</ele><time>2026-04-24T06:06:59.999Z</time></trkpt><trkpt lat="14.534851239039703" lon="120.99274678238146"><ele>9.0</ele><time>2026-04-24T06:07:00.999Z</time></trkpt><trkpt lat="14.534746668166157" lon="120.99275650065074"><ele>9.0</ele><time>2026-04-24T06:07:01.999Z</time></trkpt><trkpt lat="14.534641265713551" lon="120.99276271824071"><ele>8.5</ele><time>2026-04-24T06:07:02.999Z</time></trkpt><trkpt lat="14.534528511058713" lon="120.99277347272987"><ele>8.0</ele><time>2026-04-24T06:07:03.999Z</time></trkpt><trkpt lat="14.534417796368372" lon="120.99278816162094"><ele>7.5</ele><time>2026-04-24T06:07:05Z</time></trkpt><trkpt lat="14.534306031315506" lon="120.9928020443949"><ele>7.0</ele><time>2026-04-24T06:07:06Z</time></trkpt><trkpt lat="14.534191882747956" lon="120.9928143990846"><ele>7.0</ele><time>2026-04-24T06:07:07Z</time></trkpt><trkpt lat="14.534076167572247" lon="120.99282689591392"><ele>7.0</ele><time>2026-04-24T06:07:08Z</time></trkpt><trkpt lat="14.53395678081043" lon="120.99283098842861"><ele>7.0</ele><time>2026-04-24T06:07:09Z</time></trkpt><trkpt lat="14.53382616467085" lon="120.99284051765225"><ele>7.0</ele><time>2026-04-24T06:07:10Z</time></trkpt><trkpt lat="14.53370227445023" lon="120.99284637799529"><ele>8.2</ele><time>2026-04-24T06:07:11Z</time></trkpt><trkpt lat="14.533582896025832" lon="120.99285706089422"><ele>9.399999999999999</ele><time>2026-04-24T06:07:12Z</time></trkpt><trkpt lat="14.533472544816274" lon="120.9928664394036"><ele>10.600000000000001</ele><time>2026-04-24T06:07:13Z</time></trkpt><trkpt lat="14.533367836340519" lon="120.99288134600864"><ele>11.8</ele><time>2026-04-24T06:07:14Z</time></trkpt><trkpt lat="14.533261727885183" lon="120.99289530682384"><ele>13.0</ele><time>2026-04-24T06:07:15Z</time></trkpt><trkpt lat="14.533157465754625" lon="120.99290609953711"><ele>13.0</ele><time>2026-04-24T06:07:16Z</time></trkpt><trkpt lat="14.533044241994443" lon="120.99292637077673"><ele>13.0</ele><time>2026-04-24T06:07:17Z</time></trkpt><trkpt lat="14.532932912422227" lon="120.99294845873813"><ele>13.0</ele><time>2026-04-24T06:07:18Z</time></trkpt><trkpt lat="14.532806092393344" lon="120.99295304429256"><ele>13.0</ele><time>2026-04-24T06:07:19Z</time></trkpt><trkpt lat="14.532675077098922" lon="120.99296804176453"><ele>11.75</ele><time>2026-04-24T06:07:20Z</time></trkpt><trkpt lat="14.532536688974465" lon="120.9929837384102"><ele>10.5</ele><time>2026-04-24T06:07:21Z</time></trkpt><trkpt lat="14.532391975182115" lon="120.99300015144874"><ele>9.25</ele><time>2026-04-24T06:07:22Z</time></trkpt><trkpt lat="14.532243173271851" lon="120.99301702926556"><ele>8.0</ele><time>2026-04-24T06:07:23Z</time></trkpt><trkpt lat="14.532093762439509" lon="120.99303413705319"><ele>7.333333333333333</ele><time>2026-04-24T06:07:24Z</time></trkpt><trkpt lat="14.531941049355096" lon="120.99305169078404"><ele>6.666666666666666</ele><time>2026-04-24T06:07:25Z</time></trkpt><trkpt lat="14.531783083992272" lon="120.99307012080244"><ele>6.0</ele><time>2026-04-24T06:07:26Z</time></trkpt><trkpt lat="14.531624271363562" lon="120.99308969494612"><ele>6.0</ele><time>2026-04-24T06:07:27Z</time></trkpt><trkpt lat="14.531457790328245" lon="120.99310672803723"><ele>6.0</ele><time>2026-04-24T06:07:28Z</time></trkpt><trkpt lat="14.531285147737032" lon="120.99312528781756"><ele>6.0</ele><time>2026-04-24T06:07:29Z</time></trkpt><trkpt lat="14.53110886034656" lon="120.99314409453625"><ele>5.0</ele><time>2026-04-24T06:07:30Z</time></trkpt><trkpt lat="14.530930060846659" lon="120.9931679280954"><ele>4.0</ele><time>2026-04-24T06:07:31Z</time></trkpt><trkpt lat="14.530756833943585" lon="120.99319153699116"><ele>3.0</ele><time>2026-04-24T06:07:32Z</time></trkpt><trkpt lat="14.530577561333656" lon="120.99321556715057"><ele>3.0</ele><time>2026-04-24T06:07:33Z</time></trkpt><trkpt lat="14.530392436634024" lon="120.99324040887925"><ele>3.0</ele><time>2026-04-24T06:07:34Z</time></trkpt><trkpt lat="14.530210517068118" lon="120.99327995187862"><ele>3.0</ele><time>2026-04-24T06:07:35Z</time></trkpt><trkpt lat="14.530036587929088" lon="120.99330011204822"><ele>4.333333333333334</ele><time>2026-04-24T06:07:36Z</time></trkpt><trkpt lat="14.529857489259873" lon="120.99332111188411"><ele>5.666666666666667</ele><time>2026-04-24T06:07:37Z</time></trkpt><trkpt lat="14.52969956930672" lon="120.99334349910289"><ele>7.0</ele><time>2026-04-24T06:07:38Z</time></trkpt><trkpt lat="14.529548495446736" lon="120.99336447200808"><ele>7.0</ele><time>2026-04-24T06:07:39Z</time></trkpt><trkpt lat="14.52941181654637" lon="120.99337406466387"><ele>7.0</ele><time>2026-04-24T06:07:40Z</time></trkpt><trkpt lat="14.529264489878303" lon="120.99337906624511"><ele>7.0</ele><time>2026-04-24T06:07:41Z</time></trkpt><trkpt lat="14.529107894832164" lon="120.9933825504031"><ele>7.0</ele><time>2026-04-24T06:07:42Z</time></trkpt><trkpt lat="14.528941078648057" lon="120.99339212096297"><ele>7.0</ele><time>2026-04-24T06:07:43Z</time></trkpt><trkpt lat="14.528780715128969" lon="120.99340955044292"><ele>7.0</ele><time>2026-04-24T06:07:44Z</time></trkpt><trkpt lat="14.52863957747475" lon="120.9934197516986"><ele>7.0</ele><time>2026-04-24T06:07:45Z</time></trkpt><trkpt lat="14.528500151250935" lon="120.99342454944383"><ele>7.0</ele><time>2026-04-24T06:07:46Z</time></trkpt><trkpt lat="14.528373874830146" lon="120.99342970714021"><ele>7.3999999999999995</ele><time>2026-04-24T06:07:47Z</time></trkpt><trkpt lat="14.528253987983925" lon="120.99344366590603"><ele>7.799999999999999</ele><time>2026-04-24T06:07:48Z</time></trkpt><trkpt lat="14.528143310185953" lon="120.99345554368631"><ele>8.2</ele><time>2026-04-24T06:07:49Z</time></trkpt><trkpt lat="14.528047174902312" lon="120.99346464877458"><ele>8.6</ele><time>2026-04-24T06:07:50Z</time></trkpt><trkpt lat="14.527966225461034" lon="120.99347148256629"><ele>9.0</ele><time>2026-04-24T06:07:51Z</time></trkpt><trkpt lat="14.52790049787177" lon="120.9934771963228"><ele>9.166666666666666</ele><time>2026-04-24T06:07:52Z</time></trkpt><trkpt lat="14.527818115690321" lon="120.99348742570183"><ele>9.333333333333334</ele><time>2026-04-24T06:07:54Z</time></trkpt><trkpt lat="14.527750674269218" lon="120.99347463837452"><ele>9.5</ele><time>2026-04-24T06:07:57Z</time></trkpt><trkpt lat="14.527675488049297" lon="120.99347619617932"><ele>9.666666666666668</ele><time>2026-04-24T06:08:00Z</time></trkpt><trkpt lat="14.52758148734125" lon="120.99348411051297"><ele>9.833333333333334</ele><time>2026-04-24T06:08:48.001Z</time></trkpt><trkpt lat="14.52746705908041" lon="120.9935029295206"><ele>10.0</ele><time>2026-04-24T06:08:50.001Z</time></trkpt><trkpt lat="14.527394721882265" lon="120.9935211884938"><ele>10.0</ele><time>2026-04-24T06:08:51.001Z</time></trkpt><trkpt lat="14.527310745207643" lon="120.99353947075616"><ele>10.0</ele><time>2026-04-24T06:08:52.001Z</time></trkpt><trkpt lat="14.52720939701174" lon="120.9935562329297"><ele>10.0</ele><time>2026-04-24T06:08:53.001Z</time></trkpt><trkpt lat="14.52710265527314" lon="120.9935705500417"><ele>10.0</ele><time>2026-04-24T06:08:53.999Z</time></trkpt><trkpt lat="14.526985644751024" lon="120.99357957915339"><ele>10.0</ele><time>2026-04-24T06:08:54.999Z</time></trkpt><trkpt lat="14.526844415497013" lon="120.99359594423363"><ele>9.25</ele><time>2026-04-24T06:08:55.999Z</time></trkpt><trkpt lat="14.526713695707924" lon="120.9936111354003"><ele>8.5</ele><time>2026-04-24T06:08:56.999Z</time></trkpt><trkpt lat="14.526606611973623" lon="120.99362522676519"><ele>7.75</ele><time>2026-04-24T06:08:58.999Z</time></trkpt><trkpt lat="14.526542354367562" lon="120.99362057561902"><ele>7.0</ele><time>2026-04-24T06:08:59.999Z</time></trkpt><trkpt lat="14.526332247059692" lon="120.99363698311215"><ele>9.0</ele><time>2026-04-24T06:09:00.999Z</time></trkpt><trkpt lat="14.526195076434997" lon="120.9936438024922"><ele>11.0</ele><time>2026-04-24T06:09:01.999Z</time></trkpt><trkpt lat="14.526055664820516" lon="120.99364502263379"><ele>13.0</ele><time>2026-04-24T06:09:02.999Z</time></trkpt><trkpt lat="14.525910081774857" lon="120.99364613392585"><ele>15.0</ele><time>2026-04-24T06:09:03.999Z</time></trkpt><trkpt lat="14.525762320991191" lon="120.99364370016828"><ele>15.0</ele><time>2026-04-24T06:09:04.999Z</time></trkpt><trkpt lat="14.52560862921323" lon="120.9936375521801"><ele>15.0</ele><time>2026-04-24T06:09:05.999Z</time></trkpt><trkpt lat="14.525459014657976" lon="120.99364180198539"><ele>15.0</ele><time>2026-04-24T06:09:06.999Z</time></trkpt><trkpt lat="14.52529835242691" lon="120.99364487168054"><ele>13.0</ele><time>2026-04-24T06:09:07.999Z</time></trkpt><trkpt lat="14.525147059007933" lon="120.99364531139291"><ele>11.0</ele><time>2026-04-24T06:09:08.999Z</time></trkpt><trkpt lat="14.524977977358587" lon="120.9936375602866"><ele>9.0</ele><time>2026-04-24T06:09:09.999Z</time></trkpt><trkpt lat="14.524818293621257" lon="120.99363174162272"><ele>9.0</ele><time>2026-04-24T06:09:10.999Z</time></trkpt><trkpt lat="14.524648709286149" lon="120.9936299976211"><ele>9.0</ele><time>2026-04-24T06:09:11.999Z</time></trkpt><trkpt lat="14.524476195136236" lon="120.99362679286429"><ele>9.0</ele><time>2026-04-24T06:09:12.999Z</time></trkpt><trkpt lat="14.524298187776132" lon="120.99362427642917"><ele>8.666666666666666</ele><time>2026-04-24T06:09:13.999Z</time></trkpt><trkpt lat="14.52412009373093" lon="120.99362236913873"><ele>8.333333333333332</ele><time>2026-04-24T06:09:14.999Z</time></trkpt><trkpt lat="14.52394581002069" lon="120.9936163470734"><ele>8.0</ele><time>2026-04-24T06:09:15.999Z</time></trkpt><trkpt lat="14.523764027779178" lon="120.99361141100576"><ele>8.0</ele><time>2026-04-24T06:09:16.999Z</time></trkpt><trkpt lat="14.523580727927554" lon="120.99360889795219"><ele>8.0</ele><time>2026-04-24T06:09:17.999Z</time></trkpt><trkpt lat="14.523407330523101" lon="120.9936073426663"><ele>8.0</ele><time>2026-04-24T06:09:18.999Z</time></trkpt><trkpt lat="14.523230022141144" lon="120.99360593888467"><ele>8.0</ele><time>2026-04-24T06:09:19.999Z</time></trkpt><trkpt lat="14.52305409924424" lon="120.9936014588475"><ele>8.0</ele><time>2026-04-24T06:09:20.999Z</time></trkpt><trkpt lat="14.522873746993678" lon="120.99360114215972"><ele>8.0</ele><time>2026-04-24T06:09:21.999Z</time></trkpt><trkpt lat="14.522693233299723" lon="120.99360197234138"><ele>7.0</ele><time>2026-04-24T06:09:22.999Z</time></trkpt><trkpt lat="14.522525260026871" lon="120.99359688748615"><ele>6.0</ele><time>2026-04-24T06:09:23.999Z</time></trkpt><trkpt lat="14.522352553825842" lon="120.9935953746388"><ele>5.0</ele><time>2026-04-24T06:09:24.999Z</time></trkpt><trkpt lat="14.522185112581495" lon="120.99359344707898"><ele>5.0</ele><time>2026-04-24T06:09:25.999Z</time></trkpt><trkpt lat="14.522020060681474" lon="120.99360108739329"><ele>5.0</ele><time>2026-04-24T06:09:26.999Z</time></trkpt><trkpt lat="14.521864580387943" lon="120.9935892025118"><ele>5.0</ele><time>2026-04-24T06:09:27.999Z</time></trkpt><trkpt lat="14.521714105279449" lon="120.99358766223305"><ele>5.0</ele><time>2026-04-24T06:09:28.999Z</time></trkpt><trkpt lat="14.521559748616573" lon="120.99356943956464"><ele>5.0</ele><time>2026-04-24T06:09:29.999Z</time></trkpt><trkpt lat="14.52140977238328" lon="120.99355174847591"><ele>5.0</ele><time>2026-04-24T06:09:31Z</time></trkpt><trkpt lat="14.52125843584778" lon="120.99354355339959"><ele>5.0</ele><time>2026-04-24T06:09:32Z</time></trkpt><trkpt lat="14.52110877771519" lon="120.9935221417425"><ele>5.0</ele><time>2026-04-24T06:09:33Z</time></trkpt><trkpt lat="14.520963884116307" lon="120.99350059436348"><ele>5.0</ele><time>2026-04-24T06:09:34Z</time></trkpt><trkpt lat="14.520820660640329" lon="120.99350547484566"><ele>5.0</ele><time>2026-04-24T06:09:35Z</time></trkpt><trkpt lat="14.520665732708808" lon="120.99349886804094"><ele>5.0</ele><time>2026-04-24T06:09:36Z</time></trkpt><trkpt lat="14.520513848146939" lon="120.99348594681327"><ele>5.0</ele><time>2026-04-24T06:09:37Z</time></trkpt><trkpt lat="14.52036713294022" lon="120.99348255479553"><ele>5.0</ele><time>2026-04-24T06:09:38Z</time></trkpt><trkpt lat="14.520228843835165" lon="120.99347930207315"><ele>5.0</ele><time>2026-04-24T06:09:39Z</time></trkpt><trkpt lat="14.520088563981705" lon="120.99346906173704"><ele>5.75</ele><time>2026-04-24T06:09:40Z</time></trkpt><trkpt lat="14.519952533668022" lon="120.99345620259038"><ele>6.5</ele><time>2026-04-24T06:09:41Z</time></trkpt><trkpt lat="14.519811204688867" lon="120.99343658302834"><ele>7.25</ele><time>2026-04-24T06:09:42Z</time></trkpt><trkpt lat="14.51967851206034" lon="120.99341273318292"><ele>8.0</ele><time>2026-04-24T06:09:43Z</time></trkpt><trkpt lat="14.519592887593326" lon="120.99340361760324"><ele>9.166666666666666</ele><time>2026-04-24T06:09:44Z</time></trkpt><trkpt lat="14.519497733824464" lon="120.99338546155658"><ele>10.333333333333332</ele><time>2026-04-24T06:09:45Z</time></trkpt><trkpt lat="14.519406598591758" lon="120.99335717307854"><ele>11.5</ele><time>2026-04-24T06:09:46Z</time></trkpt><trkpt lat="14.519325536181114" lon="120.99335284005177"><ele>12.666666666666666</ele><time>2026-04-24T06:09:47Z</time></trkpt><trkpt lat="14.519230833947505" lon="120.99332722355676"><ele>13.833333333333334</ele><time>2026-04-24T06:09:48Z</time></trkpt><trkpt lat="14.51915627132346" lon="120.99330806071889"><ele>15.0</ele><time>2026-04-24T06:09:49Z</time></trkpt><trkpt lat="14.51908216092177" lon="120.99329857163521"><ele>15.0</ele><time>2026-04-24T06:09:50Z</time></trkpt><trkpt lat="14.518999926436388" lon="120.99328429906116"><ele>15.0</ele><time>2026-04-24T06:09:51Z</time></trkpt><trkpt lat="14.518906805153877" lon="120.99326891031527"><ele>15.0</ele><time>2026-04-24T06:09:52Z</time></trkpt><trkpt lat="14.518829426398721" lon="120.99331349976896"><ele>15.0</ele><time>2026-04-24T06:09:53Z</time></trkpt><trkpt lat="14.51874530082984" lon="120.9933055616782"><ele>15.0</ele><time>2026-04-24T06:09:54Z</time></trkpt><trkpt lat="14.518649900804602" lon="120.99329542182886"><ele>15.0</ele><time>2026-04-24T06:09:55Z</time></trkpt><trkpt lat="14.51856936175362" lon="120.99328456793353"><ele>14.0</ele><time>2026-04-24T06:09:56Z</time></trkpt><trkpt lat="14.518500331762363" lon="120.99327526507454"><ele>13.0</ele><time>2026-04-24T06:09:57Z</time></trkpt><trkpt lat="14.518431328526697" lon="120.99326596579958"><ele>12.0</ele><time>2026-04-24T06:09:58Z</time></trkpt><trkpt lat="14.51834764366612" lon="120.99325468796044"><ele>11.0</ele><time>2026-04-24T06:09:59Z</time></trkpt><trkpt lat="14.518269433638045" lon="120.99324277206496"><ele>10.0</ele><time>2026-04-24T06:10:00Z</time></trkpt><trkpt lat="14.518196826201539" lon="120.99323105947653"><ele>9.0</ele><time>2026-04-24T06:10:01Z</time></trkpt><trkpt lat="14.51808166776586" lon="120.99321248282533"><ele>9.0</ele><time>2026-04-24T06:10:03Z</time></trkpt><trkpt lat="14.518003496566855" lon="120.9931849340736"><ele>9.0</ele><time>2026-04-24T06:10:05Z</time></trkpt><trkpt lat="14.517924362456045" lon="120.9931793980094"><ele>9.0</ele><time>2026-04-24T06:10:07Z</time></trkpt><trkpt lat="14.51785632630227" lon="120.99314738039801"><ele>9.0</ele><time>2026-04-24T06:10:09Z</time></trkpt><trkpt lat="14.51776907800521" lon="120.99308261229528"><ele>9.0</ele><time>2026-04-24T06:10:11Z</time></trkpt><trkpt lat="14.51770584494436" lon="120.99297938417993"><ele>8.8</ele><time>2026-04-24T06:10:13Z</time></trkpt><trkpt lat="14.517654381723315" lon="120.99287963832498"><ele>8.600000000000001</ele><time>2026-04-24T06:10:15Z</time></trkpt><trkpt lat="14.517622633722375" lon="120.99280626398067"><ele>8.4</ele><time>2026-04-24T06:10:16Z</time></trkpt><trkpt lat="14.517586603638291" lon="120.99272156479212"><ele>8.200000000000001</ele><time>2026-04-24T06:10:17Z</time></trkpt><trkpt lat="14.517618082720874" lon="120.9925778897835"><ele>8.0</ele><time>2026-04-24T06:10:19Z</time></trkpt><trkpt lat="14.51762042733909" lon="120.99250291343247"><ele>8.0</ele><time>2026-04-24T06:10:20Z</time></trkpt><trkpt lat="14.517622785741938" lon="120.99242749572862"><ele>8.0</ele><time>2026-04-24T06:10:21Z</time></trkpt><trkpt lat="14.517602676219516" lon="120.99226020749313"><ele>8.0</ele><time>2026-04-24T06:10:22Z</time></trkpt><trkpt lat="14.51758223033353" lon="120.99213020205907"><ele>8.0</ele><time>2026-04-24T06:10:23Z</time></trkpt><trkpt lat="14.517563490986412" lon="120.99201104755836"><ele>8.0</ele><time>2026-04-24T06:10:24Z</time></trkpt><trkpt lat="14.517545472560968" lon="120.99189647701603"><ele>8.0</ele><time>2026-04-24T06:10:25Z</time></trkpt><trkpt lat="14.517528654300538" lon="120.99178409297892"><ele>8.0</ele><time>2026-04-24T06:10:26Z</time></trkpt><trkpt lat="14.517509479778123" lon="120.99167846940503"><ele>8.0</ele><time>2026-04-24T06:10:27Z</time></trkpt><trkpt lat="14.517493243354654" lon="120.99159243981501"><ele>8.0</ele><time>2026-04-24T06:10:28Z</time></trkpt><trkpt lat="14.517477684458882" lon="120.99151060892667"><ele>8.0</ele><time>2026-04-24T06:10:29Z</time></trkpt><trkpt lat="14.517464579581558" lon="120.99144168476587"><ele>8.0</ele><time>2026-04-24T06:10:30Z</time></trkpt><trkpt lat="14.51745166913747" lon="120.99137378324853"><ele>8.0</ele><time>2026-04-24T06:10:31Z</time></trkpt><trkpt lat="14.517426993450753" lon="120.99124400320582"><ele>8.0</ele><time>2026-04-24T06:10:33Z</time></trkpt><trkpt lat="14.517409131457457" lon="120.99112748780077"><ele>8.0</ele><time>2026-04-24T06:10:35.001Z</time></trkpt><trkpt lat="14.517397434865702" lon="120.99104566164276"><ele>8.0</ele><time>2026-04-24T06:10:37.001Z</time></trkpt><trkpt lat="14.51738687681487" lon="120.9909738677021"><ele>8.0</ele><time>2026-04-24T06:10:40.001Z</time></trkpt><trkpt lat="14.517374704845992" lon="120.9908807136738"><ele>8.0</ele><time>2026-04-24T06:13:14.999Z</time></trkpt><trkpt lat="14.5173670141071" lon="120.99080714075959"><ele>8.0</ele><time>2026-04-24T06:13:15.999Z</time></trkpt><trkpt lat="14.517358695539468" lon="120.99072756104174"><ele>8.0</ele><time>2026-04-24T06:13:16.999Z</time></trkpt><trkpt lat="14.517037036188505" lon="120.99060988010271"><ele>8.75</ele><time>2026-04-24T06:13:18.999Z</time></trkpt><trkpt lat="14.516923297433362" lon="120.99060888016108"><ele>9.5</ele><time>2026-04-24T06:13:19.999Z</time></trkpt><trkpt lat="14.516801834192393" lon="120.99059073828299"><ele>10.25</ele><time>2026-04-24T06:13:20.999Z</time></trkpt><trkpt lat="14.516673707830813" lon="120.99056757995622"><ele>11.0</ele><time>2026-04-24T06:13:21.999Z</time></trkpt><trkpt lat="14.516537971018337" lon="120.99054043614485"><ele>11.0</ele><time>2026-04-24T06:13:22.999Z</time></trkpt><trkpt lat="14.51639457562264" lon="120.99051577976576"><ele>11.0</ele><time>2026-04-24T06:13:23.999Z</time></trkpt><trkpt lat="14.51624622042888" lon="120.99049424108323"><ele>11.0</ele><time>2026-04-24T06:13:24.999Z</time></trkpt><trkpt lat="14.516092396619653" lon="120.99047283097921"><ele>12.666666666666666</ele><time>2026-04-24T06:13:25.999Z</time></trkpt><trkpt lat="14.515933591954452" lon="120.99045019868015"><ele>14.333333333333332</ele><time>2026-04-24T06:13:26.999Z</time></trkpt><trkpt lat="14.51577135096583" lon="120.99043135146715"><ele>16.0</ele><time>2026-04-24T06:13:27.999Z</time></trkpt><trkpt lat="14.515602424972474" lon="120.99041165689655"><ele>16.0</ele><time>2026-04-24T06:13:29Z</time></trkpt><trkpt lat="14.51543403177969" lon="120.99039631180776"><ele>16.0</ele><time>2026-04-24T06:13:30Z</time></trkpt><trkpt lat="14.515263839664389" lon="120.99038168376802"><ele>16.0</ele><time>2026-04-24T06:13:31Z</time></trkpt><trkpt lat="14.515087953046221" lon="120.99035110367814"><ele>14.666666666666666</ele><time>2026-04-24T06:13:32Z</time></trkpt><trkpt lat="14.514914865105416" lon="120.99032060649832"><ele>13.333333333333332</ele><time>2026-04-24T06:13:33Z</time></trkpt><trkpt lat="14.514738427856441" lon="120.99029475153952"><ele>12.0</ele><time>2026-04-24T06:13:34Z</time></trkpt><trkpt lat="14.514560080903843" lon="120.99027901774652"><ele>10.333333333333334</ele><time>2026-04-24T06:13:35Z</time></trkpt><trkpt lat="14.514384218771887" lon="120.99026389013838"><ele>8.666666666666668</ele><time>2026-04-24T06:13:36Z</time></trkpt><trkpt lat="14.514200893354293" lon="120.99024696753722"><ele>7.0</ele><time>2026-04-24T06:13:37Z</time></trkpt><trkpt lat="14.514014173686482" lon="120.99020937377216"><ele>7.0</ele><time>2026-04-24T06:13:38Z</time></trkpt><trkpt lat="14.513820811553263" lon="120.99021192973458"><ele>7.0</ele><time>2026-04-24T06:13:39Z</time></trkpt><trkpt lat="14.513627817014443" lon="120.99017563928726"><ele>7.0</ele><time>2026-04-24T06:13:40Z</time></trkpt><trkpt lat="14.513429599087626" lon="120.99014675230026"><ele>6.666666666666667</ele><time>2026-04-24T06:13:41Z</time></trkpt><trkpt lat="14.513234296874906" lon="120.99011053527067"><ele>6.333333333333334</ele><time>2026-04-24T06:13:42Z</time></trkpt><trkpt lat="14.513035456348192" lon="120.99007085996726"><ele>6.0</ele><time>2026-04-24T06:13:43Z</time></trkpt><trkpt lat="14.512842698248676" lon="120.99001388605687"><ele>5.0</ele><time>2026-04-24T06:13:44Z</time></trkpt><trkpt lat="14.51264530278954" lon="120.98995497137419"><ele>4.0</ele><time>2026-04-24T06:13:45Z</time></trkpt><trkpt lat="14.512453782308656" lon="120.98989661692643"><ele>3.0</ele><time>2026-04-24T06:13:46Z</time></trkpt><trkpt lat="14.512266281944179" lon="120.9898388194878"><ele>3.0</ele><time>2026-04-24T06:13:47Z</time></trkpt><trkpt lat="14.512084793995584" lon="120.98978291337727"><ele>3.0</ele><time>2026-04-24T06:13:48Z</time></trkpt><trkpt lat="14.51191119260544" lon="120.9897285314424"><ele>3.0</ele><time>2026-04-24T06:13:49Z</time></trkpt><trkpt lat="14.511737486237084" lon="120.98967739198942"><ele>3.0</ele><time>2026-04-24T06:13:50Z</time></trkpt><trkpt lat="14.511568374732487" lon="120.98962788220733"><ele>3.0</ele><time>2026-04-24T06:13:51Z</time></trkpt><trkpt lat="14.511402645035634" lon="120.98957929407895"><ele>3.0</ele><time>2026-04-24T06:13:52Z</time></trkpt><trkpt lat="14.511235767650735" lon="120.9895305103055"><ele>2.3333333333333335</ele><time>2026-04-24T06:13:53Z</time></trkpt><trkpt lat="14.511070245522612" lon="120.98948218217161"><ele>1.6666666666666665</ele><time>2026-04-24T06:13:54Z</time></trkpt><trkpt lat="14.51090225939429" lon="120.98943313459866"><ele>1.0</ele><time>2026-04-24T06:13:55Z</time></trkpt><trkpt lat="14.510732608718133" lon="120.98937857597322"><ele>1.0</ele><time>2026-04-24T06:13:56Z</time></trkpt><trkpt lat="14.510560815900574" lon="120.98932499685391"><ele>1.0</ele><time>2026-04-24T06:13:57Z</time></trkpt><trkpt lat="14.510384884587786" lon="120.98927012699716"><ele>1.0</ele><time>2026-04-24T06:13:58Z</time></trkpt><trkpt lat="14.510207051054751" lon="120.98921466387652"><ele>2.3333333333333335</ele><time>2026-04-24T06:13:59Z</time></trkpt><trkpt lat="14.510030259195807" lon="120.98915952563814"><ele>3.666666666666667</ele><time>2026-04-24T06:14:00Z</time></trkpt><trkpt lat="14.509859046726831" lon="120.98910612699794"><ele>5.0</ele><time>2026-04-24T06:14:01Z</time></trkpt><trkpt lat="14.509690337284123" lon="120.9890535094983"><ele>6.333333333333334</ele><time>2026-04-24T06:14:02Z</time></trkpt><trkpt lat="14.509532506967535" lon="120.98900325500306"><ele>7.666666666666667</ele><time>2026-04-24T06:14:03Z</time></trkpt><trkpt lat="14.509383546820525" lon="120.98895344413575"><ele>9.0</ele><time>2026-04-24T06:14:04Z</time></trkpt><trkpt lat="14.509238141653297" lon="120.9889048220209"><ele>9.0</ele><time>2026-04-24T06:14:05Z</time></trkpt><trkpt lat="14.509092431504826" lon="120.98885596228898"><ele>9.0</ele><time>2026-04-24T06:14:06Z</time></trkpt><trkpt lat="14.50894343706663" lon="120.98880568243155"><ele>9.0</ele><time>2026-04-24T06:14:07Z</time></trkpt><trkpt lat="14.508808740694866" lon="120.98875712706615"><ele>8.5</ele><time>2026-04-24T06:14:08Z</time></trkpt><trkpt lat="14.508662967440504" lon="120.98870138020143"><ele>8.0</ele><time>2026-04-24T06:14:09Z</time></trkpt><trkpt lat="14.508529061643651" lon="120.98865017169739"><ele>7.5</ele><time>2026-04-24T06:14:10Z</time></trkpt><trkpt lat="14.508401818023325" lon="120.98860151094067"><ele>7.0</ele><time>2026-04-24T06:14:11Z</time></trkpt><trkpt lat="14.508286795539592" lon="120.98855752385741"><ele>7.0</ele><time>2026-04-24T06:14:12Z</time></trkpt><trkpt lat="14.50817109576159" lon="120.98851327772283"><ele>7.0</ele><time>2026-04-24T06:14:13Z</time></trkpt><trkpt lat="14.508054840188764" lon="120.98846663241466"><ele>7.0</ele><time>2026-04-24T06:14:14Z</time></trkpt><trkpt lat="14.507933202473279" lon="120.98841735283818"><ele>7.0</ele><time>2026-04-24T06:14:15Z</time></trkpt><trkpt lat="14.507807298573079" lon="120.98836634490114"><ele>7.5</ele><time>2026-04-24T06:14:16Z</time></trkpt><trkpt lat="14.507671515748484" lon="120.98831133466763"><ele>8.0</ele><time>2026-04-24T06:14:17Z</time></trkpt><trkpt lat="14.507534697974535" lon="120.98825590514879"><ele>8.5</ele><time>2026-04-24T06:14:18Z</time></trkpt><trkpt lat="14.507397992161236" lon="120.98820052098829"><ele>9.0</ele><time>2026-04-24T06:14:19Z</time></trkpt><trkpt lat="14.507260473529088" lon="120.98814480752452"><ele>9.0</ele><time>2026-04-24T06:14:20Z</time></trkpt><trkpt lat="14.50711971364983" lon="120.98808778091922"><ele>9.0</ele><time>2026-04-24T06:14:21Z</time></trkpt><trkpt lat="14.506980347773563" lon="120.98803131907124"><ele>9.0</ele><time>2026-04-24T06:14:22Z</time></trkpt><trkpt lat="14.506840981823453" lon="120.98797485719949"><ele>9.0</ele><time>2026-04-24T06:14:23.001Z</time></trkpt><trkpt lat="14.506699299592091" lon="120.98791750260268"><ele>9.0</ele><time>2026-04-24T06:14:24.001Z</time></trkpt><trkpt lat="14.506570925500112" lon="120.98786554839556"><ele>9.0</ele><time>2026-04-24T06:14:25.001Z</time></trkpt><trkpt lat="14.506453800644712" lon="120.9878181468908"><ele>9.0</ele><time>2026-04-24T06:14:26.001Z</time></trkpt><trkpt lat="14.506344144115538" lon="120.98776994595919"><ele>9.0</ele><time>2026-04-24T06:14:27.001Z</time></trkpt><trkpt lat="14.506246302143307" lon="120.98772347211579"><ele>9.0</ele><time>2026-04-24T06:14:28.001Z</time></trkpt><trkpt lat="14.506156769877064" lon="120.98768097660054"><ele>9.0</ele><time>2026-04-24T06:14:29.001Z</time></trkpt><trkpt lat="14.506081589937342" lon="120.98764542184087"><ele>9.0</ele><time>2026-04-24T06:14:30.001Z</time></trkpt><trkpt lat="14.506018345506035" lon="120.98761551169675"><ele>9.0</ele><time>2026-04-24T06:14:31.001Z</time></trkpt><trkpt lat="14.505949047599902" lon="120.98758273843607"><ele>9.0</ele><time>2026-04-24T06:14:32.001Z</time></trkpt><trkpt lat="14.505887738725777" lon="120.98755302979649"><ele>8.75</ele><time>2026-04-24T06:14:33.001Z</time></trkpt><trkpt lat="14.505832945268835" lon="120.98747461418935"><ele>8.5</ele><time>2026-04-24T06:14:34.001Z</time></trkpt><trkpt lat="14.505678198517467" lon="120.98756261112962"><ele>8.25</ele><time>2026-04-24T06:14:35.001Z</time></trkpt><trkpt lat="14.505585585380315" lon="120.98750990107067"><ele>8.0</ele><time>2026-04-24T06:14:36.001Z</time></trkpt><trkpt lat="14.505478167596634" lon="120.98745235422561"><ele>7.75</ele><time>2026-04-24T06:14:37.001Z</time></trkpt><trkpt lat="14.50537049561976" lon="120.98739308802779"><ele>7.5</ele><time>2026-04-24T06:14:38.001Z</time></trkpt><trkpt lat="14.505256439055835" lon="120.98733421258883"><ele>7.25</ele><time>2026-04-24T06:14:39.001Z</time></trkpt><trkpt lat="14.50513813916652" lon="120.98726682709956"><ele>7.0</ele><time>2026-04-24T06:14:40.001Z</time></trkpt><trkpt lat="14.505013129612115" lon="120.98719608006832"><ele>7.0</ele><time>2026-04-24T06:14:41.001Z</time></trkpt><trkpt lat="14.504882368388158" lon="120.98712464172696"><ele>7.0</ele><time>2026-04-24T06:14:42.001Z</time></trkpt><trkpt lat="14.504747254277255" lon="120.98705115786838"><ele>7.0</ele><time>2026-04-24T06:14:43.001Z</time></trkpt><trkpt lat="14.504615714313669" lon="120.98697874442485"><ele>7.5</ele><time>2026-04-24T06:14:44.001Z</time></trkpt><trkpt lat="14.504478438453917" lon="120.98690754430335"><ele>8.0</ele><time>2026-04-24T06:14:45.001Z</time></trkpt><trkpt lat="14.504348765639953" lon="120.98683590620189"><ele>8.5</ele><time>2026-04-24T06:14:46.001Z</time></trkpt><trkpt lat="14.50422882596479" lon="120.98677169819848"><ele>9.0</ele><time>2026-04-24T06:14:47.001Z</time></trkpt><trkpt lat="14.504113098958053" lon="120.98670615495928"><ele>9.2</ele><time>2026-04-24T06:14:48.001Z</time></trkpt><trkpt lat="14.504004483931608" lon="120.98664601236976"><ele>9.4</ele><time>2026-04-24T06:14:49.001Z</time></trkpt><trkpt lat="14.503903841935108" lon="120.98659403719995"><ele>9.6</ele><time>2026-04-24T06:14:50.001Z</time></trkpt><trkpt lat="14.503822816329192" lon="120.98654975347849"><ele>9.8</ele><time>2026-04-24T06:14:51.001Z</time></trkpt><trkpt lat="14.50375423621683" lon="120.98651306756115"><ele>10.0</ele><time>2026-04-24T06:14:52.001Z</time></trkpt><trkpt lat="14.503693668172128" lon="120.98648693780589"><ele>9.166666666666668</ele><time>2026-04-24T06:14:53.001Z</time></trkpt><trkpt lat="14.503589144108815" lon="120.98649593847428"><ele>8.333333333333334</ele><time>2026-04-24T06:14:55.001Z</time></trkpt><trkpt lat="14.503534205950364" lon="120.98657868208409"><ele>7.5</ele><time>2026-04-24T06:14:57.001Z</time></trkpt><trkpt lat="14.503517230163489" lon="120.98664923554708"><ele>6.666666666666667</ele><time>2026-04-24T06:14:58.001Z</time></trkpt><trkpt lat="14.503498157793405" lon="120.9867298856738"><ele>5.833333333333334</ele><time>2026-04-24T06:14:59.001Z</time></trkpt><trkpt lat="14.503469490716427" lon="120.98680339776698"><ele>5.0</ele><time>2026-04-24T06:15:00.001Z</time></trkpt><trkpt lat="14.503445344783273" lon="120.98689068504498"><ele>5.0</ele><time>2026-04-24T06:15:01.001Z</time></trkpt><trkpt lat="14.50341956099843" lon="120.98698643832425"><ele>5.0</ele><time>2026-04-24T06:15:02.001Z</time></trkpt><trkpt lat="14.503392468931311" lon="120.98709263240232"><ele>5.0</ele><time>2026-04-24T06:15:03.001Z</time></trkpt><trkpt lat="14.503358236207173" lon="120.98718282416928"><ele>5.0</ele><time>2026-04-24T06:15:04.001Z</time></trkpt><trkpt lat="14.503326688445972" lon="120.98729391702797"><ele>5.0</ele><time>2026-04-24T06:15:05.001Z</time></trkpt><trkpt lat="14.503292350503312" lon="120.98740678649148"><ele>5.4</ele><time>2026-04-24T06:15:06.001Z</time></trkpt><trkpt lat="14.503262824857053" lon="120.9875227513088"><ele>5.8</ele><time>2026-04-24T06:15:07.001Z</time></trkpt><trkpt lat="14.5032288042147" lon="120.98762731552374"><ele>6.199999999999999</ele><time>2026-04-24T06:15:08.001Z</time></trkpt><trkpt lat="14.503193987090002" lon="120.98773416947141"><ele>6.6</ele><time>2026-04-24T06:15:09.001Z</time></trkpt><trkpt lat="14.503165721722217" lon="120.98784402889687"><ele>7.0</ele><time>2026-04-24T06:15:10.001Z</time></trkpt><trkpt lat="14.503138840545855" lon="120.98795757676872"><ele>7.0</ele><time>2026-04-24T06:15:11.001Z</time></trkpt><trkpt lat="14.503104752597315" lon="120.98806160866458"><ele>6.999999999999999</ele><time>2026-04-24T06:15:11.999Z</time></trkpt><trkpt lat="14.50307091245718" lon="120.98816289668954"><ele>6.999999999999999</ele><time>2026-04-24T06:15:12.999Z</time></trkpt><trkpt lat="14.503044165021011" lon="120.98827352513527"><ele>7.0</ele><time>2026-04-24T06:15:13.999Z</time></trkpt><trkpt lat="14.503020930647795" lon="120.98836844128715"><ele>7.0</ele><time>2026-04-24T06:15:14.999Z</time></trkpt><trkpt lat="14.503010281527208" lon="120.98846311484847"><ele>6.3999999999999995</ele><time>2026-04-24T06:15:15.999Z</time></trkpt><trkpt lat="14.502998147776015" lon="120.98854361549738"><ele>5.799999999999999</ele><time>2026-04-24T06:15:16.999Z</time></trkpt><trkpt lat="14.503015188244381" lon="120.98862636837995"><ele>5.2</ele><time>2026-04-24T06:15:17.999Z</time></trkpt><trkpt lat="14.503014243225714" lon="120.98873237195009"><ele>4.6</ele><time>2026-04-24T06:15:18.999Z</time></trkpt><trkpt lat="14.503019991549065" lon="120.98882479622915"><ele>4.0</ele><time>2026-04-24T06:15:19.999Z</time></trkpt><trkpt lat="14.502962205567878" lon="120.98892346707542"><ele>4.0</ele><time>2026-04-24T06:15:20.999Z</time></trkpt><trkpt lat="14.502939517891923" lon="120.9890149116156"><ele>4.0</ele><time>2026-04-24T06:15:21.999Z</time></trkpt><trkpt lat="14.502909873545208" lon="120.98911012823241"><ele>4.0</ele><time>2026-04-24T06:15:22.999Z</time></trkpt><trkpt lat="14.50288946287356" lon="120.98921147620631"><ele>4.0</ele><time>2026-04-24T06:15:23.999Z</time></trkpt><trkpt lat="14.502860568385941" lon="120.98930106384618"><ele>4.0</ele><time>2026-04-24T06:15:24.999Z</time></trkpt><trkpt lat="14.502835016360729" lon="120.98939334926197"><ele>3.4999999999999996</ele><time>2026-04-24T06:15:25.999Z</time></trkpt><trkpt lat="14.502809079746484" lon="120.98947451321558"><ele>3.0</ele><time>2026-04-24T06:15:26.999Z</time></trkpt><trkpt lat="14.502781908735876" lon="120.98953619401962"><ele>2.5</ele><time>2026-04-24T06:15:27.999Z</time></trkpt><trkpt lat="14.50270946017339" lon="120.98957933542708"><ele>2.0</ele><time>2026-04-24T06:15:28.999Z</time></trkpt><trkpt lat="14.502640413893332" lon="120.98960572155016"><ele>1.5</ele><time>2026-04-24T06:15:29.999Z</time></trkpt><trkpt lat="14.502560962159642" lon="120.98962311402562"><ele>1.0</ele><time>2026-04-24T06:15:30.999Z</time></trkpt><trkpt lat="14.502485264080942" lon="120.9895973136238"><ele>1.0</ele><time>2026-04-24T06:15:32Z</time></trkpt><trkpt lat="14.502406043244184" lon="120.98956745643355"><ele>1.0</ele><time>2026-04-24T06:15:33Z</time></trkpt><trkpt lat="14.502317867611199" lon="120.98954130831936"><ele>1.0</ele><time>2026-04-24T06:15:34Z</time></trkpt><trkpt lat="14.502224174227294" lon="120.98951342543748"><ele>1.0</ele><time>2026-04-24T06:15:35Z</time></trkpt><trkpt lat="14.502121859642802" lon="120.98949195494822"><ele>1.0</ele><time>2026-04-24T06:15:36Z</time></trkpt><trkpt lat="14.502016878333592" lon="120.98948319271713"><ele>1.8</ele><time>2026-04-24T06:15:37Z</time></trkpt><trkpt lat="14.501914806860373" lon="120.9894844192937"><ele>2.6</ele><time>2026-04-24T06:15:38Z</time></trkpt><trkpt lat="14.501807786878453" lon="120.98947972140952"><ele>3.4</ele><time>2026-04-24T06:15:39Z</time></trkpt><trkpt lat="14.50170812101573" lon="120.98946198369804"><ele>4.2</ele><time>2026-04-24T06:15:40Z</time></trkpt><trkpt lat="14.501610134938328" lon="120.98943553691946"><ele>5.0</ele><time>2026-04-24T06:15:41Z</time></trkpt><trkpt lat="14.501515804770282" lon="120.98940820217909"><ele>5.0</ele><time>2026-04-24T06:15:42Z</time></trkpt><trkpt lat="14.501412745124451" lon="120.98937833783022"><ele>5.0</ele><time>2026-04-24T06:15:43Z</time></trkpt><trkpt lat="14.501316421841471" lon="120.98935042553133"><ele>5.0</ele><time>2026-04-24T06:15:44Z</time></trkpt><trkpt lat="14.501224108511371" lon="120.98932367521304"><ele>5.0</ele><time>2026-04-24T06:15:45Z</time></trkpt><trkpt lat="14.50113595959454" lon="120.98929813166704"><ele>5.0</ele><time>2026-04-24T06:15:46Z</time></trkpt><trkpt lat="14.501049058027494" lon="120.9892729495717"><ele>4.833333333333334</ele><time>2026-04-24T06:15:47Z</time></trkpt><trkpt lat="14.50096542363174" lon="120.98924871421212"><ele>4.666666666666667</ele><time>2026-04-24T06:15:48Z</time></trkpt><trkpt lat="14.500897820130174" lon="120.98922813268226"><ele>4.5</ele><time>2026-04-24T06:15:49Z</time></trkpt><trkpt lat="14.500795743970077" lon="120.98921065216537"><ele>4.333333333333333</ele><time>2026-04-24T06:15:51Z</time></trkpt><trkpt lat="14.500738465806261" lon="120.98917363276351"><ele>4.166666666666666</ele><time>2026-04-24T06:15:53Z</time></trkpt><trkpt lat="14.50066172670806" lon="120.9891462745476"><ele>4.0</ele><time>2026-04-24T06:15:58Z</time></trkpt><trkpt lat="14.500762530762124" lon="120.98914447517339"><ele>3.9999999999999996</ele><time>2026-04-24T06:16:04Z</time></trkpt><trkpt lat="14.500830027128723" lon="120.98915583828777"><ele>4.0</ele><time>2026-04-24T06:16:05Z</time></trkpt><trkpt lat="14.500912239356431" lon="120.98917622599271"><ele>4.0</ele><time>2026-04-24T06:16:06Z</time></trkpt><trkpt lat="14.500987859505237" lon="120.98921218791806"><ele>4.0</ele><time>2026-04-24T06:16:07Z</time></trkpt><trkpt lat="14.501080340781547" lon="120.98924046832214"><ele>3.9999999999999996</ele><time>2026-04-24T06:16:08Z</time></trkpt><trkpt lat="14.50116894484816" lon="120.98926688625026"><ele>4.0</ele><time>2026-04-24T06:16:09Z</time></trkpt><trkpt lat="14.50127264601287" lon="120.9892823888294"><ele>4.2</ele><time>2026-04-24T06:16:10Z</time></trkpt><trkpt lat="14.501369655136935" lon="120.98930878547385"><ele>4.4</ele><time>2026-04-24T06:16:11Z</time></trkpt><trkpt lat="14.50145097984953" lon="120.98933677447219"><ele>4.6</ele><time>2026-04-24T06:16:12Z</time></trkpt><trkpt lat="14.50152654974053" lon="120.98936224859"><ele>4.8</ele><time>2026-04-24T06:16:13Z</time></trkpt><trkpt lat="14.501601587246036" lon="120.98939070286262"><ele>5.0</ele><time>2026-04-24T06:16:14Z</time></trkpt><trkpt lat="14.501715245563988" lon="120.98942693518723"><ele>5.0</ele><time>2026-04-24T06:16:16Z</time></trkpt><trkpt lat="14.501819909780927" lon="120.98948016017236"><ele>5.0</ele><time>2026-04-24T06:16:18Z</time></trkpt><trkpt lat="14.501925673941992" lon="120.98955790985424"><ele>5.0</ele><time>2026-04-24T06:16:20Z</time></trkpt><trkpt lat="14.501984491182945" lon="120.98962972396535"><ele>5.0</ele><time>2026-04-24T06:16:22Z</time></trkpt><trkpt lat="14.501977307517274" lon="120.9897500550292"><ele>5.0</ele><time>2026-04-24T06:16:24Z</time></trkpt><trkpt lat="14.501960504864185" lon="120.98985996299731"><ele>5.0</ele><time>2026-04-24T06:16:26Z</time></trkpt><trkpt lat="14.501949453494579" lon="120.9899322910846"><ele>5.0</ele><time>2026-04-24T06:16:27Z</time></trkpt><trkpt lat="14.501924469744734" lon="120.99001270851535"><ele>5.0</ele><time>2026-04-24T06:16:29.001Z</time></trkpt><trkpt lat="14.501920549382794" lon="120.99012117230339"><ele>5.0</ele><time>2026-04-24T06:16:31.001Z</time></trkpt><trkpt lat="14.501777632501277" lon="120.99004829136126"><ele>5.0</ele><time>2026-04-24T06:16:36.001Z</time></trkpt><trkpt lat="14.501648144442004" lon="120.99000305381152"><ele>5.0</ele><time>2026-04-24T06:16:38.001Z</time></trkpt><trkpt lat="14.501575281704534" lon="120.9899775987097"><ele>5.0</ele><time>2026-04-24T06:16:39.001Z</time></trkpt><trkpt lat="14.501443530144362" lon="120.98994222967411"><ele>5.0</ele><time>2026-04-24T06:16:41.001Z</time></trkpt><trkpt lat="14.501359856327202" lon="120.9899113970824"><ele>5.0</ele><time>2026-04-24T06:16:42.001Z</time></trkpt><trkpt lat="14.501279096214418" lon="120.98988192162722"><ele>5.666666666666667</ele><time>2026-04-24T06:16:43.001Z</time></trkpt><trkpt lat="14.501209391447768" lon="120.9898578717376"><ele>6.333333333333334</ele><time>2026-04-24T06:16:44.001Z</time></trkpt><trkpt lat="14.501146541196153" lon="120.98983398903583"><ele>7.0</ele><time>2026-04-24T06:16:45.001Z</time></trkpt><trkpt lat="14.501075309997756" lon="120.98980902233517"><ele>7.666666666666667</ele><time>2026-04-24T06:16:46.001Z</time></trkpt><trkpt lat="14.500958766422793" lon="120.98976677569556"><ele>8.333333333333334</ele><time>2026-04-24T06:16:48.001Z</time></trkpt><trkpt lat="14.50086377323062" lon="120.98974244788569"><ele>9.0</ele><time>2026-04-24T06:16:49.001Z</time></trkpt><trkpt lat="14.500779867431138" lon="120.9897212639161"><ele>9.0</ele><time>2026-04-24T06:16:50.001Z</time></trkpt><trkpt lat="14.500719431425761" lon="120.98969799147918"><ele>9.0</ele><time>2026-04-24T06:16:51.001Z</time></trkpt><trkpt lat="14.500654061932199" lon="120.98967734148542"><ele>9.0</ele><time>2026-04-24T06:16:52.001Z</time></trkpt><trkpt lat="14.500562029988108" lon="120.98965522795307"><ele>9.0</ele><time>2026-04-24T06:16:53.001Z</time></trkpt><trkpt lat="14.500484720225199" lon="120.98961304144802"><ele>9.0</ele><time>2026-04-24T06:16:54.001Z</time></trkpt><trkpt lat="14.500417940818188" lon="120.98959240094257"><ele>9.0</ele><time>2026-04-24T06:16:55.001Z</time></trkpt><trkpt lat="14.50034246774562" lon="120.9895690733616"><ele>8.666666666666666</ele><time>2026-04-24T06:16:56.001Z</time></trkpt><trkpt lat="14.500258347060667" lon="120.98955850293731"><ele>8.333333333333334</ele><time>2026-04-24T06:16:57.001Z</time></trkpt><trkpt lat="14.500178540795876" lon="120.98952637154443"><ele>8.0</ele><time>2026-04-24T06:16:58.001Z</time></trkpt><trkpt lat="14.500097259917483" lon="120.98949925907232"><ele>7.666666666666667</ele><time>2026-04-24T06:16:59.001Z</time></trkpt><trkpt lat="14.500008086053871" lon="120.98947269610781"><ele>7.333333333333334</ele><time>2026-04-24T06:17:00.001Z</time></trkpt><trkpt lat="14.499920625508691" lon="120.98944100982126"><ele>7.0</ele><time>2026-04-24T06:17:01.001Z</time></trkpt><trkpt lat="14.49982238319969" lon="120.9894115201614"><ele>7.0</ele><time>2026-04-24T06:17:02.001Z</time></trkpt><trkpt lat="14.499712038776185" lon="120.98938618603407"><ele>7.0</ele><time>2026-04-24T06:17:03.001Z</time></trkpt><trkpt lat="14.499600263936104" lon="120.9893537494561"><ele>7.0</ele><time>2026-04-24T06:17:04.001Z</time></trkpt><trkpt lat="14.499484113919882" lon="120.98931569569712"><ele>7.0</ele><time>2026-04-24T06:17:05.001Z</time></trkpt><trkpt lat="14.499374730402577" lon="120.98927196205067"><ele>7.25</ele><time>2026-04-24T06:17:06.001Z</time></trkpt><trkpt lat="14.499267825316696" lon="120.98923006878752"><ele>7.5</ele><time>2026-04-24T06:17:07.001Z</time></trkpt><trkpt lat="14.499148535953037" lon="120.9892020280924"><ele>7.75</ele><time>2026-04-24T06:17:08.001Z</time></trkpt><trkpt lat="14.499040516746723" lon="120.98917008348951"><ele>8.0</ele><time>2026-04-24T06:17:09.001Z</time></trkpt><trkpt lat="14.498932477076945" lon="120.98913976610999"><ele>7.6000000000000005</ele><time>2026-04-24T06:17:10.001Z</time></trkpt><trkpt lat="14.498832601866777" lon="120.98910777044058"><ele>7.200000000000001</ele><time>2026-04-24T06:17:11.001Z</time></trkpt><trkpt lat="14.498733259991969" lon="120.989075007011"><ele>6.8</ele><time>2026-04-24T06:17:12.001Z</time></trkpt><trkpt lat="14.498630535442903" lon="120.98904880579596"><ele>6.4</ele><time>2026-04-24T06:17:13.001Z</time></trkpt><trkpt lat="14.498532970479301" lon="120.98902225941984"><ele>6.0</ele><time>2026-04-24T06:17:14.001Z</time></trkpt><trkpt lat="14.4984431283486" lon="120.98899307166944"><ele>6.0</ele><time>2026-04-24T06:17:15.001Z</time></trkpt><trkpt lat="14.498351032823532" lon="120.98896966077655"><ele>6.0</ele><time>2026-04-24T06:17:16.001Z</time></trkpt><trkpt lat="14.4982719712121" lon="120.9889310797549"><ele>6.0</ele><time>2026-04-24T06:17:17.001Z</time></trkpt><trkpt lat="14.498186702333369" lon="120.98891792189474"><ele>6.0</ele><time>2026-04-24T06:17:17.999Z</time></trkpt><trkpt lat="14.49811760923207" lon="120.98888120116338"><ele>6.0</ele><time>2026-04-24T06:17:18.999Z</time></trkpt><trkpt lat="14.498049952221452" lon="120.98885980616066"><ele>6.0</ele><time>2026-04-24T06:17:19.999Z</time></trkpt><trkpt lat="14.49798359828122" lon="120.9888395553113"><ele>6.142857142857142</ele><time>2026-04-24T06:17:20.999Z</time></trkpt><trkpt lat="14.497914166448886" lon="120.98881836508623"><ele>6.285714285714286</ele><time>2026-04-24T06:17:21.999Z</time></trkpt><trkpt lat="14.497841216278522" lon="120.98879610106901"><ele>6.428571428571429</ele><time>2026-04-24T06:17:22.999Z</time></trkpt><trkpt lat="14.497772643670064" lon="120.9887756790901"><ele>6.571428571428571</ele><time>2026-04-24T06:17:23.999Z</time></trkpt><trkpt lat="14.497710014407053" lon="120.98875717499153"><ele>6.714285714285714</ele><time>2026-04-24T06:17:24.999Z</time></trkpt><trkpt lat="14.497634496764409" lon="120.98875118916733"><ele>6.857142857142857</ele><time>2026-04-24T06:17:25.999Z</time></trkpt><trkpt lat="14.497558543703125" lon="120.98872662885363"><ele>7.0</ele><time>2026-04-24T06:17:26.999Z</time></trkpt><trkpt lat="14.497475775349617" lon="120.98870444378383"><ele>7.000000000000001</ele><time>2026-04-24T06:17:27.999Z</time></trkpt><trkpt lat="14.4973875459789" lon="120.98866222599356"><ele>7.0</ele><time>2026-04-24T06:17:28.999Z</time></trkpt><trkpt lat="14.49729927559278" lon="120.98865065533107"><ele>7.0</ele><time>2026-04-24T06:17:29.999Z</time></trkpt><trkpt lat="14.497218478934599" lon="120.98862594167615"><ele>7.0</ele><time>2026-04-24T06:17:30.999Z</time></trkpt><trkpt lat="14.497140884531852" lon="120.98858991394194"><ele>7.000000000000001</ele><time>2026-04-24T06:17:31.999Z</time></trkpt><trkpt lat="14.49706397738792" lon="120.98858388961737"><ele>7.0</ele><time>2026-04-24T06:17:32.999Z</time></trkpt><trkpt lat="14.496983342503313" lon="120.98854357382751"><ele>7.000000000000001</ele><time>2026-04-24T06:17:33.999Z</time></trkpt><trkpt lat="14.496898321401668" lon="120.98851849260576"><ele>7.0</ele><time>2026-04-24T06:17:34.999Z</time></trkpt><trkpt lat="14.49681654084712" lon="120.9884932347527"><ele>7.0</ele><time>2026-04-24T06:17:35.999Z</time></trkpt><trkpt lat="14.49673380992624" lon="120.98846699683288"><ele>7.0</ele><time>2026-04-24T06:17:37Z</time></trkpt><trkpt lat="14.496658261244386" lon="120.98844303673911"><ele>7.000000000000001</ele><time>2026-04-24T06:17:38Z</time></trkpt><trkpt lat="14.496578306181764" lon="120.98841654388899"><ele>7.0</ele><time>2026-04-24T06:17:39Z</time></trkpt><trkpt lat="14.496484703171456" lon="120.98838511760498"><ele>7.000000000000001</ele><time>2026-04-24T06:17:40Z</time></trkpt><trkpt lat="14.496400786323857" lon="120.98835694335938"><ele>7.0</ele><time>2026-04-24T06:17:41Z</time></trkpt><trkpt lat="14.496327164005153" lon="120.98833222538872"><ele>7.0</ele><time>2026-04-24T06:17:42Z</time></trkpt><trkpt lat="14.496259238025964" lon="120.98830941991515"><ele>7.0</ele><time>2026-04-24T06:17:43Z</time></trkpt><trkpt lat="14.496195252820756" lon="120.98828691060667"><ele>7.000000000000001</ele><time>2026-04-24T06:17:44Z</time></trkpt><trkpt lat="14.496121225819612" lon="120.98827569230279"><ele>7.0</ele><time>2026-04-24T06:17:45Z</time></trkpt><trkpt lat="14.496058164979656" lon="120.98823602873391"><ele>6.833333333333334</ele><time>2026-04-24T06:17:46Z</time></trkpt><trkpt lat="14.495985818903963" lon="120.98820917658226"><ele>6.666666666666667</ele><time>2026-04-24T06:17:47Z</time></trkpt><trkpt lat="14.495904457474644" lon="120.98819672770439"><ele>6.5</ele><time>2026-04-24T06:17:48Z</time></trkpt><trkpt lat="14.495829637191001" lon="120.98815120777034"><ele>6.333333333333334</ele><time>2026-04-24T06:17:49Z</time></trkpt><trkpt lat="14.495746004801951" lon="120.98811856373324"><ele>6.166666666666667</ele><time>2026-04-24T06:17:50Z</time></trkpt><trkpt lat="14.49565441572576" lon="120.98809597884525"><ele>6.0</ele><time>2026-04-24T06:17:51Z</time></trkpt><trkpt lat="14.495573076105781" lon="120.98806327548299"><ele>6.0</ele><time>2026-04-24T06:17:52Z</time></trkpt><trkpt lat="14.495493636531057" lon="120.98803530914904"><ele>6.0</ele><time>2026-04-24T06:17:53Z</time></trkpt><trkpt lat="14.495423703902405" lon="120.98800609278638"><ele>6.0</ele><time>2026-04-24T06:17:54Z</time></trkpt><trkpt lat="14.495350393191806" lon="120.98796390749243"><ele>6.0</ele><time>2026-04-24T06:17:55Z</time></trkpt><trkpt lat="14.495272752262851" lon="120.98792859774053"><ele>6.0</ele><time>2026-04-24T06:17:56Z</time></trkpt><trkpt lat="14.495181135214677" lon="120.98788694293867"><ele>6.0</ele><time>2026-04-24T06:17:57Z</time></trkpt><trkpt lat="14.495081805218975" lon="120.9878417810099"><ele>6.0</ele><time>2026-04-24T06:17:58Z</time></trkpt><trkpt lat="14.494983056866165" lon="120.98779710449747"><ele>6.0</ele><time>2026-04-24T06:17:59Z</time></trkpt><trkpt lat="14.494888826728571" lon="120.98775452484873"><ele>6.0</ele><time>2026-04-24T06:18:00Z</time></trkpt><trkpt lat="14.494800608724734" lon="120.98773127909888"><ele>6.0</ele><time>2026-04-24T06:18:01Z</time></trkpt><trkpt lat="14.494718220221205" lon="120.98769278105537"><ele>6.0</ele><time>2026-04-24T06:18:02Z</time></trkpt><trkpt lat="14.494651161136307" lon="120.98765754575204"><ele>6.199999999999999</ele><time>2026-04-24T06:18:03Z</time></trkpt><trkpt lat="14.49458290761571" lon="120.98762878898859"><ele>6.3999999999999995</ele><time>2026-04-24T06:18:04Z</time></trkpt><trkpt lat="14.494521781055305" lon="120.98760005791416"><ele>6.6</ele><time>2026-04-24T06:18:05Z</time></trkpt><trkpt lat="14.494423913826228" lon="120.98754680387763"><ele>6.8</ele><time>2026-04-24T06:18:07Z</time></trkpt><trkpt lat="14.494327197404278" lon="120.9875059861304"><ele>7.0</ele><time>2026-04-24T06:18:09Z</time></trkpt><trkpt lat="14.494219940536995" lon="120.98745606938682"><ele>6.666666666666667</ele><time>2026-04-24T06:18:11Z</time></trkpt><trkpt lat="14.494168601046269" lon="120.98740882388036"><ele>6.333333333333334</ele><time>2026-04-24T06:18:12Z</time></trkpt><trkpt lat="14.494111484358509" lon="120.98737974176244"><ele>6.0</ele><time>2026-04-24T06:18:13Z</time></trkpt><trkpt lat="14.49400233418053" lon="120.98732416579335"><ele>5.666666666666667</ele><time>2026-04-24T06:18:15Z</time></trkpt><trkpt lat="14.49394110009005" lon="120.98729298724709"><ele>5.333333333333334</ele><time>2026-04-24T06:18:16Z</time></trkpt><trkpt lat="14.49387983399767" lon="120.98726179240995"><ele>5.0</ele><time>2026-04-24T06:18:17Z</time></trkpt><trkpt lat="14.493769105260887" lon="120.98720541267443"><ele>5.2</ele><time>2026-04-24T06:18:19Z</time></trkpt><trkpt lat="14.493703003425722" lon="120.9871717556177"><ele>5.4</ele><time>2026-04-24T06:18:20Z</time></trkpt><trkpt lat="14.493601346754774" lon="120.98711999510849"><ele>5.6</ele><time>2026-04-24T06:18:22Z</time></trkpt><trkpt lat="14.493541956221073" lon="120.98708975524961"><ele>5.8</ele><time>2026-04-24T06:18:23Z</time></trkpt><trkpt lat="14.49347610529478" lon="120.98705622594555"><ele>6.0</ele><time>2026-04-24T06:18:24Z</time></trkpt><trkpt lat="14.493355098394685" lon="120.9869946128915"><ele>6.0</ele><time>2026-04-24T06:18:26Z</time></trkpt><trkpt lat="14.493295782899668" lon="120.9869644112299"><ele>6.0</ele><time>2026-04-24T06:18:27.001Z</time></trkpt><trkpt lat="14.493186473352075" lon="120.98690875434798"><ele>6.0</ele><time>2026-04-24T06:18:29.001Z</time></trkpt><trkpt lat="14.493114271615426" lon="120.98689830764377"><ele>6.0</ele><time>2026-04-24T06:18:30.001Z</time></trkpt><trkpt lat="14.49304556951486" lon="120.98688005155711"><ele>6.0</ele><time>2026-04-24T06:18:31.001Z</time></trkpt><trkpt lat="14.492983168045646" lon="120.98686331682892"><ele>6.0</ele><time>2026-04-24T06:18:32.001Z</time></trkpt><trkpt lat="14.492883806089477" lon="120.9868354430148"><ele>6.0</ele><time>2026-04-24T06:18:34.001Z</time></trkpt><trkpt lat="14.492805246874768" lon="120.98682708656538"><ele>6.0</ele><time>2026-04-24T06:18:36.001Z</time></trkpt><trkpt lat="14.492714366403597" lon="120.98679383355505"><ele>6.0</ele><time>2026-04-24T06:18:38.001Z</time></trkpt><trkpt lat="14.492634044982482" lon="120.98675878919288"><ele>6.0</ele><time>2026-04-24T06:18:40.001Z</time></trkpt><trkpt lat="14.492554796266287" lon="120.98672142255195"><ele>6.0</ele><time>2026-04-24T06:18:43.001Z</time></trkpt><trkpt lat="14.492589457459546" lon="120.9866463815935"><ele>6.0</ele><time>2026-04-24T06:18:45.001Z</time></trkpt><trkpt lat="14.492589075126267" lon="120.98655960671496"><ele>6.0</ele><time>2026-04-24T06:18:47.001Z</time></trkpt><trkpt lat="14.492503488829517" lon="120.98647886873263"><ele>6.0</ele><time>2026-04-24T06:18:49.001Z</time></trkpt><trkpt lat="14.492432527366264" lon="120.98644576959423"><ele>6.0</ele><time>2026-04-24T06:18:50.001Z</time></trkpt><trkpt lat="14.492352285522829" lon="120.98640927350928"><ele>6.0</ele><time>2026-04-24T06:18:51.001Z</time></trkpt><trkpt lat="14.492263983475967" lon="120.98636510217088"><ele>6.0</ele><time>2026-04-24T06:18:52.001Z</time></trkpt><trkpt lat="14.492183898471334" lon="120.98631864880741"><ele>6.0</ele><time>2026-04-24T06:18:53.001Z</time></trkpt><trkpt lat="14.492095161679112" lon="120.98626600856521"><ele>6.0</ele><time>2026-04-24T06:18:54.001Z</time></trkpt><trkpt lat="14.49200659349376" lon="120.98620975834274"><ele>6.0</ele><time>2026-04-24T06:18:55.001Z</time></trkpt><trkpt lat="14.491918599138826" lon="120.98615181283012"><ele>6.0</ele><time>2026-04-24T06:18:56.001Z</time></trkpt><trkpt lat="14.491825620634254" lon="120.98609046865282"><ele>6.0</ele><time>2026-04-24T06:18:57.001Z</time></trkpt><trkpt lat="14.491761676991825" lon="120.98599923190534"><ele>5.8</ele><time>2026-04-24T06:18:58.001Z</time></trkpt><trkpt lat="14.491677100802056" lon="120.98593336476551"><ele>5.6</ele><time>2026-04-24T06:18:59.001Z</time></trkpt><trkpt lat="14.491598866826848" lon="120.98586681154795"><ele>5.4</ele><time>2026-04-24T06:19:00.001Z</time></trkpt><trkpt lat="14.491527653780343" lon="120.98580571355285"><ele>5.2</ele><time>2026-04-24T06:19:01.001Z</time></trkpt><trkpt lat="14.491459828577344" lon="120.98574566723856"><ele>5.0</ele><time>2026-04-24T06:19:02.001Z</time></trkpt><trkpt lat="14.491402695025073" lon="120.98569139312576"><ele>5.0</ele><time>2026-04-24T06:19:03.001Z</time></trkpt><trkpt lat="14.491319555886486" lon="120.98562072152498"><ele>5.0</ele><time>2026-04-24T06:19:05.001Z</time></trkpt><trkpt lat="14.491256543625644" lon="120.98556789890331"><ele>5.0</ele><time>2026-04-24T06:19:09.001Z</time></trkpt><trkpt lat="14.491186480438934" lon="120.98551039324728"><ele>5.0</ele><time>2026-04-24T06:19:11.001Z</time></trkpt><trkpt lat="14.49110737933816" lon="120.98546939129162"><ele>5.0</ele><time>2026-04-24T06:19:15.001Z</time></trkpt><trkpt lat="14.491015420662091" lon="120.98539830920747"><ele>5.333333333333334</ele><time>2026-04-24T06:19:17.001Z</time></trkpt><trkpt lat="14.490917373480077" lon="120.98533240090288"><ele>5.666666666666667</ele><time>2026-04-24T06:19:19.001Z</time></trkpt><trkpt lat="14.490872432919796" lon="120.98528532935767"><ele>6.0</ele><time>2026-04-24T06:19:21.001Z</time></trkpt><trkpt lat="14.490775114506679" lon="120.98524505700844"><ele>6.333333333333334</ele><time>2026-04-24T06:19:23.999Z</time></trkpt><trkpt lat="14.49069611022226" lon="120.98520209156754"><ele>6.666666666666667</ele><time>2026-04-24T06:19:25.999Z</time></trkpt><trkpt lat="14.490638976236848" lon="120.98515452477326"><ele>7.0</ele><time>2026-04-24T06:19:27.999Z</time></trkpt><trkpt lat="14.490560908162626" lon="120.9851279315725"><ele>7.0</ele><time>2026-04-24T06:19:29.999Z</time></trkpt><trkpt lat="14.490511710077898" lon="120.98508021418598"><ele>6.999999999999999</ele><time>2026-04-24T06:19:31.999Z</time></trkpt><trkpt lat="14.490425685348551" lon="120.98502542920241"><ele>6.999999999999999</ele><time>2026-04-24T06:19:33.999Z</time></trkpt><trkpt lat="14.49032546436729" lon="120.98493571701248"><ele>7.0</ele><time>2026-04-24T06:19:35.999Z</time></trkpt><trkpt lat="14.490305508544976" lon="120.98484795506955"><ele>7.0</ele><time>2026-04-24T06:19:36.999Z</time></trkpt><trkpt lat="14.490271308887465" lon="120.9847752297877"><ele>6.8</ele><time>2026-04-24T06:19:37.999Z</time></trkpt><trkpt lat="14.490226831438314" lon="120.9846820988371"><ele>6.6</ele><time>2026-04-24T06:19:38.999Z</time></trkpt><trkpt lat="14.490180365642182" lon="120.98459035093856"><ele>6.3999999999999995</ele><time>2026-04-24T06:19:40Z</time></trkpt><trkpt lat="14.490120262683693" lon="120.98450395099401"><ele>6.199999999999999</ele><time>2026-04-24T06:19:41Z</time></trkpt><trkpt lat="14.490034670640922" lon="120.98442821078115"><ele>6.0</ele><time>2026-04-24T06:19:42Z</time></trkpt><trkpt lat="14.48993944288681" lon="120.98434767286255"><ele>6.0</ele><time>2026-04-24T06:19:43Z</time></trkpt><trkpt lat="14.489851249012647" lon="120.98429050847955"><ele>6.0</ele><time>2026-04-24T06:19:44Z</time></trkpt><trkpt lat="14.48978103205792" lon="120.98421616300857"><ele>6.0</ele><time>2026-04-24T06:19:45Z</time></trkpt><trkpt lat="14.489724836796729" lon="120.9841695107021"><ele>6.0</ele><time>2026-04-24T06:19:46Z</time></trkpt><trkpt lat="14.489671697910598" lon="120.98412539580583"><ele>6.0</ele><time>2026-04-24T06:19:47Z</time></trkpt><trkpt lat="14.48961468409447" lon="120.98409542121087"><ele>6.0</ele><time>2026-04-24T06:19:48Z</time></trkpt><trkpt lat="14.489496477164565" lon="120.98414642838826"><ele>6.166666666666667</ele><time>2026-04-24T06:19:50Z</time></trkpt><trkpt lat="14.489423093992071" lon="120.98425706165375"><ele>6.333333333333334</ele><time>2026-04-24T06:19:52Z</time></trkpt><trkpt lat="14.489393885018643" lon="120.98432733105314"><ele>6.5</ele><time>2026-04-24T06:19:53Z</time></trkpt><trkpt lat="14.489361045590078" lon="120.98440496153724"><ele>6.666666666666667</ele><time>2026-04-24T06:19:54Z</time></trkpt><trkpt lat="14.489329859229143" lon="120.98448205213703"><ele>6.833333333333334</ele><time>2026-04-24T06:19:55Z</time></trkpt><trkpt lat="14.489291296749553" lon="120.9845551246571"><ele>7.0</ele><time>2026-04-24T06:19:56Z</time></trkpt><trkpt lat="14.489241958483415" lon="120.98462663625608"><ele>7.000000000000001</ele><time>2026-04-24T06:19:58Z</time></trkpt><trkpt lat="14.489176188115438" lon="120.98456961224683"><ele>7.0</ele><time>2026-04-24T06:20:00Z</time></trkpt><trkpt lat="14.489111783641498" lon="120.98455294864104"><ele>7.0</ele><time>2026-04-24T06:20:01Z</time></trkpt><trkpt lat="14.489028625010299" lon="120.98448920486433"><ele>7.0</ele><time>2026-04-24T06:20:03Z</time></trkpt><trkpt lat="14.488980189934868" lon="120.98443583471177"><ele>7.000000000000001</ele><time>2026-04-24T06:20:07Z</time></trkpt><trkpt lat="14.488897126259555" lon="120.984400457996"><ele>7.0</ele><time>2026-04-24T06:20:09Z</time></trkpt><trkpt lat="14.488820388707179" lon="120.98435039403195"><ele>7.0</ele><time>2026-04-24T06:20:11Z</time></trkpt><trkpt lat="14.488741942078015" lon="120.98430018558021"><ele>6.999999999999999</ele><time>2026-04-24T06:20:13Z</time></trkpt><trkpt lat="14.488673126939036" lon="120.98425859304567"><ele>6.999999999999999</ele><time>2026-04-24T06:20:17Z</time></trkpt><trkpt lat="14.488584970928684" lon="120.98418558817693"><ele>7.0</ele><time>2026-04-24T06:20:19Z</time></trkpt><trkpt lat="14.488530854870275" lon="120.98415103081926"><ele>7.0</ele><time>2026-04-24T06:20:20Z</time></trkpt><trkpt lat="14.488434157954652" lon="120.98408873697399"><ele>7.0</ele><time>2026-04-24T06:20:22Z</time></trkpt><trkpt lat="14.488370142388526" lon="120.98406327424706"><ele>6.999999999999999</ele><time>2026-04-24T06:20:24Z</time></trkpt><trkpt lat="14.488288864202282" lon="120.98401460506366"><ele>6.999999999999999</ele><time>2026-04-24T06:20:26Z</time></trkpt><trkpt lat="14.488211521272127" lon="120.98394531052313"><ele>7.0</ele><time>2026-04-24T06:20:28Z</time></trkpt><trkpt lat="14.48811874161449" lon="120.98387737896448"><ele>7.0</ele><time>2026-04-24T06:20:30Z</time></trkpt><trkpt lat="14.488053802036868" lon="120.98382933779155"><ele>7.000000000000001</ele><time>2026-04-24T06:20:31Z</time></trkpt><trkpt lat="14.487996689526467" lon="120.9837840135216"><ele>7.0</ele><time>2026-04-24T06:20:32Z</time></trkpt><trkpt lat="14.487924903197516" lon="120.98372730801248"><ele>7.0</ele><time>2026-04-24T06:20:33.001Z</time></trkpt><trkpt lat="14.487853469661614" lon="120.98367078451773"><ele>7.0</ele><time>2026-04-24T06:20:34.001Z</time></trkpt><trkpt lat="14.4877833495397" lon="120.9836151543574"><ele>7.000000000000001</ele><time>2026-04-24T06:20:35.001Z</time></trkpt><trkpt lat="14.487698932612142" lon="120.98354818176001"><ele>7.0</ele><time>2026-04-24T06:20:36.001Z</time></trkpt><trkpt lat="14.48760798328106" lon="120.98347602666355"><ele>7.0</ele><time>2026-04-24T06:20:37.001Z</time></trkpt><trkpt lat="14.487517817723967" lon="120.98340449333232"><ele>7.0</ele><time>2026-04-24T06:20:38.001Z</time></trkpt><trkpt lat="14.487419375073962" lon="120.98332643145093"><ele>7.0</ele><time>2026-04-24T06:20:39.001Z</time></trkpt><trkpt lat="14.487324698308203" lon="120.98325137477343"><ele>7.0</ele><time>2026-04-24T06:20:40.001Z</time></trkpt><trkpt lat="14.487231819153381" lon="120.98317774315973"><ele>7.0</ele><time>2026-04-24T06:20:41.001Z</time></trkpt><trkpt lat="14.487133668639082" lon="120.98309993255518"><ele>7.0</ele><time>2026-04-24T06:20:42.001Z</time></trkpt><trkpt lat="14.487038784641973" lon="120.98302471157061"><ele>7.0</ele><time>2026-04-24T06:20:43.001Z</time></trkpt><trkpt lat="14.486941981059932" lon="120.98294796878892"><ele>7.0</ele><time>2026-04-24T06:20:44.001Z</time></trkpt><trkpt lat="14.486843380354653" lon="120.98286980130231"><ele>7.25</ele><time>2026-04-24T06:20:45.001Z</time></trkpt><trkpt lat="14.486745762812548" lon="120.9827924132449"><ele>7.5</ele><time>2026-04-24T06:20:46.001Z</time></trkpt><trkpt lat="14.486646574723038" lon="120.98271378010529"><ele>7.75</ele><time>2026-04-24T06:20:47.001Z</time></trkpt><trkpt lat="14.486545042671915" lon="120.98263328873617"><ele>8.0</ele><time>2026-04-24T06:20:48.001Z</time></trkpt><trkpt lat="14.486436449423664" lon="120.98255712380272"><ele>7.75</ele><time>2026-04-24T06:20:49.001Z</time></trkpt><trkpt lat="14.48633574244915" lon="120.98247203901605"><ele>7.5</ele><time>2026-04-24T06:20:50.001Z</time></trkpt><trkpt lat="14.486229971777023" lon="120.98239662247055"><ele>7.25</ele><time>2026-04-24T06:20:51.001Z</time></trkpt><trkpt lat="14.486104992513765" lon="120.98235767054386"><ele>7.0</ele><time>2026-04-24T06:20:52.001Z</time></trkpt><trkpt lat="14.486009416360991" lon="120.98229706974435"><ele>6.5</ele><time>2026-04-24T06:20:53.001Z</time></trkpt><trkpt lat="14.48588859198966" lon="120.98226798691348"><ele>6.0</ele><time>2026-04-24T06:20:54.001Z</time></trkpt><trkpt lat="14.48577169746326" lon="120.98221073946152"><ele>5.5</ele><time>2026-04-24T06:20:55.001Z</time></trkpt><trkpt lat="14.485679884932654" lon="120.98211258640448"><ele>5.0</ele><time>2026-04-24T06:20:56.001Z</time></trkpt><trkpt lat="14.485576094202099" lon="120.98202346473627"><ele>5.0</ele><time>2026-04-24T06:20:57.001Z</time></trkpt><trkpt lat="14.485468844624878" lon="120.98194025759139"><ele>5.0</ele><time>2026-04-24T06:20:58.001Z</time></trkpt><trkpt lat="14.485369741450393" lon="120.98184028689901"><ele>5.0</ele><time>2026-04-24T06:20:59.001Z</time></trkpt><trkpt lat="14.485270956719983" lon="120.98174295677528"><ele>5.0</ele><time>2026-04-24T06:21:00.001Z</time></trkpt><trkpt lat="14.485172220222253" lon="120.981643052033"><ele>6.75</ele><time>2026-04-24T06:21:01.001Z</time></trkpt><trkpt lat="14.485094484045696" lon="120.98154266919519"><ele>8.5</ele><time>2026-04-24T06:21:02.001Z</time></trkpt><trkpt lat="14.484993410131636" lon="120.98147169636438"><ele>10.25</ele><time>2026-04-24T06:21:03.001Z</time></trkpt><trkpt lat="14.484911856333348" lon="120.98139853850525"><ele>12.0</ele><time>2026-04-24T06:21:04.001Z</time></trkpt><trkpt lat="14.484848372930278" lon="120.98132059795387"><ele>12.0</ele><time>2026-04-24T06:21:05.001Z</time></trkpt><trkpt lat="14.484784073167807" lon="120.98126255512035"><ele>12.0</ele><time>2026-04-24T06:21:06.001Z</time></trkpt><trkpt lat="14.484713385704572" lon="120.98119874612145"><ele>12.0</ele><time>2026-04-24T06:21:07.001Z</time></trkpt><trkpt lat="14.48464222597866" lon="120.98113451078632"><ele>12.0</ele><time>2026-04-24T06:21:09.001Z</time></trkpt><trkpt lat="14.484554267136948" lon="120.98107691089388"><ele>12.0</ele><time>2026-04-24T06:21:15.001Z</time></trkpt><trkpt lat="14.484496514465432" lon="120.98101563718421"><ele>11.5</ele><time>2026-04-24T06:21:16.001Z</time></trkpt><trkpt lat="14.484443454128558" lon="120.98097166913749"><ele>11.0</ele><time>2026-04-24T06:21:17.001Z</time></trkpt><trkpt lat="14.48438536725307" lon="120.9809169383343"><ele>10.5</ele><time>2026-04-24T06:21:18.001Z</time></trkpt><trkpt lat="14.484326134906159" lon="120.98086574246906"><ele>10.0</ele><time>2026-04-24T06:21:19.001Z</time></trkpt><trkpt lat="14.484248467157187" lon="120.9808024018095"><ele>9.5</ele><time>2026-04-24T06:21:20.001Z</time></trkpt><trkpt lat="14.484176997991607" lon="120.98071552145116"><ele>9.0</ele><time>2026-04-24T06:21:21.001Z</time></trkpt><trkpt lat="14.484082906133327" lon="120.9806308518159"><ele>9.0</ele><time>2026-04-24T06:21:22.001Z</time></trkpt><trkpt lat="14.483983179684317" lon="120.98054111186642"><ele>9.0</ele><time>2026-04-24T06:21:23.001Z</time></trkpt><trkpt lat="14.483873946084678" lon="120.98044281679935"><ele>9.0</ele><time>2026-04-24T06:21:24.001Z</time></trkpt><trkpt lat="14.483761675811945" lon="120.98034178913655"><ele>9.0</ele><time>2026-04-24T06:21:25.001Z</time></trkpt><trkpt lat="14.483651271332555" lon="120.98024244042423"><ele>8.75</ele><time>2026-04-24T06:21:26.001Z</time></trkpt><trkpt lat="14.483553405491218" lon="120.98015437474845"><ele>8.5</ele><time>2026-04-24T06:21:27.001Z</time></trkpt><trkpt lat="14.483441598504873" lon="120.98007387854756"><ele>8.25</ele><time>2026-04-24T06:21:28.002Z</time></trkpt><trkpt lat="14.483354618748743" lon="120.97997549427733"><ele>8.0</ele><time>2026-04-24T06:21:29.002Z</time></trkpt><trkpt lat="14.483259754038293" lon="120.97991024657095"><ele>7.999999999999999</ele><time>2026-04-24T06:21:29.999Z</time></trkpt><trkpt lat="14.483182680916684" lon="120.97984303634419"><ele>8.0</ele><time>2026-04-24T06:21:30.999Z</time></trkpt><trkpt lat="14.483123930410095" lon="120.97978297855033"><ele>8.0</ele><time>2026-04-24T06:21:31.999Z</time></trkpt><trkpt lat="14.48307435182061" lon="120.97974011147755"><ele>8.0</ele><time>2026-04-24T06:21:32.999Z</time></trkpt><trkpt lat="14.483029070860947" lon="120.97968957684586"><ele>7.999999999999999</ele><time>2026-04-24T06:21:35.999Z</time></trkpt><trkpt lat="14.48297305286194" lon="120.97963757871166"><ele>8.0</ele><time>2026-04-24T06:21:38.999Z</time></trkpt><trkpt lat="14.482911785029737" lon="120.97957376040584"><ele>8.0</ele><time>2026-04-24T06:21:40.999Z</time></trkpt><trkpt lat="14.482825620840364" lon="120.9795157788453"><ele>8.0</ele><time>2026-04-24T06:21:45.999Z</time></trkpt><trkpt lat="14.482769734050038" lon="120.9794735263341"><ele>8.0</ele><time>2026-04-24T06:21:46.999Z</time></trkpt><trkpt lat="14.482712250991588" lon="120.97940675472252"><ele>8.0</ele><time>2026-04-24T06:21:47.999Z</time></trkpt><trkpt lat="14.482634227021066" lon="120.97934000262136"><ele>8.0</ele><time>2026-04-24T06:21:48.999Z</time></trkpt><trkpt lat="14.482540861411145" lon="120.97927771094116"><ele>8.0</ele><time>2026-04-24T06:21:49.999Z</time></trkpt><trkpt lat="14.482446431391907" lon="120.97919636992735"><ele>8.0</ele><time>2026-04-24T06:21:50.999Z</time></trkpt><trkpt lat="14.482354013833007" lon="120.97911716698312"><ele>8.0</ele><time>2026-04-24T06:21:52Z</time></trkpt><trkpt lat="14.482260969994366" lon="120.97904029870159"><ele>8.0</ele><time>2026-04-24T06:21:53Z</time></trkpt><trkpt lat="14.482183885909588" lon="120.97897356347167"><ele>8.0</ele><time>2026-04-24T06:21:54Z</time></trkpt><trkpt lat="14.482125654816315" lon="120.97890490186768"><ele>8.0</ele><time>2026-04-24T06:21:55Z</time></trkpt><trkpt lat="14.482054606234524" lon="120.97885588835541"><ele>8.0</ele><time>2026-04-24T06:21:56Z</time></trkpt><trkpt lat="14.481978623604304" lon="120.97879720173304"><ele>8.0</ele><time>2026-04-24T06:21:57Z</time></trkpt><trkpt lat="14.481905519161854" lon="120.978721722892"><ele>8.0</ele><time>2026-04-24T06:21:58Z</time></trkpt><trkpt lat="14.481823280453003" lon="120.97865422417844"><ele>8.0</ele><time>2026-04-24T06:21:59Z</time></trkpt><trkpt lat="14.48174539230169" lon="120.97859312881441"><ele>8.0</ele><time>2026-04-24T06:22:00Z</time></trkpt><trkpt lat="14.481674739843914" lon="120.97853879523136"><ele>8.0</ele><time>2026-04-24T06:22:01Z</time></trkpt><trkpt lat="14.481601210574224" lon="120.97849981875903"><ele>8.0</ele><time>2026-04-24T06:22:02Z</time></trkpt><trkpt lat="14.481513094708939" lon="120.97849938075339"><ele>8.0</ele><time>2026-04-24T06:22:03Z</time></trkpt><trkpt lat="14.481417335993553" lon="120.9784562322832"><ele>7.999999999999999</ele><time>2026-04-24T06:22:05Z</time></trkpt><trkpt lat="14.48136541416162" lon="120.9783969142516"><ele>8.0</ele><time>2026-04-24T06:22:10Z</time></trkpt><trkpt lat="14.48130748902661" lon="120.97834750238435"><ele>8.0</ele><time>2026-04-24T06:22:13Z</time></trkpt><trkpt lat="14.481217930299174" lon="120.9782711061209"><ele>8.0</ele><time>2026-04-24T06:22:17Z</time></trkpt><trkpt lat="14.481165256485989" lon="120.97822617378608"><ele>7.999999999999999</ele><time>2026-04-24T06:22:18Z</time></trkpt><trkpt lat="14.48111684773687" lon="120.97818199815572"><ele>8.0</ele><time>2026-04-24T06:22:19Z</time></trkpt><trkpt lat="14.481069297923804" lon="120.97813811028092"><ele>7.800000000000001</ele><time>2026-04-24T06:22:20Z</time></trkpt><trkpt lat="14.48098824659445" lon="120.97806330096789"><ele>7.6000000000000005</ele><time>2026-04-24T06:22:22Z</time></trkpt><trkpt lat="14.480940256328614" lon="120.97801900660048"><ele>7.3999999999999995</ele><time>2026-04-24T06:22:23Z</time></trkpt><trkpt lat="14.480856413549834" lon="120.9779454726603"><ele>7.199999999999999</ele><time>2026-04-24T06:22:25Z</time></trkpt><trkpt lat="14.480769841457251" lon="120.97787285277822"><ele>7.0</ele><time>2026-04-24T06:22:27Z</time></trkpt><trkpt lat="14.480685293403603" lon="120.97780193074368"><ele>7.000000000000001</ele><time>2026-04-24T06:22:29Z</time></trkpt><trkpt lat="14.480593899186866" lon="120.97772526587309"><ele>7.0</ele><time>2026-04-24T06:22:31Z</time></trkpt><trkpt lat="14.480543056999055" lon="120.97768261788369"><ele>7.0</ele><time>2026-04-24T06:22:32Z</time></trkpt><trkpt lat="14.480488619873528" lon="120.97763695398642"><ele>7.0</ele><time>2026-04-24T06:22:33Z</time></trkpt><trkpt lat="14.48043493466528" lon="120.97759192090462"><ele>7.000000000000001</ele><time>2026-04-24T06:22:34Z</time></trkpt><trkpt lat="14.48037671715669" lon="120.97754308588515"><ele>7.0</ele><time>2026-04-24T06:22:35Z</time></trkpt><trkpt lat="14.480324163154393" lon="120.97749900163991"><ele>7.166666666666667</ele><time>2026-04-24T06:22:36Z</time></trkpt><trkpt lat="14.480246675113667" lon="120.97744947168346"><ele>7.333333333333334</ele><time>2026-04-24T06:22:37Z</time></trkpt><trkpt lat="14.480194140477142" lon="120.97740411330598"><ele>7.5</ele><time>2026-04-24T06:22:38Z</time></trkpt><trkpt lat="14.480137511131407" lon="120.97734484953062"><ele>7.666666666666666</ele><time>2026-04-24T06:22:39Z</time></trkpt><trkpt lat="14.480099082465456" lon="120.97728058581046"><ele>7.833333333333333</ele><time>2026-04-24T06:22:40Z</time></trkpt><trkpt lat="14.480038734517096" lon="120.97721497741443"><ele>8.0</ele><time>2026-04-24T06:22:41Z</time></trkpt><trkpt lat="14.479971016667188" lon="120.9771600505387"><ele>7.999999999999999</ele><time>2026-04-24T06:22:42.001Z</time></trkpt><trkpt lat="14.479913360044923" lon="120.97708656714833"><ele>8.0</ele><time>2026-04-24T06:22:43.001Z</time></trkpt><trkpt lat="14.479856487094112" lon="120.977026948361"><ele>8.0</ele><time>2026-04-24T06:22:44.001Z</time></trkpt><trkpt lat="14.479801995728575" lon="120.97696217438536"><ele>8.0</ele><time>2026-04-24T06:22:45.001Z</time></trkpt><trkpt lat="14.479741933922263" lon="120.97690188744814"><ele>7.999999999999999</ele><time>2026-04-24T06:22:46.001Z</time></trkpt><trkpt lat="14.479680612017576" lon="120.97682112996263"><ele>8.0</ele><time>2026-04-24T06:22:47.001Z</time></trkpt><trkpt lat="14.479624559954694" lon="120.97676052435668"><ele>7.6000000000000005</ele><time>2026-04-24T06:22:48.001Z</time></trkpt><trkpt lat="14.479560925728727" lon="120.97668744581546"><ele>7.200000000000001</ele><time>2026-04-24T06:22:49.001Z</time></trkpt><trkpt lat="14.479495798496249" lon="120.97661164247941"><ele>6.8</ele><time>2026-04-24T06:22:50.001Z</time></trkpt><trkpt lat="14.479432664520385" lon="120.97654134068767"><ele>6.4</ele><time>2026-04-24T06:22:51.001Z</time></trkpt><trkpt lat="14.479383003051375" lon="120.97645667739113"><ele>6.0</ele><time>2026-04-24T06:22:52.001Z</time></trkpt><trkpt lat="14.479318921914807" lon="120.97637706257427"><ele>5.8</ele><time>2026-04-24T06:22:53.001Z</time></trkpt><trkpt lat="14.479256460064835" lon="120.9762994596253"><ele>5.6</ele><time>2026-04-24T06:22:54.001Z</time></trkpt><trkpt lat="14.479191594128714" lon="120.97621886974974"><ele>5.4</ele><time>2026-04-24T06:22:55.001Z</time></trkpt><trkpt lat="14.47912792031438" lon="120.97613976104206"><ele>5.2</ele><time>2026-04-24T06:22:56.001Z</time></trkpt><trkpt lat="14.479061182959654" lon="120.97605701456874"><ele>5.0</ele><time>2026-04-24T06:22:57.001Z</time></trkpt><trkpt lat="14.47899409907346" lon="120.97597510620906"><ele>5.0</ele><time>2026-04-24T06:22:58.001Z</time></trkpt><trkpt lat="14.478942428866702" lon="120.97591161681352"><ele>5.0</ele><time>2026-04-24T06:22:59.001Z</time></trkpt><trkpt lat="14.478894414724328" lon="120.97585197470566"><ele>5.0</ele><time>2026-04-24T06:23:00.001Z</time></trkpt><trkpt lat="14.478846850167848" lon="120.97579289108006"><ele>5.0</ele><time>2026-04-24T06:23:01.001Z</time></trkpt><trkpt lat="14.478776417004644" lon="120.97570555847179"><ele>5.0</ele><time>2026-04-24T06:23:03.001Z</time></trkpt><trkpt lat="14.478721113744408" lon="120.97563720907634"><ele>5.0</ele><time>2026-04-24T06:23:05.001Z</time></trkpt><trkpt lat="14.478669886254188" lon="120.97557389704728"><ele>5.285714285714286</ele><time>2026-04-24T06:23:09.001Z</time></trkpt><trkpt lat="14.47861602884658" lon="120.97550800169928"><ele>5.571428571428571</ele><time>2026-04-24T06:23:13.001Z</time></trkpt><trkpt lat="14.47857498086737" lon="120.97545772986766"><ele>5.857142857142858</ele><time>2026-04-24T06:23:14.001Z</time></trkpt><trkpt lat="14.478531042742627" lon="120.97540391846496"><ele>6.142857142857142</ele><time>2026-04-24T06:23:15.001Z</time></trkpt><trkpt lat="14.478484802273707" lon="120.97534728731935"><ele>6.428571428571429</ele><time>2026-04-24T06:23:16.001Z</time></trkpt><trkpt lat="14.478440491189922" lon="120.97529024139618"><ele>6.714285714285714</ele><time>2026-04-24T06:23:17.001Z</time></trkpt><trkpt lat="14.478399437698624" lon="120.97523059056795"><ele>7.0</ele><time>2026-04-24T06:23:18.001Z</time></trkpt><trkpt lat="14.47834878665962" lon="120.97518057911596"><ele>7.0</ele><time>2026-04-24T06:23:19.001Z</time></trkpt><trkpt lat="14.478286497825621" lon="120.9750618200814"><ele>6.999999999999999</ele><time>2026-04-24T06:23:21.001Z</time></trkpt><trkpt lat="14.47823510477732" lon="120.97498456829801"><ele>6.999999999999999</ele><time>2026-04-24T06:23:23.001Z</time></trkpt><trkpt lat="14.478196863021383" lon="120.97491551235073"><ele>7.0</ele><time>2026-04-24T06:23:26.001Z</time></trkpt><trkpt lat="14.478086545258414" lon="120.97494503753578"><ele>7.0</ele><time>2026-04-24T06:23:28.001Z</time></trkpt><trkpt lat="14.4780081546621" lon="120.97493376028288"><ele>7.199999999999999</ele><time>2026-04-24T06:23:31.001Z</time></trkpt><trkpt lat="14.477931195887088" lon="120.9748119251046"><ele>7.3999999999999995</ele><time>2026-04-24T06:23:33.001Z</time></trkpt><trkpt lat="14.477878404217742" lon="120.97474586391832"><ele>7.6000000000000005</ele><time>2026-04-24T06:23:34.001Z</time></trkpt><trkpt lat="14.4778239198052" lon="120.97467768448047"><ele>7.800000000000001</ele><time>2026-04-24T06:23:35.002Z</time></trkpt><trkpt lat="14.477761469628835" lon="120.97459953702953"><ele>8.0</ele><time>2026-04-24T06:23:35.999Z</time></trkpt><trkpt lat="14.477699573754492" lon="120.97452193112554"><ele>8.0</ele><time>2026-04-24T06:23:36.999Z</time></trkpt><trkpt lat="14.47763351226722" lon="120.97443905942158"><ele>8.0</ele><time>2026-04-24T06:23:37.999Z</time></trkpt><trkpt lat="14.47756133402485" lon="120.97435534641872"><ele>8.0</ele><time>2026-04-24T06:23:38.999Z</time></trkpt><trkpt lat="14.477493894252456" lon="120.97427500047603"><ele>8.0</ele><time>2026-04-24T06:23:39.999Z</time></trkpt><trkpt lat="14.47742872663191" lon="120.97419736148666"><ele>8.0</ele><time>2026-04-24T06:23:40.999Z</time></trkpt><trkpt lat="14.47736599340803" lon="120.97412262274977"><ele>7.666666666666666</ele><time>2026-04-24T06:23:41.999Z</time></trkpt><trkpt lat="14.477307450849686" lon="120.97405287669287"><ele>7.333333333333333</ele><time>2026-04-24T06:23:42.999Z</time></trkpt><trkpt lat="14.477251421462832" lon="120.9739861247294"><ele>7.0</ele><time>2026-04-24T06:23:43.999Z</time></trkpt><trkpt lat="14.477209457696446" lon="120.9739361859878"><ele>6.666666666666666</ele><time>2026-04-24T06:23:44.999Z</time></trkpt><trkpt lat="14.477160702495528" lon="120.97387817298888"><ele>6.333333333333333</ele><time>2026-04-24T06:23:46.999Z</time></trkpt><trkpt lat="14.477103657925715" lon="120.97381029653906"><ele>6.0</ele><time>2026-04-24T06:23:50.999Z</time></trkpt><trkpt lat="14.477025701294128" lon="120.9737655690187"><ele>6.0</ele><time>2026-04-24T06:23:55Z</time></trkpt><trkpt lat="14.476972273232333" lon="120.97371871844749"><ele>6.0</ele><time>2026-04-24T06:23:57Z</time></trkpt><trkpt lat="14.476966353508491" lon="120.9736429792635"><ele>6.0</ele><time>2026-04-24T06:24:00Z</time></trkpt><trkpt lat="14.476912407416043" lon="120.97357551018382"><ele>6.0</ele><time>2026-04-24T06:24:02Z</time></trkpt><trkpt lat="14.476851436784854" lon="120.97350225973693"><ele>6.0</ele><time>2026-04-24T06:24:04Z</time></trkpt><trkpt lat="14.476807221633406" lon="120.97345096257412"><ele>6.0</ele><time>2026-04-24T06:24:05Z</time></trkpt><trkpt lat="14.476753210017128" lon="120.97338829987204"><ele>5.833333333333333</ele><time>2026-04-24T06:24:06Z</time></trkpt><trkpt lat="14.476698324748554" lon="120.97332462357568"><ele>5.666666666666667</ele><time>2026-04-24T06:24:07Z</time></trkpt><trkpt lat="14.476637596585702" lon="120.97325377774595"><ele>5.5</ele><time>2026-04-24T06:24:08Z</time></trkpt><trkpt lat="14.476575312961124" lon="120.97318085029018"><ele>5.333333333333334</ele><time>2026-04-24T06:24:09Z</time></trkpt><trkpt lat="14.47652077355052" lon="120.97311699059301"><ele>5.166666666666667</ele><time>2026-04-24T06:24:10Z</time></trkpt><trkpt lat="14.476468887224536" lon="120.9730562372513"><ele>5.0</ele><time>2026-04-24T06:24:11Z</time></trkpt><trkpt lat="14.476436914453163" lon="120.97296729004599"><ele>5.0</ele><time>2026-04-24T06:24:13Z</time></trkpt><trkpt lat="14.476455991400776" lon="120.97288228209533"><ele>5.0</ele><time>2026-04-24T06:24:15Z</time></trkpt><trkpt lat="14.476557379416738" lon="120.9727982945385"><ele>5.0</ele><time>2026-04-24T06:24:17Z</time></trkpt><trkpt lat="14.476600602511661" lon="120.97273603925647"><ele>5.0</ele><time>2026-04-24T06:24:18Z</time></trkpt><trkpt lat="14.476636046119813" lon="120.97266760526028"><ele>5.0</ele><time>2026-04-24T06:24:19Z</time></trkpt><trkpt lat="14.476659758712405" lon="120.97260531493993"><ele>5.0</ele><time>2026-04-24T06:24:20Z</time></trkpt><trkpt lat="14.476724045344707" lon="120.97253179231616"><ele>5.4</ele><time>2026-04-24T06:24:24Z</time></trkpt><trkpt lat="14.476679235350401" lon="120.97241845764329"><ele>5.8</ele><time>2026-04-24T06:24:25Z</time></trkpt><trkpt lat="14.476634744093385" lon="120.97235627457923"><ele>6.199999999999999</ele><time>2026-04-24T06:24:26Z</time></trkpt><trkpt lat="14.476581253878583" lon="120.97228151494168"><ele>6.6</ele><time>2026-04-24T06:24:27Z</time></trkpt><trkpt lat="14.476531516924203" lon="120.9722120228472"><ele>7.0</ele><time>2026-04-24T06:24:28Z</time></trkpt><trkpt lat="14.476475023432375" lon="120.97213309058428"><ele>7.000000000000001</ele><time>2026-04-24T06:24:29Z</time></trkpt><trkpt lat="14.476423276054426" lon="120.97206078959995"><ele>7.0</ele><time>2026-04-24T06:24:30Z</time></trkpt><trkpt lat="14.47637257155705" lon="120.97198994568342"><ele>7.0</ele><time>2026-04-24T06:24:31Z</time></trkpt><trkpt lat="14.476327314325934" lon="120.97193444503868"><ele>7.0</ele><time>2026-04-24T06:24:32Z</time></trkpt><trkpt lat="14.476259780515557" lon="120.97188444707209"><ele>7.000000000000001</ele><time>2026-04-24T06:24:33Z</time></trkpt><trkpt lat="14.476198779251384" lon="120.9718619874739"><ele>7.0</ele><time>2026-04-24T06:24:34Z</time></trkpt><trkpt lat="14.476134921808253" lon="120.97183809641463"><ele>6.833333333333334</ele><time>2026-04-24T06:24:36Z</time></trkpt><trkpt lat="14.476109143818183" lon="120.97174185757551"><ele>6.666666666666667</ele><time>2026-04-24T06:24:39Z</time></trkpt><trkpt lat="14.47608218028943" lon="120.97167778607688"><ele>6.5</ele><time>2026-04-24T06:24:41Z</time></trkpt><trkpt lat="14.476040931313696" lon="120.97162358494612"><ele>6.333333333333334</ele><time>2026-04-24T06:24:43Z</time></trkpt><trkpt lat="14.476004716243787" lon="120.97153555144058"><ele>6.166666666666667</ele><time>2026-04-24T06:24:45.001Z</time></trkpt><trkpt lat="14.475970198690847" lon="120.97143516368152"><ele>6.0</ele><time>2026-04-24T06:24:46.001Z</time></trkpt><trkpt lat="14.475919179065299" lon="120.97134068038717"><ele>5.75</ele><time>2026-04-24T06:24:47.001Z</time></trkpt><trkpt lat="14.475855527921556" lon="120.97124196231285"><ele>5.5</ele><time>2026-04-24T06:24:48.001Z</time></trkpt><trkpt lat="14.475788451024497" lon="120.97114323878549"><ele>5.25</ele><time>2026-04-24T06:24:49.001Z</time></trkpt><trkpt lat="14.475723367195501" lon="120.97104682728732"><ele>5.0</ele><time>2026-04-24T06:24:50.001Z</time></trkpt><trkpt lat="14.47565184835994" lon="120.97094490691188"><ele>5.0</ele><time>2026-04-24T06:24:51.001Z</time></trkpt><trkpt lat="14.47558924554528" lon="120.9708609873887"><ele>5.0</ele><time>2026-04-24T06:24:52.001Z</time></trkpt><trkpt lat="14.47553370627724" lon="120.97078653661984"><ele>5.0</ele><time>2026-04-24T06:24:53.001Z</time></trkpt><trkpt lat="14.475470683252306" lon="120.97070205391333"><ele>5.0</ele><time>2026-04-24T06:24:54.001Z</time></trkpt><trkpt lat="14.475415991312715" lon="120.9706317381003"><ele>5.0</ele><time>2026-04-24T06:24:55.001Z</time></trkpt><trkpt lat="14.475361094538174" lon="120.9705563678648"><ele>5.4</ele><time>2026-04-24T06:24:56.001Z</time></trkpt><trkpt lat="14.475303902764871" lon="120.97047784672812"><ele>5.8</ele><time>2026-04-24T06:24:57.001Z</time></trkpt><trkpt lat="14.475240994780567" lon="120.97039148161599"><ele>6.199999999999999</ele><time>2026-04-24T06:24:58.001Z</time></trkpt><trkpt lat="14.47517744803463" lon="120.9703042733325"><ele>6.6</ele><time>2026-04-24T06:24:59.001Z</time></trkpt><trkpt lat="14.475112893854062" lon="120.97021596321594"><ele>7.0</ele><time>2026-04-24T06:25:00.001Z</time></trkpt><trkpt lat="14.475049381559485" lon="120.97012907839303"><ele>7.0</ele><time>2026-04-24T06:25:01.001Z</time></trkpt><trkpt lat="14.474989534038619" lon="120.97004720699272"><ele>6.999999999999999</ele><time>2026-04-24T06:25:02.001Z</time></trkpt><trkpt lat="14.474937676194038" lon="120.96997626547608"><ele>6.999999999999999</ele><time>2026-04-24T06:25:03.001Z</time></trkpt><trkpt lat="14.474893818096184" lon="120.96991626756424"><ele>7.0</ele><time>2026-04-24T06:25:04.001Z</time></trkpt><trkpt lat="14.474830985925946" lon="120.96984331155441"><ele>7.0</ele><time>2026-04-24T06:25:06.001Z</time></trkpt><trkpt lat="14.474711621406202" lon="120.96982357476662"><ele>6.666666666666667</ele><time>2026-04-24T06:25:08.001Z</time></trkpt><trkpt lat="14.474637367354187" lon="120.96986294561623"><ele>6.333333333333334</ele><time>2026-04-24T06:25:09.001Z</time></trkpt><trkpt lat="14.474563726363803" lon="120.96989617531274"><ele>6.0</ele><time>2026-04-24T06:25:10.001Z</time></trkpt><trkpt lat="14.47448203117972" lon="120.96993396650004"><ele>5.666666666666667</ele><time>2026-04-24T06:25:11.001Z</time></trkpt><trkpt lat="14.474408716881447" lon="120.96998185177789"><ele>5.333333333333334</ele><time>2026-04-24T06:25:12.001Z</time></trkpt><trkpt lat="14.474312745698057" lon="120.97002714625566"><ele>5.0</ele><time>2026-04-24T06:25:13.001Z</time></trkpt><trkpt lat="14.47422114449004" lon="120.97006881920711"><ele>4.8</ele><time>2026-04-24T06:25:14.001Z</time></trkpt><trkpt lat="14.474125130167495" lon="120.97011652381492"><ele>4.6</ele><time>2026-04-24T06:25:15.001Z</time></trkpt><trkpt lat="14.474032306398005" lon="120.97015937610955"><ele>4.4</ele><time>2026-04-24T06:25:16.001Z</time></trkpt><trkpt lat="14.473937278246868" lon="120.97020253832437"><ele>4.2</ele><time>2026-04-24T06:25:17.001Z</time></trkpt><trkpt lat="14.4738449535638" lon="120.9702504080195"><ele>4.0</ele><time>2026-04-24T06:25:18.001Z</time></trkpt><trkpt lat="14.473752563568318" lon="120.97030363093513"><ele>3.75</ele><time>2026-04-24T06:25:19.001Z</time></trkpt><trkpt lat="14.473661853952066" lon="120.97036725817733"><ele>3.5</ele><time>2026-04-24T06:25:20.001Z</time></trkpt><trkpt lat="14.473573945776673" lon="120.9704395439802"><ele>3.25</ele><time>2026-04-24T06:25:21.001Z</time></trkpt><trkpt lat="14.473484511132574" lon="120.97051516906787"><ele>3.0</ele><time>2026-04-24T06:25:22.001Z</time></trkpt><trkpt lat="14.47338922808519" lon="120.97059022298824"><ele>3.0</ele><time>2026-04-24T06:25:23.001Z</time></trkpt><trkpt lat="14.473297427563676" lon="120.97066951887933"><ele>3.0</ele><time>2026-04-24T06:25:24.001Z</time></trkpt><trkpt lat="14.47319972176628" lon="120.97075718694789"><ele>3.0</ele><time>2026-04-24T06:25:25.001Z</time></trkpt><trkpt lat="14.473109600415615" lon="120.97084386232433"><ele>3.0</ele><time>2026-04-24T06:25:26.001Z</time></trkpt><trkpt lat="14.473020539506628" lon="120.97092517203417"><ele>3.25</ele><time>2026-04-24T06:25:27.001Z</time></trkpt><trkpt lat="14.472917925101836" lon="120.97101517017032"><ele>3.5</ele><time>2026-04-24T06:25:28.001Z</time></trkpt><trkpt lat="14.472829887396133" lon="120.9710905452464"><ele>3.75</ele><time>2026-04-24T06:25:29.001Z</time></trkpt><trkpt lat="14.472728788508876" lon="120.97115319488474"><ele>4.0</ele><time>2026-04-24T06:25:30.001Z</time></trkpt><trkpt lat="14.472633960455317" lon="120.97121760459562"><ele>4.0</ele><time>2026-04-24T06:25:31.001Z</time></trkpt><trkpt lat="14.472535298640862" lon="120.97127433831288"><ele>4.0</ele><time>2026-04-24T06:25:32.001Z</time></trkpt><trkpt lat="14.472434881610347" lon="120.97133666247504"><ele>4.0</ele><time>2026-04-24T06:25:33.001Z</time></trkpt><trkpt lat="14.472321281817722" lon="120.97137344540586"><ele>4.0</ele><time>2026-04-24T06:25:34.001Z</time></trkpt><trkpt lat="14.472206886474158" lon="120.97140557698151"><ele>4.4</ele><time>2026-04-24T06:25:35.001Z</time></trkpt><trkpt lat="14.472098409571881" lon="120.97142912951352"><ele>4.800000000000001</ele><time>2026-04-24T06:25:36.001Z</time></trkpt><trkpt lat="14.471986944353647" lon="120.97142687493574"><ele>5.199999999999999</ele><time>2026-04-24T06:25:37.002Z</time></trkpt><trkpt lat="14.47188553475509" lon="120.97142677229103"><ele>5.6</ele><time>2026-04-24T06:25:38.002Z</time></trkpt><trkpt lat="14.471776385397048" lon="120.97141230632381"><ele>6.0</ele><time>2026-04-24T06:25:39.002Z</time></trkpt><trkpt lat="14.471679437999171" lon="120.97138818841962"><ele>6.0</ele><time>2026-04-24T06:25:40.002Z</time></trkpt><trkpt lat="14.4715966912368" lon="120.97135971456646"><ele>6.0</ele><time>2026-04-24T06:25:41.002Z</time></trkpt><trkpt lat="14.471525105506778" lon="120.97132383503774"><ele>6.0</ele><time>2026-04-24T06:25:42Z</time></trkpt><trkpt lat="14.47147009677244" lon="120.97127932563787"><ele>6.0</ele><time>2026-04-24T06:25:43Z</time></trkpt><trkpt lat="14.471425842120441" lon="120.97121679549244"><ele>6.0</ele><time>2026-04-24T06:25:44Z</time></trkpt><trkpt lat="14.47137318331307" lon="120.97114715047907"><ele>6.0</ele><time>2026-04-24T06:25:45Z</time></trkpt><trkpt lat="14.471327187252674" lon="120.97108001143549"><ele>6.0</ele><time>2026-04-24T06:25:46Z</time></trkpt><trkpt lat="14.471318678948192" lon="120.97101060795008"><ele>6.0</ele><time>2026-04-24T06:25:47Z</time></trkpt><trkpt lat="14.471319322832757" lon="120.97093967755137"><ele>6.0</ele><time>2026-04-24T06:25:48Z</time></trkpt><trkpt lat="14.471333694674428" lon="120.97085716318502"><ele>6.0</ele><time>2026-04-24T06:25:49Z</time></trkpt><trkpt lat="14.471342502082909" lon="120.97075584218432"><ele>6.0</ele><time>2026-04-24T06:25:50Z</time></trkpt><trkpt lat="14.471353984721857" lon="120.970654978201"><ele>6.0</ele><time>2026-04-24T06:25:51Z</time></trkpt><trkpt lat="14.471368852168537" lon="120.97054960960361"><ele>6.0</ele><time>2026-04-24T06:25:52Z</time></trkpt><trkpt lat="14.471396713310748" lon="120.97044404997116"><ele>6.0</ele><time>2026-04-24T06:25:53Z</time></trkpt><trkpt lat="14.47142465078177" lon="120.9703350430541"><ele>6.0</ele><time>2026-04-24T06:25:54Z</time></trkpt><trkpt lat="14.471504302309395" lon="120.97024392144046"><ele>6.0</ele><time>2026-04-24T06:25:55Z</time></trkpt><trkpt lat="14.471563347369184" lon="120.97014313253871"><ele>6.0</ele><time>2026-04-24T06:25:56Z</time></trkpt><trkpt lat="14.471652840866486" lon="120.97005834546657"><ele>5.5</ele><time>2026-04-24T06:25:57Z</time></trkpt><trkpt lat="14.471749285973713" lon="120.96998188090856"><ele>5.0</ele><time>2026-04-24T06:25:58Z</time></trkpt><trkpt lat="14.471844807709417" lon="120.96990286783983"><ele>4.5</ele><time>2026-04-24T06:25:59Z</time></trkpt><trkpt lat="14.471929527786658" lon="120.96982958153174"><ele>4.0</ele><time>2026-04-24T06:26:00Z</time></trkpt><trkpt lat="14.472009145819143" lon="120.96975138567026"><ele>4.0</ele><time>2026-04-24T06:26:01Z</time></trkpt><trkpt lat="14.47208619728676" lon="120.96969084105795"><ele>4.0</ele><time>2026-04-24T06:26:02Z</time></trkpt><trkpt lat="14.47214548363174" lon="120.9696191420226"><ele>4.0</ele><time>2026-04-24T06:26:03Z</time></trkpt><trkpt lat="14.472195685760688" lon="120.96954516131747"><ele>4.0</ele><time>2026-04-24T06:26:04Z</time></trkpt><trkpt lat="14.472239218959816" lon="120.96945848596462"><ele>4.0</ele><time>2026-04-24T06:26:05Z</time></trkpt><trkpt lat="14.472258865305403" lon="120.96935984056508"><ele>3.9999999999999996</ele><time>2026-04-24T06:26:06Z</time></trkpt><trkpt lat="14.472264421027187" lon="120.96926526648366"><ele>4.0</ele><time>2026-04-24T06:26:07Z</time></trkpt><trkpt lat="14.472249801944223" lon="120.96916338548338"><ele>4.0</ele><time>2026-04-24T06:26:08Z</time></trkpt><trkpt lat="14.472237931775448" lon="120.9690776679185"><ele>4.0</ele><time>2026-04-24T06:26:09Z</time></trkpt><trkpt lat="14.47218261795641" lon="120.96900503375936"><ele>3.9999999999999996</ele><time>2026-04-24T06:26:10Z</time></trkpt><trkpt lat="14.472143140546502" lon="120.96893005668075"><ele>4.0</ele><time>2026-04-24T06:26:11Z</time></trkpt><trkpt lat="14.472103299217752" lon="120.96885643634614"><ele>4.4</ele><time>2026-04-24T06:26:12Z</time></trkpt><trkpt lat="14.472057337844404" lon="120.96877150703588"><ele>4.800000000000001</ele><time>2026-04-24T06:26:13Z</time></trkpt><trkpt lat="14.472009722950684" lon="120.96868352236379"><ele>5.199999999999999</ele><time>2026-04-24T06:26:14Z</time></trkpt><trkpt lat="14.471958571760526" lon="120.96859599249414"><ele>5.6</ele><time>2026-04-24T06:26:15Z</time></trkpt><trkpt lat="14.471905403164062" lon="120.96850631101606"><ele>6.0</ele><time>2026-04-24T06:26:16Z</time></trkpt><trkpt lat="14.471854289745254" lon="120.96841865408298"><ele>5.8</ele><time>2026-04-24T06:26:17Z</time></trkpt><trkpt lat="14.471792812116254" lon="120.96831007518892"><ele>5.6</ele><time>2026-04-24T06:26:18Z</time></trkpt><trkpt lat="14.471741257129203" lon="120.96822155938874"><ele>5.4</ele><time>2026-04-24T06:26:19Z</time></trkpt><trkpt lat="14.471686435477531" lon="120.96813459632209"><ele>5.2</ele><time>2026-04-24T06:26:20Z</time></trkpt><trkpt lat="14.471621194946723" lon="120.96806678263016"><ele>5.0</ele><time>2026-04-24T06:26:21Z</time></trkpt><trkpt lat="14.471540614805145" lon="120.96800112418585"><ele>5.0</ele><time>2026-04-24T06:26:22Z</time></trkpt><trkpt lat="14.471451341528761" lon="120.96794051689092"><ele>5.0</ele><time>2026-04-24T06:26:23Z</time></trkpt><trkpt lat="14.471353480884302" lon="120.96788892195624"><ele>5.0</ele><time>2026-04-24T06:26:24Z</time></trkpt><trkpt lat="14.47126409491868" lon="120.96783213542301"><ele>5.0</ele><time>2026-04-24T06:26:25Z</time></trkpt><trkpt lat="14.471167013173735" lon="120.9677761690225"><ele>5.0</ele><time>2026-04-24T06:26:26Z</time></trkpt><trkpt lat="14.471085325388119" lon="120.96770423142756"><ele>5.0</ele><time>2026-04-24T06:26:27Z</time></trkpt><trkpt lat="14.471003662799653" lon="120.9676471095528"><ele>5.0</ele><time>2026-04-24T06:26:28Z</time></trkpt><trkpt lat="14.470921400015152" lon="120.96758831568255"><ele>5.0</ele><time>2026-04-24T06:26:29Z</time></trkpt><trkpt lat="14.470863348175778" lon="120.9675321867511"><ele>5.0</ele><time>2026-04-24T06:26:30Z</time></trkpt><trkpt lat="14.4708144756683" lon="120.96747901116716"><ele>5.0</ele><time>2026-04-24T06:26:31Z</time></trkpt><trkpt lat="14.470740378581256" lon="120.96741188458152"><ele>5.0</ele><time>2026-04-24T06:26:33Z</time></trkpt><trkpt lat="14.470659122334922" lon="120.9674125536658"><ele>4.833333333333334</ele><time>2026-04-24T06:26:34Z</time></trkpt><trkpt lat="14.470572102256199" lon="120.96747110937864"><ele>4.666666666666667</ele><time>2026-04-24T06:26:35Z</time></trkpt><trkpt lat="14.47050712237676" lon="120.96747867845185"><ele>4.5</ele><time>2026-04-24T06:26:36Z</time></trkpt><trkpt lat="14.47043633983741" lon="120.96747535450984"><ele>4.333333333333333</ele><time>2026-04-24T06:26:37Z</time></trkpt><trkpt lat="14.470350427451951" lon="120.96747214902862"><ele>4.166666666666666</ele><time>2026-04-24T06:26:38Z</time></trkpt><trkpt lat="14.470252659285416" lon="120.96748219242969"><ele>4.0</ele><time>2026-04-24T06:26:39Z</time></trkpt><trkpt lat="14.470162569734262" lon="120.96747447022052"><ele>3.9999999999999996</ele><time>2026-04-24T06:26:40Z</time></trkpt><trkpt lat="14.470062438081108" lon="120.9674513160551"><ele>4.0</ele><time>2026-04-24T06:26:41Z</time></trkpt><trkpt lat="14.469984721123845" lon="120.96744569405789"><ele>4.0</ele><time>2026-04-24T06:26:42Z</time></trkpt><trkpt lat="14.469912450432956" lon="120.96744768424895"><ele>4.0</ele><time>2026-04-24T06:26:43Z</time></trkpt><trkpt lat="14.46984895749843" lon="120.96745916264999"><ele>3.9999999999999996</ele><time>2026-04-24T06:26:44Z</time></trkpt><trkpt lat="14.469775520967676" lon="120.96748333400555"><ele>4.0</ele><time>2026-04-24T06:26:45.001Z</time></trkpt><trkpt lat="14.469704821717563" lon="120.96752136566245"><ele>4.4</ele><time>2026-04-24T06:26:46.001Z</time></trkpt><trkpt lat="14.469612148743686" lon="120.9676083152679"><ele>4.800000000000001</ele><time>2026-04-24T06:26:48.001Z</time></trkpt><trkpt lat="14.469572831111883" lon="120.96774200857392"><ele>5.199999999999999</ele><time>2026-04-24T06:26:50.001Z</time></trkpt><trkpt lat="14.469567042912107" lon="120.96782024040516"><ele>5.6</ele><time>2026-04-24T06:26:51.001Z</time></trkpt><trkpt lat="14.469554292643343" lon="120.96790042469382"><ele>6.0</ele><time>2026-04-24T06:26:52.001Z</time></trkpt><trkpt lat="14.469539106100212" lon="120.9679887217109"><ele>6.0</ele><time>2026-04-24T06:26:53.001Z</time></trkpt><trkpt lat="14.469524935485758" lon="120.96808035882343"><ele>6.0</ele><time>2026-04-24T06:26:54.001Z</time></trkpt><trkpt lat="14.469508333433266" lon="120.96817281124447"><ele>6.0</ele><time>2026-04-24T06:26:55.001Z</time></trkpt><trkpt lat="14.469490921332403" lon="120.96826352970776"><ele>6.0</ele><time>2026-04-24T06:26:56.001Z</time></trkpt><trkpt lat="14.46947245624143" lon="120.96835605244024"><ele>6.0</ele><time>2026-04-24T06:26:57.001Z</time></trkpt><trkpt lat="14.46945453533399" lon="120.9684568902652"><ele>6.0</ele><time>2026-04-24T06:26:58.001Z</time></trkpt><trkpt lat="14.469436794202005" lon="120.96854990452744"><ele>6.0</ele><time>2026-04-24T06:26:59.001Z</time></trkpt><trkpt lat="14.469420439407404" lon="120.96863975915669"><ele>6.0</ele><time>2026-04-24T06:27:00.001Z</time></trkpt><trkpt lat="14.469405799598722" lon="120.968722428831"><ele>6.0</ele><time>2026-04-24T06:27:01.001Z</time></trkpt><trkpt lat="14.469392570815891" lon="120.96881364487942"><ele>6.0</ele><time>2026-04-24T06:27:02.001Z</time></trkpt><trkpt lat="14.469377948512292" lon="120.96888847244128"><ele>6.0</ele><time>2026-04-24T06:27:03.001Z</time></trkpt><trkpt lat="14.469353355943754" lon="120.96898883094757"><ele>6.0</ele><time>2026-04-24T06:27:04.001Z</time></trkpt><trkpt lat="14.469346135286608" lon="120.9690583634834"><ele>6.0</ele><time>2026-04-24T06:27:05.001Z</time></trkpt><trkpt lat="14.469330800858328" lon="120.96912985596892"><ele>6.0</ele><time>2026-04-24T06:27:06.001Z</time></trkpt><trkpt lat="14.469270869999127" lon="120.96923141050826"><ele>6.0</ele><time>2026-04-24T06:27:08.001Z</time></trkpt><trkpt lat="14.469170157459747" lon="120.96927520222378"><ele>6.0</ele><time>2026-04-24T06:27:10.001Z</time></trkpt><trkpt lat="14.46912625724155" lon="120.96932452859964"><ele>6.0</ele><time>2026-04-24T06:27:11.001Z</time></trkpt><trkpt lat="14.469026917507504" lon="120.96939002989922"><ele>6.166666666666667</ele><time>2026-04-24T06:27:13.001Z</time></trkpt><trkpt lat="14.468924809709968" lon="120.96941977879722"><ele>6.333333333333334</ele><time>2026-04-24T06:27:15.001Z</time></trkpt><trkpt lat="14.468825102670529" lon="120.9694557443788"><ele>6.5</ele><time>2026-04-24T06:27:17.001Z</time></trkpt><trkpt lat="14.468754417329556" lon="120.96945617018703"><ele>6.666666666666667</ele><time>2026-04-24T06:27:19.001Z</time></trkpt><trkpt lat="14.468675023451514" lon="120.96945066566659"><ele>6.833333333333334</ele><time>2026-04-24T06:27:22.001Z</time></trkpt><trkpt lat="14.468610611345158" lon="120.96944017834453"><ele>7.0</ele><time>2026-04-24T06:27:25.001Z</time></trkpt><trkpt lat="14.468532301605224" lon="120.96941460160252"><ele>7.0</ele><time>2026-04-24T06:27:29.001Z</time></trkpt><trkpt lat="14.468463937504707" lon="120.96950409831207"><ele>6.999999999999999</ele><time>2026-04-24T06:27:31.001Z</time></trkpt><trkpt lat="14.468424712506453" lon="120.96961651528204"><ele>6.999999999999999</ele><time>2026-04-24T06:27:33.001Z</time></trkpt><trkpt lat="14.468390401159585" lon="120.96972036588248"><ele>7.0</ele><time>2026-04-24T06:27:35.001Z</time></trkpt><trkpt lat="14.46835299974987" lon="120.96979719072024"><ele>7.0</ele><time>2026-04-24T06:27:37.001Z</time></trkpt><trkpt lat="14.468305291729246" lon="120.96986472339665"><ele>7.0</ele><time>2026-04-24T06:27:39.002Z</time></trkpt><trkpt lat="14.46825433973559" lon="120.96993204722295"><ele>6.999999999999999</ele><time>2026-04-24T06:27:43.002Z</time></trkpt><trkpt lat="14.468166828878411" lon="120.96991884792725"><ele>6.999999999999999</ele><time>2026-04-24T06:27:45.002Z</time></trkpt><trkpt lat="14.468066143622256" lon="120.9697833433805"><ele>7.0</ele><time>2026-04-24T06:27:47.002Z</time></trkpt><trkpt lat="14.467997575162439" lon="120.96974128619671"><ele>7.0</ele><time>2026-04-24T06:27:48Z</time></trkpt><trkpt lat="14.467924054353107" lon="120.9696935718406"><ele>7.0</ele><time>2026-04-24T06:27:49Z</time></trkpt><trkpt lat="14.467849961253476" lon="120.9696392665722"><ele>6.999999999999999</ele><time>2026-04-24T06:27:50Z</time></trkpt><trkpt lat="14.467769052722291" lon="120.96957996605713"><ele>6.999999999999999</ele><time>2026-04-24T06:27:51Z</time></trkpt><trkpt lat="14.467683740992648" lon="120.96951751364514"><ele>7.0</ele><time>2026-04-24T06:27:52Z</time></trkpt><trkpt lat="14.46759431559855" lon="120.96945335981864"><ele>7.0</ele><time>2026-04-24T06:27:53Z</time></trkpt><trkpt lat="14.467497079735706" lon="120.96937632119736"><ele>7.0</ele><time>2026-04-24T06:27:54Z</time></trkpt><trkpt lat="14.467396580306588" lon="120.96929984159121"><ele>7.0</ele><time>2026-04-24T06:27:55Z</time></trkpt><trkpt lat="14.467299403909566" lon="120.96922317166378"><ele>7.0</ele><time>2026-04-24T06:27:56Z</time></trkpt><trkpt lat="14.467207842673005" lon="120.96915021773721"><ele>7.0</ele><time>2026-04-24T06:27:57Z</time></trkpt><trkpt lat="14.467097102813746" lon="120.96911126992447"><ele>7.199999999999999</ele><time>2026-04-24T06:27:58Z</time></trkpt><trkpt lat="14.467009968622428" lon="120.96904695402705"><ele>7.3999999999999995</ele><time>2026-04-24T06:27:59Z</time></trkpt><trkpt lat="14.466932358137814" lon="120.96898582960496"><ele>7.6000000000000005</ele><time>2026-04-24T06:28:00Z</time></trkpt><trkpt lat="14.46684504455484" lon="120.96891903120341"><ele>7.800000000000001</ele><time>2026-04-24T06:28:01Z</time></trkpt><trkpt lat="14.466793499889372" lon="120.96882224680503"><ele>8.0</ele><time>2026-04-24T06:28:02Z</time></trkpt><trkpt lat="14.466719017786364" lon="120.96876069676368"><ele>7.999999999999999</ele><time>2026-04-24T06:28:03Z</time></trkpt><trkpt lat="14.466646914143649" lon="120.96869795249053"><ele>8.0</ele><time>2026-04-24T06:28:04Z</time></trkpt><trkpt lat="14.46658988188442" lon="120.96863807037091"><ele>8.0</ele><time>2026-04-24T06:28:05Z</time></trkpt><trkpt lat="14.46649308389341" lon="120.96859932932931"><ele>8.0</ele><time>2026-04-24T06:28:06Z</time></trkpt><trkpt lat="14.466442288175957" lon="120.96853724311755"><ele>7.999999999999999</ele><time>2026-04-24T06:28:07Z</time></trkpt><trkpt lat="14.466395964608822" lon="120.96848408657041"><ele>8.0</ele><time>2026-04-24T06:28:08Z</time></trkpt><trkpt lat="14.466346993227592" lon="120.96838593556895"><ele>7.833333333333333</ele><time>2026-04-24T06:28:10Z</time></trkpt><trkpt lat="14.466277833758996" lon="120.96832804943783"><ele>7.666666666666666</ele><time>2026-04-24T06:28:13Z</time></trkpt><trkpt lat="14.466225766643305" lon="120.96828446994087"><ele>7.5</ele><time>2026-04-24T06:28:48.001Z</time></trkpt><trkpt lat="14.4661751045107" lon="120.96824206655725"><ele>7.333333333333334</ele><time>2026-04-24T06:28:50.002Z</time></trkpt><trkpt lat="14.466090123248517" lon="120.9681709386445"><ele>7.166666666666667</ele><time>2026-04-24T06:28:52.002Z</time></trkpt><trkpt lat="14.466027311353457" lon="120.96812908181823"><ele>7.0</ele><time>2026-04-24T06:28:53.002Z</time></trkpt><trkpt lat="14.465960331315108" lon="120.96807674766653"><ele>7.0</ele><time>2026-04-24T06:28:54.002Z</time></trkpt><trkpt lat="14.465871524012016" lon="120.9680490230909"><ele>6.999999999999999</ele><time>2026-04-24T06:28:55.002Z</time></trkpt><trkpt lat="14.465803614097023" lon="120.9679985233128"><ele>6.999999999999999</ele><time>2026-04-24T06:28:56.002Z</time></trkpt><trkpt lat="14.46573573291446" lon="120.96793266723674"><ele>7.0</ele><time>2026-04-24T06:28:57.002Z</time></trkpt><trkpt lat="14.465670081802928" lon="120.96785871486631"><ele>7.0</ele><time>2026-04-24T06:28:58.002Z</time></trkpt><trkpt lat="14.465610608766593" lon="120.96778123688472"><ele>7.0</ele><time>2026-04-24T06:28:59.002Z</time></trkpt><trkpt lat="14.465548215052312" lon="120.96768959172724"><ele>6.999999999999999</ele><time>2026-04-24T06:29:00.002Z</time></trkpt><trkpt lat="14.465463152705212" lon="120.96771989866555"><ele>6.999999999999999</ele><time>2026-04-24T06:29:01.002Z</time></trkpt><trkpt lat="14.465385222233097" lon="120.96765887325517"><ele>7.0</ele><time>2026-04-24T06:29:02.002Z</time></trkpt><trkpt lat="14.465291821557718" lon="120.96760899600035"><ele>7.0</ele><time>2026-04-24T06:29:03.002Z</time></trkpt><trkpt lat="14.465203584002479" lon="120.96754928234388"><ele>7.8</ele><time>2026-04-24T06:29:04.002Z</time></trkpt><trkpt lat="14.465112161473925" lon="120.96748981660296"><ele>8.6</ele><time>2026-04-24T06:29:05.002Z</time></trkpt><trkpt lat="14.465020014713126" lon="120.9674342112835"><ele>9.4</ele><time>2026-04-24T06:29:06.002Z</time></trkpt><trkpt lat="14.46493447182184" lon="120.96737719839854"><ele>10.200000000000001</ele><time>2026-04-24T06:29:07.002Z</time></trkpt><trkpt lat="14.464851165217523" lon="120.96732584904474"><ele>11.0</ele><time>2026-04-24T06:29:08.002Z</time></trkpt><trkpt lat="14.464777346130195" lon="120.96727975915984"><ele>11.0</ele><time>2026-04-24T06:29:09.002Z</time></trkpt><trkpt lat="14.464708527939353" lon="120.96723445394068"><ele>11.0</ele><time>2026-04-24T06:29:10.002Z</time></trkpt><trkpt lat="14.464686371640408" lon="120.96713774081633"><ele>11.0</ele><time>2026-04-24T06:29:11.002Z</time></trkpt><trkpt lat="14.464626180291225" lon="120.96708069506425"><ele>11.0</ele><time>2026-04-24T06:29:12.002Z</time></trkpt><trkpt lat="14.464569133020676" lon="120.96702662922395"><ele>11.0</ele><time>2026-04-24T06:29:13.002Z</time></trkpt><trkpt lat="14.46451660483279" lon="120.9669418107213"><ele>11.0</ele><time>2026-04-24T06:29:15.002Z</time></trkpt><trkpt lat="14.464462869350704" lon="120.96686924850832"><ele>10.666666666666666</ele><time>2026-04-24T06:29:17.002Z</time></trkpt><trkpt lat="14.464397369454828" lon="120.96676894868168"><ele>10.333333333333332</ele><time>2026-04-24T06:29:19.002Z</time></trkpt><trkpt lat="14.46435830549694" lon="120.96670943296493"><ele>10.0</ele><time>2026-04-24T06:29:20.002Z</time></trkpt><trkpt lat="14.464314150648967" lon="120.96664216104497"><ele>9.666666666666666</ele><time>2026-04-24T06:29:21.002Z</time></trkpt><trkpt lat="14.46426526917806" lon="120.96656768800534"><ele>9.333333333333334</ele><time>2026-04-24T06:29:22.002Z</time></trkpt><trkpt lat="14.464215026198211" lon="120.96649323791237"><ele>9.0</ele><time>2026-04-24T06:29:23.002Z</time></trkpt><trkpt lat="14.464174296258804" lon="120.96642945038099"><ele>9.0</ele><time>2026-04-24T06:29:24.002Z</time></trkpt><trkpt lat="14.464137920960702" lon="120.96637129508001"><ele>9.0</ele><time>2026-04-24T06:29:25.002Z</time></trkpt><trkpt lat="14.464091997535082" lon="120.96629864191877"><ele>9.0</ele><time>2026-04-24T06:29:26.002Z</time></trkpt><trkpt lat="14.46405522263151" lon="120.96624005375799"><ele>9.0</ele><time>2026-04-24T06:29:27.002Z</time></trkpt><trkpt lat="14.46401692443345" lon="120.96617903876505"><ele>9.0</ele><time>2026-04-24T06:29:28.002Z</time></trkpt><trkpt lat="14.463973318090535" lon="120.9661100429537"><ele>9.0</ele><time>2026-04-24T06:29:29.002Z</time></trkpt><trkpt lat="14.463925391437472" lon="120.96603446652342"><ele>9.0</ele><time>2026-04-24T06:29:30.002Z</time></trkpt><trkpt lat="14.463866956458256" lon="120.96595069603069"><ele>9.0</ele><time>2026-04-24T06:29:31.002Z</time></trkpt><trkpt lat="14.463805961625768" lon="120.96586053855658"><ele>9.0</ele><time>2026-04-24T06:29:32.002Z</time></trkpt><trkpt lat="14.463742945008145" lon="120.96576719660912"><ele>9.0</ele><time>2026-04-24T06:29:33.002Z</time></trkpt><trkpt lat="14.4636748685218" lon="120.965666359816"><ele>9.0</ele><time>2026-04-24T06:29:34.002Z</time></trkpt><trkpt lat="14.463609605044152" lon="120.96556968974431"><ele>9.0</ele><time>2026-04-24T06:29:35.002Z</time></trkpt><trkpt lat="14.463541201983523" lon="120.96546836924341"><ele>9.0</ele><time>2026-04-24T06:29:36.002Z</time></trkpt><trkpt lat="14.463477686855603" lon="120.96537428894435"><ele>9.0</ele><time>2026-04-24T06:29:37.002Z</time></trkpt><trkpt lat="14.463414596714795" lon="120.96527764587736"><ele>9.0</ele><time>2026-04-24T06:29:38.002Z</time></trkpt><trkpt lat="14.463360184779148" lon="120.96519450696816"><ele>9.0</ele><time>2026-04-24T06:29:39.002Z</time></trkpt><trkpt lat="14.463310117156368" lon="120.96511800596669"><ele>9.0</ele><time>2026-04-24T06:29:40.002Z</time></trkpt><trkpt lat="14.463267769053347" lon="120.96505329473342"><ele>9.0</ele><time>2026-04-24T06:29:41.002Z</time></trkpt><trkpt lat="14.46322254819624" lon="120.96498419001831"><ele>9.0</ele><time>2026-04-24T06:29:42.002Z</time></trkpt><trkpt lat="14.463179922840958" lon="120.96491905164845"><ele>9.0</ele><time>2026-04-24T06:29:43.003Z</time></trkpt><trkpt lat="14.463134913251976" lon="120.96485026978901"><ele>9.0</ele><time>2026-04-24T06:29:44.003Z</time></trkpt><trkpt lat="14.463078830478368" lon="120.9647645482156"><ele>9.0</ele><time>2026-04-24T06:29:46.003Z</time></trkpt><trkpt lat="14.46302296462846" lon="120.96467915778365"><ele>8.833333333333334</ele><time>2026-04-24T06:29:48.003Z</time></trkpt><trkpt lat="14.462979627494846" lon="120.96461291735582"><ele>8.666666666666666</ele><time>2026-04-24T06:29:49.003Z</time></trkpt><trkpt lat="14.462936852762464" lon="120.96454837174419"><ele>8.5</ele><time>2026-04-24T06:29:50.003Z</time></trkpt><trkpt lat="14.462899110585276" lon="120.96448843957212"><ele>8.333333333333332</ele><time>2026-04-24T06:29:51.003Z</time></trkpt><trkpt lat="14.462858973147398" lon="120.96442496641687"><ele>8.166666666666666</ele><time>2026-04-24T06:29:52.003Z</time></trkpt><trkpt lat="14.462823614183053" lon="120.96436904992058"><ele>8.0</ele><time>2026-04-24T06:29:53.003Z</time></trkpt><trkpt lat="14.462769297145703" lon="120.96428315323352"><ele>7.999999999999999</ele><time>2026-04-24T06:29:55.001Z</time></trkpt><trkpt lat="14.462728041992985" lon="120.96421791249738"><ele>8.0</ele><time>2026-04-24T06:30:00.001Z</time></trkpt><trkpt lat="14.462681530131098" lon="120.96414435895453"><ele>8.0</ele><time>2026-04-24T06:30:02.001Z</time></trkpt><trkpt lat="14.462620451741907" lon="120.96405040943858"><ele>8.0</ele><time>2026-04-24T06:30:04.001Z</time></trkpt><trkpt lat="14.462568589573413" lon="120.96397034153327"><ele>7.999999999999999</ele><time>2026-04-24T06:30:06.001Z</time></trkpt><trkpt lat="14.46252379705607" lon="120.9639011881754"><ele>8.0</ele><time>2026-04-24T06:30:08.001Z</time></trkpt><trkpt lat="14.462465938501824" lon="120.96381186269028"><ele>8.166666666666666</ele><time>2026-04-24T06:30:10.001Z</time></trkpt><trkpt lat="14.462415192883515" lon="120.96373107299877"><ele>8.333333333333332</ele><time>2026-04-24T06:30:12.001Z</time></trkpt><trkpt lat="14.46236887232603" lon="120.96365685763007"><ele>8.5</ele><time>2026-04-24T06:30:17.001Z</time></trkpt><trkpt lat="14.462325399456706" lon="120.96358720485897"><ele>8.666666666666666</ele><time>2026-04-24T06:30:20.001Z</time></trkpt><trkpt lat="14.462287861017849" lon="120.96352706031482"><ele>8.833333333333334</ele><time>2026-04-24T06:30:25.001Z</time></trkpt><trkpt lat="14.46225370756918" lon="120.96347233922751"><ele>9.0</ele><time>2026-04-24T06:30:35.001Z</time></trkpt><trkpt lat="14.462219334288081" lon="120.96341726556743"><ele>9.2</ele><time>2026-04-24T06:30:41.001Z</time></trkpt><trkpt lat="14.462168276434973" lon="120.96333465142891"><ele>9.4</ele><time>2026-04-24T06:30:52.001Z</time></trkpt><trkpt lat="14.462103205427967" lon="120.96322955702382"><ele>9.6</ele><time>2026-04-24T06:30:54.001Z</time></trkpt><trkpt lat="14.46205649194012" lon="120.96315411003143"><ele>9.8</ele><time>2026-04-24T06:30:56.001Z</time></trkpt><trkpt lat="14.462005038977118" lon="120.96309050617259"><ele>10.0</ele><time>2026-04-24T06:30:58.001Z</time></trkpt><trkpt lat="14.461985142685954" lon="120.96298307284472"><ele>9.6</ele><time>2026-04-24T06:31:00.001Z</time></trkpt><trkpt lat="14.461971934900212" lon="120.96285063202461"><ele>9.2</ele><time>2026-04-24T06:31:02.002Z</time></trkpt><trkpt lat="14.46198964331307" lon="120.96277202572028"><ele>8.8</ele><time>2026-04-24T06:31:04.002Z</time></trkpt><trkpt lat="14.462025803935305" lon="120.9626834658119"><ele>8.4</ele><time>2026-04-24T06:31:06.002Z</time></trkpt><trkpt lat="14.46206556260029" lon="120.96259529640778"><ele>8.0</ele><time>2026-04-24T06:31:08.002Z</time></trkpt><trkpt lat="14.462104480271163" lon="120.96249305878517"><ele>8.5</ele><time>2026-04-24T06:31:10.002Z</time></trkpt><trkpt lat="14.462139401725405" lon="120.96238470292461"><ele>9.0</ele><time>2026-04-24T06:31:12.002Z</time></trkpt><trkpt lat="14.462163816877947" lon="120.96229551503332"><ele>9.5</ele><time>2026-04-24T06:31:14.002Z</time></trkpt><trkpt lat="14.462206987515309" lon="120.9621948550484"><ele>10.0</ele><time>2026-04-24T06:31:16.002Z</time></trkpt><trkpt lat="14.462232449617945" lon="120.96213087533407"><ele>10.5</ele><time>2026-04-24T06:31:17.002Z</time></trkpt><trkpt lat="14.462257636234702" lon="120.96206064528573"><ele>11.0</ele><time>2026-04-24T06:31:18.002Z</time></trkpt><trkpt lat="14.462281489085855" lon="120.96198397515364"><ele>11.0</ele><time>2026-04-24T06:31:19.002Z</time></trkpt><trkpt lat="14.462306914569199" lon="120.96190263880524"><ele>11.0</ele><time>2026-04-24T06:31:20.002Z</time></trkpt><trkpt lat="14.462332745812645" lon="120.96182720329867"><ele>11.0</ele><time>2026-04-24T06:31:21.002Z</time></trkpt><trkpt lat="14.462357311193827" lon="120.96174898947781"><ele>11.0</ele><time>2026-04-24T06:31:22.002Z</time></trkpt><trkpt lat="14.462383061553535" lon="120.96167251428466"><ele>11.0</ele><time>2026-04-24T06:31:23.002Z</time></trkpt><trkpt lat="14.462405262908202" lon="120.96159785557991"><ele>11.0</ele><time>2026-04-24T06:31:24.002Z</time></trkpt><trkpt lat="14.462432096135625" lon="120.96151724009407"><ele>10.5</ele><time>2026-04-24T06:31:25.002Z</time></trkpt><trkpt lat="14.462456356403601" lon="120.96143739118112"><ele>10.0</ele><time>2026-04-24T06:31:26.002Z</time></trkpt><trkpt lat="14.462476721695129" lon="120.96135943504623"><ele>9.5</ele><time>2026-04-24T06:31:27.002Z</time></trkpt><trkpt lat="14.462490978027953" lon="120.96127684953635"><ele>9.0</ele><time>2026-04-24T06:31:28.002Z</time></trkpt><trkpt lat="14.462499535877445" lon="120.9611826946687"><ele>8.5</ele><time>2026-04-24T06:31:29.002Z</time></trkpt><trkpt lat="14.462503128796072" lon="120.96109467599497"><ele>8.0</ele><time>2026-04-24T06:31:30.002Z</time></trkpt><trkpt lat="14.462505814961718" lon="120.9609954809937"><ele>8.0</ele><time>2026-04-24T06:31:31.002Z</time></trkpt><trkpt lat="14.462518161712888" lon="120.96090015450754"><ele>8.0</ele><time>2026-04-24T06:31:32.002Z</time></trkpt><trkpt lat="14.462506373698648" lon="120.96080078773228"><ele>8.0</ele><time>2026-04-24T06:31:33.002Z</time></trkpt><trkpt lat="14.46248690916087" lon="120.9606995375132"><ele>8.0</ele><time>2026-04-24T06:31:34.002Z</time></trkpt><trkpt lat="14.462464578044072" lon="120.96060221244218"><ele>8.0</ele><time>2026-04-24T06:31:35.002Z</time></trkpt><trkpt lat="14.462439595646282" lon="120.9605016663431"><ele>7.4</ele><time>2026-04-24T06:31:36.002Z</time></trkpt><trkpt lat="14.462414811826307" lon="120.96040191937509"><ele>6.800000000000001</ele><time>2026-04-24T06:31:37.002Z</time></trkpt><trkpt lat="14.462389217415458" lon="120.9602989100767"><ele>6.2</ele><time>2026-04-24T06:31:38.002Z</time></trkpt><trkpt lat="14.46236421093382" lon="120.9601982663074"><ele>5.6</ele><time>2026-04-24T06:31:39.002Z</time></trkpt><trkpt lat="14.46234049002186" lon="120.96010314054074"><ele>5.0</ele><time>2026-04-24T06:31:40.002Z</time></trkpt><trkpt lat="14.462319839554644" lon="120.96002024332708"><ele>5.0</ele><time>2026-04-24T06:31:41.002Z</time></trkpt><trkpt lat="14.462301169792635" lon="120.95994529728506"><ele>5.0</ele><time>2026-04-24T06:31:42.002Z</time></trkpt><trkpt lat="14.462283900329066" lon="120.9598759724535"><ele>5.0</ele><time>2026-04-24T06:31:43.002Z</time></trkpt><trkpt lat="14.462244675476107" lon="120.95978250166483"><ele>5.0</ele><time>2026-04-24T06:31:45.002Z</time></trkpt><trkpt lat="14.462300349038687" lon="120.95972042669682"><ele>5.0</ele><time>2026-04-24T06:31:47.002Z</time></trkpt><trkpt lat="14.462381532849653" lon="120.95967616749114"><ele>5.0</ele><time>2026-04-24T06:31:49.002Z</time></trkpt><trkpt lat="14.46251920044227" lon="120.95967729070084"><ele>5.0</ele><time>2026-04-24T06:31:51.002Z</time></trkpt><trkpt lat="14.462600812392758" lon="120.95969580469045"><ele>5.0</ele><time>2026-04-24T06:31:52.002Z</time></trkpt><trkpt lat="14.462685268100191" lon="120.959711914747"><ele>5.0</ele><time>2026-04-24T06:31:53.002Z</time></trkpt><trkpt lat="14.462779289115876" lon="120.95974115392916"><ele>5.0</ele><time>2026-04-24T06:31:54.002Z</time></trkpt><trkpt lat="14.462871399956493" lon="120.95977502477541"><ele>5.0</ele><time>2026-04-24T06:31:55.002Z</time></trkpt><trkpt lat="14.4629661720118" lon="120.95981361799807"><ele>4.8</ele><time>2026-04-24T06:31:56.003Z</time></trkpt><trkpt lat="14.463064180147484" lon="120.9598657555583"><ele>4.6</ele><time>2026-04-24T06:31:57.003Z</time></trkpt><trkpt lat="14.463157598694401" lon="120.95992554205198"><ele>4.4</ele><time>2026-04-24T06:31:58.003Z</time></trkpt><trkpt lat="14.463250261877352" lon="120.95999038575876"><ele>4.2</ele><time>2026-04-24T06:31:59.003Z</time></trkpt><trkpt lat="14.463337797324222" lon="120.96005597589183"><ele>4.0</ele><time>2026-04-24T06:32:00Z</time></trkpt><trkpt lat="14.463428019786088" lon="120.96012509887008"><ele>4.0</ele><time>2026-04-24T06:32:01Z</time></trkpt><trkpt lat="14.463519207560244" lon="120.96019297536674"><ele>4.0</ele><time>2026-04-24T06:32:02Z</time></trkpt><trkpt lat="14.463618393920088" lon="120.96026320498689"><ele>4.0</ele><time>2026-04-24T06:32:03Z</time></trkpt><trkpt lat="14.463718995033048" lon="120.96033270647912"><ele>4.0</ele><time>2026-04-24T06:32:04Z</time></trkpt><trkpt lat="14.463819677736527" lon="120.96040267529193"><ele>4.5</ele><time>2026-04-24T06:32:05Z</time></trkpt><trkpt lat="14.463915597150383" lon="120.96047042011546"><ele>5.0</ele><time>2026-04-24T06:32:06Z</time></trkpt><trkpt lat="14.464009493469458" lon="120.96053899821332"><ele>5.5</ele><time>2026-04-24T06:32:07Z</time></trkpt><trkpt lat="14.464101307857794" lon="120.96060686624938"><ele>6.0</ele><time>2026-04-24T06:32:08Z</time></trkpt><trkpt lat="14.464198031758679" lon="120.96067712811283"><ele>6.0</ele><time>2026-04-24T06:32:09Z</time></trkpt><trkpt lat="14.4642918562732" lon="120.96074237210797"><ele>6.0</ele><time>2026-04-24T06:32:10Z</time></trkpt><trkpt lat="14.464389500878438" lon="120.96081211847985"><ele>6.0</ele><time>2026-04-24T06:32:11Z</time></trkpt><trkpt lat="14.46448686646912" lon="120.96088249376604"><ele>6.0</ele><time>2026-04-24T06:32:12Z</time></trkpt><trkpt lat="14.464573515279145" lon="120.96094452160033"><ele>6.0</ele><time>2026-04-24T06:32:13Z</time></trkpt><trkpt lat="14.464666314998981" lon="120.96100945373735"><ele>6.0</ele><time>2026-04-24T06:32:14Z</time></trkpt><trkpt lat="14.46475286498705" lon="120.9610681887439"><ele>6.0</ele><time>2026-04-24T06:32:15Z</time></trkpt><trkpt lat="14.464838676600271" lon="120.96113309925126"><ele>6.0</ele><time>2026-04-24T06:32:16Z</time></trkpt><trkpt lat="14.464913853225859" lon="120.96118961504706"><ele>6.0</ele><time>2026-04-24T06:32:17Z</time></trkpt><trkpt lat="14.464994233350845" lon="120.96124526283872"><ele>6.0</ele><time>2026-04-24T06:32:18Z</time></trkpt><trkpt lat="14.465073133860411" lon="120.96130026912142"><ele>6.0</ele><time>2026-04-24T06:32:19.001Z</time></trkpt><trkpt lat="14.465145753760114" lon="120.96134894875452"><ele>6.0</ele><time>2026-04-24T06:32:20.001Z</time></trkpt><trkpt lat="14.465220020224555" lon="120.96140507638775"><ele>6.0</ele><time>2026-04-24T06:32:21.001Z</time></trkpt><trkpt lat="14.465293809041206" lon="120.96145963036973"><ele>6.0</ele><time>2026-04-24T06:32:22.001Z</time></trkpt><trkpt lat="14.46535604704157" lon="120.9615018458281"><ele>6.0</ele><time>2026-04-24T06:32:23.001Z</time></trkpt><trkpt lat="14.465413793534143" lon="120.96154176720034"><ele>6.166666666666667</ele><time>2026-04-24T06:32:24.001Z</time></trkpt><trkpt lat="14.465469271844446" lon="120.96157918449845"><ele>6.333333333333334</ele><time>2026-04-24T06:32:25.001Z</time></trkpt><trkpt lat="14.465532251393935" lon="120.96162470857271"><ele>6.5</ele><time>2026-04-24T06:32:26.001Z</time></trkpt><trkpt lat="14.465596256144686" lon="120.96167139936745"><ele>6.666666666666667</ele><time>2026-04-24T06:32:27.001Z</time></trkpt><trkpt lat="14.465667759497178" lon="120.96172290713963"><ele>6.833333333333334</ele><time>2026-04-24T06:32:28.001Z</time></trkpt><trkpt lat="14.46574311264009" lon="120.9617828114024"><ele>7.0</ele><time>2026-04-24T06:32:29.001Z</time></trkpt><trkpt lat="14.46582375641397" lon="120.9618481384864"><ele>6.3999999999999995</ele><time>2026-04-24T06:32:30.001Z</time></trkpt><trkpt lat="14.465906562441518" lon="120.96191310273585"><ele>5.799999999999999</ele><time>2026-04-24T06:32:31.001Z</time></trkpt><trkpt lat="14.465994761933908" lon="120.96198423079659"><ele>5.2</ele><time>2026-04-24T06:32:32.001Z</time></trkpt><trkpt lat="14.466081083388234" lon="120.96206097498936"><ele>4.6</ele><time>2026-04-24T06:32:33.001Z</time></trkpt><trkpt lat="14.466165332580452" lon="120.96214274248699"><ele>4.0</ele><time>2026-04-24T06:32:34.001Z</time></trkpt><trkpt lat="14.466246981287835" lon="120.96222959884396"><ele>4.6</ele><time>2026-04-24T06:32:35.001Z</time></trkpt><trkpt lat="14.466312801310258" lon="120.96231632605816"><ele>5.2</ele><time>2026-04-24T06:32:36.001Z</time></trkpt><trkpt lat="14.466379257960693" lon="120.96241228889521"><ele>5.799999999999999</ele><time>2026-04-24T06:32:37.001Z</time></trkpt><trkpt lat="14.466429566723926" lon="120.96248838078812"><ele>6.3999999999999995</ele><time>2026-04-24T06:32:38.001Z</time></trkpt><trkpt lat="14.466483891533086" lon="120.96257270488259"><ele>7.0</ele><time>2026-04-24T06:32:39.001Z</time></trkpt><trkpt lat="14.46652119063789" lon="120.9626425636791"><ele>7.3999999999999995</ele><time>2026-04-24T06:32:40.001Z</time></trkpt><trkpt lat="14.466547989346422" lon="120.96270433370037"><ele>7.799999999999999</ele><time>2026-04-24T06:32:41.001Z</time></trkpt><trkpt lat="14.466601534084894" lon="120.96280738122377"><ele>8.2</ele><time>2026-04-24T06:32:43.001Z</time></trkpt><trkpt lat="14.466642579344564" lon="120.96291561374235"><ele>8.6</ele><time>2026-04-24T06:32:45.001Z</time></trkpt><trkpt lat="14.466682744485132" lon="120.96303891469908"><ele>9.0</ele><time>2026-04-24T06:32:47.001Z</time></trkpt><trkpt lat="14.466707791621042" lon="120.96310084835933"><ele>9.0</ele><time>2026-04-24T06:32:48.001Z</time></trkpt><trkpt lat="14.466735770807261" lon="120.96316043436762"><ele>9.0</ele><time>2026-04-24T06:32:49.001Z</time></trkpt><trkpt lat="14.46676465858081" lon="120.96322218265716"><ele>9.0</ele><time>2026-04-24T06:32:50.001Z</time></trkpt><trkpt lat="14.466824162690898" lon="120.96333885860135"><ele>9.0</ele><time>2026-04-24T06:32:52.001Z</time></trkpt><trkpt lat="14.466884717542476" lon="120.96344623762378"><ele>9.0</ele><time>2026-04-24T06:32:54.001Z</time></trkpt><trkpt lat="14.466931195169416" lon="120.96355836982868"><ele>8.833333333333334</ele><time>2026-04-24T06:32:56.001Z</time></trkpt><trkpt lat="14.466980777923991" lon="120.9636407179439"><ele>8.666666666666666</ele><time>2026-04-24T06:32:58.001Z</time></trkpt><trkpt lat="14.467073201301378" lon="120.96364146974493"><ele>8.5</ele><time>2026-04-24T06:32:59.001Z</time></trkpt><trkpt lat="14.467139298594793" lon="120.96364201144151"><ele>8.333333333333332</ele><time>2026-04-24T06:33:00.001Z</time></trkpt><trkpt lat="14.467214007458889" lon="120.96362364740031"><ele>8.166666666666666</ele><time>2026-04-24T06:33:01.001Z</time></trkpt><trkpt lat="14.467286841355994" lon="120.9635896477289"><ele>8.0</ele><time>2026-04-24T06:33:02.001Z</time></trkpt><trkpt lat="14.467368945315277" lon="120.96355309752347"><ele>7.800000000000001</ele><time>2026-04-24T06:33:03.001Z</time></trkpt><trkpt lat="14.467455066436628" lon="120.96351453416518"><ele>7.6000000000000005</ele><time>2026-04-24T06:33:04.001Z</time></trkpt><trkpt lat="14.467543965509307" lon="120.96347625117124"><ele>7.3999999999999995</ele><time>2026-04-24T06:33:05.001Z</time></trkpt><trkpt lat="14.467640340026406" lon="120.9634414215641"><ele>7.199999999999999</ele><time>2026-04-24T06:33:06.001Z</time></trkpt><trkpt lat="14.467735448877207" lon="120.96340317736053"><ele>7.0</ele><time>2026-04-24T06:33:07.001Z</time></trkpt><trkpt lat="14.467833106972416" lon="120.96336336739736"><ele>6.833333333333334</ele><time>2026-04-24T06:33:08.001Z</time></trkpt><trkpt lat="14.46791881649291" lon="120.96332782249573"><ele>6.666666666666667</ele><time>2026-04-24T06:33:09.001Z</time></trkpt><trkpt lat="14.468005742257589" lon="120.96329581225007"><ele>6.5</ele><time>2026-04-24T06:33:10.001Z</time></trkpt><trkpt lat="14.468085305531911" lon="120.96326240230145"><ele>6.333333333333334</ele><time>2026-04-24T06:33:11.002Z</time></trkpt><trkpt lat="14.468165434062835" lon="120.96323395993646"><ele>6.166666666666667</ele><time>2026-04-24T06:33:12.002Z</time></trkpt><trkpt lat="14.468241344866037" lon="120.9632115740429"><ele>6.0</ele><time>2026-04-24T06:33:13.002Z</time></trkpt><trkpt lat="14.4683039176547" lon="120.96318733030535"><ele>6.0</ele><time>2026-04-24T06:33:14.002Z</time></trkpt><trkpt lat="14.468355452272117" lon="120.96314525926128"><ele>6.0</ele><time>2026-04-24T06:33:16.002Z</time></trkpt><trkpt lat="14.468324789965445" lon="120.9630580062044"><ele>6.0</ele><time>2026-04-24T06:33:19.002Z</time></trkpt><trkpt lat="14.468244411209955" lon="120.96306023784345"><ele>6.0</ele><time>2026-04-24T06:33:21.002Z</time></trkpt><trkpt lat="14.468182222322213" lon="120.96309151915187"><ele>6.0</ele><time>2026-04-24T06:33:22.002Z</time></trkpt><trkpt lat="14.46811257951031" lon="120.96312834578633"><ele>6.0</ele><time>2026-04-24T06:33:23.002Z</time></trkpt><trkpt lat="14.468031046388031" lon="120.96315868434846"><ele>6.0</ele><time>2026-04-24T06:33:24.002Z</time></trkpt><trkpt lat="14.467945331553393" lon="120.96318540814326"><ele>6.0</ele><time>2026-04-24T06:33:25.002Z</time></trkpt><trkpt lat="14.467844846490642" lon="120.96322185258035"><ele>6.0</ele><time>2026-04-24T06:33:26.002Z</time></trkpt><trkpt lat="14.467741146456476" lon="120.96325723034929"><ele>6.0</ele><time>2026-04-24T06:33:27.002Z</time></trkpt><trkpt lat="14.467638784408132" lon="120.96329379249757"><ele>6.0</ele><time>2026-04-24T06:33:28.002Z</time></trkpt><trkpt lat="14.467535081387508" lon="120.96332880442051"><ele>6.199999999999999</ele><time>2026-04-24T06:33:29.002Z</time></trkpt><trkpt lat="14.467432657420838" lon="120.96336240332562"><ele>6.3999999999999995</ele><time>2026-04-24T06:33:30.002Z</time></trkpt><trkpt lat="14.467334965362818" lon="120.96338790431751"><ele>6.6</ele><time>2026-04-24T06:33:31.002Z</time></trkpt><trkpt lat="14.467246591355428" lon="120.9634022615521"><ele>6.8</ele><time>2026-04-24T06:33:32.002Z</time></trkpt><trkpt lat="14.467158398177428" lon="120.96340487278299"><ele>7.0</ele><time>2026-04-24T06:33:33.002Z</time></trkpt><trkpt lat="14.467076242424447" lon="120.9633918237324"><ele>7.3999999999999995</ele><time>2026-04-24T06:33:34.002Z</time></trkpt><trkpt lat="14.466995494237613" lon="120.96335452126843"><ele>7.799999999999999</ele><time>2026-04-24T06:33:35.002Z</time></trkpt><trkpt lat="14.466927514405354" lon="120.96329771305544"><ele>8.2</ele><time>2026-04-24T06:33:36.002Z</time></trkpt><trkpt lat="14.466865907223365" lon="120.9632167214699"><ele>8.6</ele><time>2026-04-24T06:33:37.002Z</time></trkpt><trkpt lat="14.466817999024789" lon="120.9631239097055"><ele>9.0</ele><time>2026-04-24T06:33:38.002Z</time></trkpt><trkpt lat="14.466777581651476" lon="120.96302552841324"><ele>9.0</ele><time>2026-04-24T06:33:39.002Z</time></trkpt><trkpt lat="14.46673540468826" lon="120.96292218706314"><ele>9.0</ele><time>2026-04-24T06:33:40.002Z</time></trkpt><trkpt lat="14.466690314101792" lon="120.96281633784595"><ele>9.0</ele><time>2026-04-24T06:33:41.002Z</time></trkpt><trkpt lat="14.466637423429631" lon="120.9627094143464"><ele>9.0</ele><time>2026-04-24T06:33:42.002Z</time></trkpt><trkpt lat="14.466587518628835" lon="120.96260240595998"><ele>8.5</ele><time>2026-04-24T06:33:43.002Z</time></trkpt><trkpt lat="14.466538551195136" lon="120.9624927062101"><ele>8.0</ele><time>2026-04-24T06:33:44.002Z</time></trkpt><trkpt lat="14.466481451857852" lon="120.9623882931369"><ele>7.5</ele><time>2026-04-24T06:33:45.002Z</time></trkpt><trkpt lat="14.466406476905453" lon="120.96229175872769"><ele>7.0</ele><time>2026-04-24T06:33:46.002Z</time></trkpt><trkpt lat="14.466325089612848" lon="120.96219871684984"><ele>6.25</ele><time>2026-04-24T06:33:47.002Z</time></trkpt><trkpt lat="14.466242413174253" lon="120.96210642015025"><ele>5.5</ele><time>2026-04-24T06:33:48.002Z</time></trkpt><trkpt lat="14.466147488418365" lon="120.96201318342486"><ele>4.75</ele><time>2026-04-24T06:33:49.002Z</time></trkpt><trkpt lat="14.466045142492533" lon="120.96193032352964"><ele>4.0</ele><time>2026-04-24T06:33:50.002Z</time></trkpt><trkpt lat="14.46594057441431" lon="120.96184338240431"><ele>4.0</ele><time>2026-04-24T06:33:51.002Z</time></trkpt><trkpt lat="14.46583716365812" lon="120.96175781157191"><ele>4.0</ele><time>2026-04-24T06:33:52.002Z</time></trkpt><trkpt lat="14.46572677229044" lon="120.96167495650062"><ele>4.0</ele><time>2026-04-24T06:33:53.002Z</time></trkpt><trkpt lat="14.465612222750446" lon="120.96159492218251"><ele>4.0</ele><time>2026-04-24T06:33:54.002Z</time></trkpt><trkpt lat="14.465493964902048" lon="120.96151275242278"><ele>4.5</ele><time>2026-04-24T06:33:55.002Z</time></trkpt><trkpt lat="14.4653746928641" lon="120.96142705138769"><ele>5.0</ele><time>2026-04-24T06:33:56.002Z</time></trkpt><trkpt lat="14.465256544978732" lon="120.96134098218921"><ele>5.5</ele><time>2026-04-24T06:33:57.002Z</time></trkpt><trkpt lat="14.465133600292285" lon="120.96125395656294"><ele>6.0</ele><time>2026-04-24T06:33:58.002Z</time></trkpt><trkpt lat="14.465008712891578" lon="120.96116492758722"><ele>6.0</ele><time>2026-04-24T06:33:59.002Z</time></trkpt><trkpt lat="14.464884220476181" lon="120.96107536714362"><ele>6.0</ele><time>2026-04-24T06:34:00.002Z</time></trkpt><trkpt lat="14.464762479835207" lon="120.96099227083045"><ele>6.0</ele><time>2026-04-24T06:34:01.002Z</time></trkpt><trkpt lat="14.464649355083765" lon="120.96090975499762"><ele>6.0</ele><time>2026-04-24T06:34:02.002Z</time></trkpt><trkpt lat="14.46453605908983" lon="120.96083133461357"><ele>6.0</ele><time>2026-04-24T06:34:03.002Z</time></trkpt><trkpt lat="14.464426697118922" lon="120.96075077267243"><ele>6.0</ele><time>2026-04-24T06:34:04.003Z</time></trkpt><trkpt lat="14.464322369028167" lon="120.9606713435327"><ele>6.0</ele><time>2026-04-24T06:34:05.003Z</time></trkpt><trkpt lat="14.464223552245135" lon="120.96059932585351"><ele>6.0</ele><time>2026-04-24T06:34:06Z</time></trkpt><trkpt lat="14.464126875490065" lon="120.96053135114781"><ele>6.0</ele><time>2026-04-24T06:34:07Z</time></trkpt><trkpt lat="14.464028453300175" lon="120.960458517089"><ele>6.0</ele><time>2026-04-24T06:34:08Z</time></trkpt><trkpt lat="14.463928203776897" lon="120.96038632935627"><ele>6.0</ele><time>2026-04-24T06:34:09Z</time></trkpt><trkpt lat="14.463829827205972" lon="120.9603124732176"><ele>6.0</ele><time>2026-04-24T06:34:10Z</time></trkpt><trkpt lat="14.463728093068324" lon="120.96023942720097"><ele>5.6</ele><time>2026-04-24T06:34:11Z</time></trkpt><trkpt lat="14.46363703576061" lon="120.96017342883628"><ele>5.199999999999999</ele><time>2026-04-24T06:34:12Z</time></trkpt><trkpt lat="14.463550703166277" lon="120.9601105276722"><ele>4.800000000000001</ele><time>2026-04-24T06:34:13Z</time></trkpt><trkpt lat="14.463473246011228" lon="120.9600500192104"><ele>4.4</ele><time>2026-04-24T06:34:14Z</time></trkpt><trkpt lat="14.463403220601577" lon="120.95998931428825"><ele>4.0</ele><time>2026-04-24T06:34:15Z</time></trkpt><trkpt lat="14.463335176771247" lon="120.95993745110111"><ele>3.9999999999999996</ele><time>2026-04-24T06:34:16Z</time></trkpt><trkpt lat="14.463261912501526" lon="120.95988749859912"><ele>4.0</ele><time>2026-04-24T06:34:17Z</time></trkpt><trkpt lat="14.463185875653327" lon="120.95983571901294"><ele>4.0</ele><time>2026-04-24T06:34:18Z</time></trkpt><trkpt lat="14.463110560264795" lon="120.95978212637345"><ele>4.0</ele><time>2026-04-24T06:34:19Z</time></trkpt><trkpt lat="14.46304005328008" lon="120.95974086080602"><ele>3.9999999999999996</ele><time>2026-04-24T06:34:20Z</time></trkpt><trkpt lat="14.462964614057464" lon="120.95970484425753"><ele>4.0</ele><time>2026-04-24T06:34:21Z</time></trkpt><trkpt lat="14.462891354386935" lon="120.95967488846509"><ele>4.166666666666666</ele><time>2026-04-24T06:34:22Z</time></trkpt><trkpt lat="14.462817059013622" lon="120.95964493275044"><ele>4.333333333333333</ele><time>2026-04-24T06:34:23Z</time></trkpt><trkpt lat="14.462741166697535" lon="120.95962212546696"><ele>4.5</ele><time>2026-04-24T06:34:24Z</time></trkpt><trkpt lat="14.462661398194866" lon="120.95959613671214"><ele>4.666666666666667</ele><time>2026-04-24T06:34:25Z</time></trkpt><trkpt lat="14.462580656670196" lon="120.95957486096493"><ele>4.833333333333334</ele><time>2026-04-24T06:34:26Z</time></trkpt><trkpt lat="14.462503164721587" lon="120.95955689906111"><ele>5.0</ele><time>2026-04-24T06:34:27Z</time></trkpt><trkpt lat="14.462438705663757" lon="120.95953470717969"><ele>5.0</ele><time>2026-04-24T06:34:28Z</time></trkpt><trkpt lat="14.462372648345163" lon="120.95951461703821"><ele>5.0</ele><time>2026-04-24T06:34:29Z</time></trkpt><trkpt lat="14.462308473299139" lon="120.95949230184213"><ele>5.0</ele><time>2026-04-24T06:34:30.001Z</time></trkpt><trkpt lat="14.462244423788107" lon="120.95946920206246"><ele>5.0</ele><time>2026-04-24T06:34:31.001Z</time></trkpt><trkpt lat="14.462184039578247" lon="120.9594334472606"><ele>5.0</ele><time>2026-04-24T06:34:32.001Z</time></trkpt><trkpt lat="14.462140665562004" lon="120.95938141197364"><ele>5.0</ele><time>2026-04-24T06:34:33.001Z</time></trkpt><trkpt lat="14.462097539174687" lon="120.95931850876609"><ele>5.0</ele><time>2026-04-24T06:34:34.001Z</time></trkpt><trkpt lat="14.46206294386613" lon="120.95924238492059"><ele>5.5</ele><time>2026-04-24T06:34:35.001Z</time></trkpt><trkpt lat="14.46204785687201" lon="120.95916289764912"><ele>6.0</ele><time>2026-04-24T06:34:36.001Z</time></trkpt><trkpt lat="14.462029845304158" lon="120.9590802745375"><ele>6.5</ele><time>2026-04-24T06:34:37.001Z</time></trkpt><trkpt lat="14.462007305117703" lon="120.95900312294944"><ele>7.0</ele><time>2026-04-24T06:34:38.001Z</time></trkpt><trkpt lat="14.461977050088546" lon="120.95890818661232"><ele>7.499999999999999</ele><time>2026-04-24T06:34:39.001Z</time></trkpt><trkpt lat="14.461951753791487" lon="120.95880894991332"><ele>8.0</ele><time>2026-04-24T06:34:40.001Z</time></trkpt><trkpt lat="14.461927334965504" lon="120.95870467212441"><ele>8.0</ele><time>2026-04-24T06:34:41.001Z</time></trkpt><trkpt lat="14.46189789408034" lon="120.95860060893929"><ele>8.0</ele><time>2026-04-24T06:34:42.001Z</time></trkpt><trkpt lat="14.461869660180648" lon="120.95850108636647"><ele>8.0</ele><time>2026-04-24T06:34:43.001Z</time></trkpt><trkpt lat="14.461843034103776" lon="120.95841637567987"><ele>8.0</ele><time>2026-04-24T06:34:44.001Z</time></trkpt><trkpt lat="14.46182122718191" lon="120.9583338098752"><ele>8.0</ele><time>2026-04-24T06:34:45.001Z</time></trkpt><trkpt lat="14.461795874313976" lon="120.95824085272986"><ele>7.75</ele><time>2026-04-24T06:34:46.001Z</time></trkpt><trkpt lat="14.461768701173053" lon="120.958133787994"><ele>7.5</ele><time>2026-04-24T06:34:47.001Z</time></trkpt><trkpt lat="14.461739792545103" lon="120.95801647870594"><ele>7.25</ele><time>2026-04-24T06:34:48.001Z</time></trkpt><trkpt lat="14.461710085875174" lon="120.95789152014986"><ele>7.0</ele><time>2026-04-24T06:34:49.001Z</time></trkpt><trkpt lat="14.461673428166074" lon="120.95776368033239"><ele>7.0</ele><time>2026-04-24T06:34:50.001Z</time></trkpt><trkpt lat="14.461638414604474" lon="120.95764073571728"><ele>7.0</ele><time>2026-04-24T06:34:51.001Z</time></trkpt><trkpt lat="14.461608333456294" lon="120.957516914412"><ele>7.0</ele><time>2026-04-24T06:34:52.001Z</time></trkpt><trkpt lat="14.461576929323481" lon="120.95739589924486"><ele>7.0</ele><time>2026-04-24T06:34:53.001Z</time></trkpt><trkpt lat="14.46154964159308" lon="120.95728762785004"><ele>6.75</ele><time>2026-04-24T06:34:54.001Z</time></trkpt><trkpt lat="14.461516224508179" lon="120.95717561790784"><ele>6.5</ele><time>2026-04-24T06:34:55.001Z</time></trkpt><trkpt lat="14.461483309318144" lon="120.95705077723609"><ele>6.25</ele><time>2026-04-24T06:34:56.001Z</time></trkpt><trkpt lat="14.461454646438884" lon="120.95693839344294"><ele>6.0</ele><time>2026-04-24T06:34:57.001Z</time></trkpt><trkpt lat="14.46142847044227" lon="120.95682664366981"><ele>6.0</ele><time>2026-04-24T06:34:58.001Z</time></trkpt><trkpt lat="14.461392782202543" lon="120.95670898021801"><ele>6.0</ele><time>2026-04-24T06:34:59.001Z</time></trkpt><trkpt lat="14.461355356134241" lon="120.95659617519247"><ele>6.0</ele><time>2026-04-24T06:35:00.001Z</time></trkpt><trkpt lat="14.461325390323301" lon="120.9564801315364"><ele>6.0</ele><time>2026-04-24T06:35:01.001Z</time></trkpt><trkpt lat="14.461293581702586" lon="120.95636361398888"><ele>6.0</ele><time>2026-04-24T06:35:02.001Z</time></trkpt><trkpt lat="14.461263233482917" lon="120.95624495489227"><ele>6.0</ele><time>2026-04-24T06:35:03.001Z</time></trkpt><trkpt lat="14.461231452097893" lon="120.95613855424898"><ele>6.0</ele><time>2026-04-24T06:35:04.001Z</time></trkpt><trkpt lat="14.461202106578611" lon="120.95603974019649"><ele>6.0</ele><time>2026-04-24T06:35:05.001Z</time></trkpt><trkpt lat="14.461174907692934" lon="120.95593910246534"><ele>6.0</ele><time>2026-04-24T06:35:06.001Z</time></trkpt><trkpt lat="14.461152417522174" lon="120.95584393407131"><ele>6.8</ele><time>2026-04-24T06:35:07.001Z</time></trkpt><trkpt lat="14.461123454813452" lon="120.95575661839045"><ele>7.6</ele><time>2026-04-24T06:35:08.001Z</time></trkpt><trkpt lat="14.461096790404111" lon="120.95566572438698"><ele>8.4</ele><time>2026-04-24T06:35:09.001Z</time></trkpt><trkpt lat="14.461069947389104" lon="120.95557500676239"><ele>9.2</ele><time>2026-04-24T06:35:10.001Z</time></trkpt><trkpt lat="14.461046094426909" lon="120.9554853951864"><ele>10.0</ele><time>2026-04-24T06:35:11.001Z</time></trkpt><trkpt lat="14.461020365549471" lon="120.95539150256265"><ele>10.0</ele><time>2026-04-24T06:35:12.001Z</time></trkpt><trkpt lat="14.46099598374902" lon="120.95530049308246"><ele>10.0</ele><time>2026-04-24T06:35:13.001Z</time></trkpt><trkpt lat="14.46097409286442" lon="120.95522491797378"><ele>10.0</ele><time>2026-04-24T06:35:14.001Z</time></trkpt><trkpt lat="14.46095282962107" lon="120.95513726463047"><ele>10.0</ele><time>2026-04-24T06:35:15.001Z</time></trkpt><trkpt lat="14.460938134949926" lon="120.95506638091139"><ele>10.0</ele><time>2026-04-24T06:35:16.001Z</time></trkpt><trkpt lat="14.460918932208848" lon="120.9550039866728"><ele>10.0</ele><time>2026-04-24T06:35:17.001Z</time></trkpt><trkpt lat="14.46089533703031" lon="120.95489214834062"><ele>9.666666666666668</ele><time>2026-04-24T06:35:19.001Z</time></trkpt><trkpt lat="14.46085357569261" lon="120.95476407939007"><ele>9.333333333333334</ele><time>2026-04-24T06:35:21.002Z</time></trkpt><trkpt lat="14.460832990537286" lon="120.954686196597"><ele>9.0</ele><time>2026-04-24T06:35:22.002Z</time></trkpt><trkpt lat="14.46081314693053" lon="120.9546102152551"><ele>8.666666666666666</ele><time>2026-04-24T06:35:23.002Z</time></trkpt><trkpt lat="14.46079908001596" lon="120.95453147234927"><ele>8.333333333333332</ele><time>2026-04-24T06:35:24.002Z</time></trkpt><trkpt lat="14.460780160730533" lon="120.9544577992912"><ele>8.0</ele><time>2026-04-24T06:35:25.002Z</time></trkpt><trkpt lat="14.460747983362872" lon="120.9543283910917"><ele>8.0</ele><time>2026-04-24T06:35:27.002Z</time></trkpt><trkpt lat="14.460727943620846" lon="120.95425829628678"><ele>7.999999999999999</ele><time>2026-04-24T06:35:28.002Z</time></trkpt><trkpt lat="14.460708663953115" lon="120.954185816693"><ele>8.0</ele><time>2026-04-24T06:35:29.002Z</time></trkpt><trkpt lat="14.460689155231426" lon="120.9541164340791"><ele>8.0</ele><time>2026-04-24T06:35:30.002Z</time></trkpt><trkpt lat="14.460670360801563" lon="120.95405123472158"><ele>7.999999999999999</ele><time>2026-04-24T06:35:31.002Z</time></trkpt><trkpt lat="14.46065351699888" lon="120.95398645253944"><ele>8.0</ele><time>2026-04-24T06:35:32.002Z</time></trkpt><trkpt lat="14.460636080134256" lon="120.95391623452352"><ele>8.0</ele><time>2026-04-24T06:35:33.002Z</time></trkpt><trkpt lat="14.46059936002648" lon="120.95380231495263"><ele>7.999999999999999</ele><time>2026-04-24T06:35:35.002Z</time></trkpt><trkpt lat="14.46056855020953" lon="120.9537074481292"><ele>8.0</ele><time>2026-04-24T06:35:37.002Z</time></trkpt><trkpt lat="14.460533922732543" lon="120.95359550599238"><ele>8.0</ele><time>2026-04-24T06:35:39.002Z</time></trkpt><trkpt lat="14.46052049255564" lon="120.95352956731891"><ele>8.0</ele><time>2026-04-24T06:35:40.002Z</time></trkpt><trkpt lat="14.460505175548066" lon="120.95345726576035"><ele>7.999999999999999</ele><time>2026-04-24T06:35:41.002Z</time></trkpt><trkpt lat="14.46048222324499" lon="120.9533599073928"><ele>8.0</ele><time>2026-04-24T06:35:43.002Z</time></trkpt><trkpt lat="14.460464279108047" lon="120.95328408007455"><ele>8.0</ele><time>2026-04-24T06:35:45.002Z</time></trkpt><trkpt lat="14.460434270143939" lon="120.95316725618919"><ele>8.0</ele><time>2026-04-24T06:35:47.002Z</time></trkpt><trkpt lat="14.460411779455544" lon="120.95310031778948"><ele>8.0</ele><time>2026-04-24T06:35:48.002Z</time></trkpt><trkpt lat="14.46039499091317" lon="120.95301355427553"><ele>8.0</ele><time>2026-04-24T06:35:49.002Z</time></trkpt><trkpt lat="14.460379270092597" lon="120.95291464980022"><ele>8.0</ele><time>2026-04-24T06:35:50.002Z</time></trkpt><trkpt lat="14.460366928383115" lon="120.952810762734"><ele>8.0</ele><time>2026-04-24T06:35:51.002Z</time></trkpt><trkpt lat="14.460353449765899" lon="120.95269075174126"><ele>8.0</ele><time>2026-04-24T06:35:52.002Z</time></trkpt><trkpt lat="14.460339139342237" lon="120.95257834796186"><ele>8.0</ele><time>2026-04-24T06:35:53.002Z</time></trkpt><trkpt lat="14.460329013166836" lon="120.9524754296054"><ele>8.0</ele><time>2026-04-24T06:35:54.002Z</time></trkpt><trkpt lat="14.46032209989752" lon="120.9523767766445"><ele>8.0</ele><time>2026-04-24T06:35:55.002Z</time></trkpt><trkpt lat="14.460315151930166" lon="120.95229345151479"><ele>7.833333333333333</ele><time>2026-04-24T06:35:56.002Z</time></trkpt><trkpt lat="14.460308259811873" lon="120.95222668346314"><ele>7.666666666666666</ele><time>2026-04-24T06:35:57.002Z</time></trkpt><trkpt lat="14.460301338694242" lon="120.95209577283394"><ele>7.5</ele><time>2026-04-24T06:35:59.002Z</time></trkpt><trkpt lat="14.460294367809139" lon="120.9520278202084"><ele>7.333333333333334</ele><time>2026-04-24T06:36:00.002Z</time></trkpt><trkpt lat="14.460287357061203" lon="120.95195299332393"><ele>7.166666666666667</ele><time>2026-04-24T06:36:01.002Z</time></trkpt><trkpt lat="14.460276603393929" lon="120.9518743774445"><ele>7.0</ele><time>2026-04-24T06:36:02.002Z</time></trkpt><trkpt lat="14.460269984766132" lon="120.95179610307417"><ele>7.0</ele><time>2026-04-24T06:36:03.002Z</time></trkpt><trkpt lat="14.460256355330896" lon="120.95171498009178"><ele>6.999999999999999</ele><time>2026-04-24T06:36:04.002Z</time></trkpt><trkpt lat="14.460242637890705" lon="120.95162555099712"><ele>6.999999999999999</ele><time>2026-04-24T06:36:05.002Z</time></trkpt><trkpt lat="14.460226854209965" lon="120.95152911177736"><ele>7.0</ele><time>2026-04-24T06:36:06.002Z</time></trkpt><trkpt lat="14.460213462121278" lon="120.95141689892928"><ele>7.0</ele><time>2026-04-24T06:36:07.002Z</time></trkpt><trkpt lat="14.460197886654345" lon="120.95128957065178"><ele>7.25</ele><time>2026-04-24T06:36:08.002Z</time></trkpt><trkpt lat="14.46018480736327" lon="120.95115609579861"><ele>7.5</ele><time>2026-04-24T06:36:09.002Z</time></trkpt><trkpt lat="14.460177996551435" lon="120.9510185657195"><ele>7.75</ele><time>2026-04-24T06:36:10.002Z</time></trkpt><trkpt lat="14.460168711310907" lon="120.95088453690147"><ele>8.0</ele><time>2026-04-24T06:36:11.002Z</time></trkpt><trkpt lat="14.460157677909354" lon="120.9507540035644"><ele>8.25</ele><time>2026-04-24T06:36:12Z</time></trkpt><trkpt lat="14.460140368236782" lon="120.95061590840385"><ele>8.5</ele><time>2026-04-24T06:36:13Z</time></trkpt><trkpt lat="14.460127634422141" lon="120.95047243638092"><ele>8.75</ele><time>2026-04-24T06:36:14Z</time></trkpt><trkpt lat="14.46011251880634" lon="120.95034432424126"><ele>9.0</ele><time>2026-04-24T06:36:15Z</time></trkpt><trkpt lat="14.4600958106" lon="120.95022561586221"><ele>9.0</ele><time>2026-04-24T06:36:16Z</time></trkpt><trkpt lat="14.460084353709746" lon="120.95011034435151"><ele>9.0</ele><time>2026-04-24T06:36:17Z</time></trkpt><trkpt lat="14.46007759521628" lon="120.95001204036417"><ele>9.0</ele><time>2026-04-24T06:36:18Z</time></trkpt><trkpt lat="14.460067022680105" lon="120.9499276452952"><ele>9.0</ele><time>2026-04-24T06:36:19Z</time></trkpt><trkpt lat="14.460060666000699" lon="120.94983938417934"><ele>9.0</ele><time>2026-04-24T06:36:20Z</time></trkpt><trkpt lat="14.46004866860166" lon="120.94975102514282"><ele>8.6</ele><time>2026-04-24T06:36:21Z</time></trkpt><trkpt lat="14.460039465885584" lon="120.94965755508277"><ele>8.2</ele><time>2026-04-24T06:36:22Z</time></trkpt><trkpt lat="14.460031256726463" lon="120.94956131022418"><ele>7.799999999999999</ele><time>2026-04-24T06:36:23Z</time></trkpt><trkpt lat="14.460022345763916" lon="120.94945548689623"><ele>7.3999999999999995</ele><time>2026-04-24T06:36:24Z</time></trkpt><trkpt lat="14.46001085289551" lon="120.94934858770867"><ele>7.0</ele><time>2026-04-24T06:36:25Z</time></trkpt><trkpt lat="14.4600000217948" lon="120.94923394000831"><ele>7.0</ele><time>2026-04-24T06:36:26Z</time></trkpt><trkpt lat="14.459987184539765" lon="120.94911816401101"><ele>7.0</ele><time>2026-04-24T06:36:27Z</time></trkpt><trkpt lat="14.459974102325354" lon="120.94899871596638"><ele>7.0</ele><time>2026-04-24T06:36:28Z</time></trkpt><trkpt lat="14.45996352310836" lon="120.94888254009588"><ele>7.0</ele><time>2026-04-24T06:36:29Z</time></trkpt><trkpt lat="14.459952024057053" lon="120.94876173492324"><ele>7.0</ele><time>2026-04-24T06:36:30Z</time></trkpt><trkpt lat="14.459939132695093" lon="120.94864597921075"><ele>7.0</ele><time>2026-04-24T06:36:31Z</time></trkpt><trkpt lat="14.459925837669019" lon="120.9485291634591"><ele>7.0</ele><time>2026-04-24T06:36:32Z</time></trkpt><trkpt lat="14.45991340028553" lon="120.9484127250001"><ele>7.0</ele><time>2026-04-24T06:36:33Z</time></trkpt><trkpt lat="14.45990458423198" lon="120.94829000616846"><ele>7.0</ele><time>2026-04-24T06:36:34.001Z</time></trkpt><trkpt lat="14.45989218539723" lon="120.9481660755828"><ele>7.0</ele><time>2026-04-24T06:36:35.001Z</time></trkpt><trkpt lat="14.459877484462574" lon="120.94803705284673"><ele>7.0</ele><time>2026-04-24T06:36:36.001Z</time></trkpt><trkpt lat="14.459862098660782" lon="120.9479045167264"><ele>7.0</ele><time>2026-04-24T06:36:37.001Z</time></trkpt><trkpt lat="14.459849139197722" lon="120.94777197141974"><ele>7.0</ele><time>2026-04-24T06:36:38.001Z</time></trkpt><trkpt lat="14.459838792057765" lon="120.94763395273702"><ele>7.0</ele><time>2026-04-24T06:36:39.001Z</time></trkpt><trkpt lat="14.459823675536212" lon="120.9474970901841"><ele>7.0</ele><time>2026-04-24T06:36:40.001Z</time></trkpt><trkpt lat="14.459814179345893" lon="120.9473632571302"><ele>7.0</ele><time>2026-04-24T06:36:41.001Z</time></trkpt><trkpt lat="14.45980658555738" lon="120.94724121054928"><ele>7.199999999999999</ele><time>2026-04-24T06:36:42.001Z</time></trkpt><trkpt lat="14.45979786529849" lon="120.94713628059279"><ele>7.3999999999999995</ele><time>2026-04-24T06:36:43.001Z</time></trkpt><trkpt lat="14.459791587537373" lon="120.94703219484201"><ele>7.6000000000000005</ele><time>2026-04-24T06:36:44.001Z</time></trkpt><trkpt lat="14.459784333224878" lon="120.94693197474827"><ele>7.800000000000001</ele><time>2026-04-24T06:36:45.001Z</time></trkpt><trkpt lat="14.459776830085495" lon="120.94683633138881"><ele>8.0</ele><time>2026-04-24T06:36:46.001Z</time></trkpt><trkpt lat="14.45976900850284" lon="120.94674012232794"><ele>8.0</ele><time>2026-04-24T06:36:47.001Z</time></trkpt><trkpt lat="14.459762277950103" lon="120.94663657512415"><ele>8.0</ele><time>2026-04-24T06:36:48.001Z</time></trkpt><trkpt lat="14.459759721883218" lon="120.94653689385619"><ele>8.0</ele><time>2026-04-24T06:36:49.001Z</time></trkpt><trkpt lat="14.459757219158249" lon="120.94643750486526"><ele>8.0</ele><time>2026-04-24T06:36:50.001Z</time></trkpt><trkpt lat="14.459755304436408" lon="120.94633855439531"><ele>8.0</ele><time>2026-04-24T06:36:51.001Z</time></trkpt><trkpt lat="14.459751621706461" lon="120.94624132964852"><ele>7.999999999999999</ele><time>2026-04-24T06:36:52.001Z</time></trkpt><trkpt lat="14.45974834291302" lon="120.94615178007409"><ele>8.0</ele><time>2026-04-24T06:36:53.001Z</time></trkpt><trkpt lat="14.459744981046633" lon="120.94605524267159"><ele>8.0</ele><time>2026-04-24T06:36:54.001Z</time></trkpt><trkpt lat="14.459743086261172" lon="120.9459653631996"><ele>8.0</ele><time>2026-04-24T06:36:55.001Z</time></trkpt><trkpt lat="14.45974002909351" lon="120.9458768808798"><ele>7.999999999999999</ele><time>2026-04-24T06:36:56.001Z</time></trkpt><trkpt lat="14.459735073991574" lon="120.94578599822938"><ele>8.0</ele><time>2026-04-24T06:36:57.001Z</time></trkpt><trkpt lat="14.459737279867268" lon="120.94568625934225"><ele>7.800000000000001</ele><time>2026-04-24T06:36:58.001Z</time></trkpt><trkpt lat="14.459734371397948" lon="120.94558925338903"><ele>7.6000000000000005</ele><time>2026-04-24T06:36:59.001Z</time></trkpt><trkpt lat="14.459732779433239" lon="120.94548317063608"><ele>7.3999999999999995</ele><time>2026-04-24T06:37:00.001Z</time></trkpt><trkpt lat="14.45972927402318" lon="120.94538376023047"><ele>7.199999999999999</ele><time>2026-04-24T06:37:01.001Z</time></trkpt><trkpt lat="14.45972764573811" lon="120.94529107570541"><ele>7.0</ele><time>2026-04-24T06:37:02.001Z</time></trkpt><trkpt lat="14.459725074067846" lon="120.94518743057358"><ele>7.000000000000001</ele><time>2026-04-24T06:37:03.001Z</time></trkpt><trkpt lat="14.459723122197547" lon="120.94508622097653"><ele>7.0</ele><time>2026-04-24T06:37:04.001Z</time></trkpt><trkpt lat="14.45971919984668" lon="120.9449844515235"><ele>7.0</ele><time>2026-04-24T06:37:05.001Z</time></trkpt><trkpt lat="14.45971715229898" lon="120.94488961097329"><ele>7.0</ele><time>2026-04-24T06:37:06.001Z</time></trkpt><trkpt lat="14.459716547573887" lon="120.94481511021242"><ele>7.000000000000001</ele><time>2026-04-24T06:37:07.001Z</time></trkpt><trkpt lat="14.459708730397583" lon="120.94474175052964"><ele>7.0</ele><time>2026-04-24T06:37:08.001Z</time></trkpt><trkpt lat="14.459708005956216" lon="120.94467521822546"><ele>6.833333333333334</ele><time>2026-04-24T06:37:09.001Z</time></trkpt><trkpt lat="14.45970137477126" lon="120.94460219789659"><ele>6.666666666666667</ele><time>2026-04-24T06:37:10.001Z</time></trkpt><trkpt lat="14.459694219350519" lon="120.94452285497545"><ele>6.5</ele><time>2026-04-24T06:37:11.001Z</time></trkpt><trkpt lat="14.459683481308936" lon="120.94444442264457"><ele>6.333333333333334</ele><time>2026-04-24T06:37:12.001Z</time></trkpt><trkpt lat="14.459679393046212" lon="120.94435673751359"><ele>6.166666666666667</ele><time>2026-04-24T06:37:13.001Z</time></trkpt><trkpt lat="14.459674458351538" lon="120.94428285228804"><ele>6.0</ele><time>2026-04-24T06:37:14.001Z</time></trkpt><trkpt lat="14.459672637300274" lon="120.94419475802007"><ele>6.333333333333333</ele><time>2026-04-24T06:37:15.001Z</time></trkpt><trkpt lat="14.459665029092434" lon="120.94411806607162"><ele>6.666666666666666</ele><time>2026-04-24T06:37:16.001Z</time></trkpt><trkpt lat="14.459658442127347" lon="120.94402656893948"><ele>7.0</ele><time>2026-04-24T06:37:17.001Z</time></trkpt><trkpt lat="14.459653997405816" lon="120.9439371008243"><ele>7.333333333333333</ele><time>2026-04-24T06:37:18.001Z</time></trkpt><trkpt lat="14.459648661250405" lon="120.94384575925343"><ele>7.666666666666666</ele><time>2026-04-24T06:37:19.001Z</time></trkpt><trkpt lat="14.459641345678289" lon="120.943766889964"><ele>8.0</ele><time>2026-04-24T06:37:20.001Z</time></trkpt><trkpt lat="14.459634767591902" lon="120.94369563436274"><ele>7.999999999999999</ele><time>2026-04-24T06:37:21.001Z</time></trkpt><trkpt lat="14.459633231617842" lon="120.94362713251117"><ele>8.0</ele><time>2026-04-24T06:37:22.001Z</time></trkpt><trkpt lat="14.459622962507979" lon="120.94349360880318"><ele>8.0</ele><time>2026-04-24T06:37:24.002Z</time></trkpt><trkpt lat="14.459613284399389" lon="120.94341985358268"><ele>8.0</ele><time>2026-04-24T06:37:25.002Z</time></trkpt><trkpt lat="14.45960355719491" lon="120.9433524930848"><ele>7.999999999999999</ele><time>2026-04-24T06:37:26.002Z</time></trkpt><trkpt lat="14.459603708960385" lon="120.94328642488819"><ele>8.0</ele><time>2026-04-24T06:37:27.002Z</time></trkpt><trkpt lat="14.459587856691524" lon="120.94317919243501"><ele>8.0</ele><time>2026-04-24T06:37:29.002Z</time></trkpt><trkpt lat="14.459578281850014" lon="120.94305542022578"><ele>8.0</ele><time>2026-04-24T06:37:31.002Z</time></trkpt><trkpt lat="14.459572097336462" lon="120.94297660935636"><ele>8.0</ele><time>2026-04-24T06:37:32.002Z</time></trkpt><trkpt lat="14.459558117889634" lon="120.94288698091695"><ele>8.0</ele><time>2026-04-24T06:37:33.002Z</time></trkpt><trkpt lat="14.459551110725085" lon="120.94279648222401"><ele>8.0</ele><time>2026-04-24T06:37:34.002Z</time></trkpt><trkpt lat="14.459543365682007" lon="120.94270921632577"><ele>7.999999999999999</ele><time>2026-04-24T06:37:35.002Z</time></trkpt><trkpt lat="14.459534707315964" lon="120.94262003646828"><ele>8.0</ele><time>2026-04-24T06:37:36.002Z</time></trkpt><trkpt lat="14.459525467561779" lon="120.94253543730319"><ele>8.0</ele><time>2026-04-24T06:37:37.002Z</time></trkpt><trkpt lat="14.459519291052594" lon="120.94245586941979"><ele>8.0</ele><time>2026-04-24T06:37:38.002Z</time></trkpt><trkpt lat="14.459512651747438" lon="120.94238305483306"><ele>7.999999999999999</ele><time>2026-04-24T06:37:39.002Z</time></trkpt><trkpt lat="14.459504591836803" lon="120.94230559834942"><ele>8.0</ele><time>2026-04-24T06:37:40.002Z</time></trkpt><trkpt lat="14.459501510478152" lon="120.94222148223999"><ele>8.0</ele><time>2026-04-24T06:37:41.002Z</time></trkpt><trkpt lat="14.459491446676003" lon="120.94213855848692"><ele>8.0</ele><time>2026-04-24T06:37:42.002Z</time></trkpt><trkpt lat="14.459479240026804" lon="120.94204386574418"><ele>8.0</ele><time>2026-04-24T06:37:43.002Z</time></trkpt><trkpt lat="14.459470142823582" lon="120.94194055674515"><ele>8.0</ele><time>2026-04-24T06:37:44.002Z</time></trkpt><trkpt lat="14.4594599562516" lon="120.94183871563622"><ele>8.0</ele><time>2026-04-24T06:37:45.002Z</time></trkpt><trkpt lat="14.459454913800679" lon="120.94174842720103"><ele>7.666666666666666</ele><time>2026-04-24T06:37:46.002Z</time></trkpt><trkpt lat="14.459445558414" lon="120.94166495098368"><ele>7.333333333333333</ele><time>2026-04-24T06:37:47.002Z</time></trkpt><trkpt lat="14.459437194534207" lon="120.94158172295413"><ele>7.0</ele><time>2026-04-24T06:37:48.002Z</time></trkpt><trkpt lat="14.459430091971262" lon="120.9415016418293"><ele>6.666666666666666</ele><time>2026-04-24T06:37:49.002Z</time></trkpt><trkpt lat="14.459425748292956" lon="120.94141440755438"><ele>6.333333333333333</ele><time>2026-04-24T06:37:50.002Z</time></trkpt><trkpt lat="14.459421006563423" lon="120.94134125828003"><ele>6.0</ele><time>2026-04-24T06:37:51.002Z</time></trkpt><trkpt lat="14.459411889335817" lon="120.94126621179299"><ele>6.0</ele><time>2026-04-24T06:37:52.002Z</time></trkpt><trkpt lat="14.45940356164463" lon="120.94118745417728"><ele>6.0</ele><time>2026-04-24T06:37:53.002Z</time></trkpt><trkpt lat="14.459393295813825" lon="120.94109835313452"><ele>6.0</ele><time>2026-04-24T06:37:54.002Z</time></trkpt><trkpt lat="14.459391010815022" lon="120.94102584210766"><ele>6.0</ele><time>2026-04-24T06:37:55.002Z</time></trkpt><trkpt lat="14.459378587667517" lon="120.94089067524544"><ele>6.0</ele><time>2026-04-24T06:37:57.002Z</time></trkpt><trkpt lat="14.459370114853076" lon="120.94078021442411"><ele>6.333333333333333</ele><time>2026-04-24T06:37:59.002Z</time></trkpt><trkpt lat="14.459363948326358" lon="120.94071190231969"><ele>6.666666666666666</ele><time>2026-04-24T06:38:00.002Z</time></trkpt><trkpt lat="14.459360314805325" lon="120.94064392269253"><ele>7.0</ele><time>2026-04-24T06:38:01.002Z</time></trkpt><trkpt lat="14.459353814504183" lon="120.94057143259407"><ele>7.333333333333333</ele><time>2026-04-24T06:38:02.002Z</time></trkpt><trkpt lat="14.459345780271502" lon="120.94050057253013"><ele>7.666666666666666</ele><time>2026-04-24T06:38:03.002Z</time></trkpt><trkpt lat="14.459337748739093" lon="120.94043067976574"><ele>8.0</ele><time>2026-04-24T06:38:04.002Z</time></trkpt><trkpt lat="14.459327431687099" lon="120.94031803040386"><ele>7.999999999999999</ele><time>2026-04-24T06:38:06.002Z</time></trkpt><trkpt lat="14.459327675035123" lon="120.94024770953264"><ele>8.0</ele><time>2026-04-24T06:38:08.002Z</time></trkpt><trkpt lat="14.459308659620989" lon="120.9401833072856"><ele>8.0</ele><time>2026-04-24T06:38:10.002Z</time></trkpt><trkpt lat="14.459288910137392" lon="120.94007700611141"><ele>8.0</ele><time>2026-04-24T06:38:12.002Z</time></trkpt><trkpt lat="14.459280668029317" lon="120.93999698393031"><ele>7.999999999999999</ele><time>2026-04-24T06:38:13.002Z</time></trkpt><trkpt lat="14.459270550315736" lon="120.93989178683941"><ele>8.0</ele><time>2026-04-24T06:38:14.002Z</time></trkpt><trkpt lat="14.459256455351726" lon="120.93978510424311"><ele>7.999999999999999</ele><time>2026-04-24T06:38:15.003Z</time></trkpt><trkpt lat="14.459242416882066" lon="120.9396871063053"><ele>8.0</ele><time>2026-04-24T06:38:16.003Z</time></trkpt><trkpt lat="14.459225318310217" lon="120.9396048227427"><ele>8.0</ele><time>2026-04-24T06:38:17.003Z</time></trkpt><trkpt lat="14.45921233682427" lon="120.93952743213208"><ele>8.0</ele><time>2026-04-24T06:38:18Z</time></trkpt><trkpt lat="14.459194902196348" lon="120.93945175176628"><ele>7.999999999999999</ele><time>2026-04-24T06:38:19Z</time></trkpt><trkpt lat="14.459177202496623" lon="120.93938074211069"><ele>8.0</ele><time>2026-04-24T06:38:20Z</time></trkpt><trkpt lat="14.459155761655113" lon="120.93930047731949"><ele>7.999999999999999</ele><time>2026-04-24T06:38:21Z</time></trkpt><trkpt lat="14.459137956876843" lon="120.93922085725555"><ele>8.0</ele><time>2026-04-24T06:38:22Z</time></trkpt><trkpt lat="14.459116573828018" lon="120.93914384036178"><ele>8.0</ele><time>2026-04-24T06:38:23Z</time></trkpt><trkpt lat="14.459094381221925" lon="120.93905562647745"><ele>8.0</ele><time>2026-04-24T06:38:24Z</time></trkpt><trkpt lat="14.459075931496058" lon="120.9389772343602"><ele>7.999999999999999</ele><time>2026-04-24T06:38:25Z</time></trkpt><trkpt lat="14.459058390435212" lon="120.9389114609854"><ele>8.0</ele><time>2026-04-24T06:38:26Z</time></trkpt><trkpt lat="14.459029701366129" lon="120.93880308374426"><ele>8.0</ele><time>2026-04-24T06:38:28Z</time></trkpt><trkpt lat="14.45901128218168" lon="120.93871740508621"><ele>8.0</ele><time>2026-04-24T06:38:30Z</time></trkpt><trkpt lat="14.459003277458002" lon="120.93862914757948"><ele>8.0</ele><time>2026-04-24T06:38:32Z</time></trkpt><trkpt lat="14.459000133915344" lon="120.9385364907924"><ele>8.0</ele><time>2026-04-24T06:38:34Z</time></trkpt><trkpt lat="14.458977115737015" lon="120.9384075407403"><ele>8.0</ele><time>2026-04-24T06:38:36.001Z</time></trkpt><trkpt lat="14.45894513852797" lon="120.93832285870411"><ele>7.4</ele><time>2026-04-24T06:38:37.001Z</time></trkpt><trkpt lat="14.458916853105773" lon="120.93822924639"><ele>6.800000000000001</ele><time>2026-04-24T06:38:38.001Z</time></trkpt><trkpt lat="14.458886587113147" lon="120.93812442978647"><ele>6.2</ele><time>2026-04-24T06:38:39.001Z</time></trkpt><trkpt lat="14.458854113757901" lon="120.93800871413087"><ele>5.6</ele><time>2026-04-24T06:38:40.001Z</time></trkpt><trkpt lat="14.45882636539142" lon="120.93788686414665"><ele>5.0</ele><time>2026-04-24T06:38:41.001Z</time></trkpt><trkpt lat="14.458797422446837" lon="120.93775436738716"><ele>5.25</ele><time>2026-04-24T06:38:42.001Z</time></trkpt><trkpt lat="14.4587662170692" lon="120.93762254649194"><ele>5.5</ele><time>2026-04-24T06:38:43.001Z</time></trkpt><trkpt lat="14.4587345582673" lon="120.93748378569566"><ele>5.75</ele><time>2026-04-24T06:38:44.001Z</time></trkpt><trkpt lat="14.458699971668016" lon="120.93734220972183"><ele>6.0</ele><time>2026-04-24T06:38:45.001Z</time></trkpt><trkpt lat="14.458669350352714" lon="120.93720458874634"><ele>6.25</ele><time>2026-04-24T06:38:46.001Z</time></trkpt><trkpt lat="14.458633512463415" lon="120.9370656571851"><ele>6.5</ele><time>2026-04-24T06:38:47.001Z</time></trkpt><trkpt lat="14.45859805861527" lon="120.9369272065619"><ele>6.75</ele><time>2026-04-24T06:38:48.001Z</time></trkpt><trkpt lat="14.458563032313904" lon="120.93678346536755"><ele>7.0</ele><time>2026-04-24T06:38:49.001Z</time></trkpt><trkpt lat="14.458529892322826" lon="120.93663903523746"><ele>6.5</ele><time>2026-04-24T06:38:50.001Z</time></trkpt><trkpt lat="14.458497276388568" lon="120.93649962351626"><ele>6.0</ele><time>2026-04-24T06:38:51.001Z</time></trkpt><trkpt lat="14.458466879589828" lon="120.93636052900794"><ele>5.5</ele><time>2026-04-24T06:38:52.001Z</time></trkpt><trkpt lat="14.458438324083334" lon="120.93623014325634"><ele>5.0</ele><time>2026-04-24T06:38:53.001Z</time></trkpt><trkpt lat="14.458415220000223" lon="120.93611873212532"><ele>5.0</ele><time>2026-04-24T06:38:54.001Z</time></trkpt><trkpt lat="14.458387378174873" lon="120.93600500017739"><ele>5.0</ele><time>2026-04-24T06:38:55.001Z</time></trkpt><trkpt lat="14.458364521728802" lon="120.93590194166882"><ele>5.0</ele><time>2026-04-24T06:38:56.001Z</time></trkpt><trkpt lat="14.45833841044299" lon="120.9357991211493"><ele>5.0</ele><time>2026-04-24T06:38:57.001Z</time></trkpt><trkpt lat="14.458308593421416" lon="120.93568853458255"><ele>5.0</ele><time>2026-04-24T06:38:58.001Z</time></trkpt><trkpt lat="14.45827683211395" lon="120.93556339325833"><ele>4.75</ele><time>2026-04-24T06:38:59.001Z</time></trkpt><trkpt lat="14.458248373079691" lon="120.93543070648272"><ele>4.5</ele><time>2026-04-24T06:39:00.001Z</time></trkpt><trkpt lat="14.458221365657325" lon="120.93529379266124"><ele>4.25</ele><time>2026-04-24T06:39:01.001Z</time></trkpt><trkpt lat="14.458190565116265" lon="120.9351537947905"><ele>4.0</ele><time>2026-04-24T06:39:02.001Z</time></trkpt><trkpt lat="14.45815748171286" lon="120.93500670156271"><ele>4.666666666666666</ele><time>2026-04-24T06:39:03.001Z</time></trkpt><trkpt lat="14.458124054092371" lon="120.93485582241783"><ele>5.333333333333333</ele><time>2026-04-24T06:39:04.001Z</time></trkpt><trkpt lat="14.458093263213168" lon="120.93470666584452"><ele>6.0</ele><time>2026-04-24T06:39:05.001Z</time></trkpt><trkpt lat="14.458063241494324" lon="120.9345523079"><ele>6.0</ele><time>2026-04-24T06:39:06.001Z</time></trkpt><trkpt lat="14.45803539796447" lon="120.93438969021366"><ele>6.0</ele><time>2026-04-24T06:39:07.001Z</time></trkpt><trkpt lat="14.458013702801106" lon="120.93423033119494"><ele>6.0</ele><time>2026-04-24T06:39:08.001Z</time></trkpt><trkpt lat="14.457995272843489" lon="120.93405823330468"><ele>6.0</ele><time>2026-04-24T06:39:09.001Z</time></trkpt><trkpt lat="14.457971885753448" lon="120.9339002630834"><ele>6.0</ele><time>2026-04-24T06:39:10.001Z</time></trkpt><trkpt lat="14.45795201041549" lon="120.93373455774267"><ele>6.0</ele><time>2026-04-24T06:39:11.001Z</time></trkpt><trkpt lat="14.457937048114301" lon="120.93357595347301"><ele>6.0</ele><time>2026-04-24T06:39:12.001Z</time></trkpt><trkpt lat="14.457919181785792" lon="120.93343186219737"><ele>6.0</ele><time>2026-04-24T06:39:13.001Z</time></trkpt><trkpt lat="14.457899326599742" lon="120.93329145467914"><ele>6.0</ele><time>2026-04-24T06:39:14.001Z</time></trkpt><trkpt lat="14.45788730613607" lon="120.93315624628049"><ele>6.0</ele><time>2026-04-24T06:39:15.001Z</time></trkpt><trkpt lat="14.457872584769296" lon="120.93303165662306"><ele>6.0</ele><time>2026-04-24T06:39:16.001Z</time></trkpt><trkpt lat="14.457860265926632" lon="120.93290565193928"><ele>6.0</ele><time>2026-04-24T06:39:17.001Z</time></trkpt><trkpt lat="14.457844273159884" lon="120.93278230411076"><ele>6.0</ele><time>2026-04-24T06:39:18.001Z</time></trkpt><trkpt lat="14.45782713654854" lon="120.93267622329662"><ele>6.0</ele><time>2026-04-24T06:39:19.001Z</time></trkpt><trkpt lat="14.45780539422914" lon="120.93257119164701"><ele>6.0</ele><time>2026-04-24T06:39:20.001Z</time></trkpt><trkpt lat="14.457781332977412" lon="120.93246197984445"><ele>6.0</ele><time>2026-04-24T06:39:21.001Z</time></trkpt><trkpt lat="14.457749719132986" lon="120.93234585165959"><ele>6.0</ele><time>2026-04-24T06:39:22.001Z</time></trkpt><trkpt lat="14.457712041042612" lon="120.9322291027914"><ele>6.0</ele><time>2026-04-24T06:39:23.001Z</time></trkpt><trkpt lat="14.457671461568419" lon="120.93211118523085"><ele>6.0</ele><time>2026-04-24T06:39:24.001Z</time></trkpt><trkpt lat="14.457630167290922" lon="120.93199678203696"><ele>6.0</ele><time>2026-04-24T06:39:25.001Z</time></trkpt><trkpt lat="14.457586259127122" lon="120.93187799632446"><ele>6.0</ele><time>2026-04-24T06:39:26.002Z</time></trkpt><trkpt lat="14.457547561766392" lon="120.93175455896592"><ele>6.0</ele><time>2026-04-24T06:39:27.002Z</time></trkpt><trkpt lat="14.457507501406303" lon="120.9316360635975"><ele>6.199999999999999</ele><time>2026-04-24T06:39:28.002Z</time></trkpt><trkpt lat="14.457468131718816" lon="120.93153550332806"><ele>6.3999999999999995</ele><time>2026-04-24T06:39:29.002Z</time></trkpt><trkpt lat="14.457432399108141" lon="120.93144206918804"><ele>6.6</ele><time>2026-04-24T06:39:30.002Z</time></trkpt><trkpt lat="14.457407910207587" lon="120.93135288236657"><ele>6.8</ele><time>2026-04-24T06:39:31.002Z</time></trkpt><trkpt lat="14.457379251738844" lon="120.93126992118997"><ele>7.0</ele><time>2026-04-24T06:39:32.002Z</time></trkpt><trkpt lat="14.457345794334781" lon="120.93117592758831"><ele>7.000000000000001</ele><time>2026-04-24T06:39:33.002Z</time></trkpt><trkpt lat="14.457309262333043" lon="120.93108253765591"><ele>7.0</ele><time>2026-04-24T06:39:34.002Z</time></trkpt><trkpt lat="14.457277678054842" lon="120.9309947713519"><ele>7.0</ele><time>2026-04-24T06:39:35.002Z</time></trkpt><trkpt lat="14.457248487286565" lon="120.9309174599523"><ele>7.0</ele><time>2026-04-24T06:39:36.002Z</time></trkpt><trkpt lat="14.45722079375429" lon="120.93083365523054"><ele>7.000000000000001</ele><time>2026-04-24T06:39:37.002Z</time></trkpt><trkpt lat="14.457193610987215" lon="120.930767670881"><ele>7.0</ele><time>2026-04-24T06:39:38.002Z</time></trkpt><trkpt lat="14.457172510935672" lon="120.93070480703376"><ele>7.000000000000001</ele><time>2026-04-24T06:39:39.002Z</time></trkpt><trkpt lat="14.457124335603275" lon="120.93060029150699"><ele>7.0</ele><time>2026-04-24T06:39:41.002Z</time></trkpt><trkpt lat="14.457086967747403" lon="120.93054367894386"><ele>7.0</ele><time>2026-04-24T06:39:42.002Z</time></trkpt><trkpt lat="14.457041175760713" lon="120.93049133868291"><ele>7.0</ele><time>2026-04-24T06:39:43.002Z</time></trkpt><trkpt lat="14.456986985446973" lon="120.9304402569682"><ele>7.000000000000001</ele><time>2026-04-24T06:39:44.002Z</time></trkpt><trkpt lat="14.456921870757428" lon="120.9303951198359"><ele>7.0</ele><time>2026-04-24T06:39:45.002Z</time></trkpt><trkpt lat="14.456846085458311" lon="120.93036579513631"><ele>7.166666666666667</ele><time>2026-04-24T06:39:46.002Z</time></trkpt><trkpt lat="14.456769239683329" lon="120.93035132349485"><ele>7.333333333333334</ele><time>2026-04-24T06:39:47.002Z</time></trkpt><trkpt lat="14.456681146761253" lon="120.93033425850679"><ele>7.5</ele><time>2026-04-24T06:39:48.002Z</time></trkpt><trkpt lat="14.456596982479684" lon="120.93032243678543"><ele>7.666666666666666</ele><time>2026-04-24T06:39:49.002Z</time></trkpt><trkpt lat="14.456506311306708" lon="120.93030668445171"><ele>7.833333333333333</ele><time>2026-04-24T06:39:50.002Z</time></trkpt><trkpt lat="14.456407949488396" lon="120.93028858335794"><ele>8.0</ele><time>2026-04-24T06:39:51.002Z</time></trkpt><trkpt lat="14.45630560270623" lon="120.93027549286113"><ele>8.0</ele><time>2026-04-24T06:39:52.002Z</time></trkpt><trkpt lat="14.456183480662064" lon="120.93025199644194"><ele>8.0</ele><time>2026-04-24T06:39:53.002Z</time></trkpt><trkpt lat="14.456059960031961" lon="120.93022487582897"><ele>8.0</ele><time>2026-04-24T06:39:54.002Z</time></trkpt><trkpt lat="14.45592972600224" lon="120.9301951812215"><ele>8.0</ele><time>2026-04-24T06:39:55.002Z</time></trkpt><trkpt lat="14.455798321356584" lon="120.93016763173854"><ele>8.0</ele><time>2026-04-24T06:39:56.002Z</time></trkpt><trkpt lat="14.455668665931844" lon="120.9301508736177"><ele>8.0</ele><time>2026-04-24T06:39:57.002Z</time></trkpt><trkpt lat="14.455532159075979" lon="120.93013438930008"><ele>8.0</ele><time>2026-04-24T06:39:58.002Z</time></trkpt><trkpt lat="14.455391617998067" lon="120.93011108415368"><ele>8.0</ele><time>2026-04-24T06:39:59.002Z</time></trkpt><trkpt lat="14.455263228393921" lon="120.93008100308728"><ele>7.6000000000000005</ele><time>2026-04-24T06:40:00.002Z</time></trkpt><trkpt lat="14.455144128692883" lon="120.93004940062285"><ele>7.200000000000001</ele><time>2026-04-24T06:40:01.002Z</time></trkpt><trkpt lat="14.455035216211579" lon="120.93002622567515"><ele>6.8</ele><time>2026-04-24T06:40:02.002Z</time></trkpt><trkpt lat="14.454942512317883" lon="120.93000529710015"><ele>6.4</ele><time>2026-04-24T06:40:03.002Z</time></trkpt><trkpt lat="14.454849291066619" lon="120.92998533331692"><ele>6.0</ele><time>2026-04-24T06:40:04.002Z</time></trkpt><trkpt lat="14.454776639017886" lon="120.92997284859227"><ele>6.0</ele><time>2026-04-24T06:40:05.002Z</time></trkpt><trkpt lat="14.454702690319381" lon="120.92995812846392"><ele>6.0</ele><time>2026-04-24T06:40:06.002Z</time></trkpt><trkpt lat="14.454637395990066" lon="120.92994275387743"><ele>6.0</ele><time>2026-04-24T06:40:07.002Z</time></trkpt><trkpt lat="14.45456532502682" lon="120.9299228758692"><ele>6.0</ele><time>2026-04-24T06:40:08.002Z</time></trkpt><trkpt lat="14.454487898941771" lon="120.92989536352741"><ele>6.0</ele><time>2026-04-24T06:40:09.002Z</time></trkpt><trkpt lat="14.454411158807913" lon="120.9298706436456"><ele>6.0</ele><time>2026-04-24T06:40:10.002Z</time></trkpt><trkpt lat="14.454324131844048" lon="120.92983757522408"><ele>5.8</ele><time>2026-04-24T06:40:11.002Z</time></trkpt><trkpt lat="14.454236906002555" lon="120.92980199067348"><ele>5.6</ele><time>2026-04-24T06:40:12.002Z</time></trkpt><trkpt lat="14.454151260877495" lon="120.92975945022467"><ele>5.4</ele><time>2026-04-24T06:40:13.002Z</time></trkpt><trkpt lat="14.454071523193232" lon="120.929707672372"><ele>5.2</ele><time>2026-04-24T06:40:14.002Z</time></trkpt><trkpt lat="14.453988276896883" lon="120.92964835825215"><ele>5.0</ele><time>2026-04-24T06:40:15.002Z</time></trkpt><trkpt lat="14.453909089332226" lon="120.92958406764357"><ele>5.0</ele><time>2026-04-24T06:40:16.002Z</time></trkpt><trkpt lat="14.45382519087365" lon="120.92950818797411"><ele>5.0</ele><time>2026-04-24T06:40:17.003Z</time></trkpt><trkpt lat="14.453740216723759" lon="120.92942299392824"><ele>5.0</ele><time>2026-04-24T06:40:18.003Z</time></trkpt><trkpt lat="14.453659267683573" lon="120.9293495419048"><ele>5.0</ele><time>2026-04-24T06:40:19.003Z</time></trkpt><trkpt lat="14.453577073767791" lon="120.92927292369947"><ele>5.0</ele><time>2026-04-24T06:40:20.003Z</time></trkpt><trkpt lat="14.453504340184628" lon="120.92920564205343"><ele>5.0</ele><time>2026-04-24T06:40:21.003Z</time></trkpt><trkpt lat="14.453436177426864" lon="120.92914528029421"><ele>5.0</ele><time>2026-04-24T06:40:22.003Z</time></trkpt><trkpt lat="14.453373241091908" lon="120.9290874912964"><ele>5.0</ele><time>2026-04-24T06:40:23.003Z</time></trkpt><trkpt lat="14.453314906942639" lon="120.9290337146587"><ele>5.0</ele><time>2026-04-24T06:40:24.001Z</time></trkpt><trkpt lat="14.453254792140603" lon="120.92897970097938"><ele>5.0</ele><time>2026-04-24T06:40:25.001Z</time></trkpt><trkpt lat="14.45319126850994" lon="120.9289213862481"><ele>5.0</ele><time>2026-04-24T06:40:26.001Z</time></trkpt><trkpt lat="14.453123176208658" lon="120.92885787471373"><ele>5.0</ele><time>2026-04-24T06:40:27.001Z</time></trkpt><trkpt lat="14.453057580131892" lon="120.92879739560564"><ele>5.0</ele><time>2026-04-24T06:40:28.001Z</time></trkpt><trkpt lat="14.452986638824113" lon="120.92873373206159"><ele>5.0</ele><time>2026-04-24T06:40:29.001Z</time></trkpt><trkpt lat="14.452923300118053" lon="120.92867537799555"><ele>5.0</ele><time>2026-04-24T06:40:30.001Z</time></trkpt><trkpt lat="14.45285204414699" lon="120.92862285777744"><ele>5.0</ele><time>2026-04-24T06:40:31.001Z</time></trkpt><trkpt lat="14.452779709433663" lon="120.92856622808077"><ele>5.0</ele><time>2026-04-24T06:40:32.001Z</time></trkpt><trkpt lat="14.452701946168713" lon="120.92851676170724"><ele>5.0</ele><time>2026-04-24T06:40:33.001Z</time></trkpt><trkpt lat="14.452625009021945" lon="120.9284732704407"><ele>5.0</ele><time>2026-04-24T06:40:34.001Z</time></trkpt><trkpt lat="14.4525552770676" lon="120.92843978906235"><ele>5.0</ele><time>2026-04-24T06:40:35.001Z</time></trkpt><trkpt lat="14.45247584830562" lon="120.92840118279742"><ele>5.0</ele><time>2026-04-24T06:40:36.001Z</time></trkpt><trkpt lat="14.45239681756478" lon="120.92837822174538"><ele>5.0</ele><time>2026-04-24T06:40:37.001Z</time></trkpt><trkpt lat="14.45231820242965" lon="120.92835545653854"><ele>5.0</ele><time>2026-04-24T06:40:38.001Z</time></trkpt><trkpt lat="14.452239004205195" lon="120.92834128017942"><ele>5.0</ele><time>2026-04-24T06:40:39.001Z</time></trkpt><trkpt lat="14.452155507225012" lon="120.92833011693408"><ele>5.0</ele><time>2026-04-24T06:40:40.001Z</time></trkpt><trkpt lat="14.452087308392422" lon="120.9283248965771"><ele>5.0</ele><time>2026-04-24T06:40:41.001Z</time></trkpt><trkpt lat="14.451996653305317" lon="120.92832130003914"><ele>5.0</ele><time>2026-04-24T06:40:42.001Z</time></trkpt><trkpt lat="14.451905941353205" lon="120.92832737580913"><ele>5.0</ele><time>2026-04-24T06:40:43.001Z</time></trkpt><trkpt lat="14.451814447430941" lon="120.92833580409747"><ele>5.0</ele><time>2026-04-24T06:40:44.001Z</time></trkpt><trkpt lat="14.451728471028611" lon="120.92834366690008"><ele>5.285714285714286</ele><time>2026-04-24T06:40:45.001Z</time></trkpt><trkpt lat="14.451656241473573" lon="120.92834809830475"><ele>5.571428571428571</ele><time>2026-04-24T06:40:46.001Z</time></trkpt><trkpt lat="14.451590090174689" lon="120.92835396710448"><ele>5.857142857142858</ele><time>2026-04-24T06:40:47.001Z</time></trkpt><trkpt lat="14.45152657355597" lon="120.92836268847314"><ele>6.142857142857142</ele><time>2026-04-24T06:40:48.001Z</time></trkpt><trkpt lat="14.451456377064115" lon="120.92836721562735"><ele>6.428571428571429</ele><time>2026-04-24T06:40:49.001Z</time></trkpt><trkpt lat="14.451380734605547" lon="120.92837185755737"><ele>6.714285714285714</ele><time>2026-04-24T06:40:50.001Z</time></trkpt><trkpt lat="14.451308767840866" lon="120.92837610989079"><ele>7.0</ele><time>2026-04-24T06:40:51.001Z</time></trkpt><trkpt lat="14.451245019109521" lon="120.92838129302974"><ele>7.199999999999999</ele><time>2026-04-24T06:40:52.001Z</time></trkpt><trkpt lat="14.451120244221537" lon="120.92839345540315"><ele>7.3999999999999995</ele><time>2026-04-24T06:40:54.001Z</time></trkpt><trkpt lat="14.451044414879982" lon="120.92840614749942"><ele>7.6000000000000005</ele><time>2026-04-24T06:40:55.001Z</time></trkpt><trkpt lat="14.450978082263076" lon="120.92841581079472"><ele>7.800000000000001</ele><time>2026-04-24T06:40:56.001Z</time></trkpt><trkpt lat="14.450915588487693" lon="120.92842376547084"><ele>8.0</ele><time>2026-04-24T06:40:57.001Z</time></trkpt><trkpt lat="14.450797094745875" lon="120.92843759528215"><ele>7.999999999999999</ele><time>2026-04-24T06:40:59.001Z</time></trkpt><trkpt lat="14.450694083483484" lon="120.92840487891813"><ele>8.0</ele><time>2026-04-24T06:41:01.001Z</time></trkpt><trkpt lat="14.450632220913425" lon="120.92835009694862"><ele>8.0</ele><time>2026-04-24T06:41:03.001Z</time></trkpt><trkpt lat="14.450589888525705" lon="120.92827860897727"><ele>8.0</ele><time>2026-04-24T06:41:05.001Z</time></trkpt><trkpt lat="14.450575526457845" lon="120.9282077076062"><ele>7.999999999999999</ele><time>2026-04-24T06:41:07.001Z</time></trkpt><trkpt lat="14.450565966399061" lon="120.92812364299414"><ele>8.0</ele><time>2026-04-24T06:41:09.001Z</time></trkpt><trkpt lat="14.45057943657527" lon="120.92803684646344"><ele>7.999999999999999</ele><time>2026-04-24T06:41:11.001Z</time></trkpt><trkpt lat="14.45059238355637" lon="120.92796781436327"><ele>8.0</ele><time>2026-04-24T06:41:12.001Z</time></trkpt><trkpt lat="14.450603535280022" lon="120.92788843057556"><ele>8.0</ele><time>2026-04-24T06:41:13.001Z</time></trkpt><trkpt lat="14.450610211907305" lon="120.92781391658175"><ele>8.0</ele><time>2026-04-24T06:41:14.001Z</time></trkpt><trkpt lat="14.450617807630692" lon="120.92774286861543"><ele>7.999999999999999</ele><time>2026-04-24T06:41:15.001Z</time></trkpt><trkpt lat="14.450629627482598" lon="120.92766491222227"><ele>8.0</ele><time>2026-04-24T06:41:16.001Z</time></trkpt><trkpt lat="14.450646299655016" lon="120.92757697311357"><ele>7.666666666666666</ele><time>2026-04-24T06:41:17.001Z</time></trkpt><trkpt lat="14.450662103207703" lon="120.92748905912356"><ele>7.333333333333333</ele><time>2026-04-24T06:41:18.001Z</time></trkpt><trkpt lat="14.45067931101211" lon="120.92740047173172"><ele>7.0</ele><time>2026-04-24T06:41:19.001Z</time></trkpt><trkpt lat="14.45068787499409" lon="120.92731289988278"><ele>6.666666666666666</ele><time>2026-04-24T06:41:20.001Z</time></trkpt><trkpt lat="14.450679936880686" lon="120.9272316972982"><ele>6.333333333333333</ele><time>2026-04-24T06:41:21.001Z</time></trkpt><trkpt lat="14.45066578120835" lon="120.92713096061021"><ele>6.0</ele><time>2026-04-24T06:41:22.001Z</time></trkpt><trkpt lat="14.45065124087565" lon="120.9270441785752"><ele>6.0</ele><time>2026-04-24T06:41:23.001Z</time></trkpt><trkpt lat="14.45063241784822" lon="120.92696260093467"><ele>6.0</ele><time>2026-04-24T06:41:24.001Z</time></trkpt><trkpt lat="14.4506136473947" lon="120.92688043363452"><ele>6.0</ele><time>2026-04-24T06:41:25.001Z</time></trkpt><trkpt lat="14.45059296748327" lon="120.92676003520461"><ele>6.0</ele><time>2026-04-24T06:41:26.001Z</time></trkpt><trkpt lat="14.45057718149539" lon="120.92665550852516"><ele>6.0</ele><time>2026-04-24T06:41:27.001Z</time></trkpt><trkpt lat="14.450562773742393" lon="120.92656245674124"><ele>6.0</ele><time>2026-04-24T06:41:28.001Z</time></trkpt><trkpt lat="14.450547539526385" lon="120.92647842532907"><ele>6.0</ele><time>2026-04-24T06:41:29.001Z</time></trkpt><trkpt lat="14.450536152805894" lon="120.9263961776449"><ele>6.0</ele><time>2026-04-24T06:41:30.002Z</time></trkpt><trkpt lat="14.45051449545244" lon="120.92630551292244"><ele>6.0</ele><time>2026-04-24T06:41:31.002Z</time></trkpt><trkpt lat="14.450495339097708" lon="120.92622880907518"><ele>6.0</ele><time>2026-04-24T06:41:32.002Z</time></trkpt><trkpt lat="14.450472809687893" lon="120.92614709993842"><ele>6.0</ele><time>2026-04-24T06:41:33.002Z</time></trkpt><trkpt lat="14.450456459454768" lon="120.92603346677187"><ele>6.0</ele><time>2026-04-24T06:41:34.002Z</time></trkpt><trkpt lat="14.450436548142575" lon="120.92592920928475"><ele>6.0</ele><time>2026-04-24T06:41:35.002Z</time></trkpt><trkpt lat="14.450415202060004" lon="120.9258163763246"><ele>6.0</ele><time>2026-04-24T06:41:36.002Z</time></trkpt><trkpt lat="14.450391242361379" lon="120.92570051247436"><ele>6.0</ele><time>2026-04-24T06:41:37.002Z</time></trkpt><trkpt lat="14.450367856243107" lon="120.92558413813846"><ele>6.0</ele><time>2026-04-24T06:41:38.002Z</time></trkpt><trkpt lat="14.450348309727191" lon="120.92547636490448"><ele>6.0</ele><time>2026-04-24T06:41:39.002Z</time></trkpt><trkpt lat="14.450328366348295" lon="120.92537795063355"><ele>6.0</ele><time>2026-04-24T06:41:40.002Z</time></trkpt><trkpt lat="14.450306225642835" lon="120.92527734683263"><ele>6.0</ele><time>2026-04-24T06:41:41.002Z</time></trkpt><trkpt lat="14.450286753278926" lon="120.92517901608011"><ele>6.0</ele><time>2026-04-24T06:41:42.002Z</time></trkpt><trkpt lat="14.450269575893476" lon="120.9250955162852"><ele>6.0</ele><time>2026-04-24T06:41:43.002Z</time></trkpt><trkpt lat="14.45025348168715" lon="120.92500874055919"><ele>6.0</ele><time>2026-04-24T06:41:44.002Z</time></trkpt><trkpt lat="14.450236836787015" lon="120.9249352299649"><ele>6.0</ele><time>2026-04-24T06:41:45.002Z</time></trkpt><trkpt lat="14.45022398822611" lon="120.92486938924547"><ele>6.0</ele><time>2026-04-24T06:41:46.002Z</time></trkpt><trkpt lat="14.450200354719188" lon="120.92475055890996"><ele>6.0</ele><time>2026-04-24T06:41:48.002Z</time></trkpt><trkpt lat="14.45018096291702" lon="120.92464568303814"><ele>6.0</ele><time>2026-04-24T06:41:50.002Z</time></trkpt><trkpt lat="14.450151634144301" lon="120.92453385235405"><ele>6.0</ele><time>2026-04-24T06:41:52.002Z</time></trkpt><trkpt lat="14.450126033151959" lon="120.9244107841883"><ele>6.0</ele><time>2026-04-24T06:41:54.002Z</time></trkpt><trkpt lat="14.450112395055339" lon="120.92434518817231"><ele>6.0</ele><time>2026-04-24T06:41:55.002Z</time></trkpt><trkpt lat="14.450072077062257" lon="120.92420493167008"><ele>6.0</ele><time>2026-04-24T06:41:57.002Z</time></trkpt><trkpt lat="14.45005388250418" lon="120.92410119965173"><ele>6.0</ele><time>2026-04-24T06:41:58.002Z</time></trkpt><trkpt lat="14.45003633567998" lon="120.92400427843812"><ele>5.8</ele><time>2026-04-24T06:41:59.002Z</time></trkpt><trkpt lat="14.45002205187382" lon="120.92392128909297"><ele>5.6</ele><time>2026-04-24T06:42:00.002Z</time></trkpt><trkpt lat="14.450000470377526" lon="120.92380672365623"><ele>5.4</ele><time>2026-04-24T06:42:02.002Z</time></trkpt><trkpt lat="14.449982278895732" lon="120.9237399820425"><ele>5.2</ele><time>2026-04-24T06:42:04.002Z</time></trkpt><trkpt lat="14.449976443913513" lon="120.92365163237123"><ele>5.0</ele><time>2026-04-24T06:42:11.002Z</time></trkpt><trkpt lat="14.449951486529832" lon="120.92353212940961"><ele>5.0</ele><time>2026-04-24T06:42:13.002Z</time></trkpt><trkpt lat="14.44994106593591" lon="120.92346596275263"><ele>5.0</ele><time>2026-04-24T06:42:14.002Z</time></trkpt><trkpt lat="14.449919063349517" lon="120.92335295611859"><ele>5.0</ele><time>2026-04-24T06:42:16.002Z</time></trkpt><trkpt lat="14.449898154102593" lon="120.92326245852912"><ele>5.0</ele><time>2026-04-24T06:42:18.002Z</time></trkpt><trkpt lat="14.449868980822968" lon="120.92318264908108"><ele>5.0</ele><time>2026-04-24T06:42:21.002Z</time></trkpt><trkpt lat="14.449805382405208" lon="120.92314814688788"><ele>5.0</ele><time>2026-04-24T06:42:25.003Z</time></trkpt><trkpt lat="14.449736841454303" lon="120.923183600947"><ele>5.166666666666667</ele><time>2026-04-24T06:42:27.003Z</time></trkpt><trkpt lat="14.449673283971805" lon="120.92323214655536"><ele>5.333333333333334</ele><time>2026-04-24T06:42:29.003Z</time></trkpt><trkpt lat="14.449611391110134" lon="120.92324545421228"><ele>5.5</ele><time>2026-04-24T06:42:30.001Z</time></trkpt><trkpt lat="14.449553178202923" lon="120.92327113597713"><ele>5.666666666666667</ele><time>2026-04-24T06:42:31.001Z</time></trkpt><trkpt lat="14.449491745837868" lon="120.9233060302954"><ele>5.833333333333333</ele><time>2026-04-24T06:42:32.001Z</time></trkpt><trkpt lat="14.449435182271724" lon="120.92333896679298"><ele>6.0</ele><time>2026-04-24T06:42:33.001Z</time></trkpt><trkpt lat="14.44931379851276" lon="120.92337299904058"><ele>6.142857142857142</ele><time>2026-04-24T06:42:35.001Z</time></trkpt><trkpt lat="14.449250966783469" lon="120.9233862105735"><ele>6.285714285714286</ele><time>2026-04-24T06:42:36.001Z</time></trkpt><trkpt lat="14.449183285519084" lon="120.92340096282186"><ele>6.428571428571429</ele><time>2026-04-24T06:42:37.001Z</time></trkpt><trkpt lat="14.449118890175082" lon="120.9234192448656"><ele>6.571428571428571</ele><time>2026-04-24T06:42:38.001Z</time></trkpt><trkpt lat="14.449053050959948" lon="120.92343206619364"><ele>6.714285714285714</ele><time>2026-04-24T06:42:39.001Z</time></trkpt><trkpt lat="14.448978363031749" lon="120.92343371184572"><ele>6.857142857142857</ele><time>2026-04-24T06:42:40.001Z</time></trkpt><trkpt lat="14.448914010244835" lon="120.92343448803368"><ele>7.0</ele><time>2026-04-24T06:42:41.001Z</time></trkpt><trkpt lat="14.448787780465988" lon="120.92344366416125"><ele>7.0</ele><time>2026-04-24T06:42:43.001Z</time></trkpt><trkpt lat="14.448661222600762" lon="120.92344895355569"><ele>6.999999999999999</ele><time>2026-04-24T06:42:45.001Z</time></trkpt><trkpt lat="14.448553908235196" lon="120.923445609233"><ele>6.999999999999999</ele><time>2026-04-24T06:42:47.001Z</time></trkpt><trkpt lat="14.448436523833353" lon="120.92345514569547"><ele>7.0</ele><time>2026-04-24T06:42:49.001Z</time></trkpt><trkpt lat="14.448350471681515" lon="120.92345679077124"><ele>7.0</ele><time>2026-04-24T06:42:51.001Z</time></trkpt><trkpt lat="14.448262963478365" lon="120.92346895561774"><ele>7.0</ele><time>2026-04-24T06:42:54.001Z</time></trkpt><trkpt lat="14.448184062659255" lon="120.92346918874705"><ele>6.999999999999999</ele><time>2026-04-24T06:42:56.001Z</time></trkpt><trkpt lat="14.448067213141744" lon="120.92348713433536"><ele>6.999999999999999</ele><time>2026-04-24T06:42:58.001Z</time></trkpt><trkpt lat="14.447990825233392" lon="120.92348452041864"><ele>7.0</ele><time>2026-04-24T06:42:59.001Z</time></trkpt><trkpt lat="14.447899862444123" lon="120.92348342036762"><ele>7.0</ele><time>2026-04-24T06:43:00.001Z</time></trkpt><trkpt lat="14.447809394329186" lon="120.92348354223003"><ele>7.3999999999999995</ele><time>2026-04-24T06:43:01.001Z</time></trkpt><trkpt lat="14.44771105084877" lon="120.9234906135536"><ele>7.799999999999999</ele><time>2026-04-24T06:43:02.001Z</time></trkpt><trkpt lat="14.447604806571583" lon="120.9234958960901"><ele>8.2</ele><time>2026-04-24T06:43:03.001Z</time></trkpt><trkpt lat="14.447498393127931" lon="120.92349961739988"><ele>8.6</ele><time>2026-04-24T06:43:04.001Z</time></trkpt><trkpt lat="14.447404771772" lon="120.92350551800338"><ele>9.0</ele><time>2026-04-24T06:43:05.001Z</time></trkpt><trkpt lat="14.44728333770597" lon="120.92351452149344"><ele>9.0</ele><time>2026-04-24T06:43:06.001Z</time></trkpt><trkpt lat="14.447196053608069" lon="120.92351760456911"><ele>9.0</ele><time>2026-04-24T06:43:07.001Z</time></trkpt><trkpt lat="14.447107230570444" lon="120.92351648585577"><ele>9.0</ele><time>2026-04-24T06:43:08.001Z</time></trkpt><trkpt lat="14.44701837087872" lon="120.92350923711895"><ele>9.0</ele><time>2026-04-24T06:43:09.001Z</time></trkpt><trkpt lat="14.446925776204598" lon="120.92350246578853"><ele>9.0</ele><time>2026-04-24T06:43:10.001Z</time></trkpt><trkpt lat="14.446819112936426" lon="120.92349635714804"><ele>8.8</ele><time>2026-04-24T06:43:11.001Z</time></trkpt><trkpt lat="14.446715008190022" lon="120.92347612267861"><ele>8.600000000000001</ele><time>2026-04-24T06:43:12.001Z</time></trkpt><trkpt lat="14.446604542539855" lon="120.92345793343726"><ele>8.4</ele><time>2026-04-24T06:43:13.001Z</time></trkpt><trkpt lat="14.446504765896323" lon="120.92343513076436"><ele>8.200000000000001</ele><time>2026-04-24T06:43:14.001Z</time></trkpt><trkpt lat="14.446414996763387" lon="120.92341932093231"><ele>8.0</ele><time>2026-04-24T06:43:15.001Z</time></trkpt><trkpt lat="14.446334455216812" lon="120.9234101779366"><ele>7.6000000000000005</ele><time>2026-04-24T06:43:16.001Z</time></trkpt><trkpt lat="14.446243400446232" lon="120.92338869828338"><ele>7.200000000000001</ele><time>2026-04-24T06:43:17.001Z</time></trkpt><trkpt lat="14.446143786572398" lon="120.92336842810484"><ele>6.8</ele><time>2026-04-24T06:43:18.001Z</time></trkpt><trkpt lat="14.446056925592297" lon="120.92334673988383"><ele>6.4</ele><time>2026-04-24T06:43:19.001Z</time></trkpt><trkpt lat="14.445969766390416" lon="120.92333678970085"><ele>6.0</ele><time>2026-04-24T06:43:20.001Z</time></trkpt><trkpt lat="14.445876991868847" lon="120.92333953425579"><ele>6.0</ele><time>2026-04-24T06:43:21.001Z</time></trkpt><trkpt lat="14.445779498100768" lon="120.92334922046365"><ele>6.0</ele><time>2026-04-24T06:43:22.001Z</time></trkpt><trkpt lat="14.445670464444472" lon="120.92336502825911"><ele>6.0</ele><time>2026-04-24T06:43:23.001Z</time></trkpt><trkpt lat="14.445560094702397" lon="120.92338415137179"><ele>6.0</ele><time>2026-04-24T06:43:24.001Z</time></trkpt><trkpt lat="14.445451106297474" lon="120.92340411591255"><ele>6.0</ele><time>2026-04-24T06:43:25.001Z</time></trkpt><trkpt lat="14.445345580077767" lon="120.92342501574575"><ele>6.0</ele><time>2026-04-24T06:43:26.001Z</time></trkpt><trkpt lat="14.445236904056712" lon="120.92345208591601"><ele>6.0</ele><time>2026-04-24T06:43:27.001Z</time></trkpt><trkpt lat="14.445133105603698" lon="120.92347743029448"><ele>6.0</ele><time>2026-04-24T06:43:28.001Z</time></trkpt><trkpt lat="14.445020636963962" lon="120.92349898782001"><ele>6.0</ele><time>2026-04-24T06:43:29.001Z</time></trkpt><trkpt lat="14.444911737427196" lon="120.92351690850501"><ele>6.0</ele><time>2026-04-24T06:43:30.001Z</time></trkpt><trkpt lat="14.444801477798478" lon="120.92354253797455"><ele>6.0</ele><time>2026-04-24T06:43:31.001Z</time></trkpt><trkpt lat="14.444698819294738" lon="120.92356287908086"><ele>6.0</ele><time>2026-04-24T06:43:32.001Z</time></trkpt><trkpt lat="14.44460574699381" lon="120.92357954293259"><ele>6.0</ele><time>2026-04-24T06:43:33.001Z</time></trkpt><trkpt lat="14.444519063654926" lon="120.9235938045739"><ele>6.0</ele><time>2026-04-24T06:43:34.002Z</time></trkpt><trkpt lat="14.444439321167174" lon="120.92360977110208"><ele>6.0</ele><time>2026-04-24T06:43:35.002Z</time></trkpt><trkpt lat="14.444364655405908" lon="120.9236239351549"><ele>6.0</ele><time>2026-04-24T06:43:36.002Z</time></trkpt><trkpt lat="14.444298791896864" lon="120.92363551600688"><ele>6.166666666666667</ele><time>2026-04-24T06:43:37.002Z</time></trkpt><trkpt lat="14.444204298036377" lon="120.92364648728767"><ele>6.333333333333334</ele><time>2026-04-24T06:43:39.002Z</time></trkpt><trkpt lat="14.444107755691855" lon="120.9236643194612"><ele>6.5</ele><time>2026-04-24T06:43:41.002Z</time></trkpt><trkpt lat="14.444038395106407" lon="120.9236787780415"><ele>6.666666666666667</ele><time>2026-04-24T06:43:42.002Z</time></trkpt><trkpt lat="14.44397000311306" lon="120.92368476971916"><ele>6.833333333333334</ele><time>2026-04-24T06:43:43.002Z</time></trkpt><trkpt lat="14.443871332979903" lon="120.92369620965295"><ele>7.0</ele><time>2026-04-24T06:43:45.002Z</time></trkpt><trkpt lat="14.443809946932236" lon="120.92371665352057"><ele>7.199999999999999</ele><time>2026-04-24T06:43:47.002Z</time></trkpt><trkpt lat="14.4437284834621" lon="120.92373639588916"><ele>7.3999999999999995</ele><time>2026-04-24T06:43:49.002Z</time></trkpt><trkpt lat="14.44363150823552" lon="120.92377190648251"><ele>7.6000000000000005</ele><time>2026-04-24T06:43:51.002Z</time></trkpt><trkpt lat="14.4435385301364" lon="120.92382314230291"><ele>7.800000000000001</ele><time>2026-04-24T06:43:53.002Z</time></trkpt><trkpt lat="14.44348051869054" lon="120.92384914448239"><ele>8.0</ele><time>2026-04-24T06:43:54.002Z</time></trkpt><trkpt lat="14.443363757103146" lon="120.9239057673265"><ele>7.999999999999999</ele><time>2026-04-24T06:43:56.002Z</time></trkpt><trkpt lat="14.443304292550899" lon="120.92393792175196"><ele>8.0</ele><time>2026-04-24T06:43:57.002Z</time></trkpt><trkpt lat="14.443245624694564" lon="120.92396779522376"><ele>8.0</ele><time>2026-04-24T06:43:58.002Z</time></trkpt><trkpt lat="14.443135070908667" lon="120.92402756142704"><ele>8.0</ele><time>2026-04-24T06:44:00.002Z</time></trkpt><trkpt lat="14.443066609079876" lon="120.92405670868406"><ele>7.999999999999999</ele><time>2026-04-24T06:44:01.002Z</time></trkpt><trkpt lat="14.442991889655211" lon="120.92409136540208"><ele>8.0</ele><time>2026-04-24T06:44:02.002Z</time></trkpt><trkpt lat="14.442921185357596" lon="120.92412417902734"><ele>8.0</ele><time>2026-04-24T06:44:03.002Z</time></trkpt><trkpt lat="14.442855065459412" lon="120.92416167108188"><ele>8.0</ele><time>2026-04-24T06:44:04.002Z</time></trkpt><trkpt lat="14.442782547998188" lon="120.92420357240792"><ele>8.0</ele><time>2026-04-24T06:44:05.002Z</time></trkpt><trkpt lat="14.442695758623756" lon="120.9242600129029"><ele>8.0</ele><time>2026-04-24T06:44:06.002Z</time></trkpt><trkpt lat="14.442597480293506" lon="120.92431835658141"><ele>8.0</ele><time>2026-04-24T06:44:07.002Z</time></trkpt><trkpt lat="14.442497061896514" lon="120.92437288361872"><ele>8.0</ele><time>2026-04-24T06:44:08.002Z</time></trkpt><trkpt lat="14.44241915237619" lon="120.92441034560623"><ele>8.0</ele><time>2026-04-24T06:44:09.002Z</time></trkpt><trkpt lat="14.442346855473007" lon="120.92444833131741"><ele>8.0</ele><time>2026-04-24T06:44:10.002Z</time></trkpt><trkpt lat="14.442269393754566" lon="120.92449735715589"><ele>8.0</ele><time>2026-04-24T06:44:11.002Z</time></trkpt><trkpt lat="14.442176513269075" lon="120.92455024999316"><ele>8.0</ele><time>2026-04-24T06:44:12.002Z</time></trkpt><trkpt lat="14.442079366260659" lon="120.9246012420643"><ele>8.0</ele><time>2026-04-24T06:44:13.002Z</time></trkpt><trkpt lat="14.441987519296653" lon="120.92464109119611"><ele>8.0</ele><time>2026-04-24T06:44:14.002Z</time></trkpt><trkpt lat="14.441907586213514" lon="120.92468186796337"><ele>8.0</ele><time>2026-04-24T06:44:15.002Z</time></trkpt><trkpt lat="14.441846456672502" lon="120.92471488973743"><ele>8.0</ele><time>2026-04-24T06:44:16.002Z</time></trkpt><trkpt lat="14.441743764299227" lon="120.92477342742475"><ele>8.0</ele><time>2026-04-24T06:44:18.002Z</time></trkpt><trkpt lat="14.441677252140003" lon="120.92481571117594"><ele>8.0</ele><time>2026-04-24T06:44:20.002Z</time></trkpt><trkpt lat="14.441617346561097" lon="120.92487106010832"><ele>8.0</ele><time>2026-04-24T06:44:30.003Z</time></trkpt><trkpt lat="14.441524261013429" lon="120.92491309668738"><ele>8.0</ele><time>2026-04-24T06:44:32.003Z</time></trkpt><trkpt lat="14.44144628708505" lon="120.92494807794156"><ele>8.0</ele><time>2026-04-24T06:44:34.003Z</time></trkpt><trkpt lat="14.441353504172682" lon="120.92498606483096"><ele>8.0</ele><time>2026-04-24T06:44:36.001Z</time></trkpt><trkpt lat="14.441250956357758" lon="120.92504385283182"><ele>8.0</ele><time>2026-04-24T06:44:38.001Z</time></trkpt><trkpt lat="14.441190474863392" lon="120.92508468964571"><ele>8.0</ele><time>2026-04-24T06:44:39.001Z</time></trkpt><trkpt lat="14.441124476584202" lon="120.92512509572042"><ele>8.0</ele><time>2026-04-24T06:44:40.001Z</time></trkpt><trkpt lat="14.441055158063426" lon="120.92516115555016"><ele>8.0</ele><time>2026-04-24T06:44:41.001Z</time></trkpt><trkpt lat="14.440947672582691" lon="120.92521320167374"><ele>8.0</ele><time>2026-04-24T06:44:43.001Z</time></trkpt><trkpt lat="14.440841839218093" lon="120.92526090450906"><ele>8.0</ele><time>2026-04-24T06:44:45.001Z</time></trkpt><trkpt lat="14.440740649444708" lon="120.92531200952884"><ele>8.0</ele><time>2026-04-24T06:44:47.001Z</time></trkpt><trkpt lat="14.44068449575741" lon="120.92534339563036"><ele>8.0</ele><time>2026-04-24T06:44:48.001Z</time></trkpt><trkpt lat="14.440568352925233" lon="120.9254051114541"><ele>8.0</ele><time>2026-04-24T06:44:50.001Z</time></trkpt><trkpt lat="14.440458525085752" lon="120.92546460758201"><ele>8.0</ele><time>2026-04-24T06:44:52.001Z</time></trkpt><trkpt lat="14.440361175822979" lon="120.92551302831724"><ele>8.166666666666666</ele><time>2026-04-24T06:44:54.001Z</time></trkpt><trkpt lat="14.440300061574227" lon="120.92553036921494"><ele>8.333333333333332</ele><time>2026-04-24T06:44:56.001Z</time></trkpt><trkpt lat="14.440261217073251" lon="120.92546363470868"><ele>8.5</ele><time>2026-04-24T06:45:00.001Z</time></trkpt><trkpt lat="14.44019430455649" lon="120.92540031880759"><ele>8.666666666666666</ele><time>2026-04-24T06:45:12.001Z</time></trkpt><trkpt lat="14.440145034852604" lon="120.92534072872623"><ele>8.833333333333334</ele><time>2026-04-24T06:45:14.001Z</time></trkpt><trkpt lat="14.440093298416096" lon="120.92525855909962"><ele>9.0</ele><time>2026-04-24T06:45:16.001Z</time></trkpt><trkpt lat="14.440025349542974" lon="120.92515160548217"><ele>9.0</ele><time>2026-04-24T06:45:18.001Z</time></trkpt><trkpt lat="14.439989651435752" lon="120.92509352746133"><ele>9.0</ele><time>2026-04-24T06:45:19.001Z</time></trkpt><trkpt lat="14.439937531713737" lon="120.92502914711024"><ele>9.0</ele><time>2026-04-24T06:45:20.001Z</time></trkpt><trkpt lat="14.439885397816012" lon="120.92496002327744"><ele>9.0</ele><time>2026-04-24T06:45:21.001Z</time></trkpt><trkpt lat="14.439835963523837" lon="120.92488597661348"><ele>9.0</ele><time>2026-04-24T06:45:22.001Z</time></trkpt><trkpt lat="14.43977884370101" lon="120.92481098341412"><ele>9.0</ele><time>2026-04-24T06:45:23.001Z</time></trkpt><trkpt lat="14.43972173028633" lon="120.92473991094221"><ele>8.6</ele><time>2026-04-24T06:45:24.001Z</time></trkpt><trkpt lat="14.439654654719979" lon="120.9246567359113"><ele>8.2</ele><time>2026-04-24T06:45:25.001Z</time></trkpt><trkpt lat="14.439597465811213" lon="120.92457279637698"><ele>7.799999999999999</ele><time>2026-04-24T06:45:26.001Z</time></trkpt><trkpt lat="14.439539299392045" lon="120.92448712537718"><ele>7.3999999999999995</ele><time>2026-04-24T06:45:27.001Z</time></trkpt><trkpt lat="14.439475355376354" lon="120.9244036698349"><ele>7.0</ele><time>2026-04-24T06:45:28.001Z</time></trkpt><trkpt lat="14.439415737335906" lon="120.92432073042743"><ele>6.8</ele><time>2026-04-24T06:45:29.001Z</time></trkpt><trkpt lat="14.439351817546036" lon="120.92423732590845"><ele>6.6</ele><time>2026-04-24T06:45:30.001Z</time></trkpt><trkpt lat="14.439288564215653" lon="120.9241585576372"><ele>6.3999999999999995</ele><time>2026-04-24T06:45:31.001Z</time></trkpt><trkpt lat="14.43923081214768" lon="120.92407963255211"><ele>6.199999999999999</ele><time>2026-04-24T06:45:32.001Z</time></trkpt><trkpt lat="14.439167921195995" lon="120.92400216115782"><ele>6.0</ele><time>2026-04-24T06:45:33.001Z</time></trkpt><trkpt lat="14.439114292427542" lon="120.92392912772132"><ele>6.0</ele><time>2026-04-24T06:45:34.001Z</time></trkpt><trkpt lat="14.439064372862262" lon="120.92386023144579"><ele>6.0</ele><time>2026-04-24T06:45:35.001Z</time></trkpt><trkpt lat="14.43900854970311" lon="120.92379274939356"><ele>6.0</ele><time>2026-04-24T06:45:36.001Z</time></trkpt><trkpt lat="14.438957462764202" lon="120.92373271561823"><ele>6.0</ele><time>2026-04-24T06:45:37.001Z</time></trkpt><trkpt lat="14.438911382390977" lon="120.92368149496966"><ele>6.0</ele><time>2026-04-24T06:45:38.001Z</time></trkpt><trkpt lat="14.438846610277567" lon="120.92361090275898"><ele>6.0</ele><time>2026-04-24T06:45:40.001Z</time></trkpt><trkpt lat="14.438750533492806" lon="120.9235655913279"><ele>6.0</ele><time>2026-04-24T06:45:44.002Z</time></trkpt><trkpt lat="14.438666860039877" lon="120.92356313708244"><ele>6.0</ele><time>2026-04-24T06:45:45.002Z</time></trkpt><trkpt lat="14.438582316356253" lon="120.9235438843561"><ele>6.0</ele><time>2026-04-24T06:45:46.002Z</time></trkpt><trkpt lat="14.438500315750243" lon="120.92351876242542"><ele>6.0</ele><time>2026-04-24T06:45:47.002Z</time></trkpt><trkpt lat="14.438376236017707" lon="120.92350581925524"><ele>6.0</ele><time>2026-04-24T06:45:49.002Z</time></trkpt><trkpt lat="14.438271029832483" lon="120.92348969070677"><ele>6.0</ele><time>2026-04-24T06:45:51.002Z</time></trkpt><trkpt lat="14.43818492539591" lon="120.92347861743461"><ele>6.0</ele><time>2026-04-24T06:45:53.002Z</time></trkpt><trkpt lat="14.438098187548793" lon="120.9234668230957"><ele>6.0</ele><time>2026-04-24T06:45:56.002Z</time></trkpt><trkpt lat="14.437988943422305" lon="120.92345377426764"><ele>6.0</ele><time>2026-04-24T06:45:58.002Z</time></trkpt><trkpt lat="14.437913322273545" lon="120.92344288399467"><ele>6.0</ele><time>2026-04-24T06:45:59.002Z</time></trkpt><trkpt lat="14.437831659660082" lon="120.92343090519738"><ele>6.0</ele><time>2026-04-24T06:46:00.002Z</time></trkpt><trkpt lat="14.437739786160291" lon="120.92342512839305"><ele>5.833333333333333</ele><time>2026-04-24T06:46:01.002Z</time></trkpt><trkpt lat="14.437650715440462" lon="120.92341812545206"><ele>5.666666666666667</ele><time>2026-04-24T06:46:02.002Z</time></trkpt><trkpt lat="14.437571650232185" lon="120.92340596744482"><ele>5.5</ele><time>2026-04-24T06:46:03.002Z</time></trkpt><trkpt lat="14.437491081126913" lon="120.92339742394643"><ele>5.333333333333334</ele><time>2026-04-24T06:46:04.002Z</time></trkpt><trkpt lat="14.437406409003684" lon="120.92338911174123"><ele>5.166666666666667</ele><time>2026-04-24T06:46:05.002Z</time></trkpt><trkpt lat="14.437320309911396" lon="120.92338435785709"><ele>5.0</ele><time>2026-04-24T06:46:06.002Z</time></trkpt><trkpt lat="14.437218446569686" lon="120.92338264802832"><ele>5.25</ele><time>2026-04-24T06:46:07.002Z</time></trkpt><trkpt lat="14.437110745489353" lon="120.92338059763775"><ele>5.5</ele><time>2026-04-24T06:46:08.002Z</time></trkpt><trkpt lat="14.437001615074358" lon="120.92336852702239"><ele>5.75</ele><time>2026-04-24T06:46:09.002Z</time></trkpt><trkpt lat="14.436883387668086" lon="120.92334926524373"><ele>6.0</ele><time>2026-04-24T06:46:10.002Z</time></trkpt><trkpt lat="14.436763070532523" lon="120.92332513330811"><ele>6.0</ele><time>2026-04-24T06:46:11.002Z</time></trkpt><trkpt lat="14.436652154443138" lon="120.92330864684565"><ele>6.0</ele><time>2026-04-24T06:46:12.002Z</time></trkpt><trkpt lat="14.436546550634585" lon="120.92329010784692"><ele>6.0</ele><time>2026-04-24T06:46:13.002Z</time></trkpt><trkpt lat="14.436435851150941" lon="120.92327376190289"><ele>6.0</ele><time>2026-04-24T06:46:14.002Z</time></trkpt><trkpt lat="14.436322295689799" lon="120.92325266531853"><ele>6.0</ele><time>2026-04-24T06:46:15.002Z</time></trkpt><trkpt lat="14.436204954557049" lon="120.92322544553669"><ele>6.5</ele><time>2026-04-24T06:46:16.002Z</time></trkpt><trkpt lat="14.436083857687825" lon="120.92319097138163"><ele>7.0</ele><time>2026-04-24T06:46:17.002Z</time></trkpt><trkpt lat="14.435966517054794" lon="120.92315997111818"><ele>7.5</ele><time>2026-04-24T06:46:18.002Z</time></trkpt><trkpt lat="14.435838822481449" lon="120.92313097122442"><ele>8.0</ele><time>2026-04-24T06:46:19.002Z</time></trkpt><trkpt lat="14.435713243815057" lon="120.92310256629065"><ele>8.0</ele><time>2026-04-24T06:46:20.002Z</time></trkpt><trkpt lat="14.435592164516317" lon="120.92307942840979"><ele>8.0</ele><time>2026-04-24T06:46:21.002Z</time></trkpt><trkpt lat="14.435474151486712" lon="120.92305144647776"><ele>8.0</ele><time>2026-04-24T06:46:22.002Z</time></trkpt><trkpt lat="14.43536036017312" lon="120.92301974383189"><ele>8.0</ele><time>2026-04-24T06:46:23.002Z</time></trkpt><trkpt lat="14.435241706996178" lon="120.92298825906096"><ele>8.0</ele><time>2026-04-24T06:46:24.002Z</time></trkpt><trkpt lat="14.435126102508331" lon="120.9229598727869"><ele>8.0</ele><time>2026-04-24T06:46:25.002Z</time></trkpt><trkpt lat="14.435010720246694" lon="120.92292830813928"><ele>8.0</ele><time>2026-04-24T06:46:26.002Z</time></trkpt><trkpt lat="14.434893705755254" lon="120.92289900207543"><ele>8.0</ele><time>2026-04-24T06:46:27.002Z</time></trkpt><trkpt lat="14.434767396290994" lon="120.9228790009519"><ele>8.0</ele><time>2026-04-24T06:46:28.002Z</time></trkpt><trkpt lat="14.434641461728862" lon="120.9228655828844"><ele>8.0</ele><time>2026-04-24T06:46:29.002Z</time></trkpt><trkpt lat="14.434513533795746" lon="120.9228482880207"><ele>8.0</ele><time>2026-04-24T06:46:30.002Z</time></trkpt><trkpt lat="14.434380303218447" lon="120.92282860543224"><ele>8.0</ele><time>2026-04-24T06:46:31.002Z</time></trkpt><trkpt lat="14.434249601754951" lon="120.92282460698513"><ele>8.0</ele><time>2026-04-24T06:46:32.002Z</time></trkpt><trkpt lat="14.434108498212037" lon="120.92282501178758"><ele>8.0</ele><time>2026-04-24T06:46:33.002Z</time></trkpt><trkpt lat="14.433976323886366" lon="120.92283135983448"><ele>8.0</ele><time>2026-04-24T06:46:34.002Z</time></trkpt><trkpt lat="14.433843457318533" lon="120.922831117228"><ele>8.0</ele><time>2026-04-24T06:46:35.002Z</time></trkpt><trkpt lat="14.433724687463362" lon="120.92282894484723"><ele>8.0</ele><time>2026-04-24T06:46:36.002Z</time></trkpt><trkpt lat="14.433608109878088" lon="120.92283216107285"><ele>8.0</ele><time>2026-04-24T06:46:37.003Z</time></trkpt><trkpt lat="14.433482768824707" lon="120.92282559792966"><ele>8.0</ele><time>2026-04-24T06:46:38.003Z</time></trkpt><trkpt lat="14.4333533311398" lon="120.92281058565301"><ele>8.0</ele><time>2026-04-24T06:46:39.003Z</time></trkpt><trkpt lat="14.433225967070932" lon="120.92278651757714"><ele>8.0</ele><time>2026-04-24T06:46:40.003Z</time></trkpt><trkpt lat="14.433090097702229" lon="120.92276199841496"><ele>8.0</ele><time>2026-04-24T06:46:41.003Z</time></trkpt><trkpt lat="14.432948978805683" lon="120.92274521267822"><ele>8.0</ele><time>2026-04-24T06:46:42.001Z</time></trkpt><trkpt lat="14.432806977055145" lon="120.92273074835146"><ele>8.0</ele><time>2026-04-24T06:46:43.001Z</time></trkpt><trkpt lat="14.432665315646341" lon="120.92271475300164"><ele>7.75</ele><time>2026-04-24T06:46:44.001Z</time></trkpt><trkpt lat="14.432522336089411" lon="120.92269704223223"><ele>7.5</ele><time>2026-04-24T06:46:45.001Z</time></trkpt><trkpt lat="14.432389153509503" lon="120.92268124504561"><ele>7.25</ele><time>2026-04-24T06:46:46.001Z</time></trkpt><trkpt lat="14.432267266451108" lon="120.9226672669472"><ele>7.0</ele><time>2026-04-24T06:46:47.001Z</time></trkpt><trkpt lat="14.432154815274068" lon="120.92265228971075"><ele>7.199999999999999</ele><time>2026-04-24T06:46:48.001Z</time></trkpt><trkpt lat="14.432050759028375" lon="120.92263684130984"><ele>7.3999999999999995</ele><time>2026-04-24T06:46:49.001Z</time></trkpt><trkpt lat="14.431953609274535" lon="120.92261871368419"><ele>7.6000000000000005</ele><time>2026-04-24T06:46:50.001Z</time></trkpt><trkpt lat="14.431860550350935" lon="120.92259104924624"><ele>7.800000000000001</ele><time>2026-04-24T06:46:51.001Z</time></trkpt><trkpt lat="14.431769133795678" lon="120.9225629311206"><ele>8.0</ele><time>2026-04-24T06:46:52.001Z</time></trkpt><trkpt lat="14.431674471397299" lon="120.92255748553438"><ele>7.999999999999999</ele><time>2026-04-24T06:46:53.001Z</time></trkpt><trkpt lat="14.431575282627042" lon="120.92256252055468"><ele>8.0</ele><time>2026-04-24T06:46:54.001Z</time></trkpt><trkpt lat="14.431477967648778" lon="120.92257136415657"><ele>8.0</ele><time>2026-04-24T06:46:55.001Z</time></trkpt><trkpt lat="14.431389333231502" lon="120.92257412969435"><ele>8.0</ele><time>2026-04-24T06:46:56.001Z</time></trkpt><trkpt lat="14.431325558788366" lon="120.92257791398035"><ele>7.999999999999999</ele><time>2026-04-24T06:46:57.001Z</time></trkpt><trkpt lat="14.43125871199751" lon="120.92257072192967"><ele>8.0</ele><time>2026-04-24T06:46:59.001Z</time></trkpt><trkpt lat="14.431182645909695" lon="120.92254338348089"><ele>8.333333333333332</ele><time>2026-04-24T06:47:03.001Z</time></trkpt><trkpt lat="14.431117834900125" lon="120.92253272000565"><ele>8.666666666666666</ele><time>2026-04-24T06:47:04.001Z</time></trkpt><trkpt lat="14.431036061095764" lon="120.92253108170407"><ele>9.0</ele><time>2026-04-24T06:47:05.001Z</time></trkpt><trkpt lat="14.430939521303285" lon="120.9225328784438"><ele>9.333333333333334</ele><time>2026-04-24T06:47:06.001Z</time></trkpt><trkpt lat="14.430844626643786" lon="120.92253459858732"><ele>9.666666666666668</ele><time>2026-04-24T06:47:07.001Z</time></trkpt><trkpt lat="14.430737695067705" lon="120.92253265211583"><ele>10.0</ele><time>2026-04-24T06:47:08.001Z</time></trkpt><trkpt lat="14.430618663116473" lon="120.92252442994058"><ele>10.0</ele><time>2026-04-24T06:47:09.001Z</time></trkpt><trkpt lat="14.43050416285495" lon="120.92251057014055"><ele>10.0</ele><time>2026-04-24T06:47:10.001Z</time></trkpt><trkpt lat="14.430377420488897" lon="120.92249966932859"><ele>10.0</ele><time>2026-04-24T06:47:11.001Z</time></trkpt><trkpt lat="14.430259551555931" lon="120.92248694279088"><ele>10.0</ele><time>2026-04-24T06:47:12.001Z</time></trkpt><trkpt lat="14.430139902213766" lon="120.92247430999484"><ele>9.75</ele><time>2026-04-24T06:47:13.001Z</time></trkpt><trkpt lat="14.43002198838359" lon="120.92245878268342"><ele>9.5</ele><time>2026-04-24T06:47:14.001Z</time></trkpt><trkpt lat="14.429900998926259" lon="120.92244732614425"><ele>9.25</ele><time>2026-04-24T06:47:15.001Z</time></trkpt><trkpt lat="14.429785949037909" lon="120.92243210014972"><ele>9.0</ele><time>2026-04-24T06:47:16.001Z</time></trkpt><trkpt lat="14.42968190748508" lon="120.92242045027389"><ele>9.0</ele><time>2026-04-24T06:47:17.001Z</time></trkpt><trkpt lat="14.429581444570411" lon="120.92240833583499"><ele>9.0</ele><time>2026-04-24T06:47:18.001Z</time></trkpt><trkpt lat="14.429486531047921" lon="120.92239505830052"><ele>9.0</ele><time>2026-04-24T06:47:19.001Z</time></trkpt><trkpt lat="14.429400943618857" lon="120.92238397841432"><ele>9.0</ele><time>2026-04-24T06:47:20.001Z</time></trkpt><trkpt lat="14.429324774025323" lon="120.9223760849506"><ele>9.0</ele><time>2026-04-24T06:47:21.001Z</time></trkpt><trkpt lat="14.42924523045731" lon="120.92237128476906"><ele>9.0</ele><time>2026-04-24T06:47:22.001Z</time></trkpt><trkpt lat="14.429116958549924" lon="120.92236559258359"><ele>9.0</ele><time>2026-04-24T06:47:24.001Z</time></trkpt><trkpt lat="14.428987657365198" lon="120.9223536864811"><ele>9.0</ele><time>2026-04-24T06:47:26.001Z</time></trkpt><trkpt lat="14.428893201512686" lon="120.92234641446251"><ele>9.0</ele><time>2026-04-24T06:47:28.001Z</time></trkpt><trkpt lat="14.428809244237025" lon="120.92233195265838"><ele>9.0</ele><time>2026-04-24T06:47:31.001Z</time></trkpt><trkpt lat="14.42874062831104" lon="120.92231801106006"><ele>9.0</ele><time>2026-04-24T06:47:35.001Z</time></trkpt><trkpt lat="14.428652346936593" lon="120.92232733328707"><ele>9.166666666666666</ele><time>2026-04-24T06:47:40.001Z</time></trkpt><trkpt lat="14.428569734877568" lon="120.92231963653693"><ele>9.333333333333334</ele><time>2026-04-24T06:47:42.001Z</time></trkpt><trkpt lat="14.428456581232213" lon="120.92230155293258"><ele>9.5</ele><time>2026-04-24T06:47:44.001Z</time></trkpt><trkpt lat="14.428389269945402" lon="120.92229601591163"><ele>9.666666666666668</ele><time>2026-04-24T06:47:45.001Z</time></trkpt><trkpt lat="14.42832022174319" lon="120.92229444116104"><ele>9.833333333333334</ele><time>2026-04-24T06:47:46.001Z</time></trkpt><trkpt lat="14.428253502823507" lon="120.9223048216322"><ele>10.0</ele><time>2026-04-24T06:47:47.001Z</time></trkpt><trkpt lat="14.428183929896337" lon="120.92232441132428"><ele>10.0</ele><time>2026-04-24T06:47:48.001Z</time></trkpt><trkpt lat="14.42810965326484" lon="120.92235588176074"><ele>10.0</ele><time>2026-04-24T06:47:49.002Z</time></trkpt><trkpt lat="14.428037189525499" lon="120.92240115094603"><ele>10.0</ele><time>2026-04-24T06:47:50.002Z</time></trkpt><trkpt lat="14.427966702149659" lon="120.92245073190988"><ele>10.0</ele><time>2026-04-24T06:47:51.002Z</time></trkpt><trkpt lat="14.42788196658313" lon="120.92250389739885"><ele>10.0</ele><time>2026-04-24T06:47:52.002Z</time></trkpt><trkpt lat="14.427800517420879" lon="120.92255239912468"><ele>10.0</ele><time>2026-04-24T06:47:53.002Z</time></trkpt><trkpt lat="14.42771680162578" lon="120.92260445381592"><ele>10.2</ele><time>2026-04-24T06:47:54.002Z</time></trkpt><trkpt lat="14.427631352256926" lon="120.92265837282872"><ele>10.4</ele><time>2026-04-24T06:47:55.002Z</time></trkpt><trkpt lat="14.427544678231934" lon="120.92271549065204"><ele>10.600000000000001</ele><time>2026-04-24T06:47:56.002Z</time></trkpt><trkpt lat="14.427454726115053" lon="120.92277375881598"><ele>10.8</ele><time>2026-04-24T06:47:57.002Z</time></trkpt><trkpt lat="14.427361904621295" lon="120.92283228636644"><ele>11.0</ele><time>2026-04-24T06:47:58.002Z</time></trkpt><trkpt lat="14.427273795436502" lon="120.92289016197498"><ele>11.0</ele><time>2026-04-24T06:47:59.002Z</time></trkpt><trkpt lat="14.427191482847537" lon="120.92294539601784"><ele>11.0</ele><time>2026-04-24T06:48:00.002Z</time></trkpt><trkpt lat="14.427107713225105" lon="120.92300155204002"><ele>11.0</ele><time>2026-04-24T06:48:01.002Z</time></trkpt><trkpt lat="14.427029505645846" lon="120.92305628204312"><ele>11.0</ele><time>2026-04-24T06:48:02.002Z</time></trkpt><trkpt lat="14.426953302716836" lon="120.92310040974934"><ele>11.0</ele><time>2026-04-24T06:48:03.002Z</time></trkpt><trkpt lat="14.426871846318118" lon="120.92314251395608"><ele>10.833333333333332</ele><time>2026-04-24T06:48:04.002Z</time></trkpt><trkpt lat="14.426800166816479" lon="120.92317876287419"><ele>10.666666666666666</ele><time>2026-04-24T06:48:05.002Z</time></trkpt><trkpt lat="14.426729805065857" lon="120.92320434819551"><ele>10.5</ele><time>2026-04-24T06:48:06.002Z</time></trkpt><trkpt lat="14.426660592246423" lon="120.92322578069026"><ele>10.333333333333334</ele><time>2026-04-24T06:48:07.002Z</time></trkpt><trkpt lat="14.426586991003152" lon="120.9232439997387"><ele>10.166666666666668</ele><time>2026-04-24T06:48:08.002Z</time></trkpt><trkpt lat="14.426508622245269" lon="120.92325016198622"><ele>10.0</ele><time>2026-04-24T06:48:09.002Z</time></trkpt><trkpt lat="14.426423549793592" lon="120.92324944269357"><ele>10.0</ele><time>2026-04-24T06:48:10.002Z</time></trkpt><trkpt lat="14.426333659151714" lon="120.92324994077916"><ele>10.0</ele><time>2026-04-24T06:48:11.002Z</time></trkpt><trkpt lat="14.426225832660752" lon="120.9232571564459"><ele>10.0</ele><time>2026-04-24T06:48:12.002Z</time></trkpt><trkpt lat="14.426112636494384" lon="120.92325959504575"><ele>10.0</ele><time>2026-04-24T06:48:13.002Z</time></trkpt><trkpt lat="14.425990507143327" lon="120.92325851005197"><ele>10.0</ele><time>2026-04-24T06:48:14.002Z</time></trkpt><trkpt lat="14.42585692994139" lon="120.9232552041596"><ele>10.0</ele><time>2026-04-24T06:48:15.002Z</time></trkpt><trkpt lat="14.42571817696178" lon="120.92325103740487"><ele>10.0</ele><time>2026-04-24T06:48:16.002Z</time></trkpt><trkpt lat="14.425562214644792" lon="120.92324224958963"><ele>10.0</ele><time>2026-04-24T06:48:17.002Z</time></trkpt><trkpt lat="14.425406057546411" lon="120.9232391807381"><ele>10.666666666666668</ele><time>2026-04-24T06:48:18.002Z</time></trkpt><trkpt lat="14.425246265445365" lon="120.92324296619586"><ele>11.333333333333334</ele><time>2026-04-24T06:48:19.002Z</time></trkpt><trkpt lat="14.425080443930666" lon="120.92324175073307"><ele>12.0</ele><time>2026-04-24T06:48:20.002Z</time></trkpt><trkpt lat="14.424914099735586" lon="120.92323149534087"><ele>12.0</ele><time>2026-04-24T06:48:21.002Z</time></trkpt><trkpt lat="14.424742041745793" lon="120.9232347905134"><ele>12.0</ele><time>2026-04-24T06:48:22.002Z</time></trkpt><trkpt lat="14.424591921951963" lon="120.92323039255203"><ele>12.0</ele><time>2026-04-24T06:48:23.002Z</time></trkpt><trkpt lat="14.424448898103485" lon="120.92323072849021"><ele>12.0</ele><time>2026-04-24T06:48:24.002Z</time></trkpt><trkpt lat="14.424318982899129" lon="120.92323191471749"><ele>12.0</ele><time>2026-04-24T06:48:25.002Z</time></trkpt><trkpt lat="14.424191126833998" lon="120.92323840922197"><ele>12.0</ele><time>2026-04-24T06:48:26.002Z</time></trkpt><trkpt lat="14.42405322795561" lon="120.92324430513335"><ele>12.0</ele><time>2026-04-24T06:48:27.002Z</time></trkpt><trkpt lat="14.423916662612248" lon="120.92325050744749"><ele>11.8</ele><time>2026-04-24T06:48:28.002Z</time></trkpt><trkpt lat="14.423791416470948" lon="120.92326127912771"><ele>11.6</ele><time>2026-04-24T06:48:29.002Z</time></trkpt><trkpt lat="14.423690917938087" lon="120.92326850627414"><ele>11.4</ele><time>2026-04-24T06:48:30.002Z</time></trkpt><trkpt lat="14.423596689693914" lon="120.9232679814332"><ele>11.200000000000001</ele><time>2026-04-24T06:48:31.002Z</time></trkpt><trkpt lat="14.42350640511188" lon="120.92326875380665"><ele>11.0</ele><time>2026-04-24T06:48:32.002Z</time></trkpt><trkpt lat="14.423428722403537" lon="120.92327205327632"><ele>11.0</ele><time>2026-04-24T06:48:33.002Z</time></trkpt><trkpt lat="14.423357218268785" lon="120.92327525266089"><ele>11.0</ele><time>2026-04-24T06:48:34.002Z</time></trkpt><trkpt lat="14.423292861920203" lon="120.9232782304935"><ele>11.0</ele><time>2026-04-24T06:48:35.002Z</time></trkpt><trkpt lat="14.423192477115018" lon="120.92328605939045"><ele>11.0</ele><time>2026-04-24T06:48:37.002Z</time></trkpt><trkpt lat="14.423122925735614" lon="120.923279159611"><ele>11.0</ele><time>2026-04-24T06:48:40.002Z</time></trkpt><trkpt lat="14.423123333202158" lon="120.92335025973814"><ele>11.0</ele><time>2026-04-24T06:49:07.001Z</time></trkpt><trkpt lat="14.423166419941534" lon="120.92340991809212"><ele>11.0</ele><time>2026-04-24T06:49:11.001Z</time></trkpt><trkpt lat="14.42323878401992" lon="120.92340856807981"><ele>11.0</ele><time>2026-04-24T08:51:42Z</time></trkpt><trkpt lat="14.42318366010716" lon="120.92344296949898"><ele>11.0</ele><time>2026-04-24T09:33:18.001Z</time></trkpt><trkpt lat="14.423119456807614" lon="120.92338343852771"><ele>11.0</ele><time>2026-04-24T10:44:47Z</time></trkpt><trkpt lat="14.423205435548095" lon="120.92335279747358"><ele>11.0</ele><time>2026-04-24T10:45:00Z</time></trkpt><trkpt lat="14.423277970306177" lon="120.92334658608846"><ele>11.0</ele><time>2026-04-24T10:45:02.001Z</time></trkpt><trkpt lat="14.423409609729386" lon="120.92334159885101"><ele>11.0</ele><time>2026-04-24T10:45:04.001Z</time></trkpt><trkpt lat="14.423478271617432" lon="120.92333628513828"><ele>11.0</ele><time>2026-04-24T10:45:05.001Z</time></trkpt><trkpt lat="14.423542669880765" lon="120.92332745615577"><ele>11.0</ele><time>2026-04-24T10:45:06.001Z</time></trkpt><trkpt lat="14.423608534260824" lon="120.92331900569386"><ele>11.0</ele><time>2026-04-24T10:45:07.001Z</time></trkpt><trkpt lat="14.423677150303991" lon="120.92330888793951"><ele>11.0</ele><time>2026-04-24T10:45:08.001Z</time></trkpt><trkpt lat="14.423746211284652" lon="120.92329737945747"><ele>11.0</ele><time>2026-04-24T10:45:09.001Z</time></trkpt><trkpt lat="14.423818095370965" lon="120.92328516379519"><ele>11.0</ele><time>2026-04-24T10:45:10.001Z</time></trkpt><trkpt lat="14.42389450181183" lon="120.9232675757721"><ele>11.0</ele><time>2026-04-24T10:45:11.001Z</time></trkpt><trkpt lat="14.423976577324323" lon="120.92325669323279"><ele>11.166666666666666</ele><time>2026-04-24T10:45:12.001Z</time></trkpt><trkpt lat="14.42405634546521" lon="120.92325073216143"><ele>11.333333333333332</ele><time>2026-04-24T10:45:13.001Z</time></trkpt><trkpt lat="14.424143918934762" lon="120.92324675375673"><ele>11.5</ele><time>2026-04-24T10:45:14.001Z</time></trkpt><trkpt lat="14.424226922425898" lon="120.9232465283212"><ele>11.666666666666666</ele><time>2026-04-24T10:45:15.001Z</time></trkpt><trkpt lat="14.4243137372148" lon="120.9232463723687"><ele>11.833333333333334</ele><time>2026-04-24T10:45:16.001Z</time></trkpt><trkpt lat="14.424406216574434" lon="120.92324826009418"><ele>12.0</ele><time>2026-04-24T10:45:17.001Z</time></trkpt><trkpt lat="14.424492071705247" lon="120.92324534289584"><ele>12.0</ele><time>2026-04-24T10:45:18.001Z</time></trkpt><trkpt lat="14.424586406403101" lon="120.92324371947697"><ele>12.0</ele><time>2026-04-24T10:45:19.001Z</time></trkpt><trkpt lat="14.424662648075346" lon="120.92324041583312"><ele>12.0</ele><time>2026-04-24T10:45:20.001Z</time></trkpt><trkpt lat="14.424726348869573" lon="120.923242119086"><ele>12.0</ele><time>2026-04-24T10:45:21.001Z</time></trkpt><trkpt lat="14.424791337706996" lon="120.92324318067966"><ele>12.0</ele><time>2026-04-24T10:45:22.001Z</time></trkpt><trkpt lat="14.424913961215836" lon="120.92323681190895"><ele>12.0</ele><time>2026-04-24T10:45:24.001Z</time></trkpt><trkpt lat="14.424985298290908" lon="120.92325305923576"><ele>12.0</ele><time>2026-04-24T10:45:25.001Z</time></trkpt><trkpt lat="14.425066649598563" lon="120.92325361902448"><ele>12.0</ele><time>2026-04-24T10:45:26.001Z</time></trkpt><trkpt lat="14.425151089454898" lon="120.92325420006645"><ele>12.0</ele><time>2026-04-24T10:45:27.001Z</time></trkpt><trkpt lat="14.42524162876078" lon="120.92325482307928"><ele>12.0</ele><time>2026-04-24T10:45:28.001Z</time></trkpt><trkpt lat="14.425341836080904" lon="120.92325551261847"><ele>12.0</ele><time>2026-04-24T10:45:29.001Z</time></trkpt><trkpt lat="14.425447685882624" lon="120.9232562409848"><ele>11.5</ele><time>2026-04-24T10:45:30.001Z</time></trkpt><trkpt lat="14.425554934239662" lon="120.92325712163226"><ele>11.0</ele><time>2026-04-24T10:45:31.001Z</time></trkpt><trkpt lat="14.425670854166238" lon="120.92325842840032"><ele>10.5</ele><time>2026-04-24T10:45:32.001Z</time></trkpt><trkpt lat="14.425784731266884" lon="120.92325971214076"><ele>10.0</ele><time>2026-04-24T10:45:33.001Z</time></trkpt><trkpt lat="14.42589745453674" lon="120.92326098287329"><ele>10.0</ele><time>2026-04-24T10:45:34.001Z</time></trkpt><trkpt lat="14.42601157955941" lon="120.92325864939502"><ele>10.0</ele><time>2026-04-24T10:45:35.001Z</time></trkpt><trkpt lat="14.426118301755258" lon="120.92325676741204"><ele>10.0</ele><time>2026-04-24T10:45:36.001Z</time></trkpt><trkpt lat="14.426223323350504" lon="120.92323921227351"><ele>10.0</ele><time>2026-04-24T10:45:37.001Z</time></trkpt><trkpt lat="14.426318282469076" lon="120.92324213531573"><ele>10.0</ele><time>2026-04-24T10:45:38.001Z</time></trkpt><trkpt lat="14.426408557421817" lon="120.92324542099954"><ele>10.0</ele><time>2026-04-24T10:45:39.001Z</time></trkpt><trkpt lat="14.426492945102058" lon="120.92324775457566"><ele>10.0</ele><time>2026-04-24T10:45:40.001Z</time></trkpt><trkpt lat="14.426562131510398" lon="120.92324390963282"><ele>10.0</ele><time>2026-04-24T10:45:41.001Z</time></trkpt><trkpt lat="14.426643484658767" lon="120.9232379619395"><ele>10.0</ele><time>2026-04-24T10:45:42.001Z</time></trkpt><trkpt lat="14.426716554086251" lon="120.92321808366603"><ele>10.0</ele><time>2026-04-24T10:45:43.001Z</time></trkpt><trkpt lat="14.426790033035868" lon="120.92318835628303"><ele>10.0</ele><time>2026-04-24T10:45:44.001Z</time></trkpt><trkpt lat="14.426852644212882" lon="120.92312839335322"><ele>10.0</ele><time>2026-04-24T10:45:45.001Z</time></trkpt><trkpt lat="14.426926722990682" lon="120.92308271053989"><ele>10.0</ele><time>2026-04-24T10:45:46.001Z</time></trkpt><trkpt lat="14.427003831285239" lon="120.92303475121878"><ele>10.0</ele><time>2026-04-24T10:45:47.001Z</time></trkpt><trkpt lat="14.427087307145156" lon="120.9229844160242"><ele>10.0</ele><time>2026-04-24T10:45:48.001Z</time></trkpt><trkpt lat="14.427170281543518" lon="120.9229336429071"><ele>10.0</ele><time>2026-04-24T10:45:49.001Z</time></trkpt><trkpt lat="14.427257704600144" lon="120.92288014759917"><ele>10.2</ele><time>2026-04-24T10:45:50.001Z</time></trkpt><trkpt lat="14.42734765025347" lon="120.92282510868"><ele>10.4</ele><time>2026-04-24T10:45:51.001Z</time></trkpt><trkpt lat="14.427436866603566" lon="120.92278793634036"><ele>10.600000000000001</ele><time>2026-04-24T10:45:52.001Z</time></trkpt><trkpt lat="14.427523022500111" lon="120.92273457801228"><ele>10.8</ele><time>2026-04-24T10:45:53.001Z</time></trkpt><trkpt lat="14.427602078430409" lon="120.92268547285494"><ele>11.0</ele><time>2026-04-24T10:45:54.001Z</time></trkpt><trkpt lat="14.427668871154783" lon="120.92263247334074"><ele>11.0</ele><time>2026-04-24T10:45:55.001Z</time></trkpt><trkpt lat="14.427746423560519" lon="120.9225802358661"><ele>11.0</ele><time>2026-04-24T10:45:56.001Z</time></trkpt><trkpt lat="14.427819387372958" lon="120.92253537280435"><ele>11.0</ele><time>2026-04-24T10:45:57.001Z</time></trkpt><trkpt lat="14.427885004215419" lon="120.92249899615724"><ele>11.0</ele><time>2026-04-24T10:45:58.001Z</time></trkpt><trkpt lat="14.4279410481759" lon="120.92246385763036"><ele>11.0</ele><time>2026-04-24T10:45:59.001Z</time></trkpt><trkpt lat="14.428016797858485" lon="120.9224166633385"><ele>11.0</ele><time>2026-04-24T10:46:01.001Z</time></trkpt><trkpt lat="14.428078186094293" lon="120.92236428039065"><ele>10.8</ele><time>2026-04-24T10:46:06Z</time></trkpt><trkpt lat="14.427996521391025" lon="120.92224455383722"><ele>10.600000000000001</ele><time>2026-04-24T10:46:11Z</time></trkpt><trkpt lat="14.427881806857215" lon="120.92223191737851"><ele>10.4</ele><time>2026-04-24T10:46:13Z</time></trkpt><trkpt lat="14.427816749096575" lon="120.92222657147586"><ele>10.2</ele><time>2026-04-24T10:46:14Z</time></trkpt><trkpt lat="14.427750555210658" lon="120.92221966531288"><ele>10.0</ele><time>2026-04-24T10:46:15Z</time></trkpt><trkpt lat="14.427673124510621" lon="120.92220903104467"><ele>10.0</ele><time>2026-04-24T10:46:16Z</time></trkpt><trkpt lat="14.427595013460886" lon="120.92220216572404"><ele>10.0</ele><time>2026-04-24T10:46:17Z</time></trkpt><trkpt lat="14.427515305058382" lon="120.92219513583375"><ele>10.0</ele><time>2026-04-24T10:46:18Z</time></trkpt><trkpt lat="14.427438761696095" lon="120.92218315405682"><ele>10.0</ele><time>2026-04-24T10:46:19Z</time></trkpt><trkpt lat="14.42735482637274" lon="120.92217160720068"><ele>10.0</ele><time>2026-04-24T10:46:20Z</time></trkpt><trkpt lat="14.427278471782753" lon="120.92216064079953"><ele>10.0</ele><time>2026-04-24T10:46:21Z</time></trkpt><trkpt lat="14.42720185627772" lon="120.92215368878901"><ele>10.0</ele><time>2026-04-24T10:46:22Z</time></trkpt><trkpt lat="14.42713287692" lon="120.9221474538045"><ele>10.0</ele><time>2026-04-24T10:46:23Z</time></trkpt><trkpt lat="14.427064933188584" lon="120.92214286487463"><ele>10.0</ele><time>2026-04-24T10:46:24Z</time></trkpt><trkpt lat="14.426999999495353" lon="120.92213373212435"><ele>10.0</ele><time>2026-04-24T10:46:25Z</time></trkpt><trkpt lat="14.426892412702042" lon="120.92211528463642"><ele>10.0</ele><time>2026-04-24T10:46:27Z</time></trkpt><trkpt lat="14.426814168928951" lon="120.92210418987355"><ele>10.0</ele><time>2026-04-24T10:46:29Z</time></trkpt><trkpt lat="14.426763405938704" lon="120.92203554148449"><ele>10.0</ele><time>2026-04-24T10:46:31Z</time></trkpt><trkpt lat="14.42670450550126" lon="120.92194984290155"><ele>10.0</ele><time>2026-04-24T10:46:35Z</time></trkpt><trkpt lat="14.426767645700327" lon="120.92187447034654"><ele>10.0</ele><time>2026-04-24T10:46:36Z</time></trkpt><trkpt lat="14.426777102711167" lon="120.92177023016565"><ele>10.0</ele><time>2026-04-24T10:46:40Z</time></trkpt><trkpt lat="14.426789049052454" lon="120.92163856977436"><ele>10.0</ele><time>2026-04-24T10:46:42Z</time></trkpt><trkpt lat="14.426795990921862" lon="120.9215620635598"><ele>10.333333333333334</ele><time>2026-04-24T10:46:43Z</time></trkpt><trkpt lat="14.426802918180563" lon="120.9214866830595"><ele>10.666666666666668</ele><time>2026-04-24T10:46:44Z</time></trkpt><trkpt lat="14.426810156772342" lon="120.921407135321"><ele>11.0</ele><time>2026-04-24T10:46:45Z</time></trkpt><trkpt lat="14.42681699671161" lon="120.92133193226506"><ele>11.333333333333334</ele><time>2026-04-24T10:46:46Z</time></trkpt><trkpt lat="14.426824639751299" lon="120.92124789937672"><ele>11.666666666666666</ele><time>2026-04-24T10:46:47Z</time></trkpt><trkpt lat="14.426832723966633" lon="120.9211590158906"><ele>12.0</ele><time>2026-04-24T10:46:48Z</time></trkpt><trkpt lat="14.426845660898806" lon="120.92101580100325"><ele>12.0</ele><time>2026-04-24T10:46:50Z</time></trkpt><trkpt lat="14.426851706849563" lon="120.92093299800422"><ele>12.0</ele><time>2026-04-24T10:46:51Z</time></trkpt><trkpt lat="14.426855574884845" lon="120.92085583556798"><ele>12.0</ele><time>2026-04-24T10:46:52Z</time></trkpt><trkpt lat="14.426830296515384" lon="120.92076572312848"><ele>12.0</ele><time>2026-04-24T10:46:53.001Z</time></trkpt><trkpt lat="14.426816075609697" lon="120.9206928995982"><ele>12.0</ele><time>2026-04-24T10:46:54.001Z</time></trkpt><trkpt lat="14.42672829223195" lon="120.92061492484679"><ele>12.0</ele><time>2026-04-24T10:46:55.001Z</time></trkpt><trkpt lat="14.426658767247858" lon="120.92057533683587"><ele>11.8</ele><time>2026-04-24T10:46:56.001Z</time></trkpt><trkpt lat="14.426592985062033" lon="120.92053567019121"><ele>11.6</ele><time>2026-04-24T10:46:57.001Z</time></trkpt><trkpt lat="14.426513709970793" lon="120.92051480518839"><ele>11.4</ele><time>2026-04-24T10:46:58.001Z</time></trkpt><trkpt lat="14.426400161426496" lon="120.92047267935459"><ele>11.200000000000001</ele><time>2026-04-24T10:47:00.001Z</time></trkpt><trkpt lat="14.426303268945302" lon="120.92043828462197"><ele>11.0</ele><time>2026-04-24T10:47:02.001Z</time></trkpt><trkpt lat="14.426212917495231" lon="120.92040621181636"><ele>11.0</ele><time>2026-04-24T10:47:04.001Z</time></trkpt><trkpt lat="14.426161145186116" lon="120.92036007692066"><ele>11.0</ele><time>2026-04-24T10:47:09.001Z</time></trkpt><trkpt lat="14.426136369189921" lon="120.92028898712748"><ele>11.0</ele><time>2026-04-24T10:47:11.001Z</time></trkpt><trkpt lat="14.426139836177256" lon="120.92017751463278"><ele>11.0</ele><time>2026-04-24T10:47:13.001Z</time></trkpt><trkpt lat="14.426140819117496" lon="120.92010904907781"><ele>11.0</ele><time>2026-04-24T10:47:16.001Z</time></trkpt><trkpt lat="14.426141943332912" lon="120.92003074236231"><ele>11.0</ele><time>2026-04-24T10:47:20.001Z</time></trkpt><trkpt lat="14.426125523268462" lon="120.91991370772392"><ele>10.4</ele><time>2026-04-24T10:47:22.001Z</time></trkpt><trkpt lat="14.42611507841045" lon="120.91979813415827"><ele>9.8</ele><time>2026-04-24T10:47:24.001Z</time></trkpt><trkpt lat="14.426106458184924" lon="120.91970658815288"><ele>9.200000000000001</ele><time>2026-04-24T10:47:26.001Z</time></trkpt><trkpt lat="14.426099768366136" lon="120.919606050035"><ele>8.600000000000001</ele><time>2026-04-24T10:47:29.001Z</time></trkpt><trkpt lat="14.426096691995106" lon="120.91952612916668"><ele>8.0</ele><time>2026-04-24T10:47:31.001Z</time></trkpt><trkpt lat="14.42609319736014" lon="120.91943534222806"><ele>8.0</ele><time>2026-04-24T10:47:33.001Z</time></trkpt><trkpt lat="14.42608945089963" lon="120.91933801317703"><ele>8.0</ele><time>2026-04-24T10:47:35.001Z</time></trkpt><trkpt lat="14.426085619920167" lon="120.91923848835387"><ele>8.0</ele><time>2026-04-24T10:47:37.001Z</time></trkpt><trkpt lat="14.426081708401343" lon="120.91913687120456"><ele>8.0</ele><time>2026-04-24T10:47:39.001Z</time></trkpt><trkpt lat="14.426077280948055" lon="120.9190218506172"><ele>8.0</ele><time>2026-04-24T10:47:41.001Z</time></trkpt><trkpt lat="14.426072757152365" lon="120.91890432713556"><ele>8.200000000000001</ele><time>2026-04-24T10:47:43.001Z</time></trkpt><trkpt lat="14.426063961941674" lon="120.91881390304121"><ele>8.4</ele><time>2026-04-24T10:47:45.001Z</time></trkpt><trkpt lat="14.426056699602478" lon="120.9187338942114"><ele>8.600000000000001</ele><time>2026-04-24T10:47:50.001Z</time></trkpt><trkpt lat="14.426045162585377" lon="120.91860679148678"><ele>8.8</ele><time>2026-04-24T10:47:52.001Z</time></trkpt><trkpt lat="14.4260387328471" lon="120.91853595537599"><ele>9.0</ele><time>2026-04-24T10:47:53.001Z</time></trkpt><trkpt lat="14.426029315943277" lon="120.9184322098333"><ele>9.166666666666666</ele><time>2026-04-24T10:47:55.001Z</time></trkpt><trkpt lat="14.425967866583251" lon="120.91838372483379"><ele>9.333333333333334</ele><time>2026-04-24T10:47:59.001Z</time></trkpt><trkpt lat="14.425958579742268" lon="120.91829273866334"><ele>9.5</ele><time>2026-04-24T10:48:01.001Z</time></trkpt><trkpt lat="14.425955563308017" lon="120.918178761969"><ele>9.666666666666668</ele><time>2026-04-24T10:48:03.001Z</time></trkpt><trkpt lat="14.425930228272792" lon="120.91809051374376"><ele>9.833333333333334</ele><time>2026-04-24T10:48:05.001Z</time></trkpt><trkpt lat="14.425892455224417" lon="120.9180327693827"><ele>10.0</ele><time>2026-04-24T10:48:07.002Z</time></trkpt><trkpt lat="14.425847635523033" lon="120.91795256812844"><ele>10.0</ele><time>2026-04-24T10:48:10.001Z</time></trkpt><trkpt lat="14.425817158752109" lon="120.91782756261996"><ele>10.0</ele><time>2026-04-24T10:48:12.001Z</time></trkpt><trkpt lat="14.425813277928711" lon="120.9177421417278"><ele>10.0</ele><time>2026-04-24T10:48:13.001Z</time></trkpt><trkpt lat="14.425798395976194" lon="120.91759535931871"><ele>10.0</ele><time>2026-04-24T10:48:15.001Z</time></trkpt><trkpt lat="14.425795040139763" lon="120.91752260279148"><ele>10.0</ele><time>2026-04-24T10:48:16.001Z</time></trkpt><trkpt lat="14.425794658283474" lon="120.91745178103798"><ele>10.4</ele><time>2026-04-24T10:48:17.001Z</time></trkpt><trkpt lat="14.42578429390957" lon="120.91733410942811"><ele>10.8</ele><time>2026-04-24T10:48:19.001Z</time></trkpt><trkpt lat="14.42578574783483" lon="120.91722726163815"><ele>11.2</ele><time>2026-04-24T10:48:21.001Z</time></trkpt><trkpt lat="14.42577371564644" lon="120.91714369465318"><ele>11.6</ele><time>2026-04-24T10:48:23.001Z</time></trkpt><trkpt lat="14.425766254824161" lon="120.91707282976311"><ele>12.0</ele><time>2026-04-24T10:48:26.001Z</time></trkpt><trkpt lat="14.42576294920077" lon="120.91696057123495"><ele>12.0</ele><time>2026-04-24T10:48:30.001Z</time></trkpt><trkpt lat="14.425750650783018" lon="120.91683663303942"><ele>12.0</ele><time>2026-04-24T10:48:32.001Z</time></trkpt><trkpt lat="14.425743493326125" lon="120.91677120279832"><ele>12.0</ele><time>2026-04-24T10:48:33.001Z</time></trkpt><trkpt lat="14.425738582467854" lon="120.91668797667599"><ele>12.0</ele><time>2026-04-24T10:48:35.001Z</time></trkpt><trkpt lat="14.425732777604294" lon="120.91658438811122"><ele>12.0</ele><time>2026-04-24T10:48:37.001Z</time></trkpt><trkpt lat="14.425727920960322" lon="120.9164713188643"><ele>11.666666666666666</ele><time>2026-04-24T10:48:39.001Z</time></trkpt><trkpt lat="14.425726223379343" lon="120.91635640985164"><ele>11.333333333333334</ele><time>2026-04-24T10:48:41.001Z</time></trkpt><trkpt lat="14.425722627153744" lon="120.9162542803249"><ele>11.0</ele><time>2026-04-24T10:48:43.001Z</time></trkpt><trkpt lat="14.425718006813433" lon="120.91616244951756"><ele>10.666666666666668</ele><time>2026-04-24T10:48:46.001Z</time></trkpt><trkpt lat="14.425727212315715" lon="120.91609237878262"><ele>10.333333333333334</ele><time>2026-04-24T10:48:49.001Z</time></trkpt><trkpt lat="14.425761864784125" lon="120.91602566376224"><ele>10.0</ele><time>2026-04-24T10:48:54.001Z</time></trkpt><trkpt lat="14.42578253752708" lon="120.91595530114512"><ele>9.833333333333334</ele><time>2026-04-24T10:48:57.001Z</time></trkpt><trkpt lat="14.42575278145276" lon="120.91588386210027"><ele>9.666666666666668</ele><time>2026-04-24T10:49:02.001Z</time></trkpt><trkpt lat="14.425663713168554" lon="120.91585892688963"><ele>9.5</ele><time>2026-04-24T10:49:05.001Z</time></trkpt><trkpt lat="14.425598733005518" lon="120.9158377777574"><ele>9.333333333333334</ele><time>2026-04-24T10:49:07.001Z</time></trkpt><trkpt lat="14.42550596462599" lon="120.91581233983923"><ele>9.166666666666666</ele><time>2026-04-24T10:49:10.001Z</time></trkpt><trkpt lat="14.425438060886947" lon="120.91580423893322"><ele>9.0</ele><time>2026-04-24T10:49:12.001Z</time></trkpt><trkpt lat="14.42536170982508" lon="120.91580119311239"><ele>9.0</ele><time>2026-04-24T10:49:14.001Z</time></trkpt><trkpt lat="14.425290659952271" lon="120.91579986313488"><ele>9.0</ele><time>2026-04-24T10:49:16.001Z</time></trkpt><trkpt lat="14.425203702314889" lon="120.91579919285246"><ele>9.0</ele><time>2026-04-24T10:49:18.001Z</time></trkpt><trkpt lat="14.425106552403342" lon="120.91580100258419"><ele>9.0</ele><time>2026-04-24T10:49:20.001Z</time></trkpt><trkpt lat="14.425034130181889" lon="120.91579948807987"><ele>9.0</ele><time>2026-04-24T10:49:22.001Z</time></trkpt><trkpt lat="14.424960502158648" lon="120.9158015151323"><ele>9.0</ele><time>2026-04-24T10:49:24.001Z</time></trkpt><trkpt lat="14.42489031333099" lon="120.91580079856443"><ele>9.000000000000002</ele><time>2026-04-24T10:49:26.001Z</time></trkpt><trkpt lat="14.424797466431123" lon="120.91580162238532"><ele>9.0</ele><time>2026-04-24T10:49:29.001Z</time></trkpt><trkpt lat="14.424723307372854" lon="120.91580688276836"><ele>9.0</ele><time>2026-04-24T10:49:31.001Z</time></trkpt><trkpt lat="14.424649899751266" lon="120.9158073166123"><ele>9.0</ele><time>2026-04-24T10:49:33.001Z</time></trkpt><trkpt lat="14.424578280972005" lon="120.91581304551185"><ele>9.0</ele><time>2026-04-24T10:49:35.001Z</time></trkpt><trkpt lat="14.42451419151162" lon="120.91581234011967"><ele>9.000000000000002</ele><time>2026-04-24T10:49:37.001Z</time></trkpt><trkpt lat="14.424444026679277" lon="120.9158132805675"><ele>9.0</ele><time>2026-04-24T10:49:44.001Z</time></trkpt><trkpt lat="14.424330457131493" lon="120.91581661260047"><ele>9.0</ele><time>2026-04-24T10:49:46.001Z</time></trkpt><trkpt lat="14.424259666777186" lon="120.91581899724764"><ele>9.0</ele><time>2026-04-24T10:49:47.001Z</time></trkpt><trkpt lat="14.424195103533165" lon="120.91582223301151"><ele>9.0</ele><time>2026-04-24T10:49:48.001Z</time></trkpt><trkpt lat="14.424117800032803" lon="120.91583075224962"><ele>9.0</ele><time>2026-04-24T10:49:49.001Z</time></trkpt><trkpt lat="14.423983262039595" lon="120.91583447125971"><ele>9.0</ele><time>2026-04-24T10:49:51.001Z</time></trkpt><trkpt lat="14.423912154190385" lon="120.91583489798168"><ele>9.0</ele><time>2026-04-24T10:49:52.001Z</time></trkpt><trkpt lat="14.423836973185153" lon="120.91583637980123"><ele>9.166666666666666</ele><time>2026-04-24T10:49:53.001Z</time></trkpt><trkpt lat="14.423762992562105" lon="120.91584076489035"><ele>9.333333333333334</ele><time>2026-04-24T10:49:54.001Z</time></trkpt><trkpt lat="14.423683076298424" lon="120.9158450139482"><ele>9.5</ele><time>2026-04-24T10:49:55.001Z</time></trkpt><trkpt lat="14.423607998004536" lon="120.91584575512856"><ele>9.666666666666668</ele><time>2026-04-24T10:49:56.001Z</time></trkpt><trkpt lat="14.423526989663047" lon="120.91584676300809"><ele>9.833333333333334</ele><time>2026-04-24T10:49:57.001Z</time></trkpt><trkpt lat="14.423445167191037" lon="120.91585006819233"><ele>10.0</ele><time>2026-04-24T10:49:58.002Z</time></trkpt><trkpt lat="14.423369429734835" lon="120.91585467619349"><ele>10.0</ele><time>2026-04-24T10:49:59.002Z</time></trkpt><trkpt lat="14.42329492021511" lon="120.9158625097688"><ele>10.0</ele><time>2026-04-24T10:50:00.002Z</time></trkpt><trkpt lat="14.42321961408328" lon="120.9158584236129"><ele>10.0</ele><time>2026-04-24T10:50:01.002Z</time></trkpt><trkpt lat="14.423155721037656" lon="120.91586396962987"><ele>10.0</ele><time>2026-04-24T10:50:02.002Z</time></trkpt><trkpt lat="14.42308732474661" lon="120.91586754245725"><ele>10.0</ele><time>2026-04-24T10:50:03.002Z</time></trkpt><trkpt lat="14.423018121196181" lon="120.91586934754403"><ele>10.0</ele><time>2026-04-24T10:50:04.002Z</time></trkpt><trkpt lat="14.422906813852961" lon="120.91587768952647"><ele>10.333333333333334</ele><time>2026-04-24T10:50:06.002Z</time></trkpt><trkpt lat="14.422832906860442" lon="120.91588058593051"><ele>10.666666666666668</ele><time>2026-04-24T10:50:08.002Z</time></trkpt><trkpt lat="14.422763524148532" lon="120.91588629491325"><ele>11.0</ele><time>2026-04-24T10:50:11.002Z</time></trkpt><trkpt lat="14.422668771824034" lon="120.91588433570828"><ele>11.333333333333334</ele><time>2026-04-24T10:50:20.001Z</time></trkpt><trkpt lat="14.42263139973568" lon="120.91581938639443"><ele>11.666666666666666</ele><time>2026-04-24T10:50:26.001Z</time></trkpt><trkpt lat="14.422629189472875" lon="120.91574591353401"><ele>12.0</ele><time>2026-04-24T10:50:30.001Z</time></trkpt><trkpt lat="14.422618513978248" lon="120.91567776185148"><ele>11.999999999999998</ele><time>2026-04-24T10:50:34.001Z</time></trkpt><trkpt lat="14.422610287488405" lon="120.91560445894446"><ele>12.0</ele><time>2026-04-24T10:50:38.001Z</time></trkpt><trkpt lat="14.422599142157733" lon="120.91553669932476"><ele>12.0</ele><time>2026-04-24T10:50:42.001Z</time></trkpt><trkpt lat="14.42258612317687" lon="120.91547272512376"><ele>12.0</ele><time>2026-04-24T10:50:48.001Z</time></trkpt><trkpt lat="14.42257723984458" lon="120.91540124280051"><ele>12.0</ele><time>2026-04-24T10:50:52.001Z</time></trkpt><trkpt lat="14.422561571200054" lon="120.91531734650937"><ele>11.999999999999998</ele><time>2026-04-24T10:50:55.001Z</time></trkpt><trkpt lat="14.422550767303722" lon="120.91525048894808"><ele>12.0</ele><time>2026-04-24T10:50:57.001Z</time></trkpt><trkpt lat="14.422537431511953" lon="120.91517437426621"><ele>11.999999999999998</ele><time>2026-04-24T10:50:59.001Z</time></trkpt><trkpt lat="14.422522179960849" lon="120.9151024892407"><ele>12.0</ele><time>2026-04-24T10:51:02.001Z</time></trkpt><trkpt lat="14.422502317767991" lon="120.91503700898049"><ele>12.0</ele><time>2026-04-24T10:51:05.001Z</time></trkpt><trkpt lat="14.422476299381154" lon="120.9149776452735"><ele>12.0</ele><time>2026-04-24T10:51:09.001Z</time></trkpt><trkpt lat="14.422431061678614" lon="120.91490777456254"><ele>12.0</ele><time>2026-04-24T10:51:15.001Z</time></trkpt><trkpt lat="14.422397491119737" lon="120.91484183993103"><ele>11.999999999999998</ele><time>2026-04-24T10:51:18.001Z</time></trkpt><trkpt lat="14.42236538096246" lon="120.91477600965119"><ele>12.0</ele><time>2026-04-24T10:51:20.001Z</time></trkpt><trkpt lat="14.422349658797968" lon="120.91471055881466"><ele>11.999999999999998</ele><time>2026-04-24T10:51:23.001Z</time></trkpt><trkpt lat="14.42232469472068" lon="120.91463970941672"><ele>12.0</ele><time>2026-04-24T10:51:27.001Z</time></trkpt><trkpt lat="14.422295966185924" lon="120.9145601883009"><ele>12.0</ele><time>2026-04-24T10:51:31.001Z</time></trkpt><trkpt lat="14.42228230319348" lon="120.91449568209877"><ele>12.0</ele><time>2026-04-24T10:51:32.001Z</time></trkpt><trkpt lat="14.422277692268972" lon="120.91442837508323"><ele>12.0</ele><time>2026-04-24T10:51:33.001Z</time></trkpt><trkpt lat="14.42226417677747" lon="120.91434056015962"><ele>11.999999999999998</ele><time>2026-04-24T10:51:35.001Z</time></trkpt><trkpt lat="14.422251070071486" lon="120.91427192180164"><ele>12.0</ele><time>2026-04-24T10:51:38.001Z</time></trkpt><trkpt lat="14.422232409418934" lon="120.91417944590867"><ele>11.999999999999998</ele><time>2026-04-24T10:51:40.001Z</time></trkpt><trkpt lat="14.422217015915626" lon="120.91410784545506"><ele>12.0</ele><time>2026-04-24T10:51:42.001Z</time></trkpt><trkpt lat="14.422199322509128" lon="120.91402865458139"><ele>12.0</ele><time>2026-04-24T10:51:46.001Z</time></trkpt><trkpt lat="14.4221839338842" lon="120.91395981543607"><ele>12.0</ele><time>2026-04-24T10:51:48.001Z</time></trkpt><trkpt lat="14.422166823611912" lon="120.91388789937142"><ele>12.0</ele><time>2026-04-24T10:51:53.001Z</time></trkpt><trkpt lat="14.422139898755818" lon="120.91380832493903"><ele>11.999999999999998</ele><time>2026-04-24T10:51:56.001Z</time></trkpt><trkpt lat="14.42212823901703" lon="120.91374361671352"><ele>12.0</ele><time>2026-04-24T10:52:01.002Z</time></trkpt><trkpt lat="14.422105103389235" lon="120.91365512674565"><ele>11.833333333333334</ele><time>2026-04-24T10:52:05.002Z</time></trkpt><trkpt lat="14.42208509421004" lon="120.913583685997"><ele>11.666666666666666</ele><time>2026-04-24T10:52:09.002Z</time></trkpt><trkpt lat="14.422067950909671" lon="120.91350373464704"><ele>11.5</ele><time>2026-04-24T10:52:13.002Z</time></trkpt><trkpt lat="14.422057537059288" lon="120.91341197445131"><ele>11.333333333333332</ele><time>2026-04-24T10:52:16.002Z</time></trkpt><trkpt lat="14.422043959697074" lon="120.91333806789187"><ele>11.166666666666666</ele><time>2026-04-24T10:52:19.002Z</time></trkpt><trkpt lat="14.422022925524805" lon="120.9132511674222"><ele>11.0</ele><time>2026-04-24T10:52:24.001Z</time></trkpt><trkpt lat="14.421992357158395" lon="120.91315583906783"><ele>11.0</ele><time>2026-04-24T10:52:26.001Z</time></trkpt><trkpt lat="14.421978601435908" lon="120.91307326554214"><ele>11.0</ele><time>2026-04-24T10:52:27.001Z</time></trkpt><trkpt lat="14.421971582306174" lon="120.9129946446285"><ele>11.0</ele><time>2026-04-24T10:52:28.001Z</time></trkpt><trkpt lat="14.421965389141265" lon="120.91292561402012"><ele>11.0</ele><time>2026-04-24T10:52:29.001Z</time></trkpt><trkpt lat="14.42195592445118" lon="120.91280209639841"><ele>11.0</ele><time>2026-04-24T10:52:31.001Z</time></trkpt><trkpt lat="14.421953683421448" lon="120.91268101373981"><ele>11.0</ele><time>2026-04-24T10:52:33.001Z</time></trkpt><trkpt lat="14.421948712651753" lon="120.91256575817758"><ele>11.0</ele><time>2026-04-24T10:52:35.001Z</time></trkpt><trkpt lat="14.421922352309439" lon="120.91244101188018"><ele>11.0</ele><time>2026-04-24T10:52:37.001Z</time></trkpt><trkpt lat="14.42189855845936" lon="120.91237486163642"><ele>11.0</ele><time>2026-04-24T10:52:38.001Z</time></trkpt><trkpt lat="14.421877351311588" lon="120.91230605106897"><ele>11.0</ele><time>2026-04-24T10:52:39.001Z</time></trkpt><trkpt lat="14.42185922894751" lon="120.91222402935472"><ele>11.0</ele><time>2026-04-24T10:52:40.001Z</time></trkpt><trkpt lat="14.42184428418745" lon="120.91213759387071"><ele>11.0</ele><time>2026-04-24T10:52:41.001Z</time></trkpt><trkpt lat="14.421822281692641" lon="120.91205021437595"><ele>11.0</ele><time>2026-04-24T10:52:42.001Z</time></trkpt><trkpt lat="14.42180087861926" lon="120.91194812960838"><ele>11.0</ele><time>2026-04-24T10:52:43.001Z</time></trkpt><trkpt lat="14.421771063275662" lon="120.91184792549814"><ele>11.0</ele><time>2026-04-24T10:52:44.001Z</time></trkpt><trkpt lat="14.421750051013678" lon="120.91173426812946"><ele>10.8</ele><time>2026-04-24T10:52:45.001Z</time></trkpt><trkpt lat="14.421721486659768" lon="120.911629554222"><ele>10.600000000000001</ele><time>2026-04-24T10:52:46.001Z</time></trkpt><trkpt lat="14.421697598398344" lon="120.91152797434981"><ele>10.4</ele><time>2026-04-24T10:52:47.001Z</time></trkpt><trkpt lat="14.421676656370142" lon="120.91142898168579"><ele>10.2</ele><time>2026-04-24T10:52:48.001Z</time></trkpt><trkpt lat="14.421651573215755" lon="120.91133559461625"><ele>10.0</ele><time>2026-04-24T10:52:49.001Z</time></trkpt><trkpt lat="14.421626573837187" lon="120.91122618649342"><ele>10.0</ele><time>2026-04-24T10:52:50.001Z</time></trkpt><trkpt lat="14.421603772129904" lon="120.9111285944142"><ele>10.0</ele><time>2026-04-24T10:52:51.001Z</time></trkpt><trkpt lat="14.421580310055388" lon="120.91102733410757"><ele>10.0</ele><time>2026-04-24T10:52:52.001Z</time></trkpt><trkpt lat="14.421554563050856" lon="120.91092506279449"><ele>10.0</ele><time>2026-04-24T10:52:53.001Z</time></trkpt><trkpt lat="14.421530233841553" lon="120.9108254544462"><ele>10.0</ele><time>2026-04-24T10:52:54.001Z</time></trkpt><trkpt lat="14.421504416640046" lon="120.91073010955228"><ele>9.833333333333334</ele><time>2026-04-24T10:52:55.001Z</time></trkpt><trkpt lat="14.42148133142679" lon="120.91063865894846"><ele>9.666666666666668</ele><time>2026-04-24T10:52:56.001Z</time></trkpt><trkpt lat="14.421462547928405" lon="120.9105537961675"><ele>9.5</ele><time>2026-04-24T10:52:57.001Z</time></trkpt><trkpt lat="14.421443990812971" lon="120.91047565935413"><ele>9.333333333333334</ele><time>2026-04-24T10:52:58.001Z</time></trkpt><trkpt lat="14.421421487542935" lon="120.91040244308591"><ele>9.166666666666666</ele><time>2026-04-24T10:52:59.001Z</time></trkpt><trkpt lat="14.421398123394088" lon="120.91032103925454"><ele>9.0</ele><time>2026-04-24T10:53:00.001Z</time></trkpt><trkpt lat="14.42137405199309" lon="120.91024341009717"><ele>9.0</ele><time>2026-04-24T10:53:01.001Z</time></trkpt><trkpt lat="14.421343258093774" lon="120.91016941664235"><ele>9.0</ele><time>2026-04-24T10:53:02.001Z</time></trkpt><trkpt lat="14.421320923294271" lon="120.91009289030417"><ele>9.0</ele><time>2026-04-24T10:53:03.001Z</time></trkpt><trkpt lat="14.42131326624652" lon="120.9100181179047"><ele>9.0</ele><time>2026-04-24T10:53:04.001Z</time></trkpt><trkpt lat="14.421284691191959" lon="120.90989483578295"><ele>9.0</ele><time>2026-04-24T10:53:06.001Z</time></trkpt><trkpt lat="14.421259908593557" lon="120.90982199081951"><ele>9.0</ele><time>2026-04-24T10:53:07.001Z</time></trkpt><trkpt lat="14.421244319017353" lon="120.90975242981173"><ele>9.333333333333334</ele><time>2026-04-24T10:53:08.001Z</time></trkpt><trkpt lat="14.42121132778344" lon="120.90968131471472"><ele>9.666666666666666</ele><time>2026-04-24T10:53:09.001Z</time></trkpt><trkpt lat="14.421204532763888" lon="120.90960318978028"><ele>10.0</ele><time>2026-04-24T10:53:10.001Z</time></trkpt><trkpt lat="14.421187632961228" lon="120.90951794652199"><ele>10.333333333333332</ele><time>2026-04-24T10:53:11.001Z</time></trkpt><trkpt lat="14.42116795930585" lon="120.90943875941008"><ele>10.666666666666666</ele><time>2026-04-24T10:53:12.001Z</time></trkpt><trkpt lat="14.421144228633782" lon="120.90934325224515"><ele>11.0</ele><time>2026-04-24T10:53:13.001Z</time></trkpt><trkpt lat="14.421120881590562" lon="120.90924518794037"><ele>10.666666666666666</ele><time>2026-04-24T10:53:14.001Z</time></trkpt><trkpt lat="14.42109955985462" lon="120.90914165006265"><ele>10.333333333333332</ele><time>2026-04-24T10:53:15.001Z</time></trkpt><trkpt lat="14.42108258992577" lon="120.90905183139552"><ele>10.0</ele><time>2026-04-24T10:53:16.001Z</time></trkpt><trkpt lat="14.421058426976188" lon="120.9089787691219"><ele>9.666666666666666</ele><time>2026-04-24T10:53:17.001Z</time></trkpt><trkpt lat="14.421048625033595" lon="120.90889277295523"><ele>9.333333333333334</ele><time>2026-04-24T10:53:18.001Z</time></trkpt><trkpt lat="14.421021313211684" lon="120.9088144107267"><ele>9.0</ele><time>2026-04-24T10:53:19.001Z</time></trkpt><trkpt lat="14.420997912243124" lon="120.9087312710292"><ele>9.0</ele><time>2026-04-24T10:53:20.001Z</time></trkpt><trkpt lat="14.420981382936509" lon="120.9086493665858"><ele>9.0</ele><time>2026-04-24T10:53:21.001Z</time></trkpt><trkpt lat="14.42095126008137" lon="120.90856573997115"><ele>9.0</ele><time>2026-04-24T10:53:22.001Z</time></trkpt><trkpt lat="14.420919851751862" lon="120.90847605096116"><ele>9.0</ele><time>2026-04-24T10:53:23.001Z</time></trkpt><trkpt lat="14.420877523213665" lon="120.90838835918454"><ele>9.0</ele><time>2026-04-24T10:53:24.001Z</time></trkpt><trkpt lat="14.420832527423983" lon="120.90830005947952"><ele>9.0</ele><time>2026-04-24T10:53:25.001Z</time></trkpt><trkpt lat="14.420782819223485" lon="120.90821748819441"><ele>9.0</ele><time>2026-04-24T10:53:26.001Z</time></trkpt><trkpt lat="14.420734593996043" lon="120.90813144450122"><ele>9.0</ele><time>2026-04-24T10:53:27.001Z</time></trkpt><trkpt lat="14.420697276639103" lon="120.90804202270924"><ele>9.0</ele><time>2026-04-24T10:53:28.001Z</time></trkpt><trkpt lat="14.420665411357195" lon="120.9079398959665"><ele>9.0</ele><time>2026-04-24T10:53:29.001Z</time></trkpt><trkpt lat="14.420634425978992" lon="120.90783969281233"><ele>9.0</ele><time>2026-04-24T10:53:30.001Z</time></trkpt><trkpt lat="14.42060086568289" lon="120.90773379344397"><ele>9.0</ele><time>2026-04-24T10:53:31.001Z</time></trkpt><trkpt lat="14.420562572248707" lon="120.90761793221417"><ele>9.0</ele><time>2026-04-24T10:53:32.001Z</time></trkpt><trkpt lat="14.420525647395044" lon="120.90750423880347"><ele>9.0</ele><time>2026-04-24T10:53:33.001Z</time></trkpt><trkpt lat="14.420492132063687" lon="120.90738650274278"><ele>9.4</ele><time>2026-04-24T10:53:34.001Z</time></trkpt><trkpt lat="14.42046046492308" lon="120.90727362377343"><ele>9.8</ele><time>2026-04-24T10:53:35.001Z</time></trkpt><trkpt lat="14.420422659732864" lon="120.90715907979472"><ele>10.200000000000001</ele><time>2026-04-24T10:53:36.001Z</time></trkpt><trkpt lat="14.420388020738624" lon="120.90705437288324"><ele>10.600000000000001</ele><time>2026-04-24T10:53:37.001Z</time></trkpt><trkpt lat="14.420357738737833" lon="120.90694398466445"><ele>11.0</ele><time>2026-04-24T10:53:38.001Z</time></trkpt><trkpt lat="14.420333024085831" lon="120.90684222583106"><ele>10.600000000000001</ele><time>2026-04-24T10:53:39.001Z</time></trkpt><trkpt lat="14.420300993778463" lon="120.90673743775461"><ele>10.200000000000001</ele><time>2026-04-24T10:53:40.001Z</time></trkpt><trkpt lat="14.420266599808112" lon="120.90663685981652"><ele>9.8</ele><time>2026-04-24T10:53:41.001Z</time></trkpt><trkpt lat="14.42023687829948" lon="120.90652625092247"><ele>9.4</ele><time>2026-04-24T10:53:42.001Z</time></trkpt><trkpt lat="14.42021051475023" lon="120.90641682613517"><ele>9.0</ele><time>2026-04-24T10:53:43.001Z</time></trkpt><trkpt lat="14.420187790353241" lon="120.90630870725792"><ele>9.0</ele><time>2026-04-24T10:53:44.001Z</time></trkpt><trkpt lat="14.42016569037064" lon="120.90620256154565"><ele>9.0</ele><time>2026-04-24T10:53:45.001Z</time></trkpt><trkpt lat="14.420139914838426" lon="120.90609654031586"><ele>9.0</ele><time>2026-04-24T10:53:46.001Z</time></trkpt><trkpt lat="14.420108068673837" lon="120.90599153504284"><ele>9.0</ele><time>2026-04-24T10:53:47.001Z</time></trkpt><trkpt lat="14.420073823127865" lon="120.90588083196965"><ele>9.0</ele><time>2026-04-24T10:53:48.001Z</time></trkpt><trkpt lat="14.420047606328268" lon="120.90576199621867"><ele>9.2</ele><time>2026-04-24T10:53:49.001Z</time></trkpt><trkpt lat="14.420010141592758" lon="120.90564815975672"><ele>9.4</ele><time>2026-04-24T10:53:50.001Z</time></trkpt><trkpt lat="14.419968862287261" lon="120.90555305876946"><ele>9.6</ele><time>2026-04-24T10:53:51.001Z</time></trkpt><trkpt lat="14.419941545006326" lon="120.9054661153259"><ele>9.8</ele><time>2026-04-24T10:53:52.001Z</time></trkpt><trkpt lat="14.419921090058304" lon="120.90539443480694"><ele>10.0</ele><time>2026-04-24T10:53:53.001Z</time></trkpt><trkpt lat="14.419864485378925" lon="120.90527428039022"><ele>10.0</ele><time>2026-04-24T10:53:55.001Z</time></trkpt><trkpt lat="14.41983295488643" lon="120.90521102470917"><ele>10.0</ele><time>2026-04-24T10:53:56.001Z</time></trkpt><trkpt lat="14.41978610965092" lon="120.90509899203126"><ele>10.0</ele><time>2026-04-24T10:53:58.001Z</time></trkpt><trkpt lat="14.419758373282445" lon="120.90502731799022"><ele>10.0</ele><time>2026-04-24T10:53:59.001Z</time></trkpt><trkpt lat="14.419737809895537" lon="120.90494900472989"><ele>10.0</ele><time>2026-04-24T10:54:00.001Z</time></trkpt><trkpt lat="14.419713813355587" lon="120.90485730137766"><ele>10.0</ele><time>2026-04-24T10:54:01.001Z</time></trkpt><trkpt lat="14.419683830979066" lon="120.90475980179109"><ele>10.0</ele><time>2026-04-24T10:54:02.001Z</time></trkpt><trkpt lat="14.41965140011771" lon="120.90466200530031"><ele>10.0</ele><time>2026-04-24T10:54:03.001Z</time></trkpt><trkpt lat="14.41961720110473" lon="120.90455379577612"><ele>10.0</ele><time>2026-04-24T10:54:04.001Z</time></trkpt><trkpt lat="14.41958794804445" lon="120.90445507955172"><ele>10.0</ele><time>2026-04-24T10:54:05.001Z</time></trkpt><trkpt lat="14.419555706520907" lon="120.90435522801313"><ele>10.0</ele><time>2026-04-24T10:54:06.001Z</time></trkpt><trkpt lat="14.419524122355119" lon="120.90425597813928"><ele>10.0</ele><time>2026-04-24T10:54:07.001Z</time></trkpt><trkpt lat="14.419491246479213" lon="120.90415635157954"><ele>10.0</ele><time>2026-04-24T10:54:08.001Z</time></trkpt><trkpt lat="14.419462133228897" lon="120.90405700800625"><ele>10.0</ele><time>2026-04-24T10:54:09.001Z</time></trkpt><trkpt lat="14.419428595901431" lon="120.90395069918316"><ele>10.0</ele><time>2026-04-24T10:54:10.001Z</time></trkpt><trkpt lat="14.419399032410189" lon="120.90384698436641"><ele>10.0</ele><time>2026-04-24T10:54:11.001Z</time></trkpt><trkpt lat="14.419363434259381" lon="120.90374347071337"><ele>10.0</ele><time>2026-04-24T10:54:12.001Z</time></trkpt><trkpt lat="14.419335732968422" lon="120.90365744607783"><ele>10.0</ele><time>2026-04-24T10:54:13.001Z</time></trkpt><trkpt lat="14.419314792826478" lon="120.9035874479553"><ele>10.0</ele><time>2026-04-24T10:54:14.001Z</time></trkpt><trkpt lat="14.419287906899758" lon="120.90347920016829"><ele>10.0</ele><time>2026-04-24T10:54:16.001Z</time></trkpt><trkpt lat="14.419271018397307" lon="120.90340722875403"><ele>10.0</ele><time>2026-04-24T10:54:18.001Z</time></trkpt><trkpt lat="14.419241040484083" lon="120.9033175424758"><ele>10.0</ele><time>2026-04-24T10:54:20.001Z</time></trkpt><trkpt lat="14.419218741136872" lon="120.90323367169131"><ele>10.2</ele><time>2026-04-24T10:54:22.001Z</time></trkpt><trkpt lat="14.419188367562848" lon="120.90311740498707"><ele>10.4</ele><time>2026-04-24T10:54:24.001Z</time></trkpt><trkpt lat="14.419166580669184" lon="120.90304285237993"><ele>10.600000000000001</ele><time>2026-04-24T10:54:25.001Z</time></trkpt><trkpt lat="14.419143771111168" lon="120.90296017143507"><ele>10.8</ele><time>2026-04-24T10:54:26.001Z</time></trkpt><trkpt lat="14.419112390630234" lon="120.90286215213614"><ele>11.0</ele><time>2026-04-24T10:54:27.001Z</time></trkpt><trkpt lat="14.419069208839549" lon="120.90276086741167"><ele>11.0</ele><time>2026-04-24T10:54:28.001Z</time></trkpt><trkpt lat="14.41901519437496" lon="120.9026612822056"><ele>11.0</ele><time>2026-04-24T10:54:29.001Z</time></trkpt><trkpt lat="14.418941849064684" lon="120.90256186763388"><ele>11.0</ele><time>2026-04-24T10:54:30.001Z</time></trkpt><trkpt lat="14.418861026367836" lon="120.90246131119076"><ele>11.0</ele><time>2026-04-24T10:54:31.001Z</time></trkpt><trkpt lat="14.41877920831908" lon="120.90235624750744"><ele>11.25</ele><time>2026-04-24T10:54:32.001Z</time></trkpt><trkpt lat="14.418705621823866" lon="120.90225251444053"><ele>11.5</ele><time>2026-04-24T10:54:33.001Z</time></trkpt><trkpt lat="14.418632738231278" lon="120.90214838906785"><ele>11.75</ele><time>2026-04-24T10:54:34.001Z</time></trkpt><trkpt lat="14.418569427931674" lon="120.90203711277705"><ele>12.0</ele><time>2026-04-24T10:54:35.001Z</time></trkpt><trkpt lat="14.418514450825956" lon="120.90192002099522"><ele>12.0</ele><time>2026-04-24T10:54:36.001Z</time></trkpt><trkpt lat="14.418460064848963" lon="120.90180259457283"><ele>12.0</ele><time>2026-04-24T10:54:37.001Z</time></trkpt><trkpt lat="14.418405508032704" lon="120.90168483298824"><ele>12.0</ele><time>2026-04-24T10:54:38.001Z</time></trkpt><trkpt lat="14.418352892327341" lon="120.90156974521041"><ele>12.0</ele><time>2026-04-24T10:54:39.001Z</time></trkpt><trkpt lat="14.418297701565988" lon="120.90145284363814"><ele>11.75</ele><time>2026-04-24T10:54:40.001Z</time></trkpt><trkpt lat="14.418241962612282" lon="120.90133859849524"><ele>11.5</ele><time>2026-04-24T10:54:41.001Z</time></trkpt><trkpt lat="14.418186656634623" lon="120.90122526287355"><ele>11.25</ele><time>2026-04-24T10:54:42.001Z</time></trkpt><trkpt lat="14.418135980428689" lon="120.90110852211855"><ele>11.0</ele><time>2026-04-24T10:54:43.001Z</time></trkpt><trkpt lat="14.418087040150612" lon="120.90098505695917"><ele>10.8</ele><time>2026-04-24T10:54:44.001Z</time></trkpt><trkpt lat="14.41804112046033" lon="120.90086905533595"><ele>10.600000000000001</ele><time>2026-04-24T10:54:45.001Z</time></trkpt><trkpt lat="14.418003398859787" lon="120.9007559597484"><ele>10.4</ele><time>2026-04-24T10:54:46.001Z</time></trkpt><trkpt lat="14.417972587364593" lon="120.90066160018563"><ele>10.2</ele><time>2026-04-24T10:54:47.001Z</time></trkpt><trkpt lat="14.417945760494222" lon="120.90058078127839"><ele>10.0</ele><time>2026-04-24T10:54:48.001Z</time></trkpt><trkpt lat="14.417921119779093" lon="120.90051611141294"><ele>10.0</ele><time>2026-04-24T10:54:49.001Z</time></trkpt><trkpt lat="14.417888680316041" lon="120.90044235130995"><ele>10.0</ele><time>2026-04-24T10:54:50.001Z</time></trkpt><trkpt lat="14.417863180096454" lon="120.90038095548914"><ele>10.0</ele><time>2026-04-24T10:54:51.001Z</time></trkpt><trkpt lat="14.417828520109026" lon="120.90029112979474"><ele>10.0</ele><time>2026-04-24T10:54:53.001Z</time></trkpt><trkpt lat="14.417801379947852" lon="120.90022803576791"><ele>10.0</ele><time>2026-04-24T10:55:00.001Z</time></trkpt><trkpt lat="14.417773547948045" lon="120.90015313156015"><ele>10.0</ele><time>2026-04-24T10:56:57Z</time></trkpt><trkpt lat="14.417743721211709" lon="120.90008765220674"><ele>10.166666666666668</ele><time>2026-04-24T10:58:16.001Z</time></trkpt><trkpt lat="14.41770556389044" lon="120.90001102718077"><ele>10.333333333333334</ele><time>2026-04-24T10:58:18.001Z</time></trkpt><trkpt lat="14.41767422333196" lon="120.89992633170085"><ele>10.5</ele><time>2026-04-24T10:58:20.001Z</time></trkpt><trkpt lat="14.417644683684907" lon="120.89984604924146"><ele>10.666666666666666</ele><time>2026-04-24T10:58:22.001Z</time></trkpt><trkpt lat="14.417612276004" lon="120.89976772617118"><ele>10.833333333333332</ele><time>2026-04-24T10:58:24.001Z</time></trkpt><trkpt lat="14.417569027635336" lon="120.89967667710147"><ele>11.0</ele><time>2026-04-24T10:58:26.001Z</time></trkpt><trkpt lat="14.417516241018976" lon="120.89955118038077"><ele>11.0</ele><time>2026-04-24T10:58:28.001Z</time></trkpt><trkpt lat="14.417491048149543" lon="120.89947833406855"><ele>11.0</ele><time>2026-04-24T10:58:29.001Z</time></trkpt><trkpt lat="14.41743841641955" lon="120.89934575880761"><ele>11.0</ele><time>2026-04-24T10:58:31.001Z</time></trkpt><trkpt lat="14.417408687805397" lon="120.89927076467201"><ele>11.0</ele><time>2026-04-24T10:58:32.001Z</time></trkpt><trkpt lat="14.417377926655634" lon="120.89919715458899"><ele>11.0</ele><time>2026-04-24T10:58:33.001Z</time></trkpt><trkpt lat="14.417352514901205" lon="120.89913215598533"><ele>11.0</ele><time>2026-04-24T10:58:34.001Z</time></trkpt><trkpt lat="14.417327893827325" lon="120.89906990986066"><ele>10.833333333333332</ele><time>2026-04-24T10:58:35.001Z</time></trkpt><trkpt lat="14.417311454602489" lon="120.89899696391977"><ele>10.666666666666666</ele><time>2026-04-24T10:58:36.001Z</time></trkpt><trkpt lat="14.417306368759062" lon="120.8989246522558"><ele>10.5</ele><time>2026-04-24T10:58:37.001Z</time></trkpt><trkpt lat="14.417298220124247" lon="120.89884148982073"><ele>10.333333333333334</ele><time>2026-04-24T10:58:38.001Z</time></trkpt><trkpt lat="14.417283172513487" lon="120.89875130295685"><ele>10.166666666666668</ele><time>2026-04-24T10:58:39Z</time></trkpt><trkpt lat="14.417263182171732" lon="120.89865395504826"><ele>10.0</ele><time>2026-04-24T10:58:40Z</time></trkpt><trkpt lat="14.417243067837525" lon="120.89855531683224"><ele>10.0</ele><time>2026-04-24T10:58:41Z</time></trkpt><trkpt lat="14.417213459872452" lon="120.89844897882749"><ele>10.0</ele><time>2026-04-24T10:58:42Z</time></trkpt><trkpt lat="14.417178382366394" lon="120.89834465074098"><ele>10.0</ele><time>2026-04-24T10:58:43Z</time></trkpt><trkpt lat="14.417141776560722" lon="120.89823919609339"><ele>10.0</ele><time>2026-04-24T10:58:44Z</time></trkpt><trkpt lat="14.417111906475315" lon="120.89813987431457"><ele>10.0</ele><time>2026-04-24T10:58:45Z</time></trkpt><trkpt lat="14.417088053469277" lon="120.89804612049814"><ele>10.0</ele><time>2026-04-24T10:58:46Z</time></trkpt><trkpt lat="14.417060132990107" lon="120.89794824338843"><ele>10.0</ele><time>2026-04-24T10:58:47Z</time></trkpt><trkpt lat="14.417031485688165" lon="120.89786067121466"><ele>10.0</ele><time>2026-04-24T10:58:48Z</time></trkpt><trkpt lat="14.416999378725128" lon="120.89777447768857"><ele>10.0</ele><time>2026-04-24T10:58:49Z</time></trkpt><trkpt lat="14.416965047602925" lon="120.89770387921932"><ele>10.0</ele><time>2026-04-24T10:58:50Z</time></trkpt><trkpt lat="14.416914367268323" lon="120.89760883518888"><ele>9.4</ele><time>2026-04-24T10:58:52Z</time></trkpt><trkpt lat="14.416862683077264" lon="120.89749588272184"><ele>8.8</ele><time>2026-04-24T10:58:54Z</time></trkpt><trkpt lat="14.416836181940745" lon="120.89742672262021"><ele>8.2</ele><time>2026-04-24T10:58:55Z</time></trkpt><trkpt lat="14.416805915545877" lon="120.89733762863365"><ele>7.6</ele><time>2026-04-24T10:58:56Z</time></trkpt><trkpt lat="14.416767260887022" lon="120.89723398541791"><ele>7.0</ele><time>2026-04-24T10:58:57Z</time></trkpt><trkpt lat="14.416726106343392" lon="120.89712743923411"><ele>7.0</ele><time>2026-04-24T10:58:58Z</time></trkpt><trkpt lat="14.416683066551613" lon="120.89701786459376"><ele>7.0</ele><time>2026-04-24T10:58:59Z</time></trkpt><trkpt lat="14.416634969375405" lon="120.89690800893594"><ele>7.0</ele><time>2026-04-24T10:59:00Z</time></trkpt><trkpt lat="14.416587834395077" lon="120.89680265163051"><ele>7.0</ele><time>2026-04-24T10:59:01Z</time></trkpt><trkpt lat="14.41653962337391" lon="120.89670254367934"><ele>6.8</ele><time>2026-04-24T10:59:02Z</time></trkpt><trkpt lat="14.416495080181091" lon="120.89659336124028"><ele>6.6</ele><time>2026-04-24T10:59:03Z</time></trkpt><trkpt lat="14.416450139947484" lon="120.89647896138449"><ele>6.3999999999999995</ele><time>2026-04-24T10:59:04Z</time></trkpt><trkpt lat="14.416408239579058" lon="120.89637450129534"><ele>6.199999999999999</ele><time>2026-04-24T10:59:05Z</time></trkpt><trkpt lat="14.416357570180551" lon="120.89627871373237"><ele>6.0</ele><time>2026-04-24T10:59:06Z</time></trkpt><trkpt lat="14.41629440044877" lon="120.89618691908447"><ele>6.0</ele><time>2026-04-24T10:59:07Z</time></trkpt><trkpt lat="14.416226573398669" lon="120.89609881066166"><ele>6.0</ele><time>2026-04-24T10:59:08Z</time></trkpt><trkpt lat="14.41615354916004" lon="120.89601524377504"><ele>6.0</ele><time>2026-04-24T10:59:09Z</time></trkpt><trkpt lat="14.416079165994196" lon="120.89593242132888"><ele>6.0</ele><time>2026-04-24T10:59:10Z</time></trkpt><trkpt lat="14.416003408462092" lon="120.89585077543583"><ele>6.0</ele><time>2026-04-24T10:59:11Z</time></trkpt><trkpt lat="14.41592020970484" lon="120.89576653544265"><ele>6.5</ele><time>2026-04-24T10:59:12Z</time></trkpt><trkpt lat="14.41584104296934" lon="120.89568370830179"><ele>7.0</ele><time>2026-04-24T10:59:13Z</time></trkpt><trkpt lat="14.415764426366662" lon="120.8955987506505"><ele>7.5</ele><time>2026-04-24T10:59:14Z</time></trkpt><trkpt lat="14.41568686952985" lon="120.89551111774685"><ele>8.0</ele><time>2026-04-24T10:59:15Z</time></trkpt><trkpt lat="14.41560304187747" lon="120.89542298408425"><ele>8.0</ele><time>2026-04-24T10:59:16Z</time></trkpt><trkpt lat="14.41552144843868" lon="120.89533607144598"><ele>8.0</ele><time>2026-04-24T10:59:17Z</time></trkpt><trkpt lat="14.415439412744744" lon="120.89524592886042"><ele>8.0</ele><time>2026-04-24T10:59:18Z</time></trkpt><trkpt lat="14.415359480129815" lon="120.89515675999615"><ele>8.0</ele><time>2026-04-24T10:59:19Z</time></trkpt><trkpt lat="14.415276346844081" lon="120.89506599787548"><ele>8.0</ele><time>2026-04-24T10:59:20Z</time></trkpt><trkpt lat="14.415194803228317" lon="120.8949771559786"><ele>8.0</ele><time>2026-04-24T10:59:21Z</time></trkpt><trkpt lat="14.415116620380655" lon="120.89488994433778"><ele>8.0</ele><time>2026-04-24T10:59:22Z</time></trkpt><trkpt lat="14.41503699286927" lon="120.89480196267832"><ele>8.0</ele><time>2026-04-24T10:59:23Z</time></trkpt><trkpt lat="14.414958237709971" lon="120.89471685871044"><ele>8.0</ele><time>2026-04-24T10:59:24Z</time></trkpt><trkpt lat="14.414880600168607" lon="120.89463278754867"><ele>8.0</ele><time>2026-04-24T10:59:25Z</time></trkpt><trkpt lat="14.414807273319942" lon="120.89454913594305"><ele>8.0</ele><time>2026-04-24T10:59:26Z</time></trkpt><trkpt lat="14.414733567648534" lon="120.8944671433839"><ele>8.0</ele><time>2026-04-24T10:59:27Z</time></trkpt><trkpt lat="14.414656975819549" lon="120.89438632675866"><ele>8.0</ele><time>2026-04-24T10:59:28Z</time></trkpt><trkpt lat="14.414576688414096" lon="120.89430403481846"><ele>8.5</ele><time>2026-04-24T10:59:29Z</time></trkpt><trkpt lat="14.414501279037209" lon="120.8942206600924"><ele>9.0</ele><time>2026-04-24T10:59:30Z</time></trkpt><trkpt lat="14.414424118963597" lon="120.89413497057957"><ele>9.5</ele><time>2026-04-24T10:59:31Z</time></trkpt><trkpt lat="14.414346602916867" lon="120.89404775824076"><ele>10.0</ele><time>2026-04-24T10:59:32Z</time></trkpt><trkpt lat="14.414266432667299" lon="120.89396056301182"><ele>10.0</ele><time>2026-04-24T10:59:33Z</time></trkpt><trkpt lat="14.414185106729418" lon="120.89387476294387"><ele>10.0</ele><time>2026-04-24T10:59:34Z</time></trkpt><trkpt lat="14.414106072859749" lon="120.89379092792015"><ele>10.0</ele><time>2026-04-24T10:59:35Z</time></trkpt><trkpt lat="14.414031165340406" lon="120.8937066604982"><ele>10.0</ele><time>2026-04-24T10:59:36Z</time></trkpt><trkpt lat="14.413951061927072" lon="120.89361465150091"><ele>10.0</ele><time>2026-04-24T10:59:37Z</time></trkpt><trkpt lat="14.413868269402784" lon="120.89352241043683"><ele>10.0</ele><time>2026-04-24T10:59:38Z</time></trkpt><trkpt lat="14.413780955070463" lon="120.89342783659598"><ele>10.0</ele><time>2026-04-24T10:59:39Z</time></trkpt><trkpt lat="14.413694231990096" lon="120.89333281128542"><ele>10.0</ele><time>2026-04-24T10:59:40Z</time></trkpt><trkpt lat="14.413600908707178" lon="120.89323695397499"><ele>9.75</ele><time>2026-04-24T10:59:41Z</time></trkpt><trkpt lat="14.413511183022141" lon="120.8931397961444"><ele>9.5</ele><time>2026-04-24T10:59:42Z</time></trkpt><trkpt lat="14.413421430094067" lon="120.89304164593328"><ele>9.25</ele><time>2026-04-24T10:59:43Z</time></trkpt><trkpt lat="14.413324523837062" lon="120.89294059625549"><ele>9.0</ele><time>2026-04-24T10:59:44Z</time></trkpt><trkpt lat="14.413230624903889" lon="120.8928424521444"><ele>9.0</ele><time>2026-04-24T10:59:45Z</time></trkpt><trkpt lat="14.413129628130543" lon="120.89274262366946"><ele>9.0</ele><time>2026-04-24T10:59:46Z</time></trkpt><trkpt lat="14.413028417693136" lon="120.89264132167541"><ele>9.0</ele><time>2026-04-24T10:59:47Z</time></trkpt><trkpt lat="14.412930794987735" lon="120.89254566897337"><ele>9.0</ele><time>2026-04-24T10:59:48Z</time></trkpt><trkpt lat="14.41284067029408" lon="120.8924511324642"><ele>9.0</ele><time>2026-04-24T10:59:49Z</time></trkpt><trkpt lat="14.412752980900759" lon="120.89236383991756"><ele>9.0</ele><time>2026-04-24T10:59:50Z</time></trkpt><trkpt lat="14.412669788145042" lon="120.892277131652"><ele>9.0</ele><time>2026-04-24T10:59:51Z</time></trkpt><trkpt lat="14.412586328901522" lon="120.89218736587458"><ele>9.0</ele><time>2026-04-24T10:59:52Z</time></trkpt><trkpt lat="14.412505911393902" lon="120.89209667467165"><ele>9.0</ele><time>2026-04-24T10:59:53Z</time></trkpt><trkpt lat="14.412422563354491" lon="120.89200532375584"><ele>9.0</ele><time>2026-04-24T10:59:54Z</time></trkpt><trkpt lat="14.412343741171568" lon="120.89191914359077"><ele>9.0</ele><time>2026-04-24T10:59:55Z</time></trkpt><trkpt lat="14.41227097372253" lon="120.8918387453945"><ele>9.0</ele><time>2026-04-24T10:59:56Z</time></trkpt><trkpt lat="14.412220512364629" lon="120.89177837865955"><ele>9.0</ele><time>2026-04-24T10:59:59Z</time></trkpt><trkpt lat="14.412149055627424" lon="120.89169367743322"><ele>9.8</ele><time>2026-04-24T11:00:01Z</time></trkpt><trkpt lat="14.412097610587777" lon="120.8916363797338"><ele>10.600000000000001</ele><time>2026-04-24T11:00:02Z</time></trkpt><trkpt lat="14.412033478217177" lon="120.89157142877252"><ele>11.4</ele><time>2026-04-24T11:00:03Z</time></trkpt><trkpt lat="14.411967570211493" lon="120.89150233990622"><ele>12.200000000000001</ele><time>2026-04-24T11:00:04Z</time></trkpt><trkpt lat="14.411896776707232" lon="120.89142775559863"><ele>13.0</ele><time>2026-04-24T11:00:05Z</time></trkpt><trkpt lat="14.411816526480386" lon="120.89135353211626"><ele>13.0</ele><time>2026-04-24T11:00:06Z</time></trkpt><trkpt lat="14.411729011450515" lon="120.8912800777549"><ele>13.0</ele><time>2026-04-24T11:00:07Z</time></trkpt><trkpt lat="14.41164640361539" lon="120.89120613823312"><ele>13.0</ele><time>2026-04-24T11:00:08Z</time></trkpt><trkpt lat="14.41156095410422" lon="120.89112653717552"><ele>13.0</ele><time>2026-04-24T11:00:09Z</time></trkpt><trkpt lat="14.41147171540753" lon="120.89105016176111"><ele>13.0</ele><time>2026-04-24T11:00:10Z</time></trkpt><trkpt lat="14.411383473412437" lon="120.89097236805681"><ele>13.0</ele><time>2026-04-24T11:00:11Z</time></trkpt><trkpt lat="14.411299220058924" lon="120.89089392328513"><ele>13.0</ele><time>2026-04-24T11:00:12Z</time></trkpt><trkpt lat="14.411213074009988" lon="120.89082283717667"><ele>13.0</ele><time>2026-04-24T11:00:13Z</time></trkpt><trkpt lat="14.411124654315648" lon="120.89074526822486"><ele>13.0</ele><time>2026-04-24T11:00:14Z</time></trkpt><trkpt lat="14.411040251707892" lon="120.8906706617306"><ele>13.0</ele><time>2026-04-24T11:00:15Z</time></trkpt><trkpt lat="14.410950659851789" lon="120.89059629976407"><ele>13.0</ele><time>2026-04-24T11:00:16Z</time></trkpt><trkpt lat="14.410867926482831" lon="120.89051955910409"><ele>13.0</ele><time>2026-04-24T11:00:17Z</time></trkpt><trkpt lat="14.410784337046433" lon="120.89043188426103"><ele>12.999999999999998</ele><time>2026-04-24T11:00:18Z</time></trkpt><trkpt lat="14.410710542029705" lon="120.89035196896789"><ele>13.0</ele><time>2026-04-24T11:00:19Z</time></trkpt><trkpt lat="14.410643557331337" lon="120.89027619596165"><ele>13.0</ele><time>2026-04-24T11:00:20Z</time></trkpt><trkpt lat="14.410584470723432" lon="120.89020883090812"><ele>13.0</ele><time>2026-04-24T11:00:21Z</time></trkpt><trkpt lat="14.410529298608685" lon="120.89015412808659"><ele>12.999999999999998</ele><time>2026-04-24T11:00:22Z</time></trkpt><trkpt lat="14.41047925407666" lon="120.89009270426394"><ele>13.0</ele><time>2026-04-24T11:00:23Z</time></trkpt><trkpt lat="14.410420884952574" lon="120.89002771285392"><ele>12.8</ele><time>2026-04-24T11:00:24Z</time></trkpt><trkpt lat="14.410360248522117" lon="120.8899503059538"><ele>12.600000000000001</ele><time>2026-04-24T11:00:25Z</time></trkpt><trkpt lat="14.410302439031296" lon="120.88985827221946"><ele>12.399999999999999</ele><time>2026-04-24T11:00:26Z</time></trkpt><trkpt lat="14.410242038048384" lon="120.8897712373594"><ele>12.2</ele><time>2026-04-24T11:00:27Z</time></trkpt><trkpt lat="14.410196399582299" lon="120.88968895019234"><ele>12.0</ele><time>2026-04-24T11:00:28Z</time></trkpt><trkpt lat="14.410168502240658" lon="120.8896273720025"><ele>12.0</ele><time>2026-04-24T11:00:29.001Z</time></trkpt><trkpt lat="14.410129457216884" lon="120.8895673167127"><ele>12.0</ele><time>2026-04-24T11:00:32.001Z</time></trkpt><trkpt lat="14.410086928061792" lon="120.88949078930403"><ele>12.0</ele><time>2026-04-24T11:00:34.001Z</time></trkpt><trkpt lat="14.410053608869502" lon="120.88942690475146"><ele>12.0</ele><time>2026-04-24T11:00:35.001Z</time></trkpt><trkpt lat="14.410015605678497" lon="120.88935931280847"><ele>12.0</ele><time>2026-04-24T11:00:36.001Z</time></trkpt><trkpt lat="14.409974259485834" lon="120.88928303809666"><ele>12.0</ele><time>2026-04-24T11:00:37.001Z</time></trkpt><trkpt lat="14.40993578310066" lon="120.88920227148094"><ele>11.666666666666666</ele><time>2026-04-24T11:00:38.001Z</time></trkpt><trkpt lat="14.40989893698019" lon="120.88911890853986"><ele>11.333333333333334</ele><time>2026-04-24T11:00:39.001Z</time></trkpt><trkpt lat="14.409859782778987" lon="120.88903320066098"><ele>11.0</ele><time>2026-04-24T11:00:40.001Z</time></trkpt><trkpt lat="14.409824825892107" lon="120.88895020616954"><ele>10.666666666666668</ele><time>2026-04-24T11:00:41.001Z</time></trkpt><trkpt lat="14.409795494934388" lon="120.8888752516753"><ele>10.333333333333334</ele><time>2026-04-24T11:00:42.001Z</time></trkpt><trkpt lat="14.40977093913317" lon="120.8888052477965"><ele>10.0</ele><time>2026-04-24T11:00:43.001Z</time></trkpt><trkpt lat="14.409743303643317" lon="120.88872691738409"><ele>10.0</ele><time>2026-04-24T11:00:44.001Z</time></trkpt><trkpt lat="14.409711882512864" lon="120.8886417884574"><ele>10.0</ele><time>2026-04-24T11:00:45Z</time></trkpt><trkpt lat="14.409682206905186" lon="120.88855346107887"><ele>10.0</ele><time>2026-04-24T11:00:46Z</time></trkpt><trkpt lat="14.409657381844736" lon="120.88846736175704"><ele>10.0</ele><time>2026-04-24T11:00:47Z</time></trkpt><trkpt lat="14.40963510029241" lon="120.88838178310571"><ele>10.0</ele><time>2026-04-24T11:00:49Z</time></trkpt><trkpt lat="14.409618412713467" lon="120.88831346275356"><ele>10.0</ele><time>2026-04-24T11:00:51Z</time></trkpt><trkpt lat="14.409605387857862" lon="120.88824186819467"><ele>9.8</ele><time>2026-04-24T11:00:52Z</time></trkpt><trkpt lat="14.409588506687594" lon="120.88815414580692"><ele>9.6</ele><time>2026-04-24T11:00:53Z</time></trkpt><trkpt lat="14.409569323415775" lon="120.88805482897389"><ele>9.4</ele><time>2026-04-24T11:00:54Z</time></trkpt><trkpt lat="14.409550636631533" lon="120.8879546101503"><ele>9.2</ele><time>2026-04-24T11:00:55Z</time></trkpt><trkpt lat="14.409531620040624" lon="120.88783846720655"><ele>9.0</ele><time>2026-04-24T11:00:56Z</time></trkpt><trkpt lat="14.409511226722527" lon="120.88772092723418"><ele>9.0</ele><time>2026-04-24T11:00:57Z</time></trkpt><trkpt lat="14.40949142393966" lon="120.88760273560636"><ele>9.0</ele><time>2026-04-24T11:00:58Z</time></trkpt><trkpt lat="14.409472643310185" lon="120.88748963994139"><ele>9.0</ele><time>2026-04-24T11:00:59Z</time></trkpt><trkpt lat="14.409453918691884" lon="120.88739317396464"><ele>9.0</ele><time>2026-04-24T11:01:00Z</time></trkpt><trkpt lat="14.409445618649132" lon="120.88731753748358"><ele>9.0</ele><time>2026-04-24T11:01:01Z</time></trkpt><trkpt lat="14.409437493303395" lon="120.88724382165253"><ele>8.833333333333334</ele><time>2026-04-24T11:01:03Z</time></trkpt><trkpt lat="14.409424295189352" lon="120.88717645967769"><ele>8.666666666666666</ele><time>2026-04-24T11:01:05Z</time></trkpt><trkpt lat="14.409400506938" lon="120.88705344983217"><ele>8.5</ele><time>2026-04-24T11:01:07Z</time></trkpt><trkpt lat="14.409398800095701" lon="120.88698134983983"><ele>8.333333333333332</ele><time>2026-04-24T11:01:09Z</time></trkpt><trkpt lat="14.409374468512212" lon="120.88691211658823"><ele>8.166666666666666</ele><time>2026-04-24T11:01:12Z</time></trkpt><trkpt lat="14.409338485233418" lon="120.88680807828399"><ele>8.0</ele><time>2026-04-24T11:01:18Z</time></trkpt><trkpt lat="14.409285814643356" lon="120.88670075174846"><ele>8.428571428571429</ele><time>2026-04-24T11:01:20Z</time></trkpt><trkpt lat="14.409254901298468" lon="120.88664344111825"><ele>8.857142857142856</ele><time>2026-04-24T11:01:21Z</time></trkpt><trkpt lat="14.409224216890225" lon="120.8865754404246"><ele>9.285714285714285</ele><time>2026-04-24T11:01:22Z</time></trkpt><trkpt lat="14.409194748858289" lon="120.8865091367025"><ele>9.714285714285714</ele><time>2026-04-24T11:01:23Z</time></trkpt><trkpt lat="14.409157640046397" lon="120.88644028196681"><ele>10.142857142857142</ele><time>2026-04-24T11:01:24Z</time></trkpt><trkpt lat="14.40911385056374" lon="120.88636864894333"><ele>10.571428571428571</ele><time>2026-04-24T11:01:25Z</time></trkpt><trkpt lat="14.409069456206169" lon="120.8863007806767"><ele>11.0</ele><time>2026-04-24T11:01:26Z</time></trkpt><trkpt lat="14.409029119346979" lon="120.88622926604761"><ele>11.0</ele><time>2026-04-24T11:01:27Z</time></trkpt><trkpt lat="14.408990542812653" lon="120.88616234097165"><ele>11.0</ele><time>2026-04-24T11:01:28Z</time></trkpt><trkpt lat="14.40893241116823" lon="120.88605866156514"><ele>11.0</ele><time>2026-04-24T11:01:30Z</time></trkpt><trkpt lat="14.408902878161355" lon="120.88599840320654"><ele>11.0</ele><time>2026-04-24T11:01:32Z</time></trkpt><trkpt lat="14.408864752251072" lon="120.8858968668694"><ele>11.0</ele><time>2026-04-24T11:01:35Z</time></trkpt><trkpt lat="14.408840992528967" lon="120.8858301282072"><ele>11.0</ele><time>2026-04-24T11:01:36Z</time></trkpt><trkpt lat="14.408818073330181" lon="120.88575488478322"><ele>12.0</ele><time>2026-04-24T11:01:37Z</time></trkpt><trkpt lat="14.40879453043804" lon="120.88567042049924"><ele>13.0</ele><time>2026-04-24T11:01:38Z</time></trkpt><trkpt lat="14.408779870393117" lon="120.88558623446366"><ele>14.000000000000002</ele><time>2026-04-24T11:01:39Z</time></trkpt><trkpt lat="14.408769783906267" lon="120.88549486595991"><ele>15.0</ele><time>2026-04-24T11:01:40Z</time></trkpt><trkpt lat="14.408767807035343" lon="120.88538973196921"><ele>16.0</ele><time>2026-04-24T11:01:41Z</time></trkpt><trkpt lat="14.408773299214813" lon="120.88529617204743"><ele>16.0</ele><time>2026-04-24T11:01:42Z</time></trkpt><trkpt lat="14.408783935905845" lon="120.88519800007634"><ele>16.0</ele><time>2026-04-24T11:01:43Z</time></trkpt><trkpt lat="14.408796567579628" lon="120.8850904192888"><ele>16.0</ele><time>2026-04-24T11:01:44Z</time></trkpt><trkpt lat="14.408811184548524" lon="120.88498970800991"><ele>16.0</ele><time>2026-04-24T11:01:45Z</time></trkpt><trkpt lat="14.408830851927712" lon="120.88490162330386"><ele>16.0</ele><time>2026-04-24T11:01:46Z</time></trkpt><trkpt lat="14.408845742353293" lon="120.88480697921524"><ele>15.999999999999998</ele><time>2026-04-24T11:01:47Z</time></trkpt><trkpt lat="14.408864227221764" lon="120.88471876909986"><ele>16.0</ele><time>2026-04-24T11:01:48Z</time></trkpt><trkpt lat="14.408876171510284" lon="120.88462998795816"><ele>16.0</ele><time>2026-04-24T11:01:49Z</time></trkpt><trkpt lat="14.408889227014733" lon="120.88455819454778"><ele>16.0</ele><time>2026-04-24T11:01:50Z</time></trkpt><trkpt lat="14.408902348270516" lon="120.88447448253156"><ele>15.999999999999998</ele><time>2026-04-24T11:01:51Z</time></trkpt><trkpt lat="14.408918278693895" lon="120.88438661856412"><ele>16.0</ele><time>2026-04-24T11:01:52Z</time></trkpt><trkpt lat="14.408935197736755" lon="120.8843209342888"><ele>15.999999999999998</ele><time>2026-04-24T11:01:53Z</time></trkpt><trkpt lat="14.40895341248411" lon="120.88424319948622"><ele>16.0</ele><time>2026-04-24T11:01:54Z</time></trkpt><trkpt lat="14.408972248207027" lon="120.88413107548465"><ele>16.0</ele><time>2026-04-24T11:01:56Z</time></trkpt><trkpt lat="14.408982662110423" lon="120.88405322192267"><ele>16.0</ele><time>2026-04-24T11:01:58Z</time></trkpt><trkpt lat="14.408995943440578" lon="120.88398316434294"><ele>15.999999999999998</ele><time>2026-04-24T11:02:00Z</time></trkpt><trkpt lat="14.409010913035642" lon="120.88391471283927"><ele>16.0</ele><time>2026-04-24T11:02:02Z</time></trkpt><trkpt lat="14.409018265392096" lon="120.88382230225163"><ele>16.0</ele><time>2026-04-24T11:02:05Z</time></trkpt><trkpt lat="14.409016466424813" lon="120.88372960642448"><ele>16.0</ele><time>2026-04-24T11:02:08Z</time></trkpt><trkpt lat="14.409036964214001" lon="120.88366781936115"><ele>16.0</ele><time>2026-04-24T11:02:10Z</time></trkpt><trkpt lat="14.409049685582769" lon="120.88357062324171"><ele>16.0</ele><time>2026-04-24T11:02:14Z</time></trkpt><trkpt lat="14.40905901433048" lon="120.88345502112105"><ele>16.0</ele><time>2026-04-24T11:02:16Z</time></trkpt><trkpt lat="14.409064515332458" lon="120.88336305841698"><ele>15.499999999999998</ele><time>2026-04-24T11:02:18Z</time></trkpt><trkpt lat="14.409070940102602" lon="120.88329341539844"><ele>15.0</ele><time>2026-04-24T11:02:20Z</time></trkpt><trkpt lat="14.409085083557184" lon="120.88321814601416"><ele>14.5</ele><time>2026-04-24T11:02:23Z</time></trkpt><trkpt lat="14.409111245113982" lon="120.88310922835898"><ele>14.0</ele><time>2026-04-24T11:02:25Z</time></trkpt><trkpt lat="14.40912770979892" lon="120.88304541439355"><ele>13.499999999999998</ele><time>2026-04-24T11:02:26Z</time></trkpt><trkpt lat="14.409148491126642" lon="120.88297472094294"><ele>13.0</ele><time>2026-04-24T11:02:27Z</time></trkpt><trkpt lat="14.409169520263323" lon="120.88290532050092"><ele>12.999999999999998</ele><time>2026-04-24T11:02:28Z</time></trkpt><trkpt lat="14.409193371273222" lon="120.88282436788327"><ele>13.0</ele><time>2026-04-24T11:02:29Z</time></trkpt><trkpt lat="14.409223015545303" lon="120.88275144798199"><ele>13.0</ele><time>2026-04-24T11:02:30Z</time></trkpt><trkpt lat="14.409251906345098" lon="120.88268055879524"><ele>13.0</ele><time>2026-04-24T11:02:31Z</time></trkpt><trkpt lat="14.40928279152381" lon="120.8825978464687"><ele>12.999999999999998</ele><time>2026-04-24T11:02:32Z</time></trkpt><trkpt lat="14.409315969474177" lon="120.88251739491797"><ele>13.0</ele><time>2026-04-24T11:02:33Z</time></trkpt><trkpt lat="14.409356979372939" lon="120.88243553393711"><ele>12.200000000000001</ele><time>2026-04-24T11:02:34Z</time></trkpt><trkpt lat="14.409403280400312" lon="120.88235747402358"><ele>11.4</ele><time>2026-04-24T11:02:35Z</time></trkpt><trkpt lat="14.409453036912911" lon="120.88227343803862"><ele>10.600000000000001</ele><time>2026-04-24T11:02:36Z</time></trkpt><trkpt lat="14.409501582241973" lon="120.8821866986553"><ele>9.8</ele><time>2026-04-24T11:02:37Z</time></trkpt><trkpt lat="14.409550973753653" lon="120.88210326213428"><ele>9.0</ele><time>2026-04-24T11:02:38Z</time></trkpt><trkpt lat="14.409607073000169" lon="120.88202305275372"><ele>9.0</ele><time>2026-04-24T11:02:39Z</time></trkpt><trkpt lat="14.409662719653946" lon="120.88194955441759"><ele>9.0</ele><time>2026-04-24T11:02:40Z</time></trkpt><trkpt lat="14.409720646126633" lon="120.8818711661207"><ele>9.0</ele><time>2026-04-24T11:02:41Z</time></trkpt><trkpt lat="14.409776217093047" lon="120.88178968201788"><ele>9.0</ele><time>2026-04-24T11:02:42Z</time></trkpt><trkpt lat="14.409827639712313" lon="120.88169965303489"><ele>9.0</ele><time>2026-04-24T11:02:43Z</time></trkpt><trkpt lat="14.409876524374377" lon="120.88160557387948"><ele>8.6</ele><time>2026-04-24T11:02:44Z</time></trkpt><trkpt lat="14.409924977515752" lon="120.88150760725864"><ele>8.2</ele><time>2026-04-24T11:02:45Z</time></trkpt><trkpt lat="14.409968639540876" lon="120.88140401831737"><ele>7.799999999999999</ele><time>2026-04-24T11:02:46Z</time></trkpt><trkpt lat="14.410007047357295" lon="120.88129537950164"><ele>7.3999999999999995</ele><time>2026-04-24T11:02:47Z</time></trkpt><trkpt lat="14.410039257378221" lon="120.88118214859873"><ele>7.0</ele><time>2026-04-24T11:02:48Z</time></trkpt><trkpt lat="14.41006980737476" lon="120.88106900936133"><ele>7.0</ele><time>2026-04-24T11:02:49Z</time></trkpt><trkpt lat="14.410100151871799" lon="120.88095656842737"><ele>7.0</ele><time>2026-04-24T11:02:50Z</time></trkpt><trkpt lat="14.410132053658423" lon="120.88084122246036"><ele>7.0</ele><time>2026-04-24T11:02:51Z</time></trkpt><trkpt lat="14.410162194784762" lon="120.88073281870977"><ele>7.0</ele><time>2026-04-24T11:02:52Z</time></trkpt><trkpt lat="14.410194926361042" lon="120.88061843387857"><ele>7.75</ele><time>2026-04-24T11:02:53Z</time></trkpt><trkpt lat="14.410229407014269" lon="120.88050526854283"><ele>8.5</ele><time>2026-04-24T11:02:54Z</time></trkpt><trkpt lat="14.410264684351613" lon="120.88039463775235"><ele>9.25</ele><time>2026-04-24T11:02:55Z</time></trkpt><trkpt lat="14.410298799014322" lon="120.8802763571976"><ele>10.0</ele><time>2026-04-24T11:02:56Z</time></trkpt><trkpt lat="14.410327984034446" lon="120.88016911973322"><ele>9.4</ele><time>2026-04-24T11:02:57Z</time></trkpt><trkpt lat="14.410356200926895" lon="120.88006490465716"><ele>8.8</ele><time>2026-04-24T11:02:58Z</time></trkpt><trkpt lat="14.410381401908337" lon="120.87996244804353"><ele>8.2</ele><time>2026-04-24T11:02:59Z</time></trkpt><trkpt lat="14.410410676929471" lon="120.87985831798434"><ele>7.6</ele><time>2026-04-24T11:03:00Z</time></trkpt><trkpt lat="14.410439180409169" lon="120.87975825889392"><ele>7.0</ele><time>2026-04-24T11:03:01Z</time></trkpt><trkpt lat="14.410462415789917" lon="120.87967370671664"><ele>7.000000000000001</ele><time>2026-04-24T11:03:02Z</time></trkpt><trkpt lat="14.410491078383776" lon="120.87957606786003"><ele>7.0</ele><time>2026-04-24T11:03:03Z</time></trkpt><trkpt lat="14.410513693759581" lon="120.87949723622496"><ele>7.0</ele><time>2026-04-24T11:03:04Z</time></trkpt><trkpt lat="14.410534079988606" lon="120.87942304436451"><ele>7.0</ele><time>2026-04-24T11:03:05Z</time></trkpt><trkpt lat="14.410552109006003" lon="120.87935559045232"><ele>7.000000000000001</ele><time>2026-04-24T11:03:06Z</time></trkpt><trkpt lat="14.410581491327292" lon="120.87925479283336"><ele>7.0</ele><time>2026-04-24T11:03:08Z</time></trkpt><trkpt lat="14.41060202788438" lon="120.87918070740061"><ele>7.571428571428571</ele><time>2026-04-24T11:03:11Z</time></trkpt><trkpt lat="14.410609138627164" lon="120.87909132079714"><ele>8.142857142857142</ele><time>2026-04-24T11:03:15Z</time></trkpt><trkpt lat="14.410630985438528" lon="120.87903012759463"><ele>8.714285714285715</ele><time>2026-04-24T11:03:17Z</time></trkpt><trkpt lat="14.410643346050152" lon="120.87895475480053"><ele>9.285714285714285</ele><time>2026-04-24T11:03:21Z</time></trkpt><trkpt lat="14.41064517979349" lon="120.878889705938"><ele>9.857142857142858</ele><time>2026-04-24T11:03:46Z</time></trkpt><trkpt lat="14.410642925175479" lon="120.87882057027676"><ele>10.428571428571429</ele><time>2026-04-24T11:03:54Z</time></trkpt><trkpt lat="14.410605806876159" lon="120.87875310582193"><ele>11.0</ele><time>2026-04-24T11:04:00Z</time></trkpt><trkpt lat="14.410526455884566" lon="120.87873563114911"><ele>10.714285714285715</ele><time>2026-04-24T11:04:03Z</time></trkpt><trkpt lat="14.410454339927721" lon="120.87870655305713"><ele>10.428571428571429</ele><time>2026-04-24T11:04:06Z</time></trkpt><trkpt lat="14.410370685054556" lon="120.8786827281144"><ele>10.142857142857142</ele><time>2026-04-24T11:04:09Z</time></trkpt><trkpt lat="14.41030296532043" lon="120.87865709382646"><ele>9.857142857142858</ele><time>2026-04-24T11:04:11Z</time></trkpt><trkpt lat="14.410231472768208" lon="120.87864229148731"><ele>9.571428571428571</ele><time>2026-04-24T11:04:14Z</time></trkpt><trkpt lat="14.410168118121351" lon="120.8786279799161"><ele>9.285714285714286</ele><time>2026-04-24T11:04:16Z</time></trkpt><trkpt lat="14.410103577457587" lon="120.87861991331211"><ele>9.0</ele><time>2026-04-24T11:04:18Z</time></trkpt><trkpt lat="14.410024392162208" lon="120.87860659332067"><ele>9.0</ele><time>2026-04-24T11:04:20Z</time></trkpt><trkpt lat="14.409954808643986" lon="120.87858903354649"><ele>9.0</ele><time>2026-04-24T11:04:22Z</time></trkpt><trkpt lat="14.409886232902393" lon="120.87857527408445"><ele>9.0</ele><time>2026-04-24T11:04:24Z</time></trkpt><trkpt lat="14.409803020638225" lon="120.87855893161158"><ele>9.0</ele><time>2026-04-24T11:04:26Z</time></trkpt><trkpt lat="14.40973213462336" lon="120.87854285267406"><ele>9.0</ele><time>2026-04-24T11:04:28Z</time></trkpt><trkpt lat="14.409657858730661" lon="120.87852519120476"><ele>9.0</ele><time>2026-04-24T11:04:31Z</time></trkpt><trkpt lat="14.409578634604694" lon="120.87850267738972"><ele>9.166666666666666</ele><time>2026-04-24T11:04:34Z</time></trkpt><trkpt lat="14.409486517232168" lon="120.87848468117939"><ele>9.333333333333334</ele><time>2026-04-24T11:04:37Z</time></trkpt><trkpt lat="14.409416922869124" lon="120.87847142247789"><ele>9.5</ele><time>2026-04-24T11:04:39Z</time></trkpt><trkpt lat="14.409333036926611" lon="120.87845370109315"><ele>9.666666666666668</ele><time>2026-04-24T11:04:41Z</time></trkpt><trkpt lat="14.409258932586473" lon="120.87843150007745"><ele>9.833333333333334</ele><time>2026-04-24T11:04:51Z</time></trkpt><trkpt lat="14.409180722407536" lon="120.87840502530314"><ele>10.0</ele><time>2026-04-24T11:04:56Z</time></trkpt><trkpt lat="14.409100173168246" lon="120.87839575120874"><ele>10.166666666666668</ele><time>2026-04-24T11:05:00Z</time></trkpt><trkpt lat="14.409036044321573" lon="120.87837701933397"><ele>10.333333333333334</ele><time>2026-04-24T11:05:03Z</time></trkpt><trkpt lat="14.408950729836281" lon="120.87835920774776"><ele>10.5</ele><time>2026-04-24T11:05:07Z</time></trkpt><trkpt lat="14.408864691840192" lon="120.87833945103922"><ele>10.666666666666666</ele><time>2026-04-24T11:05:10Z</time></trkpt><trkpt lat="14.408793597673037" lon="120.87832518608937"><ele>10.833333333333332</ele><time>2026-04-24T11:05:13Z</time></trkpt><trkpt lat="14.408727720837554" lon="120.8783110201653"><ele>11.0</ele><time>2026-04-24T11:05:16Z</time></trkpt><trkpt lat="14.408642365226935" lon="120.87829354599194"><ele>11.0</ele><time>2026-04-24T11:05:19Z</time></trkpt><trkpt lat="14.408574751448556" lon="120.87828210837843"><ele>11.0</ele><time>2026-04-24T11:05:21Z</time></trkpt><trkpt lat="14.408494277924632" lon="120.87828023076185"><ele>11.0</ele><time>2026-04-24T11:05:24Z</time></trkpt><trkpt lat="14.408419966429964" lon="120.87826602255423"><ele>11.0</ele><time>2026-04-24T11:05:27Z</time></trkpt><trkpt lat="14.408338845413857" lon="120.87824869182401"><ele>11.0</ele><time>2026-04-24T11:05:30Z</time></trkpt><trkpt lat="14.408273951065615" lon="120.87822983781625"><ele>11.0</ele><time>2026-04-24T11:05:32Z</time></trkpt><trkpt lat="14.408193071691178" lon="120.87820621101127"><ele>11.0</ele><time>2026-04-24T11:05:36Z</time></trkpt><trkpt lat="14.408116561637113" lon="120.8781862025973"><ele>11.0</ele><time>2026-04-24T11:05:40Z</time></trkpt><trkpt lat="14.408040230563591" lon="120.87817147327519"><ele>11.0</ele><time>2026-04-24T11:05:43Z</time></trkpt><trkpt lat="14.407962661210057" lon="120.87815047190004"><ele>11.0</ele><time>2026-04-24T11:05:46Z</time></trkpt><trkpt lat="14.40788207822891" lon="120.87811220169982"><ele>11.0</ele><time>2026-04-24T11:05:49Z</time></trkpt><trkpt lat="14.407803007437701" lon="120.87808783005678"><ele>11.0</ele><time>2026-04-24T11:05:51Z</time></trkpt><trkpt lat="14.407689544964255" lon="120.87805774311221"><ele>10.833333333333332</ele><time>2026-04-24T11:05:53Z</time></trkpt><trkpt lat="14.40759531936784" lon="120.87804142455774"><ele>10.666666666666666</ele><time>2026-04-24T11:05:55Z</time></trkpt><trkpt lat="14.40752766746486" lon="120.87802235214646"><ele>10.5</ele><time>2026-04-24T11:05:57Z</time></trkpt><trkpt lat="14.40745178314153" lon="120.87800929206523"><ele>10.333333333333334</ele><time>2026-04-24T11:06:00Z</time></trkpt><trkpt lat="14.407364998395376" lon="120.8779871527162"><ele>10.166666666666668</ele><time>2026-04-24T11:06:03Z</time></trkpt><trkpt lat="14.407287316653733" lon="120.877972880962"><ele>10.0</ele><time>2026-04-24T11:06:06Z</time></trkpt><trkpt lat="14.407221227437596" lon="120.8779552642818"><ele>10.142857142857142</ele><time>2026-04-24T11:06:08Z</time></trkpt><trkpt lat="14.407144373172635" lon="120.87794412997701"><ele>10.285714285714286</ele><time>2026-04-24T11:06:10Z</time></trkpt><trkpt lat="14.407076591860747" lon="120.87793067711095"><ele>10.428571428571429</ele><time>2026-04-24T11:06:12Z</time></trkpt><trkpt lat="14.407015541820236" lon="120.87791153583865"><ele>10.571428571428571</ele><time>2026-04-24T11:06:15Z</time></trkpt><trkpt lat="14.406951378795418" lon="120.87789660082758"><ele>10.714285714285714</ele><time>2026-04-24T11:06:18Z</time></trkpt><trkpt lat="14.406881718220593" lon="120.87788563615439"><ele>10.857142857142858</ele><time>2026-04-24T11:06:22Z</time></trkpt><trkpt lat="14.406821002866256" lon="120.87785350261964"><ele>11.0</ele><time>2026-04-24T11:06:29Z</time></trkpt><trkpt lat="14.406753070315714" lon="120.87780261665368"><ele>11.0</ele><time>2026-04-24T11:06:35Z</time></trkpt><trkpt lat="14.406646197329222" lon="120.87778567805034"><ele>11.0</ele><time>2026-04-24T11:06:37Z</time></trkpt><trkpt lat="14.406580274774024" lon="120.87776864821795"><ele>11.0</ele><time>2026-04-24T11:06:39Z</time></trkpt><trkpt lat="14.4065188637503" lon="120.87775416666928"><ele>11.0</ele><time>2026-04-24T11:06:41Z</time></trkpt><trkpt lat="14.406440874423396" lon="120.87773402260957"><ele>11.0</ele><time>2026-04-24T11:06:43Z</time></trkpt><trkpt lat="14.406347927123875" lon="120.87770976071906"><ele>11.0</ele><time>2026-04-24T11:06:45Z</time></trkpt><trkpt lat="14.406286249821381" lon="120.87769362581854"><ele>11.142857142857142</ele><time>2026-04-24T11:06:46Z</time></trkpt><trkpt lat="14.406223200210906" lon="120.87767888660038"><ele>11.285714285714285</ele><time>2026-04-24T11:06:47Z</time></trkpt><trkpt lat="14.406151394681109" lon="120.87766468753283"><ele>11.428571428571427</ele><time>2026-04-24T11:06:48Z</time></trkpt><trkpt lat="14.406089049333282" lon="120.87764896131118"><ele>11.571428571428571</ele><time>2026-04-24T11:06:49Z</time></trkpt><trkpt lat="14.40602516985215" lon="120.87763593073882"><ele>11.714285714285714</ele><time>2026-04-24T11:06:50Z</time></trkpt><trkpt lat="14.405925845622235" lon="120.87761410432216"><ele>11.857142857142856</ele><time>2026-04-24T11:06:52Z</time></trkpt><trkpt lat="14.405848887851837" lon="120.87759160287244"><ele>12.0</ele><time>2026-04-24T11:06:54Z</time></trkpt><trkpt lat="14.40578031503867" lon="120.87757366031698"><ele>12.0</ele><time>2026-04-24T11:06:56Z</time></trkpt><trkpt lat="14.405698167565754" lon="120.87755188783407"><ele>12.0</ele><time>2026-04-24T11:06:59Z</time></trkpt><trkpt lat="14.405628788992926" lon="120.87753181257567"><ele>12.0</ele><time>2026-04-24T11:07:01Z</time></trkpt><trkpt lat="14.405550438431447" lon="120.87750550671207"><ele>12.0</ele><time>2026-04-24T11:07:03Z</time></trkpt><trkpt lat="14.405460210150896" lon="120.87747620917914"><ele>12.0</ele><time>2026-04-24T11:07:05Z</time></trkpt><trkpt lat="14.405370062943538" lon="120.87745261612673"><ele>12.0</ele><time>2026-04-24T11:07:07Z</time></trkpt><trkpt lat="14.40526671322367" lon="120.87741077101627"><ele>12.0</ele><time>2026-04-24T11:07:09Z</time></trkpt><trkpt lat="14.405203013302641" lon="120.87738621497232"><ele>12.0</ele><time>2026-04-24T11:07:10Z</time></trkpt><trkpt lat="14.405090489810513" lon="120.87734929621195"><ele>12.0</ele><time>2026-04-24T11:07:12Z</time></trkpt><trkpt lat="14.40499816348935" lon="120.877321453779"><ele>12.0</ele><time>2026-04-24T11:07:14Z</time></trkpt><trkpt lat="14.404897530636326" lon="120.87728157871216"><ele>12.0</ele><time>2026-04-24T11:07:16Z</time></trkpt><trkpt lat="14.404828244414897" lon="120.87725218326825"><ele>12.0</ele><time>2026-04-24T11:07:18Z</time></trkpt><trkpt lat="14.404745934900005" lon="120.87721754442262"><ele>12.0</ele><time>2026-04-24T11:07:20Z</time></trkpt><trkpt lat="14.404642674905359" lon="120.87715394513903"><ele>12.0</ele><time>2026-04-24T11:07:22Z</time></trkpt><trkpt lat="14.404586356743902" lon="120.87712240804942"><ele>12.0</ele><time>2026-04-24T11:07:23Z</time></trkpt><trkpt lat="14.404526413032432" lon="120.87708792289992"><ele>12.0</ele><time>2026-04-24T11:07:24Z</time></trkpt><trkpt lat="14.404464900524461" lon="120.87705580676311"><ele>12.0</ele><time>2026-04-24T11:07:25Z</time></trkpt><trkpt lat="14.40436830739991" lon="120.87699476535911"><ele>11.666666666666666</ele><time>2026-04-24T11:07:27Z</time></trkpt><trkpt lat="14.404264232678829" lon="120.8769226134325"><ele>11.333333333333334</ele><time>2026-04-24T11:07:29Z</time></trkpt><trkpt lat="14.404209109741753" lon="120.87688471090749"><ele>11.0</ele><time>2026-04-24T11:07:30Z</time></trkpt><trkpt lat="14.404124828638814" lon="120.87682740523586"><ele>10.666666666666668</ele><time>2026-04-24T11:07:32Z</time></trkpt><trkpt lat="14.404067685750732" lon="120.87678479939379"><ele>10.333333333333334</ele><time>2026-04-24T11:07:34Z</time></trkpt><trkpt lat="14.404006315526766" lon="120.87675425135924"><ele>10.0</ele><time>2026-04-24T11:07:37Z</time></trkpt><trkpt lat="14.403941625307578" lon="120.87674456295144"><ele>10.0</ele><time>2026-04-24T11:07:41Z</time></trkpt><trkpt lat="14.403871925684044" lon="120.87680633008158"><ele>10.0</ele><time>2026-04-24T11:07:43Z</time></trkpt><trkpt lat="14.40378956839225" lon="120.87688905741578"><ele>10.0</ele><time>2026-04-24T11:07:45Z</time></trkpt><trkpt lat="14.403725068997094" lon="120.87692303501352"><ele>10.0</ele><time>2026-04-24T11:07:46Z</time></trkpt><trkpt lat="14.403654844561093" lon="120.87695673057655"><ele>10.0</ele><time>2026-04-24T11:07:47Z</time></trkpt><trkpt lat="14.403582548233564" lon="120.8769921470886"><ele>10.0</ele><time>2026-04-24T11:07:48Z</time></trkpt><trkpt lat="14.403509456528772" lon="120.87703303116817"><ele>10.2</ele><time>2026-04-24T11:07:49Z</time></trkpt><trkpt lat="14.403424240213173" lon="120.8770804632857"><ele>10.4</ele><time>2026-04-24T11:07:50Z</time></trkpt><trkpt lat="14.403334313328017" lon="120.87712639485459"><ele>10.600000000000001</ele><time>2026-04-24T11:07:51Z</time></trkpt><trkpt lat="14.403237239878173" lon="120.87717311856012"><ele>10.8</ele><time>2026-04-24T11:07:52Z</time></trkpt><trkpt lat="14.403137827896062" lon="120.87721845414123"><ele>11.0</ele><time>2026-04-24T11:07:53Z</time></trkpt><trkpt lat="14.403035163855884" lon="120.87725852249044"><ele>11.200000000000001</ele><time>2026-04-24T11:07:54Z</time></trkpt><trkpt lat="14.402927007317544" lon="120.8772752543667"><ele>11.4</ele><time>2026-04-24T11:07:55Z</time></trkpt><trkpt lat="14.402815761339612" lon="120.8772692198124"><ele>11.6</ele><time>2026-04-24T11:07:56Z</time></trkpt><trkpt lat="14.402705438337769" lon="120.87725079496359"><ele>11.8</ele><time>2026-04-24T11:07:57Z</time></trkpt><trkpt lat="14.402590013574233" lon="120.87723739832366"><ele>12.0</ele><time>2026-04-24T11:07:58Z</time></trkpt><trkpt lat="14.402475194753226" lon="120.87722557554623"><ele>12.0</ele><time>2026-04-24T11:07:59Z</time></trkpt><trkpt lat="14.402358791615347" lon="120.8772196580198"><ele>12.0</ele><time>2026-04-24T11:08:00Z</time></trkpt><trkpt lat="14.402251697018603" lon="120.87721225509507"><ele>12.0</ele><time>2026-04-24T11:08:01Z</time></trkpt><trkpt lat="14.40214093657905" lon="120.87720546954438"><ele>12.0</ele><time>2026-04-24T11:08:02Z</time></trkpt><trkpt lat="14.402031439042398" lon="120.87720116867159"><ele>12.0</ele><time>2026-04-24T11:08:03Z</time></trkpt><trkpt lat="14.401917928307402" lon="120.87720126764728"><ele>12.0</ele><time>2026-04-24T11:08:04Z</time></trkpt><trkpt lat="14.401803225481384" lon="120.87718961580553"><ele>12.0</ele><time>2026-04-24T11:08:05Z</time></trkpt><trkpt lat="14.401690407677501" lon="120.87718097586009"><ele>12.0</ele><time>2026-04-24T11:08:06Z</time></trkpt><trkpt lat="14.401577339942767" lon="120.87717785757624"><ele>12.0</ele><time>2026-04-24T11:08:07Z</time></trkpt><trkpt lat="14.40146826533478" lon="120.87717249989132"><ele>12.0</ele><time>2026-04-24T11:08:08Z</time></trkpt><trkpt lat="14.401355562926847" lon="120.87717415826192"><ele>12.0</ele><time>2026-04-24T11:08:09Z</time></trkpt><trkpt lat="14.401236796648126" lon="120.87717699384409"><ele>12.0</ele><time>2026-04-24T11:08:10Z</time></trkpt><trkpt lat="14.401117254871115" lon="120.87717247443757"><ele>12.0</ele><time>2026-04-24T11:08:11Z</time></trkpt><trkpt lat="14.400993751910482" lon="120.87717215216364"><ele>12.0</ele><time>2026-04-24T11:08:12Z</time></trkpt><trkpt lat="14.400873916388068" lon="120.8771706013508"><ele>12.0</ele><time>2026-04-24T11:08:13Z</time></trkpt><trkpt lat="14.400755634477807" lon="120.87717367195495"><ele>12.0</ele><time>2026-04-24T11:08:14Z</time></trkpt><trkpt lat="14.40063484285001" lon="120.87717137974128"><ele>12.0</ele><time>2026-04-24T11:08:15Z</time></trkpt><trkpt lat="14.400515786966457" lon="120.87716739134204"><ele>12.5</ele><time>2026-04-24T11:08:16Z</time></trkpt><trkpt lat="14.400400167740067" lon="120.87716775169413"><ele>13.0</ele><time>2026-04-24T11:08:17Z</time></trkpt><trkpt lat="14.40028336324535" lon="120.87716862677775"><ele>13.5</ele><time>2026-04-24T11:08:18Z</time></trkpt><trkpt lat="14.400166843434283" lon="120.87716825853722"><ele>14.0</ele><time>2026-04-24T11:08:19Z</time></trkpt><trkpt lat="14.400060065246311" lon="120.87716802647988"><ele>14.0</ele><time>2026-04-24T11:08:20Z</time></trkpt><trkpt lat="14.39996208178915" lon="120.87716723807013"><ele>13.999999999999998</ele><time>2026-04-24T11:08:21Z</time></trkpt><trkpt lat="14.399863294816914" lon="120.87716919970781"><ele>13.999999999999998</ele><time>2026-04-24T11:08:22Z</time></trkpt><trkpt lat="14.399761315537226" lon="120.87715746741881"><ele>14.0</ele><time>2026-04-24T11:08:23Z</time></trkpt><trkpt lat="14.399659264719737" lon="120.87713632139567"><ele>14.0</ele><time>2026-04-24T11:08:24Z</time></trkpt><trkpt lat="14.399552845453963" lon="120.87711309877311"><ele>14.0</ele><time>2026-04-24T11:08:25Z</time></trkpt><trkpt lat="14.399440258861869" lon="120.87708862308219"><ele>14.0</ele><time>2026-04-24T11:08:26Z</time></trkpt><trkpt lat="14.399327201054165" lon="120.87706800140303"><ele>14.0</ele><time>2026-04-24T11:08:27Z</time></trkpt><trkpt lat="14.399212871258271" lon="120.87704781619526"><ele>14.0</ele><time>2026-04-24T11:08:28Z</time></trkpt><trkpt lat="14.399092627948544" lon="120.87703066644208"><ele>14.0</ele><time>2026-04-24T11:08:29Z</time></trkpt><trkpt lat="14.398974786374916" lon="120.8770260791799"><ele>13.999999999999998</ele><time>2026-04-24T11:08:30Z</time></trkpt><trkpt lat="14.398863194663832" lon="120.87702193289202"><ele>13.999999999999998</ele><time>2026-04-24T11:08:31Z</time></trkpt><trkpt lat="14.398758525858927" lon="120.87701740156274"><ele>14.0</ele><time>2026-04-24T11:08:32Z</time></trkpt><trkpt lat="14.3986590661354" lon="120.87701248047189"><ele>14.0</ele><time>2026-04-24T11:08:33Z</time></trkpt><trkpt lat="14.398561666255652" lon="120.87701015790242"><ele>13.833333333333334</ele><time>2026-04-24T11:08:34Z</time></trkpt><trkpt lat="14.398462953371459" lon="120.87700275352888"><ele>13.666666666666668</ele><time>2026-04-24T11:08:35Z</time></trkpt><trkpt lat="14.39838208151831" lon="120.87700062197302"><ele>13.5</ele><time>2026-04-24T11:08:36Z</time></trkpt><trkpt lat="14.398301111004034" lon="120.876991153746"><ele>13.333333333333332</ele><time>2026-04-24T11:08:37Z</time></trkpt><trkpt lat="14.398219689465737" lon="120.87698342964516"><ele>13.166666666666666</ele><time>2026-04-24T11:08:38Z</time></trkpt><trkpt lat="14.398134015256703" lon="120.876973653308"><ele>13.0</ele><time>2026-04-24T11:08:39Z</time></trkpt><trkpt lat="14.398048038250908" lon="120.87695508970529"><ele>13.2</ele><time>2026-04-24T11:08:40Z</time></trkpt><trkpt lat="14.39795987862048" lon="120.87692020802402"><ele>13.4</ele><time>2026-04-24T11:08:41Z</time></trkpt><trkpt lat="14.397869861901302" lon="120.87686673933084"><ele>13.599999999999998</ele><time>2026-04-24T11:08:42Z</time></trkpt><trkpt lat="14.397782845324748" lon="120.87681244790859"><ele>13.799999999999999</ele><time>2026-04-24T11:08:43Z</time></trkpt><trkpt lat="14.397689801738885" lon="120.87674658506268"><ele>14.0</ele><time>2026-04-24T11:08:44Z</time></trkpt><trkpt lat="14.397600120241746" lon="120.87667487739681"><ele>14.25</ele><time>2026-04-24T11:08:45Z</time></trkpt><trkpt lat="14.397517554102055" lon="120.87658715479806"><ele>14.5</ele><time>2026-04-24T11:08:46Z</time></trkpt><trkpt lat="14.397437774657826" lon="120.87648699158045"><ele>14.75</ele><time>2026-04-24T11:08:47Z</time></trkpt><trkpt lat="14.3973605021052" lon="120.87638085675438"><ele>15.0</ele><time>2026-04-24T11:08:48Z</time></trkpt><trkpt lat="14.397285389367248" lon="120.8762693018389"><ele>15.0</ele><time>2026-04-24T11:08:49Z</time></trkpt><trkpt lat="14.397204467455147" lon="120.87616027899693"><ele>15.0</ele><time>2026-04-24T11:08:50Z</time></trkpt><trkpt lat="14.39712442509778" lon="120.87605274369454"><ele>15.0</ele><time>2026-04-24T11:08:51Z</time></trkpt><trkpt lat="14.397038948366186" lon="120.87593814092605"><ele>15.0</ele><time>2026-04-24T11:08:52Z</time></trkpt><trkpt lat="14.396965840518428" lon="120.87584123724322"><ele>15.0</ele><time>2026-04-24T11:08:53Z</time></trkpt><trkpt lat="14.396890736010922" lon="120.87574596399669"><ele>15.0</ele><time>2026-04-24T11:08:54Z</time></trkpt><trkpt lat="14.396837323564666" lon="120.87567604355796"><ele>15.0</ele><time>2026-04-24T11:08:55Z</time></trkpt><trkpt lat="14.396788994666768" lon="120.8756091548522"><ele>15.0</ele><time>2026-04-24T11:08:56Z</time></trkpt><trkpt lat="14.396742965558879" lon="120.87554865363921"><ele>15.0</ele><time>2026-04-24T11:08:57Z</time></trkpt><trkpt lat="14.39670182764" lon="120.87549440550067"><ele>15.0</ele><time>2026-04-24T11:08:58Z</time></trkpt><trkpt lat="14.396629694941527" lon="120.87540264772731"><ele>15.0</ele><time>2026-04-24T11:09:00Z</time></trkpt><trkpt lat="14.39656507571882" lon="120.8753066522096"><ele>15.0</ele><time>2026-04-24T11:09:02Z</time></trkpt><trkpt lat="14.396519577664185" lon="120.87523158799638"><ele>15.0</ele><time>2026-04-24T11:09:04Z</time></trkpt><trkpt lat="14.396452742074144" lon="120.87519455660724"><ele>15.0</ele><time>2026-04-24T11:09:06Z</time></trkpt><trkpt lat="14.396374844090415" lon="120.87521082402252"><ele>15.0</ele><time>2026-04-24T11:09:08Z</time></trkpt><trkpt lat="14.396303459443262" lon="120.87524393655606"><ele>15.0</ele><time>2026-04-24T11:09:10Z</time></trkpt><trkpt lat="14.396234573714718" lon="120.8752950585701"><ele>14.666666666666666</ele><time>2026-04-24T11:09:12Z</time></trkpt><trkpt lat="14.396163169412562" lon="120.87535588958843"><ele>14.333333333333332</ele><time>2026-04-24T11:09:14Z</time></trkpt><trkpt lat="14.396092968741868" lon="120.87541999224972"><ele>14.0</ele><time>2026-04-24T11:09:16Z</time></trkpt><trkpt lat="14.396044263498954" lon="120.87548207054853"><ele>13.666666666666666</ele><time>2026-04-24T11:09:18Z</time></trkpt><trkpt lat="14.39603128244101" lon="120.87554695967671"><ele>13.333333333333332</ele><time>2026-04-24T11:09:23Z</time></trkpt><trkpt lat="14.395990604315733" lon="120.87560050009601"><ele>13.0</ele><time>2026-04-24T11:12:06Z</time></trkpt><trkpt lat="14.395934699816214" lon="120.87563612683445"><ele>13.0</ele><time>2026-04-24T11:12:13Z</time></trkpt><trkpt lat="14.395867980551133" lon="120.87567724997744"><ele>13.0</ele><time>2026-04-24T11:12:20Z</time></trkpt><trkpt lat="14.39581928835163" lon="120.8757275390865"><ele>13.0</ele><time>2026-04-24T11:12:30Z</time></trkpt><trkpt lat="14.39580167405977" lon="120.87579195880153"><ele>13.0</ele><time>2026-04-24T11:12:39Z</time></trkpt><trkpt lat="14.395765253655043" lon="120.87585508982279"><ele>13.0</ele><time>2026-04-24T11:12:50Z</time></trkpt><trkpt lat="14.395734995329299" lon="120.87591352363302"><ele>13.0</ele><time>2026-04-24T11:13:01Z</time></trkpt><trkpt lat="14.395683570057347" lon="120.87595490616923"><ele>13.0</ele><time>2026-04-24T11:13:08Z</time></trkpt><trkpt lat="14.395633514402146" lon="120.87600627818973"><ele>13.0</ele><time>2026-04-24T11:13:16Z</time></trkpt><trkpt lat="14.395600672141889" lon="120.87606272585883"><ele>13.0</ele><time>2026-04-24T11:13:25.999Z</time></trkpt><trkpt lat="14.395613965167893" lon="120.875993123662"><ele>13.0</ele><time>2026-04-24T11:13:42Z</time></trkpt><trkpt lat="14.395642995287668" lon="120.8759351049656"><ele>13.0</ele><time>2026-04-24T11:13:52Z</time></trkpt><trkpt lat="14.395689768992758" lon="120.87588163272795"><ele>13.0</ele><time>2026-04-24T11:14:01Z</time></trkpt><trkpt lat="14.395735329895532" lon="120.87583088631943"><ele>13.0</ele><time>2026-04-24T11:14:08Z</time></trkpt><trkpt lat="14.395764167652818" lon="120.87576942733452"><ele>13.0</ele><time>2026-04-24T11:14:20Z</time></trkpt><trkpt lat="14.395809644523352" lon="120.87571952128236"><ele>13.0</ele><time>2026-04-24T11:14:30Z</time></trkpt><trkpt lat="14.395872972975242" lon="120.87568605873355"><ele>13.0</ele><time>2026-04-24T11:14:37Z</time></trkpt><trkpt lat="14.395918585384257" lon="120.87563281765216"><ele>13.0</ele><time>2026-04-24T11:14:46Z</time></trkpt><trkpt lat="14.39596133060001" lon="120.87558485486097"><ele>13.0</ele><time>2026-04-24T11:14:52Z</time></trkpt><trkpt lat="14.396064644655542" lon="120.87556199736431"><ele>13.0</ele><time>2026-04-24T11:15:23Z</time></trkpt><trkpt lat="14.396109600936848" lon="120.87561667532435"><ele>13.0</ele><time>2026-04-24T11:15:32Z</time></trkpt><trkpt lat="14.39608149262881" lon="120.87555432827605"><ele>13.0</ele><time>2026-04-24T11:16:04Z</time></trkpt><trkpt lat="14.396062207522185" lon="120.87548826273753"><ele>13.0</ele><time>2026-04-24T11:16:48Z</time></trkpt><trkpt lat="14.396103546426199" lon="120.87543753171387"><ele>13.0</ele><time>2026-04-24T11:16:55Z</time></trkpt><trkpt lat="14.396166556634626" lon="120.87539763929152"><ele>13.0</ele><time>2026-04-24T11:17:03Z</time></trkpt><trkpt lat="14.396224304699318" lon="120.87535791457402"><ele>13.0</ele><time>2026-04-24T11:17:09Z</time></trkpt><trkpt lat="14.396281090205333" lon="120.87531411971038"><ele>13.0</ele><time>2026-04-24T11:17:14Z</time></trkpt><trkpt lat="14.396345027411433" lon="120.87527326186496"><ele>13.0</ele><time>2026-04-24T11:17:19Z</time></trkpt><trkpt lat="14.396404875608834" lon="120.8752434460754"><ele>13.0</ele><time>2026-04-24T11:17:24Z</time></trkpt><trkpt lat="14.396455932833877" lon="120.8752037545668"><ele>13.285714285714285</ele><time>2026-04-24T11:17:29Z</time></trkpt><trkpt lat="14.396516884817167" lon="120.8751824585627"><ele>13.571428571428573</ele><time>2026-04-24T11:17:33Z</time></trkpt><trkpt lat="14.396585596877083" lon="120.87518022796779"><ele>13.857142857142858</ele><time>2026-04-24T11:17:41Z</time></trkpt><trkpt lat="14.396633526424825" lon="120.87522597487997"><ele>14.142857142857142</ele><time>2026-04-24T11:18:29Z</time></trkpt><trkpt lat="14.396565269955879" lon="120.87521897387583"><ele>14.428571428571427</ele><time>2026-04-24T11:18:42Z</time></trkpt><trkpt lat="14.396502402397983" lon="120.87526132023687"><ele>14.714285714285715</ele><time>2026-04-24T11:18:48Z</time></trkpt><trkpt lat="14.396430435448073" lon="120.87529016251514"><ele>15.0</ele><time>2026-04-24T11:18:54Z</time></trkpt><trkpt lat="14.396371014339527" lon="120.87531494357829"><ele>14.714285714285715</ele><time>2026-04-24T11:18:59Z</time></trkpt><trkpt lat="14.39631234927072" lon="120.87534858853512"><ele>14.428571428571427</ele><time>2026-04-24T11:19:05Z</time></trkpt><trkpt lat="14.396265635156873" lon="120.87539746344292"><ele>14.142857142857142</ele><time>2026-04-24T11:19:11Z</time></trkpt><trkpt lat="14.396218428437123" lon="120.87544544592743"><ele>13.857142857142858</ele><time>2026-04-24T11:19:17Z</time></trkpt><trkpt lat="14.396168942455912" lon="120.87549917281318"><ele>13.571428571428573</ele><time>2026-04-24T11:19:23Z</time></trkpt><trkpt lat="14.396125299457497" lon="120.87554671685754"><ele>13.285714285714285</ele><time>2026-04-24T11:19:28Z</time></trkpt><trkpt lat="14.39606493988458" lon="120.87557612697061"><ele>13.0</ele><time>2026-04-24T11:19:36Z</time></trkpt><trkpt lat="14.39608931942307" lon="120.87548451352119"><ele>12.999999999999998</ele><time>2026-04-24T11:22:00.999Z</time></trkpt><trkpt lat="14.396148708111864" lon="120.87541032332437"><ele>13.0</ele><time>2026-04-24T11:22:03.999Z</time></trkpt><trkpt lat="14.396191472893426" lon="120.87535640363733"><ele>13.0</ele><time>2026-04-24T11:22:05.999Z</time></trkpt><trkpt lat="14.396238360850257" lon="120.87530905131875"><ele>13.0</ele><time>2026-04-24T11:22:08.999Z</time></trkpt><trkpt lat="14.39628054387438" lon="120.87526057091254"><ele>12.999999999999998</ele><time>2026-04-24T11:22:13Z</time></trkpt><trkpt lat="14.396342326922447" lon="120.8751916421412"><ele>13.0</ele><time>2026-04-24T11:22:17Z</time></trkpt><trkpt lat="14.396353580243213" lon="120.87510600472251"><ele>13.2</ele><time>2026-04-24T11:22:19Z</time></trkpt><trkpt lat="14.396301768345792" lon="120.87501240899016"><ele>13.4</ele><time>2026-04-24T11:22:21Z</time></trkpt><trkpt lat="14.39622123620319" lon="120.8749136198652"><ele>13.599999999999998</ele><time>2026-04-24T11:22:23Z</time></trkpt><trkpt lat="14.396178487636918" lon="120.87486128714956"><ele>13.799999999999999</ele><time>2026-04-24T11:22:24Z</time></trkpt><trkpt lat="14.396100104777314" lon="120.87476717351876"><ele>14.0</ele><time>2026-04-24T11:22:26Z</time></trkpt><trkpt lat="14.39605599289726" lon="120.87471554586183"><ele>14.000000000000002</ele><time>2026-04-24T11:22:27Z</time></trkpt><trkpt lat="14.396011175865217" lon="120.87465959668499"><ele>14.0</ele><time>2026-04-24T11:22:28Z</time></trkpt><trkpt lat="14.395967195837638" lon="120.87459968175523"><ele>14.0</ele><time>2026-04-24T11:22:29Z</time></trkpt><trkpt lat="14.395924647475121" lon="120.87454309356778"><ele>14.0</ele><time>2026-04-24T11:22:30Z</time></trkpt><trkpt lat="14.395882158520067" lon="120.87448701968786"><ele>14.000000000000002</ele><time>2026-04-24T11:22:31Z</time></trkpt><trkpt lat="14.395802292574313" lon="120.87438926833649"><ele>14.0</ele><time>2026-04-24T11:22:33Z</time></trkpt><trkpt lat="14.39576128900337" lon="120.87433876924467"><ele>14.000000000000002</ele><time>2026-04-24T11:22:34Z</time></trkpt><trkpt lat="14.39572448608705" lon="120.87428321528282"><ele>14.0</ele><time>2026-04-24T11:22:35Z</time></trkpt><trkpt lat="14.39565461690729" lon="120.8741768549483"><ele>14.0</ele><time>2026-04-24T11:22:37Z</time></trkpt><trkpt lat="14.395617386077618" lon="120.87412440859325"><ele>14.0</ele><time>2026-04-24T11:22:38Z</time></trkpt><trkpt lat="14.395577938228339" lon="120.87406776949899"><ele>14.000000000000002</ele><time>2026-04-24T11:22:39Z</time></trkpt><trkpt lat="14.395536254961517" lon="120.87400716929474"><ele>14.0</ele><time>2026-04-24T11:22:40Z</time></trkpt><trkpt lat="14.395496524463018" lon="120.87394139087783"><ele>14.0</ele><time>2026-04-24T11:22:41Z</time></trkpt><trkpt lat="14.395457499664984" lon="120.87387756548979"><ele>14.0</ele><time>2026-04-24T11:22:42Z</time></trkpt><trkpt lat="14.395421511775302" lon="120.87381526245878"><ele>14.0</ele><time>2026-04-24T11:22:43Z</time></trkpt><trkpt lat="14.395385685757613" lon="120.87375403943155"><ele>14.0</ele><time>2026-04-24T11:22:44Z</time></trkpt><trkpt lat="14.395348001586791" lon="120.87369114001767"><ele>14.0</ele><time>2026-04-24T11:22:45Z</time></trkpt><trkpt lat="14.395311889645166" lon="120.87363028178171"><ele>14.0</ele><time>2026-04-24T11:22:46Z</time></trkpt><trkpt lat="14.395278386424256" lon="120.87356639003643"><ele>14.0</ele><time>2026-04-24T11:22:47Z</time></trkpt><trkpt lat="14.395224939416" lon="120.87345613570513"><ele>14.399999999999999</ele><time>2026-04-24T11:22:49Z</time></trkpt><trkpt lat="14.395185954129651" lon="120.87334749644414"><ele>14.799999999999999</ele><time>2026-04-24T11:22:51Z</time></trkpt><trkpt lat="14.395170974379951" lon="120.87327187706238"><ele>15.200000000000001</ele><time>2026-04-24T11:22:53Z</time></trkpt><trkpt lat="14.395160381377362" lon="120.87319630666101"><ele>15.600000000000001</ele><time>2026-04-24T11:22:55Z</time></trkpt><trkpt lat="14.395150480737332" lon="120.87310456162265"><ele>16.0</ele><time>2026-04-24T11:22:57Z</time></trkpt><trkpt lat="14.395131699027951" lon="120.87298743414217"><ele>16.0</ele><time>2026-04-24T11:22:59Z</time></trkpt><trkpt lat="14.395129295831444" lon="120.87292110935425"><ele>16.0</ele><time>2026-04-24T11:23:00Z</time></trkpt><trkpt lat="14.395118570064534" lon="120.87279443607187"><ele>16.0</ele><time>2026-04-24T11:23:02Z</time></trkpt><trkpt lat="14.395136621533021" lon="120.87266046231963"><ele>16.0</ele><time>2026-04-24T11:23:04Z</time></trkpt><trkpt lat="14.39514853436963" lon="120.87259123273617"><ele>16.0</ele><time>2026-04-24T11:23:05Z</time></trkpt><trkpt lat="14.395161059385268" lon="120.87252373399451"><ele>16.142857142857142</ele><time>2026-04-24T11:23:06Z</time></trkpt><trkpt lat="14.395179706614295" lon="120.87245418358434"><ele>16.285714285714285</ele><time>2026-04-24T11:23:07Z</time></trkpt><trkpt lat="14.395206187747693" lon="120.87237662723945"><ele>16.428571428571427</ele><time>2026-04-24T11:23:08Z</time></trkpt><trkpt lat="14.395228399339581" lon="120.87230051196356"><ele>16.57142857142857</ele><time>2026-04-24T11:23:09Z</time></trkpt><trkpt lat="14.395258099189126" lon="120.87222669458585"><ele>16.714285714285715</ele><time>2026-04-24T11:23:10Z</time></trkpt><trkpt lat="14.395291336429072" lon="120.87216368183432"><ele>16.857142857142854</ele><time>2026-04-24T11:23:11Z</time></trkpt><trkpt lat="14.395328057083727" lon="120.87209748424567"><ele>17.0</ele><time>2026-04-24T11:23:12Z</time></trkpt><trkpt lat="14.39536947619403" lon="120.87203362456927"><ele>16.999999999999996</ele><time>2026-04-24T11:23:13Z</time></trkpt><trkpt lat="14.395407707731472" lon="120.87197452909034"><ele>17.0</ele><time>2026-04-24T11:23:14Z</time></trkpt><trkpt lat="14.395450441759964" lon="120.87192083787673"><ele>17.0</ele><time>2026-04-24T11:23:15Z</time></trkpt><trkpt lat="14.395496539270304" lon="120.87186940299095"><ele>17.0</ele><time>2026-04-24T11:23:16Z</time></trkpt><trkpt lat="14.395543326297187" lon="120.8718228295181"><ele>17.0</ele><time>2026-04-24T11:23:17Z</time></trkpt><trkpt lat="14.39559185299771" lon="120.87177484037403"><ele>16.999999999999996</ele><time>2026-04-24T11:23:18Z</time></trkpt><trkpt lat="14.395640449579146" lon="120.8717321474794"><ele>17.0</ele><time>2026-04-24T11:23:19Z</time></trkpt><trkpt lat="14.39569232597321" lon="120.87169138478532"><ele>16.666666666666668</ele><time>2026-04-24T11:23:20Z</time></trkpt><trkpt lat="14.395751482991262" lon="120.87164522427634"><ele>16.333333333333336</ele><time>2026-04-24T11:23:21Z</time></trkpt><trkpt lat="14.3958098745787" lon="120.87160635759444"><ele>16.0</ele><time>2026-04-24T11:23:22Z</time></trkpt><trkpt lat="14.395877176132098" lon="120.87156836864813"><ele>15.666666666666668</ele><time>2026-04-24T11:23:23Z</time></trkpt><trkpt lat="14.395941567414608" lon="120.87153300739196"><ele>15.333333333333334</ele><time>2026-04-24T11:23:24Z</time></trkpt><trkpt lat="14.396017093803984" lon="120.8714963060559"><ele>15.0</ele><time>2026-04-24T11:23:25Z</time></trkpt><trkpt lat="14.396086800814732" lon="120.87146114618712"><ele>15.0</ele><time>2026-04-24T11:23:26Z</time></trkpt><trkpt lat="14.396164055869502" lon="120.8714308225366"><ele>15.0</ele><time>2026-04-24T11:23:27Z</time></trkpt><trkpt lat="14.39624175168592" lon="120.87140425428356"><ele>15.0</ele><time>2026-04-24T11:23:28Z</time></trkpt><trkpt lat="14.396315164022708" lon="120.87137787018578"><ele>15.0</ele><time>2026-04-24T11:23:29Z</time></trkpt><trkpt lat="14.396384076638798" lon="120.87135297143696"><ele>15.0</ele><time>2026-04-24T11:23:30Z</time></trkpt><trkpt lat="14.396452392026413" lon="120.87132818961774"><ele>15.0</ele><time>2026-04-24T11:23:31Z</time></trkpt><trkpt lat="14.396522160485855" lon="120.87130243130876"><ele>14.857142857142858</ele><time>2026-04-24T11:23:32Z</time></trkpt><trkpt lat="14.396598258705678" lon="120.87127656164613"><ele>14.714285714285714</ele><time>2026-04-24T11:23:33Z</time></trkpt><trkpt lat="14.396672797336707" lon="120.87125157561093"><ele>14.571428571428571</ele><time>2026-04-24T11:23:34Z</time></trkpt><trkpt lat="14.396737086647772" lon="120.87122619506263"><ele>14.428571428571429</ele><time>2026-04-24T11:23:35Z</time></trkpt><trkpt lat="14.396805304885607" lon="120.87120254018173"><ele>14.285714285714285</ele><time>2026-04-24T11:23:36Z</time></trkpt><trkpt lat="14.39687046947363" lon="120.87117495287326"><ele>14.142857142857142</ele><time>2026-04-24T11:23:37Z</time></trkpt><trkpt lat="14.39694097096479" lon="120.8711495175753"><ele>14.0</ele><time>2026-04-24T11:23:38Z</time></trkpt><trkpt lat="14.39701073105931" lon="120.87112331096093"><ele>14.000000000000002</ele><time>2026-04-24T11:23:39Z</time></trkpt><trkpt lat="14.397079443378152" lon="120.87109732106669"><ele>14.0</ele><time>2026-04-24T11:23:40Z</time></trkpt><trkpt lat="14.39715030985578" lon="120.87107013774046"><ele>14.0</ele><time>2026-04-24T11:23:41Z</time></trkpt><trkpt lat="14.397230242475006" lon="120.8710429574851"><ele>14.0</ele><time>2026-04-24T11:23:42Z</time></trkpt><trkpt lat="14.397306669553315" lon="120.87101453490935"><ele>14.000000000000002</ele><time>2026-04-24T11:23:43Z</time></trkpt><trkpt lat="14.397390786752196" lon="120.87098200253705"><ele>14.0</ele><time>2026-04-24T11:23:44Z</time></trkpt><trkpt lat="14.39746795261782" lon="120.87095230001361"><ele>13.833333333333334</ele><time>2026-04-24T11:23:45Z</time></trkpt><trkpt lat="14.397544030763184" lon="120.87092489458686"><ele>13.666666666666668</ele><time>2026-04-24T11:23:46Z</time></trkpt><trkpt lat="14.39761975915908" lon="120.8709008017935"><ele>13.5</ele><time>2026-04-24T11:23:47Z</time></trkpt><trkpt lat="14.397686105642498" lon="120.8708704893951"><ele>13.333333333333332</ele><time>2026-04-24T11:23:48Z</time></trkpt><trkpt lat="14.397772344895456" lon="120.87083899475654"><ele>13.166666666666666</ele><time>2026-04-24T11:23:49Z</time></trkpt><trkpt lat="14.397842780287311" lon="120.8708092098953"><ele>13.0</ele><time>2026-04-24T11:23:50Z</time></trkpt><trkpt lat="14.397916411696198" lon="120.87078698710313"><ele>13.0</ele><time>2026-04-24T11:23:50.999Z</time></trkpt><trkpt lat="14.397984030470573" lon="120.87076622115352"><ele>13.0</ele><time>2026-04-24T11:23:51.999Z</time></trkpt><trkpt lat="14.398050135767935" lon="120.87074284425371"><ele>13.0</ele><time>2026-04-24T11:23:52.999Z</time></trkpt><trkpt lat="14.398121621938786" lon="120.87071845089982"><ele>13.0</ele><time>2026-04-24T11:23:53.999Z</time></trkpt><trkpt lat="14.398194152729992" lon="120.87069574864928"><ele>13.0</ele><time>2026-04-24T11:23:54.999Z</time></trkpt><trkpt lat="14.398259232195272" lon="120.8706746610473"><ele>13.0</ele><time>2026-04-24T11:23:55.999Z</time></trkpt><trkpt lat="14.398325378239702" lon="120.87065695122759"><ele>13.0</ele><time>2026-04-24T11:23:56.999Z</time></trkpt><trkpt lat="14.39839022334793" lon="120.8706353805175"><ele>13.142857142857142</ele><time>2026-04-24T11:23:57.999Z</time></trkpt><trkpt lat="14.398463031018737" lon="120.87061313677613"><ele>13.285714285714286</ele><time>2026-04-24T11:23:58.999Z</time></trkpt><trkpt lat="14.398540758649586" lon="120.87059401758407"><ele>13.428571428571429</ele><time>2026-04-24T11:23:59.999Z</time></trkpt><trkpt lat="14.398602606927444" lon="120.8705772993834"><ele>13.571428571428571</ele><time>2026-04-24T11:24:00.999Z</time></trkpt><trkpt lat="14.398666411069218" lon="120.87056271707716"><ele>13.714285714285715</ele><time>2026-04-24T11:24:01.999Z</time></trkpt><trkpt lat="14.39874351044868" lon="120.87054265410626"><ele>13.857142857142858</ele><time>2026-04-24T11:24:03.999Z</time></trkpt><trkpt lat="14.398815289949967" lon="120.87051298913457"><ele>14.0</ele><time>2026-04-24T11:24:07Z</time></trkpt><trkpt lat="14.398873767517612" lon="120.87048114933275"><ele>14.000000000000002</ele><time>2026-04-24T11:24:10Z</time></trkpt><trkpt lat="14.398931117402604" lon="120.87042284200132"><ele>14.0</ele><time>2026-04-24T11:24:13Z</time></trkpt><trkpt lat="14.398954221030552" lon="120.87033125374559"><ele>14.0</ele><time>2026-04-24T11:24:16Z</time></trkpt><trkpt lat="14.398896539942642" lon="120.87023095768286"><ele>14.0</ele><time>2026-04-24T11:24:18Z</time></trkpt><trkpt lat="14.398856485002737" lon="120.87017525367226"><ele>14.000000000000002</ele><time>2026-04-24T11:24:19Z</time></trkpt><trkpt lat="14.398810132634617" lon="120.87011504517695"><ele>14.0</ele><time>2026-04-24T11:24:20Z</time></trkpt><trkpt lat="14.398758236233528" lon="120.87005098860571"><ele>14.0</ele><time>2026-04-24T11:24:21Z</time></trkpt><trkpt lat="14.398701781765403" lon="120.86997988277375"><ele>13.999999999999998</ele><time>2026-04-24T11:24:22Z</time></trkpt><trkpt lat="14.398646326304494" lon="120.86990464774132"><ele>13.999999999999998</ele><time>2026-04-24T11:24:23Z</time></trkpt><trkpt lat="14.398590595596323" lon="120.86982912716252"><ele>14.0</ele><time>2026-04-24T11:24:24Z</time></trkpt><trkpt lat="14.398532779625576" lon="120.86975057189323"><ele>14.0</ele><time>2026-04-24T11:24:25Z</time></trkpt><trkpt lat="14.398470933075728" lon="120.86967022056504"><ele>14.000000000000002</ele><time>2026-04-24T11:24:26Z</time></trkpt><trkpt lat="14.398415893181918" lon="120.86959577407451"><ele>14.0</ele><time>2026-04-24T11:24:27Z</time></trkpt><trkpt lat="14.398365088539597" lon="120.86952719356128"><ele>14.0</ele><time>2026-04-24T11:24:28Z</time></trkpt><trkpt lat="14.398312807532532" lon="120.86945693383358"><ele>14.0</ele><time>2026-04-24T11:24:29Z</time></trkpt><trkpt lat="14.398259569409772" lon="120.86938651309828"><ele>14.000000000000002</ele><time>2026-04-24T11:24:30Z</time></trkpt><trkpt lat="14.398204590742832" lon="120.86931486610003"><ele>14.0</ele><time>2026-04-24T11:24:31Z</time></trkpt><trkpt lat="14.398148330446702" lon="120.86923997276563"><ele>13.857142857142858</ele><time>2026-04-24T11:24:32Z</time></trkpt><trkpt lat="14.398097841674119" lon="120.86916344959894"><ele>13.714285714285715</ele><time>2026-04-24T11:24:33Z</time></trkpt><trkpt lat="14.398056875306452" lon="120.86909743180087"><ele>13.571428571428571</ele><time>2026-04-24T11:24:34Z</time></trkpt><trkpt lat="14.398024055668202" lon="120.86903946259014"><ele>13.428571428571429</ele><time>2026-04-24T11:24:35Z</time></trkpt><trkpt lat="14.397988037593047" lon="120.86898359076108"><ele>13.285714285714286</ele><time>2026-04-24T11:24:36Z</time></trkpt><trkpt lat="14.397949147509415" lon="120.86892170965676"><ele>13.142857142857142</ele><time>2026-04-24T11:24:37Z</time></trkpt><trkpt lat="14.397912153210635" lon="120.86886088194615"><ele>13.0</ele><time>2026-04-24T11:24:38Z</time></trkpt><trkpt lat="14.397873903776578" lon="120.86880522211906"><ele>13.0</ele><time>2026-04-24T11:24:39Z</time></trkpt><trkpt lat="14.39780152507681" lon="120.86870171294089"><ele>13.0</ele><time>2026-04-24T11:24:41Z</time></trkpt><trkpt lat="14.397735023797544" lon="120.86860815846603"><ele>13.0</ele><time>2026-04-24T11:24:43Z</time></trkpt><trkpt lat="14.397666424134755" lon="120.86850990876862"><ele>13.0</ele><time>2026-04-24T11:24:45Z</time></trkpt><trkpt lat="14.397620025722652" lon="120.86845478273152"><ele>13.0</ele><time>2026-04-24T11:24:46Z</time></trkpt><trkpt lat="14.397564428234032" lon="120.86839130638478"><ele>13.166666666666666</ele><time>2026-04-24T11:24:47Z</time></trkpt><trkpt lat="14.397517356765613" lon="120.8683364581012"><ele>13.333333333333332</ele><time>2026-04-24T11:24:48Z</time></trkpt><trkpt lat="14.397468070657112" lon="120.86828350763209"><ele>13.5</ele><time>2026-04-24T11:24:49Z</time></trkpt><trkpt lat="14.397421351406019" lon="120.86822320676416"><ele>13.666666666666668</ele><time>2026-04-24T11:24:50Z</time></trkpt><trkpt lat="14.397369434643107" lon="120.86815896486065"><ele>13.833333333333334</ele><time>2026-04-24T11:24:51Z</time></trkpt><trkpt lat="14.397323804223292" lon="120.86809246487125"><ele>14.0</ele><time>2026-04-24T11:24:52Z</time></trkpt><trkpt lat="14.397273294080158" lon="120.8680228920471"><ele>14.000000000000002</ele><time>2026-04-24T11:24:53Z</time></trkpt><trkpt lat="14.397221948962608" lon="120.86795347867611"><ele>14.0</ele><time>2026-04-24T11:24:54Z</time></trkpt><trkpt lat="14.397168784636103" lon="120.86788836376539"><ele>14.0</ele><time>2026-04-24T11:24:55Z</time></trkpt><trkpt lat="14.397120783039032" lon="120.86782463923977"><ele>14.0</ele><time>2026-04-24T11:24:56Z</time></trkpt><trkpt lat="14.397066047102042" lon="120.86775261532175"><ele>14.000000000000002</ele><time>2026-04-24T11:24:57Z</time></trkpt><trkpt lat="14.397015774035049" lon="120.86770252924278"><ele>14.0</ele><time>2026-04-24T11:24:58Z</time></trkpt><trkpt lat="14.396970908372525" lon="120.86764915077208"><ele>14.333333333333334</ele><time>2026-04-24T11:24:59Z</time></trkpt><trkpt lat="14.39692930974836" lon="120.86759331101376"><ele>14.666666666666668</ele><time>2026-04-24T11:25:00Z</time></trkpt><trkpt lat="14.396891547935812" lon="120.86753866893159"><ele>15.0</ele><time>2026-04-24T11:25:01Z</time></trkpt><trkpt lat="14.396834901502416" lon="120.86745000800536"><ele>15.333333333333332</ele><time>2026-04-24T11:25:03Z</time></trkpt><trkpt lat="14.396805890340191" lon="120.86738407760289"><ele>15.666666666666666</ele><time>2026-04-24T11:25:05Z</time></trkpt><trkpt lat="14.39676698814774" lon="120.86731876429494"><ele>16.0</ele><time>2026-04-24T11:25:08Z</time></trkpt><trkpt lat="14.396716392610324" lon="120.86725024154828"><ele>15.999999999999998</ele><time>2026-04-24T11:25:11Z</time></trkpt><trkpt lat="14.396660191833734" lon="120.86717726052225"><ele>16.0</ele><time>2026-04-24T11:25:15Z</time></trkpt><trkpt lat="14.396599105774763" lon="120.86709473585158"><ele>16.0</ele><time>2026-04-24T11:25:18Z</time></trkpt><trkpt lat="14.396557564170008" lon="120.86703385866227"><ele>16.0</ele><time>2026-04-24T11:25:20Z</time></trkpt><trkpt lat="14.396502904294975" lon="120.86695348389354"><ele>15.999999999999998</ele><time>2026-04-24T11:25:23Z</time></trkpt><trkpt lat="14.396462296905257" lon="120.8668919604563"><ele>16.0</ele><time>2026-04-24T11:25:26Z</time></trkpt><trkpt lat="14.396415888033978" lon="120.86682930192667"><ele>15.666666666666666</ele><time>2026-04-24T11:25:33Z</time></trkpt><trkpt lat="14.396362217886706" lon="120.8667609596137"><ele>15.333333333333332</ele><time>2026-04-24T11:25:36Z</time></trkpt><trkpt lat="14.396314345383987" lon="120.86669693684327"><ele>15.0</ele><time>2026-04-24T11:25:38Z</time></trkpt><trkpt lat="14.396260887011653" lon="120.86662007522418"><ele>14.666666666666668</ele><time>2026-04-24T11:25:40Z</time></trkpt><trkpt lat="14.39619897901598" lon="120.86652204040462"><ele>14.333333333333334</ele><time>2026-04-24T11:25:42Z</time></trkpt><trkpt lat="14.396162619375803" lon="120.86646640965952"><ele>14.0</ele><time>2026-04-24T11:25:43Z</time></trkpt><trkpt lat="14.396130663633587" lon="120.86640202457063"><ele>14.000000000000002</ele><time>2026-04-24T11:25:44Z</time></trkpt><trkpt lat="14.3960935450665" lon="120.8663321780533"><ele>14.0</ele><time>2026-04-24T11:25:45Z</time></trkpt><trkpt lat="14.396055870815966" lon="120.86626399251867"><ele>14.0</ele><time>2026-04-24T11:25:46Z</time></trkpt><trkpt lat="14.396026278279649" lon="120.86618179732167"><ele>14.0</ele><time>2026-04-24T11:25:47Z</time></trkpt><trkpt lat="14.395998857073618" lon="120.86609996020441"><ele>14.000000000000002</ele><time>2026-04-24T11:25:48Z</time></trkpt><trkpt lat="14.395975552715802" lon="120.86601628142844"><ele>14.0</ele><time>2026-04-24T11:25:49Z</time></trkpt><trkpt lat="14.395953955557475" lon="120.86592726442188"><ele>14.399999999999999</ele><time>2026-04-24T11:25:50Z</time></trkpt><trkpt lat="14.395928386079216" lon="120.86583430823237"><ele>14.799999999999999</ele><time>2026-04-24T11:25:51Z</time></trkpt><trkpt lat="14.395909134198948" lon="120.86574111293882"><ele>15.200000000000001</ele><time>2026-04-24T11:25:52Z</time></trkpt><trkpt lat="14.395889254011946" lon="120.86564278612401"><ele>15.600000000000001</ele><time>2026-04-24T11:25:53Z</time></trkpt><trkpt lat="14.395872092479285" lon="120.86554373550578"><ele>16.0</ele><time>2026-04-24T11:25:54Z</time></trkpt><trkpt lat="14.395855396836282" lon="120.86544594770855"><ele>15.999999999999998</ele><time>2026-04-24T11:25:55Z</time></trkpt><trkpt lat="14.395845357003392" lon="120.86535824377687"><ele>16.0</ele><time>2026-04-24T11:25:56Z</time></trkpt><trkpt lat="14.395837487240078" lon="120.86527274708422"><ele>16.0</ele><time>2026-04-24T11:25:57Z</time></trkpt><trkpt lat="14.395828419831293" lon="120.86518534882646"><ele>16.0</ele><time>2026-04-24T11:25:58Z</time></trkpt><trkpt lat="14.395821722527472" lon="120.86509748484443"><ele>15.999999999999998</ele><time>2026-04-24T11:25:59Z</time></trkpt><trkpt lat="14.395818469108226" lon="120.8650162699509"><ele>16.0</ele><time>2026-04-24T11:26:00Z</time></trkpt><trkpt lat="14.395814350182015" lon="120.86493675449113"><ele>16.333333333333332</ele><time>2026-04-24T11:26:01Z</time></trkpt><trkpt lat="14.395811595377426" lon="120.86485664914788"><ele>16.666666666666664</ele><time>2026-04-24T11:26:02Z</time></trkpt><trkpt lat="14.395808547410812" lon="120.86478080343774"><ele>17.0</ele><time>2026-04-24T11:26:03Z</time></trkpt><trkpt lat="14.395797279310344" lon="120.86466321636684"><ele>17.333333333333332</ele><time>2026-04-24T11:26:05Z</time></trkpt><trkpt lat="14.395781599502737" lon="120.86457802376405"><ele>17.666666666666668</ele><time>2026-04-24T11:26:07Z</time></trkpt><trkpt lat="14.395777626528117" lon="120.86451280677316"><ele>18.0</ele><time>2026-04-24T11:26:11Z</time></trkpt><trkpt lat="14.395781831049625" lon="120.86444630168641"><ele>18.000000000000004</ele><time>2026-04-24T11:26:17Z</time></trkpt><trkpt lat="14.395794006543795" lon="120.86435825011611"><ele>18.0</ele><time>2026-04-24T11:26:22Z</time></trkpt><trkpt lat="14.39579832246149" lon="120.86428893619143"><ele>18.0</ele><time>2026-04-24T11:26:28Z</time></trkpt><trkpt lat="14.395804552698864" lon="120.86421724749597"><ele>18.0</ele><time>2026-04-24T11:26:32Z</time></trkpt><trkpt lat="14.395817315296185" lon="120.8641517000787"><ele>18.0</ele><time>2026-04-24T11:26:35Z</time></trkpt><trkpt lat="14.39581620776636" lon="120.86408267478112"><ele>18.000000000000004</ele><time>2026-04-24T11:26:37Z</time></trkpt><trkpt lat="14.395798138226072" lon="120.86402004000838"><ele>18.0</ele><time>2026-04-24T11:26:39Z</time></trkpt><trkpt lat="14.39578384716015" lon="120.8639467784251"><ele>17.714285714285715</ele><time>2026-04-24T11:26:43Z</time></trkpt><trkpt lat="14.395781000216225" lon="120.86387334133524"><ele>17.42857142857143</ele><time>2026-04-24T11:26:48Z</time></trkpt><trkpt lat="14.395787054515823" lon="120.86379553445795"><ele>17.142857142857142</ele><time>2026-04-24T11:26:55Z</time></trkpt><trkpt lat="14.395782210233703" lon="120.86371277814713"><ele>16.857142857142858</ele><time>2026-04-24T11:26:59Z</time></trkpt><trkpt lat="14.395771414919693" lon="120.86364608045125"><ele>16.57142857142857</ele><time>2026-04-24T11:27:01Z</time></trkpt><trkpt lat="14.395766142829435" lon="120.86357450448673"><ele>16.285714285714285</ele><time>2026-04-24T11:27:03Z</time></trkpt><trkpt lat="14.395759928584466" lon="120.86350279873116"><ele>16.0</ele><time>2026-04-24T11:27:05Z</time></trkpt><trkpt lat="14.395752633680427" lon="120.8634279586498"><ele>16.0</ele><time>2026-04-24T11:27:07Z</time></trkpt><trkpt lat="14.395753217200182" lon="120.86335570115995"><ele>15.999999999999998</ele><time>2026-04-24T11:27:09Z</time></trkpt><trkpt lat="14.395748958846665" lon="120.86327495614123"><ele>16.0</ele><time>2026-04-24T11:27:11Z</time></trkpt><trkpt lat="14.395745497249127" lon="120.86320800898474"><ele>16.0</ele><time>2026-04-24T11:27:13Z</time></trkpt><trkpt lat="14.395743429600575" lon="120.86313694607556"><ele>15.999999999999998</ele><time>2026-04-24T11:27:16Z</time></trkpt><trkpt lat="14.395737844768007" lon="120.86306219442933"><ele>16.0</ele><time>2026-04-24T11:27:23Z</time></trkpt><trkpt lat="14.395732201807483" lon="120.86298041445902"><ele>16.0</ele><time>2026-04-24T11:27:27Z</time></trkpt><trkpt lat="14.395735121684737" lon="120.86291413967666"><ele>15.999999999999998</ele><time>2026-04-24T11:27:33Z</time></trkpt><trkpt lat="14.395737391232958" lon="120.86283938390476"><ele>16.0</ele><time>2026-04-24T11:27:40Z</time></trkpt><trkpt lat="14.395726514621552" lon="120.86276433523128"><ele>16.0</ele><time>2026-04-24T11:27:44Z</time></trkpt><trkpt lat="14.395712396279851" lon="120.86267939596783"><ele>16.0</ele><time>2026-04-24T11:27:47Z</time></trkpt><trkpt lat="14.395716191886857" lon="120.86258789203345"><ele>15.999999999999998</ele><time>2026-04-24T11:27:49Z</time></trkpt><trkpt lat="14.39572143962816" lon="120.86250038337981"><ele>16.0</ele><time>2026-04-24T11:27:51Z</time></trkpt><trkpt lat="14.39572146003375" lon="120.86240614671559"><ele>15.8</ele><time>2026-04-24T11:27:53Z</time></trkpt><trkpt lat="14.395728566887179" lon="120.86231179102967"><ele>15.600000000000001</ele><time>2026-04-24T11:27:55Z</time></trkpt><trkpt lat="14.395741166979422" lon="120.86220624226868"><ele>15.4</ele><time>2026-04-24T11:27:57Z</time></trkpt><trkpt lat="14.395757322754484" lon="120.86211258699902"><ele>15.2</ele><time>2026-04-24T11:28:00Z</time></trkpt><trkpt lat="14.395760716670402" lon="120.86201743040317"><ele>15.0</ele><time>2026-04-24T11:28:02Z</time></trkpt><trkpt lat="14.39575973308205" lon="120.861914545302"><ele>15.0</ele><time>2026-04-24T11:28:04Z</time></trkpt><trkpt lat="14.395762193376456" lon="120.86180885971817"><ele>15.0</ele><time>2026-04-24T11:28:06Z</time></trkpt><trkpt lat="14.395763590861636" lon="120.861711859587"><ele>15.0</ele><time>2026-04-24T11:28:08Z</time></trkpt><trkpt lat="14.39576506598905" lon="120.86162639932277"><ele>15.0</ele><time>2026-04-24T11:28:10Z</time></trkpt><trkpt lat="14.395763842996436" lon="120.86154220706753"><ele>15.0</ele><time>2026-04-24T11:28:12Z</time></trkpt><trkpt lat="14.395766339611884" lon="120.86145339103412"><ele>15.0</ele><time>2026-04-24T11:28:14Z</time></trkpt><trkpt lat="14.39576996152281" lon="120.8613652455424"><ele>15.0</ele><time>2026-04-24T11:28:16Z</time></trkpt><trkpt lat="14.395771805611512" lon="120.861277305635"><ele>15.0</ele><time>2026-04-24T11:28:18Z</time></trkpt><trkpt lat="14.395767265844068" lon="120.8611931289574"><ele>15.0</ele><time>2026-04-24T11:28:20Z</time></trkpt><trkpt lat="14.395772181334527" lon="120.86107457340837"><ele>15.0</ele><time>2026-04-24T11:28:22Z</time></trkpt><trkpt lat="14.395736892983399" lon="120.86098804965269"><ele>15.0</ele><time>2026-04-24T11:28:24Z</time></trkpt><trkpt lat="14.395713427448356" lon="120.86092296572484"><ele>15.0</ele><time>2026-04-24T11:28:26Z</time></trkpt><trkpt lat="14.395704538482347" lon="120.86083664040035"><ele>15.0</ele><time>2026-04-24T11:28:28Z</time></trkpt><trkpt lat="14.395687413282241" lon="120.8607689174756"><ele>15.0</ele><time>2026-04-24T11:28:30Z</time></trkpt><trkpt lat="14.395667811795269" lon="120.86067677441831"><ele>15.0</ele><time>2026-04-24T11:28:33Z</time></trkpt><trkpt lat="14.395702075293462" lon="120.86061400232946"><ele>15.0</ele><time>2026-04-24T11:28:35Z</time></trkpt><trkpt lat="14.395765145645527" lon="120.86058075656955"><ele>15.0</ele><time>2026-04-24T11:28:37Z</time></trkpt><trkpt lat="14.395826310519876" lon="120.86052293881356"><ele>15.0</ele><time>2026-04-24T11:28:42Z</time></trkpt><trkpt lat="14.395909391917872" lon="120.86047267446489"><ele>15.0</ele><time>2026-04-24T11:28:44Z</time></trkpt><trkpt lat="14.396007615295295" lon="120.86040276185427"><ele>15.0</ele><time>2026-04-24T11:28:46Z</time></trkpt><trkpt lat="14.396093004327241" lon="120.86034428745016"><ele>15.0</ele><time>2026-04-24T11:28:48Z</time></trkpt><trkpt lat="14.396195710492275" lon="120.86027806635077"><ele>15.0</ele><time>2026-04-24T11:28:50Z</time></trkpt><trkpt lat="14.396255421665455" lon="120.86023993045536"><ele>15.0</ele><time>2026-04-24T11:28:51Z</time></trkpt><trkpt lat="14.396322387850212" lon="120.86019615439675"><ele>14.8</ele><time>2026-04-24T11:28:52Z</time></trkpt><trkpt lat="14.396392332895875" lon="120.86015209986064"><ele>14.6</ele><time>2026-04-24T11:28:53Z</time></trkpt><trkpt lat="14.39646431919189" lon="120.8601127963084"><ele>14.399999999999999</ele><time>2026-04-24T11:28:54Z</time></trkpt><trkpt lat="14.396541335019084" lon="120.8600622112035"><ele>14.2</ele><time>2026-04-24T11:28:55Z</time></trkpt><trkpt lat="14.39662283500172" lon="120.86000625056283"><ele>14.0</ele><time>2026-04-24T11:28:56Z</time></trkpt><trkpt lat="14.396704972540237" lon="120.85995022225782"><ele>14.0</ele><time>2026-04-24T11:28:57Z</time></trkpt><trkpt lat="14.396784017905398" lon="120.8598896367357"><ele>13.999999999999998</ele><time>2026-04-24T11:28:58Z</time></trkpt><trkpt lat="14.396866327985473" lon="120.85983804873518"><ele>13.999999999999998</ele><time>2026-04-24T11:28:59Z</time></trkpt><trkpt lat="14.396943673826875" lon="120.85978761744742"><ele>14.0</ele><time>2026-04-24T11:29:00Z</time></trkpt><trkpt lat="14.397023441157321" lon="120.85974439816862"><ele>14.0</ele><time>2026-04-24T11:29:01Z</time></trkpt><trkpt lat="14.397088908458574" lon="120.85970158445178"><ele>14.000000000000002</ele><time>2026-04-24T11:29:02Z</time></trkpt><trkpt lat="14.397154157129116" lon="120.85965341376863"><ele>14.0</ele><time>2026-04-24T11:29:03Z</time></trkpt><trkpt lat="14.397222833153894" lon="120.85960994173885"><ele>14.0</ele><time>2026-04-24T11:29:04Z</time></trkpt><trkpt lat="14.397289859812492" lon="120.859565804355"><ele>14.0</ele><time>2026-04-24T11:29:05Z</time></trkpt><trkpt lat="14.397349871540492" lon="120.85952247104707"><ele>14.000000000000002</ele><time>2026-04-24T11:29:06Z</time></trkpt><trkpt lat="14.39740871612214" lon="120.85947991473853"><ele>14.0</ele><time>2026-04-24T11:29:07Z</time></trkpt><trkpt lat="14.397476522299048" lon="120.85943443591266"><ele>14.000000000000002</ele><time>2026-04-24T11:29:08Z</time></trkpt><trkpt lat="14.397542607054962" lon="120.85938706659779"><ele>14.0</ele><time>2026-04-24T11:29:09Z</time></trkpt><trkpt lat="14.397612533959432" lon="120.85933572859157"><ele>14.0</ele><time>2026-04-24T11:29:10Z</time></trkpt><trkpt lat="14.39767788055514" lon="120.85928970318538"><ele>14.0</ele><time>2026-04-24T11:29:11Z</time></trkpt><trkpt lat="14.397752318233655" lon="120.85923686070733"><ele>14.000000000000002</ele><time>2026-04-24T11:29:12Z</time></trkpt><trkpt lat="14.397823983784722" lon="120.8591886759969"><ele>14.0</ele><time>2026-04-24T11:29:13Z</time></trkpt><trkpt lat="14.397887317683699" lon="120.85914466008411"><ele>14.0</ele><time>2026-04-24T11:29:14Z</time></trkpt><trkpt lat="14.397955570341534" lon="120.85910685560877"><ele>13.999999999999998</ele><time>2026-04-24T11:29:15Z</time></trkpt><trkpt lat="14.398009337416338" lon="120.85906939669587"><ele>13.999999999999998</ele><time>2026-04-24T11:29:16Z</time></trkpt><trkpt lat="14.39811127243818" lon="120.85900055236517"><ele>14.0</ele><time>2026-04-24T11:29:18Z</time></trkpt><trkpt lat="14.39821139448964" lon="120.85892692880705"><ele>14.0</ele><time>2026-04-24T11:29:20Z</time></trkpt><trkpt lat="14.398271314170984" lon="120.85888890948004"><ele>13.799999999999999</ele><time>2026-04-24T11:29:21Z</time></trkpt><trkpt lat="14.398335808567731" lon="120.85884202310024"><ele>13.599999999999998</ele><time>2026-04-24T11:29:22Z</time></trkpt><trkpt lat="14.39840833093903" lon="120.85878415115201"><ele>13.4</ele><time>2026-04-24T11:29:23Z</time></trkpt><trkpt lat="14.398487614964619" lon="120.85872079654513"><ele>13.2</ele><time>2026-04-24T11:29:24Z</time></trkpt><trkpt lat="14.398567517757623" lon="120.8586564205152"><ele>13.0</ele><time>2026-04-24T11:29:25Z</time></trkpt><trkpt lat="14.398641061052206" lon="120.85859262158935"><ele>12.999999999999998</ele><time>2026-04-24T11:29:26Z</time></trkpt><trkpt lat="14.398714533896262" lon="120.8585384619739"><ele>13.0</ele><time>2026-04-24T11:29:27Z</time></trkpt><trkpt lat="14.39877462943336" lon="120.85849072863112"><ele>13.0</ele><time>2026-04-24T11:29:28Z</time></trkpt><trkpt lat="14.398842422418188" lon="120.8584416570268"><ele>13.0</ele><time>2026-04-24T11:29:29Z</time></trkpt><trkpt lat="14.398907661847153" lon="120.85839282347142"><ele>12.999999999999998</ele><time>2026-04-24T11:29:30Z</time></trkpt><trkpt lat="14.398977994437267" lon="120.85834123641953"><ele>13.0</ele><time>2026-04-24T11:29:31Z</time></trkpt><trkpt lat="14.399052317851593" lon="120.85828818056262"><ele>13.0</ele><time>2026-04-24T11:29:32Z</time></trkpt><trkpt lat="14.399118053165255" lon="120.85823352082382"><ele>13.0</ele><time>2026-04-24T11:29:33Z</time></trkpt><trkpt lat="14.39918245456906" lon="120.85818174378528"><ele>13.0</ele><time>2026-04-24T11:29:34Z</time></trkpt><trkpt lat="14.399242951135053" lon="120.85813008672265"><ele>13.0</ele><time>2026-04-24T11:29:35Z</time></trkpt><trkpt lat="14.39929705918509" lon="120.8580855203682"><ele>13.0</ele><time>2026-04-24T11:29:36Z</time></trkpt><trkpt lat="14.399348304538721" lon="120.85804240383682"><ele>13.0</ele><time>2026-04-24T11:29:37Z</time></trkpt><trkpt lat="14.399400216814769" lon="120.8580000604133"><ele>13.0</ele><time>2026-04-24T11:29:38Z</time></trkpt><trkpt lat="14.39948461032539" lon="120.85793036632224"><ele>13.0</ele><time>2026-04-24T11:29:40Z</time></trkpt><trkpt lat="14.399567213692453" lon="120.85786322090355"><ele>13.0</ele><time>2026-04-24T11:29:42Z</time></trkpt><trkpt lat="14.39964926244633" lon="120.85779681109328"><ele>13.0</ele><time>2026-04-24T11:29:44Z</time></trkpt><trkpt lat="14.399698861517843" lon="120.85775306615733"><ele>13.0</ele><time>2026-04-24T11:29:45Z</time></trkpt><trkpt lat="14.399756188700268" lon="120.85771084210398"><ele>13.0</ele><time>2026-04-24T11:29:46Z</time></trkpt><trkpt lat="14.399859605005876" lon="120.85764597810132"><ele>13.4</ele><time>2026-04-24T11:29:48Z</time></trkpt><trkpt lat="14.399914956929274" lon="120.85761047466059"><ele>13.8</ele><time>2026-04-24T11:29:49Z</time></trkpt><trkpt lat="14.400019775759475" lon="120.85753631563803"><ele>14.2</ele><time>2026-04-24T11:29:51Z</time></trkpt><trkpt lat="14.400073146028525" lon="120.85750017498282"><ele>14.6</ele><time>2026-04-24T11:29:52Z</time></trkpt><trkpt lat="14.400169397739717" lon="120.85743076844037"><ele>15.0</ele><time>2026-04-24T11:29:54Z</time></trkpt><trkpt lat="14.400239955711386" lon="120.8573757151163"><ele>15.0</ele><time>2026-04-24T11:29:56Z</time></trkpt><trkpt lat="14.400292028530792" lon="120.85733824717084"><ele>15.0</ele><time>2026-04-24T11:29:58Z</time></trkpt><trkpt lat="14.400343651356447" lon="120.85730091578598"><ele>15.0</ele><time>2026-04-24T11:30:00Z</time></trkpt><trkpt lat="14.400419665062639" lon="120.85723754134843"><ele>15.0</ele><time>2026-04-24T11:30:03Z</time></trkpt><trkpt lat="14.400472500529098" lon="120.85719728890291"><ele>15.0</ele><time>2026-04-24T11:30:05Z</time></trkpt><trkpt lat="14.400536481047457" lon="120.85715811538273"><ele>15.0</ele><time>2026-04-24T11:30:08Z</time></trkpt><trkpt lat="14.400616107814361" lon="120.8571045554975"><ele>15.0</ele><time>2026-04-24T11:30:11Z</time></trkpt><trkpt lat="14.40068365613689" lon="120.8570713928449"><ele>15.0</ele><time>2026-04-24T11:30:14Z</time></trkpt><trkpt lat="14.400755507274363" lon="120.85704472915845"><ele>15.0</ele><time>2026-04-24T11:30:18Z</time></trkpt><trkpt lat="14.400807116337866" lon="120.85709398702912"><ele>15.0</ele><time>2026-04-24T11:30:21Z</time></trkpt><trkpt lat="14.400863069545405" lon="120.85712587200506"><ele>15.0</ele><time>2026-04-24T11:30:30Z</time></trkpt><trkpt lat="14.400921626022825" lon="120.85707036252309"><ele>15.0</ele><time>2026-04-24T11:31:43Z</time></trkpt><trkpt lat="14.400882901679378" lon="120.85701893458959"><ele>15.0</ele><time>2026-04-24T11:31:52Z</time></trkpt><trkpt lat="14.400849161817485" lon="120.85695706529428"><ele>15.0</ele><time>2026-04-24T11:32:23.999Z</time></trkpt><trkpt lat="14.401002150835078" lon="120.85676775143361"><ele>15.0</ele><time>2026-04-24T11:35:02.013Z</time></trkpt><trkpt lat="14.401109940399975" lon="120.8568624600886"><ele>15.0</ele><time>2026-04-24T11:37:33.012Z</time></trkpt><trkpt lat="14.400908106971599" lon="120.85698958240413"><ele>15.0</ele><time>2026-04-24T11:40:27Z</time></trkpt><trkpt lat="14.400963900162356" lon="120.85704101478449"><ele>15.0</ele><time>2026-04-24T11:40:37.998Z</time></trkpt><trkpt lat="14.400947705943079" lon="120.85710429606169"><ele>15.0</ele><time>2026-04-24T11:40:44.999Z</time></trkpt><trkpt lat="14.400845117553825" lon="120.85713683828462"><ele>15.0</ele><time>2026-04-24T11:42:30Z</time></trkpt><trkpt lat="14.400887265615644" lon="120.85708855524165"><ele>15.0</ele><time>2026-04-24T11:43:04Z</time></trkpt><trkpt lat="14.400953556041372" lon="120.85711175900786"><ele>15.0</ele><time>2026-04-24T11:45:59Z</time></trkpt><trkpt lat="14.400910069930944" lon="120.85717834322097"><ele>15.0</ele><time>2026-04-24T11:46:04Z</time></trkpt><trkpt lat="14.400848091855845" lon="120.85711030265531"><ele>15.0</ele><time>2026-04-24T11:46:07Z</time></trkpt><trkpt lat="14.400796017803762" lon="120.85704237310718"><ele>15.0</ele><time>2026-04-24T11:46:10Z</time></trkpt><trkpt lat="14.400727541025045" lon="120.85706215232467"><ele>15.0</ele><time>2026-04-24T11:46:14Z</time></trkpt><trkpt lat="14.400669817861209" lon="120.85709188790737"><ele>15.0</ele><time>2026-04-24T11:46:17Z</time></trkpt><trkpt lat="14.400615444033164" lon="120.85712492393608"><ele>15.0</ele><time>2026-04-24T11:46:33Z</time></trkpt><trkpt lat="14.400548594542325" lon="120.85715851360729"><ele>15.0</ele><time>2026-04-24T11:46:36Z</time></trkpt><trkpt lat="14.400495804376696" lon="120.85720595944"><ele>15.0</ele><time>2026-04-24T11:46:39Z</time></trkpt><trkpt lat="14.400435916715994" lon="120.85725274623343"><ele>15.0</ele><time>2026-04-24T11:46:42Z</time></trkpt><trkpt lat="14.40038168001414" lon="120.85729159240468"><ele>15.0</ele><time>2026-04-24T11:46:46Z</time></trkpt><trkpt lat="14.400323103041012" lon="120.8572614375869"><ele>15.0</ele><time>2026-04-24T11:46:50Z</time></trkpt><trkpt lat="14.400278427256064" lon="120.85720547172394"><ele>15.0</ele><time>2026-04-24T11:46:53Z</time></trkpt><trkpt lat="14.400229042431741" lon="120.8571537798466"><ele>15.0</ele><time>2026-04-24T11:46:56Z</time></trkpt><trkpt lat="14.400179079572004" lon="120.85710672445629"><ele>15.0</ele><time>2026-04-24T11:47:00Z</time></trkpt><trkpt lat="14.400114036744377" lon="120.85704060256846"><ele>15.0</ele><time>2026-04-24T11:47:03Z</time></trkpt><trkpt lat="14.400070150208041" lon="120.85698809246797"><ele>15.0</ele><time>2026-04-24T11:47:05Z</time></trkpt><trkpt lat="14.400017060670189" lon="120.85692323051784"><ele>15.0</ele><time>2026-04-24T11:47:07Z</time></trkpt><trkpt lat="14.399949831869446" lon="120.85685223220915"><ele>15.0</ele><time>2026-04-24T11:47:09Z</time></trkpt><trkpt lat="14.39990174787165" lon="120.8568008143135"><ele>15.0</ele><time>2026-04-24T11:47:11Z</time></trkpt><trkpt lat="14.399852050482513" lon="120.85675037194584"><ele>15.0</ele><time>2026-04-24T11:47:13Z</time></trkpt><trkpt lat="14.399794929750355" lon="120.85669380604888"><ele>15.0</ele><time>2026-04-24T11:47:15.001Z</time></trkpt><trkpt lat="14.399742179899327" lon="120.85663801879322"><ele>15.0</ele><time>2026-04-24T11:47:17.001Z</time></trkpt><trkpt lat="14.399688095176662" lon="120.85658568231963"><ele>15.0</ele><time>2026-04-24T11:47:19.001Z</time></trkpt><trkpt lat="14.399639303084221" lon="120.85652542027785"><ele>15.0</ele><time>2026-04-24T11:47:21.001Z</time></trkpt><trkpt lat="14.399582276808177" lon="120.85646241002702"><ele>15.0</ele><time>2026-04-24T11:47:23.001Z</time></trkpt><trkpt lat="14.399524126340731" lon="120.85640465071978"><ele>15.0</ele><time>2026-04-24T11:47:25.001Z</time></trkpt><trkpt lat="14.399474239082783" lon="120.85635643542656"><ele>14.833333333333334</ele><time>2026-04-24T11:47:27.001Z</time></trkpt><trkpt lat="14.399412220321693" lon="120.85629140197037"><ele>14.666666666666668</ele><time>2026-04-24T11:47:30.001Z</time></trkpt><trkpt lat="14.399362475874595" lon="120.85624798182177"><ele>14.5</ele><time>2026-04-24T11:47:33.001Z</time></trkpt><trkpt lat="14.399297472599521" lon="120.85618502853784"><ele>14.333333333333334</ele><time>2026-04-24T11:47:36.001Z</time></trkpt><trkpt lat="14.399238609579625" lon="120.85611053571289"><ele>14.166666666666668</ele><time>2026-04-24T11:47:39.001Z</time></trkpt><trkpt lat="14.399200357005768" lon="120.85604278595665"><ele>14.0</ele><time>2026-04-24T11:47:41.001Z</time></trkpt><trkpt lat="14.399168560047787" lon="120.85596833068375"><ele>13.833333333333334</ele><time>2026-04-24T11:47:43.001Z</time></trkpt><trkpt lat="14.399136108360723" lon="120.85590379408133"><ele>13.666666666666668</ele><time>2026-04-24T11:47:45.001Z</time></trkpt><trkpt lat="14.399104203843981" lon="120.85583989508399"><ele>13.5</ele><time>2026-04-24T11:47:47.001Z</time></trkpt><trkpt lat="14.399061841319647" lon="120.85575776010248"><ele>13.333333333333332</ele><time>2026-04-24T11:47:49.001Z</time></trkpt><trkpt lat="14.399034260707458" lon="120.85567839634136"><ele>13.166666666666666</ele><time>2026-04-24T11:47:51.001Z</time></trkpt><trkpt lat="14.399018175262423" lon="120.8556072975162"><ele>13.0</ele><time>2026-04-24T11:47:53.001Z</time></trkpt><trkpt lat="14.399071208826351" lon="120.85553270505893"><ele>13.0</ele><time>2026-04-24T11:47:56.001Z</time></trkpt><trkpt lat="14.399133162752356" lon="120.85550595680047"><ele>13.0</ele><time>2026-04-24T11:47:58.001Z</time></trkpt><trkpt lat="14.39920292446415" lon="120.85551182573349"><ele>13.0</ele><time>2026-04-24T11:48:00.001Z</time></trkpt><trkpt lat="14.399279171077348" lon="120.85550707547004"><ele>13.0</ele><time>2026-04-24T11:48:02.001Z</time></trkpt><trkpt lat="14.399343660158852" lon="120.85550216545845"><ele>13.0</ele><time>2026-04-24T11:48:04.001Z</time></trkpt><trkpt lat="14.399411667686133" lon="120.85551236789608"><ele>13.0</ele><time>2026-04-24T11:48:12.001Z</time></trkpt><trkpt lat="14.399498303844874" lon="120.85551931489441"><ele>13.0</ele><time>2026-04-24T11:48:14.001Z</time></trkpt><trkpt lat="14.399623077283966" lon="120.85552772056579"><ele>12.999999999999998</ele><time>2026-04-24T11:48:16.001Z</time></trkpt><trkpt lat="14.399714435835653" lon="120.85551390945774"><ele>13.0</ele><time>2026-04-24T11:48:18.001Z</time></trkpt><trkpt lat="14.399787382229585" lon="120.85550470989415"><ele>13.0</ele><time>2026-04-24T11:48:20.001Z</time></trkpt><trkpt lat="14.399856586772373" lon="120.85550902735754"><ele>13.0</ele><time>2026-04-24T11:48:22.001Z</time></trkpt><trkpt lat="14.3997751647885" lon="120.85549681546014"><ele>12.999999999999998</ele><time>2026-04-24T11:48:43.001Z</time></trkpt><trkpt lat="14.39970900138373" lon="120.8555055099976"><ele>13.0</ele><time>2026-04-24T11:48:44.001Z</time></trkpt><trkpt lat="14.399639698003593" lon="120.85550596544851"><ele>12.999999999999998</ele><time>2026-04-24T11:48:45.001Z</time></trkpt><trkpt lat="14.399539372940593" lon="120.85550541811548"><ele>13.0</ele><time>2026-04-24T11:48:47.001Z</time></trkpt><trkpt lat="14.399440826379548" lon="120.85550026990842"><ele>13.0</ele><time>2026-04-24T11:48:49.001Z</time></trkpt><trkpt lat="14.399349640009536" lon="120.85549539455344"><ele>13.0</ele><time>2026-04-24T11:48:51.001Z</time></trkpt><trkpt lat="14.399284110590425" lon="120.85549427787362"><ele>12.999999999999998</ele><time>2026-04-24T11:48:53.001Z</time></trkpt><trkpt lat="14.399209701698346" lon="120.8554894747038"><ele>13.0</ele><time>2026-04-24T11:48:55.001Z</time></trkpt><trkpt lat="14.39914349517107" lon="120.85548453595624"><ele>12.999999999999998</ele><time>2026-04-24T11:48:59.001Z</time></trkpt><trkpt lat="14.399065469526974" lon="120.85547503235465"><ele>13.0</ele><time>2026-04-24T11:49:04.001Z</time></trkpt><trkpt lat="14.398999502149106" lon="120.85553387758591"><ele>13.0</ele><time>2026-04-24T11:49:10.001Z</time></trkpt><trkpt lat="14.398998921443832" lon="120.85560718591717"><ele>13.0</ele><time>2026-04-24T11:49:11.001Z</time></trkpt><trkpt lat="14.399015877181762" lon="120.85567125175564"><ele>12.999999999999998</ele><time>2026-04-24T11:49:12.001Z</time></trkpt><trkpt lat="14.39904403136704" lon="120.85575992264839"><ele>13.0</ele><time>2026-04-24T11:49:14.001Z</time></trkpt><trkpt lat="14.399077928603313" lon="120.85583014503943"><ele>13.0</ele><time>2026-04-24T11:49:16.001Z</time></trkpt><trkpt lat="14.399111792620769" lon="120.85589742053818"><ele>13.0</ele><time>2026-04-24T11:49:18.001Z</time></trkpt><trkpt lat="14.399141206344247" lon="120.8559591580444"><ele>13.0</ele><time>2026-04-24T11:49:20.001Z</time></trkpt><trkpt lat="14.399174044747992" lon="120.8560147647128"><ele>13.0</ele><time>2026-04-24T11:49:22.001Z</time></trkpt><trkpt lat="14.39921966616495" lon="120.85609317085674"><ele>13.0</ele><time>2026-04-24T11:49:25.001Z</time></trkpt><trkpt lat="14.399266979197579" lon="120.85614518061737"><ele>13.0</ele><time>2026-04-24T11:49:27.001Z</time></trkpt><trkpt lat="14.399309203046542" lon="120.85619384430849"><ele>13.0</ele><time>2026-04-24T11:49:30.001Z</time></trkpt><trkpt lat="14.399362756732828" lon="120.85625771707244"><ele>13.142857142857142</ele><time>2026-04-24T11:49:35.001Z</time></trkpt><trkpt lat="14.399410936294661" lon="120.85630376842815"><ele>13.285714285714286</ele><time>2026-04-24T11:49:38.001Z</time></trkpt><trkpt lat="14.399469766996576" lon="120.85636180213812"><ele>13.428571428571429</ele><time>2026-04-24T11:49:43.001Z</time></trkpt><trkpt lat="14.399525198799397" lon="120.85643233951765"><ele>13.571428571428571</ele><time>2026-04-24T11:49:47.001Z</time></trkpt><trkpt lat="14.399519054195569" lon="120.85650458401028"><ele>13.714285714285715</ele><time>2026-04-24T11:49:50.001Z</time></trkpt><trkpt lat="14.399456191513389" lon="120.85654456532409"><ele>13.857142857142858</ele><time>2026-04-24T11:49:52.001Z</time></trkpt><trkpt lat="14.399396942174246" lon="120.85658141745236"><ele>14.0</ele><time>2026-04-24T11:49:54.001Z</time></trkpt><trkpt lat="14.399322394343061" lon="120.85662302865252"><ele>14.0</ele><time>2026-04-24T11:49:56.001Z</time></trkpt><trkpt lat="14.399234001048763" lon="120.85668360311307"><ele>13.999999999999998</ele><time>2026-04-24T11:49:58.001Z</time></trkpt><trkpt lat="14.399145329879989" lon="120.85674904976757"><ele>13.999999999999998</ele><time>2026-04-24T11:50:00.001Z</time></trkpt><trkpt lat="14.399061101323042" lon="120.8568149031995"><ele>14.0</ele><time>2026-04-24T11:50:02.001Z</time></trkpt><trkpt lat="14.398991812315886" lon="120.85685778650341"><ele>14.0</ele><time>2026-04-24T11:50:04.001Z</time></trkpt><trkpt lat="14.39892424967483" lon="120.85690608197828"><ele>14.000000000000002</ele><time>2026-04-24T11:50:06.001Z</time></trkpt><trkpt lat="14.398853114879856" lon="120.856959520246"><ele>14.0</ele><time>2026-04-24T11:50:08.001Z</time></trkpt><trkpt lat="14.39877051704782" lon="120.8570230180784"><ele>14.0</ele><time>2026-04-24T11:50:10.001Z</time></trkpt><trkpt lat="14.398714713287976" lon="120.85705674371536"><ele>14.0</ele><time>2026-04-24T11:50:11.001Z</time></trkpt><trkpt lat="14.39865670028812" lon="120.85709602685559"><ele>14.000000000000002</ele><time>2026-04-24T11:50:12.001Z</time></trkpt><trkpt lat="14.398590313022163" lon="120.85713609030802"><ele>14.0</ele><time>2026-04-24T11:50:13.001Z</time></trkpt><trkpt lat="14.398515970661068" lon="120.85718151535086"><ele>13.833333333333334</ele><time>2026-04-24T11:50:14.001Z</time></trkpt><trkpt lat="14.398449196821208" lon="120.85722078871765"><ele>13.666666666666668</ele><time>2026-04-24T11:50:15.001Z</time></trkpt><trkpt lat="14.398383729200498" lon="120.85726199533747"><ele>13.5</ele><time>2026-04-24T11:50:16.001Z</time></trkpt><trkpt lat="14.398320188998621" lon="120.8573047077178"><ele>13.333333333333332</ele><time>2026-04-24T11:50:17.001Z</time></trkpt><trkpt lat="14.398269310777989" lon="120.85734998434782"><ele>13.166666666666666</ele><time>2026-04-24T11:50:18.001Z</time></trkpt><trkpt lat="14.398208729370412" lon="120.85739769712204"><ele>13.0</ele><time>2026-04-24T11:50:19.001Z</time></trkpt><trkpt lat="14.398147140812869" lon="120.85744530916718"><ele>12.999999999999998</ele><time>2026-04-24T11:50:20.001Z</time></trkpt><trkpt lat="14.398090868007655" lon="120.85748616867446"><ele>13.0</ele><time>2026-04-24T11:50:21.001Z</time></trkpt><trkpt lat="14.398038053768712" lon="120.85752522045352"><ele>13.0</ele><time>2026-04-24T11:50:22.001Z</time></trkpt><trkpt lat="14.397949260682113" lon="120.85757312409426"><ele>13.0</ele><time>2026-04-24T11:50:24.001Z</time></trkpt><trkpt lat="14.397878795741294" lon="120.85761944919646"><ele>12.999999999999998</ele><time>2026-04-24T11:50:29.001Z</time></trkpt><trkpt lat="14.397793223296613" lon="120.85767493941128"><ele>13.0</ele><time>2026-04-24T11:50:31.001Z</time></trkpt><trkpt lat="14.397691131586518" lon="120.85774715316474"><ele>12.8</ele><time>2026-04-24T11:50:33.001Z</time></trkpt><trkpt lat="14.397590909899312" lon="120.85781272846515"><ele>12.600000000000001</ele><time>2026-04-24T11:50:35.001Z</time></trkpt><trkpt lat="14.397504653053694" lon="120.85787183786168"><ele>12.399999999999999</ele><time>2026-04-24T11:50:37.001Z</time></trkpt><trkpt lat="14.397453286463932" lon="120.85791898394797"><ele>12.2</ele><time>2026-04-24T11:50:39.001Z</time></trkpt><trkpt lat="14.39746337682766" lon="120.85802197225742"><ele>12.0</ele><time>2026-04-24T11:50:42.001Z</time></trkpt><trkpt lat="14.397543142838526" lon="120.85812009376701"><ele>12.0</ele><time>2026-04-24T11:50:44.001Z</time></trkpt><trkpt lat="14.397613367723688" lon="120.85822238807383"><ele>12.0</ele><time>2026-04-24T11:50:46.001Z</time></trkpt><trkpt lat="14.397652994251565" lon="120.85827822369342"><ele>12.0</ele><time>2026-04-24T11:50:47.001Z</time></trkpt><trkpt lat="14.397693372701857" lon="120.85833249043449"><ele>12.0</ele><time>2026-04-24T11:50:48.001Z</time></trkpt><trkpt lat="14.39773369649759" lon="120.85839221590477"><ele>12.0</ele><time>2026-04-24T11:50:49.001Z</time></trkpt><trkpt lat="14.397775969737138" lon="120.85845109561305"><ele>12.0</ele><time>2026-04-24T11:50:50.001Z</time></trkpt><trkpt lat="14.397817279133921" lon="120.858503918595"><ele>12.2</ele><time>2026-04-24T11:50:51.001Z</time></trkpt><trkpt lat="14.397877909514792" lon="120.85860698401645"><ele>12.399999999999999</ele><time>2026-04-24T11:50:53.001Z</time></trkpt><trkpt lat="14.39791448438193" lon="120.85866328054843"><ele>12.600000000000001</ele><time>2026-04-24T11:50:54.001Z</time></trkpt><trkpt lat="14.397979122173696" lon="120.85876266100817"><ele>12.8</ele><time>2026-04-24T11:50:56.001Z</time></trkpt><trkpt lat="14.398035697374588" lon="120.85884356105898"><ele>13.0</ele><time>2026-04-24T11:50:58.001Z</time></trkpt><trkpt lat="14.398072258227502" lon="120.85890210573227"><ele>13.0</ele><time>2026-04-24T11:51:00.001Z</time></trkpt><trkpt lat="14.398108855471758" lon="120.85895644755891"><ele>13.0</ele><time>2026-04-24T11:51:02.001Z</time></trkpt><trkpt lat="14.398107399832405" lon="120.85902490924374"><ele>13.0</ele><time>2026-04-24T11:51:05.001Z</time></trkpt><trkpt lat="14.398032122645368" lon="120.85908742416551"><ele>13.0</ele><time>2026-04-24T11:51:07.001Z</time></trkpt><trkpt lat="14.39792960083193" lon="120.85914471289183"><ele>13.0</ele><time>2026-04-24T11:51:09.001Z</time></trkpt><trkpt lat="14.397836618915173" lon="120.85921138165226"><ele>13.2</ele><time>2026-04-24T11:51:11.001Z</time></trkpt><trkpt lat="14.397745553970994" lon="120.85927832549706"><ele>13.4</ele><time>2026-04-24T11:51:13.001Z</time></trkpt><trkpt lat="14.397658852850242" lon="120.85933502264385"><ele>13.599999999999998</ele><time>2026-04-24T11:51:15.001Z</time></trkpt><trkpt lat="14.397587875553858" lon="120.8593871504996"><ele>13.799999999999999</ele><time>2026-04-24T11:51:17.001Z</time></trkpt><trkpt lat="14.397511196138968" lon="120.85944783877963"><ele>14.0</ele><time>2026-04-24T11:51:19.001Z</time></trkpt><trkpt lat="14.397428002309747" lon="120.85949321861598"><ele>14.000000000000002</ele><time>2026-04-24T11:51:21.001Z</time></trkpt><trkpt lat="14.39736377713765" lon="120.85954623192897"><ele>14.0</ele><time>2026-04-24T11:51:22.001Z</time></trkpt><trkpt lat="14.397293577973103" lon="120.85958679101479"><ele>14.0</ele><time>2026-04-24T11:51:23.001Z</time></trkpt><trkpt lat="14.3972332938666" lon="120.85963106978143"><ele>14.0</ele><time>2026-04-24T11:51:24.001Z</time></trkpt><trkpt lat="14.397164822363035" lon="120.85968161428009"><ele>14.000000000000002</ele><time>2026-04-24T11:51:25.001Z</time></trkpt><trkpt lat="14.397090600535115" lon="120.85972802740983"><ele>14.0</ele><time>2026-04-24T11:51:26.001Z</time></trkpt><trkpt lat="14.397015550122692" lon="120.85977519818081"><ele>14.0</ele><time>2026-04-24T11:51:27.001Z</time></trkpt><trkpt lat="14.396936163009194" lon="120.85981744054463"><ele>13.999999999999998</ele><time>2026-04-24T11:51:28.001Z</time></trkpt><trkpt lat="14.39685774483116" lon="120.85987241349335"><ele>13.999999999999998</ele><time>2026-04-24T11:51:29.001Z</time></trkpt><trkpt lat="14.396781586876394" lon="120.8599231554961"><ele>14.0</ele><time>2026-04-24T11:51:30.001Z</time></trkpt><trkpt lat="14.396704880813054" lon="120.8599760979804"><ele>14.0</ele><time>2026-04-24T11:51:31.001Z</time></trkpt><trkpt lat="14.396629558540203" lon="120.86002456375894"><ele>14.000000000000002</ele><time>2026-04-24T11:51:32.001Z</time></trkpt><trkpt lat="14.396547167753114" lon="120.86007551971682"><ele>14.0</ele><time>2026-04-24T11:51:33.001Z</time></trkpt><trkpt lat="14.396469745726192" lon="120.86012924681614"><ele>14.0</ele><time>2026-04-24T11:51:34.001Z</time></trkpt><trkpt lat="14.396393607504685" lon="120.8601800638299"><ele>14.0</ele><time>2026-04-24T11:51:35.001Z</time></trkpt><trkpt lat="14.396322062169972" lon="120.86022383021549"><ele>14.000000000000002</ele><time>2026-04-24T11:51:36.001Z</time></trkpt><trkpt lat="14.39625773331517" lon="120.86026428031843"><ele>14.0</ele><time>2026-04-24T11:51:37.001Z</time></trkpt><trkpt lat="14.396188277972948" lon="120.86030910873723"><ele>14.166666666666668</ele><time>2026-04-24T11:51:38.001Z</time></trkpt><trkpt lat="14.396127206868188" lon="120.86035077055267"><ele>14.333333333333334</ele><time>2026-04-24T11:51:39.001Z</time></trkpt><trkpt lat="14.396072617486416" lon="120.86038843531792"><ele>14.5</ele><time>2026-04-24T11:51:40.001Z</time></trkpt><trkpt lat="14.39598078248018" lon="120.86045596861364"><ele>14.666666666666668</ele><time>2026-04-24T11:51:42.001Z</time></trkpt><trkpt lat="14.39588778639325" lon="120.86051264026355"><ele>14.833333333333334</ele><time>2026-04-24T11:51:44.001Z</time></trkpt><trkpt lat="14.395820289996513" lon="120.86055620919785"><ele>15.0</ele><time>2026-04-24T11:51:46.001Z</time></trkpt><trkpt lat="14.395747829976173" lon="120.86060863179797"><ele>15.0</ele><time>2026-04-24T11:51:48.001Z</time></trkpt><trkpt lat="14.395687250768212" lon="120.8606625398232"><ele>15.0</ele><time>2026-04-24T11:51:50.001Z</time></trkpt><trkpt lat="14.395649680873806" lon="120.86072136189445"><ele>15.0</ele><time>2026-04-24T11:51:52.001Z</time></trkpt><trkpt lat="14.39563895743734" lon="120.86078669871613"><ele>15.0</ele><time>2026-04-24T11:51:54.001Z</time></trkpt><trkpt lat="14.395655361078513" lon="120.86087039772087"><ele>15.0</ele><time>2026-04-24T11:51:56.001Z</time></trkpt><trkpt lat="14.395669056706982" lon="120.86096028867095"><ele>15.0</ele><time>2026-04-24T11:51:58.001Z</time></trkpt><trkpt lat="14.395685743046325" lon="120.86105022239984"><ele>15.0</ele><time>2026-04-24T11:52:00.001Z</time></trkpt><trkpt lat="14.395704346302113" lon="120.86116375498433"><ele>15.0</ele><time>2026-04-24T11:52:02.001Z</time></trkpt><trkpt lat="14.395711374592116" lon="120.86123441560937"><ele>15.0</ele><time>2026-04-24T11:52:03.001Z</time></trkpt><trkpt lat="14.395717753909013" lon="120.86130219900848"><ele>15.0</ele><time>2026-04-24T11:52:04.001Z</time></trkpt><trkpt lat="14.395715159562142" lon="120.8613988376335"><ele>15.0</ele><time>2026-04-24T11:52:06.001Z</time></trkpt><trkpt lat="14.39571645436552" lon="120.86150072408662"><ele>15.0</ele><time>2026-04-24T11:52:08.001Z</time></trkpt><trkpt lat="14.395720177370684" lon="120.861622585122"><ele>15.0</ele><time>2026-04-24T11:52:10.001Z</time></trkpt><trkpt lat="14.395720564827567" lon="120.86169416738865"><ele>15.0</ele><time>2026-04-24T11:52:11.001Z</time></trkpt><trkpt lat="14.395715027189329" lon="120.86176795527105"><ele>15.0</ele><time>2026-04-24T11:52:12.001Z</time></trkpt><trkpt lat="14.39571051346422" lon="120.86184516726975"><ele>15.0</ele><time>2026-04-24T11:52:13.001Z</time></trkpt><trkpt lat="14.395711556669237" lon="120.8619256814852"><ele>15.0</ele><time>2026-04-24T11:52:14.001Z</time></trkpt><trkpt lat="14.395709530873328" lon="120.86201038119836"><ele>15.0</ele><time>2026-04-24T11:52:15.001Z</time></trkpt><trkpt lat="14.395708923361347" lon="120.8620993219755"><ele>15.0</ele><time>2026-04-24T11:52:16.001Z</time></trkpt><trkpt lat="14.395710807133973" lon="120.8621880345737"><ele>15.0</ele><time>2026-04-24T11:52:17.001Z</time></trkpt><trkpt lat="14.395712029904185" lon="120.86228181174265"><ele>15.0</ele><time>2026-04-24T11:52:18.001Z</time></trkpt><trkpt lat="14.3957112060051" lon="120.86237112080923"><ele>15.0</ele><time>2026-04-24T11:52:19.001Z</time></trkpt><trkpt lat="14.395706889403218" lon="120.86245747632125"><ele>15.0</ele><time>2026-04-24T11:52:20.001Z</time></trkpt><trkpt lat="14.395707496917218" lon="120.86253142453158"><ele>15.0</ele><time>2026-04-24T11:52:21.001Z</time></trkpt><trkpt lat="14.395710138788148" lon="120.86264596261297"><ele>15.166666666666666</ele><time>2026-04-24T11:52:23.001Z</time></trkpt><trkpt lat="14.395709404430821" lon="120.86272345550007"><ele>15.333333333333332</ele><time>2026-04-24T11:52:25.001Z</time></trkpt><trkpt lat="14.395714436289666" lon="120.86279515406751"><ele>15.5</ele><time>2026-04-24T11:53:00.001Z</time></trkpt><trkpt lat="14.395716851265888" lon="120.86287847849549"><ele>15.666666666666666</ele><time>2026-04-24T11:53:05.001Z</time></trkpt><trkpt lat="14.395730433781525" lon="120.86297131254729"><ele>15.833333333333332</ele><time>2026-04-24T11:53:08.001Z</time></trkpt><trkpt lat="14.39576434218493" lon="120.86303504628815"><ele>16.0</ele><time>2026-04-24T11:53:10.001Z</time></trkpt><trkpt lat="14.395817318008215" lon="120.86308922675234"><ele>15.999999999999998</ele><time>2026-04-24T11:53:13.001Z</time></trkpt><trkpt lat="14.395887455511131" lon="120.86309776691287"><ele>16.0</ele><time>2026-04-24T11:53:16.001Z</time></trkpt><trkpt lat="14.395957251318103" lon="120.86306547641617"><ele>16.0</ele><time>2026-04-24T11:53:18.001Z</time></trkpt><trkpt lat="14.396048062302269" lon="120.86301683979809"><ele>16.0</ele><time>2026-04-24T11:53:20.001Z</time></trkpt><trkpt lat="14.396136787412262" lon="120.8629915099919"><ele>15.999999999999998</ele><time>2026-04-24T11:53:22.001Z</time></trkpt><trkpt lat="14.396219193833504" lon="120.8629558177363"><ele>16.0</ele><time>2026-04-24T11:53:24.001Z</time></trkpt><trkpt lat="14.396282261775022" lon="120.86293259513758"><ele>15.999999999999998</ele><time>2026-04-24T11:53:26.001Z</time></trkpt><trkpt lat="14.396355185190837" lon="120.86290689888841"><ele>16.0</ele><time>2026-04-24T11:53:28.001Z</time></trkpt><trkpt lat="14.396434130650285" lon="120.86286951212585"><ele>16.0</ele><time>2026-04-24T11:53:30.001Z</time></trkpt><trkpt lat="14.396496901203061" lon="120.86284854338662"><ele>16.0</ele><time>2026-04-24T11:53:33.001Z</time></trkpt><trkpt lat="14.39655978067938" lon="120.8628202303219"><ele>15.999999999999998</ele><time>2026-04-24T11:53:40.001Z</time></trkpt><trkpt lat="14.396652899695036" lon="120.86277814880513"><ele>16.0</ele><time>2026-04-24T11:53:44.001Z</time></trkpt><trkpt lat="14.396762410329424" lon="120.86274156355313"><ele>15.999999999999998</ele><time>2026-04-24T11:53:46.001Z</time></trkpt><trkpt lat="14.39682720010733" lon="120.86271638329718"><ele>16.0</ele><time>2026-04-24T11:53:47.001Z</time></trkpt><trkpt lat="14.3968970940003" lon="120.86269298811455"><ele>16.0</ele><time>2026-04-24T11:53:48.001Z</time></trkpt><trkpt lat="14.396968324410356" lon="120.86266843111093"><ele>16.0</ele><time>2026-04-24T11:53:49.001Z</time></trkpt><trkpt lat="14.39704739675673" lon="120.86263800911063"><ele>15.999999999999998</ele><time>2026-04-24T11:53:50.001Z</time></trkpt><trkpt lat="14.397134941285916" lon="120.86260685060275"><ele>16.0</ele><time>2026-04-24T11:53:51.001Z</time></trkpt><trkpt lat="14.397219221408497" lon="120.86257700760486"><ele>15.999999999999998</ele><time>2026-04-24T11:53:52.001Z</time></trkpt><trkpt lat="14.397305187957102" lon="120.86254441676945"><ele>16.0</ele><time>2026-04-24T11:53:53.001Z</time></trkpt><trkpt lat="14.397390790905307" lon="120.86251418704433"><ele>16.0</ele><time>2026-04-24T11:53:54.001Z</time></trkpt><trkpt lat="14.397466880725743" lon="120.86248639104093"><ele>16.0</ele><time>2026-04-24T11:53:55.001Z</time></trkpt><trkpt lat="14.397535216769818" lon="120.86245812654553"><ele>15.999999999999998</ele><time>2026-04-24T11:53:56.001Z</time></trkpt><trkpt lat="14.397601287669149" lon="120.86243037935382"><ele>16.0</ele><time>2026-04-24T11:53:57.001Z</time></trkpt><trkpt lat="14.397676655148649" lon="120.86240162015129"><ele>15.999999999999998</ele><time>2026-04-24T11:53:58.001Z</time></trkpt><trkpt lat="14.397755715681507" lon="120.86237341783571"><ele>16.0</ele><time>2026-04-24T11:53:59.001Z</time></trkpt><trkpt lat="14.39782703889575" lon="120.8623447211316"><ele>16.0</ele><time>2026-04-24T11:54:00.001Z</time></trkpt><trkpt lat="14.39790652448057" lon="120.8623142505829"><ele>16.0</ele><time>2026-04-24T11:54:01.001Z</time></trkpt><trkpt lat="14.397976919981803" lon="120.86228605128755"><ele>15.999999999999998</ele><time>2026-04-24T11:54:02.001Z</time></trkpt><trkpt lat="14.398045770466153" lon="120.8622642992553"><ele>16.0</ele><time>2026-04-24T11:54:03.001Z</time></trkpt><trkpt lat="14.398106999349558" lon="120.86223843907842"><ele>15.833333333333332</ele><time>2026-04-24T11:54:04.001Z</time></trkpt><trkpt lat="14.398169446812942" lon="120.86221257753746"><ele>15.666666666666666</ele><time>2026-04-24T11:54:05.001Z</time></trkpt><trkpt lat="14.398236845954015" lon="120.86218589187618"><ele>15.5</ele><time>2026-04-24T11:54:06.001Z</time></trkpt><trkpt lat="14.39831308481217" lon="120.86216241549131"><ele>15.333333333333332</ele><time>2026-04-24T11:54:07.001Z</time></trkpt><trkpt lat="14.398392009423072" lon="120.86213696487181"><ele>15.166666666666666</ele><time>2026-04-24T11:54:08.001Z</time></trkpt><trkpt lat="14.398472326560853" lon="120.8621078090355"><ele>15.0</ele><time>2026-04-24T11:54:09.001Z</time></trkpt><trkpt lat="14.398554718208475" lon="120.86207870361456"><ele>15.0</ele><time>2026-04-24T11:54:10.001Z</time></trkpt><trkpt lat="14.398638579388361" lon="120.86205030359156"><ele>15.0</ele><time>2026-04-24T11:54:11.001Z</time></trkpt><trkpt lat="14.398713514140333" lon="120.86202632590852"><ele>15.0</ele><time>2026-04-24T11:54:12.001Z</time></trkpt><trkpt lat="14.398782474085866" lon="120.8620043720423"><ele>15.0</ele><time>2026-04-24T11:54:13.001Z</time></trkpt><trkpt lat="14.398850640025133" lon="120.86197942511635"><ele>15.0</ele><time>2026-04-24T11:54:14.001Z</time></trkpt><trkpt lat="14.398974886285878" lon="120.8619363601246"><ele>15.0</ele><time>2026-04-24T11:54:16.001Z</time></trkpt><trkpt lat="14.39903734681173" lon="120.86191750028239"><ele>15.0</ele><time>2026-04-24T11:54:17.001Z</time></trkpt><trkpt lat="14.399103124530166" lon="120.86189760194588"><ele>15.0</ele><time>2026-04-24T11:54:18.001Z</time></trkpt><trkpt lat="14.399165572722064" lon="120.8618760320655"><ele>15.0</ele><time>2026-04-24T11:54:19.001Z</time></trkpt><trkpt lat="14.399233638029218" lon="120.86185285299923"><ele>15.0</ele><time>2026-04-24T11:54:20.001Z</time></trkpt><trkpt lat="14.39930347182231" lon="120.86183115585212"><ele>15.0</ele><time>2026-04-24T11:54:21.001Z</time></trkpt><trkpt lat="14.39936635484701" lon="120.8618114525454"><ele>15.0</ele><time>2026-04-24T11:54:22.001Z</time></trkpt><trkpt lat="14.399460528902772" lon="120.86177423651885"><ele>15.0</ele><time>2026-04-24T11:54:24.001Z</time></trkpt><trkpt lat="14.399542826237997" lon="120.8617506352545"><ele>14.8</ele><time>2026-04-24T11:54:27.001Z</time></trkpt><trkpt lat="14.399616154701436" lon="120.86172946717072"><ele>14.6</ele><time>2026-04-24T11:54:29.001Z</time></trkpt><trkpt lat="14.399709796253644" lon="120.86170294159426"><ele>14.399999999999999</ele><time>2026-04-24T11:54:31.001Z</time></trkpt><trkpt lat="14.399803927764609" lon="120.86166740779446"><ele>14.2</ele><time>2026-04-24T11:54:33.001Z</time></trkpt><trkpt lat="14.399889286011426" lon="120.86164318023076"><ele>14.0</ele><time>2026-04-24T11:54:35.001Z</time></trkpt><trkpt lat="14.399978564323794" lon="120.86161734147015"><ele>13.666666666666668</ele><time>2026-04-24T11:54:37.001Z</time></trkpt><trkpt lat="14.400040529792344" lon="120.86159868301498"><ele>13.333333333333334</ele><time>2026-04-24T11:54:41.001Z</time></trkpt><trkpt lat="14.400132065854585" lon="120.86157538589138"><ele>13.0</ele><time>2026-04-24T11:54:46.001Z</time></trkpt><trkpt lat="14.400196252484893" lon="120.86155531356647"><ele>12.666666666666668</ele><time>2026-04-24T11:54:48.001Z</time></trkpt><trkpt lat="14.400261785483021" lon="120.86153023387925"><ele>12.333333333333334</ele><time>2026-04-24T11:54:50.001Z</time></trkpt><trkpt lat="14.400348773014938" lon="120.86150283220977"><ele>12.0</ele><time>2026-04-24T11:54:52.001Z</time></trkpt><trkpt lat="14.400432524571931" lon="120.86147215113591"><ele>12.399999999999999</ele><time>2026-04-24T11:54:54.001Z</time></trkpt><trkpt lat="14.400518089634135" lon="120.86144526561688"><ele>12.799999999999999</ele><time>2026-04-24T11:54:56.001Z</time></trkpt><trkpt lat="14.40060754436736" lon="120.86141705742087"><ele>13.2</ele><time>2026-04-24T11:54:58.001Z</time></trkpt><trkpt lat="14.400703834960618" lon="120.86138509975679"><ele>13.6</ele><time>2026-04-24T11:55:00.001Z</time></trkpt><trkpt lat="14.400795609817255" lon="120.86135420556042"><ele>14.0</ele><time>2026-04-24T11:55:02.001Z</time></trkpt><trkpt lat="14.400878028358951" lon="120.86132451921273"><ele>14.000000000000002</ele><time>2026-04-24T11:55:04.001Z</time></trkpt><trkpt lat="14.400961829046965" lon="120.86129599409554"><ele>14.0</ele><time>2026-04-24T11:55:06.001Z</time></trkpt><trkpt lat="14.40104860203485" lon="120.86126523792984"><ele>14.0</ele><time>2026-04-24T11:55:08.001Z</time></trkpt><trkpt lat="14.401114596665613" lon="120.86122380553343"><ele>14.0</ele><time>2026-04-24T11:55:10.001Z</time></trkpt><trkpt lat="14.401168483506012" lon="120.86118389160147"><ele>14.000000000000002</ele><time>2026-04-24T11:55:13.001Z</time></trkpt><trkpt lat="14.401231567366821" lon="120.86115983613462"><ele>14.0</ele><time>2026-04-24T12:00:07.001Z</time></trkpt><trkpt lat="14.401139019848147" lon="120.86123017992992"><ele>14.000000000000002</ele><time>2026-04-24T12:00:12.001Z</time></trkpt><trkpt lat="14.401068174980661" lon="120.8612620700145"><ele>14.0</ele><time>2026-04-24T12:00:13.001Z</time></trkpt><trkpt lat="14.401007385621904" lon="120.8612817729909"><ele>14.0</ele><time>2026-04-24T12:00:14.001Z</time></trkpt><trkpt lat="14.400905520213533" lon="120.86130835291993"><ele>14.0</ele><time>2026-04-24T12:00:16.001Z</time></trkpt><trkpt lat="14.400814822410547" lon="120.8613373621798"><ele>14.000000000000002</ele><time>2026-04-24T12:00:18.001Z</time></trkpt><trkpt lat="14.400750587080053" lon="120.86134572772772"><ele>14.0</ele><time>2026-04-24T12:00:20.001Z</time></trkpt><trkpt lat="14.400659722347923" lon="120.86137593619134"><ele>14.0</ele><time>2026-04-24T12:00:33.001Z</time></trkpt><trkpt lat="14.400573174939167" lon="120.86141166551727"><ele>13.999999999999998</ele><time>2026-04-24T12:00:35.001Z</time></trkpt><trkpt lat="14.400486798000026" lon="120.86144365377652"><ele>13.999999999999998</ele><time>2026-04-24T12:00:37.001Z</time></trkpt><trkpt lat="14.400371100440283" lon="120.86148543039108"><ele>14.0</ele><time>2026-04-24T12:00:39.001Z</time></trkpt><trkpt lat="14.400263802247135" lon="120.86152414684462"><ele>14.0</ele><time>2026-04-24T12:00:41.001Z</time></trkpt><trkpt lat="14.40016366160128" lon="120.86155631050474"><ele>14.0</ele><time>2026-04-24T12:00:43.001Z</time></trkpt><trkpt lat="14.400058644228626" lon="120.86158382967373"><ele>13.999999999999998</ele><time>2026-04-24T12:00:45.001Z</time></trkpt><trkpt lat="14.39994812270251" lon="120.86162011083924"><ele>13.999999999999998</ele><time>2026-04-24T12:00:47.001Z</time></trkpt><trkpt lat="14.399841391952277" lon="120.8616523512425"><ele>14.0</ele><time>2026-04-24T12:00:49.001Z</time></trkpt><trkpt lat="14.399735977375784" lon="120.86168341527872"><ele>14.0</ele><time>2026-04-24T12:00:51.001Z</time></trkpt><trkpt lat="14.399620584178203" lon="120.8617190357105"><ele>14.000000000000002</ele><time>2026-04-24T12:00:53.001Z</time></trkpt><trkpt lat="14.399512818065348" lon="120.86175232045309"><ele>14.0</ele><time>2026-04-24T12:00:55.001Z</time></trkpt><trkpt lat="14.39943115029028" lon="120.86178045281181"><ele>14.0</ele><time>2026-04-24T12:00:57.001Z</time></trkpt><trkpt lat="14.39935280093845" lon="120.8618073894087"><ele>14.0</ele><time>2026-04-24T12:00:59.001Z</time></trkpt><trkpt lat="14.399277722196862" lon="120.86182932030498"><ele>14.000000000000002</ele><time>2026-04-24T12:01:01.001Z</time></trkpt><trkpt lat="14.399202848541886" lon="120.86184785985557"><ele>14.0</ele><time>2026-04-24T12:01:03.001Z</time></trkpt><trkpt lat="14.399101753447583" lon="120.86188095239473"><ele>14.2</ele><time>2026-04-24T12:01:05.001Z</time></trkpt><trkpt lat="14.39900600331315" lon="120.86191810212667"><ele>14.399999999999999</ele><time>2026-04-24T12:01:07.001Z</time></trkpt><trkpt lat="14.398929758150686" lon="120.86194035489197"><ele>14.6</ele><time>2026-04-24T12:01:09.001Z</time></trkpt><trkpt lat="14.398849139124689" lon="120.86196991997713"><ele>14.8</ele><time>2026-04-24T12:01:11.001Z</time></trkpt><trkpt lat="14.398753200908219" lon="120.86200404979628"><ele>15.0</ele><time>2026-04-24T12:01:13.001Z</time></trkpt><trkpt lat="14.39864421918208" lon="120.86202990242677"><ele>15.0</ele><time>2026-04-24T12:01:15.001Z</time></trkpt><trkpt lat="14.398538397495003" lon="120.86206012652862"><ele>15.0</ele><time>2026-04-24T12:01:17.001Z</time></trkpt><trkpt lat="14.398459776585616" lon="120.8620891194852"><ele>15.0</ele><time>2026-04-24T12:01:19.001Z</time></trkpt><trkpt lat="14.398373426858916" lon="120.86211926172005"><ele>15.0</ele><time>2026-04-24T12:01:21.001Z</time></trkpt><trkpt lat="14.398298738185485" lon="120.86214753528003"><ele>15.0</ele><time>2026-04-24T12:01:23.001Z</time></trkpt><trkpt lat="14.398227588560843" lon="120.86218148785156"><ele>15.0</ele><time>2026-04-24T12:01:25.001Z</time></trkpt><trkpt lat="14.398147738037485" lon="120.86221977073619"><ele>15.0</ele><time>2026-04-24T12:01:27.001Z</time></trkpt><trkpt lat="14.398051173015542" lon="120.86225125881406"><ele>15.0</ele><time>2026-04-24T12:01:29.001Z</time></trkpt><trkpt lat="14.397929235350311" lon="120.86229477957046"><ele>15.0</ele><time>2026-04-24T12:01:31.001Z</time></trkpt><trkpt lat="14.39785950288789" lon="120.86232591660145"><ele>15.0</ele><time>2026-04-24T12:01:32.001Z</time></trkpt><trkpt lat="14.397779130966729" lon="120.86236147166203"><ele>15.0</ele><time>2026-04-24T12:01:33.001Z</time></trkpt><trkpt lat="14.397685484199002" lon="120.86239748718907"><ele>15.2</ele><time>2026-04-24T12:01:34.001Z</time></trkpt><trkpt lat="14.397578567048226" lon="120.86243697560704"><ele>15.4</ele><time>2026-04-24T12:01:35.001Z</time></trkpt><trkpt lat="14.397472942994998" lon="120.86247665298382"><ele>15.600000000000001</ele><time>2026-04-24T12:01:36.001Z</time></trkpt><trkpt lat="14.397388343119328" lon="120.86251111575817"><ele>15.8</ele><time>2026-04-24T12:01:37.001Z</time></trkpt><trkpt lat="14.397321561523277" lon="120.86253550803912"><ele>16.0</ele><time>2026-04-24T12:01:38.001Z</time></trkpt><trkpt lat="14.397219958582891" lon="120.86257427120157"><ele>15.999999999999998</ele><time>2026-04-24T12:01:40.001Z</time></trkpt><trkpt lat="14.397152487509102" lon="120.86259905285775"><ele>16.0</ele><time>2026-04-24T12:01:42.001Z</time></trkpt><trkpt lat="14.397087153188853" lon="120.86262384398866"><ele>16.0</ele><time>2026-04-24T12:01:44.001Z</time></trkpt><trkpt lat="14.397017652349614" lon="120.86264659064533"><ele>16.0</ele><time>2026-04-24T12:01:46.001Z</time></trkpt><trkpt lat="14.396943468854127" lon="120.8626724843183"><ele>15.999999999999998</ele><time>2026-04-24T12:01:49.001Z</time></trkpt><trkpt lat="14.39685443523787" lon="120.86269423193616"><ele>16.0</ele><time>2026-04-24T12:01:53.001Z</time></trkpt><trkpt lat="14.396783082550616" lon="120.86271995138333"><ele>15.999999999999998</ele><time>2026-04-24T12:01:55.001Z</time></trkpt><trkpt lat="14.396693766971554" lon="120.86275053515361"><ele>16.0</ele><time>2026-04-24T12:01:57.001Z</time></trkpt><trkpt lat="14.396633307593309" lon="120.86278573022244"><ele>16.0</ele><time>2026-04-24T12:01:59.001Z</time></trkpt><trkpt lat="14.396544356369798" lon="120.86282361316752"><ele>16.0</ele><time>2026-04-24T12:02:02.001Z</time></trkpt><trkpt lat="14.396438361741367" lon="120.86286164966712"><ele>15.999999999999998</ele><time>2026-04-24T12:02:04.001Z</time></trkpt><trkpt lat="14.396374255467796" lon="120.86288214449009"><ele>16.0</ele><time>2026-04-24T12:02:05.001Z</time></trkpt><trkpt lat="14.396308818405199" lon="120.86291013635513"><ele>15.999999999999998</ele><time>2026-04-24T12:02:06.001Z</time></trkpt><trkpt lat="14.396239436700357" lon="120.86293598632099"><ele>16.0</ele><time>2026-04-24T12:02:07.001Z</time></trkpt><trkpt lat="14.396171943201363" lon="120.86295486443662"><ele>16.0</ele><time>2026-04-24T12:02:08.001Z</time></trkpt><trkpt lat="14.396057480018191" lon="120.86298706337168"><ele>16.0</ele><time>2026-04-24T12:02:10.001Z</time></trkpt><trkpt lat="14.395955582845575" lon="120.86300816149594"><ele>15.999999999999998</ele><time>2026-04-24T12:02:12.001Z</time></trkpt><trkpt lat="14.395881895875089" lon="120.86300266831189"><ele>16.0</ele><time>2026-04-24T12:02:14.001Z</time></trkpt><trkpt lat="14.395826220400561" lon="120.86295468688759"><ele>15.999999999999998</ele><time>2026-04-24T12:02:16.001Z</time></trkpt><trkpt lat="14.395787319702091" lon="120.86290195244176"><ele>16.0</ele><time>2026-04-24T12:02:18.001Z</time></trkpt><trkpt lat="14.395751207628734" lon="120.86282342232727"><ele>16.0</ele><time>2026-04-24T12:02:21.001Z</time></trkpt><trkpt lat="14.395763470780008" lon="120.86274015159573"><ele>16.0</ele><time>2026-04-24T12:02:23.001Z</time></trkpt><trkpt lat="14.39575840111775" lon="120.86266929646516"><ele>15.999999999999998</ele><time>2026-04-24T12:02:25.001Z</time></trkpt><trkpt lat="14.39574009492634" lon="120.86256463503665"><ele>16.0</ele><time>2026-04-24T12:02:28.001Z</time></trkpt><trkpt lat="14.395756548186434" lon="120.86245571187597"><ele>15.833333333333332</ele><time>2026-04-24T12:02:30.001Z</time></trkpt><trkpt lat="14.395764625524938" lon="120.8623656047482"><ele>15.666666666666666</ele><time>2026-04-24T12:02:32.001Z</time></trkpt><trkpt lat="14.395773946746685" lon="120.86226303101978"><ele>15.5</ele><time>2026-04-24T12:02:34.001Z</time></trkpt><trkpt lat="14.395780958080023" lon="120.8621763389268"><ele>15.333333333333332</ele><time>2026-04-24T12:02:36.001Z</time></trkpt><trkpt lat="14.395783084520085" lon="120.86211021074273"><ele>15.166666666666666</ele><time>2026-04-24T12:02:38.001Z</time></trkpt><trkpt lat="14.395783943981492" lon="120.86204287944072"><ele>15.0</ele><time>2026-04-24T12:02:40.001Z</time></trkpt><trkpt lat="14.39578790725844" lon="120.86197235114764"><ele>15.0</ele><time>2026-04-24T12:02:42.001Z</time></trkpt><trkpt lat="14.39578965447483" lon="120.86189800673642"><ele>15.0</ele><time>2026-04-24T12:02:44.001Z</time></trkpt><trkpt lat="14.395792940608912" lon="120.86181705003709"><ele>15.0</ele><time>2026-04-24T12:02:46.001Z</time></trkpt><trkpt lat="14.395790861185203" lon="120.86171395294002"><ele>15.0</ele><time>2026-04-24T12:02:48.001Z</time></trkpt><trkpt lat="14.395793112703704" lon="120.86160715253"><ele>15.0</ele><time>2026-04-24T12:02:50.001Z</time></trkpt><trkpt lat="14.395795193251491" lon="120.86153097142125"><ele>15.0</ele><time>2026-04-24T12:02:52.001Z</time></trkpt><trkpt lat="14.395799769362831" lon="120.86145591003101"><ele>15.0</ele><time>2026-04-24T12:02:56.001Z</time></trkpt><trkpt lat="14.39580073954298" lon="120.86136639266543"><ele>15.0</ele><time>2026-04-24T12:03:01.001Z</time></trkpt><trkpt lat="14.395794919980837" lon="120.86128374777128"><ele>15.0</ele><time>2026-04-24T12:03:03.001Z</time></trkpt><trkpt lat="14.395781472302023" lon="120.86119527972228"><ele>15.0</ele><time>2026-04-24T12:03:05.001Z</time></trkpt><trkpt lat="14.39575853972303" lon="120.86111171984996"><ele>15.0</ele><time>2026-04-24T12:03:07.001Z</time></trkpt><trkpt lat="14.395740095405055" lon="120.86103306844765"><ele>15.0</ele><time>2026-04-24T12:03:10.001Z</time></trkpt><trkpt lat="14.395710795515319" lon="120.86095518824288"><ele>15.0</ele><time>2026-04-24T12:03:15.001Z</time></trkpt><trkpt lat="14.395680448250424" lon="120.86089663043809"><ele>15.0</ele><time>2026-04-24T12:03:19.001Z</time></trkpt><trkpt lat="14.395643025032" lon="120.8608354389705"><ele>15.0</ele><time>2026-04-24T12:03:24.001Z</time></trkpt><trkpt lat="14.3956359235981" lon="120.86076753043768"><ele>15.0</ele><time>2026-04-24T12:03:32.001Z</time></trkpt><trkpt lat="14.39561332304036" lon="120.86070375756393"><ele>15.0</ele><time>2026-04-24T12:03:43.001Z</time></trkpt><trkpt lat="14.395546260517444" lon="120.86069625362946"><ele>15.0</ele><time>2026-04-24T12:04:01.001Z</time></trkpt><trkpt lat="14.39547372573396" lon="120.86073758351064"><ele>15.0</ele><time>2026-04-24T12:04:03.001Z</time></trkpt><trkpt lat="14.395390328207931" lon="120.86080013547964"><ele>15.0</ele><time>2026-04-24T12:04:05.001Z</time></trkpt><trkpt lat="14.395320311317327" lon="120.86084715960575"><ele>15.0</ele><time>2026-04-24T12:04:07.001Z</time></trkpt><trkpt lat="14.395232020455197" lon="120.86089678938922"><ele>15.0</ele><time>2026-04-24T12:04:09Z</time></trkpt><trkpt lat="14.39514004431109" lon="120.86094223245338"><ele>15.0</ele><time>2026-04-24T12:04:11Z</time></trkpt><trkpt lat="14.395068429130756" lon="120.86096360822506"><ele>15.0</ele><time>2026-04-24T12:04:13Z</time></trkpt><trkpt lat="14.394984810292211" lon="120.86099846696271"><ele>15.0</ele><time>2026-04-24T12:04:15Z</time></trkpt><trkpt lat="14.394871672229497" lon="120.86101990884622"><ele>15.0</ele><time>2026-04-24T12:04:17Z</time></trkpt><trkpt lat="14.394761872278938" lon="120.86103332288948"><ele>15.0</ele><time>2026-04-24T12:04:19Z</time></trkpt><trkpt lat="14.394651271690883" lon="120.86105150310983"><ele>15.0</ele><time>2026-04-24T12:04:21Z</time></trkpt><trkpt lat="14.394536693868513" lon="120.86107410182095"><ele>14.6</ele><time>2026-04-24T12:04:23Z</time></trkpt><trkpt lat="14.394414381775581" lon="120.86109132719702"><ele>14.2</ele><time>2026-04-24T12:04:25Z</time></trkpt><trkpt lat="14.394348767485658" lon="120.86110034807075"><ele>13.8</ele><time>2026-04-24T12:04:26Z</time></trkpt><trkpt lat="14.394236921247892" lon="120.86112162433514"><ele>13.4</ele><time>2026-04-24T12:04:28Z</time></trkpt><trkpt lat="14.394126092763297" lon="120.86113917658845"><ele>13.0</ele><time>2026-04-24T12:04:30Z</time></trkpt><trkpt lat="14.394033653384893" lon="120.86115617693078"><ele>12.999999999999998</ele><time>2026-04-24T12:04:32Z</time></trkpt><trkpt lat="14.39391243197646" lon="120.8611812728376"><ele>13.0</ele><time>2026-04-24T12:04:34Z</time></trkpt><trkpt lat="14.393837499976385" lon="120.8611976704834"><ele>13.0</ele><time>2026-04-24T12:04:35Z</time></trkpt><trkpt lat="14.393755568169533" lon="120.86120720911877"><ele>13.0</ele><time>2026-04-24T12:04:36Z</time></trkpt><trkpt lat="14.393686915248063" lon="120.86121425840277"><ele>12.999999999999998</ele><time>2026-04-24T12:04:37Z</time></trkpt><trkpt lat="14.393621626753907" lon="120.86122394974855"><ele>13.0</ele><time>2026-04-24T12:04:38Z</time></trkpt><trkpt lat="14.393555142148132" lon="120.86124053578652"><ele>13.600000000000001</ele><time>2026-04-24T12:04:39Z</time></trkpt><trkpt lat="14.393422421606056" lon="120.86127006606294"><ele>14.200000000000001</ele><time>2026-04-24T12:04:41Z</time></trkpt><trkpt lat="14.393351902406705" lon="120.86128190313035"><ele>14.8</ele><time>2026-04-24T12:04:42Z</time></trkpt><trkpt lat="14.393286891302148" lon="120.86129364562422"><ele>15.4</ele><time>2026-04-24T12:04:43Z</time></trkpt><trkpt lat="14.393223712693027" lon="120.86130819361142"><ele>16.0</ele><time>2026-04-24T12:04:44Z</time></trkpt><trkpt lat="14.393107092457726" lon="120.86132852050413"><ele>16.0</ele><time>2026-04-24T12:04:46Z</time></trkpt><trkpt lat="14.392990311658112" lon="120.8613623940638"><ele>16.0</ele><time>2026-04-24T12:04:48Z</time></trkpt><trkpt lat="14.392878547274467" lon="120.86139538719287"><ele>16.0</ele><time>2026-04-24T12:04:50Z</time></trkpt><trkpt lat="14.392772897299494" lon="120.8614362740415"><ele>16.0</ele><time>2026-04-24T12:04:52Z</time></trkpt><trkpt lat="14.39265801566259" lon="120.86147875155335"><ele>16.0</ele><time>2026-04-24T12:04:54Z</time></trkpt><trkpt lat="14.392548135320322" lon="120.86152699655915"><ele>16.0</ele><time>2026-04-24T12:04:56Z</time></trkpt><trkpt lat="14.392439686848839" lon="120.86158115591196"><ele>16.0</ele><time>2026-04-24T12:04:58Z</time></trkpt><trkpt lat="14.392384446771505" lon="120.86161599091145"><ele>16.0</ele><time>2026-04-24T12:04:59Z</time></trkpt><trkpt lat="14.392290228777386" lon="120.86169783888268"><ele>16.0</ele><time>2026-04-24T12:05:01Z</time></trkpt><trkpt lat="14.392240756090242" lon="120.86175019587282"><ele>16.0</ele><time>2026-04-24T12:05:02Z</time></trkpt><trkpt lat="14.392198776931576" lon="120.86180030664043"><ele>15.999999999999998</ele><time>2026-04-24T12:05:03Z</time></trkpt><trkpt lat="14.392154097702894" lon="120.86185482157087"><ele>16.0</ele><time>2026-04-24T12:05:04Z</time></trkpt><trkpt lat="14.392107409620507" lon="120.86190745687144"><ele>16.0</ele><time>2026-04-24T12:05:05Z</time></trkpt><trkpt lat="14.392064564941993" lon="120.86195743365127"><ele>15.999999999999998</ele><time>2026-04-24T12:05:06Z</time></trkpt><trkpt lat="14.392022808594676" lon="120.8620066965955"><ele>16.0</ele><time>2026-04-24T12:05:07Z</time></trkpt><trkpt lat="14.391947535172275" lon="120.86209935054903"><ele>16.0</ele><time>2026-04-24T12:05:09Z</time></trkpt><trkpt lat="14.391904394550437" lon="120.86214975383795"><ele>15.999999999999998</ele><time>2026-04-24T12:05:10Z</time></trkpt><trkpt lat="14.391864126676204" lon="120.86220107061179"><ele>16.0</ele><time>2026-04-24T12:05:11Z</time></trkpt><trkpt lat="14.391815886332358" lon="120.86225350800063"><ele>16.0</ele><time>2026-04-24T12:05:12Z</time></trkpt><trkpt lat="14.39177208803933" lon="120.86230174831024"><ele>16.0</ele><time>2026-04-24T12:05:13Z</time></trkpt><trkpt lat="14.391727438589577" lon="120.86234919265132"><ele>15.999999999999998</ele><time>2026-04-24T12:05:14Z</time></trkpt><trkpt lat="14.391650293100833" lon="120.86243416507168"><ele>16.0</ele><time>2026-04-24T12:05:16Z</time></trkpt><trkpt lat="14.391579807366814" lon="120.8625099632766"><ele>16.0</ele><time>2026-04-24T12:05:18Z</time></trkpt><trkpt lat="14.391510030881912" lon="120.86258422600872"><ele>16.0</ele><time>2026-04-24T12:05:20Z</time></trkpt><trkpt lat="14.391427833419284" lon="120.86266783126761"><ele>16.0</ele><time>2026-04-24T12:05:22Z</time></trkpt><trkpt lat="14.391333775363565" lon="120.86275295467314"><ele>16.0</ele><time>2026-04-24T12:05:24Z</time></trkpt><trkpt lat="14.391253210180237" lon="120.86283042623815"><ele>16.400000000000002</ele><time>2026-04-24T12:05:26Z</time></trkpt><trkpt lat="14.391172371908779" lon="120.86291281060154"><ele>16.8</ele><time>2026-04-24T12:05:28Z</time></trkpt><trkpt lat="14.391080812302334" lon="120.86300044067544"><ele>17.200000000000003</ele><time>2026-04-24T12:05:30Z</time></trkpt><trkpt lat="14.391027349618186" lon="120.86304943527298"><ele>17.6</ele><time>2026-04-24T12:05:31Z</time></trkpt><trkpt lat="14.39097293052066" lon="120.86309850763774"><ele>18.0</ele><time>2026-04-24T12:05:32Z</time></trkpt><trkpt lat="14.390917681313907" lon="120.86315082257009"><ele>18.0</ele><time>2026-04-24T12:05:33Z</time></trkpt><trkpt lat="14.390866429397553" lon="120.86320081942459"><ele>18.0</ele><time>2026-04-24T12:05:34Z</time></trkpt><trkpt lat="14.390780469331126" lon="120.86328096890594"><ele>18.0</ele><time>2026-04-24T12:05:36Z</time></trkpt><trkpt lat="14.390691972641342" lon="120.86336083430389"><ele>18.0</ele><time>2026-04-24T12:05:38Z</time></trkpt><trkpt lat="14.390618987203249" lon="120.86342708651394"><ele>18.0</ele><time>2026-04-24T12:05:40Z</time></trkpt><trkpt lat="14.390565857869543" lon="120.86347344707006"><ele>17.833333333333332</ele><time>2026-04-24T12:05:42.001Z</time></trkpt><trkpt lat="14.390504171658378" lon="120.86351880259362"><ele>17.666666666666668</ele><time>2026-04-24T12:05:45.001Z</time></trkpt><trkpt lat="14.390449284326989" lon="120.86357061739528"><ele>17.5</ele><time>2026-04-24T12:06:01Z</time></trkpt><trkpt lat="14.39037950889066" lon="120.86361454233396"><ele>17.333333333333336</ele><time>2026-04-24T12:06:06Z</time></trkpt><trkpt lat="14.390308531766385" lon="120.86367685275167"><ele>17.166666666666668</ele><time>2026-04-24T12:06:09Z</time></trkpt><trkpt lat="14.390239219006427" lon="120.8637283195901"><ele>17.0</ele><time>2026-04-24T12:06:12Z</time></trkpt><trkpt lat="14.390184157428514" lon="120.86376361325568"><ele>17.0</ele><time>2026-04-24T12:06:14Z</time></trkpt><trkpt lat="14.39011340076162" lon="120.86382450593078"><ele>17.0</ele><time>2026-04-24T12:06:16Z</time></trkpt><trkpt lat="14.390041560386791" lon="120.86388415987264"><ele>17.0</ele><time>2026-04-24T12:06:18Z</time></trkpt><trkpt lat="14.389958237383066" lon="120.86394354179902"><ele>17.0</ele><time>2026-04-24T12:06:20Z</time></trkpt><trkpt lat="14.389880176782126" lon="120.86400849970666"><ele>17.0</ele><time>2026-04-24T12:06:22Z</time></trkpt><trkpt lat="14.389804498090209" lon="120.86406371450306"><ele>17.0</ele><time>2026-04-24T12:06:24Z</time></trkpt><trkpt lat="14.389729889928454" lon="120.8641078177708"><ele>17.0</ele><time>2026-04-24T12:06:26Z</time></trkpt><trkpt lat="14.389645535485105" lon="120.86415340833084"><ele>17.0</ele><time>2026-04-24T12:06:28Z</time></trkpt><trkpt lat="14.38955510455183" lon="120.86421008108829"><ele>17.0</ele><time>2026-04-24T12:06:30Z</time></trkpt><trkpt lat="14.389497953013015" lon="120.86424179118325"><ele>17.0</ele><time>2026-04-24T12:06:31Z</time></trkpt><trkpt lat="14.389435605768261" lon="120.86427256765116"><ele>17.0</ele><time>2026-04-24T12:06:32Z</time></trkpt><trkpt lat="14.389370741251295" lon="120.86430453525331"><ele>16.999999999999996</ele><time>2026-04-24T12:06:33Z</time></trkpt><trkpt lat="14.38930038032998" lon="120.86433834800562"><ele>17.0</ele><time>2026-04-24T12:06:34Z</time></trkpt><trkpt lat="14.389232384875486" lon="120.86437029856785"><ele>17.0</ele><time>2026-04-24T12:06:35Z</time></trkpt><trkpt lat="14.389165675088428" lon="120.86440002015577"><ele>17.0</ele><time>2026-04-24T12:06:36Z</time></trkpt><trkpt lat="14.389099763672494" lon="120.86443138937028"><ele>17.0</ele><time>2026-04-24T12:06:37Z</time></trkpt><trkpt lat="14.389027200876878" lon="120.86446629902123"><ele>16.999999999999996</ele><time>2026-04-24T12:06:38Z</time></trkpt><trkpt lat="14.3889668912674" lon="120.86449599143721"><ele>17.0</ele><time>2026-04-24T12:06:39Z</time></trkpt><trkpt lat="14.388857064704364" lon="120.86454594864554"><ele>16.999999999999996</ele><time>2026-04-24T12:06:41Z</time></trkpt><trkpt lat="14.388795494470838" lon="120.86457313106251"><ele>17.0</ele><time>2026-04-24T12:06:42Z</time></trkpt><trkpt lat="14.38872967234521" lon="120.86459872444942"><ele>17.0</ele><time>2026-04-24T12:06:43Z</time></trkpt><trkpt lat="14.388662552909544" lon="120.8646226204184"><ele>17.0</ele><time>2026-04-24T12:06:44Z</time></trkpt><trkpt lat="14.3885905837456" lon="120.8646503099665"><ele>17.0</ele><time>2026-04-24T12:06:45Z</time></trkpt><trkpt lat="14.388522141011935" lon="120.86467825354595"><ele>16.999999999999996</ele><time>2026-04-24T12:06:46Z</time></trkpt><trkpt lat="14.38846079171141" lon="120.8647040951907"><ele>17.0</ele><time>2026-04-24T12:06:47Z</time></trkpt><trkpt lat="14.388400834471364" lon="120.86472759557829"><ele>17.0</ele><time>2026-04-24T12:06:48Z</time></trkpt><trkpt lat="14.388330335087057" lon="120.86475264117293"><ele>17.0</ele><time>2026-04-24T12:06:50Z</time></trkpt><trkpt lat="14.388255499578719" lon="120.86478199401233"><ele>17.0</ele><time>2026-04-24T12:06:53Z</time></trkpt><trkpt lat="14.388190473075635" lon="120.86480015870183"><ele>17.0</ele><time>2026-04-24T12:06:55Z</time></trkpt><trkpt lat="14.38812051269101" lon="120.8648306490544"><ele>17.0</ele><time>2026-04-24T12:07:16Z</time></trkpt><trkpt lat="14.388056360301128" lon="120.86485757315619"><ele>17.0</ele><time>2026-04-24T12:07:19Z</time></trkpt><trkpt lat="14.387961129803605" lon="120.86490189418667"><ele>17.2</ele><time>2026-04-24T12:07:22Z</time></trkpt><trkpt lat="14.387867835396175" lon="120.86495117011107"><ele>17.4</ele><time>2026-04-24T12:07:24Z</time></trkpt><trkpt lat="14.387760149682109" lon="120.86499452828537"><ele>17.6</ele><time>2026-04-24T12:07:26Z</time></trkpt><trkpt lat="14.38765665181714" lon="120.8650391345773"><ele>17.8</ele><time>2026-04-24T12:07:28Z</time></trkpt><trkpt lat="14.387553334458046" lon="120.8650851623995"><ele>18.0</ele><time>2026-04-24T12:07:30Z</time></trkpt><trkpt lat="14.387493418204341" lon="120.86511380464637"><ele>18.0</ele><time>2026-04-24T12:07:31Z</time></trkpt><trkpt lat="14.387368912689553" lon="120.86516452551054"><ele>18.0</ele><time>2026-04-24T12:07:33Z</time></trkpt><trkpt lat="14.387305262734504" lon="120.86519298622463"><ele>18.0</ele><time>2026-04-24T12:07:34Z</time></trkpt><trkpt lat="14.387240982536644" lon="120.8652227068553"><ele>18.0</ele><time>2026-04-24T12:07:35Z</time></trkpt><trkpt lat="14.387175534956969" lon="120.8652499991146"><ele>18.0</ele><time>2026-04-24T12:07:36Z</time></trkpt><trkpt lat="14.387109605860367" lon="120.8652788380858"><ele>18.0</ele><time>2026-04-24T12:07:37Z</time></trkpt><trkpt lat="14.386999722007864" lon="120.86532455336287"><ele>18.4</ele><time>2026-04-24T12:07:39Z</time></trkpt><trkpt lat="14.386898824869075" lon="120.86536102420271"><ele>18.8</ele><time>2026-04-24T12:07:41Z</time></trkpt><trkpt lat="14.3868027492547" lon="120.86540740248252"><ele>19.2</ele><time>2026-04-24T12:07:43Z</time></trkpt><trkpt lat="14.3867121325732" lon="120.86544784141356"><ele>19.6</ele><time>2026-04-24T12:07:45Z</time></trkpt><trkpt lat="14.386630859159194" lon="120.86547856849162"><ele>20.0</ele><time>2026-04-24T12:07:47Z</time></trkpt><trkpt lat="14.386546286419255" lon="120.86548827609553"><ele>20.0</ele><time>2026-04-24T12:07:50Z</time></trkpt><trkpt lat="14.386493470629862" lon="120.86542473825133"><ele>20.0</ele><time>2026-04-24T12:07:52Z</time></trkpt><trkpt lat="14.386456902125824" lon="120.86532827241174"><ele>20.0</ele><time>2026-04-24T12:07:54Z</time></trkpt><trkpt lat="14.386444839770624" lon="120.8652628651536"><ele>20.0</ele><time>2026-04-24T12:07:56Z</time></trkpt><trkpt lat="14.386434090890738" lon="120.86519575785697"><ele>20.0</ele><time>2026-04-24T12:08:00Z</time></trkpt><trkpt lat="14.386420589563404" lon="120.86527631671878"><ele>20.0</ele><time>2026-04-24T12:08:26Z</time></trkpt><trkpt lat="14.386451251855675" lon="120.86537313412882"><ele>20.0</ele><time>2026-04-24T12:08:28Z</time></trkpt><trkpt lat="14.386477653946137" lon="120.86544421493984"><ele>20.0</ele><time>2026-04-24T12:08:30Z</time></trkpt><trkpt lat="14.386519915789126" lon="120.86550761824142"><ele>20.0</ele><time>2026-04-24T12:08:36Z</time></trkpt><trkpt lat="14.386583075219605" lon="120.86551608281229"><ele>20.0</ele><time>2026-04-24T12:08:40Z</time></trkpt><trkpt lat="14.386653490491497" lon="120.86548386008116"><ele>20.0</ele><time>2026-04-24T12:08:42Z</time></trkpt><trkpt lat="14.386730323089969" lon="120.8654499668015"><ele>20.0</ele><time>2026-04-24T12:08:44Z</time></trkpt><trkpt lat="14.38681574613387" lon="120.86541063567205"><ele>20.0</ele><time>2026-04-24T12:08:46Z</time></trkpt><trkpt lat="14.38691972695317" lon="120.86535825843336"><ele>20.0</ele><time>2026-04-24T12:08:48Z</time></trkpt><trkpt lat="14.386992943795805" lon="120.86532220120618"><ele>20.0</ele><time>2026-04-24T12:08:49Z</time></trkpt><trkpt lat="14.387069459684467" lon="120.8653006018737"><ele>20.0</ele><time>2026-04-24T12:08:50Z</time></trkpt><trkpt lat="14.38714176447677" lon="120.86527566132193"><ele>20.0</ele><time>2026-04-24T12:08:51Z</time></trkpt><trkpt lat="14.387214228695683" lon="120.865244273006"><ele>20.0</ele><time>2026-04-24T12:08:52Z</time></trkpt><trkpt lat="14.387289686187652" lon="120.8652068860568"><ele>19.666666666666668</ele><time>2026-04-24T12:08:53Z</time></trkpt><trkpt lat="14.387361429275275" lon="120.86517393508429"><ele>19.333333333333336</ele><time>2026-04-24T12:08:54Z</time></trkpt><trkpt lat="14.387435318283007" lon="120.8651396022491"><ele>19.0</ele><time>2026-04-24T12:08:55Z</time></trkpt><trkpt lat="14.387509229140893" lon="120.86510989544931"><ele>18.666666666666668</ele><time>2026-04-24T12:08:56Z</time></trkpt><trkpt lat="14.387582679526243" lon="120.86508158690918"><ele>18.333333333333332</ele><time>2026-04-24T12:08:57Z</time></trkpt><trkpt lat="14.387652658189106" lon="120.86505145590363"><ele>18.0</ele><time>2026-04-24T12:08:58Z</time></trkpt><trkpt lat="14.38772857495029" lon="120.86501457715309"><ele>18.0</ele><time>2026-04-24T12:08:59Z</time></trkpt><trkpt lat="14.387798364568386" lon="120.86498410356711"><ele>18.0</ele><time>2026-04-24T12:09:00Z</time></trkpt><trkpt lat="14.387867603564892" lon="120.8649531382592"><ele>18.0</ele><time>2026-04-24T12:09:01Z</time></trkpt><trkpt lat="14.387932684565804" lon="120.8649223523438"><ele>18.0</ele><time>2026-04-24T12:09:02Z</time></trkpt><trkpt lat="14.387989944728316" lon="120.8648910530188"><ele>18.0</ele><time>2026-04-24T12:09:03Z</time></trkpt><trkpt lat="14.388050982774287" lon="120.86486400213695"><ele>18.0</ele><time>2026-04-24T12:09:04Z</time></trkpt><trkpt lat="14.388166256414532" lon="120.86481714169183"><ele>17.8</ele><time>2026-04-24T12:09:06Z</time></trkpt><trkpt lat="14.388270621884738" lon="120.8647708466035"><ele>17.6</ele><time>2026-04-24T12:09:08Z</time></trkpt><trkpt lat="14.388368642234107" lon="120.86472853833034"><ele>17.4</ele><time>2026-04-24T12:09:10Z</time></trkpt><trkpt lat="14.388479885312362" lon="120.86468466198977"><ele>17.2</ele><time>2026-04-24T12:09:12Z</time></trkpt><trkpt lat="14.388540493546893" lon="120.86465753782251"><ele>17.0</ele><time>2026-04-24T12:09:13Z</time></trkpt><trkpt lat="14.388601978952257" lon="120.86463175303264"><ele>16.999999999999996</ele><time>2026-04-24T12:09:14Z</time></trkpt><trkpt lat="14.388668102906111" lon="120.86460676761212"><ele>17.0</ele><time>2026-04-24T12:09:15Z</time></trkpt><trkpt lat="14.388738420984616" lon="120.86458058742177"><ele>17.0</ele><time>2026-04-24T12:09:16Z</time></trkpt><trkpt lat="14.388802634512329" lon="120.86455330515588"><ele>17.0</ele><time>2026-04-24T12:09:17Z</time></trkpt><trkpt lat="14.38886847358991" lon="120.86452432838776"><ele>17.0</ele><time>2026-04-24T12:09:18Z</time></trkpt><trkpt lat="14.388931120351371" lon="120.86449755537679"><ele>16.999999999999996</ele><time>2026-04-24T12:09:19Z</time></trkpt><trkpt lat="14.388990055851078" lon="120.86447253638616"><ele>17.0</ele><time>2026-04-24T12:09:20Z</time></trkpt><trkpt lat="14.389091627340084" lon="120.86443678924041"><ele>17.0</ele><time>2026-04-24T12:09:22Z</time></trkpt><trkpt lat="14.389163459277237" lon="120.86440713921768"><ele>17.0</ele><time>2026-04-24T12:09:24Z</time></trkpt><trkpt lat="14.389241086599265" lon="120.8643715951535"><ele>17.0</ele><time>2026-04-24T12:09:26Z</time></trkpt><trkpt lat="14.389333220154233" lon="120.86433113129377"><ele>17.0</ele><time>2026-04-24T12:09:28Z</time></trkpt><trkpt lat="14.389430120282878" lon="120.86428687886497"><ele>17.0</ele><time>2026-04-24T12:09:30Z</time></trkpt><trkpt lat="14.389518291784736" lon="120.86423551480702"><ele>17.0</ele><time>2026-04-24T12:09:32Z</time></trkpt><trkpt lat="14.389611755853732" lon="120.86418294057636"><ele>17.0</ele><time>2026-04-24T12:09:34Z</time></trkpt><trkpt lat="14.389699613446673" lon="120.86412948531715"><ele>17.0</ele><time>2026-04-24T12:09:36Z</time></trkpt><trkpt lat="14.389786351936888" lon="120.86407396043317"><ele>17.0</ele><time>2026-04-24T12:09:38Z</time></trkpt><trkpt lat="14.389882017902893" lon="120.864013197539"><ele>17.0</ele><time>2026-04-24T12:09:40Z</time></trkpt><trkpt lat="14.389970438861877" lon="120.86395364100937"><ele>17.0</ele><time>2026-04-24T12:09:42Z</time></trkpt><trkpt lat="14.390053846717965" lon="120.86388193398727"><ele>17.0</ele><time>2026-04-24T12:09:44Z</time></trkpt><trkpt lat="14.390122279731003" lon="120.8638272852605"><ele>17.0</ele><time>2026-04-24T12:09:46Z</time></trkpt><trkpt lat="14.390181398348147" lon="120.86378242691238"><ele>17.0</ele><time>2026-04-24T12:09:48Z</time></trkpt><trkpt lat="14.390245893528675" lon="120.8637346316193"><ele>17.0</ele><time>2026-04-24T12:09:50Z</time></trkpt><trkpt lat="14.390302080644425" lon="120.8636965880642"><ele>17.0</ele><time>2026-04-24T12:09:53Z</time></trkpt><trkpt lat="14.390365625123986" lon="120.86364707297588"><ele>17.0</ele><time>2026-04-24T12:09:57Z</time></trkpt><trkpt lat="14.390441210188289" lon="120.86358875145297"><ele>17.0</ele><time>2026-04-24T12:10:02Z</time></trkpt><trkpt lat="14.390494277555687" lon="120.86354475584089"><ele>17.0</ele><time>2026-04-24T12:10:04Z</time></trkpt><trkpt lat="14.390566305224981" lon="120.86349066220735"><ele>17.0</ele><time>2026-04-24T12:10:07Z</time></trkpt><trkpt lat="14.390622429397018" lon="120.8634440031122"><ele>17.0</ele><time>2026-04-24T12:10:09Z</time></trkpt><trkpt lat="14.390705719655012" lon="120.86337008397568"><ele>17.0</ele><time>2026-04-24T12:10:11Z</time></trkpt><trkpt lat="14.390784602384109" lon="120.86331041869471"><ele>17.166666666666668</ele><time>2026-04-24T12:10:13Z</time></trkpt><trkpt lat="14.390843632654319" lon="120.86328052449645"><ele>17.333333333333336</ele><time>2026-04-24T12:10:15Z</time></trkpt><trkpt lat="14.390888481414324" lon="120.86320182291209"><ele>17.5</ele><time>2026-04-24T12:11:08Z</time></trkpt><trkpt lat="14.390956339004191" lon="120.86312615207045"><ele>17.666666666666668</ele><time>2026-04-24T12:11:10Z</time></trkpt><trkpt lat="14.391004412413002" lon="120.86308121032981"><ele>17.833333333333332</ele><time>2026-04-24T12:11:11Z</time></trkpt><trkpt lat="14.39108490154642" lon="120.8630024708473"><ele>18.0</ele><time>2026-04-24T12:11:13Z</time></trkpt><trkpt lat="14.391168759353272" lon="120.86291753654189"><ele>18.0</ele><time>2026-04-24T12:11:15Z</time></trkpt><trkpt lat="14.391218764922897" lon="120.86286852023784"><ele>18.0</ele><time>2026-04-24T12:11:16Z</time></trkpt><trkpt lat="14.391271938597963" lon="120.86281869786399"><ele>18.0</ele><time>2026-04-24T12:11:17Z</time></trkpt><trkpt lat="14.39132017043096" lon="120.86277504870016"><ele>18.0</ele><time>2026-04-24T12:11:18Z</time></trkpt><trkpt lat="14.391401963826803" lon="120.8626970739005"><ele>18.0</ele><time>2026-04-24T12:11:20Z</time></trkpt><trkpt lat="14.391478829582447" lon="120.86262363565268"><ele>18.0</ele><time>2026-04-24T12:11:22Z</time></trkpt><trkpt lat="14.391563681249163" lon="120.86253697428066"><ele>17.6</ele><time>2026-04-24T12:11:24Z</time></trkpt><trkpt lat="14.391608263354659" lon="120.86249023400497"><ele>17.200000000000003</ele><time>2026-04-24T12:11:25Z</time></trkpt><trkpt lat="14.391687793451535" lon="120.86240764108379"><ele>16.8</ele><time>2026-04-24T12:11:27Z</time></trkpt><trkpt lat="14.391758532452938" lon="120.86232747930987"><ele>16.400000000000002</ele><time>2026-04-24T12:11:29Z</time></trkpt><trkpt lat="14.391828353386838" lon="120.86225031954537"><ele>16.0</ele><time>2026-04-24T12:11:31Z</time></trkpt><trkpt lat="14.391895710001025" lon="120.86216907900823"><ele>15.999999999999998</ele><time>2026-04-24T12:11:33Z</time></trkpt><trkpt lat="14.391952897228208" lon="120.86210712873356"><ele>16.0</ele><time>2026-04-24T12:11:35Z</time></trkpt><trkpt lat="14.392013029695548" lon="120.8620420755504"><ele>16.0</ele><time>2026-04-24T12:11:38Z</time></trkpt><trkpt lat="14.392064179728496" lon="120.86198676664961"><ele>16.0</ele><time>2026-04-24T12:11:41Z</time></trkpt><trkpt lat="14.392112600423069" lon="120.86194213210035"><ele>15.999999999999998</ele><time>2026-04-24T12:11:44Z</time></trkpt><trkpt lat="14.392025497231556" lon="120.86197893099174"><ele>16.0</ele><time>2026-04-24T12:12:02Z</time></trkpt><trkpt lat="14.391956063839153" lon="120.86208835244194"><ele>15.999999999999998</ele><time>2026-04-24T12:12:04Z</time></trkpt><trkpt lat="14.391907586919181" lon="120.86213741104821"><ele>16.0</ele><time>2026-04-24T12:12:05Z</time></trkpt><trkpt lat="14.391820947924044" lon="120.86223753863058"><ele>16.0</ele><time>2026-04-24T12:12:07Z</time></trkpt><trkpt lat="14.391771303338654" lon="120.8622941688545"><ele>16.0</ele><time>2026-04-24T12:12:08Z</time></trkpt><trkpt lat="14.391720061270622" lon="120.86234999774126"><ele>15.999999999999998</ele><time>2026-04-24T12:12:09Z</time></trkpt><trkpt lat="14.391667939310409" lon="120.8624054376347"><ele>16.0</ele><time>2026-04-24T12:12:10Z</time></trkpt><trkpt lat="14.39162002175331" lon="120.86245790825502"><ele>15.999999999999998</ele><time>2026-04-24T12:12:11Z</time></trkpt><trkpt lat="14.391570132257897" lon="120.86251007076987"><ele>16.0</ele><time>2026-04-24T12:12:12Z</time></trkpt><trkpt lat="14.391521798507029" lon="120.86255824894859"><ele>16.0</ele><time>2026-04-24T12:12:13Z</time></trkpt><trkpt lat="14.391474642164168" lon="120.86260727035847"><ele>16.0</ele><time>2026-04-24T12:12:14Z</time></trkpt><trkpt lat="14.391427640879487" lon="120.86265226143563"><ele>15.999999999999998</ele><time>2026-04-24T12:12:15Z</time></trkpt><trkpt lat="14.391347117875283" lon="120.862735051167"><ele>16.0</ele><time>2026-04-24T12:12:17Z</time></trkpt><trkpt lat="14.391286500845146" lon="120.86280146304395"><ele>16.333333333333332</ele><time>2026-04-24T12:12:19Z</time></trkpt><trkpt lat="14.39122568894539" lon="120.86286181946824"><ele>16.666666666666664</ele><time>2026-04-24T12:12:21Z</time></trkpt><trkpt lat="14.391161301691351" lon="120.8629281878227"><ele>17.0</ele><time>2026-04-24T12:12:23Z</time></trkpt><trkpt lat="14.391069818632692" lon="120.8630112523355"><ele>17.333333333333332</ele><time>2026-04-24T12:12:25Z</time></trkpt><trkpt lat="14.39101723865981" lon="120.86305960258196"><ele>17.666666666666668</ele><time>2026-04-24T12:12:26Z</time></trkpt><trkpt lat="14.390962892841603" lon="120.86311512099162"><ele>18.0</ele><time>2026-04-24T12:12:27Z</time></trkpt><trkpt lat="14.390902638153886" lon="120.86317414032128"><ele>18.0</ele><time>2026-04-24T12:12:28Z</time></trkpt><trkpt lat="14.390838414775736" lon="120.86323328624088"><ele>18.0</ele><time>2026-04-24T12:12:29Z</time></trkpt><trkpt lat="14.39077203319462" lon="120.8632966076612"><ele>18.0</ele><time>2026-04-24T12:12:30Z</time></trkpt><trkpt lat="14.390712512369547" lon="120.86335341727332"><ele>18.0</ele><time>2026-04-24T12:12:31Z</time></trkpt><trkpt lat="14.390653502643023" lon="120.86340824157662"><ele>18.0</ele><time>2026-04-24T12:12:32Z</time></trkpt><trkpt lat="14.390600083938784" lon="120.86345422923492"><ele>18.0</ele><time>2026-04-24T12:12:33Z</time></trkpt><trkpt lat="14.390525031298045" lon="120.86351421196875"><ele>17.833333333333332</ele><time>2026-04-24T12:12:35Z</time></trkpt><trkpt lat="14.390469536487979" lon="120.8635597935137"><ele>17.666666666666668</ele><time>2026-04-24T12:12:39Z</time></trkpt><trkpt lat="14.390408014089923" lon="120.86360979343311"><ele>17.5</ele><time>2026-04-24T12:12:53Z</time></trkpt><trkpt lat="14.390343429769754" lon="120.86365227670461"><ele>17.333333333333336</ele><time>2026-04-24T12:12:56Z</time></trkpt><trkpt lat="14.390282548222666" lon="120.86370739823325"><ele>17.166666666666668</ele><time>2026-04-24T12:12:59Z</time></trkpt><trkpt lat="14.39022283828322" lon="120.86375465586879"><ele>17.0</ele><time>2026-04-24T12:13:02Z</time></trkpt><trkpt lat="14.390156222775786" lon="120.86380344077932"><ele>17.0</ele><time>2026-04-24T12:13:04Z</time></trkpt><trkpt lat="14.390066603190938" lon="120.86387003270549"><ele>17.0</ele><time>2026-04-24T12:13:06Z</time></trkpt><trkpt lat="14.389970480179263" lon="120.86394471000256"><ele>17.0</ele><time>2026-04-24T12:13:08Z</time></trkpt><trkpt lat="14.389878172808737" lon="120.86401128335429"><ele>17.0</ele><time>2026-04-24T12:13:10Z</time></trkpt><trkpt lat="14.389810265811784" lon="120.86405894637194"><ele>17.0</ele><time>2026-04-24T12:13:12Z</time></trkpt><trkpt lat="14.389758286529402" lon="120.86409717866196"><ele>17.0</ele><time>2026-04-24T12:13:14Z</time></trkpt><trkpt lat="14.389717363775944" lon="120.86414942160785"><ele>17.0</ele><time>2026-04-24T12:13:19Z</time></trkpt><trkpt lat="14.389797660334843" lon="120.86406452441528"><ele>17.0</ele><time>2026-04-24T12:13:50Z</time></trkpt><trkpt lat="14.389854200287473" lon="120.8640190095305"><ele>17.0</ele><time>2026-04-24T12:13:51Z</time></trkpt><trkpt lat="14.389911846108923" lon="120.8639787724735"><ele>17.0</ele><time>2026-04-24T12:13:52Z</time></trkpt><trkpt lat="14.38996623827206" lon="120.86393928731209"><ele>17.0</ele><time>2026-04-24T12:13:53Z</time></trkpt><trkpt lat="14.390017293769713" lon="120.86389911599345"><ele>17.0</ele><time>2026-04-24T12:13:54Z</time></trkpt><trkpt lat="14.390110513502723" lon="120.86383412530246"><ele>17.0</ele><time>2026-04-24T12:13:56Z</time></trkpt><trkpt lat="14.390167809777486" lon="120.86379407698612"><ele>17.0</ele><time>2026-04-24T12:13:58Z</time></trkpt><trkpt lat="14.39022958918527" lon="120.86374682915185"><ele>17.0</ele><time>2026-04-24T12:14:02Z</time></trkpt><trkpt lat="14.39028799554303" lon="120.86370183584923"><ele>17.0</ele><time>2026-04-24T12:14:05Z</time></trkpt><trkpt lat="14.390365420689282" lon="120.86369058629704"><ele>17.0</ele><time>2026-04-24T12:14:08.001Z</time></trkpt><trkpt lat="14.390431205384278" lon="120.86376577592236"><ele>17.0</ele><time>2026-04-24T12:14:10.001Z</time></trkpt><trkpt lat="14.390468086051222" lon="120.86383134633016"><ele>17.0</ele><time>2026-04-24T12:14:11.001Z</time></trkpt><trkpt lat="14.390526235403172" lon="120.86390441483023"><ele>17.0</ele><time>2026-04-24T12:14:12.001Z</time></trkpt><trkpt lat="14.390578073385537" lon="120.8639892008857"><ele>17.0</ele><time>2026-04-24T12:14:13.001Z</time></trkpt><trkpt lat="14.390629177980703" lon="120.86407750573018"><ele>17.0</ele><time>2026-04-24T12:14:14.001Z</time></trkpt><trkpt lat="14.39068455630373" lon="120.86417108613234"><ele>17.4</ele><time>2026-04-24T12:14:15.001Z</time></trkpt><trkpt lat="14.39074248841731" lon="120.86426509195681"><ele>17.799999999999997</ele><time>2026-04-24T12:14:16.001Z</time></trkpt><trkpt lat="14.390801768909034" lon="120.86435950469705"><ele>18.2</ele><time>2026-04-24T12:14:17.001Z</time></trkpt><trkpt lat="14.39086730758794" lon="120.8644583023289"><ele>18.599999999999998</ele><time>2026-04-24T12:14:18.001Z</time></trkpt><trkpt lat="14.390918575169708" lon="120.86455078772703"><ele>19.0</ele><time>2026-04-24T12:14:19.001Z</time></trkpt><trkpt lat="14.39096475818503" lon="120.86463872985559"><ele>19.333333333333332</ele><time>2026-04-24T12:14:20.001Z</time></trkpt><trkpt lat="14.391008427978141" lon="120.86471942142919"><ele>19.666666666666664</ele><time>2026-04-24T12:14:21Z</time></trkpt><trkpt lat="14.391048102251505" lon="120.86479189106008"><ele>20.0</ele><time>2026-04-24T12:14:22Z</time></trkpt><trkpt lat="14.391081838761707" lon="120.86484772733802"><ele>20.333333333333332</ele><time>2026-04-24T12:14:23Z</time></trkpt><trkpt lat="14.39113452170276" lon="120.86493687677353"><ele>20.666666666666668</ele><time>2026-04-24T12:14:25Z</time></trkpt><trkpt lat="14.391166347381946" lon="120.86500018725248"><ele>21.0</ele><time>2026-04-24T12:14:28Z</time></trkpt><trkpt lat="14.39120890962173" lon="120.8650690154279"><ele>20.666666666666668</ele><time>2026-04-24T12:14:45Z</time></trkpt><trkpt lat="14.391233402841198" lon="120.86512975301713"><ele>20.333333333333332</ele><time>2026-04-24T12:14:48Z</time></trkpt><trkpt lat="14.391243667340287" lon="120.86520978742672"><ele>20.0</ele><time>2026-04-24T12:14:52Z</time></trkpt><trkpt lat="14.391278198306527" lon="120.86532591740792"><ele>19.666666666666664</ele><time>2026-04-24T12:14:54Z</time></trkpt><trkpt lat="14.39131494230753" lon="120.86538804124432"><ele>19.333333333333332</ele><time>2026-04-24T12:14:55Z</time></trkpt><trkpt lat="14.391352475065304" lon="120.86544447969132"><ele>19.0</ele><time>2026-04-24T12:14:56Z</time></trkpt><trkpt lat="14.391392948551141" lon="120.86551279681524"><ele>18.666666666666664</ele><time>2026-04-24T12:14:57Z</time></trkpt><trkpt lat="14.391431787191248" lon="120.8655691950686"><ele>18.333333333333332</ele><time>2026-04-24T12:14:58Z</time></trkpt><trkpt lat="14.391477287815839" lon="120.86564214057978"><ele>18.0</ele><time>2026-04-24T12:14:59Z</time></trkpt><trkpt lat="14.391523937931222" lon="120.86571477357823"><ele>17.666666666666668</ele><time>2026-04-24T12:15:00Z</time></trkpt><trkpt lat="14.391571061928868" lon="120.86579357112377"><ele>17.333333333333336</ele><time>2026-04-24T12:15:01Z</time></trkpt><trkpt lat="14.391614547834877" lon="120.86587767354463"><ele>17.0</ele><time>2026-04-24T12:15:02Z</time></trkpt><trkpt lat="14.39167039759942" lon="120.86596816205481"><ele>17.0</ele><time>2026-04-24T12:15:03Z</time></trkpt><trkpt lat="14.391726450487596" lon="120.86606403494872"><ele>17.0</ele><time>2026-04-24T12:15:04Z</time></trkpt><trkpt lat="14.39177885281427" lon="120.86616930096123"><ele>17.0</ele><time>2026-04-24T12:15:05Z</time></trkpt><trkpt lat="14.391827386311457" lon="120.8662714279773"><ele>17.0</ele><time>2026-04-24T12:15:06Z</time></trkpt><trkpt lat="14.391878660128212" lon="120.86638410089115"><ele>17.0</ele><time>2026-04-24T12:15:07Z</time></trkpt><trkpt lat="14.39192644177471" lon="120.86649413115192"><ele>17.0</ele><time>2026-04-24T12:15:08Z</time></trkpt><trkpt lat="14.391976814776022" lon="120.86660290103107"><ele>17.0</ele><time>2026-04-24T12:15:09Z</time></trkpt><trkpt lat="14.392032358796863" lon="120.86672085297965"><ele>17.0</ele><time>2026-04-24T12:15:10Z</time></trkpt><trkpt lat="14.392081056661594" lon="120.86682720492223"><ele>17.0</ele><time>2026-04-24T12:15:11Z</time></trkpt><trkpt lat="14.392132417403955" lon="120.86693351664508"><ele>17.0</ele><time>2026-04-24T12:15:12Z</time></trkpt><trkpt lat="14.392179405842459" lon="120.86703994757572"><ele>17.0</ele><time>2026-04-24T12:15:13Z</time></trkpt><trkpt lat="14.392223009555732" lon="120.86714665714155"><ele>17.0</ele><time>2026-04-24T12:15:14Z</time></trkpt><trkpt lat="14.392268274865406" lon="120.86725063177977"><ele>17.0</ele><time>2026-04-24T12:15:15Z</time></trkpt><trkpt lat="14.392317524279848" lon="120.86735820721736"><ele>17.0</ele><time>2026-04-24T12:15:16Z</time></trkpt><trkpt lat="14.392368109422494" lon="120.86746600673415"><ele>17.0</ele><time>2026-04-24T12:15:17Z</time></trkpt><trkpt lat="14.39241401094741" lon="120.86757040172876"><ele>17.0</ele><time>2026-04-24T12:15:18Z</time></trkpt><trkpt lat="14.392466421221732" lon="120.867678016626"><ele>16.8</ele><time>2026-04-24T12:15:19Z</time></trkpt><trkpt lat="14.392512694363713" lon="120.86777849848546"><ele>16.6</ele><time>2026-04-24T12:15:20Z</time></trkpt><trkpt lat="14.392555738408932" lon="120.86787386174309"><ele>16.400000000000002</ele><time>2026-04-24T12:15:21Z</time></trkpt><trkpt lat="14.39260444684779" lon="120.8679736811258"><ele>16.2</ele><time>2026-04-24T12:15:22Z</time></trkpt><trkpt lat="14.392646953983968" lon="120.86806460615054"><ele>16.0</ele><time>2026-04-24T12:15:23Z</time></trkpt><trkpt lat="14.392690514212134" lon="120.86816138864889"><ele>16.0</ele><time>2026-04-24T12:15:24Z</time></trkpt><trkpt lat="14.392734745158958" lon="120.86825437794948"><ele>16.0</ele><time>2026-04-24T12:15:25Z</time></trkpt><trkpt lat="14.39277691773216" lon="120.86834377082485"><ele>16.0</ele><time>2026-04-24T12:15:26Z</time></trkpt><trkpt lat="14.392816212999092" lon="120.86843641268655"><ele>16.0</ele><time>2026-04-24T12:15:27Z</time></trkpt><trkpt lat="14.392853682124684" lon="120.86852037090661"><ele>16.0</ele><time>2026-04-24T12:15:28Z</time></trkpt><trkpt lat="14.392886897538801" lon="120.86859240410965"><ele>15.999999999999998</ele><time>2026-04-24T12:15:29Z</time></trkpt><trkpt lat="14.392927277242089" lon="120.86869648690482"><ele>16.0</ele><time>2026-04-24T12:15:31Z</time></trkpt><trkpt lat="14.392938787767127" lon="120.86876064546861"><ele>16.0</ele><time>2026-04-24T12:15:33Z</time></trkpt><trkpt lat="14.392891627002118" lon="120.86884439685778"><ele>16.0</ele><time>2026-04-24T12:15:35Z</time></trkpt><trkpt lat="14.392842969026875" lon="120.8688911218409"><ele>15.999999999999998</ele><time>2026-04-24T12:15:36Z</time></trkpt><trkpt lat="14.392777001007303" lon="120.86893847003958"><ele>16.0</ele><time>2026-04-24T12:15:37Z</time></trkpt><trkpt lat="14.392701210027704" lon="120.86898310516803"><ele>16.0</ele><time>2026-04-24T12:15:38Z</time></trkpt><trkpt lat="14.392622088853702" lon="120.86902672709674"><ele>16.0</ele><time>2026-04-24T12:15:39Z</time></trkpt><trkpt lat="14.392534499498892" lon="120.86907853249"><ele>16.0</ele><time>2026-04-24T12:15:40Z</time></trkpt><trkpt lat="14.392445825580081" lon="120.86912723415323"><ele>16.0</ele><time>2026-04-24T12:15:41Z</time></trkpt><trkpt lat="14.39235161374402" lon="120.86917880662088"><ele>16.0</ele><time>2026-04-24T12:15:42Z</time></trkpt><trkpt lat="14.39225769243268" lon="120.86923441961504"><ele>16.25</ele><time>2026-04-24T12:15:43Z</time></trkpt><trkpt lat="14.392161072422219" lon="120.86929113967366"><ele>16.5</ele><time>2026-04-24T12:15:44Z</time></trkpt><trkpt lat="14.39205897853371" lon="120.86934998039456"><ele>16.75</ele><time>2026-04-24T12:15:45Z</time></trkpt><trkpt lat="14.3919587284392" lon="120.86941536167353"><ele>17.0</ele><time>2026-04-24T12:15:46Z</time></trkpt><trkpt lat="14.391854979464458" lon="120.86947943863001"><ele>17.0</ele><time>2026-04-24T12:15:47Z</time></trkpt><trkpt lat="14.391759830948807" lon="120.86954440301454"><ele>17.0</ele><time>2026-04-24T12:15:48Z</time></trkpt><trkpt lat="14.391662395102884" lon="120.86960977041636"><ele>17.0</ele><time>2026-04-24T12:15:49Z</time></trkpt><trkpt lat="14.39156244309037" lon="120.86967341863436"><ele>17.0</ele><time>2026-04-24T12:15:50Z</time></trkpt><trkpt lat="14.391474265862703" lon="120.86974277541505"><ele>17.0</ele><time>2026-04-24T12:15:51Z</time></trkpt><trkpt lat="14.391379208429083" lon="120.86981519532355"><ele>17.0</ele><time>2026-04-24T12:15:52Z</time></trkpt><trkpt lat="14.391291702254751" lon="120.86989363670102"><ele>17.0</ele><time>2026-04-24T12:15:53Z</time></trkpt><trkpt lat="14.391201097911486" lon="120.86997625512979"><ele>17.0</ele><time>2026-04-24T12:15:54Z</time></trkpt><trkpt lat="14.391111348503562" lon="120.8700614567444"><ele>17.2</ele><time>2026-04-24T12:15:55Z</time></trkpt><trkpt lat="14.391032145015986" lon="120.87014560941486"><ele>17.4</ele><time>2026-04-24T12:15:56Z</time></trkpt><trkpt lat="14.3909613883402" lon="120.87021926683562"><ele>17.6</ele><time>2026-04-24T12:15:57Z</time></trkpt><trkpt lat="14.390891779294776" lon="120.8702887263917"><ele>17.8</ele><time>2026-04-24T12:15:58Z</time></trkpt><trkpt lat="14.390831427675314" lon="120.87035494108326"><ele>18.0</ele><time>2026-04-24T12:15:59Z</time></trkpt><trkpt lat="14.390774769539412" lon="120.8704159280243"><ele>18.0</ele><time>2026-04-24T12:16:00Z</time></trkpt><trkpt lat="14.390725277383682" lon="120.87047336499073"><ele>18.0</ele><time>2026-04-24T12:16:01Z</time></trkpt><trkpt lat="14.390674716696742" lon="120.87053339301008"><ele>18.0</ele><time>2026-04-24T12:16:02Z</time></trkpt><trkpt lat="14.39061396930686" lon="120.87059731827999"><ele>18.0</ele><time>2026-04-24T12:16:03Z</time></trkpt><trkpt lat="14.390557625723563" lon="120.8706572117949"><ele>18.0</ele><time>2026-04-24T12:16:04Z</time></trkpt><trkpt lat="14.390502514845377" lon="120.87071043710456"><ele>18.0</ele><time>2026-04-24T12:16:05Z</time></trkpt><trkpt lat="14.390457783953275" lon="120.8707578396311"><ele>18.0</ele><time>2026-04-24T12:16:06Z</time></trkpt><trkpt lat="14.390366729577739" lon="120.87084995099777"><ele>18.0</ele><time>2026-04-24T12:16:08Z</time></trkpt><trkpt lat="14.390310824568527" lon="120.87089590817885"><ele>18.0</ele><time>2026-04-24T12:16:09Z</time></trkpt><trkpt lat="14.390238803643644" lon="120.8709487260223"><ele>18.0</ele><time>2026-04-24T12:16:10Z</time></trkpt><trkpt lat="14.390151570716176" lon="120.87101050898151"><ele>18.0</ele><time>2026-04-24T12:16:11Z</time></trkpt><trkpt lat="14.390063624626281" lon="120.87107901031291"><ele>18.0</ele><time>2026-04-24T12:16:12.001Z</time></trkpt><trkpt lat="14.389981618658183" lon="120.8711439287825"><ele>18.0</ele><time>2026-04-24T12:16:13.001Z</time></trkpt><trkpt lat="14.389891182631295" lon="120.87121776665941"><ele>18.0</ele><time>2026-04-24T12:16:14.001Z</time></trkpt><trkpt lat="14.389810680051792" lon="120.87128286989199"><ele>18.0</ele><time>2026-04-24T12:16:15.001Z</time></trkpt><trkpt lat="14.389727990887728" lon="120.87135103334525"><ele>18.0</ele><time>2026-04-24T12:16:16.001Z</time></trkpt><trkpt lat="14.389632922068152" lon="120.8714133906447"><ele>18.5</ele><time>2026-04-24T12:16:17.001Z</time></trkpt><trkpt lat="14.389535975139554" lon="120.87148003865775"><ele>19.0</ele><time>2026-04-24T12:16:18.001Z</time></trkpt><trkpt lat="14.38943587248604" lon="120.8715470012126"><ele>19.5</ele><time>2026-04-24T12:16:19.001Z</time></trkpt><trkpt lat="14.389333767558886" lon="120.87162524470051"><ele>20.0</ele><time>2026-04-24T12:16:20.001Z</time></trkpt><trkpt lat="14.389235356331302" lon="120.87170738157228"><ele>20.5</ele><time>2026-04-24T12:16:21.001Z</time></trkpt><trkpt lat="14.389138499294202" lon="120.87179887002291"><ele>21.0</ele><time>2026-04-24T12:16:22.001Z</time></trkpt><trkpt lat="14.389045502450417" lon="120.87189127510605"><ele>21.5</ele><time>2026-04-24T12:16:23.001Z</time></trkpt><trkpt lat="14.388944660593097" lon="120.87198354054381"><ele>22.0</ele><time>2026-04-24T12:16:24.001Z</time></trkpt><trkpt lat="14.388848832673819" lon="120.87207138702463"><ele>21.25</ele><time>2026-04-24T12:16:25.001Z</time></trkpt><trkpt lat="14.388751225833586" lon="120.87216480487074"><ele>20.5</ele><time>2026-04-24T12:16:26.001Z</time></trkpt><trkpt lat="14.388651604241103" lon="120.87225444236286"><ele>19.75</ele><time>2026-04-24T12:16:27Z</time></trkpt><trkpt lat="14.38855607612402" lon="120.87234451859267"><ele>19.0</ele><time>2026-04-24T12:16:28Z</time></trkpt><trkpt lat="14.388461572439063" lon="120.87242878664114"><ele>19.0</ele><time>2026-04-24T12:16:29Z</time></trkpt><trkpt lat="14.388362465152083" lon="120.87252032425559"><ele>19.0</ele><time>2026-04-24T12:16:30Z</time></trkpt><trkpt lat="14.388267131128261" lon="120.87260445345176"><ele>19.0</ele><time>2026-04-24T12:16:31Z</time></trkpt><trkpt lat="14.38816657707624" lon="120.87269132840218"><ele>19.0</ele><time>2026-04-24T12:16:32Z</time></trkpt><trkpt lat="14.388066362905377" lon="120.8727689354428"><ele>19.166666666666664</ele><time>2026-04-24T12:16:33Z</time></trkpt><trkpt lat="14.387984394978323" lon="120.87283262171594"><ele>19.333333333333332</ele><time>2026-04-24T12:16:34Z</time></trkpt><trkpt lat="14.38791696542365" lon="120.8728871582357"><ele>19.5</ele><time>2026-04-24T12:16:35Z</time></trkpt><trkpt lat="14.387857033548416" lon="120.87294085397915"><ele>19.666666666666668</ele><time>2026-04-24T12:16:36Z</time></trkpt><trkpt lat="14.387797560828199" lon="120.8729979188251"><ele>19.833333333333336</ele><time>2026-04-24T12:16:37Z</time></trkpt><trkpt lat="14.387755251113715" lon="120.8730611253659"><ele>20.0</ele><time>2026-04-24T12:16:38Z</time></trkpt><trkpt lat="14.38770669763667" lon="120.87313560658579"><ele>20.0</ele><time>2026-04-24T12:16:39Z</time></trkpt><trkpt lat="14.387646078480705" lon="120.8731928395589"><ele>20.0</ele><time>2026-04-24T12:16:40Z</time></trkpt><trkpt lat="14.38756895952874" lon="120.87326411321199"><ele>20.0</ele><time>2026-04-24T12:16:41Z</time></trkpt><trkpt lat="14.387491946611409" lon="120.87332511373504"><ele>20.0</ele><time>2026-04-24T12:16:42Z</time></trkpt><trkpt lat="14.387407123208218" lon="120.87338865367765"><ele>20.0</ele><time>2026-04-24T12:16:43Z</time></trkpt><trkpt lat="14.387319778215167" lon="120.87345898023868"><ele>20.0</ele><time>2026-04-24T12:16:44Z</time></trkpt><trkpt lat="14.387242648312593" lon="120.8735213854291"><ele>20.0</ele><time>2026-04-24T12:16:45Z</time></trkpt><trkpt lat="14.387158872187468" lon="120.87358590645408"><ele>20.0</ele><time>2026-04-24T12:16:46Z</time></trkpt><trkpt lat="14.387078515975581" lon="120.87364863420991"><ele>20.0</ele><time>2026-04-24T12:16:47Z</time></trkpt><trkpt lat="14.387001008315309" lon="120.87372089342263"><ele>20.0</ele><time>2026-04-24T12:16:48Z</time></trkpt><trkpt lat="14.38692072705316" lon="120.87379077698726"><ele>20.333333333333336</ele><time>2026-04-24T12:16:49Z</time></trkpt><trkpt lat="14.386837002437868" lon="120.87385829280767"><ele>20.666666666666668</ele><time>2026-04-24T12:16:50Z</time></trkpt><trkpt lat="14.386758249795925" lon="120.87391506788326"><ele>21.0</ele><time>2026-04-24T12:16:51Z</time></trkpt><trkpt lat="14.386679685368167" lon="120.87397397887374"><ele>21.333333333333332</ele><time>2026-04-24T12:16:52Z</time></trkpt><trkpt lat="14.386616351224212" lon="120.87401622021396"><ele>21.666666666666664</ele><time>2026-04-24T12:16:53Z</time></trkpt><trkpt lat="14.386560902893407" lon="120.87406560168793"><ele>22.0</ele><time>2026-04-24T12:16:54Z</time></trkpt><trkpt lat="14.386463554719008" lon="120.8741359819616"><ele>22.0</ele><time>2026-04-24T12:16:56Z</time></trkpt><trkpt lat="14.386373947206977" lon="120.87420345555995"><ele>22.0</ele><time>2026-04-24T12:16:58Z</time></trkpt><trkpt lat="14.38630767964987" lon="120.87425385709004"><ele>22.0</ele><time>2026-04-24T12:17:00Z</time></trkpt><trkpt lat="14.386253216150665" lon="120.8742882764543"><ele>22.0</ele><time>2026-04-24T12:17:02Z</time></trkpt><trkpt lat="14.386196010569748" lon="120.87433950304067"><ele>22.0</ele><time>2026-04-24T12:17:04Z</time></trkpt><trkpt lat="14.386141469984237" lon="120.87438176195855"><ele>22.0</ele><time>2026-04-24T12:17:07Z</time></trkpt><trkpt lat="14.386147253123031" lon="120.8744651844982"><ele>22.0</ele><time>2026-04-24T12:17:10Z</time></trkpt><trkpt lat="14.386187558841186" lon="120.8745616743776"><ele>22.0</ele><time>2026-04-24T12:17:12Z</time></trkpt><trkpt lat="14.386227749740382" lon="120.87466195536186"><ele>22.0</ele><time>2026-04-24T12:17:14Z</time></trkpt><trkpt lat="14.386254965311048" lon="120.87475426959163"><ele>22.0</ele><time>2026-04-24T12:17:16Z</time></trkpt><trkpt lat="14.38628211674215" lon="120.87485567215784"><ele>22.0</ele><time>2026-04-24T12:17:18Z</time></trkpt><trkpt lat="14.386306387570146" lon="120.87493639521752"><ele>22.0</ele><time>2026-04-24T12:17:20Z</time></trkpt><trkpt lat="14.386342183820975" lon="120.87502693581355"><ele>22.0</ele><time>2026-04-24T12:17:22Z</time></trkpt><trkpt lat="14.386387093807745" lon="120.87509750309889"><ele>22.0</ele><time>2026-04-24T12:17:24Z</time></trkpt><trkpt lat="14.386435160918124" lon="120.8751774225987"><ele>22.0</ele><time>2026-04-24T12:17:26Z</time></trkpt><trkpt lat="14.386471448173396" lon="120.87526285003533"><ele>22.0</ele><time>2026-04-24T12:17:28Z</time></trkpt><trkpt lat="14.38650172126475" lon="120.87536260694512"><ele>21.6</ele><time>2026-04-24T12:17:30Z</time></trkpt><trkpt lat="14.386532461684496" lon="120.87546324620861"><ele>21.200000000000003</ele><time>2026-04-24T12:17:32Z</time></trkpt><trkpt lat="14.386559701903321" lon="120.87557846217689"><ele>20.8</ele><time>2026-04-24T12:17:34Z</time></trkpt><trkpt lat="14.386581443758267" lon="120.87568524445089"><ele>20.4</ele><time>2026-04-24T12:17:36Z</time></trkpt><trkpt lat="14.38660634789593" lon="120.87580124167928"><ele>20.0</ele><time>2026-04-24T12:17:38Z</time></trkpt><trkpt lat="14.386623514733255" lon="120.87591820328525"><ele>19.4</ele><time>2026-04-24T12:17:40Z</time></trkpt><trkpt lat="14.386640744841241" lon="120.87601309326001"><ele>18.8</ele><time>2026-04-24T12:17:42Z</time></trkpt><trkpt lat="14.386656522900187" lon="120.87611858817733"><ele>18.2</ele><time>2026-04-24T12:17:44Z</time></trkpt><trkpt lat="14.38667182845346" lon="120.87622261553406"><ele>17.6</ele><time>2026-04-24T12:17:46Z</time></trkpt><trkpt lat="14.386684985005912" lon="120.87632371483893"><ele>17.0</ele><time>2026-04-24T12:17:48Z</time></trkpt><trkpt lat="14.386691215737896" lon="120.87641169436546"><ele>17.0</ele><time>2026-04-24T12:17:50Z</time></trkpt><trkpt lat="14.386689113176274" lon="120.87650018778251"><ele>17.0</ele><time>2026-04-24T12:17:52Z</time></trkpt><trkpt lat="14.38666760905235" lon="120.87658284116839"><ele>17.0</ele><time>2026-04-24T12:17:54Z</time></trkpt><trkpt lat="14.386615054616092" lon="120.87663911472742"><ele>17.0</ele><time>2026-04-24T12:17:56Z</time></trkpt><trkpt lat="14.386576120526458" lon="120.87670750764738"><ele>17.0</ele><time>2026-04-24T12:17:58Z</time></trkpt><trkpt lat="14.386589592903956" lon="120.8768311899714"><ele>17.0</ele><time>2026-04-24T12:18:00Z</time></trkpt><trkpt lat="14.386606346442724" lon="120.8768945371418"><ele>17.428571428571427</ele><time>2026-04-24T12:18:01Z</time></trkpt><trkpt lat="14.386625078329297" lon="120.87696294357532"><ele>17.857142857142858</ele><time>2026-04-24T12:18:02Z</time></trkpt><trkpt lat="14.38664590442872" lon="120.87702924694383"><ele>18.285714285714285</ele><time>2026-04-24T12:18:03Z</time></trkpt><trkpt lat="14.386658910516656" lon="120.87709740753667"><ele>18.714285714285715</ele><time>2026-04-24T12:18:04Z</time></trkpt><trkpt lat="14.386675771971262" lon="120.87717064034766"><ele>19.142857142857142</ele><time>2026-04-24T12:18:05Z</time></trkpt><trkpt lat="14.386699568211212" lon="120.8772476260429"><ele>19.57142857142857</ele><time>2026-04-24T12:18:06Z</time></trkpt><trkpt lat="14.386717821899571" lon="120.87732657906766"><ele>20.0</ele><time>2026-04-24T12:18:07Z</time></trkpt><trkpt lat="14.386735408133253" lon="120.87740653420246"><ele>20.0</ele><time>2026-04-24T12:18:08Z</time></trkpt><trkpt lat="14.386753705780707" lon="120.87748646574317"><ele>20.0</ele><time>2026-04-24T12:18:09Z</time></trkpt><trkpt lat="14.386772768975309" lon="120.87756723331502"><ele>20.0</ele><time>2026-04-24T12:18:10Z</time></trkpt><trkpt lat="14.386792196338558" lon="120.87764901859116"><ele>20.0</ele><time>2026-04-24T12:18:11Z</time></trkpt><trkpt lat="14.386808532876408" lon="120.87773149742776"><ele>20.0</ele><time>2026-04-24T12:18:12Z</time></trkpt><trkpt lat="14.386819068052757" lon="120.87782115414184"><ele>20.0</ele><time>2026-04-24T12:18:13Z</time></trkpt><trkpt lat="14.386821635837777" lon="120.87790913789611"><ele>20.142857142857142</ele><time>2026-04-24T12:18:14Z</time></trkpt><trkpt lat="14.386815172305269" lon="120.87799087033596"><ele>20.285714285714285</ele><time>2026-04-24T12:18:15Z</time></trkpt><trkpt lat="14.386809991009452" lon="120.87806431737363"><ele>20.42857142857143</ele><time>2026-04-24T12:18:16Z</time></trkpt><trkpt lat="14.386806527135082" lon="120.87813894908844"><ele>20.57142857142857</ele><time>2026-04-24T12:18:17Z</time></trkpt><trkpt lat="14.38680382615919" lon="120.87821530409968"><ele>20.714285714285715</ele><time>2026-04-24T12:18:18.001Z</time></trkpt><trkpt lat="14.386796653766547" lon="120.87828660496263"><ele>20.857142857142858</ele><time>2026-04-24T12:18:19.001Z</time></trkpt><trkpt lat="14.386790599991674" lon="120.8783521007151"><ele>21.0</ele><time>2026-04-24T12:18:20.001Z</time></trkpt><trkpt lat="14.386779941126873" lon="120.87847404135648"><ele>21.0</ele><time>2026-04-24T12:18:22.001Z</time></trkpt><trkpt lat="14.38676709759631" lon="120.87859536709739"><ele>21.0</ele><time>2026-04-24T12:18:24.001Z</time></trkpt><trkpt lat="14.386757555992109" lon="120.87872457830815"><ele>21.0</ele><time>2026-04-24T12:18:26.001Z</time></trkpt><trkpt lat="14.386754358179727" lon="120.87879236625061"><ele>21.0</ele><time>2026-04-24T12:18:27.001Z</time></trkpt><trkpt lat="14.386748988760601" lon="120.87887072942347"><ele>21.0</ele><time>2026-04-24T12:18:28.001Z</time></trkpt><trkpt lat="14.386744778840074" lon="120.87894872668963"><ele>21.0</ele><time>2026-04-24T12:18:29.001Z</time></trkpt><trkpt lat="14.386741220988572" lon="120.87902611427347"><ele>21.0</ele><time>2026-04-24T12:18:30Z</time></trkpt><trkpt lat="14.386741780692288" lon="120.87911055196108"><ele>21.0</ele><time>2026-04-24T12:18:31Z</time></trkpt><trkpt lat="14.386742141677185" lon="120.87919675076779"><ele>21.0</ele><time>2026-04-24T12:18:32Z</time></trkpt><trkpt lat="14.386728654878272" lon="120.87927346287898"><ele>21.0</ele><time>2026-04-24T12:18:33Z</time></trkpt><trkpt lat="14.386715284330345" lon="120.87934198686874"><ele>21.0</ele><time>2026-04-24T12:18:34Z</time></trkpt><trkpt lat="14.386700087312022" lon="120.8794124708432"><ele>21.333333333333332</ele><time>2026-04-24T12:18:35Z</time></trkpt><trkpt lat="14.386677541965899" lon="120.87947898141176"><ele>21.666666666666668</ele><time>2026-04-24T12:18:36Z</time></trkpt><trkpt lat="14.386651731788843" lon="120.8795438088321"><ele>22.0</ele><time>2026-04-24T12:18:37Z</time></trkpt><trkpt lat="14.386611142200165" lon="120.87963383138869"><ele>22.333333333333336</ele><time>2026-04-24T12:18:39Z</time></trkpt><trkpt lat="14.386599589454073" lon="120.87972316662601"><ele>22.666666666666668</ele><time>2026-04-24T12:18:41Z</time></trkpt><trkpt lat="14.386591633560057" lon="120.87979137118289"><ele>23.0</ele><time>2026-04-24T12:18:43Z</time></trkpt><trkpt lat="14.386577200383178" lon="120.87987093302512"><ele>23.0</ele><time>2026-04-24T12:18:46Z</time></trkpt><trkpt lat="14.386568741323984" lon="120.87994930551247"><ele>23.0</ele><time>2026-04-24T12:18:49Z</time></trkpt><trkpt lat="14.386561179722207" lon="120.88002127486844"><ele>23.0</ele><time>2026-04-24T12:18:52Z</time></trkpt><trkpt lat="14.386485698813756" lon="120.88007993871318"><ele>23.0</ele><time>2026-04-24T12:18:55Z</time></trkpt><trkpt lat="14.386358130389167" lon="120.88004114532349"><ele>23.0</ele><time>2026-04-24T12:18:57Z</time></trkpt><trkpt lat="14.386295387497096" lon="120.88001836188847"><ele>23.0</ele><time>2026-04-24T12:18:58Z</time></trkpt><trkpt lat="14.386233273570992" lon="120.87999731621191"><ele>22.799999999999997</ele><time>2026-04-24T12:18:59Z</time></trkpt><trkpt lat="14.386118095517707" lon="120.87995567694571"><ele>22.6</ele><time>2026-04-24T12:19:01Z</time></trkpt><trkpt lat="14.38599603503545" lon="120.87991257237715"><ele>22.4</ele><time>2026-04-24T12:19:03Z</time></trkpt><trkpt lat="14.38593295756126" lon="120.87988941949926"><ele>22.200000000000003</ele><time>2026-04-24T12:19:04Z</time></trkpt><trkpt lat="14.385825676510082" lon="120.87985006127792"><ele>22.0</ele><time>2026-04-24T12:19:06Z</time></trkpt><trkpt lat="14.385716362124803" lon="120.87981851162662"><ele>22.0</ele><time>2026-04-24T12:19:08Z</time></trkpt><trkpt lat="14.385594485882343" lon="120.87978609914573"><ele>22.0</ele><time>2026-04-24T12:19:10Z</time></trkpt><trkpt lat="14.385483398373637" lon="120.87975849259219"><ele>22.0</ele><time>2026-04-24T12:19:12Z</time></trkpt><trkpt lat="14.385380668526123" lon="120.87972973636636"><ele>22.0</ele><time>2026-04-24T12:19:14Z</time></trkpt><trkpt lat="14.385297280211756" lon="120.87969309579313"><ele>22.0</ele><time>2026-04-24T12:19:16Z</time></trkpt><trkpt lat="14.385232066659645" lon="120.87965294780085"><ele>22.400000000000002</ele><time>2026-04-24T12:19:19Z</time></trkpt><trkpt lat="14.385160049496509" lon="120.87961276396665"><ele>22.8</ele><time>2026-04-24T12:19:33Z</time></trkpt><trkpt lat="14.385072074974447" lon="120.87958699726101"><ele>23.2</ele><time>2026-04-24T12:19:35Z</time></trkpt><trkpt lat="14.384962573048522" lon="120.87955438387657"><ele>23.6</ele><time>2026-04-24T12:19:37Z</time></trkpt><trkpt lat="14.384850609683552" lon="120.87951162938529"><ele>24.0</ele><time>2026-04-24T12:19:39Z</time></trkpt><trkpt lat="14.384752785016966" lon="120.8794805674876"><ele>24.0</ele><time>2026-04-24T12:19:41Z</time></trkpt><trkpt lat="14.38468023908546" lon="120.87945166413773"><ele>24.0</ele><time>2026-04-24T12:19:44Z</time></trkpt><trkpt lat="14.38458418203037" lon="120.87941469155336"><ele>24.0</ele><time>2026-04-24T12:19:46Z</time></trkpt><trkpt lat="14.384520526641454" lon="120.87939073976388"><ele>24.0</ele><time>2026-04-24T12:19:47Z</time></trkpt><trkpt lat="14.384450560853258" lon="120.87936546536584"><ele>24.0</ele><time>2026-04-24T12:19:48Z</time></trkpt><trkpt lat="14.384376215203451" lon="120.87934148337841"><ele>24.0</ele><time>2026-04-24T12:19:49Z</time></trkpt><trkpt lat="14.384299330142454" lon="120.8793168606669"><ele>23.999999999999996</ele><time>2026-04-24T12:19:50Z</time></trkpt><trkpt lat="14.384223246133509" lon="120.8792910691509"><ele>24.0</ele><time>2026-04-24T12:19:51Z</time></trkpt><trkpt lat="14.3841531415942" lon="120.87926876482243"><ele>24.0</ele><time>2026-04-24T12:19:52Z</time></trkpt><trkpt lat="14.384090164582718" lon="120.87924794216427"><ele>24.0</ele><time>2026-04-24T12:19:53Z</time></trkpt><trkpt lat="14.384028696827635" lon="120.87922530821903"><ele>24.0</ele><time>2026-04-24T12:19:54Z</time></trkpt><trkpt lat="14.383961915965717" lon="120.87920321530983"><ele>23.999999999999996</ele><time>2026-04-24T12:19:55Z</time></trkpt><trkpt lat="14.383897316879008" lon="120.87918188848118"><ele>24.0</ele><time>2026-04-24T12:19:56Z</time></trkpt><trkpt lat="14.383834237329912" lon="120.8791599358387"><ele>24.4</ele><time>2026-04-24T12:19:57Z</time></trkpt><trkpt lat="14.383726673807432" lon="120.87912206675506"><ele>24.799999999999997</ele><time>2026-04-24T12:19:59Z</time></trkpt><trkpt lat="14.383651829053486" lon="120.8790964914072"><ele>25.200000000000003</ele><time>2026-04-24T12:20:01Z</time></trkpt><trkpt lat="14.383584709051453" lon="120.8790715820294"><ele>25.6</ele><time>2026-04-24T12:20:03Z</time></trkpt><trkpt lat="14.383456575163443" lon="120.87902679878677"><ele>26.0</ele><time>2026-04-24T12:20:05Z</time></trkpt><trkpt lat="14.383379134010784" lon="120.87900105255022"><ele>26.0</ele><time>2026-04-24T12:20:06Z</time></trkpt><trkpt lat="14.38329159326204" lon="120.87897300071754"><ele>26.0</ele><time>2026-04-24T12:20:07Z</time></trkpt><trkpt lat="14.383197657537627" lon="120.87894357660414"><ele>26.0</ele><time>2026-04-24T12:20:08Z</time></trkpt><trkpt lat="14.383101284508431" lon="120.87890674488268"><ele>26.0</ele><time>2026-04-24T12:20:09Z</time></trkpt><trkpt lat="14.38300944514386" lon="120.87887298120344"><ele>26.0</ele><time>2026-04-24T12:20:10Z</time></trkpt><trkpt lat="14.382930591731467" lon="120.87884421629532"><ele>25.71428571428571</ele><time>2026-04-24T12:20:11Z</time></trkpt><trkpt lat="14.382868907879358" lon="120.87882271380141"><ele>25.42857142857143</ele><time>2026-04-24T12:20:12Z</time></trkpt><trkpt lat="14.382800678201328" lon="120.87879705345603"><ele>25.142857142857142</ele><time>2026-04-24T12:20:14Z</time></trkpt><trkpt lat="14.382720152301657" lon="120.87876872419729"><ele>24.857142857142854</ele><time>2026-04-24T12:20:16Z</time></trkpt><trkpt lat="14.382657168226078" lon="120.87874293336714"><ele>24.57142857142857</ele><time>2026-04-24T12:20:17Z</time></trkpt><trkpt lat="14.382588676558171" lon="120.87871799075366"><ele>24.285714285714285</ele><time>2026-04-24T12:20:18Z</time></trkpt><trkpt lat="14.382514564824719" lon="120.8786924394105"><ele>24.0</ele><time>2026-04-24T12:20:19Z</time></trkpt><trkpt lat="14.382442089700842" lon="120.87867023152977"><ele>24.0</ele><time>2026-04-24T12:20:20Z</time></trkpt><trkpt lat="14.38233718327371" lon="120.87863860078517"><ele>24.0</ele><time>2026-04-24T12:20:22Z</time></trkpt><trkpt lat="14.382272994425202" lon="120.87861503916722"><ele>24.0</ele><time>2026-04-24T12:20:25Z</time></trkpt><trkpt lat="14.382213571962462" lon="120.87859189381089"><ele>24.0</ele><time>2026-04-24T12:20:32Z</time></trkpt><trkpt lat="14.382149354841271" lon="120.87854980215467"><ele>24.0</ele><time>2026-04-24T12:21:54Z</time></trkpt><trkpt lat="14.382084908306682" lon="120.87852936491588"><ele>24.0</ele><time>2026-04-24T12:22:05Z</time></trkpt><trkpt lat="14.382014419286577" lon="120.87850097987906"><ele>23.999999999999996</ele><time>2026-04-24T12:22:10Z</time></trkpt><trkpt lat="14.381942270516452" lon="120.87847886841541"><ele>24.0</ele><time>2026-04-24T12:22:15Z</time></trkpt><trkpt lat="14.381871761086643" lon="120.87845520672363"><ele>24.0</ele><time>2026-04-24T12:22:19Z</time></trkpt><trkpt lat="14.381792593694556" lon="120.87842689261483"><ele>24.0</ele><time>2026-04-24T12:22:22Z</time></trkpt><trkpt lat="14.381730854752009" lon="120.87840755339458"><ele>24.0</ele><time>2026-04-24T12:22:27Z</time></trkpt><trkpt lat="14.381670293560187" lon="120.87838667010053"><ele>23.999999999999996</ele><time>2026-04-24T12:22:46Z</time></trkpt><trkpt lat="14.381604618318859" lon="120.87842205879052"><ele>24.0</ele><time>2026-04-24T12:22:55Z</time></trkpt><trkpt lat="14.3815904631582" lon="120.87849177869643"><ele>23.833333333333332</ele><time>2026-04-24T12:22:57Z</time></trkpt><trkpt lat="14.381587109580419" lon="120.87857029684123"><ele>23.666666666666668</ele><time>2026-04-24T12:22:59Z</time></trkpt><trkpt lat="14.381586636955277" lon="120.87868008664137"><ele>23.5</ele><time>2026-04-24T12:23:01Z</time></trkpt><trkpt lat="14.381588153891036" lon="120.87874710058911"><ele>23.333333333333336</ele><time>2026-04-24T12:23:03Z</time></trkpt><trkpt lat="14.381586707128866" lon="120.87881322380069"><ele>23.166666666666668</ele><time>2026-04-24T12:23:06Z</time></trkpt><trkpt lat="14.38158678671756" lon="120.87888554150338"><ele>23.0</ele><time>2026-04-24T12:23:09Z</time></trkpt><trkpt lat="14.381587458194412" lon="120.87895635758896"><ele>23.0</ele><time>2026-04-24T12:23:12Z</time></trkpt><trkpt lat="14.381585620667165" lon="120.87903290127457"><ele>23.0</ele><time>2026-04-24T12:23:16Z</time></trkpt><trkpt lat="14.381587359576782" lon="120.87910724989744"><ele>23.0</ele><time>2026-04-24T12:23:20Z</time></trkpt><trkpt lat="14.38157707691226" lon="120.87919180841303"><ele>23.0</ele><time>2026-04-24T12:23:23Z</time></trkpt><trkpt lat="14.381566489592506" lon="120.87926396403095"><ele>23.0</ele><time>2026-04-24T12:23:26Z</time></trkpt><trkpt lat="14.381577706429814" lon="120.8793361842025"><ele>23.0</ele><time>2026-04-24T12:23:34Z</time></trkpt><trkpt lat="14.381583394787844" lon="120.87941981731994"><ele>22.666666666666668</ele><time>2026-04-24T12:23:36Z</time></trkpt><trkpt lat="14.381585782828779" lon="120.87953842189087"><ele>22.333333333333336</ele><time>2026-04-24T12:23:38Z</time></trkpt><trkpt lat="14.381587311513677" lon="120.87960691806401"><ele>22.0</ele><time>2026-04-24T12:23:39Z</time></trkpt><trkpt lat="14.381586483582458" lon="120.87967954335669"><ele>21.666666666666668</ele><time>2026-04-24T12:23:40Z</time></trkpt><trkpt lat="14.381582911969074" lon="120.87974930958694"><ele>21.333333333333332</ele><time>2026-04-24T12:23:41Z</time></trkpt><trkpt lat="14.381572061974037" lon="120.87982060600497"><ele>21.0</ele><time>2026-04-24T12:23:42Z</time></trkpt><trkpt lat="14.381556089630967" lon="120.87989675171467"><ele>21.0</ele><time>2026-04-24T12:23:43Z</time></trkpt><trkpt lat="14.381529088809689" lon="120.87997818633242"><ele>21.0</ele><time>2026-04-24T12:23:44Z</time></trkpt><trkpt lat="14.381501194656208" lon="120.88006327411156"><ele>21.0</ele><time>2026-04-24T12:23:45Z</time></trkpt><trkpt lat="14.381469193212629" lon="120.88014880652949"><ele>21.0</ele><time>2026-04-24T12:23:46Z</time></trkpt><trkpt lat="14.381441213252264" lon="120.88023077841774"><ele>21.0</ele><time>2026-04-24T12:23:47Z</time></trkpt><trkpt lat="14.381423769585394" lon="120.8802968403317"><ele>21.0</ele><time>2026-04-24T12:23:48Z</time></trkpt><trkpt lat="14.381407441884907" lon="120.88037015104365"><ele>21.5</ele><time>2026-04-24T12:23:49Z</time></trkpt><trkpt lat="14.381391381327035" lon="120.88043525145534"><ele>22.0</ele><time>2026-04-24T12:23:50Z</time></trkpt><trkpt lat="14.381372926161358" lon="120.88050067427973"><ele>22.5</ele><time>2026-04-24T12:23:51Z</time></trkpt><trkpt lat="14.381354531263385" lon="120.88056384357085"><ele>23.0</ele><time>2026-04-24T12:23:52Z</time></trkpt><trkpt lat="14.381311114046747" lon="120.88065578700875"><ele>23.5</ele><time>2026-04-24T12:23:54Z</time></trkpt><trkpt lat="14.38128139671285" lon="120.8807567642596"><ele>24.0</ele><time>2026-04-24T12:23:56Z</time></trkpt><trkpt lat="14.381237318464517" lon="120.88087406131942"><ele>23.833333333333332</ele><time>2026-04-24T12:23:58Z</time></trkpt><trkpt lat="14.381211043273286" lon="120.880940066406"><ele>23.666666666666668</ele><time>2026-04-24T12:23:59Z</time></trkpt><trkpt lat="14.381182172720436" lon="120.88101619908693"><ele>23.5</ele><time>2026-04-24T12:24:00Z</time></trkpt><trkpt lat="14.381155914344223" lon="120.88109177311316"><ele>23.333333333333336</ele><time>2026-04-24T12:24:01Z</time></trkpt><trkpt lat="14.381132617369099" lon="120.88116978762929"><ele>23.166666666666668</ele><time>2026-04-24T12:24:02Z</time></trkpt><trkpt lat="14.381117113467079" lon="120.88123652901051"><ele>23.0</ele><time>2026-04-24T12:24:03Z</time></trkpt><trkpt lat="14.3810706437948" lon="120.88135721748222"><ele>23.0</ele><time>2026-04-24T12:24:05Z</time></trkpt><trkpt lat="14.38103228056861" lon="120.88146422804381"><ele>23.0</ele><time>2026-04-24T12:24:07Z</time></trkpt><trkpt lat="14.380988075743678" lon="120.88155167154171"><ele>23.0</ele><time>2026-04-24T12:24:09Z</time></trkpt><trkpt lat="14.380932575918012" lon="120.88161477848438"><ele>23.0</ele><time>2026-04-24T12:24:11Z</time></trkpt><trkpt lat="14.380869873079153" lon="120.88167806867803"><ele>23.0</ele><time>2026-04-24T12:24:13Z</time></trkpt><trkpt lat="14.380783717028704" lon="120.8817327004522"><ele>22.799999999999997</ele><time>2026-04-24T12:24:15Z</time></trkpt><trkpt lat="14.380675449292527" lon="120.88178431789044"><ele>22.6</ele><time>2026-04-24T12:24:17Z</time></trkpt><trkpt lat="14.38060958189174" lon="120.88180664794469"><ele>22.4</ele><time>2026-04-24T12:24:18Z</time></trkpt><trkpt lat="14.380512050445878" lon="120.88183840297488"><ele>22.200000000000003</ele><time>2026-04-24T12:24:20Z</time></trkpt><trkpt lat="14.380410753720362" lon="120.88187632982788"><ele>22.0</ele><time>2026-04-24T12:24:22Z</time></trkpt><trkpt lat="14.380345460443303" lon="120.88189312659301"><ele>22.0</ele><time>2026-04-24T12:24:24Z</time></trkpt><trkpt lat="14.380251510166024" lon="120.88194365028828"><ele>22.0</ele><time>2026-04-24T12:24:28Z</time></trkpt><trkpt lat="14.380170907522972" lon="120.88198270016086"><ele>22.0</ele><time>2026-04-24T12:24:30Z</time></trkpt><trkpt lat="14.380089357370576" lon="120.88201944417564"><ele>22.0</ele><time>2026-04-24T12:24:32Z</time></trkpt><trkpt lat="14.379997514477171" lon="120.88206112327764"><ele>22.0</ele><time>2026-04-24T12:24:34Z</time></trkpt><trkpt lat="14.379898547797318" lon="120.88211080916271"><ele>22.0</ele><time>2026-04-24T12:24:36Z</time></trkpt><trkpt lat="14.379840147094455" lon="120.88213712418495"><ele>22.0</ele><time>2026-04-24T12:24:37Z</time></trkpt><trkpt lat="14.37977281198235" lon="120.8821628006964"><ele>22.0</ele><time>2026-04-24T12:24:38Z</time></trkpt><trkpt lat="14.379699923486406" lon="120.88219464499831"><ele>22.0</ele><time>2026-04-24T12:24:39Z</time></trkpt><trkpt lat="14.37961796716185" lon="120.88222765494277"><ele>22.0</ele><time>2026-04-24T12:24:40Z</time></trkpt><trkpt lat="14.379525132952281" lon="120.88226345669496"><ele>22.0</ele><time>2026-04-24T12:24:41Z</time></trkpt><trkpt lat="14.379429407016604" lon="120.88230501809727"><ele>22.5</ele><time>2026-04-24T12:24:42Z</time></trkpt><trkpt lat="14.379354444096641" lon="120.8823354703929"><ele>23.0</ele><time>2026-04-24T12:24:43Z</time></trkpt><trkpt lat="14.379280022869077" lon="120.88237650334705"><ele>23.5</ele><time>2026-04-24T12:24:44Z</time></trkpt><trkpt lat="14.379198928457303" lon="120.88241179549601"><ele>24.0</ele><time>2026-04-24T12:24:45Z</time></trkpt><trkpt lat="14.37912821509409" lon="120.88244447350075"><ele>24.500000000000004</ele><time>2026-04-24T12:24:46Z</time></trkpt><trkpt lat="14.379068419083275" lon="120.8824713456969"><ele>25.0</ele><time>2026-04-24T12:24:47Z</time></trkpt><trkpt lat="14.379008187554783" lon="120.88250376836083"><ele>25.000000000000004</ele><time>2026-04-24T12:24:48Z</time></trkpt><trkpt lat="14.378942318607866" lon="120.88253245202544"><ele>25.0</ele><time>2026-04-24T12:24:49Z</time></trkpt><trkpt lat="14.378868967723902" lon="120.88256598747355"><ele>25.0</ele><time>2026-04-24T12:24:50Z</time></trkpt><trkpt lat="14.378792549692562" lon="120.88259634086505"><ele>25.0</ele><time>2026-04-24T12:24:51Z</time></trkpt><trkpt lat="14.378726589553773" lon="120.88262737727433"><ele>25.000000000000004</ele><time>2026-04-24T12:24:52Z</time></trkpt><trkpt lat="14.37865862408192" lon="120.8826616911174"><ele>25.0</ele><time>2026-04-24T12:24:53Z</time></trkpt><trkpt lat="14.378598857805066" lon="120.88270101513108"><ele>24.666666666666668</ele><time>2026-04-24T12:24:54Z</time></trkpt><trkpt lat="14.378541253090505" lon="120.88275050437544"><ele>24.333333333333336</ele><time>2026-04-24T12:24:55Z</time></trkpt><trkpt lat="14.378490549174783" lon="120.88281050751745"><ele>24.0</ele><time>2026-04-24T12:24:56Z</time></trkpt><trkpt lat="14.378436098772543" lon="120.88288035879242"><ele>23.666666666666668</ele><time>2026-04-24T12:24:57Z</time></trkpt><trkpt lat="14.378380789305332" lon="120.8829495068887"><ele>23.333333333333336</ele><time>2026-04-24T12:24:58Z</time></trkpt><trkpt lat="14.37832462449004" lon="120.88301886167652"><ele>23.0</ele><time>2026-04-24T12:24:59Z</time></trkpt><trkpt lat="14.378252643764586" lon="120.88309283825505"><ele>23.0</ele><time>2026-04-24T12:25:00Z</time></trkpt><trkpt lat="14.378190764446279" lon="120.88316015366729"><ele>23.0</ele><time>2026-04-24T12:25:01Z</time></trkpt><trkpt lat="14.378107356618385" lon="120.88325844845566"><ele>23.0</ele><time>2026-04-24T12:25:02Z</time></trkpt><trkpt lat="14.37803797633504" lon="120.88334167062557"><ele>23.0</ele><time>2026-04-24T12:25:03Z</time></trkpt><trkpt lat="14.377962163790514" lon="120.88343138658176"><ele>23.0</ele><time>2026-04-24T12:25:04Z</time></trkpt><trkpt lat="14.37788992322043" lon="120.88351776815652"><ele>23.2</ele><time>2026-04-24T12:25:05Z</time></trkpt><trkpt lat="14.377824138129139" lon="120.88359432789343"><ele>23.4</ele><time>2026-04-24T12:25:06Z</time></trkpt><trkpt lat="14.377767204772402" lon="120.88366878977622"><ele>23.599999999999998</ele><time>2026-04-24T12:25:07Z</time></trkpt><trkpt lat="14.377708726065647" lon="120.88374552659694"><ele>23.799999999999997</ele><time>2026-04-24T12:25:08Z</time></trkpt><trkpt lat="14.377657489200429" lon="120.88381438846339"><ele>24.0</ele><time>2026-04-24T12:25:09Z</time></trkpt><trkpt lat="14.37760654099228" lon="120.88387858185806"><ele>23.999999999999996</ele><time>2026-04-24T12:25:10Z</time></trkpt><trkpt lat="14.377554593653421" lon="120.88393981350153"><ele>24.0</ele><time>2026-04-24T12:25:11Z</time></trkpt><trkpt lat="14.377503244784647" lon="120.88399577382637"><ele>24.0</ele><time>2026-04-24T12:25:12Z</time></trkpt><trkpt lat="14.37746204996145" lon="120.88405500068686"><ele>24.0</ele><time>2026-04-24T12:25:13Z</time></trkpt><trkpt lat="14.377412180933735" lon="120.88411086090491"><ele>24.0</ele><time>2026-04-24T12:25:14Z</time></trkpt><trkpt lat="14.37736379215617" lon="120.88416903503835"><ele>23.999999999999996</ele><time>2026-04-24T12:25:15Z</time></trkpt><trkpt lat="14.377313591785386" lon="120.8842288356965"><ele>24.0</ele><time>2026-04-24T12:25:16Z</time></trkpt><trkpt lat="14.377266427833886" lon="120.88428890174421"><ele>23.833333333333332</ele><time>2026-04-24T12:25:17Z</time></trkpt><trkpt lat="14.377218675496716" lon="120.88435079884123"><ele>23.666666666666668</ele><time>2026-04-24T12:25:18Z</time></trkpt><trkpt lat="14.37717288171793" lon="120.8844054512444"><ele>23.5</ele><time>2026-04-24T12:25:19Z</time></trkpt><trkpt lat="14.377120795757058" lon="120.8844636790827"><ele>23.333333333333336</ele><time>2026-04-24T12:25:20Z</time></trkpt><trkpt lat="14.377077675356265" lon="120.88451371997377"><ele>23.166666666666668</ele><time>2026-04-24T12:25:21Z</time></trkpt><trkpt lat="14.377032977668401" lon="120.88456055195071"><ele>23.0</ele><time>2026-04-24T12:25:22Z</time></trkpt><trkpt lat="14.376949656442623" lon="120.88464659721679"><ele>23.0</ele><time>2026-04-24T12:25:24Z</time></trkpt><trkpt lat="14.376874121783635" lon="120.88468434489594"><ele>23.0</ele><time>2026-04-24T12:25:26Z</time></trkpt><trkpt lat="14.3768004584465" lon="120.88472215902077"><ele>23.0</ele><time>2026-04-24T12:25:28Z</time></trkpt><trkpt lat="14.376697705284112" lon="120.88476278803424"><ele>23.0</ele><time>2026-04-24T12:25:30Z</time></trkpt><trkpt lat="14.376583235702109" lon="120.88480530555823"><ele>23.0</ele><time>2026-04-24T12:25:32Z</time></trkpt><trkpt lat="14.376514342898336" lon="120.88483179354807"><ele>23.0</ele><time>2026-04-24T12:25:33Z</time></trkpt><trkpt lat="14.376443994888918" lon="120.88486249243662"><ele>23.0</ele><time>2026-04-24T12:25:34Z</time></trkpt><trkpt lat="14.376369001345434" lon="120.8848896277759"><ele>23.0</ele><time>2026-04-24T12:25:35Z</time></trkpt><trkpt lat="14.376284615435862" lon="120.88491711758145"><ele>23.0</ele><time>2026-04-24T12:25:36Z</time></trkpt><trkpt lat="14.376191862507177" lon="120.88495196153858"><ele>23.0</ele><time>2026-04-24T12:25:37Z</time></trkpt><trkpt lat="14.376097510644067" lon="120.88499202006719"><ele>23.0</ele><time>2026-04-24T12:25:38Z</time></trkpt><trkpt lat="14.376002842438638" lon="120.88503483752876"><ele>23.0</ele><time>2026-04-24T12:25:39Z</time></trkpt><trkpt lat="14.375920729131686" lon="120.88507588827032"><ele>23.0</ele><time>2026-04-24T12:25:40Z</time></trkpt><trkpt lat="14.375831856751953" lon="120.88512303791147"><ele>23.0</ele><time>2026-04-24T12:25:41Z</time></trkpt><trkpt lat="14.375759093213125" lon="120.88516312964498"><ele>23.0</ele><time>2026-04-24T12:25:42Z</time></trkpt><trkpt lat="14.375695046173123" lon="120.88520308948671"><ele>23.0</ele><time>2026-04-24T12:25:43Z</time></trkpt><trkpt lat="14.375632684040037" lon="120.8852430304999"><ele>23.0</ele><time>2026-04-24T12:25:44Z</time></trkpt><trkpt lat="14.375546206318468" lon="120.88530448026253"><ele>23.333333333333336</ele><time>2026-04-24T12:25:46Z</time></trkpt><trkpt lat="14.37547850971891" lon="120.88536547865183"><ele>23.666666666666668</ele><time>2026-04-24T12:25:48Z</time></trkpt><trkpt lat="14.375416742098366" lon="120.88541572618104"><ele>24.0</ele><time>2026-04-24T12:25:51Z</time></trkpt><trkpt lat="14.3753997920336" lon="120.8854787729919"><ele>24.333333333333336</ele><time>2026-04-24T12:25:56Z</time></trkpt><trkpt lat="14.375438640262187" lon="120.8855555257119"><ele>24.666666666666668</ele><time>2026-04-24T12:30:59Z</time></trkpt><trkpt lat="14.375332321560444" lon="120.88548771779992"><ele>25.0</ele><time>2026-04-24T12:44:36Z</time></trkpt><trkpt lat="14.375405180223318" lon="120.8855279617744"><ele>25.0</ele><time>2026-04-24T12:52:28Z</time></trkpt><trkpt lat="14.37536613856691" lon="120.88547287667228"><ele>25.0</ele><time>2026-04-24T12:53:54Z</time></trkpt><trkpt lat="14.37543064226228" lon="120.88542439812619"><ele>25.0</ele><time>2026-04-24T12:53:56Z</time></trkpt><trkpt lat="14.375518823509967" lon="120.88536953557731"><ele>25.0</ele><time>2026-04-24T12:53:58Z</time></trkpt><trkpt lat="14.375626003972064" lon="120.88529292905196"><ele>25.0</ele><time>2026-04-24T12:54:00Z</time></trkpt><trkpt lat="14.375687546322615" lon="120.88525442713781"><ele>24.666666666666668</ele><time>2026-04-24T12:54:01Z</time></trkpt><trkpt lat="14.375752914973475" lon="120.88521285803171"><ele>24.333333333333336</ele><time>2026-04-24T12:54:02Z</time></trkpt><trkpt lat="14.37581787020684" lon="120.88517532636503"><ele>24.0</ele><time>2026-04-24T12:54:03Z</time></trkpt><trkpt lat="14.37589524360357" lon="120.88513088176506"><ele>23.666666666666668</ele><time>2026-04-24T12:54:04Z</time></trkpt><trkpt lat="14.375972132997646" lon="120.88509165667917"><ele>23.333333333333336</ele><time>2026-04-24T12:54:05Z</time></trkpt><trkpt lat="14.376053497909936" lon="120.88505486788829"><ele>23.0</ele><time>2026-04-24T12:54:06Z</time></trkpt><trkpt lat="14.376139927801546" lon="120.88502070526799"><ele>23.0</ele><time>2026-04-24T12:54:07Z</time></trkpt><trkpt lat="14.376230917566431" lon="120.88498032698259"><ele>23.0</ele><time>2026-04-24T12:54:08Z</time></trkpt><trkpt lat="14.376324032633578" lon="120.8849418046836"><ele>23.0</ele><time>2026-04-24T12:54:09Z</time></trkpt><trkpt lat="14.376417578787212" lon="120.88490007449752"><ele>23.0</ele><time>2026-04-24T12:54:10Z</time></trkpt><trkpt lat="14.376503509105842" lon="120.88485643679532"><ele>23.0</ele><time>2026-04-24T12:54:11Z</time></trkpt><trkpt lat="14.376588733588914" lon="120.88482371063726"><ele>23.0</ele><time>2026-04-24T12:54:12Z</time></trkpt><trkpt lat="14.376674596276063" lon="120.88478969261747"><ele>23.0</ele><time>2026-04-24T12:54:13Z</time></trkpt><trkpt lat="14.376741671308514" lon="120.88476431948392"><ele>23.0</ele><time>2026-04-24T12:54:14Z</time></trkpt><trkpt lat="14.376807391360824" lon="120.88473746414284"><ele>23.0</ele><time>2026-04-24T12:54:15Z</time></trkpt><trkpt lat="14.376913082788757" lon="120.88469056656491"><ele>23.0</ele><time>2026-04-24T12:54:17Z</time></trkpt><trkpt lat="14.37700811374548" lon="120.88461895874994"><ele>23.0</ele><time>2026-04-24T12:54:19Z</time></trkpt><trkpt lat="14.377058733224441" lon="120.88456290289724"><ele>23.0</ele><time>2026-04-24T12:54:20Z</time></trkpt><trkpt lat="14.377108981166723" lon="120.88449951966871"><ele>23.0</ele><time>2026-04-24T12:54:21Z</time></trkpt><trkpt lat="14.377167083630102" lon="120.8844289989168"><ele>23.0</ele><time>2026-04-24T12:54:22Z</time></trkpt><trkpt lat="14.377225340522413" lon="120.88436129440078"><ele>23.0</ele><time>2026-04-24T12:54:23Z</time></trkpt><trkpt lat="14.37727899512371" lon="120.88430421981427"><ele>23.0</ele><time>2026-04-24T12:54:24Z</time></trkpt><trkpt lat="14.377331576877287" lon="120.88424944918434"><ele>23.166666666666668</ele><time>2026-04-24T12:54:25Z</time></trkpt><trkpt lat="14.377395668070081" lon="120.8841883721128"><ele>23.333333333333336</ele><time>2026-04-24T12:54:27Z</time></trkpt><trkpt lat="14.377461767725693" lon="120.884166753276"><ele>23.5</ele><time>2026-04-24T12:54:31Z</time></trkpt><trkpt lat="14.377443343585776" lon="120.88423437683115"><ele>23.666666666666668</ele><time>2026-04-24T12:54:33Z</time></trkpt><trkpt lat="14.377504621730443" lon="120.8843554555331"><ele>23.833333333333332</ele><time>2026-04-24T12:54:34Z</time></trkpt><trkpt lat="14.377526843704109" lon="120.88442267695775"><ele>24.0</ele><time>2026-04-24T12:54:35Z</time></trkpt><trkpt lat="14.377553797161664" lon="120.8844949799668"><ele>23.666666666666668</ele><time>2026-04-24T12:54:36Z</time></trkpt><trkpt lat="14.377581268824724" lon="120.88458135987251"><ele>23.333333333333332</ele><time>2026-04-24T12:54:37Z</time></trkpt><trkpt lat="14.37761273855223" lon="120.88465997280106"><ele>23.0</ele><time>2026-04-24T12:54:38Z</time></trkpt><trkpt lat="14.377648066097171" lon="120.88473764484539"><ele>22.666666666666664</ele><time>2026-04-24T12:54:39Z</time></trkpt><trkpt lat="14.377681849969083" lon="120.88481396559058"><ele>22.333333333333332</ele><time>2026-04-24T12:54:40Z</time></trkpt><trkpt lat="14.377715945596263" lon="120.88489135057088"><ele>22.0</ele><time>2026-04-24T12:54:41Z</time></trkpt><trkpt lat="14.377749423525623" lon="120.88496584014472"><ele>22.0</ele><time>2026-04-24T12:54:42Z</time></trkpt><trkpt lat="14.377784739020193" lon="120.88504633458287"><ele>22.0</ele><time>2026-04-24T12:54:43Z</time></trkpt><trkpt lat="14.377817325067408" lon="120.88511800665863"><ele>22.0</ele><time>2026-04-24T12:54:44Z</time></trkpt><trkpt lat="14.377848816028628" lon="120.88518510696028"><ele>22.0</ele><time>2026-04-24T12:54:45Z</time></trkpt><trkpt lat="14.377875199891161" lon="120.88524868322459"><ele>22.0</ele><time>2026-04-24T12:54:46Z</time></trkpt><trkpt lat="14.377907424388573" lon="120.8853082785824"><ele>22.0</ele><time>2026-04-24T12:54:47Z</time></trkpt><trkpt lat="14.377937357954977" lon="120.88537999499296"><ele>22.0</ele><time>2026-04-24T12:54:48Z</time></trkpt><trkpt lat="14.377972969069585" lon="120.88543866665198"><ele>22.166666666666664</ele><time>2026-04-24T12:54:49Z</time></trkpt><trkpt lat="14.378010232091428" lon="120.88549841354582"><ele>22.333333333333332</ele><time>2026-04-24T12:54:50Z</time></trkpt><trkpt lat="14.378050999910782" lon="120.88555134983339"><ele>22.5</ele><time>2026-04-24T12:54:51Z</time></trkpt><trkpt lat="14.378107775698247" lon="120.88559989545038"><ele>22.666666666666668</ele><time>2026-04-24T12:54:52Z</time></trkpt><trkpt lat="14.378168925852595" lon="120.88564680427167"><ele>22.833333333333336</ele><time>2026-04-24T12:54:53Z</time></trkpt><trkpt lat="14.378225443860703" lon="120.88571044962133"><ele>23.0</ele><time>2026-04-24T12:54:54Z</time></trkpt><trkpt lat="14.378293066691457" lon="120.88577966211524"><ele>23.0</ele><time>2026-04-24T12:54:55Z</time></trkpt><trkpt lat="14.378362792899425" lon="120.88585654484154"><ele>23.0</ele><time>2026-04-24T12:54:56Z</time></trkpt><trkpt lat="14.378430026708081" lon="120.8859339294217"><ele>23.0</ele><time>2026-04-24T12:54:57Z</time></trkpt><trkpt lat="14.37849934491283" lon="120.8860091572103"><ele>23.0</ele><time>2026-04-24T12:54:58Z</time></trkpt><trkpt lat="14.378569224147244" lon="120.88608352754977"><ele>23.0</ele><time>2026-04-24T12:54:59Z</time></trkpt><trkpt lat="14.378634180043152" lon="120.88615293724864"><ele>23.0</ele><time>2026-04-24T12:55:00Z</time></trkpt><trkpt lat="14.378703952109468" lon="120.88622963496776"><ele>23.0</ele><time>2026-04-24T12:55:01Z</time></trkpt><trkpt lat="14.378774505817372" lon="120.8863036739805"><ele>23.0</ele><time>2026-04-24T12:55:02Z</time></trkpt><trkpt lat="14.378843950963715" lon="120.88638353164797"><ele>23.0</ele><time>2026-04-24T12:55:03Z</time></trkpt><trkpt lat="14.378911547282497" lon="120.88646149967116"><ele>23.0</ele><time>2026-04-24T12:55:04Z</time></trkpt><trkpt lat="14.378976933951026" lon="120.88654946349531"><ele>23.0</ele><time>2026-04-24T12:55:05Z</time></trkpt><trkpt lat="14.37904181336992" lon="120.88662737060511"><ele>23.0</ele><time>2026-04-24T12:55:06Z</time></trkpt><trkpt lat="14.379098746836771" lon="120.8867068035919"><ele>23.0</ele><time>2026-04-24T12:55:07Z</time></trkpt><trkpt lat="14.37915052221333" lon="120.88676988140212"><ele>23.0</ele><time>2026-04-24T12:55:08Z</time></trkpt><trkpt lat="14.379202232090412" lon="120.88684713336461"><ele>23.0</ele><time>2026-04-24T12:55:09Z</time></trkpt><trkpt lat="14.37925651189472" lon="120.88691913505698"><ele>23.0</ele><time>2026-04-24T12:55:10Z</time></trkpt><trkpt lat="14.379298575988454" lon="120.8870083409885"><ele>23.0</ele><time>2026-04-24T12:55:11Z</time></trkpt><trkpt lat="14.379330422844188" lon="120.88709143266448"><ele>23.0</ele><time>2026-04-24T12:55:12Z</time></trkpt><trkpt lat="14.37935106892584" lon="120.88718239411315"><ele>23.0</ele><time>2026-04-24T12:55:13Z</time></trkpt><trkpt lat="14.37936822903325" lon="120.8872786571124"><ele>23.0</ele><time>2026-04-24T12:55:14Z</time></trkpt><trkpt lat="14.379381741598962" lon="120.88735741662622"><ele>23.0</ele><time>2026-04-24T12:55:15Z</time></trkpt><trkpt lat="14.379398604851366" lon="120.88747959018005"><ele>23.0</ele><time>2026-04-24T12:55:17Z</time></trkpt><trkpt lat="14.379436260866044" lon="120.88762886145952"><ele>23.0</ele><time>2026-04-24T12:55:19Z</time></trkpt><trkpt lat="14.379456915229888" lon="120.88771405188068"><ele>23.0</ele><time>2026-04-24T12:55:20Z</time></trkpt><trkpt lat="14.379480211852282" lon="120.88780125240581"><ele>23.0</ele><time>2026-04-24T12:55:21Z</time></trkpt><trkpt lat="14.379499089937132" lon="120.88789178538573"><ele>23.0</ele><time>2026-04-24T12:55:22Z</time></trkpt><trkpt lat="14.379527374314229" lon="120.88797805888899"><ele>23.0</ele><time>2026-04-24T12:55:23Z</time></trkpt><trkpt lat="14.379554484684881" lon="120.8880809554015"><ele>23.0</ele><time>2026-04-24T12:55:24Z</time></trkpt><trkpt lat="14.379582189025719" lon="120.88817273046564"><ele>23.0</ele><time>2026-04-24T12:55:25Z</time></trkpt><trkpt lat="14.379609916816447" lon="120.88827128144347"><ele>23.0</ele><time>2026-04-24T12:55:26Z</time></trkpt><trkpt lat="14.379635437149544" lon="120.88837253260272"><ele>23.0</ele><time>2026-04-24T12:55:27Z</time></trkpt><trkpt lat="14.379659012179177" lon="120.88846306288595"><ele>23.333333333333336</ele><time>2026-04-24T12:55:28Z</time></trkpt><trkpt lat="14.379681775495346" lon="120.88854980907331"><ele>23.666666666666668</ele><time>2026-04-24T12:55:29Z</time></trkpt><trkpt lat="14.379706954272589" lon="120.88863893212958"><ele>24.0</ele><time>2026-04-24T12:55:30Z</time></trkpt><trkpt lat="14.379736793709407" lon="120.88872388472925"><ele>24.333333333333336</ele><time>2026-04-24T12:55:31Z</time></trkpt><trkpt lat="14.37976952994595" lon="120.888811529362"><ele>24.666666666666668</ele><time>2026-04-24T12:55:32Z</time></trkpt><trkpt lat="14.379799631442177" lon="120.88889909097794"><ele>25.0</ele><time>2026-04-24T12:55:33Z</time></trkpt><trkpt lat="14.379828082551178" lon="120.88897993371357"><ele>24.833333333333336</ele><time>2026-04-24T12:55:34Z</time></trkpt><trkpt lat="14.379859733156099" lon="120.88905545327593"><ele>24.666666666666668</ele><time>2026-04-24T12:55:35Z</time></trkpt><trkpt lat="14.379887216373064" lon="120.88914257997166"><ele>24.5</ele><time>2026-04-24T12:55:36Z</time></trkpt><trkpt lat="14.379918133079492" lon="120.88922619185574"><ele>24.333333333333336</ele><time>2026-04-24T12:55:37Z</time></trkpt><trkpt lat="14.37994497536832" lon="120.88929722210682"><ele>24.166666666666668</ele><time>2026-04-24T12:55:38Z</time></trkpt><trkpt lat="14.379982707105585" lon="120.88941151784236"><ele>24.0</ele><time>2026-04-24T12:55:40Z</time></trkpt><trkpt lat="14.380009767917203" lon="120.88949475462624"><ele>24.0</ele><time>2026-04-24T12:55:42Z</time></trkpt><trkpt lat="14.380043345622205" lon="120.88957670004534"><ele>24.0</ele><time>2026-04-24T12:55:44Z</time></trkpt><trkpt lat="14.380077002811689" lon="120.88970383169519"><ele>24.0</ele><time>2026-04-24T12:55:46Z</time></trkpt><trkpt lat="14.380097831545928" lon="120.88978038763655"><ele>24.0</ele><time>2026-04-24T12:55:47Z</time></trkpt><trkpt lat="14.380127802317126" lon="120.88985750648075"><ele>24.0</ele><time>2026-04-24T12:55:48Z</time></trkpt><trkpt lat="14.38015507199087" lon="120.88994950797378"><ele>24.0</ele><time>2026-04-24T12:55:49Z</time></trkpt><trkpt lat="14.38018600695754" lon="120.89004334384816"><ele>24.0</ele><time>2026-04-24T12:55:50Z</time></trkpt><trkpt lat="14.380213361190128" lon="120.89013534005207"><ele>24.0</ele><time>2026-04-24T12:55:51Z</time></trkpt><trkpt lat="14.380240560534292" lon="120.89023190567053"><ele>24.0</ele><time>2026-04-24T12:55:52Z</time></trkpt><trkpt lat="14.380271811411463" lon="120.89033194111954"><ele>24.0</ele><time>2026-04-24T12:55:53Z</time></trkpt><trkpt lat="14.380305394981823" lon="120.89043287794664"><ele>24.0</ele><time>2026-04-24T12:55:54Z</time></trkpt><trkpt lat="14.380340228307242" lon="120.89054121638979"><ele>24.0</ele><time>2026-04-24T12:55:55Z</time></trkpt><trkpt lat="14.380374730039602" lon="120.89064744605312"><ele>24.0</ele><time>2026-04-24T12:55:56Z</time></trkpt><trkpt lat="14.380404163027098" lon="120.89074416384177"><ele>24.0</ele><time>2026-04-24T12:55:57Z</time></trkpt><trkpt lat="14.380430120715683" lon="120.8908444947982"><ele>24.0</ele><time>2026-04-24T12:55:58Z</time></trkpt><trkpt lat="14.38045769404862" lon="120.89094537957965"><ele>24.0</ele><time>2026-04-24T12:55:59Z</time></trkpt><trkpt lat="14.380490929192902" lon="120.89104932105474"><ele>24.0</ele><time>2026-04-24T12:56:00Z</time></trkpt><trkpt lat="14.380528985683634" lon="120.89115646566313"><ele>24.0</ele><time>2026-04-24T12:56:01Z</time></trkpt><trkpt lat="14.380558657012077" lon="120.8912608897725"><ele>24.0</ele><time>2026-04-24T12:56:02Z</time></trkpt><trkpt lat="14.380586602555738" lon="120.89136562282097"><ele>24.0</ele><time>2026-04-24T12:56:03Z</time></trkpt><trkpt lat="14.380618760262479" lon="120.89147246374594"><ele>23.799999999999997</ele><time>2026-04-24T12:56:04Z</time></trkpt><trkpt lat="14.380652303136591" lon="120.89158023396003"><ele>23.599999999999998</ele><time>2026-04-24T12:56:05Z</time></trkpt><trkpt lat="14.380684717758005" lon="120.89168619321767"><ele>23.4</ele><time>2026-04-24T12:56:06Z</time></trkpt><trkpt lat="14.380718127209505" lon="120.89179805999424"><ele>23.2</ele><time>2026-04-24T12:56:07Z</time></trkpt><trkpt lat="14.38074838778592" lon="120.89189838332639"><ele>23.0</ele><time>2026-04-24T12:56:08Z</time></trkpt><trkpt lat="14.380778371856929" lon="120.89199170185053"><ele>22.833333333333336</ele><time>2026-04-24T12:56:09Z</time></trkpt><trkpt lat="14.380811545998096" lon="120.89209225047709"><ele>22.666666666666668</ele><time>2026-04-24T12:56:10Z</time></trkpt><trkpt lat="14.380839141996598" lon="120.8921917964373"><ele>22.5</ele><time>2026-04-24T12:56:11Z</time></trkpt><trkpt lat="14.380863797536872" lon="120.89228078195752"><ele>22.333333333333332</ele><time>2026-04-24T12:56:12Z</time></trkpt><trkpt lat="14.38088734751241" lon="120.89235143325142"><ele>22.166666666666664</ele><time>2026-04-24T12:56:13Z</time></trkpt><trkpt lat="14.380915946332301" lon="120.89242546915872"><ele>22.0</ele><time>2026-04-24T12:56:14Z</time></trkpt><trkpt lat="14.380943368356046" lon="120.89250199384996"><ele>22.0</ele><time>2026-04-24T12:56:15Z</time></trkpt><trkpt lat="14.380971247784627" lon="120.89258170086849"><ele>22.0</ele><time>2026-04-24T12:56:16Z</time></trkpt><trkpt lat="14.3809977776514" lon="120.89267161053786"><ele>22.0</ele><time>2026-04-24T12:56:17Z</time></trkpt><trkpt lat="14.381025766915949" lon="120.89277283410807"><ele>22.0</ele><time>2026-04-24T12:56:18Z</time></trkpt><trkpt lat="14.381053260063132" lon="120.89287333232896"><ele>22.0</ele><time>2026-04-24T12:56:19Z</time></trkpt><trkpt lat="14.381083032592807" lon="120.89297513404121"><ele>22.25</ele><time>2026-04-24T12:56:20Z</time></trkpt><trkpt lat="14.381117173344725" lon="120.89308195682213"><ele>22.5</ele><time>2026-04-24T12:56:21Z</time></trkpt><trkpt lat="14.381154374707563" lon="120.89319935547074"><ele>22.75</ele><time>2026-04-24T12:56:22Z</time></trkpt><trkpt lat="14.381197958356289" lon="120.89332201519831"><ele>23.0</ele><time>2026-04-24T12:56:23Z</time></trkpt><trkpt lat="14.381245678982836" lon="120.89344043825987"><ele>23.0</ele><time>2026-04-24T12:56:24Z</time></trkpt><trkpt lat="14.381294342833359" lon="120.89355211711543"><ele>23.0</ele><time>2026-04-24T12:56:25Z</time></trkpt><trkpt lat="14.381328565726841" lon="120.89364532518395"><ele>23.0</ele><time>2026-04-24T12:56:26Z</time></trkpt><trkpt lat="14.3813676524958" lon="120.89374762640072"><ele>23.0</ele><time>2026-04-24T12:56:27Z</time></trkpt><trkpt lat="14.38139715983241" lon="120.89384006591997"><ele>23.0</ele><time>2026-04-24T12:56:28Z</time></trkpt><trkpt lat="14.381435135484342" lon="120.89394843788055"><ele>23.0</ele><time>2026-04-24T12:56:29Z</time></trkpt><trkpt lat="14.381476761589727" lon="120.8940632661808"><ele>23.0</ele><time>2026-04-24T12:56:30Z</time></trkpt><trkpt lat="14.381518494185263" lon="120.89417856337964"><ele>23.0</ele><time>2026-04-24T12:56:31Z</time></trkpt><trkpt lat="14.381565356841081" lon="120.89430308391512"><ele>23.0</ele><time>2026-04-24T12:56:32Z</time></trkpt><trkpt lat="14.381607587163547" lon="120.89442938742219"><ele>23.2</ele><time>2026-04-24T12:56:33Z</time></trkpt><trkpt lat="14.381657709758997" lon="120.89455442716404"><ele>23.4</ele><time>2026-04-24T12:56:34Z</time></trkpt><trkpt lat="14.381689741646415" lon="120.89465370209204"><ele>23.599999999999998</ele><time>2026-04-24T12:56:35Z</time></trkpt><trkpt lat="14.381722568281049" lon="120.89473228374015"><ele>23.799999999999997</ele><time>2026-04-24T12:56:36Z</time></trkpt><trkpt lat="14.381753320958166" lon="120.89479654600073"><ele>24.0</ele><time>2026-04-24T12:56:37Z</time></trkpt><trkpt lat="14.38178420764575" lon="120.89486671339446"><ele>24.0</ele><time>2026-04-24T12:56:38Z</time></trkpt><trkpt lat="14.38181631059282" lon="120.89497737243906"><ele>24.0</ele><time>2026-04-24T12:56:40Z</time></trkpt><trkpt lat="14.381864375762245" lon="120.8950945951191"><ele>24.0</ele><time>2026-04-24T12:56:41Z</time></trkpt><trkpt lat="14.381893458623095" lon="120.89517953461896"><ele>24.0</ele><time>2026-04-24T12:56:42Z</time></trkpt><trkpt lat="14.381921019747455" lon="120.89526469452204"><ele>24.0</ele><time>2026-04-24T12:56:43Z</time></trkpt><trkpt lat="14.381954165702169" lon="120.89535555325058"><ele>24.333333333333332</ele><time>2026-04-24T12:56:44Z</time></trkpt><trkpt lat="14.38198233565561" lon="120.89544413172935"><ele>24.666666666666664</ele><time>2026-04-24T12:56:45Z</time></trkpt><trkpt lat="14.382018238396439" lon="120.89553216324502"><ele>25.0</ele><time>2026-04-24T12:56:46Z</time></trkpt><trkpt lat="14.382036362745197" lon="120.89560071028505"><ele>25.333333333333332</ele><time>2026-04-24T12:56:47Z</time></trkpt><trkpt lat="14.382056286435967" lon="120.89566503418195"><ele>25.666666666666664</ele><time>2026-04-24T12:56:48Z</time></trkpt><trkpt lat="14.382096735686904" lon="120.89573077225285"><ele>26.0</ele><time>2026-04-24T12:56:49Z</time></trkpt><trkpt lat="14.382120312847906" lon="120.89584856960967"><ele>25.666666666666664</ele><time>2026-04-24T12:56:51Z</time></trkpt><trkpt lat="14.382144852376285" lon="120.89592358866797"><ele>25.333333333333332</ele><time>2026-04-24T12:56:53Z</time></trkpt><trkpt lat="14.382202995425777" lon="120.8959914735623"><ele>25.0</ele><time>2026-04-24T12:56:55Z</time></trkpt><trkpt lat="14.382295420139226" lon="120.89599960481864"><ele>24.666666666666664</ele><time>2026-04-24T12:56:56Z</time></trkpt><trkpt lat="14.382380807912817" lon="120.89600584703386"><ele>24.333333333333332</ele><time>2026-04-24T12:56:57Z</time></trkpt><trkpt lat="14.382476223336354" lon="120.89601104710363"><ele>24.0</ele><time>2026-04-24T12:56:58Z</time></trkpt><trkpt lat="14.382572198326049" lon="120.89602217814209"><ele>24.0</ele><time>2026-04-24T12:56:59Z</time></trkpt><trkpt lat="14.382673061944994" lon="120.89603916354646"><ele>24.0</ele><time>2026-04-24T12:57:00Z</time></trkpt><trkpt lat="14.382772796343302" lon="120.89606236611547"><ele>24.0</ele><time>2026-04-24T12:57:01Z</time></trkpt><trkpt lat="14.382867030690845" lon="120.89608383156087"><ele>24.0</ele><time>2026-04-24T12:57:02Z</time></trkpt><trkpt lat="14.382954093277686" lon="120.89610324811184"><ele>24.0</ele><time>2026-04-24T12:57:03Z</time></trkpt><trkpt lat="14.3830487933688" lon="120.89612046083997"><ele>24.166666666666668</ele><time>2026-04-24T12:57:04Z</time></trkpt><trkpt lat="14.383146036723923" lon="120.89613949017418"><ele>24.333333333333336</ele><time>2026-04-24T12:57:05Z</time></trkpt><trkpt lat="14.383233287865579" lon="120.89615607728565"><ele>24.5</ele><time>2026-04-24T12:57:06Z</time></trkpt><trkpt lat="14.383319700535946" lon="120.89616834056166"><ele>24.666666666666668</ele><time>2026-04-24T12:57:07Z</time></trkpt><trkpt lat="14.38340586960167" lon="120.89618951736875"><ele>24.833333333333336</ele><time>2026-04-24T12:57:08Z</time></trkpt><trkpt lat="14.383489322860893" lon="120.89620564636819"><ele>25.0</ele><time>2026-04-24T12:57:09Z</time></trkpt><trkpt lat="14.383573016050915" lon="120.89622337386979"><ele>25.000000000000004</ele><time>2026-04-24T12:57:10Z</time></trkpt><trkpt lat="14.383656429078746" lon="120.89623910824048"><ele>25.0</ele><time>2026-04-24T12:57:11Z</time></trkpt><trkpt lat="14.383742056449616" lon="120.8962650241966"><ele>25.0</ele><time>2026-04-24T12:57:12Z</time></trkpt><trkpt lat="14.383818134138714" lon="120.89628560055692"><ele>25.0</ele><time>2026-04-24T12:57:13Z</time></trkpt><trkpt lat="14.383890668148188" lon="120.8963012697696"><ele>25.000000000000004</ele><time>2026-04-24T12:57:14Z</time></trkpt><trkpt lat="14.383989646991921" lon="120.89632755030999"><ele>25.0</ele><time>2026-04-24T12:57:16Z</time></trkpt><trkpt lat="14.384052899067223" lon="120.89633803582272"><ele>24.6</ele><time>2026-04-24T12:57:18Z</time></trkpt><trkpt lat="14.38412429460521" lon="120.89636748209665"><ele>24.2</ele><time>2026-04-24T12:57:20Z</time></trkpt><trkpt lat="14.384210685005682" lon="120.89640627175618"><ele>23.799999999999997</ele><time>2026-04-24T12:57:22Z</time></trkpt><trkpt lat="14.384289070238752" lon="120.89646450280381"><ele>23.4</ele><time>2026-04-24T12:57:24Z</time></trkpt><trkpt lat="14.384343789901406" lon="120.89653995546956"><ele>23.0</ele><time>2026-04-24T12:57:26Z</time></trkpt><trkpt lat="14.384395140485903" lon="120.896647028161"><ele>23.0</ele><time>2026-04-24T12:57:28Z</time></trkpt><trkpt lat="14.384427303100212" lon="120.89670932256927"><ele>23.0</ele><time>2026-04-24T12:57:29Z</time></trkpt><trkpt lat="14.384456634318113" lon="120.89678640797158"><ele>23.0</ele><time>2026-04-24T12:57:30Z</time></trkpt><trkpt lat="14.384480640709116" lon="120.8968684077252"><ele>23.0</ele><time>2026-04-24T12:57:31Z</time></trkpt><trkpt lat="14.384511290733476" lon="120.89695880308308"><ele>23.0</ele><time>2026-04-24T12:57:32Z</time></trkpt><trkpt lat="14.38455005642414" lon="120.89704238118257"><ele>23.0</ele><time>2026-04-24T12:57:33Z</time></trkpt><trkpt lat="14.38458529173723" lon="120.89711928407228"><ele>22.799999999999997</ele><time>2026-04-24T12:57:34Z</time></trkpt><trkpt lat="14.384626661395448" lon="120.89719523553971"><ele>22.6</ele><time>2026-04-24T12:57:35Z</time></trkpt><trkpt lat="14.384672655090727" lon="120.89727775029158"><ele>22.4</ele><time>2026-04-24T12:57:36Z</time></trkpt><trkpt lat="14.384718975361599" lon="120.89736136767867"><ele>22.200000000000003</ele><time>2026-04-24T12:57:37Z</time></trkpt><trkpt lat="14.384768492864307" lon="120.89745016428519"><ele>22.0</ele><time>2026-04-24T12:57:38Z</time></trkpt><trkpt lat="14.3848219027623" lon="120.89754546556476"><ele>21.833333333333332</ele><time>2026-04-24T12:57:39Z</time></trkpt><trkpt lat="14.384875767564868" lon="120.89763427122227"><ele>21.666666666666664</ele><time>2026-04-24T12:57:40Z</time></trkpt><trkpt lat="14.384929720552407" lon="120.89771135313522"><ele>21.5</ele><time>2026-04-24T12:57:41Z</time></trkpt><trkpt lat="14.384977139132614" lon="120.89777369778747"><ele>21.333333333333332</ele><time>2026-04-24T12:57:42Z</time></trkpt><trkpt lat="14.385033468034361" lon="120.89784330820481"><ele>21.166666666666668</ele><time>2026-04-24T12:57:43Z</time></trkpt><trkpt lat="14.385093640159042" lon="120.89790967349931"><ele>21.0</ele><time>2026-04-24T12:57:44Z</time></trkpt><trkpt lat="14.385157870992145" lon="120.89797746588536"><ele>21.0</ele><time>2026-04-24T12:57:45Z</time></trkpt><trkpt lat="14.385221601899865" lon="120.89804720951275"><ele>21.0</ele><time>2026-04-24T12:57:46Z</time></trkpt><trkpt lat="14.38528109438035" lon="120.89812325667057"><ele>21.0</ele><time>2026-04-24T12:57:47Z</time></trkpt><trkpt lat="14.385332032360056" lon="120.8982091320811"><ele>21.0</ele><time>2026-04-24T12:57:48Z</time></trkpt><trkpt lat="14.38537678740524" lon="120.89829779527876"><ele>21.0</ele><time>2026-04-24T12:57:49Z</time></trkpt><trkpt lat="14.385414390094368" lon="120.89836833811749"><ele>21.0</ele><time>2026-04-24T12:57:50Z</time></trkpt><trkpt lat="14.385441399531908" lon="120.89843774746879"><ele>21.0</ele><time>2026-04-24T12:57:51Z</time></trkpt><trkpt lat="14.385476647343635" lon="120.89850763812106"><ele>21.0</ele><time>2026-04-24T12:57:52Z</time></trkpt><trkpt lat="14.385504266721577" lon="120.89857257116364"><ele>21.0</ele><time>2026-04-24T12:57:53Z</time></trkpt><trkpt lat="14.385538794768404" lon="120.89865322042016"><ele>21.0</ele><time>2026-04-24T12:57:54Z</time></trkpt><trkpt lat="14.385570872026237" lon="120.89873110162786"><ele>21.0</ele><time>2026-04-24T12:57:55Z</time></trkpt><trkpt lat="14.385593251361412" lon="120.89879852614645"><ele>21.166666666666668</ele><time>2026-04-24T12:57:56Z</time></trkpt><trkpt lat="14.385611820720623" lon="120.8988617865896"><ele>21.333333333333332</ele><time>2026-04-24T12:57:57Z</time></trkpt><trkpt lat="14.385634820014793" lon="120.89896133566826"><ele>21.5</ele><time>2026-04-24T12:57:59Z</time></trkpt><trkpt lat="14.385647158878337" lon="120.89902572239704"><ele>21.666666666666664</ele><time>2026-04-24T12:58:02Z</time></trkpt><trkpt lat="14.385666501698807" lon="120.89910752276586"><ele>21.833333333333332</ele><time>2026-04-24T12:58:13Z</time></trkpt><trkpt lat="14.38575585662649" lon="120.8991615689152"><ele>22.0</ele><time>2026-04-24T12:58:16Z</time></trkpt><trkpt lat="14.38583097738796" lon="120.89914072189748"><ele>22.0</ele><time>2026-04-24T12:58:17Z</time></trkpt><trkpt lat="14.385917167936002" lon="120.89911529315742"><ele>22.0</ele><time>2026-04-24T12:58:18Z</time></trkpt><trkpt lat="14.386006091174623" lon="120.89910033037889"><ele>22.0</ele><time>2026-04-24T12:58:19Z</time></trkpt><trkpt lat="14.386114848418364" lon="120.89907952433002"><ele>22.0</ele><time>2026-04-24T12:58:20Z</time></trkpt><trkpt lat="14.386225731265172" lon="120.89905736149846"><ele>22.0</ele><time>2026-04-24T12:58:21Z</time></trkpt><trkpt lat="14.38634029095019" lon="120.89903019662789"><ele>22.0</ele><time>2026-04-24T12:58:22Z</time></trkpt><trkpt lat="14.386435511522405" lon="120.89899593325309"><ele>22.0</ele><time>2026-04-24T12:58:23Z</time></trkpt><trkpt lat="14.38652719133134" lon="120.89894896945879"><ele>22.0</ele><time>2026-04-24T12:58:24Z</time></trkpt><trkpt lat="14.386594437336466" lon="120.8989115359241"><ele>22.0</ele><time>2026-04-24T12:58:25Z</time></trkpt><trkpt lat="14.386653132498077" lon="120.89887872736217"><ele>22.0</ele><time>2026-04-24T12:58:26Z</time></trkpt><trkpt lat="14.386734501010682" lon="120.898843933602"><ele>22.0</ele><time>2026-04-24T12:58:28Z</time></trkpt><trkpt lat="14.386808635392851" lon="120.89881189908886"><ele>22.0</ele><time>2026-04-24T12:58:31Z</time></trkpt><trkpt lat="14.386865641200139" lon="120.89878378798538"><ele>22.0</ele><time>2026-04-24T12:58:36Z</time></trkpt><trkpt lat="14.386931860676196" lon="120.89874992137511"><ele>22.0</ele><time>2026-04-24T12:58:57Z</time></trkpt><trkpt lat="14.387018389915355" lon="120.89871288217869"><ele>22.0</ele><time>2026-04-24T12:59:01Z</time></trkpt><trkpt lat="14.387121508763233" lon="120.89866374573941"><ele>22.0</ele><time>2026-04-24T12:59:03Z</time></trkpt><trkpt lat="14.387180014115017" lon="120.89863654501389"><ele>22.0</ele><time>2026-04-24T12:59:04Z</time></trkpt><trkpt lat="14.387306083139345" lon="120.89859140914193"><ele>22.0</ele><time>2026-04-24T12:59:06Z</time></trkpt><trkpt lat="14.38736736685264" lon="120.89856816083451"><ele>22.0</ele><time>2026-04-24T12:59:07Z</time></trkpt><trkpt lat="14.387433777805485" lon="120.89854026582312"><ele>22.0</ele><time>2026-04-24T12:59:08Z</time></trkpt><trkpt lat="14.387499391566934" lon="120.89851805843067"><ele>22.0</ele><time>2026-04-24T12:59:09Z</time></trkpt><trkpt lat="14.387611782871902" lon="120.89847655255875"><ele>22.0</ele><time>2026-04-24T12:59:11Z</time></trkpt><trkpt lat="14.387697275136658" lon="120.89845536791434"><ele>22.0</ele><time>2026-04-24T12:59:13Z</time></trkpt><trkpt lat="14.387773800423894" lon="120.8984411175258"><ele>22.0</ele><time>2026-04-24T12:59:15Z</time></trkpt><trkpt lat="14.38785404368342" lon="120.89843065509513"><ele>22.0</ele><time>2026-04-24T12:59:17Z</time></trkpt><trkpt lat="14.387926628622038" lon="120.89842155501535"><ele>22.0</ele><time>2026-04-24T12:59:18Z</time></trkpt><trkpt lat="14.388014052306584" lon="120.89841391903025"><ele>22.0</ele><time>2026-04-24T12:59:19Z</time></trkpt><trkpt lat="14.388099736712572" lon="120.89840403070849"><ele>22.0</ele><time>2026-04-24T12:59:20Z</time></trkpt><trkpt lat="14.388195092854085" lon="120.89839629129942"><ele>22.0</ele><time>2026-04-24T12:59:21Z</time></trkpt><trkpt lat="14.38828732304825" lon="120.89838760333997"><ele>21.5</ele><time>2026-04-24T12:59:22Z</time></trkpt><trkpt lat="14.38839156051281" lon="120.89837912808918"><ele>21.0</ele><time>2026-04-24T12:59:23Z</time></trkpt><trkpt lat="14.388499900021372" lon="120.89836547983118"><ele>20.5</ele><time>2026-04-24T12:59:24Z</time></trkpt><trkpt lat="14.388613881853859" lon="120.898350423361"><ele>20.0</ele><time>2026-04-24T12:59:25Z</time></trkpt><trkpt lat="14.388737498721792" lon="120.89833303559233"><ele>19.75</ele><time>2026-04-24T12:59:26Z</time></trkpt><trkpt lat="14.388863582147097" lon="120.89832352686666"><ele>19.5</ele><time>2026-04-24T12:59:27Z</time></trkpt><trkpt lat="14.388997269021374" lon="120.89831836361284"><ele>19.25</ele><time>2026-04-24T12:59:28Z</time></trkpt><trkpt lat="14.389125182128957" lon="120.89832259806514"><ele>19.0</ele><time>2026-04-24T12:59:29Z</time></trkpt><trkpt lat="14.389257415082064" lon="120.8983385449418"><ele>19.0</ele><time>2026-04-24T12:59:30Z</time></trkpt><trkpt lat="14.389376200372391" lon="120.89837207059476"><ele>19.0</ele><time>2026-04-24T12:59:31Z</time></trkpt><trkpt lat="14.389497486598325" lon="120.89842422436568"><ele>19.0</ele><time>2026-04-24T12:59:32Z</time></trkpt><trkpt lat="14.38959903312642" lon="120.89848896415873"><ele>19.0</ele><time>2026-04-24T12:59:33Z</time></trkpt><trkpt lat="14.389707861191813" lon="120.8985463703094"><ele>18.5</ele><time>2026-04-24T12:59:34Z</time></trkpt><trkpt lat="14.38978729527316" lon="120.89864799673363"><ele>18.0</ele><time>2026-04-24T12:59:35Z</time></trkpt><trkpt lat="14.389878069781808" lon="120.89873310225552"><ele>17.5</ele><time>2026-04-24T12:59:36Z</time></trkpt><trkpt lat="14.389934041297987" lon="120.89885635505831"><ele>17.0</ele><time>2026-04-24T12:59:37Z</time></trkpt><trkpt lat="14.389995904352444" lon="120.89897800040501"><ele>17.0</ele><time>2026-04-24T12:59:38Z</time></trkpt><trkpt lat="14.390066944834066" lon="120.89909176228012"><ele>17.0</ele><time>2026-04-24T12:59:39Z</time></trkpt><trkpt lat="14.390126971338121" lon="120.89922062368946"><ele>17.0</ele><time>2026-04-24T12:59:40Z</time></trkpt><trkpt lat="14.390187142446672" lon="120.8993497955308"><ele>17.0</ele><time>2026-04-24T12:59:41Z</time></trkpt><trkpt lat="14.390251406623769" lon="120.8994875791749"><ele>17.666666666666668</ele><time>2026-04-24T12:59:42Z</time></trkpt><trkpt lat="14.39031972635796" lon="120.89963388054088"><ele>18.333333333333332</ele><time>2026-04-24T12:59:43Z</time></trkpt><trkpt lat="14.390385599690367" lon="120.89977509309242"><ele>19.0</ele><time>2026-04-24T12:59:44Z</time></trkpt><trkpt lat="14.390455492042094" lon="120.89992494460732"><ele>19.0</ele><time>2026-04-24T12:59:45Z</time></trkpt><trkpt lat="14.390526721681175" lon="120.90007767653391"><ele>19.0</ele><time>2026-04-24T12:59:46Z</time></trkpt><trkpt lat="14.39059969235757" lon="120.9002341416173"><ele>19.0</ele><time>2026-04-24T12:59:47Z</time></trkpt><trkpt lat="14.39067338427949" lon="120.90039215321433"><ele>19.333333333333332</ele><time>2026-04-24T12:59:48Z</time></trkpt><trkpt lat="14.39074725942912" lon="120.90055055768578"><ele>19.666666666666668</ele><time>2026-04-24T12:59:49Z</time></trkpt><trkpt lat="14.390819156668552" lon="120.90070472096211"><ele>20.0</ele><time>2026-04-24T12:59:50Z</time></trkpt><trkpt lat="14.390892652640929" lon="120.90086231239185"><ele>20.333333333333336</ele><time>2026-04-24T12:59:51Z</time></trkpt><trkpt lat="14.390963112834061" lon="120.90101339449245"><ele>20.666666666666668</ele><time>2026-04-24T12:59:52Z</time></trkpt><trkpt lat="14.391030672960333" lon="120.90115662338673"><ele>21.0</ele><time>2026-04-24T12:59:53Z</time></trkpt><trkpt lat="14.391091990752098" lon="120.90128792401654"><ele>21.0</ele><time>2026-04-24T12:59:54Z</time></trkpt><trkpt lat="14.391150797817742" lon="120.9014138484225"><ele>21.0</ele><time>2026-04-24T12:59:55Z</time></trkpt><trkpt lat="14.391202840522972" lon="120.90152528830207"><ele>21.0</ele><time>2026-04-24T12:59:56Z</time></trkpt><trkpt lat="14.391253620058109" lon="120.90163229975799"><ele>21.0</ele><time>2026-04-24T12:59:57Z</time></trkpt><trkpt lat="14.391300091267356" lon="120.90173134008975"><ele>21.0</ele><time>2026-04-24T12:59:58Z</time></trkpt><trkpt lat="14.391355493725586" lon="120.90184714891366"><ele>21.0</ele><time>2026-04-24T12:59:59Z</time></trkpt><trkpt lat="14.391412116543227" lon="120.9019691796863"><ele>21.0</ele><time>2026-04-24T13:00:00Z</time></trkpt><trkpt lat="14.391472782193395" lon="120.90209992339133"><ele>21.0</ele><time>2026-04-24T13:00:01Z</time></trkpt><trkpt lat="14.391534702909698" lon="120.90223337195381"><ele>21.0</ele><time>2026-04-24T13:00:02Z</time></trkpt><trkpt lat="14.39159931750662" lon="120.90237332621945"><ele>21.0</ele><time>2026-04-24T13:00:03Z</time></trkpt><trkpt lat="14.391666337697796" lon="120.90251789540869"><ele>21.0</ele><time>2026-04-24T13:00:04Z</time></trkpt><trkpt lat="14.391734244951179" lon="120.90265811950484"><ele>20.666666666666668</ele><time>2026-04-24T13:00:05Z</time></trkpt><trkpt lat="14.391804335200513" lon="120.90280285131477"><ele>20.333333333333336</ele><time>2026-04-24T13:00:06Z</time></trkpt><trkpt lat="14.391877415492688" lon="120.90295375736864"><ele>20.0</ele><time>2026-04-24T13:00:07Z</time></trkpt><trkpt lat="14.391953385754299" lon="120.90311063103125"><ele>20.0</ele><time>2026-04-24T13:00:08Z</time></trkpt><trkpt lat="14.3920283317524" lon="120.90326398406258"><ele>20.0</ele><time>2026-04-24T13:00:09Z</time></trkpt><trkpt lat="14.392105084760324" lon="120.90342146851977"><ele>20.0</ele><time>2026-04-24T13:00:10Z</time></trkpt><trkpt lat="14.392179665395867" lon="120.90357582552166"><ele>20.0</ele><time>2026-04-24T13:00:11Z</time></trkpt><trkpt lat="14.392248249510603" lon="120.90371674226711"><ele>20.0</ele><time>2026-04-24T13:00:12Z</time></trkpt><trkpt lat="14.392313166541648" lon="120.90385014797066"><ele>20.0</ele><time>2026-04-24T13:00:13Z</time></trkpt><trkpt lat="14.392374794207996" lon="120.90396404835779"><ele>20.0</ele><time>2026-04-24T13:00:14Z</time></trkpt><trkpt lat="14.39244196542816" lon="120.9040695938474"><ele>20.0</ele><time>2026-04-24T13:00:15Z</time></trkpt><trkpt lat="14.392539394698053" lon="120.90415085904884"><ele>20.0</ele><time>2026-04-24T13:00:16Z</time></trkpt><trkpt lat="14.392640069439542" lon="120.90422450381678"><ele>20.0</ele><time>2026-04-24T13:00:17Z</time></trkpt><trkpt lat="14.392752009128385" lon="120.90430543930654"><ele>20.0</ele><time>2026-04-24T13:00:18Z</time></trkpt><trkpt lat="14.392859356205795" lon="120.90438933184237"><ele>20.5</ele><time>2026-04-24T13:00:19Z</time></trkpt><trkpt lat="14.392976711501333" lon="120.90446282722074"><ele>21.0</ele><time>2026-04-24T13:00:20Z</time></trkpt><trkpt lat="14.393082694372707" lon="120.90453684329968"><ele>21.5</ele><time>2026-04-24T13:00:21Z</time></trkpt><trkpt lat="14.393186759842418" lon="120.90461706799528"><ele>22.0</ele><time>2026-04-24T13:00:22Z</time></trkpt><trkpt lat="14.393290995389325" lon="120.90468984846171"><ele>22.0</ele><time>2026-04-24T13:00:23Z</time></trkpt><trkpt lat="14.39340489071597" lon="120.90476353211949"><ele>22.0</ele><time>2026-04-24T13:00:24Z</time></trkpt><trkpt lat="14.393515966351801" lon="120.90483698669816"><ele>22.0</ele><time>2026-04-24T13:00:25Z</time></trkpt><trkpt lat="14.393627653293146" lon="120.90491359719853"><ele>22.0</ele><time>2026-04-24T13:00:26Z</time></trkpt><trkpt lat="14.393731849536298" lon="120.90498916920043"><ele>22.0</ele><time>2026-04-24T13:00:27Z</time></trkpt><trkpt lat="14.393829881603537" lon="120.90505656149385"><ele>22.0</ele><time>2026-04-24T13:00:28Z</time></trkpt><trkpt lat="14.393938576568988" lon="120.90512544507213"><ele>22.0</ele><time>2026-04-24T13:00:29Z</time></trkpt><trkpt lat="14.394048249561896" lon="120.90519382195285"><ele>22.0</ele><time>2026-04-24T13:00:30Z</time></trkpt><trkpt lat="14.394150413918986" lon="120.90526232546507"><ele>22.25</ele><time>2026-04-24T13:00:31Z</time></trkpt><trkpt lat="14.39425549689095" lon="120.90533744275575"><ele>22.5</ele><time>2026-04-24T13:00:32Z</time></trkpt><trkpt lat="14.394359993205597" lon="120.90541806607366"><ele>22.75</ele><time>2026-04-24T13:00:33Z</time></trkpt><trkpt lat="14.394472460799717" lon="120.90549989206454"><ele>23.0</ele><time>2026-04-24T13:00:34Z</time></trkpt><trkpt lat="14.394585875782596" lon="120.90557739684255"><ele>22.25</ele><time>2026-04-24T13:00:35Z</time></trkpt><trkpt lat="14.39470093305182" lon="120.90564650895205"><ele>21.5</ele><time>2026-04-24T13:00:36Z</time></trkpt><trkpt lat="14.394801843646617" lon="120.90571867713808"><ele>20.75</ele><time>2026-04-24T13:00:37Z</time></trkpt><trkpt lat="14.394893603530898" lon="120.90578186660481"><ele>20.0</ele><time>2026-04-24T13:00:38Z</time></trkpt><trkpt lat="14.394992607075778" lon="120.90583783231547"><ele>20.0</ele><time>2026-04-24T13:00:39Z</time></trkpt><trkpt lat="14.395072915617048" lon="120.90589467767535"><ele>20.0</ele><time>2026-04-24T13:00:40Z</time></trkpt><trkpt lat="14.395157676364978" lon="120.90592317054002"><ele>20.0</ele><time>2026-04-24T13:00:41Z</time></trkpt><trkpt lat="14.39524678125359" lon="120.90593855386862"><ele>20.0</ele><time>2026-04-24T13:00:42Z</time></trkpt><trkpt lat="14.395350822200559" lon="120.90594736536761"><ele>20.0</ele><time>2026-04-24T13:00:43Z</time></trkpt><trkpt lat="14.3954661432958" lon="120.90595480430262"><ele>19.8</ele><time>2026-04-24T13:00:44Z</time></trkpt><trkpt lat="14.395582935048012" lon="120.90596214257891"><ele>19.6</ele><time>2026-04-24T13:00:45Z</time></trkpt><trkpt lat="14.395688077636054" lon="120.90596547371307"><ele>19.4</ele><time>2026-04-24T13:00:46Z</time></trkpt><trkpt lat="14.395788416356433" lon="120.90594383056886"><ele>19.2</ele><time>2026-04-24T13:00:47Z</time></trkpt><trkpt lat="14.395871720802784" lon="120.90587185851484"><ele>19.0</ele><time>2026-04-24T13:00:48Z</time></trkpt><trkpt lat="14.395971775336456" lon="120.90581492002013"><ele>19.0</ele><time>2026-04-24T13:00:49Z</time></trkpt><trkpt lat="14.396077587418667" lon="120.90575470507073"><ele>19.0</ele><time>2026-04-24T13:00:50Z</time></trkpt><trkpt lat="14.396183245532553" lon="120.90569457773888"><ele>19.0</ele><time>2026-04-24T13:00:51Z</time></trkpt><trkpt lat="14.396295856481546" lon="120.90566592268318"><ele>19.0</ele><time>2026-04-24T13:00:52Z</time></trkpt><trkpt lat="14.396393833784972" lon="120.9056363397496"><ele>19.0</ele><time>2026-04-24T13:00:53Z</time></trkpt><trkpt lat="14.396487558825118" lon="120.90563077156662"><ele>19.0</ele><time>2026-04-24T13:00:54Z</time></trkpt><trkpt lat="14.396578050798073" lon="120.90562926521994"><ele>19.0</ele><time>2026-04-24T13:00:55Z</time></trkpt><trkpt lat="14.396650851934524" lon="120.9056160327432"><ele>19.0</ele><time>2026-04-24T13:00:56Z</time></trkpt><trkpt lat="14.39671263182031" lon="120.90557976113934"><ele>19.0</ele><time>2026-04-24T13:00:57Z</time></trkpt><trkpt lat="14.396765023924166" lon="120.90552065107904"><ele>19.0</ele><time>2026-04-24T13:00:58Z</time></trkpt><trkpt lat="14.396818301190791" lon="120.90545404612337"><ele>19.0</ele><time>2026-04-24T13:00:59Z</time></trkpt><trkpt lat="14.396890248648974" lon="120.90538206858321"><ele>19.0</ele><time>2026-04-24T13:01:00Z</time></trkpt><trkpt lat="14.396979491624208" lon="120.90532612858057"><ele>19.0</ele><time>2026-04-24T13:01:01Z</time></trkpt><trkpt lat="14.397083138747833" lon="120.90529029402288"><ele>19.0</ele><time>2026-04-24T13:01:02Z</time></trkpt><trkpt lat="14.397187270498792" lon="120.90526948806564"><ele>19.0</ele><time>2026-04-24T13:01:03Z</time></trkpt><trkpt lat="14.397298095637902" lon="120.9052559993971"><ele>18.5</ele><time>2026-04-24T13:01:04Z</time></trkpt><trkpt lat="14.397412546719806" lon="120.90524503543226"><ele>18.0</ele><time>2026-04-24T13:01:05Z</time></trkpt><trkpt lat="14.39753286485511" lon="120.90522796585863"><ele>17.5</ele><time>2026-04-24T13:01:06Z</time></trkpt><trkpt lat="14.397647982078949" lon="120.905214187358"><ele>17.0</ele><time>2026-04-24T13:01:07Z</time></trkpt><trkpt lat="14.397771521527536" lon="120.9052027999774"><ele>17.0</ele><time>2026-04-24T13:01:08Z</time></trkpt><trkpt lat="14.397890395371274" lon="120.90518321904165"><ele>17.0</ele><time>2026-04-24T13:01:09Z</time></trkpt><trkpt lat="14.398008025159193" lon="120.9051603715997"><ele>17.0</ele><time>2026-04-24T13:01:10Z</time></trkpt><trkpt lat="14.39813028068446" lon="120.9051381572385"><ele>17.0</ele><time>2026-04-24T13:01:11Z</time></trkpt><trkpt lat="14.398261312304268" lon="120.90512322308346"><ele>17.0</ele><time>2026-04-24T13:01:12Z</time></trkpt><trkpt lat="14.39839283043995" lon="120.90511096759711"><ele>17.0</ele><time>2026-04-24T13:01:13Z</time></trkpt><trkpt lat="14.39852509870458" lon="120.90509651219959"><ele>17.0</ele><time>2026-04-24T13:01:14Z</time></trkpt><trkpt lat="14.398661532089378" lon="120.90508091853035"><ele>17.0</ele><time>2026-04-24T13:01:15Z</time></trkpt><trkpt lat="14.398796217367194" lon="120.90506088332609"><ele>17.25</ele><time>2026-04-24T13:01:16Z</time></trkpt><trkpt lat="14.39893204846894" lon="120.90504185144171"><ele>17.5</ele><time>2026-04-24T13:01:17Z</time></trkpt><trkpt lat="14.399065987799336" lon="120.90502770447652"><ele>17.75</ele><time>2026-04-24T13:01:18Z</time></trkpt><trkpt lat="14.399198271240163" lon="120.90501094659"><ele>18.0</ele><time>2026-04-24T13:01:19Z</time></trkpt><trkpt lat="14.399331394827177" lon="120.90498350225975"><ele>18.0</ele><time>2026-04-24T13:01:20Z</time></trkpt><trkpt lat="14.399467921029428" lon="120.90494629606104"><ele>18.0</ele><time>2026-04-24T13:01:21Z</time></trkpt><trkpt lat="14.39960338548676" lon="120.90490617973144"><ele>18.0</ele><time>2026-04-24T13:01:22Z</time></trkpt><trkpt lat="14.399744113368735" lon="120.90485939883717"><ele>18.0</ele><time>2026-04-24T13:01:23Z</time></trkpt><trkpt lat="14.399879372221434" lon="120.90481385605406"><ele>16.666666666666668</ele><time>2026-04-24T13:01:24Z</time></trkpt><trkpt lat="14.400023507115659" lon="120.90476836841702"><ele>15.333333333333334</ele><time>2026-04-24T13:01:25Z</time></trkpt><trkpt lat="14.400171647314485" lon="120.90472201446985"><ele>14.0</ele><time>2026-04-24T13:01:26Z</time></trkpt><trkpt lat="14.400315524248455" lon="120.90467816798963"><ele>14.0</ele><time>2026-04-24T13:01:27Z</time></trkpt><trkpt lat="14.400460667882115" lon="120.90463120529185"><ele>14.0</ele><time>2026-04-24T13:01:28Z</time></trkpt><trkpt lat="14.400598494325447" lon="120.90458572821845"><ele>14.0</ele><time>2026-04-24T13:01:29Z</time></trkpt><trkpt lat="14.400736926735757" lon="120.90454097215364"><ele>14.0</ele><time>2026-04-24T13:01:30Z</time></trkpt><trkpt lat="14.400874820905068" lon="120.90449577690974"><ele>14.0</ele><time>2026-04-24T13:01:31Z</time></trkpt><trkpt lat="14.401010457087596" lon="120.9044521198042"><ele>14.0</ele><time>2026-04-24T13:01:32Z</time></trkpt><trkpt lat="14.401147904046951" lon="120.90440807593323"><ele>14.0</ele><time>2026-04-24T13:01:33Z</time></trkpt><trkpt lat="14.401281667209783" lon="120.90436628955932"><ele>14.0</ele><time>2026-04-24T13:01:34Z</time></trkpt><trkpt lat="14.401422390371362" lon="120.90432084470768"><ele>14.0</ele><time>2026-04-24T13:01:35Z</time></trkpt><trkpt lat="14.401561145692838" lon="120.90427591972896"><ele>14.0</ele><time>2026-04-24T13:01:36Z</time></trkpt><trkpt lat="14.401698474107766" lon="120.90423487098539"><ele>14.0</ele><time>2026-04-24T13:01:37Z</time></trkpt><trkpt lat="14.40182874212209" lon="120.90419012890652"><ele>14.0</ele><time>2026-04-24T13:01:38Z</time></trkpt><trkpt lat="14.401948227605805" lon="120.90414501790104"><ele>14.0</ele><time>2026-04-24T13:01:39Z</time></trkpt><trkpt lat="14.4020665173936" lon="120.90410811198984"><ele>14.0</ele><time>2026-04-24T13:01:40Z</time></trkpt><trkpt lat="14.40217525810335" lon="120.90407438355443"><ele>14.0</ele><time>2026-04-24T13:01:41Z</time></trkpt><trkpt lat="14.402281593687594" lon="120.90402934198893"><ele>14.0</ele><time>2026-04-24T13:01:42Z</time></trkpt><trkpt lat="14.402400187857712" lon="120.90401246435259"><ele>13.75</ele><time>2026-04-24T13:01:43Z</time></trkpt><trkpt lat="14.402516291189784" lon="120.90402678687468"><ele>13.5</ele><time>2026-04-24T13:01:44Z</time></trkpt><trkpt lat="14.402636383609801" lon="120.90408759829258"><ele>13.25</ele><time>2026-04-24T13:01:45Z</time></trkpt><trkpt lat="14.40273930963281" lon="120.90413972159307"><ele>13.0</ele><time>2026-04-24T13:01:46Z</time></trkpt><trkpt lat="14.402841264592016" lon="120.90419123691227"><ele>12.999999999999998</ele><time>2026-04-24T13:01:47Z</time></trkpt><trkpt lat="14.402925004346464" lon="120.90423353930001"><ele>13.0</ele><time>2026-04-24T13:01:48Z</time></trkpt><trkpt lat="14.403009810516997" lon="120.90427638041213"><ele>13.0</ele><time>2026-04-24T13:01:49Z</time></trkpt><trkpt lat="14.403076995244257" lon="120.90431042744484"><ele>13.0</ele><time>2026-04-24T13:01:50Z</time></trkpt><trkpt lat="14.403138456628774" lon="120.90434170690894"><ele>12.999999999999998</ele><time>2026-04-24T13:01:51Z</time></trkpt><trkpt lat="14.403198071899265" lon="120.904394025258"><ele>13.0</ele><time>2026-04-24T13:01:52Z</time></trkpt><trkpt lat="14.4032415873657" lon="120.90444512067646"><ele>13.285714285714285</ele><time>2026-04-24T13:01:53Z</time></trkpt><trkpt lat="14.403249567620326" lon="120.90451367970743"><ele>13.571428571428573</ele><time>2026-04-24T13:01:54Z</time></trkpt><trkpt lat="14.403277495491013" lon="120.90458041989648"><ele>13.857142857142858</ele><time>2026-04-24T13:01:55Z</time></trkpt><trkpt lat="14.403313797697507" lon="120.90464084619687"><ele>14.142857142857142</ele><time>2026-04-24T13:01:56Z</time></trkpt><trkpt lat="14.403365301229773" lon="120.90468631123206"><ele>14.428571428571427</ele><time>2026-04-24T13:01:57Z</time></trkpt><trkpt lat="14.403419724975757" lon="120.904719537254"><ele>14.714285714285715</ele><time>2026-04-24T13:01:58Z</time></trkpt><trkpt lat="14.40352748430138" lon="120.90474243572199"><ele>15.0</ele><time>2026-04-24T13:02:00Z</time></trkpt><trkpt lat="14.40362705442898" lon="120.90473989362707"><ele>15.0</ele><time>2026-04-24T13:02:02Z</time></trkpt><trkpt lat="14.403684794423441" lon="120.90468385272531"><ele>15.0</ele><time>2026-04-24T13:02:03Z</time></trkpt><trkpt lat="14.403734065273703" lon="120.9046408250629"><ele>15.0</ele><time>2026-04-24T13:02:04Z</time></trkpt><trkpt lat="14.403754705348655" lon="120.90455951173132"><ele>15.0</ele><time>2026-04-24T13:02:05Z</time></trkpt><trkpt lat="14.403802762979895" lon="120.90451490488678"><ele>15.0</ele><time>2026-04-24T13:02:06Z</time></trkpt><trkpt lat="14.403862705988756" lon="120.90447027897586"><ele>15.0</ele><time>2026-04-24T13:02:07Z</time></trkpt><trkpt lat="14.403923819776555" lon="120.9044401110621"><ele>15.0</ele><time>2026-04-24T13:02:08Z</time></trkpt><trkpt lat="14.403988101041309" lon="120.90440900966058"><ele>15.0</ele><time>2026-04-24T13:02:09Z</time></trkpt><trkpt lat="14.404049587066313" lon="120.90438792729074"><ele>15.0</ele><time>2026-04-24T13:02:10Z</time></trkpt><trkpt lat="14.404118749048946" lon="120.9043598716232"><ele>15.0</ele><time>2026-04-24T13:02:11Z</time></trkpt><trkpt lat="14.404189786114683" lon="120.9043259715735"><ele>15.0</ele><time>2026-04-24T13:02:12Z</time></trkpt><trkpt lat="14.404269327302647" lon="120.90430074830464"><ele>15.0</ele><time>2026-04-24T13:02:13Z</time></trkpt><trkpt lat="14.404353519206444" lon="120.9042750701042"><ele>15.0</ele><time>2026-04-24T13:02:14Z</time></trkpt><trkpt lat="14.404425321153795" lon="120.90425187627567"><ele>14.8</ele><time>2026-04-24T13:02:15Z</time></trkpt><trkpt lat="14.40450586316785" lon="120.90422095860539"><ele>14.6</ele><time>2026-04-24T13:02:16Z</time></trkpt><trkpt lat="14.404601211661866" lon="120.90419237106254"><ele>14.399999999999999</ele><time>2026-04-24T13:02:17Z</time></trkpt><trkpt lat="14.404701754489759" lon="120.90416604868251"><ele>14.2</ele><time>2026-04-24T13:02:18Z</time></trkpt><trkpt lat="14.404797619232534" lon="120.90414090882189"><ele>14.0</ele><time>2026-04-24T13:02:19Z</time></trkpt><trkpt lat="14.404893783167775" lon="120.90411161881559"><ele>14.0</ele><time>2026-04-24T13:02:20Z</time></trkpt><trkpt lat="14.404987093493363" lon="120.90408368368377"><ele>13.999999999999998</ele><time>2026-04-24T13:02:21Z</time></trkpt><trkpt lat="14.405075500963925" lon="120.9040557515716"><ele>13.999999999999998</ele><time>2026-04-24T13:02:22Z</time></trkpt><trkpt lat="14.405169555027276" lon="120.90402501494967"><ele>14.0</ele><time>2026-04-24T13:02:23Z</time></trkpt><trkpt lat="14.405263422046275" lon="120.9039957915674"><ele>14.0</ele><time>2026-04-24T13:02:24Z</time></trkpt><trkpt lat="14.40536369229377" lon="120.90396186380063"><ele>14.0</ele><time>2026-04-24T13:02:25Z</time></trkpt><trkpt lat="14.405455584245644" lon="120.90393275817834"><ele>13.999999999999998</ele><time>2026-04-24T13:02:26Z</time></trkpt><trkpt lat="14.405552467692432" lon="120.90390034942354"><ele>13.999999999999998</ele><time>2026-04-24T13:02:27Z</time></trkpt><trkpt lat="14.405651705636114" lon="120.90386561261623"><ele>14.0</ele><time>2026-04-24T13:02:28Z</time></trkpt><trkpt lat="14.405750344547306" lon="120.90383321151427"><ele>14.0</ele><time>2026-04-24T13:02:29Z</time></trkpt><trkpt lat="14.405846871040232" lon="120.90380105421325"><ele>14.2</ele><time>2026-04-24T13:02:30Z</time></trkpt><trkpt lat="14.405941172080533" lon="120.90376675279023"><ele>14.399999999999999</ele><time>2026-04-24T13:02:31Z</time></trkpt><trkpt lat="14.40603868933186" lon="120.90373599130793"><ele>14.6</ele><time>2026-04-24T13:02:32Z</time></trkpt><trkpt lat="14.406138187017788" lon="120.90370415472592"><ele>14.8</ele><time>2026-04-24T13:02:33Z</time></trkpt><trkpt lat="14.406235352736058" lon="120.903669975829"><ele>15.0</ele><time>2026-04-24T13:02:34Z</time></trkpt><trkpt lat="14.406338430800247" lon="120.90363643303584"><ele>15.2</ele><time>2026-04-24T13:02:35Z</time></trkpt><trkpt lat="14.406435709338448" lon="120.90360266548812"><ele>15.4</ele><time>2026-04-24T13:02:36Z</time></trkpt><trkpt lat="14.40653268380301" lon="120.90356784976606"><ele>15.600000000000001</ele><time>2026-04-24T13:02:37Z</time></trkpt><trkpt lat="14.40663204727163" lon="120.90353487373454"><ele>15.8</ele><time>2026-04-24T13:02:38Z</time></trkpt><trkpt lat="14.406718199783054" lon="120.90349850411081"><ele>16.0</ele><time>2026-04-24T13:02:39Z</time></trkpt><trkpt lat="14.406809234782346" lon="120.90345759148795"><ele>16.0</ele><time>2026-04-24T13:02:40Z</time></trkpt><trkpt lat="14.406900877480703" lon="120.90341642673746"><ele>16.0</ele><time>2026-04-24T13:02:41Z</time></trkpt><trkpt lat="14.406990290280016" lon="120.90337772599204"><ele>16.0</ele><time>2026-04-24T13:02:42Z</time></trkpt><trkpt lat="14.407087882330705" lon="120.9033392205068"><ele>16.0</ele><time>2026-04-24T13:02:43Z</time></trkpt><trkpt lat="14.40718473697674" lon="120.90330755460514"><ele>16.0</ele><time>2026-04-24T13:02:44Z</time></trkpt><trkpt lat="14.40728390463045" lon="120.90327754725094"><ele>15.4</ele><time>2026-04-24T13:02:45Z</time></trkpt><trkpt lat="14.40737535336111" lon="120.90324337741015"><ele>14.8</ele><time>2026-04-24T13:02:46Z</time></trkpt><trkpt lat="14.407472131185303" lon="120.90320979147785"><ele>14.200000000000001</ele><time>2026-04-24T13:02:47Z</time></trkpt><trkpt lat="14.407563065352113" lon="120.90317534492833"><ele>13.600000000000001</ele><time>2026-04-24T13:02:48Z</time></trkpt><trkpt lat="14.407644611018373" lon="120.90314126844198"><ele>13.0</ele><time>2026-04-24T13:02:49Z</time></trkpt><trkpt lat="14.407732964444998" lon="120.9031039851324"><ele>13.0</ele><time>2026-04-24T13:02:50Z</time></trkpt><trkpt lat="14.407825854231206" lon="120.90306444481753"><ele>13.0</ele><time>2026-04-24T13:02:51Z</time></trkpt><trkpt lat="14.407924684942598" lon="120.9030249251884"><ele>13.0</ele><time>2026-04-24T13:02:52Z</time></trkpt><trkpt lat="14.408029454084618" lon="120.90298965419068"><ele>13.0</ele><time>2026-04-24T13:02:53Z</time></trkpt><trkpt lat="14.408140112335836" lon="120.90295381358544"><ele>13.0</ele><time>2026-04-24T13:02:54Z</time></trkpt><trkpt lat="14.408250963125278" lon="120.90291444653447"><ele>12.600000000000001</ele><time>2026-04-24T13:02:55Z</time></trkpt><trkpt lat="14.408359562070922" lon="120.90287356513886"><ele>12.200000000000001</ele><time>2026-04-24T13:02:56Z</time></trkpt><trkpt lat="14.40847447767948" lon="120.90283331298541"><ele>11.8</ele><time>2026-04-24T13:02:57Z</time></trkpt><trkpt lat="14.408570249512824" lon="120.90280193581091"><ele>11.4</ele><time>2026-04-24T13:02:58Z</time></trkpt><trkpt lat="14.408670100379908" lon="120.90277329467446"><ele>11.0</ele><time>2026-04-24T13:02:59Z</time></trkpt><trkpt lat="14.408756011330038" lon="120.90274117653637"><ele>11.4</ele><time>2026-04-24T13:03:00Z</time></trkpt><trkpt lat="14.408849547190863" lon="120.90270264082383"><ele>11.8</ele><time>2026-04-24T13:03:01Z</time></trkpt><trkpt lat="14.408940855023701" lon="120.90266193439442"><ele>12.200000000000001</ele><time>2026-04-24T13:03:02Z</time></trkpt><trkpt lat="14.409037136730653" lon="120.90263030998429"><ele>12.600000000000001</ele><time>2026-04-24T13:03:03Z</time></trkpt><trkpt lat="14.409129380364694" lon="120.90259434432849"><ele>13.0</ele><time>2026-04-24T13:03:04Z</time></trkpt><trkpt lat="14.409217510490981" lon="120.902558518251"><ele>12.999999999999998</ele><time>2026-04-24T13:03:05Z</time></trkpt><trkpt lat="14.409294513573657" lon="120.90252841730043"><ele>13.0</ele><time>2026-04-24T13:03:06Z</time></trkpt><trkpt lat="14.409359140013295" lon="120.90250908557375"><ele>13.0</ele><time>2026-04-24T13:03:07Z</time></trkpt><trkpt lat="14.409474339155791" lon="120.90247982748174"><ele>13.0</ele><time>2026-04-24T13:03:09Z</time></trkpt><trkpt lat="14.409550591616709" lon="120.902449838834"><ele>12.999999999999998</ele><time>2026-04-24T13:03:10Z</time></trkpt><trkpt lat="14.409632110600215" lon="120.90242126182488"><ele>13.0</ele><time>2026-04-24T13:03:11Z</time></trkpt><trkpt lat="14.409719221380978" lon="120.9023998575335"><ele>13.499999999999998</ele><time>2026-04-24T13:03:12Z</time></trkpt><trkpt lat="14.409804533577539" lon="120.90237450196749"><ele>14.0</ele><time>2026-04-24T13:03:13Z</time></trkpt><trkpt lat="14.409879303405965" lon="120.90234826688926"><ele>14.5</ele><time>2026-04-24T13:03:14Z</time></trkpt><trkpt lat="14.409964425717414" lon="120.9023293120538"><ele>15.0</ele><time>2026-04-24T13:03:15Z</time></trkpt><trkpt lat="14.410044676315135" lon="120.90231268931349"><ele>15.499999999999998</ele><time>2026-04-24T13:03:16Z</time></trkpt><trkpt lat="14.410131558995568" lon="120.90228933349034"><ele>16.0</ele><time>2026-04-24T13:03:17Z</time></trkpt><trkpt lat="14.410233049649419" lon="120.90226739245179"><ele>16.0</ele><time>2026-04-24T13:03:18Z</time></trkpt><trkpt lat="14.410331389427379" lon="120.90224962041563"><ele>16.0</ele><time>2026-04-24T13:03:19Z</time></trkpt><trkpt lat="14.410438394284178" lon="120.90222179652763"><ele>16.0</ele><time>2026-04-24T13:03:20Z</time></trkpt><trkpt lat="14.410547385032867" lon="120.90219019979972"><ele>16.0</ele><time>2026-04-24T13:03:21Z</time></trkpt><trkpt lat="14.410660307875151" lon="120.90216010220142"><ele>16.0</ele><time>2026-04-24T13:03:22Z</time></trkpt><trkpt lat="14.410772439173494" lon="120.9021325718238"><ele>15.0</ele><time>2026-04-24T13:03:23Z</time></trkpt><trkpt lat="14.410888654120805" lon="120.90210255614892"><ele>14.0</ele><time>2026-04-24T13:03:24Z</time></trkpt><trkpt lat="14.411000290937551" lon="120.9020749236503"><ele>13.0</ele><time>2026-04-24T13:03:25Z</time></trkpt><trkpt lat="14.411107821129217" lon="120.90204320494668"><ele>12.0</ele><time>2026-04-24T13:03:26Z</time></trkpt><trkpt lat="14.411215068643669" lon="120.90200597922045"><ele>11.5</ele><time>2026-04-24T13:03:27Z</time></trkpt><trkpt lat="14.411331548885181" lon="120.9019611542573"><ele>11.0</ele><time>2026-04-24T13:03:28Z</time></trkpt><trkpt lat="14.411439660065021" lon="120.9019199279655"><ele>10.5</ele><time>2026-04-24T13:03:29Z</time></trkpt><trkpt lat="14.411553859894699" lon="120.901873094035"><ele>10.0</ele><time>2026-04-24T13:03:30Z</time></trkpt><trkpt lat="14.411675874133358" lon="120.90181820627447"><ele>10.0</ele><time>2026-04-24T13:03:31Z</time></trkpt><trkpt lat="14.411793552040184" lon="120.90176825391353"><ele>10.0</ele><time>2026-04-24T13:03:32Z</time></trkpt><trkpt lat="14.411917917501231" lon="120.90171710203138"><ele>10.0</ele><time>2026-04-24T13:03:33Z</time></trkpt><trkpt lat="14.412043274039043" lon="120.9016694083855"><ele>10.0</ele><time>2026-04-24T13:03:34Z</time></trkpt><trkpt lat="14.412165761861031" lon="120.90162498936844"><ele>10.25</ele><time>2026-04-24T13:03:35Z</time></trkpt><trkpt lat="14.412291261266446" lon="120.90157163363078"><ele>10.5</ele><time>2026-04-24T13:03:36Z</time></trkpt><trkpt lat="14.412416666235826" lon="120.90151925593207"><ele>10.75</ele><time>2026-04-24T13:03:37Z</time></trkpt><trkpt lat="14.41253919674476" lon="120.90147449355995"><ele>11.0</ele><time>2026-04-24T13:03:38Z</time></trkpt><trkpt lat="14.412660271139208" lon="120.90142458394443"><ele>11.0</ele><time>2026-04-24T13:03:39Z</time></trkpt><trkpt lat="14.412777889596242" lon="120.90137919036981"><ele>11.0</ele><time>2026-04-24T13:03:40Z</time></trkpt><trkpt lat="14.41289308501748" lon="120.9013287076486"><ele>11.0</ele><time>2026-04-24T13:03:41Z</time></trkpt><trkpt lat="14.413007175954224" lon="120.90128066624057"><ele>11.0</ele><time>2026-04-24T13:03:42Z</time></trkpt><trkpt lat="14.413121088812414" lon="120.90123289913561"><ele>10.75</ele><time>2026-04-24T13:03:43Z</time></trkpt><trkpt lat="14.413238016160788" lon="120.90118387567777"><ele>10.5</ele><time>2026-04-24T13:03:44Z</time></trkpt><trkpt lat="14.413355327875943" lon="120.90113479728087"><ele>10.25</ele><time>2026-04-24T13:03:45Z</time></trkpt><trkpt lat="14.413471876297168" lon="120.90108690877891"><ele>10.0</ele><time>2026-04-24T13:03:46Z</time></trkpt><trkpt lat="14.413582449645855" lon="120.90103851468092"><ele>10.0</ele><time>2026-04-24T13:03:47Z</time></trkpt><trkpt lat="14.413681914589695" lon="120.90099999324109"><ele>10.0</ele><time>2026-04-24T13:03:48Z</time></trkpt><trkpt lat="14.413776162398916" lon="120.90095942093281"><ele>10.0</ele><time>2026-04-24T13:03:49Z</time></trkpt><trkpt lat="14.413873771091652" lon="120.90092294589749"><ele>10.0</ele><time>2026-04-24T13:03:50Z</time></trkpt><trkpt lat="14.413971692474636" lon="120.90089380636444"><ele>10.0</ele><time>2026-04-24T13:03:51Z</time></trkpt><trkpt lat="14.414079727359763" lon="120.90084789022423"><ele>9.6</ele><time>2026-04-24T13:03:52Z</time></trkpt><trkpt lat="14.414177142709287" lon="120.90081567419239"><ele>9.2</ele><time>2026-04-24T13:03:53Z</time></trkpt><trkpt lat="14.414274667536244" lon="120.90078399585391"><ele>8.8</ele><time>2026-04-24T13:03:54Z</time></trkpt><trkpt lat="14.41438117066835" lon="120.90074498553963"><ele>8.4</ele><time>2026-04-24T13:03:55Z</time></trkpt><trkpt lat="14.414486590053702" lon="120.90070782190213"><ele>8.0</ele><time>2026-04-24T13:03:56Z</time></trkpt><trkpt lat="14.414585321634588" lon="120.90067066591628"><ele>8.0</ele><time>2026-04-24T13:03:57Z</time></trkpt><trkpt lat="14.414670385865026" lon="120.90064134809869"><ele>8.0</ele><time>2026-04-24T13:03:58Z</time></trkpt><trkpt lat="14.414752922098716" lon="120.90061168184327"><ele>8.0</ele><time>2026-04-24T13:03:59Z</time></trkpt><trkpt lat="14.414837456430854" lon="120.90058339759425"><ele>8.0</ele><time>2026-04-24T13:04:00Z</time></trkpt><trkpt lat="14.414935914811608" lon="120.90055312890888"><ele>8.0</ele><time>2026-04-24T13:04:01Z</time></trkpt><trkpt lat="14.415031873502762" lon="120.90052440209475"><ele>8.0</ele><time>2026-04-24T13:04:02Z</time></trkpt><trkpt lat="14.41513685683398" lon="120.90048987823788"><ele>8.0</ele><time>2026-04-24T13:04:03Z</time></trkpt><trkpt lat="14.415240369309466" lon="120.90045193905492"><ele>8.0</ele><time>2026-04-24T13:04:04Z</time></trkpt><trkpt lat="14.415349584448872" lon="120.90040964443692"><ele>8.0</ele><time>2026-04-24T13:04:05Z</time></trkpt><trkpt lat="14.415455244320974" lon="120.90036874883398"><ele>8.0</ele><time>2026-04-24T13:04:06Z</time></trkpt><trkpt lat="14.415562874868554" lon="120.90032586269655"><ele>8.0</ele><time>2026-04-24T13:04:07Z</time></trkpt><trkpt lat="14.415673967393621" lon="120.90028988920695"><ele>8.0</ele><time>2026-04-24T13:04:08Z</time></trkpt><trkpt lat="14.415775470278048" lon="120.90025361137873"><ele>8.0</ele><time>2026-04-24T13:04:09Z</time></trkpt><trkpt lat="14.415882529242046" lon="120.90021903911901"><ele>8.0</ele><time>2026-04-24T13:04:10Z</time></trkpt><trkpt lat="14.415994229244935" lon="120.90017976043768"><ele>8.0</ele><time>2026-04-24T13:04:11Z</time></trkpt><trkpt lat="14.416106021184861" lon="120.90014005913156"><ele>8.0</ele><time>2026-04-24T13:04:12Z</time></trkpt><trkpt lat="14.416218324956017" lon="120.90010438222646"><ele>8.0</ele><time>2026-04-24T13:04:13Z</time></trkpt><trkpt lat="14.416327325276178" lon="120.90007051017558"><ele>8.0</ele><time>2026-04-24T13:04:14Z</time></trkpt><trkpt lat="14.416430308657187" lon="120.90003146532447"><ele>8.4</ele><time>2026-04-24T13:04:15Z</time></trkpt><trkpt lat="14.416523337736738" lon="120.90000011334384"><ele>8.8</ele><time>2026-04-24T13:04:16Z</time></trkpt><trkpt lat="14.416616299666337" lon="120.89997198528968"><ele>9.2</ele><time>2026-04-24T13:04:17Z</time></trkpt><trkpt lat="14.416704600706906" lon="120.89994328497828"><ele>9.6</ele><time>2026-04-24T13:04:18Z</time></trkpt><trkpt lat="14.416788556373865" lon="120.89991698447122"><ele>10.0</ele><time>2026-04-24T13:04:19Z</time></trkpt><trkpt lat="14.416862885589238" lon="120.89989793067343"><ele>10.0</ele><time>2026-04-24T13:04:20Z</time></trkpt><trkpt lat="14.41694038170961" lon="120.89987693380142"><ele>10.0</ele><time>2026-04-24T13:04:21Z</time></trkpt><trkpt lat="14.417014582806146" lon="120.89985194464444"><ele>10.0</ele><time>2026-04-24T13:04:22Z</time></trkpt><trkpt lat="14.417087945884665" lon="120.89982622430422"><ele>10.0</ele><time>2026-04-24T13:04:23Z</time></trkpt><trkpt lat="14.41716140638878" lon="120.89980396761403"><ele>10.0</ele><time>2026-04-24T13:04:24Z</time></trkpt><trkpt lat="14.417235436587909" lon="120.89978594778007"><ele>10.0</ele><time>2026-04-24T13:04:25Z</time></trkpt><trkpt lat="14.417297600674003" lon="120.89976402849751"><ele>10.166666666666668</ele><time>2026-04-24T13:04:26Z</time></trkpt><trkpt lat="14.417379396160065" lon="120.89973480894854"><ele>10.333333333333334</ele><time>2026-04-24T13:04:28Z</time></trkpt><trkpt lat="14.417442261330965" lon="120.89971245016366"><ele>10.5</ele><time>2026-04-24T13:04:31.001Z</time></trkpt><trkpt lat="14.41752297310532" lon="120.89968690455422"><ele>10.666666666666666</ele><time>2026-04-24T13:04:35.001Z</time></trkpt><trkpt lat="14.417613252177613" lon="120.8996499913367"><ele>10.833333333333332</ele><time>2026-04-24T13:04:37Z</time></trkpt><trkpt lat="14.417680925050691" lon="120.8996219876083"><ele>11.0</ele><time>2026-04-24T13:04:38Z</time></trkpt><trkpt lat="14.41775894136195" lon="120.8995926410251"><ele>11.0</ele><time>2026-04-24T13:04:39Z</time></trkpt><trkpt lat="14.41785077542732" lon="120.89955656971756"><ele>11.0</ele><time>2026-04-24T13:04:40Z</time></trkpt><trkpt lat="14.417952698056052" lon="120.89951402163732"><ele>11.0</ele><time>2026-04-24T13:04:41Z</time></trkpt><trkpt lat="14.418062766561" lon="120.8994693903466"><ele>11.0</ele><time>2026-04-24T13:04:42Z</time></trkpt><trkpt lat="14.418176360315544" lon="120.89942229063116"><ele>11.0</ele><time>2026-04-24T13:04:43Z</time></trkpt><trkpt lat="14.418296113935531" lon="120.89937097214171"><ele>11.0</ele><time>2026-04-24T13:04:44Z</time></trkpt><trkpt lat="14.418421159701598" lon="120.89931993755421"><ele>11.0</ele><time>2026-04-24T13:04:45Z</time></trkpt><trkpt lat="14.418545378292178" lon="120.8992668601316"><ele>11.0</ele><time>2026-04-24T13:04:46Z</time></trkpt><trkpt lat="14.41867057485777" lon="120.89921453953714"><ele>11.0</ele><time>2026-04-24T13:04:47Z</time></trkpt><trkpt lat="14.418798395972553" lon="120.89916483260778"><ele>10.75</ele><time>2026-04-24T13:04:48Z</time></trkpt><trkpt lat="14.418915734455107" lon="120.89911351572472"><ele>10.5</ele><time>2026-04-24T13:04:49Z</time></trkpt><trkpt lat="14.41903480023285" lon="120.89905659451513"><ele>10.25</ele><time>2026-04-24T13:04:50Z</time></trkpt><trkpt lat="14.419157211656302" lon="120.89900280429548"><ele>10.0</ele><time>2026-04-24T13:04:51Z</time></trkpt><trkpt lat="14.419279246661858" lon="120.89895047682054"><ele>10.0</ele><time>2026-04-24T13:04:52Z</time></trkpt><trkpt lat="14.419404805429298" lon="120.89889875591865"><ele>10.0</ele><time>2026-04-24T13:04:53Z</time></trkpt><trkpt lat="14.419530292140278" lon="120.89884895046568"><ele>10.0</ele><time>2026-04-24T13:04:54Z</time></trkpt><trkpt lat="14.419654449047913" lon="120.89879766927477"><ele>10.0</ele><time>2026-04-24T13:04:55Z</time></trkpt><trkpt lat="14.419780226548086" lon="120.89874947612226"><ele>9.5</ele><time>2026-04-24T13:04:56Z</time></trkpt><trkpt lat="14.419909017270701" lon="120.89870468490612"><ele>9.0</ele><time>2026-04-24T13:04:57Z</time></trkpt><trkpt lat="14.420037287828015" lon="120.89865856675044"><ele>8.5</ele><time>2026-04-24T13:04:58Z</time></trkpt><trkpt lat="14.420170472294236" lon="120.89861437067367"><ele>8.0</ele><time>2026-04-24T13:04:59Z</time></trkpt><trkpt lat="14.420306333422523" lon="120.89857038435473"><ele>8.0</ele><time>2026-04-24T13:05:00Z</time></trkpt><trkpt lat="14.420438374366837" lon="120.8985308201127"><ele>8.0</ele><time>2026-04-24T13:05:01Z</time></trkpt><trkpt lat="14.42057473286479" lon="120.89848863013171"><ele>8.0</ele><time>2026-04-24T13:05:02Z</time></trkpt><trkpt lat="14.420710672615694" lon="120.89844833630816"><ele>8.0</ele><time>2026-04-24T13:05:03Z</time></trkpt><trkpt lat="14.420853382539734" lon="120.89841073711483"><ele>8.0</ele><time>2026-04-24T13:05:04Z</time></trkpt><trkpt lat="14.420989347180518" lon="120.89836573708682"><ele>8.0</ele><time>2026-04-24T13:05:05Z</time></trkpt><trkpt lat="14.421119063804987" lon="120.89833097822799"><ele>8.0</ele><time>2026-04-24T13:05:06Z</time></trkpt><trkpt lat="14.421255024494835" lon="120.89829609664336"><ele>8.0</ele><time>2026-04-24T13:05:07Z</time></trkpt><trkpt lat="14.421387251721757" lon="120.89825497821397"><ele>8.0</ele><time>2026-04-24T13:05:08Z</time></trkpt><trkpt lat="14.42151160326071" lon="120.89822270907716"><ele>8.0</ele><time>2026-04-24T13:05:09Z</time></trkpt><trkpt lat="14.421644798047284" lon="120.89819146680422"><ele>8.0</ele><time>2026-04-24T13:05:10Z</time></trkpt><trkpt lat="14.421772297985633" lon="120.8981606114235"><ele>8.0</ele><time>2026-04-24T13:05:11Z</time></trkpt><trkpt lat="14.421905837918436" lon="120.89813362514627"><ele>8.0</ele><time>2026-04-24T13:05:12Z</time></trkpt><trkpt lat="14.422040022311394" lon="120.89810890383939"><ele>8.0</ele><time>2026-04-24T13:05:13Z</time></trkpt><trkpt lat="14.42217370415235" lon="120.89808173850577"><ele>8.0</ele><time>2026-04-24T13:05:14Z</time></trkpt><trkpt lat="14.422308314851938" lon="120.89805579640863"><ele>8.0</ele><time>2026-04-24T13:05:15Z</time></trkpt><trkpt lat="14.422442882426344" lon="120.8980296560773"><ele>8.0</ele><time>2026-04-24T13:05:16Z</time></trkpt><trkpt lat="14.422579804179712" lon="120.89800300035498"><ele>8.0</ele><time>2026-04-24T13:05:17Z</time></trkpt><trkpt lat="14.422719546020085" lon="120.89797462132606"><ele>8.0</ele><time>2026-04-24T13:05:18Z</time></trkpt><trkpt lat="14.422863397817343" lon="120.89794527020257"><ele>8.0</ele><time>2026-04-24T13:05:19Z</time></trkpt><trkpt lat="14.423007372373252" lon="120.89791668808424"><ele>8.0</ele><time>2026-04-24T13:05:20Z</time></trkpt><trkpt lat="14.423156563129698" lon="120.89789146059573"><ele>8.0</ele><time>2026-04-24T13:05:21Z</time></trkpt><trkpt lat="14.423297101530187" lon="120.89786371776744"><ele>8.0</ele><time>2026-04-24T13:05:22Z</time></trkpt><trkpt lat="14.423435195301726" lon="120.89783833971669"><ele>8.0</ele><time>2026-04-24T13:05:23Z</time></trkpt><trkpt lat="14.423566902830474" lon="120.89781507120439"><ele>8.0</ele><time>2026-04-24T13:05:24Z</time></trkpt><trkpt lat="14.423700939329011" lon="120.89778658902502"><ele>8.0</ele><time>2026-04-24T13:05:25Z</time></trkpt><trkpt lat="14.423825546548851" lon="120.89774981320431"><ele>8.0</ele><time>2026-04-24T13:05:26Z</time></trkpt><trkpt lat="14.423951075254566" lon="120.89771098225512"><ele>8.0</ele><time>2026-04-24T13:05:27Z</time></trkpt><trkpt lat="14.424066730338208" lon="120.89767684155673"><ele>8.4</ele><time>2026-04-24T13:05:28Z</time></trkpt><trkpt lat="14.424169866794715" lon="120.89763986458686"><ele>8.8</ele><time>2026-04-24T13:05:29Z</time></trkpt><trkpt lat="14.424263640199001" lon="120.89759028207008"><ele>9.2</ele><time>2026-04-24T13:05:30Z</time></trkpt><trkpt lat="14.42435977579824" lon="120.8975463423277"><ele>9.6</ele><time>2026-04-24T13:05:31Z</time></trkpt><trkpt lat="14.424437530605946" lon="120.89745273789191"><ele>10.0</ele><time>2026-04-24T13:05:32Z</time></trkpt><trkpt lat="14.42452613103765" lon="120.89736824014327"><ele>10.0</ele><time>2026-04-24T13:05:33Z</time></trkpt><trkpt lat="14.424610695301899" lon="120.89728473361782"><ele>10.0</ele><time>2026-04-24T13:05:34Z</time></trkpt><trkpt lat="14.424701974816875" lon="120.89719744858184"><ele>10.0</ele><time>2026-04-24T13:05:35Z</time></trkpt><trkpt lat="14.424796127265395" lon="120.89710752252276"><ele>10.0</ele><time>2026-04-24T13:05:36Z</time></trkpt><trkpt lat="14.424891662613392" lon="120.89701652654095"><ele>10.0</ele><time>2026-04-24T13:05:37Z</time></trkpt><trkpt lat="14.4249892511364" lon="120.89692370328613"><ele>10.0</ele><time>2026-04-24T13:05:38Z</time></trkpt><trkpt lat="14.42509096112429" lon="120.89683320494753"><ele>10.0</ele><time>2026-04-24T13:05:39Z</time></trkpt><trkpt lat="14.425194103070298" lon="120.89673586640528"><ele>10.0</ele><time>2026-04-24T13:05:40Z</time></trkpt><trkpt lat="14.425299852175003" lon="120.89663229512523"><ele>9.0</ele><time>2026-04-24T13:05:41Z</time></trkpt><trkpt lat="14.425408027210072" lon="120.89652947528296"><ele>8.0</ele><time>2026-04-24T13:05:42Z</time></trkpt><trkpt lat="14.425515978951967" lon="120.89642228791914"><ele>7.0</ele><time>2026-04-24T13:05:43Z</time></trkpt><trkpt lat="14.425626302107093" lon="120.89631749673342"><ele>6.0</ele><time>2026-04-24T13:05:44Z</time></trkpt><trkpt lat="14.425731343236675" lon="120.89621399609838"><ele>6.0</ele><time>2026-04-24T13:05:45Z</time></trkpt><trkpt lat="14.425837897543957" lon="120.89610907684991"><ele>6.0</ele><time>2026-04-24T13:05:46Z</time></trkpt><trkpt lat="14.425939533789467" lon="120.89600645490391"><ele>6.0</ele><time>2026-04-24T13:05:47Z</time></trkpt><trkpt lat="14.426043343587203" lon="120.89590632622958"><ele>6.0</ele><time>2026-04-24T13:05:48Z</time></trkpt><trkpt lat="14.426146125485568" lon="120.89580949369005"><ele>6.25</ele><time>2026-04-24T13:05:49Z</time></trkpt><trkpt lat="14.426254828843682" lon="120.89571103757787"><ele>6.5</ele><time>2026-04-24T13:05:50Z</time></trkpt><trkpt lat="14.426357590101661" lon="120.89560987424642"><ele>6.75</ele><time>2026-04-24T13:05:51Z</time></trkpt><trkpt lat="14.426462593848704" lon="120.89551304803796"><ele>7.0</ele><time>2026-04-24T13:05:52Z</time></trkpt><trkpt lat="14.426563920895601" lon="120.89541127829365"><ele>7.0</ele><time>2026-04-24T13:05:53Z</time></trkpt><trkpt lat="14.426664653928393" lon="120.89532005531575"><ele>7.0</ele><time>2026-04-24T13:05:54Z</time></trkpt><trkpt lat="14.426760701343024" lon="120.89522998170723"><ele>7.0</ele><time>2026-04-24T13:05:55Z</time></trkpt><trkpt lat="14.426855988043217" lon="120.89513537921356"><ele>7.0</ele><time>2026-04-24T13:05:56Z</time></trkpt><trkpt lat="14.426955894367522" lon="120.89504035614611"><ele>6.75</ele><time>2026-04-24T13:05:57Z</time></trkpt><trkpt lat="14.427055335393144" lon="120.89493873412016"><ele>6.5</ele><time>2026-04-24T13:05:58Z</time></trkpt><trkpt lat="14.427156146218499" lon="120.89484116978251"><ele>6.25</ele><time>2026-04-24T13:05:59Z</time></trkpt><trkpt lat="14.427252532933483" lon="120.8947489615672"><ele>6.0</ele><time>2026-04-24T13:06:00Z</time></trkpt><trkpt lat="14.427338239104984" lon="120.89466497819934"><ele>6.0</ele><time>2026-04-24T13:06:01Z</time></trkpt><trkpt lat="14.427423473807806" lon="120.89458182251269"><ele>6.0</ele><time>2026-04-24T13:06:02Z</time></trkpt><trkpt lat="14.427510209997768" lon="120.89452423672456"><ele>6.0</ele><time>2026-04-24T13:06:03Z</time></trkpt><trkpt lat="14.42758489228874" lon="120.89445655081269"><ele>6.0</ele><time>2026-04-24T13:06:04Z</time></trkpt><trkpt lat="14.427651206789026" lon="120.89439618905452"><ele>6.0</ele><time>2026-04-24T13:06:05Z</time></trkpt><trkpt lat="14.427703324880556" lon="120.89434870611763"><ele>6.0</ele><time>2026-04-24T13:06:06Z</time></trkpt><trkpt lat="14.42777605241782" lon="120.8942543567129"><ele>6.0</ele><time>2026-04-24T13:06:08Z</time></trkpt><trkpt lat="14.427843634363834" lon="120.89419645997432"><ele>6.0</ele><time>2026-04-24T13:06:10Z</time></trkpt><trkpt lat="14.427901734658004" lon="120.89414787650071"><ele>6.0</ele><time>2026-04-24T13:06:12Z</time></trkpt><trkpt lat="14.427952182086713" lon="120.89409336703602"><ele>6.0</ele><time>2026-04-24T13:06:15Z</time></trkpt><trkpt lat="14.428007794593253" lon="120.89405184001689"><ele>6.0</ele><time>2026-04-24T13:06:17Z</time></trkpt><trkpt lat="14.42807093010744" lon="120.8939847796959"><ele>6.0</ele><time>2026-04-24T13:06:19Z</time></trkpt><trkpt lat="14.428123401332822" lon="120.89393516860603"><ele>6.0</ele><time>2026-04-24T13:06:21Z</time></trkpt><trkpt lat="14.428226116790213" lon="120.89391808051269"><ele>6.0</ele><time>2026-04-24T13:06:23Z</time></trkpt><trkpt lat="14.428297589719854" lon="120.89390774271513"><ele>6.0</ele><time>2026-04-24T13:06:26Z</time></trkpt><trkpt lat="14.42834541431378" lon="120.89396960156957"><ele>6.0</ele><time>2026-04-24T13:06:29Z</time></trkpt><trkpt lat="14.428407139335153" lon="120.89402373348972"><ele>6.0</ele><time>2026-04-24T13:07:13Z</time></trkpt><trkpt lat="14.428485734189524" lon="120.89409274134476"><ele>6.0</ele><time>2026-04-24T13:07:15Z</time></trkpt><trkpt lat="14.428535021417739" lon="120.89413929620542"><ele>6.0</ele><time>2026-04-24T13:07:16Z</time></trkpt><trkpt lat="14.428597942834996" lon="120.89419958267275"><ele>6.0</ele><time>2026-04-24T13:07:17Z</time></trkpt><trkpt lat="14.428658487438101" lon="120.8942656841933"><ele>6.0</ele><time>2026-04-24T13:07:18Z</time></trkpt><trkpt lat="14.428730582231271" lon="120.89433932990697"><ele>6.0</ele><time>2026-04-24T13:07:19Z</time></trkpt><trkpt lat="14.428799990369471" lon="120.89441973626938"><ele>6.0</ele><time>2026-04-24T13:07:20Z</time></trkpt><trkpt lat="14.428882104410492" lon="120.89451203581896"><ele>6.25</ele><time>2026-04-24T13:07:21Z</time></trkpt><trkpt lat="14.428964968718395" lon="120.89459973454598"><ele>6.5</ele><time>2026-04-24T13:07:22Z</time></trkpt><trkpt lat="14.429053348058508" lon="120.89469309633101"><ele>6.75</ele><time>2026-04-24T13:07:23Z</time></trkpt><trkpt lat="14.429148874821443" lon="120.89479842530378"><ele>7.0</ele><time>2026-04-24T13:07:24Z</time></trkpt><trkpt lat="14.42924221305785" lon="120.89489716882751"><ele>7.0</ele><time>2026-04-24T13:07:25Z</time></trkpt><trkpt lat="14.429337541255668" lon="120.89499913266033"><ele>7.0</ele><time>2026-04-24T13:07:26Z</time></trkpt><trkpt lat="14.429432623147356" lon="120.89510089142408"><ele>7.0</ele><time>2026-04-24T13:07:27Z</time></trkpt><trkpt lat="14.429529153499654" lon="120.89520430694195"><ele>7.0</ele><time>2026-04-24T13:07:28Z</time></trkpt><trkpt lat="14.429625837004208" lon="120.89530600116142"><ele>6.75</ele><time>2026-04-24T13:07:29Z</time></trkpt><trkpt lat="14.429714176917521" lon="120.89540068673143"><ele>6.5</ele><time>2026-04-24T13:07:30Z</time></trkpt><trkpt lat="14.429801151710105" lon="120.89549677991731"><ele>6.25</ele><time>2026-04-24T13:07:31Z</time></trkpt><trkpt lat="14.42988925516032" lon="120.89558731811742"><ele>6.0</ele><time>2026-04-24T13:07:32Z</time></trkpt><trkpt lat="14.429977461998652" lon="120.89567373322512"><ele>6.0</ele><time>2026-04-24T13:07:33Z</time></trkpt><trkpt lat="14.430067616599311" lon="120.89577181885296"><ele>6.0</ele><time>2026-04-24T13:07:34Z</time></trkpt><trkpt lat="14.430157703107046" lon="120.89586015565301"><ele>6.0</ele><time>2026-04-24T13:07:35Z</time></trkpt><trkpt lat="14.430240940294642" lon="120.89594963368111"><ele>6.0</ele><time>2026-04-24T13:07:36Z</time></trkpt><trkpt lat="14.430316242535817" lon="120.89603188520864"><ele>6.25</ele><time>2026-04-24T13:07:37Z</time></trkpt><trkpt lat="14.430393566969158" lon="120.89610970001216"><ele>6.5</ele><time>2026-04-24T13:07:38Z</time></trkpt><trkpt lat="14.430470084609079" lon="120.89619236703784"><ele>6.75</ele><time>2026-04-24T13:07:39Z</time></trkpt><trkpt lat="14.430547551814984" lon="120.89627612782463"><ele>7.0</ele><time>2026-04-24T13:07:40Z</time></trkpt><trkpt lat="14.430630523486789" lon="120.8963643728246"><ele>7.0</ele><time>2026-04-24T13:07:41Z</time></trkpt><trkpt lat="14.430708131327142" lon="120.8964525975722"><ele>6.999999999999999</ele><time>2026-04-24T13:07:42Z</time></trkpt><trkpt lat="14.430779261615314" lon="120.89653503340708"><ele>6.999999999999999</ele><time>2026-04-24T13:07:43Z</time></trkpt><trkpt lat="14.430846488047218" lon="120.89660971015884"><ele>7.0</ele><time>2026-04-24T13:07:44Z</time></trkpt><trkpt lat="14.430904350733577" lon="120.89667585290373"><ele>7.0</ele><time>2026-04-24T13:07:45Z</time></trkpt><trkpt lat="14.430961630054195" lon="120.8967390658426"><ele>7.0</ele><time>2026-04-24T13:07:46Z</time></trkpt><trkpt lat="14.431019950961923" lon="120.89680668540237"><ele>6.999999999999999</ele><time>2026-04-24T13:07:47Z</time></trkpt><trkpt lat="14.431064060570565" lon="120.89686609161953"><ele>6.999999999999999</ele><time>2026-04-24T13:07:48Z</time></trkpt><trkpt lat="14.431141233987512" lon="120.8969653632935"><ele>7.0</ele><time>2026-04-24T13:07:50Z</time></trkpt><trkpt lat="14.431189210476575" lon="120.89701677395706"><ele>7.0</ele><time>2026-04-24T13:07:51Z</time></trkpt><trkpt lat="14.431278721262506" lon="120.89712788736259"><ele>7.3999999999999995</ele><time>2026-04-24T13:07:53Z</time></trkpt><trkpt lat="14.43133110508944" lon="120.89719229213176"><ele>7.799999999999999</ele><time>2026-04-24T13:07:54Z</time></trkpt><trkpt lat="14.431396522069369" lon="120.89726037226764"><ele>8.2</ele><time>2026-04-24T13:07:55Z</time></trkpt><trkpt lat="14.431473274742588" lon="120.89733954217374"><ele>8.6</ele><time>2026-04-24T13:07:56Z</time></trkpt><trkpt lat="14.431551046519193" lon="120.89742037573333"><ele>9.0</ele><time>2026-04-24T13:07:57Z</time></trkpt><trkpt lat="14.431631197050041" lon="120.8975103408268"><ele>9.75</ele><time>2026-04-24T13:07:58Z</time></trkpt><trkpt lat="14.431713032351217" lon="120.89760237991663"><ele>10.5</ele><time>2026-04-24T13:07:59Z</time></trkpt><trkpt lat="14.431798419110587" lon="120.89769754765838"><ele>11.25</ele><time>2026-04-24T13:08:00Z</time></trkpt><trkpt lat="14.431881506654724" lon="120.89779775629351"><ele>12.0</ele><time>2026-04-24T13:08:01Z</time></trkpt><trkpt lat="14.431962573424862" lon="120.89790067125372"><ele>12.0</ele><time>2026-04-24T13:08:02Z</time></trkpt><trkpt lat="14.432046932771987" lon="120.89800674585564"><ele>12.0</ele><time>2026-04-24T13:08:03Z</time></trkpt><trkpt lat="14.43213254364194" lon="120.89810894509985"><ele>12.0</ele><time>2026-04-24T13:08:04Z</time></trkpt><trkpt lat="14.432217065443181" lon="120.8982120990334"><ele>12.0</ele><time>2026-04-24T13:08:05Z</time></trkpt><trkpt lat="14.43229928437181" lon="120.8983204319232"><ele>10.5</ele><time>2026-04-24T13:08:06Z</time></trkpt><trkpt lat="14.432378356582348" lon="120.89842140236513"><ele>9.0</ele><time>2026-04-24T13:08:07Z</time></trkpt><trkpt lat="14.432455161751609" lon="120.89851800728614"><ele>7.5</ele><time>2026-04-24T13:08:08Z</time></trkpt><trkpt lat="14.432525346871563" lon="120.89860940000042"><ele>6.0</ele><time>2026-04-24T13:08:09Z</time></trkpt><trkpt lat="14.432583943080253" lon="120.89869111497087"><ele>6.0</ele><time>2026-04-24T13:08:10Z</time></trkpt><trkpt lat="14.432635094980512" lon="120.89876482606296"><ele>6.0</ele><time>2026-04-24T13:08:11Z</time></trkpt><trkpt lat="14.432678787542109" lon="120.89883127853514"><ele>6.0</ele><time>2026-04-24T13:08:12Z</time></trkpt><trkpt lat="14.432723469683333" lon="120.89889479632264"><ele>6.0</ele><time>2026-04-24T13:08:13Z</time></trkpt><trkpt lat="14.432770961009615" lon="120.89895880977735"><ele>6.0</ele><time>2026-04-24T13:08:14Z</time></trkpt><trkpt lat="14.432826662340224" lon="120.89902877099051"><ele>6.0</ele><time>2026-04-24T13:08:15Z</time></trkpt><trkpt lat="14.43288514743252" lon="120.89909816491497"><ele>6.0</ele><time>2026-04-24T13:08:16Z</time></trkpt><trkpt lat="14.432940510420453" lon="120.89917005179034"><ele>6.0</ele><time>2026-04-24T13:08:17Z</time></trkpt><trkpt lat="14.432997431947408" lon="120.89925092194825"><ele>6.0</ele><time>2026-04-24T13:08:18Z</time></trkpt><trkpt lat="14.433050853776052" lon="120.89933255143288"><ele>6.0</ele><time>2026-04-24T13:08:19Z</time></trkpt><trkpt lat="14.433104246276082" lon="120.899422011259"><ele>6.0</ele><time>2026-04-24T13:08:20Z</time></trkpt><trkpt lat="14.433149093121722" lon="120.89950306080455"><ele>5.6</ele><time>2026-04-24T13:08:21Z</time></trkpt><trkpt lat="14.433190449136891" lon="120.8995736456824"><ele>5.199999999999999</ele><time>2026-04-24T13:08:22Z</time></trkpt><trkpt lat="14.433233369940522" lon="120.89964819913654"><ele>4.800000000000001</ele><time>2026-04-24T13:08:23Z</time></trkpt><trkpt lat="14.433284257501697" lon="120.8997295730191"><ele>4.4</ele><time>2026-04-24T13:08:24Z</time></trkpt><trkpt lat="14.433330194152656" lon="120.89980746591512"><ele>4.0</ele><time>2026-04-24T13:08:25Z</time></trkpt><trkpt lat="14.433388801292775" lon="120.89989717565304"><ele>4.0</ele><time>2026-04-24T13:08:26Z</time></trkpt><trkpt lat="14.43345153973014" lon="120.89998639057917"><ele>4.0</ele><time>2026-04-24T13:08:27Z</time></trkpt><trkpt lat="14.43352029577143" lon="120.90008127310855"><ele>4.0</ele><time>2026-04-24T13:08:28Z</time></trkpt><trkpt lat="14.433590819660578" lon="120.90017724904331"><ele>4.0</ele><time>2026-04-24T13:08:29Z</time></trkpt><trkpt lat="14.43366123485508" lon="120.90027761505209"><ele>4.25</ele><time>2026-04-24T13:08:30Z</time></trkpt><trkpt lat="14.433733528775525" lon="120.90038447160461"><ele>4.5</ele><time>2026-04-24T13:08:31Z</time></trkpt><trkpt lat="14.433806811467363" lon="120.90049523885891"><ele>4.75</ele><time>2026-04-24T13:08:32Z</time></trkpt><trkpt lat="14.433885613594459" lon="120.90061098276911"><ele>5.0</ele><time>2026-04-24T13:08:33Z</time></trkpt><trkpt lat="14.433962471618216" lon="120.90073251895575"><ele>5.0</ele><time>2026-04-24T13:08:34Z</time></trkpt><trkpt lat="14.434032336635545" lon="120.90085024366195"><ele>5.0</ele><time>2026-04-24T13:08:35Z</time></trkpt><trkpt lat="14.43410096590224" lon="120.90096362636717"><ele>5.0</ele><time>2026-04-24T13:08:36Z</time></trkpt><trkpt lat="14.434171657917945" lon="120.9010783186372"><ele>5.0</ele><time>2026-04-24T13:08:37Z</time></trkpt><trkpt lat="14.434245492999684" lon="120.90119421898106"><ele>5.25</ele><time>2026-04-24T13:08:38Z</time></trkpt><trkpt lat="14.434316673812692" lon="120.90131223110275"><ele>5.5</ele><time>2026-04-24T13:08:39Z</time></trkpt><trkpt lat="14.434382236093699" lon="120.90142903909269"><ele>5.75</ele><time>2026-04-24T13:08:40Z</time></trkpt><trkpt lat="14.4344502028866" lon="120.90154861914975"><ele>6.0</ele><time>2026-04-24T13:08:41Z</time></trkpt><trkpt lat="14.434516034024677" lon="120.9016698257486"><ele>6.0</ele><time>2026-04-24T13:08:42Z</time></trkpt><trkpt lat="14.434586169509595" lon="120.90179426071799"><ele>6.0</ele><time>2026-04-24T13:08:43Z</time></trkpt><trkpt lat="14.434654300791648" lon="120.9019221394255"><ele>6.0</ele><time>2026-04-24T13:08:44Z</time></trkpt><trkpt lat="14.434725083404706" lon="120.90205264702793"><ele>6.0</ele><time>2026-04-24T13:08:45Z</time></trkpt><trkpt lat="14.434796270875827" lon="120.90218600670133"><ele>6.0</ele><time>2026-04-24T13:08:46Z</time></trkpt><trkpt lat="14.434868805604404" lon="120.90232105170989"><ele>6.0</ele><time>2026-04-24T13:08:47Z</time></trkpt><trkpt lat="14.434944024407402" lon="120.90245700192547"><ele>6.0</ele><time>2026-04-24T13:08:48Z</time></trkpt><trkpt lat="14.435021543936253" lon="120.90259548545811"><ele>5.333333333333333</ele><time>2026-04-24T13:08:49Z</time></trkpt><trkpt lat="14.435097631484277" lon="120.9027389179436"><ele>4.666666666666666</ele><time>2026-04-24T13:08:50Z</time></trkpt><trkpt lat="14.435175114575772" lon="120.90288326520715"><ele>4.0</ele><time>2026-04-24T13:08:51Z</time></trkpt><trkpt lat="14.435253927495905" lon="120.90302595188099"><ele>4.0</ele><time>2026-04-24T13:08:52Z</time></trkpt><trkpt lat="14.435333574656344" lon="120.903168931169"><ele>4.0</ele><time>2026-04-24T13:08:53Z</time></trkpt><trkpt lat="14.435411283395588" lon="120.90330767955783"><ele>4.0</ele><time>2026-04-24T13:08:54Z</time></trkpt><trkpt lat="14.435481219017205" lon="120.90343592286403"><ele>4.5</ele><time>2026-04-24T13:08:55Z</time></trkpt><trkpt lat="14.435546211560448" lon="120.90355709136449"><ele>5.0</ele><time>2026-04-24T13:08:56Z</time></trkpt><trkpt lat="14.435611855142364" lon="120.9036782871138"><ele>5.5</ele><time>2026-04-24T13:08:57Z</time></trkpt><trkpt lat="14.435677246188686" lon="120.90379995914526"><ele>6.0</ele><time>2026-04-24T13:08:58Z</time></trkpt><trkpt lat="14.435741501073869" lon="120.90391892274015"><ele>6.0</ele><time>2026-04-24T13:08:59Z</time></trkpt><trkpt lat="14.435797456532148" lon="120.90403146800995"><ele>6.0</ele><time>2026-04-24T13:09:00Z</time></trkpt><trkpt lat="14.435853678398257" lon="120.90413991868866"><ele>6.0</ele><time>2026-04-24T13:09:01Z</time></trkpt><trkpt lat="14.435920526281576" lon="120.90425524132239"><ele>6.0</ele><time>2026-04-24T13:09:02Z</time></trkpt><trkpt lat="14.4359815322416" lon="120.90437770923629"><ele>7.333333333333334</ele><time>2026-04-24T13:09:03Z</time></trkpt><trkpt lat="14.436050540661602" lon="120.90450741055946"><ele>8.666666666666668</ele><time>2026-04-24T13:09:04Z</time></trkpt><trkpt lat="14.436129791402156" lon="120.90463884529808"><ele>10.0</ele><time>2026-04-24T13:09:05Z</time></trkpt><trkpt lat="14.436215537075814" lon="120.90477401169069"><ele>10.0</ele><time>2026-04-24T13:09:06Z</time></trkpt><trkpt lat="14.436297356702315" lon="120.90491878635765"><ele>10.0</ele><time>2026-04-24T13:09:07Z</time></trkpt><trkpt lat="14.436372586790544" lon="120.90506531866028"><ele>10.0</ele><time>2026-04-24T13:09:08Z</time></trkpt><trkpt lat="14.436447510801543" lon="120.90520826177531"><ele>8.5</ele><time>2026-04-24T13:09:09Z</time></trkpt><trkpt lat="14.436522703186426" lon="120.90534592370543"><ele>7.0</ele><time>2026-04-24T13:09:10Z</time></trkpt><trkpt lat="14.436594982557432" lon="120.90547578566147"><ele>5.5</ele><time>2026-04-24T13:09:11Z</time></trkpt><trkpt lat="14.436669720854082" lon="120.90560293730954"><ele>4.0</ele><time>2026-04-24T13:09:12Z</time></trkpt><trkpt lat="14.436737482315756" lon="120.90571996732793"><ele>4.0</ele><time>2026-04-24T13:09:13Z</time></trkpt><trkpt lat="14.436799005537969" lon="120.9058302763538"><ele>4.0</ele><time>2026-04-24T13:09:14Z</time></trkpt><trkpt lat="14.436858237627552" lon="120.90593494952913"><ele>4.0</ele><time>2026-04-24T13:09:15Z</time></trkpt><trkpt lat="14.436916937016655" lon="120.90604508030671"><ele>4.0</ele><time>2026-04-24T13:09:16Z</time></trkpt><trkpt lat="14.43697631533349" lon="120.9061562909563"><ele>4.5</ele><time>2026-04-24T13:09:17Z</time></trkpt><trkpt lat="14.437034508524844" lon="120.90626924484494"><ele>5.0</ele><time>2026-04-24T13:09:18Z</time></trkpt><trkpt lat="14.437094553940119" lon="120.90637866490904"><ele>5.5</ele><time>2026-04-24T13:09:19Z</time></trkpt><trkpt lat="14.437151573850185" lon="120.90648180671258"><ele>6.0</ele><time>2026-04-24T13:09:20Z</time></trkpt><trkpt lat="14.437204182864377" lon="120.90657266460384"><ele>6.0</ele><time>2026-04-24T13:09:21Z</time></trkpt><trkpt lat="14.437246055347744" lon="120.90665011400932"><ele>6.0</ele><time>2026-04-24T13:09:22Z</time></trkpt><trkpt lat="14.437281502592022" lon="120.90671623375309"><ele>6.0</ele><time>2026-04-24T13:09:23Z</time></trkpt><trkpt lat="14.437313061949629" lon="120.90677381958396"><ele>6.0</ele><time>2026-04-24T13:09:24Z</time></trkpt><trkpt lat="14.437380308876984" lon="120.90688747813924"><ele>6.0</ele><time>2026-04-24T13:09:26Z</time></trkpt><trkpt lat="14.43741748734714" lon="120.90695370511777"><ele>6.0</ele><time>2026-04-24T13:09:27Z</time></trkpt><trkpt lat="14.437454815286086" lon="120.90703130661814"><ele>5.833333333333333</ele><time>2026-04-24T13:09:28Z</time></trkpt><trkpt lat="14.437489568657497" lon="120.90709649810766"><ele>5.666666666666667</ele><time>2026-04-24T13:09:29Z</time></trkpt><trkpt lat="14.437534534847876" lon="120.90718174130201"><ele>5.5</ele><time>2026-04-24T13:09:30Z</time></trkpt><trkpt lat="14.437571891792775" lon="120.90726669535746"><ele>5.333333333333334</ele><time>2026-04-24T13:09:31Z</time></trkpt><trkpt lat="14.437604623249854" lon="120.90734309080187"><ele>5.166666666666667</ele><time>2026-04-24T13:09:32Z</time></trkpt><trkpt lat="14.43764101268641" lon="120.90741873333866"><ele>5.0</ele><time>2026-04-24T13:09:33Z</time></trkpt><trkpt lat="14.437682057134444" lon="120.9074862305849"><ele>5.0</ele><time>2026-04-24T13:09:34Z</time></trkpt><trkpt lat="14.43772210545314" lon="120.90755582668892"><ele>5.0</ele><time>2026-04-24T13:09:35Z</time></trkpt><trkpt lat="14.43775105202809" lon="120.90762935029039"><ele>5.0</ele><time>2026-04-24T13:09:36Z</time></trkpt><trkpt lat="14.437798768822937" lon="120.90770605262482"><ele>5.0</ele><time>2026-04-24T13:09:37Z</time></trkpt><trkpt lat="14.437847922250247" lon="120.90778828014943"><ele>5.0</ele><time>2026-04-24T13:09:38Z</time></trkpt><trkpt lat="14.437899047810664" lon="120.90786862189275"><ele>5.0</ele><time>2026-04-24T13:09:39Z</time></trkpt><trkpt lat="14.4379570197256" lon="120.9079510937799"><ele>4.8</ele><time>2026-04-24T13:09:40Z</time></trkpt><trkpt lat="14.438016887978092" lon="120.90803094443602"><ele>4.6</ele><time>2026-04-24T13:09:41Z</time></trkpt><trkpt lat="14.43807301751119" lon="120.90811128934777"><ele>4.4</ele><time>2026-04-24T13:09:42Z</time></trkpt><trkpt lat="14.438125799100652" lon="120.90818062921129"><ele>4.2</ele><time>2026-04-24T13:09:43Z</time></trkpt><trkpt lat="14.438173843753141" lon="120.90825432493418"><ele>4.0</ele><time>2026-04-24T13:09:44Z</time></trkpt><trkpt lat="14.438223727820995" lon="120.90833322078844"><ele>3.9999999999999996</ele><time>2026-04-24T13:09:45Z</time></trkpt><trkpt lat="14.43826635643143" lon="120.90840292562396"><ele>4.0</ele><time>2026-04-24T13:09:46Z</time></trkpt><trkpt lat="14.43830977258499" lon="120.90845942058301"><ele>4.0</ele><time>2026-04-24T13:09:47Z</time></trkpt><trkpt lat="14.438379452775996" lon="120.90856393177067"><ele>4.0</ele><time>2026-04-24T13:09:49Z</time></trkpt><trkpt lat="14.438419544817116" lon="120.90862431090468"><ele>3.9999999999999996</ele><time>2026-04-24T13:09:50Z</time></trkpt><trkpt lat="14.438477224045577" lon="120.90869466256919"><ele>4.0</ele><time>2026-04-24T13:09:51Z</time></trkpt><trkpt lat="14.438534575396485" lon="120.90878036812299"><ele>4.2</ele><time>2026-04-24T13:09:52Z</time></trkpt><trkpt lat="14.43860142520531" lon="120.9088717296337"><ele>4.4</ele><time>2026-04-24T13:09:53Z</time></trkpt><trkpt lat="14.438667792999482" lon="120.90896163205703"><ele>4.6</ele><time>2026-04-24T13:09:54Z</time></trkpt><trkpt lat="14.438733567769624" lon="120.90905855559728"><ele>4.8</ele><time>2026-04-24T13:09:55Z</time></trkpt><trkpt lat="14.438798249621977" lon="120.90914286239992"><ele>5.0</ele><time>2026-04-24T13:09:56Z</time></trkpt><trkpt lat="14.438865013010544" lon="120.90922985039673"><ele>4.5</ele><time>2026-04-24T13:09:57Z</time></trkpt><trkpt lat="14.438940769154033" lon="120.90933305361055"><ele>4.0</ele><time>2026-04-24T13:09:58Z</time></trkpt><trkpt lat="14.439041453230054" lon="120.90945663288478"><ele>3.5</ele><time>2026-04-24T13:09:59Z</time></trkpt><trkpt lat="14.439128076533695" lon="120.90957241888383"><ele>3.0</ele><time>2026-04-24T13:10:00Z</time></trkpt><trkpt lat="14.439226608026077" lon="120.90969228025156"><ele>3.0</ele><time>2026-04-24T13:10:01Z</time></trkpt><trkpt lat="14.439328417122766" lon="120.90981690375789"><ele>3.0</ele><time>2026-04-24T13:10:02Z</time></trkpt><trkpt lat="14.439429551800039" lon="120.90994008169015"><ele>3.0</ele><time>2026-04-24T13:10:03Z</time></trkpt><trkpt lat="14.439526200217852" lon="120.91005638555012"><ele>3.25</ele><time>2026-04-24T13:10:04Z</time></trkpt><trkpt lat="14.439620046913323" lon="120.91016547512228"><ele>3.5</ele><time>2026-04-24T13:10:05Z</time></trkpt><trkpt lat="14.43970890583059" lon="120.91026502560457"><ele>3.75</ele><time>2026-04-24T13:10:06Z</time></trkpt><trkpt lat="14.439795697127195" lon="120.9103559942736"><ele>4.0</ele><time>2026-04-24T13:10:07Z</time></trkpt><trkpt lat="14.439872764628772" lon="120.91045052373279"><ele>4.333333333333333</ele><time>2026-04-24T13:10:08Z</time></trkpt><trkpt lat="14.439943841747032" lon="120.91052905256599"><ele>4.666666666666666</ele><time>2026-04-24T13:10:09Z</time></trkpt><trkpt lat="14.440004893415006" lon="120.91060199090603"><ele>5.0</ele><time>2026-04-24T13:10:10Z</time></trkpt><trkpt lat="14.440060165137401" lon="120.91067163924721"><ele>5.333333333333333</ele><time>2026-04-24T13:10:11Z</time></trkpt><trkpt lat="14.440113598583476" lon="120.91072960485938"><ele>5.666666666666667</ele><time>2026-04-24T13:10:12Z</time></trkpt><trkpt lat="14.440166706848524" lon="120.91077770434948"><ele>6.0</ele><time>2026-04-24T13:10:13Z</time></trkpt><trkpt lat="14.440223887349148" lon="120.9108246636203"><ele>6.0</ele><time>2026-04-24T13:10:14Z</time></trkpt><trkpt lat="14.440286789737812" lon="120.91087531856816"><ele>6.0</ele><time>2026-04-24T13:10:15Z</time></trkpt><trkpt lat="14.440351320655918" lon="120.91092375865013"><ele>6.0</ele><time>2026-04-24T13:10:16Z</time></trkpt><trkpt lat="14.44041714589586" lon="120.91097992862453"><ele>6.0</ele><time>2026-04-24T13:10:17Z</time></trkpt><trkpt lat="14.440482902374143" lon="120.91103262972669"><ele>6.0</ele><time>2026-04-24T13:10:18Z</time></trkpt><trkpt lat="14.44055033949481" lon="120.91108399303732"><ele>6.0</ele><time>2026-04-24T13:10:19Z</time></trkpt><trkpt lat="14.44062466659469" lon="120.91113323721034"><ele>6.333333333333333</ele><time>2026-04-24T13:10:20Z</time></trkpt><trkpt lat="14.440694017514744" lon="120.91118488838107"><ele>6.666666666666666</ele><time>2026-04-24T13:10:21Z</time></trkpt><trkpt lat="14.440764773786658" lon="120.91123520964278"><ele>7.0</ele><time>2026-04-24T13:10:22Z</time></trkpt><trkpt lat="14.44082705462771" lon="120.91127985918128"><ele>7.333333333333333</ele><time>2026-04-24T13:10:23Z</time></trkpt><trkpt lat="14.440879511507289" lon="120.91132931559858"><ele>7.666666666666666</ele><time>2026-04-24T13:10:24Z</time></trkpt><trkpt lat="14.440966522735696" lon="120.91140572956712"><ele>8.0</ele><time>2026-04-24T13:10:26Z</time></trkpt><trkpt lat="14.441016703199828" lon="120.91144639485093"><ele>8.0</ele><time>2026-04-24T13:10:28Z</time></trkpt><trkpt lat="14.441076417991122" lon="120.91150166161349"><ele>8.0</ele><time>2026-04-24T13:10:32Z</time></trkpt><trkpt lat="14.441138493198682" lon="120.91156298106334"><ele>8.0</ele><time>2026-04-24T13:10:34Z</time></trkpt><trkpt lat="14.441216032761375" lon="120.9116395912496"><ele>8.0</ele><time>2026-04-24T13:10:36Z</time></trkpt><trkpt lat="14.441301580558605" lon="120.91173218112395"><ele>8.0</ele><time>2026-04-24T13:10:38Z</time></trkpt><trkpt lat="14.441350213530523" lon="120.91178099676235"><ele>7.499999999999999</ele><time>2026-04-24T13:10:39Z</time></trkpt><trkpt lat="14.441409129039547" lon="120.91182717144956"><ele>7.0</ele><time>2026-04-24T13:10:40Z</time></trkpt><trkpt lat="14.441467676099832" lon="120.91187509284458"><ele>6.5</ele><time>2026-04-24T13:10:41Z</time></trkpt><trkpt lat="14.441535078966067" lon="120.91194188918111"><ele>6.0</ele><time>2026-04-24T13:10:42Z</time></trkpt><trkpt lat="14.441596614668502" lon="120.9120102903082"><ele>5.5</ele><time>2026-04-24T13:10:43Z</time></trkpt><trkpt lat="14.441664036377624" lon="120.91208331685709"><ele>5.0</ele><time>2026-04-24T13:10:44Z</time></trkpt><trkpt lat="14.441734714595121" lon="120.91215625665583"><ele>5.0</ele><time>2026-04-24T13:10:45Z</time></trkpt><trkpt lat="14.441799687990178" lon="120.9122331525845"><ele>5.0</ele><time>2026-04-24T13:10:46Z</time></trkpt><trkpt lat="14.441878324700037" lon="120.91231346745607"><ele>5.0</ele><time>2026-04-24T13:10:47Z</time></trkpt><trkpt lat="14.441951501900292" lon="120.9123880436276"><ele>5.0</ele><time>2026-04-24T13:10:48Z</time></trkpt><trkpt lat="14.442028289317523" lon="120.91245764973493"><ele>5.0</ele><time>2026-04-24T13:10:49Z</time></trkpt><trkpt lat="14.442104668622347" lon="120.91252285416682"><ele>5.6</ele><time>2026-04-24T13:10:50Z</time></trkpt><trkpt lat="14.442176548996587" lon="120.91258787238398"><ele>6.2</ele><time>2026-04-24T13:10:51Z</time></trkpt><trkpt lat="14.442256348769897" lon="120.91265070687612"><ele>6.800000000000001</ele><time>2026-04-24T13:10:52Z</time></trkpt><trkpt lat="14.442333428415136" lon="120.91271105696859"><ele>7.4</ele><time>2026-04-24T13:10:53Z</time></trkpt><trkpt lat="14.442408652959674" lon="120.91277365903547"><ele>8.0</ele><time>2026-04-24T13:10:54Z</time></trkpt><trkpt lat="14.44248553914896" lon="120.91283963617342"><ele>8.0</ele><time>2026-04-24T13:10:55Z</time></trkpt><trkpt lat="14.442558021800265" lon="120.91289975879243"><ele>8.0</ele><time>2026-04-24T13:10:56Z</time></trkpt><trkpt lat="14.442625538008505" lon="120.91295165898953"><ele>8.0</ele><time>2026-04-24T13:10:57Z</time></trkpt><trkpt lat="14.442696511149036" lon="120.91300425418525"><ele>8.0</ele><time>2026-04-24T13:10:58Z</time></trkpt><trkpt lat="14.442771121744768" lon="120.91305995281743"><ele>8.0</ele><time>2026-04-24T13:10:59Z</time></trkpt><trkpt lat="14.442842196254643" lon="120.91312346110641"><ele>8.0</ele><time>2026-04-24T13:11:00Z</time></trkpt><trkpt lat="14.44292164891285" lon="120.91318558533962"><ele>8.0</ele><time>2026-04-24T13:11:01Z</time></trkpt><trkpt lat="14.443004479694102" lon="120.91324723669784"><ele>8.0</ele><time>2026-04-24T13:11:02Z</time></trkpt><trkpt lat="14.443088065844908" lon="120.91330921284853"><ele>8.0</ele><time>2026-04-24T13:11:03Z</time></trkpt><trkpt lat="14.44317553787044" lon="120.9133755520416"><ele>8.0</ele><time>2026-04-24T13:11:04Z</time></trkpt><trkpt lat="14.443263453134023" lon="120.91344013472713"><ele>7.5</ele><time>2026-04-24T13:11:05Z</time></trkpt><trkpt lat="14.443352670888004" lon="120.9135091871735"><ele>7.0</ele><time>2026-04-24T13:11:06Z</time></trkpt><trkpt lat="14.443443365208152" lon="120.91357743396347"><ele>6.5</ele><time>2026-04-24T13:11:07Z</time></trkpt><trkpt lat="14.443537006726192" lon="120.91364262786718"><ele>6.0</ele><time>2026-04-24T13:11:08Z</time></trkpt><trkpt lat="14.443638708353957" lon="120.9137128484478"><ele>6.0</ele><time>2026-04-24T13:11:09Z</time></trkpt><trkpt lat="14.443734423581166" lon="120.91377814743369"><ele>6.0</ele><time>2026-04-24T13:11:10Z</time></trkpt><trkpt lat="14.443830207098962" lon="120.91384406965598"><ele>6.0</ele><time>2026-04-24T13:11:11Z</time></trkpt><trkpt lat="14.443929258339539" lon="120.91391225812335"><ele>6.0</ele><time>2026-04-24T13:11:12Z</time></trkpt><trkpt lat="14.444027129329928" lon="120.9139803891819"><ele>5.6</ele><time>2026-04-24T13:11:13Z</time></trkpt><trkpt lat="14.444126312393038" lon="120.91404208825807"><ele>5.199999999999999</ele><time>2026-04-24T13:11:14Z</time></trkpt><trkpt lat="14.444220347949415" lon="120.91409863113495"><ele>4.800000000000001</ele><time>2026-04-24T13:11:15Z</time></trkpt><trkpt lat="14.444307050773164" lon="120.91415360876977"><ele>4.4</ele><time>2026-04-24T13:11:16Z</time></trkpt><trkpt lat="14.44439530327465" lon="120.91420833481965"><ele>4.0</ele><time>2026-04-24T13:11:17Z</time></trkpt><trkpt lat="14.444474839232871" lon="120.91425586106344"><ele>3.9999999999999996</ele><time>2026-04-24T13:11:18Z</time></trkpt><trkpt lat="14.444548025613038" lon="120.91429680708313"><ele>4.0</ele><time>2026-04-24T13:11:19Z</time></trkpt><trkpt lat="14.444619145896164" lon="120.91433428683534"><ele>4.0</ele><time>2026-04-24T13:11:20Z</time></trkpt><trkpt lat="14.444685208554478" lon="120.91437140395657"><ele>4.0</ele><time>2026-04-24T13:11:21Z</time></trkpt><trkpt lat="14.444743895014257" lon="120.91440360490542"><ele>3.9999999999999996</ele><time>2026-04-24T13:11:22Z</time></trkpt><trkpt lat="14.444808069319349" lon="120.91444396857314"><ele>4.0</ele><time>2026-04-24T13:11:23Z</time></trkpt><trkpt lat="14.444871098146855" lon="120.91448028967295"><ele>4.142857142857142</ele><time>2026-04-24T13:11:24Z</time></trkpt><trkpt lat="14.444940757150666" lon="120.91451989092143"><ele>4.285714285714286</ele><time>2026-04-24T13:11:25Z</time></trkpt><trkpt lat="14.445007019666194" lon="120.91455945385594"><ele>4.428571428571429</ele><time>2026-04-24T13:11:26Z</time></trkpt><trkpt lat="14.445070805018426" lon="120.91459493965023"><ele>4.571428571428571</ele><time>2026-04-24T13:11:27Z</time></trkpt><trkpt lat="14.445126407221991" lon="120.91463452511486"><ele>4.714285714285714</ele><time>2026-04-24T13:11:28Z</time></trkpt><trkpt lat="14.445181947235586" lon="120.91467161463932"><ele>4.857142857142857</ele><time>2026-04-24T13:11:29Z</time></trkpt><trkpt lat="14.445237996582097" lon="120.91470744656252"><ele>5.0</ele><time>2026-04-24T13:11:30Z</time></trkpt><trkpt lat="14.445328674197526" lon="120.91476736577867"><ele>5.0</ele><time>2026-04-24T13:11:32Z</time></trkpt><trkpt lat="14.445396423680318" lon="120.91480887537003"><ele>5.0</ele><time>2026-04-24T13:11:34Z</time></trkpt><trkpt lat="14.445482189666347" lon="120.91484963246282"><ele>5.0</ele><time>2026-04-24T13:11:36Z</time></trkpt><trkpt lat="14.445588598037338" lon="120.91492151357758"><ele>5.0</ele><time>2026-04-24T13:11:38Z</time></trkpt><trkpt lat="14.445649165474391" lon="120.9149544448509"><ele>5.0</ele><time>2026-04-24T13:11:39Z</time></trkpt><trkpt lat="14.44576837471624" lon="120.91502671715463"><ele>5.0</ele><time>2026-04-24T13:11:41Z</time></trkpt><trkpt lat="14.445827009037348" lon="120.91505935918387"><ele>5.0</ele><time>2026-04-24T13:11:42Z</time></trkpt><trkpt lat="14.445896273678335" lon="120.91509837684993"><ele>5.0</ele><time>2026-04-24T13:11:43Z</time></trkpt><trkpt lat="14.445962514558252" lon="120.91514100729178"><ele>5.0</ele><time>2026-04-24T13:11:44Z</time></trkpt><trkpt lat="14.446032555778217" lon="120.91518306727878"><ele>5.0</ele><time>2026-04-24T13:11:45Z</time></trkpt><trkpt lat="14.446100119259205" lon="120.91522277481843"><ele>5.0</ele><time>2026-04-24T13:11:46Z</time></trkpt><trkpt lat="14.446160981231024" lon="120.91526361680997"><ele>5.0</ele><time>2026-04-24T13:11:47Z</time></trkpt><trkpt lat="14.446218978199063" lon="120.91530054026472"><ele>5.0</ele><time>2026-04-24T13:11:48Z</time></trkpt><trkpt lat="14.446318016867554" lon="120.91535588343228"><ele>5.0</ele><time>2026-04-24T13:11:50Z</time></trkpt><trkpt lat="14.446390438660764" lon="120.91539500226702"><ele>5.0</ele><time>2026-04-24T13:11:52Z</time></trkpt><trkpt lat="14.44646646042789" lon="120.91543765720303"><ele>5.0</ele><time>2026-04-24T13:11:54Z</time></trkpt><trkpt lat="14.446548502120745" lon="120.91549089680936"><ele>5.0</ele><time>2026-04-24T13:11:56Z</time></trkpt><trkpt lat="14.44660520423225" lon="120.91552682206627"><ele>5.0</ele><time>2026-04-24T13:11:57Z</time></trkpt><trkpt lat="14.446678538330223" lon="120.91557392030941"><ele>5.0</ele><time>2026-04-24T13:11:58Z</time></trkpt><trkpt lat="14.446769141864408" lon="120.91561828171844"><ele>5.0</ele><time>2026-04-24T13:11:59Z</time></trkpt><trkpt lat="14.44685833247375" lon="120.91565650311506"><ele>5.0</ele><time>2026-04-24T13:12:00Z</time></trkpt><trkpt lat="14.446937642829939" lon="120.91569301839816"><ele>5.0</ele><time>2026-04-24T13:12:01Z</time></trkpt><trkpt lat="14.4470056784362" lon="120.9157291110384"><ele>5.0</ele><time>2026-04-24T13:12:02Z</time></trkpt><trkpt lat="14.447074008601001" lon="120.91575329181984"><ele>5.0</ele><time>2026-04-24T13:12:03Z</time></trkpt><trkpt lat="14.447135441338563" lon="120.9157828011919"><ele>5.0</ele><time>2026-04-24T13:12:04Z</time></trkpt><trkpt lat="14.447203066678494" lon="120.91579791445142"><ele>5.0</ele><time>2026-04-24T13:12:05Z</time></trkpt><trkpt lat="14.447251189974928" lon="120.91597161587877"><ele>5.0</ele><time>2026-04-24T13:12:07Z</time></trkpt><trkpt lat="14.447284221926" lon="120.91603550913824"><ele>5.0</ele><time>2026-04-24T13:12:08Z</time></trkpt><trkpt lat="14.447315067626567" lon="120.91609674706044"><ele>5.0</ele><time>2026-04-24T13:12:09Z</time></trkpt><trkpt lat="14.447359134676429" lon="120.91615623229352"><ele>5.333333333333334</ele><time>2026-04-24T13:12:10Z</time></trkpt><trkpt lat="14.447397677693038" lon="120.916225792737"><ele>5.666666666666667</ele><time>2026-04-24T13:12:11Z</time></trkpt><trkpt lat="14.447437907057036" lon="120.91629206204581"><ele>6.0</ele><time>2026-04-24T13:12:12Z</time></trkpt><trkpt lat="14.447476991272888" lon="120.91636380706973"><ele>6.333333333333334</ele><time>2026-04-24T13:12:13Z</time></trkpt><trkpt lat="14.447520422538414" lon="120.91643752772002"><ele>6.666666666666667</ele><time>2026-04-24T13:12:14Z</time></trkpt><trkpt lat="14.447565991536269" lon="120.91650810275844"><ele>7.0</ele><time>2026-04-24T13:12:15Z</time></trkpt><trkpt lat="14.447611761147696" lon="120.9165803594757"><ele>7.0</ele><time>2026-04-24T13:12:16Z</time></trkpt><trkpt lat="14.447658719654855" lon="120.91665794359474"><ele>6.999999999999999</ele><time>2026-04-24T13:12:17Z</time></trkpt><trkpt lat="14.447705461320034" lon="120.91673695464412"><ele>6.999999999999999</ele><time>2026-04-24T13:12:18Z</time></trkpt><trkpt lat="14.44775396892904" lon="120.91681788786677"><ele>7.0</ele><time>2026-04-24T13:12:19Z</time></trkpt><trkpt lat="14.447801658778621" lon="120.91690098019684"><ele>7.0</ele><time>2026-04-24T13:12:20Z</time></trkpt><trkpt lat="14.44785001353199" lon="120.91698917653069"><ele>7.000000000000001</ele><time>2026-04-24T13:12:21Z</time></trkpt><trkpt lat="14.447899262051674" lon="120.91707782961068"><ele>7.0</ele><time>2026-04-24T13:12:22Z</time></trkpt><trkpt lat="14.447942264868592" lon="120.91715375874088"><ele>7.0</ele><time>2026-04-24T13:12:23Z</time></trkpt><trkpt lat="14.447977320509057" lon="120.91722938404166"><ele>7.0</ele><time>2026-04-24T13:12:24Z</time></trkpt><trkpt lat="14.448010532615669" lon="120.91729559038357"><ele>7.000000000000001</ele><time>2026-04-24T13:12:25Z</time></trkpt><trkpt lat="14.448045383524722" lon="120.91736308710561"><ele>7.0</ele><time>2026-04-24T13:12:26Z</time></trkpt><trkpt lat="14.448080068149178" lon="120.91742474885257"><ele>6.6</ele><time>2026-04-24T13:12:27Z</time></trkpt><trkpt lat="14.448112879108706" lon="120.91750791084776"><ele>6.199999999999999</ele><time>2026-04-24T13:12:28Z</time></trkpt><trkpt lat="14.448144472939106" lon="120.9175854893757"><ele>5.8</ele><time>2026-04-24T13:12:29Z</time></trkpt><trkpt lat="14.448177998527942" lon="120.91766718065026"><ele>5.4</ele><time>2026-04-24T13:12:30Z</time></trkpt><trkpt lat="14.448215263109205" lon="120.91775674743016"><ele>5.0</ele><time>2026-04-24T13:12:31Z</time></trkpt><trkpt lat="14.448260321034772" lon="120.91786063390482"><ele>5.0</ele><time>2026-04-24T13:12:32Z</time></trkpt><trkpt lat="14.448307827211087" lon="120.91797568102143"><ele>5.0</ele><time>2026-04-24T13:12:33Z</time></trkpt><trkpt lat="14.448348599582005" lon="120.91810648511975"><ele>5.0</ele><time>2026-04-24T13:12:34Z</time></trkpt><trkpt lat="14.44838508963627" lon="120.91824721749404"><ele>5.0</ele><time>2026-04-24T13:12:35Z</time></trkpt><trkpt lat="14.448418083661895" lon="120.9183563536314"><ele>5.0</ele><time>2026-04-24T13:12:36Z</time></trkpt><trkpt lat="14.448462347445124" lon="120.91848070769451"><ele>5.0</ele><time>2026-04-24T13:12:37Z</time></trkpt><trkpt lat="14.44850220017888" lon="120.91860099325707"><ele>5.0</ele><time>2026-04-24T13:12:38Z</time></trkpt><trkpt lat="14.448539066249692" lon="120.91871772601334"><ele>5.0</ele><time>2026-04-24T13:12:39Z</time></trkpt><trkpt lat="14.44857450422726" lon="120.91882904027611"><ele>5.0</ele><time>2026-04-24T13:12:40Z</time></trkpt><trkpt lat="14.448617089462964" lon="120.91894391692583"><ele>5.0</ele><time>2026-04-24T13:12:41Z</time></trkpt><trkpt lat="14.44865858950508" lon="120.9190506832541"><ele>5.0</ele><time>2026-04-24T13:12:42Z</time></trkpt><trkpt lat="14.448700621110827" lon="120.9191495659878"><ele>5.0</ele><time>2026-04-24T13:12:43Z</time></trkpt><trkpt lat="14.448743565706517" lon="120.91925032327094"><ele>5.0</ele><time>2026-04-24T13:12:44Z</time></trkpt><trkpt lat="14.448784558942545" lon="120.9193557948538"><ele>5.2</ele><time>2026-04-24T13:12:45Z</time></trkpt><trkpt lat="14.448813831464907" lon="120.91945999552787"><ele>5.4</ele><time>2026-04-24T13:12:46Z</time></trkpt><trkpt lat="14.44883876079452" lon="120.91957164837793"><ele>5.6</ele><time>2026-04-24T13:12:47Z</time></trkpt><trkpt lat="14.448866211264734" lon="120.91968316043996"><ele>5.8</ele><time>2026-04-24T13:12:48Z</time></trkpt><trkpt lat="14.448895180591022" lon="120.91979795909822"><ele>6.0</ele><time>2026-04-24T13:12:49Z</time></trkpt><trkpt lat="14.44891881743441" lon="120.9199105880317"><ele>6.0</ele><time>2026-04-24T13:12:50Z</time></trkpt><trkpt lat="14.448945641135731" lon="120.92002045542354"><ele>6.0</ele><time>2026-04-24T13:12:51Z</time></trkpt><trkpt lat="14.44896700475389" lon="120.92012514927417"><ele>6.0</ele><time>2026-04-24T13:12:52Z</time></trkpt><trkpt lat="14.448991435992886" lon="120.92023205813966"><ele>6.0</ele><time>2026-04-24T13:12:53Z</time></trkpt><trkpt lat="14.449011994299546" lon="120.92033320242653"><ele>6.0</ele><time>2026-04-24T13:12:54Z</time></trkpt><trkpt lat="14.44903399122393" lon="120.9204275445774"><ele>6.0</ele><time>2026-04-24T13:12:55Z</time></trkpt><trkpt lat="14.449058278485772" lon="120.92052441445813"><ele>6.0</ele><time>2026-04-24T13:12:56Z</time></trkpt><trkpt lat="14.449081458560377" lon="120.920617831229"><ele>6.0</ele><time>2026-04-24T13:12:57Z</time></trkpt><trkpt lat="14.449103977544539" lon="120.92071502678068"><ele>6.0</ele><time>2026-04-24T13:12:58Z</time></trkpt><trkpt lat="14.449132284401037" lon="120.92081121384717"><ele>6.0</ele><time>2026-04-24T13:12:59Z</time></trkpt><trkpt lat="14.449160826724645" lon="120.92090387567173"><ele>6.0</ele><time>2026-04-24T13:13:00Z</time></trkpt><trkpt lat="14.449190812711471" lon="120.92099320056256"><ele>6.0</ele><time>2026-04-24T13:13:01Z</time></trkpt><trkpt lat="14.449223375491231" lon="120.92108048387952"><ele>6.0</ele><time>2026-04-24T13:13:02Z</time></trkpt><trkpt lat="14.449253831177119" lon="120.92116979392269"><ele>6.0</ele><time>2026-04-24T13:13:03Z</time></trkpt><trkpt lat="14.449280529701443" lon="120.92125686647078"><ele>6.0</ele><time>2026-04-24T13:13:04Z</time></trkpt><trkpt lat="14.44930703900409" lon="120.92132873108308"><ele>6.0</ele><time>2026-04-24T13:13:05Z</time></trkpt><trkpt lat="14.449329757272068" lon="120.92139472751661"><ele>6.0</ele><time>2026-04-24T13:13:06Z</time></trkpt><trkpt lat="14.44935926468775" lon="120.92148858652824"><ele>6.0</ele><time>2026-04-24T13:13:08Z</time></trkpt><trkpt lat="14.449388486132031" lon="120.92156701853449"><ele>6.0</ele><time>2026-04-24T13:13:11Z</time></trkpt><trkpt lat="14.449407456095184" lon="120.92163550533863"><ele>6.0</ele><time>2026-04-24T13:13:13Z</time></trkpt><trkpt lat="14.449431630953482" lon="120.9217014546211"><ele>6.0</ele><time>2026-04-24T13:13:15Z</time></trkpt><trkpt lat="14.449454814000509" lon="120.9217729733152"><ele>6.0</ele><time>2026-04-24T13:13:17Z</time></trkpt><trkpt lat="14.449479704542739" lon="120.92185552672684"><ele>6.166666666666667</ele><time>2026-04-24T13:13:21Z</time></trkpt><trkpt lat="14.449491697239829" lon="120.92194190760952"><ele>6.333333333333334</ele><time>2026-04-24T13:13:23Z</time></trkpt><trkpt lat="14.449529764870892" lon="120.92206519484664"><ele>6.5</ele><time>2026-04-24T13:13:25Z</time></trkpt><trkpt lat="14.449549881156221" lon="120.92213069712483"><ele>6.666666666666667</ele><time>2026-04-24T13:13:26Z</time></trkpt><trkpt lat="14.449565828781434" lon="120.92220446505755"><ele>6.833333333333334</ele><time>2026-04-24T13:13:27Z</time></trkpt><trkpt lat="14.449587871328081" lon="120.92227985105418"><ele>7.0</ele><time>2026-04-24T13:13:28Z</time></trkpt><trkpt lat="14.449610032589085" lon="120.9223587656048"><ele>7.000000000000001</ele><time>2026-04-24T13:13:29Z</time></trkpt><trkpt lat="14.449633269425455" lon="120.92244037303438"><ele>7.0</ele><time>2026-04-24T13:13:30Z</time></trkpt><trkpt lat="14.449659431039576" lon="120.92251901798114"><ele>7.0</ele><time>2026-04-24T13:13:31Z</time></trkpt><trkpt lat="14.449676339646134" lon="120.92259387100567"><ele>7.0</ele><time>2026-04-24T13:13:32Z</time></trkpt><trkpt lat="14.449708690851006" lon="120.9226776244667"><ele>7.000000000000001</ele><time>2026-04-24T13:13:33Z</time></trkpt><trkpt lat="14.449734453687372" lon="120.92275774414783"><ele>7.0</ele><time>2026-04-24T13:13:34Z</time></trkpt><trkpt lat="14.44975788226912" lon="120.92284260369546"><ele>6.833333333333334</ele><time>2026-04-24T13:13:35Z</time></trkpt><trkpt lat="14.449777929044982" lon="120.92292497553596"><ele>6.666666666666667</ele><time>2026-04-24T13:13:36Z</time></trkpt><trkpt lat="14.449796007149587" lon="120.9230015024928"><ele>6.5</ele><time>2026-04-24T13:13:37Z</time></trkpt><trkpt lat="14.449812529378924" lon="120.92306797867509"><ele>6.333333333333334</ele><time>2026-04-24T13:13:38Z</time></trkpt><trkpt lat="14.449832901049085" lon="120.92314102420696"><ele>6.166666666666667</ele><time>2026-04-24T13:13:40Z</time></trkpt><trkpt lat="14.449848682004983" lon="120.9232084778764"><ele>6.0</ele><time>2026-04-24T13:13:43Z</time></trkpt><trkpt lat="14.449871790129302" lon="120.92330140024457"><ele>6.0</ele><time>2026-04-24T13:13:45Z</time></trkpt><trkpt lat="14.44988383552766" lon="120.92336826624054"><ele>6.0</ele><time>2026-04-24T13:13:46Z</time></trkpt><trkpt lat="14.449896798147412" lon="120.92343670509707"><ele>6.0</ele><time>2026-04-24T13:13:47Z</time></trkpt><trkpt lat="14.449913521303008" lon="120.9235133415225"><ele>6.0</ele><time>2026-04-24T13:13:48Z</time></trkpt><trkpt lat="14.449931272649088" lon="120.92359587147969"><ele>6.0</ele><time>2026-04-24T13:13:49Z</time></trkpt><trkpt lat="14.449951447844187" lon="120.92368659522135"><ele>6.0</ele><time>2026-04-24T13:13:50Z</time></trkpt><trkpt lat="14.44996933269621" lon="120.92378138423213"><ele>6.0</ele><time>2026-04-24T13:13:51Z</time></trkpt><trkpt lat="14.449992862329292" lon="120.92387670868673"><ele>6.0</ele><time>2026-04-24T13:13:52Z</time></trkpt><trkpt lat="14.450017360725617" lon="120.9239719623204"><ele>6.0</ele><time>2026-04-24T13:13:53Z</time></trkpt><trkpt lat="14.450039241072334" lon="120.92406968536918"><ele>6.0</ele><time>2026-04-24T13:13:54Z</time></trkpt><trkpt lat="14.450058744847382" lon="120.92416889392925"><ele>6.0</ele><time>2026-04-24T13:13:55Z</time></trkpt><trkpt lat="14.45007998482286" lon="120.92426805696853"><ele>6.0</ele><time>2026-04-24T13:13:56Z</time></trkpt><trkpt lat="14.450099854536262" lon="120.92437073023456"><ele>6.0</ele><time>2026-04-24T13:13:57Z</time></trkpt><trkpt lat="14.450120865376247" lon="120.9244770028926"><ele>6.0</ele><time>2026-04-24T13:13:58Z</time></trkpt><trkpt lat="14.450142849265356" lon="120.9245818409476"><ele>6.0</ele><time>2026-04-24T13:13:59Z</time></trkpt><trkpt lat="14.450166976454272" lon="120.92469117546948"><ele>6.0</ele><time>2026-04-24T13:14:00Z</time></trkpt><trkpt lat="14.450189839853365" lon="120.9247993537449"><ele>6.0</ele><time>2026-04-24T13:14:01Z</time></trkpt><trkpt lat="14.450212715042717" lon="120.92490800246442"><ele>6.0</ele><time>2026-04-24T13:14:02Z</time></trkpt><trkpt lat="14.450236012499118" lon="120.92501661587947"><ele>6.0</ele><time>2026-04-24T13:14:03Z</time></trkpt><trkpt lat="14.450257834249557" lon="120.92512062415767"><ele>6.0</ele><time>2026-04-24T13:14:04Z</time></trkpt><trkpt lat="14.45028223048849" lon="120.92522513297959"><ele>6.0</ele><time>2026-04-24T13:14:05Z</time></trkpt><trkpt lat="14.450303045581439" lon="120.92532547452718"><ele>6.199999999999999</ele><time>2026-04-24T13:14:06Z</time></trkpt><trkpt lat="14.450328575621" lon="120.92542735125218"><ele>6.3999999999999995</ele><time>2026-04-24T13:14:07Z</time></trkpt><trkpt lat="14.450350281556105" lon="120.92552944169692"><ele>6.6</ele><time>2026-04-24T13:14:08Z</time></trkpt><trkpt lat="14.450370528406724" lon="120.92563276729659"><ele>6.8</ele><time>2026-04-24T13:14:09Z</time></trkpt><trkpt lat="14.450389684433288" lon="120.92573261561783"><ele>7.0</ele><time>2026-04-24T13:14:10Z</time></trkpt><trkpt lat="14.45041125375994" lon="120.92582664067326"><ele>6.833333333333334</ele><time>2026-04-24T13:14:11Z</time></trkpt><trkpt lat="14.45042895237043" lon="120.92591397654678"><ele>6.666666666666667</ele><time>2026-04-24T13:14:12Z</time></trkpt><trkpt lat="14.450443394933718" lon="120.92598682896129"><ele>6.5</ele><time>2026-04-24T13:14:13Z</time></trkpt><trkpt lat="14.450465949711155" lon="120.926088924255"><ele>6.333333333333334</ele><time>2026-04-24T13:14:15Z</time></trkpt><trkpt lat="14.450479193134129" lon="120.92618163781647"><ele>6.166666666666667</ele><time>2026-04-24T13:14:17Z</time></trkpt><trkpt lat="14.450480619255346" lon="120.92627014932938"><ele>6.0</ele><time>2026-04-24T13:14:19Z</time></trkpt><trkpt lat="14.450504578936389" lon="120.92637987843581"><ele>5.999999999999999</ele><time>2026-04-24T13:14:21Z</time></trkpt><trkpt lat="14.450520959490852" lon="120.92644640937645"><ele>6.0</ele><time>2026-04-24T13:14:22Z</time></trkpt><trkpt lat="14.450538755507159" lon="120.92650972894612"><ele>6.0</ele><time>2026-04-24T13:14:23Z</time></trkpt><trkpt lat="14.450548749120292" lon="120.9265821237115"><ele>6.0</ele><time>2026-04-24T13:14:24Z</time></trkpt><trkpt lat="14.450561895920957" lon="120.92666230136773"><ele>6.0</ele><time>2026-04-24T13:14:25Z</time></trkpt><trkpt lat="14.450575521023444" lon="120.92673955045223"><ele>5.999999999999999</ele><time>2026-04-24T13:14:26Z</time></trkpt><trkpt lat="14.450592604574755" lon="120.92681505930904"><ele>6.0</ele><time>2026-04-24T13:14:27Z</time></trkpt><trkpt lat="14.450609450153715" lon="120.92689945087724"><ele>6.0</ele><time>2026-04-24T13:14:28Z</time></trkpt><trkpt lat="14.450619314749376" lon="120.92698631894544"><ele>6.0</ele><time>2026-04-24T13:14:29Z</time></trkpt><trkpt lat="14.45063235567621" lon="120.92708109541799"><ele>6.0</ele><time>2026-04-24T13:14:30Z</time></trkpt><trkpt lat="14.45064251167232" lon="120.92717102468684"><ele>6.0</ele><time>2026-04-24T13:14:31Z</time></trkpt><trkpt lat="14.450646456383282" lon="120.92726833481292"><ele>6.0</ele><time>2026-04-24T13:14:32Z</time></trkpt><trkpt lat="14.450640245084445" lon="120.92735242712438"><ele>6.0</ele><time>2026-04-24T13:14:33Z</time></trkpt><trkpt lat="14.450617523100945" lon="120.92744890324437"><ele>6.0</ele><time>2026-04-24T13:14:34Z</time></trkpt><trkpt lat="14.450597050975155" lon="120.92754286551003"><ele>6.0</ele><time>2026-04-24T13:14:35Z</time></trkpt><trkpt lat="14.450574736508004" lon="120.92763617051767"><ele>6.0</ele><time>2026-04-24T13:14:36Z</time></trkpt><trkpt lat="14.450555611387951" lon="120.92773350183515"><ele>6.0</ele><time>2026-04-24T13:14:37Z</time></trkpt><trkpt lat="14.450536612478984" lon="120.92782756941604"><ele>6.0</ele><time>2026-04-24T13:14:38Z</time></trkpt><trkpt lat="14.450519171500376" lon="120.92791263915083"><ele>6.333333333333333</ele><time>2026-04-24T13:14:39Z</time></trkpt><trkpt lat="14.4505035686055" lon="120.92798399957819"><ele>6.666666666666666</ele><time>2026-04-24T13:14:40Z</time></trkpt><trkpt lat="14.450489727515578" lon="120.92806095047358"><ele>7.0</ele><time>2026-04-24T13:14:42Z</time></trkpt><trkpt lat="14.450492583469" lon="120.9281385102488"><ele>7.333333333333333</ele><time>2026-04-24T13:14:46Z</time></trkpt><trkpt lat="14.450513968104563" lon="120.92822799168142"><ele>7.666666666666666</ele><time>2026-04-24T13:14:48Z</time></trkpt><trkpt lat="14.450540874030576" lon="120.92830853078637"><ele>8.0</ele><time>2026-04-24T13:14:50Z</time></trkpt><trkpt lat="14.45045994137615" lon="120.92832191604484"><ele>8.0</ele><time>2026-04-24T13:14:51Z</time></trkpt><trkpt lat="14.450753226317762" lon="120.92842282106012"><ele>8.0</ele><time>2026-04-24T13:15:29Z</time></trkpt><trkpt lat="14.450885858807416" lon="120.92841606464825"><ele>8.0</ele><time>2026-04-24T13:15:31Z</time></trkpt><trkpt lat="14.450958473822682" lon="120.92840562835411"><ele>8.0</ele><time>2026-04-24T13:15:32Z</time></trkpt><trkpt lat="14.451048564453876" lon="120.92840015083881"><ele>8.0</ele><time>2026-04-24T13:15:33Z</time></trkpt><trkpt lat="14.451135613433538" lon="120.92838317398522"><ele>8.0</ele><time>2026-04-24T13:15:34Z</time></trkpt><trkpt lat="14.451214252745004" lon="120.9283710029865"><ele>8.0</ele><time>2026-04-24T13:15:35Z</time></trkpt><trkpt lat="14.45131850868756" lon="120.92836320390589"><ele>8.0</ele><time>2026-04-24T13:15:36Z</time></trkpt><trkpt lat="14.451423201391442" lon="120.92835227691617"><ele>7.800000000000001</ele><time>2026-04-24T13:15:37Z</time></trkpt><trkpt lat="14.451521836100243" lon="120.92834608422292"><ele>7.6000000000000005</ele><time>2026-04-24T13:15:38Z</time></trkpt><trkpt lat="14.451628680147921" lon="120.9283399669243"><ele>7.3999999999999995</ele><time>2026-04-24T13:15:39Z</time></trkpt><trkpt lat="14.451737652239954" lon="120.9283296954528"><ele>7.199999999999999</ele><time>2026-04-24T13:15:40Z</time></trkpt><trkpt lat="14.451844072236602" lon="120.92832073198518"><ele>7.0</ele><time>2026-04-24T13:15:41Z</time></trkpt><trkpt lat="14.451954481217133" lon="120.92831415797669"><ele>7.0</ele><time>2026-04-24T13:15:42Z</time></trkpt><trkpt lat="14.452061215230415" lon="120.92831104281487"><ele>6.999999999999999</ele><time>2026-04-24T13:15:43Z</time></trkpt><trkpt lat="14.452168259070264" lon="120.92831552326047"><ele>6.999999999999999</ele><time>2026-04-24T13:15:44Z</time></trkpt><trkpt lat="14.452268532470365" lon="120.9283290493552"><ele>7.0</ele><time>2026-04-24T13:15:45Z</time></trkpt><trkpt lat="14.452369816157796" lon="120.92834937585202"><ele>7.0</ele><time>2026-04-24T13:15:46Z</time></trkpt><trkpt lat="14.452470562506651" lon="120.92838704237208"><ele>6.6</ele><time>2026-04-24T13:15:47Z</time></trkpt><trkpt lat="14.452563002308299" lon="120.9284317480264"><ele>6.199999999999999</ele><time>2026-04-24T13:15:48Z</time></trkpt><trkpt lat="14.452658443431963" lon="120.92848410248304"><ele>5.8</ele><time>2026-04-24T13:15:49Z</time></trkpt><trkpt lat="14.452749841077607" lon="120.92853855858901"><ele>5.4</ele><time>2026-04-24T13:15:50Z</time></trkpt><trkpt lat="14.452838703506522" lon="120.92860321891143"><ele>5.0</ele><time>2026-04-24T13:15:51Z</time></trkpt><trkpt lat="14.452932972278093" lon="120.92868243592689"><ele>5.0</ele><time>2026-04-24T13:15:52Z</time></trkpt><trkpt lat="14.453020307482534" lon="120.92875601811815"><ele>5.0</ele><time>2026-04-24T13:15:53Z</time></trkpt><trkpt lat="14.453101370623955" lon="120.92883324028847"><ele>5.0</ele><time>2026-04-24T13:15:54Z</time></trkpt><trkpt lat="14.453187314945676" lon="120.92892051782765"><ele>5.0</ele><time>2026-04-24T13:15:55Z</time></trkpt><trkpt lat="14.453277086858472" lon="120.92900234032692"><ele>5.0</ele><time>2026-04-24T13:15:56Z</time></trkpt><trkpt lat="14.45336249449941" lon="120.9290841548798"><ele>5.0</ele><time>2026-04-24T13:15:57Z</time></trkpt><trkpt lat="14.453449961711572" lon="120.92916324350055"><ele>5.0</ele><time>2026-04-24T13:15:58Z</time></trkpt><trkpt lat="14.453537018020207" lon="120.92924837318289"><ele>5.0</ele><time>2026-04-24T13:15:59Z</time></trkpt><trkpt lat="14.453624217828953" lon="120.92933217027806"><ele>5.0</ele><time>2026-04-24T13:16:00Z</time></trkpt><trkpt lat="14.453710694492154" lon="120.92940693825648"><ele>5.0</ele><time>2026-04-24T13:16:01Z</time></trkpt><trkpt lat="14.453800195429753" lon="120.92949140338213"><ele>5.0</ele><time>2026-04-24T13:16:02Z</time></trkpt><trkpt lat="14.453889173987973" lon="120.92957025078431"><ele>5.0</ele><time>2026-04-24T13:16:03Z</time></trkpt><trkpt lat="14.453981140751937" lon="120.92964267584132"><ele>5.0</ele><time>2026-04-24T13:16:04Z</time></trkpt><trkpt lat="14.454075035548295" lon="120.92971161870652"><ele>5.0</ele><time>2026-04-24T13:16:05Z</time></trkpt><trkpt lat="14.454182909329162" lon="120.92977815830353"><ele>5.0</ele><time>2026-04-24T13:16:06Z</time></trkpt><trkpt lat="14.45427576916623" lon="120.92985046618088"><ele>5.0</ele><time>2026-04-24T13:16:07Z</time></trkpt><trkpt lat="14.454389248948692" lon="120.92989068280069"><ele>5.0</ele><time>2026-04-24T13:16:08Z</time></trkpt><trkpt lat="14.454506785983236" lon="120.92992912751757"><ele>5.0</ele><time>2026-04-24T13:16:09Z</time></trkpt><trkpt lat="14.454624184410207" lon="120.92995612293424"><ele>5.0</ele><time>2026-04-24T13:16:10Z</time></trkpt><trkpt lat="14.454742891128387" lon="120.92998297374773"><ele>5.0</ele><time>2026-04-24T13:16:11Z</time></trkpt><trkpt lat="14.454857121130441" lon="120.93000795917652"><ele>5.25</ele><time>2026-04-24T13:16:12Z</time></trkpt><trkpt lat="14.454975729656168" lon="120.93003273183471"><ele>5.5</ele><time>2026-04-24T13:16:13Z</time></trkpt><trkpt lat="14.45509859610656" lon="120.930059038183"><ele>5.75</ele><time>2026-04-24T13:16:14Z</time></trkpt><trkpt lat="14.45521366378543" lon="120.93008067088175"><ele>6.0</ele><time>2026-04-24T13:16:15Z</time></trkpt><trkpt lat="14.45531724919824" lon="120.93009972438126"><ele>5.6</ele><time>2026-04-24T13:16:16Z</time></trkpt><trkpt lat="14.455426556903731" lon="120.9301196505412"><ele>5.199999999999999</ele><time>2026-04-24T13:16:17Z</time></trkpt><trkpt lat="14.4555296173137" lon="120.93014079453906"><ele>4.800000000000001</ele><time>2026-04-24T13:16:18Z</time></trkpt><trkpt lat="14.455632999816585" lon="120.93012732107847"><ele>4.4</ele><time>2026-04-24T13:16:19Z</time></trkpt><trkpt lat="14.455723057208209" lon="120.93014863446304"><ele>4.0</ele><time>2026-04-24T13:16:20Z</time></trkpt><trkpt lat="14.45580938823031" lon="120.93016356426722"><ele>4.666666666666666</ele><time>2026-04-24T13:16:21Z</time></trkpt><trkpt lat="14.455902608366317" lon="120.93018014435788"><ele>5.333333333333333</ele><time>2026-04-24T13:16:22Z</time></trkpt><trkpt lat="14.45598337509173" lon="120.93018914301055"><ele>6.0</ele><time>2026-04-24T13:16:23Z</time></trkpt><trkpt lat="14.456057000089247" lon="120.93020077716257"><ele>6.666666666666666</ele><time>2026-04-24T13:16:24Z</time></trkpt><trkpt lat="14.456126850785807" lon="120.93021596740455"><ele>7.333333333333333</ele><time>2026-04-24T13:16:25Z</time></trkpt><trkpt lat="14.456199489752134" lon="120.93023214481683"><ele>8.0</ele><time>2026-04-24T13:16:26Z</time></trkpt><trkpt lat="14.456270519376798" lon="120.93024608839661"><ele>7.999999999999999</ele><time>2026-04-24T13:16:27Z</time></trkpt><trkpt lat="14.456346886982299" lon="120.93025936324432"><ele>8.0</ele><time>2026-04-24T13:16:28Z</time></trkpt><trkpt lat="14.456424173041254" lon="120.93027562299635"><ele>8.0</ele><time>2026-04-24T13:16:29Z</time></trkpt><trkpt lat="14.456504726144486" lon="120.93029164208136"><ele>8.0</ele><time>2026-04-24T13:16:30Z</time></trkpt><trkpt lat="14.456583421600119" lon="120.93030941255807"><ele>7.999999999999999</ele><time>2026-04-24T13:16:31Z</time></trkpt><trkpt lat="14.456664842330992" lon="120.93032738459736"><ele>8.0</ele><time>2026-04-24T13:16:32Z</time></trkpt><trkpt lat="14.456734901396025" lon="120.93034234149026"><ele>7.999999999999999</ele><time>2026-04-24T13:16:33Z</time></trkpt><trkpt lat="14.456802240756812" lon="120.93036023537437"><ele>8.0</ele><time>2026-04-24T13:16:34Z</time></trkpt><trkpt lat="14.45686705022929" lon="120.93038627569864"><ele>8.0</ele><time>2026-04-24T13:16:35Z</time></trkpt><trkpt lat="14.456938126875963" lon="120.93042846494055"><ele>8.0</ele><time>2026-04-24T13:16:36Z</time></trkpt><trkpt lat="14.456995062580067" lon="120.93047312635922"><ele>7.999999999999999</ele><time>2026-04-24T13:16:37Z</time></trkpt><trkpt lat="14.457065797626433" lon="120.93056507007742"><ele>8.0</ele><time>2026-04-24T13:16:39Z</time></trkpt><trkpt lat="14.457109319626175" lon="120.9306341248024"><ele>7.833333333333333</ele><time>2026-04-24T13:16:41Z</time></trkpt><trkpt lat="14.45714068289332" lon="120.93069305744136"><ele>7.666666666666666</ele><time>2026-04-24T13:16:43Z</time></trkpt><trkpt lat="14.457180066411695" lon="120.93077626183705"><ele>7.5</ele><time>2026-04-24T13:16:45Z</time></trkpt><trkpt lat="14.457220976761812" lon="120.93088372152489"><ele>7.333333333333334</ele><time>2026-04-24T13:16:47Z</time></trkpt><trkpt lat="14.457247613177419" lon="120.93094776475388"><ele>7.166666666666667</ele><time>2026-04-24T13:16:48Z</time></trkpt><trkpt lat="14.457279252140138" lon="120.93102526570314"><ele>7.0</ele><time>2026-04-24T13:16:49Z</time></trkpt><trkpt lat="14.457316571121714" lon="120.931114329289"><ele>7.0</ele><time>2026-04-24T13:16:50Z</time></trkpt><trkpt lat="14.457352100617452" lon="120.93121362904809"><ele>6.999999999999999</ele><time>2026-04-24T13:16:51Z</time></trkpt><trkpt lat="14.45738101650999" lon="120.93131102306427"><ele>6.999999999999999</ele><time>2026-04-24T13:16:52Z</time></trkpt><trkpt lat="14.457415135685165" lon="120.93141017063067"><ele>7.0</ele><time>2026-04-24T13:16:53Z</time></trkpt><trkpt lat="14.457437032547226" lon="120.93149130657463"><ele>7.0</ele><time>2026-04-24T13:16:54Z</time></trkpt><trkpt lat="14.457461476684509" lon="120.9315658880563"><ele>7.000000000000001</ele><time>2026-04-24T13:16:55Z</time></trkpt><trkpt lat="14.457485924335234" lon="120.93165485350487"><ele>7.0</ele><time>2026-04-24T13:16:56Z</time></trkpt><trkpt lat="14.457507642760804" lon="120.93174144009663"><ele>7.0</ele><time>2026-04-24T13:16:57Z</time></trkpt><trkpt lat="14.457534102105003" lon="120.93182018651895"><ele>7.0</ele><time>2026-04-24T13:16:58Z</time></trkpt><trkpt lat="14.457561572622613" lon="120.93190509551141"><ele>7.000000000000001</ele><time>2026-04-24T13:16:59Z</time></trkpt><trkpt lat="14.457590146621781" lon="120.93199375952295"><ele>7.0</ele><time>2026-04-24T13:17:00Z</time></trkpt><trkpt lat="14.457618327340487" lon="120.93208211414797"><ele>6.833333333333334</ele><time>2026-04-24T13:17:01Z</time></trkpt><trkpt lat="14.457650436675173" lon="120.93217721606672"><ele>6.666666666666667</ele><time>2026-04-24T13:17:02Z</time></trkpt><trkpt lat="14.457675037293768" lon="120.93225101849424"><ele>6.5</ele><time>2026-04-24T13:17:03Z</time></trkpt><trkpt lat="14.457696939688933" lon="120.93233071961896"><ele>6.333333333333334</ele><time>2026-04-24T13:17:04Z</time></trkpt><trkpt lat="14.457718904102752" lon="120.93239788742368"><ele>6.166666666666667</ele><time>2026-04-24T13:17:05Z</time></trkpt><trkpt lat="14.457752014600125" lon="120.93250333532289"><ele>6.0</ele><time>2026-04-24T13:17:07Z</time></trkpt><trkpt lat="14.457769328762538" lon="120.93256749993107"><ele>6.0</ele><time>2026-04-24T13:17:08Z</time></trkpt><trkpt lat="14.457785408386595" lon="120.93264458004384"><ele>6.0</ele><time>2026-04-24T13:17:09Z</time></trkpt><trkpt lat="14.45779287746168" lon="120.93271343493812"><ele>6.0</ele><time>2026-04-24T13:17:10Z</time></trkpt><trkpt lat="14.457802668406083" lon="120.93282218438067"><ele>6.0</ele><time>2026-04-24T13:17:11Z</time></trkpt><trkpt lat="14.457819410262847" lon="120.93292613361422"><ele>6.0</ele><time>2026-04-24T13:17:12Z</time></trkpt><trkpt lat="14.457839565237402" lon="120.93303797517558"><ele>6.0</ele><time>2026-04-24T13:17:13Z</time></trkpt><trkpt lat="14.45785661997025" lon="120.93315381663804"><ele>6.0</ele><time>2026-04-24T13:17:14Z</time></trkpt><trkpt lat="14.457873700252986" lon="120.93327246239726"><ele>6.0</ele><time>2026-04-24T13:17:15Z</time></trkpt><trkpt lat="14.457885117014234" lon="120.93339073933707"><ele>6.0</ele><time>2026-04-24T13:17:16Z</time></trkpt><trkpt lat="14.457900782417866" lon="120.93351146359473"><ele>6.0</ele><time>2026-04-24T13:17:17Z</time></trkpt><trkpt lat="14.457910552585528" lon="120.93362544480347"><ele>6.0</ele><time>2026-04-24T13:17:18Z</time></trkpt><trkpt lat="14.457924278166844" lon="120.93373126512017"><ele>6.0</ele><time>2026-04-24T13:17:19Z</time></trkpt><trkpt lat="14.45793488209038" lon="120.93383772933998"><ele>6.0</ele><time>2026-04-24T13:17:20Z</time></trkpt><trkpt lat="14.457946996997448" lon="120.9339444913111"><ele>6.0</ele><time>2026-04-24T13:17:21Z</time></trkpt><trkpt lat="14.457958577030833" lon="120.93403565089014"><ele>6.0</ele><time>2026-04-24T13:17:22Z</time></trkpt><trkpt lat="14.457972266287255" lon="120.93412069090284"><ele>6.0</ele><time>2026-04-24T13:17:23Z</time></trkpt><trkpt lat="14.457984290039397" lon="120.93420679056776"><ele>6.0</ele><time>2026-04-24T13:17:24Z</time></trkpt><trkpt lat="14.458001316270257" lon="120.93429758403943"><ele>6.0</ele><time>2026-04-24T13:17:25Z</time></trkpt><trkpt lat="14.458009948957079" lon="120.93439614602752"><ele>6.0</ele><time>2026-04-24T13:17:26Z</time></trkpt><trkpt lat="14.458025309436318" lon="120.93448633413794"><ele>6.0</ele><time>2026-04-24T13:17:27Z</time></trkpt><trkpt lat="14.458046339789343" lon="120.9345746707213"><ele>6.0</ele><time>2026-04-24T13:17:28Z</time></trkpt><trkpt lat="14.458067772827977" lon="120.93466405312687"><ele>6.0</ele><time>2026-04-24T13:17:29Z</time></trkpt><trkpt lat="14.458086655308188" lon="120.9347503662157"><ele>6.0</ele><time>2026-04-24T13:17:30Z</time></trkpt><trkpt lat="14.458102764732013" lon="120.93482584947878"><ele>6.0</ele><time>2026-04-24T13:17:31Z</time></trkpt><trkpt lat="14.45811920002789" lon="120.93490108072754"><ele>6.0</ele><time>2026-04-24T13:17:32Z</time></trkpt><trkpt lat="14.458132786318203" lon="120.93497879634332"><ele>6.0</ele><time>2026-04-24T13:17:33Z</time></trkpt><trkpt lat="14.458142428045427" lon="120.93504794916784"><ele>5.6</ele><time>2026-04-24T13:17:34Z</time></trkpt><trkpt lat="14.458165937359357" lon="120.93512675186977"><ele>5.199999999999999</ele><time>2026-04-24T13:17:35Z</time></trkpt><trkpt lat="14.45818899386541" lon="120.935208160279"><ele>4.800000000000001</ele><time>2026-04-24T13:17:36Z</time></trkpt><trkpt lat="14.45821591856137" lon="120.93529598539004"><ele>4.4</ele><time>2026-04-24T13:17:37Z</time></trkpt><trkpt lat="14.45823301941495" lon="120.93540414330948"><ele>4.0</ele><time>2026-04-24T13:17:38Z</time></trkpt><trkpt lat="14.458253590375756" lon="120.9355217803823"><ele>4.0</ele><time>2026-04-24T13:17:39Z</time></trkpt><trkpt lat="14.458276877678463" lon="120.93564066757504"><ele>4.0</ele><time>2026-04-24T13:17:40Z</time></trkpt><trkpt lat="14.458304152582127" lon="120.93575905311637"><ele>4.0</ele><time>2026-04-24T13:17:41Z</time></trkpt><trkpt lat="14.45833896367049" lon="120.935888647432"><ele>4.0</ele><time>2026-04-24T13:17:42Z</time></trkpt><trkpt lat="14.458366312953753" lon="120.93601319084851"><ele>4.25</ele><time>2026-04-24T13:17:43Z</time></trkpt><trkpt lat="14.458398501504371" lon="120.93614490882135"><ele>4.5</ele><time>2026-04-24T13:17:44Z</time></trkpt><trkpt lat="14.458427488819915" lon="120.93626697858286"><ele>4.75</ele><time>2026-04-24T13:17:45Z</time></trkpt><trkpt lat="14.458460175873237" lon="120.93639533709327"><ele>5.0</ele><time>2026-04-24T13:17:46Z</time></trkpt><trkpt lat="14.458492517982663" lon="120.93652429209199"><ele>5.0</ele><time>2026-04-24T13:17:47Z</time></trkpt><trkpt lat="14.458517245196722" lon="120.9366371203428"><ele>5.0</ele><time>2026-04-24T13:17:48Z</time></trkpt><trkpt lat="14.458540160833854" lon="120.93673750986964"><ele>5.0</ele><time>2026-04-24T13:17:49Z</time></trkpt><trkpt lat="14.458565077119506" lon="120.93683342281261"><ele>5.0</ele><time>2026-04-24T13:17:50Z</time></trkpt><trkpt lat="14.458584777865616" lon="120.93692865853262"><ele>5.0</ele><time>2026-04-24T13:17:51Z</time></trkpt><trkpt lat="14.458609050882393" lon="120.93702721260976"><ele>5.4</ele><time>2026-04-24T13:17:52Z</time></trkpt><trkpt lat="14.458633275369568" lon="120.9371243187564"><ele>5.8</ele><time>2026-04-24T13:17:53Z</time></trkpt><trkpt lat="14.458657192455735" lon="120.93722218190317"><ele>6.199999999999999</ele><time>2026-04-24T13:17:54Z</time></trkpt><trkpt lat="14.458671885975264" lon="120.93731299310662"><ele>6.6</ele><time>2026-04-24T13:17:55Z</time></trkpt><trkpt lat="14.458684909446985" lon="120.9374096685785"><ele>7.0</ele><time>2026-04-24T13:17:56Z</time></trkpt><trkpt lat="14.458709228469456" lon="120.93750534813606"><ele>6.833333333333334</ele><time>2026-04-24T13:17:57Z</time></trkpt><trkpt lat="14.458738830613159" lon="120.93760375552422"><ele>6.666666666666667</ele><time>2026-04-24T13:17:58Z</time></trkpt><trkpt lat="14.458763945243252" lon="120.93770129681114"><ele>6.5</ele><time>2026-04-24T13:17:59Z</time></trkpt><trkpt lat="14.458782938774835" lon="120.93778365592307"><ele>6.333333333333334</ele><time>2026-04-24T13:18:00Z</time></trkpt><trkpt lat="14.458801703763887" lon="120.9378570025183"><ele>6.166666666666667</ele><time>2026-04-24T13:18:01Z</time></trkpt><trkpt lat="14.4588187902376" lon="120.93792447665153"><ele>6.0</ele><time>2026-04-24T13:18:02Z</time></trkpt><trkpt lat="14.458829928777392" lon="120.93799340888894"><ele>5.8</ele><time>2026-04-24T13:18:03Z</time></trkpt><trkpt lat="14.458855919169746" lon="120.93810875998383"><ele>5.6</ele><time>2026-04-24T13:18:05Z</time></trkpt><trkpt lat="14.458881164380855" lon="120.93822159950402"><ele>5.4</ele><time>2026-04-24T13:18:07Z</time></trkpt><trkpt lat="14.458907247769154" lon="120.93832212217929"><ele>5.2</ele><time>2026-04-24T13:18:09Z</time></trkpt><trkpt lat="14.45893653242439" lon="120.93843286654874"><ele>5.0</ele><time>2026-04-24T13:18:11Z</time></trkpt><trkpt lat="14.458952288162314" lon="120.93850868153329"><ele>5.6</ele><time>2026-04-24T13:18:12Z</time></trkpt><trkpt lat="14.45897156337805" lon="120.93858783422758"><ele>6.2</ele><time>2026-04-24T13:18:13Z</time></trkpt><trkpt lat="14.458994436126625" lon="120.93867306434973"><ele>6.800000000000001</ele><time>2026-04-24T13:18:14Z</time></trkpt><trkpt lat="14.459018086059539" lon="120.93878026229564"><ele>7.4</ele><time>2026-04-24T13:18:15Z</time></trkpt><trkpt lat="14.45903579885516" lon="120.9388925966496"><ele>8.0</ele><time>2026-04-24T13:18:16Z</time></trkpt><trkpt lat="14.459052950940498" lon="120.939007994706"><ele>8.0</ele><time>2026-04-24T13:18:17Z</time></trkpt><trkpt lat="14.459082643599158" lon="120.93912577218634"><ele>8.0</ele><time>2026-04-24T13:18:18Z</time></trkpt><trkpt lat="14.45911661462908" lon="120.93925642858547"><ele>8.0</ele><time>2026-04-24T13:18:19Z</time></trkpt><trkpt lat="14.459145172016234" lon="120.93937651383615"><ele>8.0</ele><time>2026-04-24T13:18:20Z</time></trkpt><trkpt lat="14.459172295963711" lon="120.93949534149162"><ele>8.0</ele><time>2026-04-24T13:18:21Z</time></trkpt><trkpt lat="14.459196073826535" lon="120.9395999121274"><ele>8.0</ele><time>2026-04-24T13:18:22Z</time></trkpt><trkpt lat="14.459214433947835" lon="120.93970080034393"><ele>8.0</ele><time>2026-04-24T13:18:23Z</time></trkpt><trkpt lat="14.459233738934572" lon="120.93979785114205"><ele>8.0</ele><time>2026-04-24T13:18:24Z</time></trkpt><trkpt lat="14.45924564371399" lon="120.93989227260325"><ele>8.0</ele><time>2026-04-24T13:18:25Z</time></trkpt><trkpt lat="14.459256644147407" lon="120.93998867162891"><ele>8.0</ele><time>2026-04-24T13:18:26Z</time></trkpt><trkpt lat="14.459271502514046" lon="120.9400749513752"><ele>8.0</ele><time>2026-04-24T13:18:27Z</time></trkpt><trkpt lat="14.459284286714677" lon="120.94017231838315"><ele>8.0</ele><time>2026-04-24T13:18:28Z</time></trkpt><trkpt lat="14.459297925172418" lon="120.94026723461049"><ele>8.0</ele><time>2026-04-24T13:18:29Z</time></trkpt><trkpt lat="14.459308970723491" lon="120.94035948946193"><ele>8.0</ele><time>2026-04-24T13:18:30Z</time></trkpt><trkpt lat="14.459314231604393" lon="120.94045499590082"><ele>8.0</ele><time>2026-04-24T13:18:31Z</time></trkpt><trkpt lat="14.45932085218945" lon="120.94055131345203"><ele>8.0</ele><time>2026-04-24T13:18:32Z</time></trkpt><trkpt lat="14.45932858512291" lon="120.94065027055771"><ele>8.0</ele><time>2026-04-24T13:18:33Z</time></trkpt><trkpt lat="14.459339432805407" lon="120.94074831135"><ele>8.0</ele><time>2026-04-24T13:18:34Z</time></trkpt><trkpt lat="14.459347978483633" lon="120.94084063593618"><ele>8.0</ele><time>2026-04-24T13:18:35Z</time></trkpt><trkpt lat="14.459357611486013" lon="120.94094770930585"><ele>7.6000000000000005</ele><time>2026-04-24T13:18:36Z</time></trkpt><trkpt lat="14.45936906010835" lon="120.94105806040923"><ele>7.200000000000001</ele><time>2026-04-24T13:18:37Z</time></trkpt><trkpt lat="14.459382613199727" lon="120.94116946137801"><ele>6.8</ele><time>2026-04-24T13:18:38Z</time></trkpt><trkpt lat="14.459394102195661" lon="120.9412838643013"><ele>6.4</ele><time>2026-04-24T13:18:39Z</time></trkpt><trkpt lat="14.459406727491507" lon="120.94140328436971"><ele>6.0</ele><time>2026-04-24T13:18:40Z</time></trkpt><trkpt lat="14.459420139264394" lon="120.94152917478094"><ele>6.0</ele><time>2026-04-24T13:18:41Z</time></trkpt><trkpt lat="14.459431284124937" lon="120.94165397967178"><ele>6.0</ele><time>2026-04-24T13:18:42Z</time></trkpt><trkpt lat="14.459441689344281" lon="120.94178930488154"><ele>6.0</ele><time>2026-04-24T13:18:43Z</time></trkpt><trkpt lat="14.459452092236562" lon="120.9419262781791"><ele>6.0</ele><time>2026-04-24T13:18:44Z</time></trkpt><trkpt lat="14.459462153499162" lon="120.94206386823085"><ele>6.5</ele><time>2026-04-24T13:18:45Z</time></trkpt><trkpt lat="14.45947782292199" lon="120.94220608387522"><ele>7.0</ele><time>2026-04-24T13:18:46Z</time></trkpt><trkpt lat="14.459492279062944" lon="120.9423496244219"><ele>7.5</ele><time>2026-04-24T13:18:47Z</time></trkpt><trkpt lat="14.459503886359881" lon="120.94249800124445"><ele>8.0</ele><time>2026-04-24T13:18:48Z</time></trkpt><trkpt lat="14.459517653602044" lon="120.94264582674879"><ele>8.0</ele><time>2026-04-24T13:18:49Z</time></trkpt><trkpt lat="14.459532782938341" lon="120.9427845523596"><ele>8.0</ele><time>2026-04-24T13:18:50Z</time></trkpt><trkpt lat="14.459545265475342" lon="120.94291294388711"><ele>8.0</ele><time>2026-04-24T13:18:51Z</time></trkpt><trkpt lat="14.459551666487254" lon="120.94303813153974"><ele>8.0</ele><time>2026-04-24T13:18:52Z</time></trkpt><trkpt lat="14.45956241708445" lon="120.94315415713855"><ele>8.0</ele><time>2026-04-24T13:18:53Z</time></trkpt><trkpt lat="14.459578631615914" lon="120.94325903121307"><ele>8.0</ele><time>2026-04-24T13:18:54Z</time></trkpt><trkpt lat="14.459585497202246" lon="120.94336023159465"><ele>8.0</ele><time>2026-04-24T13:18:55Z</time></trkpt><trkpt lat="14.459597101791484" lon="120.94345784566556"><ele>8.0</ele><time>2026-04-24T13:18:56Z</time></trkpt><trkpt lat="14.459606208854222" lon="120.94355949742156"><ele>8.0</ele><time>2026-04-24T13:18:57Z</time></trkpt><trkpt lat="14.45961426451205" lon="120.94366435977146"><ele>8.0</ele><time>2026-04-24T13:18:58Z</time></trkpt><trkpt lat="14.459622191709869" lon="120.94376053223272"><ele>8.0</ele><time>2026-04-24T13:18:59Z</time></trkpt><trkpt lat="14.45962540779228" lon="120.94385778699268"><ele>8.0</ele><time>2026-04-24T13:19:00Z</time></trkpt><trkpt lat="14.45962380665416" lon="120.94394812610395"><ele>8.0</ele><time>2026-04-24T13:19:01Z</time></trkpt><trkpt lat="14.459628094521536" lon="120.94404135251091"><ele>8.0</ele><time>2026-04-24T13:19:02Z</time></trkpt><trkpt lat="14.459635339590935" lon="120.94414819712976"><ele>7.5</ele><time>2026-04-24T13:19:03Z</time></trkpt><trkpt lat="14.459638671313035" lon="120.9442629603383"><ele>7.0</ele><time>2026-04-24T13:19:04Z</time></trkpt><trkpt lat="14.459645063486231" lon="120.94438180175733"><ele>6.5</ele><time>2026-04-24T13:19:05Z</time></trkpt><trkpt lat="14.459654061795773" lon="120.94450069325961"><ele>6.0</ele><time>2026-04-24T13:19:06Z</time></trkpt><trkpt lat="14.45966684698131" lon="120.94461608686758"><ele>6.0</ele><time>2026-04-24T13:19:07Z</time></trkpt><trkpt lat="14.459678322031651" lon="120.94471856961776"><ele>6.0</ele><time>2026-04-24T13:19:08Z</time></trkpt><trkpt lat="14.459685358211042" lon="120.94481710788179"><ele>6.0</ele><time>2026-04-24T13:19:09Z</time></trkpt><trkpt lat="14.45969000034937" lon="120.94489882447981"><ele>6.0</ele><time>2026-04-24T13:19:10Z</time></trkpt><trkpt lat="14.45969587181483" lon="120.94501822658577"><ele>6.0</ele><time>2026-04-24T13:19:12Z</time></trkpt><trkpt lat="14.459701613654692" lon="120.94513081785688"><ele>6.199999999999999</ele><time>2026-04-24T13:19:14Z</time></trkpt><trkpt lat="14.459702441088467" lon="120.94525143892709"><ele>6.3999999999999995</ele><time>2026-04-24T13:19:16Z</time></trkpt><trkpt lat="14.45970946827663" lon="120.94537550957895"><ele>6.6</ele><time>2026-04-24T13:19:18Z</time></trkpt><trkpt lat="14.45971396997723" lon="120.94544400768626"><ele>6.8</ele><time>2026-04-24T13:19:19Z</time></trkpt><trkpt lat="14.459715267235735" lon="120.94555826976875"><ele>7.0</ele><time>2026-04-24T13:19:21Z</time></trkpt><trkpt lat="14.459719213984853" lon="120.94567085100321"><ele>7.000000000000001</ele><time>2026-04-24T13:19:23Z</time></trkpt><trkpt lat="14.459716517626001" lon="120.9457553329379"><ele>7.0</ele><time>2026-04-24T13:19:25Z</time></trkpt><trkpt lat="14.459718704835797" lon="120.94583096020325"><ele>7.0</ele><time>2026-04-24T13:19:27Z</time></trkpt><trkpt lat="14.45972023114382" lon="120.94592071324158"><ele>7.0</ele><time>2026-04-24T13:19:29Z</time></trkpt><trkpt lat="14.459716965873788" lon="120.94603210684663"><ele>7.000000000000001</ele><time>2026-04-24T13:19:31Z</time></trkpt><trkpt lat="14.459723509750471" lon="120.94612561534785"><ele>7.0</ele><time>2026-04-24T13:19:33Z</time></trkpt><trkpt lat="14.459728525411629" lon="120.94623074062629"><ele>7.199999999999999</ele><time>2026-04-24T13:19:35Z</time></trkpt><trkpt lat="14.459730912682591" lon="120.94629737770934"><ele>7.3999999999999995</ele><time>2026-04-24T13:19:36Z</time></trkpt><trkpt lat="14.459734834012218" lon="120.94636257718399"><ele>7.6000000000000005</ele><time>2026-04-24T13:19:37Z</time></trkpt><trkpt lat="14.459736672487198" lon="120.94648257929207"><ele>7.800000000000001</ele><time>2026-04-24T13:19:39Z</time></trkpt><trkpt lat="14.459739921075004" lon="120.94659565993192"><ele>8.0</ele><time>2026-04-24T13:19:41Z</time></trkpt><trkpt lat="14.459754343181238" lon="120.94673065749501"><ele>8.0</ele><time>2026-04-24T13:19:43Z</time></trkpt><trkpt lat="14.459765336111397" lon="120.94681773804231"><ele>8.0</ele><time>2026-04-24T13:19:44Z</time></trkpt><trkpt lat="14.459776334483726" lon="120.94692241740758"><ele>8.0</ele><time>2026-04-24T13:19:45Z</time></trkpt><trkpt lat="14.459781718681173" lon="120.94702681855213"><ele>8.0</ele><time>2026-04-24T13:19:46Z</time></trkpt><trkpt lat="14.459785511406269" lon="120.94714166837767"><ele>8.0</ele><time>2026-04-24T13:19:47Z</time></trkpt><trkpt lat="14.459789041145665" lon="120.94725890500598"><ele>8.0</ele><time>2026-04-24T13:19:48Z</time></trkpt><trkpt lat="14.459792825308456" lon="120.94736775850313"><ele>8.0</ele><time>2026-04-24T13:19:49Z</time></trkpt><trkpt lat="14.459804045761606" lon="120.94749156289608"><ele>8.0</ele><time>2026-04-24T13:19:50Z</time></trkpt><trkpt lat="14.45981183856842" lon="120.94760224284043"><ele>8.0</ele><time>2026-04-24T13:19:51Z</time></trkpt><trkpt lat="14.459823848048242" lon="120.94770571103642"><ele>8.0</ele><time>2026-04-24T13:19:52Z</time></trkpt><trkpt lat="14.459832362822018" lon="120.94779753674871"><ele>7.800000000000001</ele><time>2026-04-24T13:19:53Z</time></trkpt><trkpt lat="14.459840637634013" lon="120.94789600948233"><ele>7.6000000000000005</ele><time>2026-04-24T13:19:54Z</time></trkpt><trkpt lat="14.459848531631742" lon="120.94799073720685"><ele>7.3999999999999995</ele><time>2026-04-24T13:19:55Z</time></trkpt><trkpt lat="14.459857749151459" lon="120.9480885778669"><ele>7.199999999999999</ele><time>2026-04-24T13:19:56Z</time></trkpt><trkpt lat="14.459868501406392" lon="120.94819042102611"><ele>7.0</ele><time>2026-04-24T13:19:57Z</time></trkpt><trkpt lat="14.4598808301622" lon="120.94829814097885"><ele>7.000000000000001</ele><time>2026-04-24T13:19:58Z</time></trkpt><trkpt lat="14.459893398653637" lon="120.94839864124592"><ele>7.0</ele><time>2026-04-24T13:19:59Z</time></trkpt><trkpt lat="14.459903270017183" lon="120.9484977598483"><ele>7.0</ele><time>2026-04-24T13:20:00Z</time></trkpt><trkpt lat="14.459912818654674" lon="120.94858536516035"><ele>7.0</ele><time>2026-04-24T13:20:01Z</time></trkpt><trkpt lat="14.459923881802712" lon="120.94866316648977"><ele>7.000000000000001</ele><time>2026-04-24T13:20:02Z</time></trkpt><trkpt lat="14.459929631158584" lon="120.94873712618264"><ele>7.0</ele><time>2026-04-24T13:20:03Z</time></trkpt><trkpt lat="14.459938461941269" lon="120.94881323160664"><ele>7.000000000000001</ele><time>2026-04-24T13:20:04Z</time></trkpt><trkpt lat="14.459945948997545" lon="120.94888978850395"><ele>7.0</ele><time>2026-04-24T13:20:05Z</time></trkpt><trkpt lat="14.459953578383336" lon="120.94897174060921"><ele>7.0</ele><time>2026-04-24T13:20:06Z</time></trkpt><trkpt lat="14.459962902183285" lon="120.9490646530077"><ele>7.0</ele><time>2026-04-24T13:20:07Z</time></trkpt><trkpt lat="14.459970612190576" lon="120.94913492913813"><ele>7.000000000000001</ele><time>2026-04-24T13:20:08Z</time></trkpt><trkpt lat="14.459974994548276" lon="120.94920552987708"><ele>7.0</ele><time>2026-04-24T13:20:09Z</time></trkpt><trkpt lat="14.459988799879753" lon="120.94932103736907"><ele>7.0</ele><time>2026-04-24T13:20:11Z</time></trkpt><trkpt lat="14.460000126986333" lon="120.94944781762739"><ele>6.999999999999999</ele><time>2026-04-24T13:20:13Z</time></trkpt><trkpt lat="14.460013538160178" lon="120.94957108235938"><ele>6.999999999999999</ele><time>2026-04-24T13:20:15Z</time></trkpt><trkpt lat="14.4600320679765" lon="120.94969697944072"><ele>7.0</ele><time>2026-04-24T13:20:17Z</time></trkpt><trkpt lat="14.460038359436309" lon="120.94976260498179"><ele>7.0</ele><time>2026-04-24T13:20:18Z</time></trkpt><trkpt lat="14.460046518852938" lon="120.94984024540746"><ele>7.000000000000001</ele><time>2026-04-24T13:20:19Z</time></trkpt><trkpt lat="14.460055472590266" lon="120.94991839573898"><ele>7.0</ele><time>2026-04-24T13:20:20Z</time></trkpt><trkpt lat="14.460063608208781" lon="120.94999732637636"><ele>7.0</ele><time>2026-04-24T13:20:21Z</time></trkpt><trkpt lat="14.460069967979484" lon="120.95007629176236"><ele>7.0</ele><time>2026-04-24T13:20:22Z</time></trkpt><trkpt lat="14.460077371466975" lon="120.9501489740965"><ele>7.000000000000001</ele><time>2026-04-24T13:20:23Z</time></trkpt><trkpt lat="14.460085643073686" lon="120.95023026723047"><ele>7.0</ele><time>2026-04-24T13:20:24Z</time></trkpt><trkpt lat="14.460094400091387" lon="120.95030693299675"><ele>7.333333333333334</ele><time>2026-04-24T13:20:25Z</time></trkpt><trkpt lat="14.460102843264611" lon="120.95038877315883"><ele>7.666666666666667</ele><time>2026-04-24T13:20:26Z</time></trkpt><trkpt lat="14.460112405847658" lon="120.95046892161221"><ele>8.0</ele><time>2026-04-24T13:20:27Z</time></trkpt><trkpt lat="14.460122022692488" lon="120.95054913260317"><ele>8.333333333333334</ele><time>2026-04-24T13:20:28Z</time></trkpt><trkpt lat="14.460131262119445" lon="120.95063489745772"><ele>8.666666666666666</ele><time>2026-04-24T13:20:29Z</time></trkpt><trkpt lat="14.460142759046843" lon="120.95072653976779"><ele>9.0</ele><time>2026-04-24T13:20:30Z</time></trkpt><trkpt lat="14.460153344290532" lon="120.95082827630003"><ele>8.833333333333334</ele><time>2026-04-24T13:20:31Z</time></trkpt><trkpt lat="14.46016292180791" lon="120.95093014368163"><ele>8.666666666666666</ele><time>2026-04-24T13:20:32Z</time></trkpt><trkpt lat="14.460171042302" lon="120.95102956416527"><ele>8.5</ele><time>2026-04-24T13:20:33Z</time></trkpt><trkpt lat="14.460178035250715" lon="120.95111552640283"><ele>8.333333333333332</ele><time>2026-04-24T13:20:34Z</time></trkpt><trkpt lat="14.460184423488082" lon="120.95119059368459"><ele>8.166666666666666</ele><time>2026-04-24T13:20:35Z</time></trkpt><trkpt lat="14.460194204357853" lon="120.95126706859261"><ele>8.0</ele><time>2026-04-24T13:20:36Z</time></trkpt><trkpt lat="14.460201050741096" lon="120.95133734441062"><ele>7.999999999999999</ele><time>2026-04-24T13:20:37Z</time></trkpt><trkpt lat="14.460207649246342" lon="120.95140423149002"><ele>8.0</ele><time>2026-04-24T13:20:38Z</time></trkpt><trkpt lat="14.46021351161919" lon="120.95147013201311"><ele>8.0</ele><time>2026-04-24T13:20:39Z</time></trkpt><trkpt lat="14.460225049960599" lon="120.95159004874071"><ele>8.0</ele><time>2026-04-24T13:20:41Z</time></trkpt><trkpt lat="14.460236685583443" lon="120.95171178243251"><ele>7.999999999999999</ele><time>2026-04-24T13:20:43Z</time></trkpt><trkpt lat="14.460245880893742" lon="120.95178378152374"><ele>8.0</ele><time>2026-04-24T13:20:44Z</time></trkpt><trkpt lat="14.46025858348473" lon="120.95185357318763"><ele>7.857142857142857</ele><time>2026-04-24T13:20:45Z</time></trkpt><trkpt lat="14.460269451913703" lon="120.95192861239478"><ele>7.7142857142857135</ele><time>2026-04-24T13:20:46Z</time></trkpt><trkpt lat="14.460277892775025" lon="120.95200743482117"><ele>7.571428571428571</ele><time>2026-04-24T13:20:47Z</time></trkpt><trkpt lat="14.460286192113712" lon="120.95208849388202"><ele>7.428571428571429</ele><time>2026-04-24T13:20:48Z</time></trkpt><trkpt lat="14.46029492554497" lon="120.95216518316182"><ele>7.285714285714286</ele><time>2026-04-24T13:20:49Z</time></trkpt><trkpt lat="14.46030217099297" lon="120.95223864666562"><ele>7.142857142857142</ele><time>2026-04-24T13:20:50Z</time></trkpt><trkpt lat="14.460308750740017" lon="120.9523071016039"><ele>7.0</ele><time>2026-04-24T13:20:51Z</time></trkpt><trkpt lat="14.460314247109363" lon="120.9523745849419"><ele>7.000000000000001</ele><time>2026-04-24T13:20:52Z</time></trkpt><trkpt lat="14.460323652705275" lon="120.95244714975145"><ele>7.0</ele><time>2026-04-24T13:20:53Z</time></trkpt><trkpt lat="14.460333395886682" lon="120.95253093313107"><ele>7.0</ele><time>2026-04-24T13:20:54Z</time></trkpt><trkpt lat="14.460346612103875" lon="120.95261510956323"><ele>7.0</ele><time>2026-04-24T13:20:55Z</time></trkpt><trkpt lat="14.460355525703951" lon="120.95270803093273"><ele>7.000000000000001</ele><time>2026-04-24T13:20:56Z</time></trkpt><trkpt lat="14.46036414393158" lon="120.9528052397548"><ele>7.0</ele><time>2026-04-24T13:20:57Z</time></trkpt><trkpt lat="14.460377738279611" lon="120.95290937276779"><ele>7.000000000000001</ele><time>2026-04-24T13:20:58Z</time></trkpt><trkpt lat="14.460395063874776" lon="120.95300712292637"><ele>7.0</ele><time>2026-04-24T13:20:59Z</time></trkpt><trkpt lat="14.460409660909088" lon="120.95311073679252"><ele>7.0</ele><time>2026-04-24T13:21:00Z</time></trkpt><trkpt lat="14.460428729880457" lon="120.95319400548047"><ele>7.0</ele><time>2026-04-24T13:21:01Z</time></trkpt><trkpt lat="14.460446713858307" lon="120.95326985435638"><ele>7.000000000000001</ele><time>2026-04-24T13:21:02Z</time></trkpt><trkpt lat="14.460465548437236" lon="120.9533350340591"><ele>7.0</ele><time>2026-04-24T13:21:03Z</time></trkpt><trkpt lat="14.460480709685735" lon="120.95340647904817"><ele>7.142857142857142</ele><time>2026-04-24T13:21:04Z</time></trkpt><trkpt lat="14.460499332537715" lon="120.95348026129633"><ele>7.285714285714286</ele><time>2026-04-24T13:21:05Z</time></trkpt><trkpt lat="14.460513929979946" lon="120.95355860121222"><ele>7.428571428571429</ele><time>2026-04-24T13:21:06Z</time></trkpt><trkpt lat="14.460534116197078" lon="120.95363337132422"><ele>7.571428571428571</ele><time>2026-04-24T13:21:07Z</time></trkpt><trkpt lat="14.460554439208089" lon="120.9537022093611"><ele>7.7142857142857135</ele><time>2026-04-24T13:21:08Z</time></trkpt><trkpt lat="14.460575958960687" lon="120.95376784416007"><ele>7.857142857142857</ele><time>2026-04-24T13:21:09Z</time></trkpt><trkpt lat="14.460599244391387" lon="120.95385064258768"><ele>8.0</ele><time>2026-04-24T13:21:10Z</time></trkpt><trkpt lat="14.460621961832246" lon="120.95392977606066"><ele>7.999999999999999</ele><time>2026-04-24T13:21:11Z</time></trkpt><trkpt lat="14.460641048595136" lon="120.95401275650391"><ele>8.0</ele><time>2026-04-24T13:21:12Z</time></trkpt><trkpt lat="14.460663146408573" lon="120.95409842233815"><ele>8.0</ele><time>2026-04-24T13:21:13Z</time></trkpt><trkpt lat="14.460684158055761" lon="120.95418077996587"><ele>8.0</ele><time>2026-04-24T13:21:14Z</time></trkpt><trkpt lat="14.460706907159501" lon="120.95425628789798"><ele>7.999999999999999</ele><time>2026-04-24T13:21:15Z</time></trkpt><trkpt lat="14.460731598080335" lon="120.95433944660981"><ele>8.0</ele><time>2026-04-24T13:21:16Z</time></trkpt><trkpt lat="14.460752576367282" lon="120.95441967199191"><ele>7.999999999999999</ele><time>2026-04-24T13:21:17Z</time></trkpt><trkpt lat="14.46077232270029" lon="120.95450134781905"><ele>8.0</ele><time>2026-04-24T13:21:18Z</time></trkpt><trkpt lat="14.460791956497966" lon="120.95458530054204"><ele>8.0</ele><time>2026-04-24T13:21:19Z</time></trkpt><trkpt lat="14.46081604134956" lon="120.954665762822"><ele>8.0</ele><time>2026-04-24T13:21:20Z</time></trkpt><trkpt lat="14.460837557852452" lon="120.95474461595899"><ele>7.999999999999999</ele><time>2026-04-24T13:21:21Z</time></trkpt><trkpt lat="14.460855487990385" lon="120.95482493098247"><ele>8.0</ele><time>2026-04-24T13:21:22Z</time></trkpt><trkpt lat="14.460875626060727" lon="120.9548911123087"><ele>8.0</ele><time>2026-04-24T13:21:23Z</time></trkpt><trkpt lat="14.460896030294625" lon="120.95495968076051"><ele>7.999999999999999</ele><time>2026-04-24T13:21:24Z</time></trkpt><trkpt lat="14.460915141718376" lon="120.95502668748077"><ele>8.0</ele><time>2026-04-24T13:21:25Z</time></trkpt><trkpt lat="14.46093432785673" lon="120.95509394694787"><ele>8.0</ele><time>2026-04-24T13:21:26Z</time></trkpt><trkpt lat="14.460950522866273" lon="120.95516732881597"><ele>7.999999999999999</ele><time>2026-04-24T13:21:27Z</time></trkpt><trkpt lat="14.460970995935027" lon="120.95524388146505"><ele>8.0</ele><time>2026-04-24T13:21:28Z</time></trkpt><trkpt lat="14.4609920126667" lon="120.95531528551196"><ele>8.0</ele><time>2026-04-24T13:21:29Z</time></trkpt><trkpt lat="14.461013454083503" lon="120.95539334698033"><ele>8.333333333333332</ele><time>2026-04-24T13:21:30Z</time></trkpt><trkpt lat="14.461031141850793" lon="120.95546215794485"><ele>8.666666666666666</ele><time>2026-04-24T13:21:31Z</time></trkpt><trkpt lat="14.461050292839673" lon="120.95554068624722"><ele>9.0</ele><time>2026-04-24T13:21:32Z</time></trkpt><trkpt lat="14.46107479928933" lon="120.95561618743045"><ele>9.333333333333334</ele><time>2026-04-24T13:21:33Z</time></trkpt><trkpt lat="14.46109685934434" lon="120.9556935852736"><ele>9.666666666666668</ele><time>2026-04-24T13:21:34Z</time></trkpt><trkpt lat="14.461120385295876" lon="120.95577202449036"><ele>10.0</ele><time>2026-04-24T13:21:35Z</time></trkpt><trkpt lat="14.46114537651614" lon="120.95585171382844"><ele>9.333333333333334</ele><time>2026-04-24T13:21:36Z</time></trkpt><trkpt lat="14.461167305474737" lon="120.95592998052783"><ele>8.666666666666668</ele><time>2026-04-24T13:21:37Z</time></trkpt><trkpt lat="14.461188504303038" lon="120.95600640509306"><ele>8.0</ele><time>2026-04-24T13:21:38Z</time></trkpt><trkpt lat="14.461208409504135" lon="120.95608392778537"><ele>7.333333333333334</ele><time>2026-04-24T13:21:39Z</time></trkpt><trkpt lat="14.461231981335855" lon="120.95616166346416"><ele>6.666666666666667</ele><time>2026-04-24T13:21:40Z</time></trkpt><trkpt lat="14.46125423018977" lon="120.95624204870239"><ele>6.0</ele><time>2026-04-24T13:21:41Z</time></trkpt><trkpt lat="14.461262514854225" lon="120.95633349478969"><ele>6.0</ele><time>2026-04-24T13:21:42Z</time></trkpt><trkpt lat="14.46128890580986" lon="120.95642959609448"><ele>6.0</ele><time>2026-04-24T13:21:43Z</time></trkpt><trkpt lat="14.461316839507157" lon="120.95653131529077"><ele>6.0</ele><time>2026-04-24T13:21:44Z</time></trkpt><trkpt lat="14.461343708775" lon="120.95662915838162"><ele>6.0</ele><time>2026-04-24T13:21:45Z</time></trkpt><trkpt lat="14.461383927993488" lon="120.95671422207386"><ele>6.0</ele><time>2026-04-24T13:21:46Z</time></trkpt><trkpt lat="14.46140718199221" lon="120.95679819724934"><ele>6.0</ele><time>2026-04-24T13:21:47Z</time></trkpt><trkpt lat="14.46142653580642" lon="120.95687033486159"><ele>6.0</ele><time>2026-04-24T13:21:48Z</time></trkpt><trkpt lat="14.461444826277377" lon="120.95694705546869"><ele>6.0</ele><time>2026-04-24T13:21:49Z</time></trkpt><trkpt lat="14.461462383916782" lon="120.95702403125505"><ele>6.0</ele><time>2026-04-24T13:21:50Z</time></trkpt><trkpt lat="14.461482546307877" lon="120.95710492795021"><ele>6.0</ele><time>2026-04-24T13:21:51Z</time></trkpt><trkpt lat="14.461505099058188" lon="120.95718567663863"><ele>6.0</ele><time>2026-04-24T13:21:52Z</time></trkpt><trkpt lat="14.46152597790529" lon="120.95726240439022"><ele>6.0</ele><time>2026-04-24T13:21:53Z</time></trkpt><trkpt lat="14.461546507235806" lon="120.95733344597798"><ele>6.0</ele><time>2026-04-24T13:21:54Z</time></trkpt><trkpt lat="14.461565999010087" lon="120.95740982881975"><ele>6.0</ele><time>2026-04-24T13:21:55Z</time></trkpt><trkpt lat="14.461588029784036" lon="120.95748741107124"><ele>6.0</ele><time>2026-04-24T13:21:56Z</time></trkpt><trkpt lat="14.461606229509705" lon="120.95756412658632"><ele>6.0</ele><time>2026-04-24T13:21:57Z</time></trkpt><trkpt lat="14.461630225236767" lon="120.9576356659307"><ele>6.0</ele><time>2026-04-24T13:21:58Z</time></trkpt><trkpt lat="14.46165447791122" lon="120.95770821233675"><ele>6.166666666666667</ele><time>2026-04-24T13:21:59Z</time></trkpt><trkpt lat="14.461672895560053" lon="120.95778147794464"><ele>6.333333333333334</ele><time>2026-04-24T13:22:00Z</time></trkpt><trkpt lat="14.461692949880542" lon="120.95785826181736"><ele>6.5</ele><time>2026-04-24T13:22:01Z</time></trkpt><trkpt lat="14.46170955403052" lon="120.95792147884463"><ele>6.666666666666667</ele><time>2026-04-24T13:22:02Z</time></trkpt><trkpt lat="14.461735214895132" lon="120.95801746202496"><ele>6.833333333333334</ele><time>2026-04-24T13:22:04Z</time></trkpt><trkpt lat="14.461759544394742" lon="120.95809949997859"><ele>7.0</ele><time>2026-04-24T13:22:07Z</time></trkpt><trkpt lat="14.461782918023703" lon="120.95817295259"><ele>7.000000000000001</ele><time>2026-04-24T13:22:11Z</time></trkpt><trkpt lat="14.46180319733767" lon="120.95824760360243"><ele>7.0</ele><time>2026-04-24T13:22:14Z</time></trkpt><trkpt lat="14.461844186960748" lon="120.95838194263966"><ele>7.0</ele><time>2026-04-24T13:22:16Z</time></trkpt><trkpt lat="14.461867735748587" lon="120.95847351484022"><ele>7.0</ele><time>2026-04-24T13:22:17Z</time></trkpt><trkpt lat="14.46188611392274" lon="120.95854957280075"><ele>7.000000000000001</ele><time>2026-04-24T13:22:18Z</time></trkpt><trkpt lat="14.461902340433674" lon="120.9586181495832"><ele>7.0</ele><time>2026-04-24T13:22:19Z</time></trkpt><trkpt lat="14.461915522933" lon="120.9587287511062"><ele>7.199999999999999</ele><time>2026-04-24T13:22:21Z</time></trkpt><trkpt lat="14.461923365097611" lon="120.95881622955379"><ele>7.3999999999999995</ele><time>2026-04-24T13:22:23Z</time></trkpt><trkpt lat="14.46195545066981" lon="120.95893342382264"><ele>7.6000000000000005</ele><time>2026-04-24T13:22:25Z</time></trkpt><trkpt lat="14.461987555141363" lon="120.95904752665436"><ele>7.800000000000001</ele><time>2026-04-24T13:22:27Z</time></trkpt><trkpt lat="14.462016023367305" lon="120.95913513177045"><ele>8.0</ele><time>2026-04-24T13:22:29Z</time></trkpt><trkpt lat="14.462034888338085" lon="120.95920778688783"><ele>7.666666666666666</ele><time>2026-04-24T13:22:31Z</time></trkpt><trkpt lat="14.462054779611062" lon="120.95927265801971"><ele>7.333333333333333</ele><time>2026-04-24T13:22:33Z</time></trkpt><trkpt lat="14.462077513484711" lon="120.95935242885926"><ele>7.0</ele><time>2026-04-24T13:22:36Z</time></trkpt><trkpt lat="14.46209470507804" lon="120.95942925989038"><ele>6.666666666666666</ele><time>2026-04-24T13:24:31Z</time></trkpt><trkpt lat="14.462124798152416" lon="120.95949334242692"><ele>6.333333333333333</ele><time>2026-04-24T13:24:33Z</time></trkpt><trkpt lat="14.462148185457044" lon="120.95960038735464"><ele>6.0</ele><time>2026-04-24T13:24:35Z</time></trkpt><trkpt lat="14.46219200759584" lon="120.9597257159755"><ele>5.833333333333333</ele><time>2026-04-24T13:24:37Z</time></trkpt><trkpt lat="14.462218670859551" lon="120.95979013349093"><ele>5.666666666666667</ele><time>2026-04-24T13:24:38Z</time></trkpt><trkpt lat="14.462240496767697" lon="120.95985559379177"><ele>5.5</ele><time>2026-04-24T13:24:39Z</time></trkpt><trkpt lat="14.46225799285742" lon="120.95993342502021"><ele>5.333333333333334</ele><time>2026-04-24T13:24:40Z</time></trkpt><trkpt lat="14.462277945774103" lon="120.96001973650029"><ele>5.166666666666667</ele><time>2026-04-24T13:24:41Z</time></trkpt><trkpt lat="14.462302430345195" lon="120.96011284040007"><ele>5.0</ele><time>2026-04-24T13:24:42Z</time></trkpt><trkpt lat="14.46232398011889" lon="120.96020440589254"><ele>5.0</ele><time>2026-04-24T13:24:43Z</time></trkpt><trkpt lat="14.462348215981896" lon="120.9602970301791"><ele>5.0</ele><time>2026-04-24T13:24:44Z</time></trkpt><trkpt lat="14.462371065536916" lon="120.96039426968268"><ele>5.0</ele><time>2026-04-24T13:24:45Z</time></trkpt><trkpt lat="14.462396634288538" lon="120.9604921990208"><ele>5.0</ele><time>2026-04-24T13:24:46Z</time></trkpt><trkpt lat="14.462423563879996" lon="120.9605899114191"><ele>5.0</ele><time>2026-04-24T13:24:47Z</time></trkpt><trkpt lat="14.462445907312263" lon="120.96069154991368"><ele>5.0</ele><time>2026-04-24T13:24:48Z</time></trkpt><trkpt lat="14.462465746023078" lon="120.96078953100307"><ele>5.0</ele><time>2026-04-24T13:24:49Z</time></trkpt><trkpt lat="14.462480911271848" lon="120.96088133401705"><ele>5.0</ele><time>2026-04-24T13:24:50Z</time></trkpt><trkpt lat="14.462491072829854" lon="120.96096855745428"><ele>5.0</ele><time>2026-04-24T13:24:51Z</time></trkpt><trkpt lat="14.462496619670771" lon="120.96106193264889"><ele>5.0</ele><time>2026-04-24T13:24:52Z</time></trkpt><trkpt lat="14.462486415333988" lon="120.96115253400424"><ele>5.6</ele><time>2026-04-24T13:24:53Z</time></trkpt><trkpt lat="14.462472186855788" lon="120.96125052984387"><ele>6.2</ele><time>2026-04-24T13:24:54Z</time></trkpt><trkpt lat="14.462459409060648" lon="120.96135330056936"><ele>6.800000000000001</ele><time>2026-04-24T13:24:55Z</time></trkpt><trkpt lat="14.46242039033783" lon="120.96144727940651"><ele>7.4</ele><time>2026-04-24T13:24:56Z</time></trkpt><trkpt lat="14.462393245540424" lon="120.96154856947916"><ele>8.0</ele><time>2026-04-24T13:24:57Z</time></trkpt><trkpt lat="14.46237626872005" lon="120.96165268331711"><ele>8.600000000000001</ele><time>2026-04-24T13:24:58Z</time></trkpt><trkpt lat="14.462336669897923" lon="120.96175415868005"><ele>9.200000000000001</ele><time>2026-04-24T13:24:59Z</time></trkpt><trkpt lat="14.462303882676668" lon="120.96184719253667"><ele>9.8</ele><time>2026-04-24T13:25:00Z</time></trkpt><trkpt lat="14.46227252000271" lon="120.96193543223191"><ele>10.4</ele><time>2026-04-24T13:25:01Z</time></trkpt><trkpt lat="14.462240852474453" lon="120.9620189365265"><ele>11.0</ele><time>2026-04-24T13:25:02Z</time></trkpt><trkpt lat="14.462212226146248" lon="120.96210918421514"><ele>11.0</ele><time>2026-04-24T13:25:03Z</time></trkpt><trkpt lat="14.462184169768001" lon="120.9621981855254"><ele>11.0</ele><time>2026-04-24T13:25:04Z</time></trkpt><trkpt lat="14.46215046880511" lon="120.96228407383816"><ele>11.0</ele><time>2026-04-24T13:25:05Z</time></trkpt><trkpt lat="14.462124655956359" lon="120.96235127827063"><ele>11.0</ele><time>2026-04-24T13:25:06Z</time></trkpt><trkpt lat="14.462095986994203" lon="120.96242362297096"><ele>11.0</ele><time>2026-04-24T13:25:07Z</time></trkpt><trkpt lat="14.462063764742036" lon="120.96249920282185"><ele>11.0</ele><time>2026-04-24T13:25:08Z</time></trkpt><trkpt lat="14.462038941258278" lon="120.96257862524746"><ele>10.5</ele><time>2026-04-24T13:25:09Z</time></trkpt><trkpt lat="14.462008215632713" lon="120.96263686041563"><ele>10.0</ele><time>2026-04-24T13:25:10Z</time></trkpt><trkpt lat="14.461960996021947" lon="120.96269252109589"><ele>9.5</ele><time>2026-04-24T13:25:12Z</time></trkpt><trkpt lat="14.461915118982352" lon="120.96276281435895"><ele>9.0</ele><time>2026-04-24T13:25:16Z</time></trkpt><trkpt lat="14.461861434049183" lon="120.96281416839975"><ele>8.5</ele><time>2026-04-24T13:25:20Z</time></trkpt><trkpt lat="14.461822757775066" lon="120.96287730346643"><ele>8.0</ele><time>2026-04-24T13:26:10Z</time></trkpt><trkpt lat="14.461926167953743" lon="120.9630040981278"><ele>7.999999999999999</ele><time>2026-04-24T13:26:11Z</time></trkpt><trkpt lat="14.461954393967279" lon="120.96309076326754"><ele>8.0</ele><time>2026-04-24T13:26:14Z</time></trkpt><trkpt lat="14.462000335911988" lon="120.96317674123048"><ele>8.0</ele><time>2026-04-24T13:26:16Z</time></trkpt><trkpt lat="14.46203154618845" lon="120.96323381000961"><ele>8.0</ele><time>2026-04-24T13:26:17Z</time></trkpt><trkpt lat="14.46206689586778" lon="120.96329799904987"><ele>7.999999999999999</ele><time>2026-04-24T13:26:18Z</time></trkpt><trkpt lat="14.462106396581087" lon="120.96336718292875"><ele>8.0</ele><time>2026-04-24T13:26:19Z</time></trkpt><trkpt lat="14.462154101066657" lon="120.96344205899575"><ele>8.200000000000001</ele><time>2026-04-24T13:26:20Z</time></trkpt><trkpt lat="14.462205304538843" lon="120.96351862705582"><ele>8.4</ele><time>2026-04-24T13:26:21Z</time></trkpt><trkpt lat="14.462255776275944" lon="120.96360095100353"><ele>8.600000000000001</ele><time>2026-04-24T13:26:22Z</time></trkpt><trkpt lat="14.462310579035854" lon="120.96368499784951"><ele>8.8</ele><time>2026-04-24T13:26:23Z</time></trkpt><trkpt lat="14.462367046598446" lon="120.96376978630302"><ele>9.0</ele><time>2026-04-24T13:26:24Z</time></trkpt><trkpt lat="14.462426574829266" lon="120.9638584086088"><ele>9.0</ele><time>2026-04-24T13:26:25Z</time></trkpt><trkpt lat="14.46248542050142" lon="120.96394764318333"><ele>9.0</ele><time>2026-04-24T13:26:26Z</time></trkpt><trkpt lat="14.462541459885772" lon="120.96403798170265"><ele>9.0</ele><time>2026-04-24T13:26:27Z</time></trkpt><trkpt lat="14.462596292602454" lon="120.96412561939766"><ele>9.0</ele><time>2026-04-24T13:26:28Z</time></trkpt><trkpt lat="14.462652367897066" lon="120.9642133387581"><ele>9.0</ele><time>2026-04-24T13:26:29Z</time></trkpt><trkpt lat="14.462708972806954" lon="120.96430186293648"><ele>8.8</ele><time>2026-04-24T13:26:30Z</time></trkpt><trkpt lat="14.462767147968307" lon="120.96438998193922"><ele>8.600000000000001</ele><time>2026-04-24T13:26:31Z</time></trkpt><trkpt lat="14.462822031922997" lon="120.9644778175285"><ele>8.4</ele><time>2026-04-24T13:26:32Z</time></trkpt><trkpt lat="14.462875663201753" lon="120.96456314069813"><ele>8.200000000000001</ele><time>2026-04-24T13:26:33Z</time></trkpt><trkpt lat="14.46292878615799" lon="120.96464440323535"><ele>8.0</ele><time>2026-04-24T13:26:34Z</time></trkpt><trkpt lat="14.462982056481032" lon="120.9647270006029"><ele>8.0</ele><time>2026-04-24T13:26:35Z</time></trkpt><trkpt lat="14.463037618756223" lon="120.96480358700232"><ele>8.0</ele><time>2026-04-24T13:26:36Z</time></trkpt><trkpt lat="14.463087922350613" lon="120.96487461950655"><ele>8.0</ele><time>2026-04-24T13:26:37Z</time></trkpt><trkpt lat="14.463139946889338" lon="120.96494906652268"><ele>8.0</ele><time>2026-04-24T13:26:38Z</time></trkpt><trkpt lat="14.463193386516249" lon="120.9650255717841"><ele>8.0</ele><time>2026-04-24T13:26:39Z</time></trkpt><trkpt lat="14.46325127468308" lon="120.96510884890046"><ele>8.200000000000001</ele><time>2026-04-24T13:26:40Z</time></trkpt><trkpt lat="14.46331356162125" lon="120.96519448898762"><ele>8.4</ele><time>2026-04-24T13:26:41Z</time></trkpt><trkpt lat="14.463374713460489" lon="120.96528348673876"><ele>8.600000000000001</ele><time>2026-04-24T13:26:42Z</time></trkpt><trkpt lat="14.463439212789462" lon="120.96537702405924"><ele>8.8</ele><time>2026-04-24T13:26:43Z</time></trkpt><trkpt lat="14.46350594439447" lon="120.96547724659844"><ele>9.0</ele><time>2026-04-24T13:26:44Z</time></trkpt><trkpt lat="14.46357240799563" lon="120.96558069643014"><ele>9.0</ele><time>2026-04-24T13:26:45Z</time></trkpt><trkpt lat="14.463633904634792" lon="120.96567829249501"><ele>9.0</ele><time>2026-04-24T13:26:46Z</time></trkpt><trkpt lat="14.463685442132968" lon="120.96575226762012"><ele>9.0</ele><time>2026-04-24T13:26:47Z</time></trkpt><trkpt lat="14.463725997432324" lon="120.96580806627904"><ele>9.0</ele><time>2026-04-24T13:26:48Z</time></trkpt><trkpt lat="14.463773429264732" lon="120.96587480352943"><ele>9.0</ele><time>2026-04-24T13:26:50Z</time></trkpt><trkpt lat="14.463820690718896" lon="120.96594133472917"><ele>9.0</ele><time>2026-04-24T13:26:57Z</time></trkpt><trkpt lat="14.463887436375915" lon="120.9660405650248"><ele>9.0</ele><time>2026-04-24T13:26:59Z</time></trkpt><trkpt lat="14.463928124907792" lon="120.96611225112098"><ele>9.0</ele><time>2026-04-24T13:27:00Z</time></trkpt><trkpt lat="14.463972564902642" lon="120.96619238878239"><ele>9.0</ele><time>2026-04-24T13:27:01Z</time></trkpt><trkpt lat="14.46402252382522" lon="120.966276429402"><ele>9.0</ele><time>2026-04-24T13:27:02Z</time></trkpt><trkpt lat="14.464075247826019" lon="120.9663573702045"><ele>9.0</ele><time>2026-04-24T13:27:03Z</time></trkpt><trkpt lat="14.464125050505078" lon="120.96643972955222"><ele>9.0</ele><time>2026-04-24T13:27:04Z</time></trkpt><trkpt lat="14.464171774281997" lon="120.9665209167467"><ele>9.0</ele><time>2026-04-24T13:27:05Z</time></trkpt><trkpt lat="14.464217679328462" lon="120.96659976353965"><ele>9.0</ele><time>2026-04-24T13:27:06Z</time></trkpt><trkpt lat="14.464268877168305" lon="120.96668285327699"><ele>9.0</ele><time>2026-04-24T13:27:07Z</time></trkpt><trkpt lat="14.464317946795813" lon="120.96676547706406"><ele>9.0</ele><time>2026-04-24T13:27:08Z</time></trkpt><trkpt lat="14.464369614235386" lon="120.96685149491772"><ele>8.8</ele><time>2026-04-24T13:27:09Z</time></trkpt><trkpt lat="14.464415755180582" lon="120.9669353075393"><ele>8.600000000000001</ele><time>2026-04-24T13:27:10Z</time></trkpt><trkpt lat="14.464479825966164" lon="120.96702214834669"><ele>8.4</ele><time>2026-04-24T13:27:11Z</time></trkpt><trkpt lat="14.464552052327008" lon="120.96710255389245"><ele>8.200000000000001</ele><time>2026-04-24T13:27:12Z</time></trkpt><trkpt lat="14.464628607874213" lon="120.96718205483641"><ele>8.0</ele><time>2026-04-24T13:27:13Z</time></trkpt><trkpt lat="14.464709755039008" lon="120.96725818466693"><ele>8.5</ele><time>2026-04-24T13:27:14Z</time></trkpt><trkpt lat="14.464803048238027" lon="120.96732686760379"><ele>9.0</ele><time>2026-04-24T13:27:15Z</time></trkpt><trkpt lat="14.464898455759286" lon="120.96739243031146"><ele>9.5</ele><time>2026-04-24T13:27:16Z</time></trkpt><trkpt lat="14.4649956485382" lon="120.96746354767261"><ele>10.0</ele><time>2026-04-24T13:27:17Z</time></trkpt><trkpt lat="14.465091107939042" lon="120.96753227734881"><ele>10.0</ele><time>2026-04-24T13:27:18Z</time></trkpt><trkpt lat="14.46518080314579" lon="120.9675983128874"><ele>10.0</ele><time>2026-04-24T13:27:19Z</time></trkpt><trkpt lat="14.465261208923849" lon="120.96765383740355"><ele>10.0</ele><time>2026-04-24T13:27:20Z</time></trkpt><trkpt lat="14.465335411529425" lon="120.96770481549284"><ele>10.0</ele><time>2026-04-24T13:27:21Z</time></trkpt><trkpt lat="14.465402087932057" lon="120.96775336947886"><ele>10.0</ele><time>2026-04-24T13:27:22Z</time></trkpt><trkpt lat="14.465460418142422" lon="120.96779471274598"><ele>10.0</ele><time>2026-04-24T13:27:23Z</time></trkpt><trkpt lat="14.465521993656933" lon="120.96784377118273"><ele>9.5</ele><time>2026-04-24T13:27:25Z</time></trkpt><trkpt lat="14.465584061635477" lon="120.96787988183644"><ele>9.0</ele><time>2026-04-24T13:27:29Z</time></trkpt><trkpt lat="14.465665496312052" lon="120.96794184014567"><ele>8.5</ele><time>2026-04-24T13:28:48Z</time></trkpt><trkpt lat="14.465719408668253" lon="120.96798856668873"><ele>8.0</ele><time>2026-04-24T13:28:49Z</time></trkpt><trkpt lat="14.465797052499092" lon="120.96805258390741"><ele>7.500000000000001</ele><time>2026-04-24T13:28:50Z</time></trkpt><trkpt lat="14.465850204397048" lon="120.96810364822461"><ele>7.0</ele><time>2026-04-24T13:28:51Z</time></trkpt><trkpt lat="14.465922518654207" lon="120.96820150754425"><ele>7.0</ele><time>2026-04-24T13:28:52Z</time></trkpt><trkpt lat="14.466039521277521" lon="120.96827909848206"><ele>7.0</ele><time>2026-04-24T13:28:53Z</time></trkpt><trkpt lat="14.466145055092142" lon="120.96836867998637"><ele>7.0</ele><time>2026-04-24T13:28:54Z</time></trkpt><trkpt lat="14.4662581453156" lon="120.96845974463754"><ele>7.0</ele><time>2026-04-24T13:28:55Z</time></trkpt><trkpt lat="14.466376670737835" lon="120.96855462356083"><ele>7.199999999999999</ele><time>2026-04-24T13:28:56Z</time></trkpt><trkpt lat="14.466476050534377" lon="120.9686296182798"><ele>7.3999999999999995</ele><time>2026-04-24T13:28:57Z</time></trkpt><trkpt lat="14.466563594266423" lon="120.96869315014331"><ele>7.6000000000000005</ele><time>2026-04-24T13:28:58Z</time></trkpt><trkpt lat="14.466632990129037" lon="120.96875368364951"><ele>7.800000000000001</ele><time>2026-04-24T13:28:59Z</time></trkpt><trkpt lat="14.466690196030543" lon="120.9688021845293"><ele>8.0</ele><time>2026-04-24T13:29:00Z</time></trkpt><trkpt lat="14.466757305995522" lon="120.96885779262882"><ele>8.0</ele><time>2026-04-24T13:29:02Z</time></trkpt><trkpt lat="14.466848448874057" lon="120.96890840189066"><ele>8.0</ele><time>2026-04-24T13:33:49Z</time></trkpt><trkpt lat="14.466927306106324" lon="120.96896023779536"><ele>8.0</ele><time>2026-04-24T13:35:22Z</time></trkpt><trkpt lat="14.466963904458922" lon="120.96902156989482"><ele>8.0</ele><time>2026-04-24T13:35:29Z</time></trkpt><trkpt lat="14.467057910293436" lon="120.96910915503473"><ele>8.0</ele><time>2026-04-24T13:35:31Z</time></trkpt><trkpt lat="14.467115705920868" lon="120.96915527508068"><ele>7.800000000000001</ele><time>2026-04-24T13:35:32Z</time></trkpt><trkpt lat="14.467180497756006" lon="120.9692019606617"><ele>7.6000000000000005</ele><time>2026-04-24T13:35:33Z</time></trkpt><trkpt lat="14.467245914671096" lon="120.96925773381058"><ele>7.3999999999999995</ele><time>2026-04-24T13:35:34Z</time></trkpt><trkpt lat="14.467320331206201" lon="120.9693205955303"><ele>7.199999999999999</ele><time>2026-04-24T13:35:35Z</time></trkpt><trkpt lat="14.46739595333602" lon="120.9693817788524"><ele>7.0</ele><time>2026-04-24T13:35:36Z</time></trkpt><trkpt lat="14.46747070198814" lon="120.96944322348645"><ele>7.0</ele><time>2026-04-24T13:35:37Z</time></trkpt><trkpt lat="14.467549412083622" lon="120.96950662385655"><ele>6.999999999999999</ele><time>2026-04-24T13:35:38Z</time></trkpt><trkpt lat="14.467623795027945" lon="120.96956832716938"><ele>6.999999999999999</ele><time>2026-04-24T13:35:39Z</time></trkpt><trkpt lat="14.467700575163231" lon="120.9696308239035"><ele>7.0</ele><time>2026-04-24T13:35:40Z</time></trkpt><trkpt lat="14.467777865499027" lon="120.96969334329206"><ele>7.0</ele><time>2026-04-24T13:35:41Z</time></trkpt><trkpt lat="14.467860028643114" lon="120.96975654568838"><ele>7.0</ele><time>2026-04-24T13:35:42Z</time></trkpt><trkpt lat="14.467948352953577" lon="120.96981842703475"><ele>6.999999999999999</ele><time>2026-04-24T13:35:43Z</time></trkpt><trkpt lat="14.468041819711816" lon="120.96987484965192"><ele>6.999999999999999</ele><time>2026-04-24T13:35:44Z</time></trkpt><trkpt lat="14.468143994438892" lon="120.96992287060218"><ele>7.0</ele><time>2026-04-24T13:35:45Z</time></trkpt><trkpt lat="14.468238517113766" lon="120.96996441716948"><ele>7.0</ele><time>2026-04-24T13:35:46Z</time></trkpt><trkpt lat="14.468321158938732" lon="120.9700032878631"><ele>7.166666666666667</ele><time>2026-04-24T13:35:47Z</time></trkpt><trkpt lat="14.468399896760523" lon="120.97002938506944"><ele>7.333333333333334</ele><time>2026-04-24T13:35:48Z</time></trkpt><trkpt lat="14.468476842785202" lon="120.97005434328851"><ele>7.5</ele><time>2026-04-24T13:35:49Z</time></trkpt><trkpt lat="14.468556022299339" lon="120.97008082809768"><ele>7.666666666666666</ele><time>2026-04-24T13:35:50Z</time></trkpt><trkpt lat="14.468636541485425" lon="120.97010984836805"><ele>7.833333333333333</ele><time>2026-04-24T13:35:51Z</time></trkpt><trkpt lat="14.46871662323129" lon="120.97013982821944"><ele>8.0</ele><time>2026-04-24T13:35:52Z</time></trkpt><trkpt lat="14.468794934147745" lon="120.97017389822177"><ele>7.999999999999999</ele><time>2026-04-24T13:35:53Z</time></trkpt><trkpt lat="14.468872838758323" lon="120.97021120341456"><ele>8.0</ele><time>2026-04-24T13:35:54Z</time></trkpt><trkpt lat="14.468935325771627" lon="120.97025287010682"><ele>8.0</ele><time>2026-04-24T13:35:55Z</time></trkpt><trkpt lat="14.468998211974625" lon="120.97030118016023"><ele>8.0</ele><time>2026-04-24T13:35:56Z</time></trkpt><trkpt lat="14.469058316761316" lon="120.9703565692144"><ele>7.999999999999999</ele><time>2026-04-24T13:35:56.999Z</time></trkpt><trkpt lat="14.469107903360444" lon="120.97040925896069"><ele>8.0</ele><time>2026-04-24T13:35:57.999Z</time></trkpt><trkpt lat="14.469150995315823" lon="120.97046980902144"><ele>8.0</ele><time>2026-04-24T13:35:58.999Z</time></trkpt><trkpt lat="14.469194821528026" lon="120.97053070337249"><ele>8.0</ele><time>2026-04-24T13:35:59.999Z</time></trkpt><trkpt lat="14.469248558725134" lon="120.97060031122678"><ele>8.0</ele><time>2026-04-24T13:36:00.999Z</time></trkpt><trkpt lat="14.469316117007237" lon="120.97068044167312"><ele>8.0</ele><time>2026-04-24T13:36:01.999Z</time></trkpt><trkpt lat="14.469390106800388" lon="120.97077262485084"><ele>8.0</ele><time>2026-04-24T13:36:02.999Z</time></trkpt><trkpt lat="14.469472487382474" lon="120.97086463039552"><ele>7.75</ele><time>2026-04-24T13:36:03.999Z</time></trkpt><trkpt lat="14.469562437317622" lon="120.97095318233943"><ele>7.5</ele><time>2026-04-24T13:36:04.999Z</time></trkpt><trkpt lat="14.469641553963996" lon="120.97103952736433"><ele>7.25</ele><time>2026-04-24T13:36:05.999Z</time></trkpt><trkpt lat="14.469715482892347" lon="120.97112877360863"><ele>7.0</ele><time>2026-04-24T13:36:06.999Z</time></trkpt><trkpt lat="14.4697840718208" lon="120.97120812358946"><ele>7.0</ele><time>2026-04-24T13:36:07.999Z</time></trkpt><trkpt lat="14.469852583517923" lon="120.97128680081055"><ele>6.999999999999999</ele><time>2026-04-24T13:36:08.999Z</time></trkpt><trkpt lat="14.469909304889851" lon="120.97136470037866"><ele>6.999999999999999</ele><time>2026-04-24T13:36:09.999Z</time></trkpt><trkpt lat="14.469957889284656" lon="120.97142949444589"><ele>7.0</ele><time>2026-04-24T13:36:10.999Z</time></trkpt><trkpt lat="14.47000024829897" lon="120.97148317674358"><ele>7.0</ele><time>2026-04-24T13:36:11.999Z</time></trkpt><trkpt lat="14.470078309759284" lon="120.97156748311399"><ele>7.000000000000001</ele><time>2026-04-24T13:36:14Z</time></trkpt><trkpt lat="14.470160442871878" lon="120.97167302579632"><ele>7.0</ele><time>2026-04-24T13:36:16Z</time></trkpt><trkpt lat="14.470193103549954" lon="120.97173548177783"><ele>7.0</ele><time>2026-04-24T13:36:17Z</time></trkpt><trkpt lat="14.47023587962111" lon="120.97179341892202"><ele>7.0</ele><time>2026-04-24T13:36:18Z</time></trkpt><trkpt lat="14.470279500326956" lon="120.97186236902265"><ele>7.000000000000001</ele><time>2026-04-24T13:36:19Z</time></trkpt><trkpt lat="14.470322375949166" lon="120.97192933508614"><ele>7.0</ele><time>2026-04-24T13:36:20Z</time></trkpt><trkpt lat="14.470366650101855" lon="120.97199540862584"><ele>7.000000000000001</ele><time>2026-04-24T13:36:21Z</time></trkpt><trkpt lat="14.470403105778734" lon="120.97205906016433"><ele>7.0</ele><time>2026-04-24T13:36:22Z</time></trkpt><trkpt lat="14.470464636769451" lon="120.9721560484565"><ele>7.0</ele><time>2026-04-24T13:36:24Z</time></trkpt><trkpt lat="14.470524695331651" lon="120.97224474239052"><ele>7.0</ele><time>2026-04-24T13:36:26Z</time></trkpt><trkpt lat="14.470560235606351" lon="120.97229915137511"><ele>7.000000000000001</ele><time>2026-04-24T13:36:27Z</time></trkpt><trkpt lat="14.470595188683856" lon="120.97235800381506"><ele>7.0</ele><time>2026-04-24T13:36:28Z</time></trkpt><trkpt lat="14.470631470428758" lon="120.97242244833534"><ele>7.0</ele><time>2026-04-24T13:36:29Z</time></trkpt><trkpt lat="14.470674924004427" lon="120.97249548873293"><ele>7.0</ele><time>2026-04-24T13:36:30Z</time></trkpt><trkpt lat="14.470711731539977" lon="120.97255645609081"><ele>7.0</ele><time>2026-04-24T13:36:31Z</time></trkpt><trkpt lat="14.47074875323264" lon="120.97262557871997"><ele>7.0</ele><time>2026-04-24T13:36:32Z</time></trkpt><trkpt lat="14.470788233023887" lon="120.97269572504881"><ele>7.0</ele><time>2026-04-24T13:36:33Z</time></trkpt><trkpt lat="14.470824635057172" lon="120.97276641183542"><ele>7.0</ele><time>2026-04-24T13:36:34Z</time></trkpt><trkpt lat="14.470858423952318" lon="120.97282286903508"><ele>7.0</ele><time>2026-04-24T13:36:35Z</time></trkpt><trkpt lat="14.470890755404692" lon="120.9728787741399"><ele>7.000000000000001</ele><time>2026-04-24T13:36:36Z</time></trkpt><trkpt lat="14.470925962219658" lon="120.97293805567594"><ele>7.0</ele><time>2026-04-24T13:36:37Z</time></trkpt><trkpt lat="14.470963638183516" lon="120.97299587878918"><ele>7.0</ele><time>2026-04-24T13:36:38Z</time></trkpt><trkpt lat="14.470996601242275" lon="120.9730604089692"><ele>7.0</ele><time>2026-04-24T13:36:39Z</time></trkpt><trkpt lat="14.4710558080015" lon="120.97318689438575"><ele>7.000000000000001</ele><time>2026-04-24T13:36:41Z</time></trkpt><trkpt lat="14.47109234915589" lon="120.97326648498968"><ele>7.0</ele><time>2026-04-24T13:36:42Z</time></trkpt><trkpt lat="14.471134812354313" lon="120.97334727655303"><ele>6.833333333333334</ele><time>2026-04-24T13:36:43Z</time></trkpt><trkpt lat="14.471170730478308" lon="120.97342673938628"><ele>6.666666666666667</ele><time>2026-04-24T13:36:44Z</time></trkpt><trkpt lat="14.471209907629108" lon="120.97350178569317"><ele>6.5</ele><time>2026-04-24T13:36:45Z</time></trkpt><trkpt lat="14.471244367775478" lon="120.97357364719132"><ele>6.333333333333334</ele><time>2026-04-24T13:36:46Z</time></trkpt><trkpt lat="14.471278392868713" lon="120.97364265799112"><ele>6.166666666666667</ele><time>2026-04-24T13:36:47Z</time></trkpt><trkpt lat="14.471307792224385" lon="120.97370030397887"><ele>6.0</ele><time>2026-04-24T13:36:48Z</time></trkpt><trkpt lat="14.47134490179069" lon="120.97378616302255"><ele>6.0</ele><time>2026-04-24T13:36:50Z</time></trkpt><trkpt lat="14.471370364646813" lon="120.97384636058776"><ele>6.0</ele><time>2026-04-24T13:36:52Z</time></trkpt><trkpt lat="14.471399197875325" lon="120.9739058583551"><ele>6.0</ele><time>2026-04-24T13:36:54Z</time></trkpt><trkpt lat="14.471435526644733" lon="120.97398089497696"><ele>6.0</ele><time>2026-04-24T13:36:56Z</time></trkpt><trkpt lat="14.471478035548941" lon="120.97407978119041"><ele>6.0</ele><time>2026-04-24T13:36:58Z</time></trkpt><trkpt lat="14.471530472897154" lon="120.97417830961831"><ele>6.0</ele><time>2026-04-24T13:37:00Z</time></trkpt><trkpt lat="14.471575785798771" lon="120.97425908648954"><ele>6.166666666666667</ele><time>2026-04-24T13:37:02Z</time></trkpt><trkpt lat="14.47163260960758" lon="120.97435744676304"><ele>6.333333333333334</ele><time>2026-04-24T13:37:04Z</time></trkpt><trkpt lat="14.471664634837262" lon="120.97441530970393"><ele>6.5</ele><time>2026-04-24T13:37:05Z</time></trkpt><trkpt lat="14.471696420651003" lon="120.97448095438148"><ele>6.666666666666667</ele><time>2026-04-24T13:37:06Z</time></trkpt><trkpt lat="14.471735505258737" lon="120.97454899512768"><ele>6.833333333333334</ele><time>2026-04-24T13:37:07Z</time></trkpt><trkpt lat="14.471775299605719" lon="120.97462070378891"><ele>7.0</ele><time>2026-04-24T13:37:08Z</time></trkpt><trkpt lat="14.471816742600776" lon="120.97469565452045"><ele>7.0</ele><time>2026-04-24T13:37:09Z</time></trkpt><trkpt lat="14.471861880360926" lon="120.9747779909333"><ele>6.999999999999999</ele><time>2026-04-24T13:37:10Z</time></trkpt><trkpt lat="14.471909059266586" lon="120.97485947006348"><ele>6.999999999999999</ele><time>2026-04-24T13:37:11Z</time></trkpt><trkpt lat="14.471956760500069" lon="120.97494256824174"><ele>7.0</ele><time>2026-04-24T13:37:12Z</time></trkpt><trkpt lat="14.472008590015413" lon="120.97502637940043"><ele>7.0</ele><time>2026-04-24T13:37:13Z</time></trkpt><trkpt lat="14.472059180716982" lon="120.97511218631813"><ele>7.000000000000001</ele><time>2026-04-24T13:37:14Z</time></trkpt><trkpt lat="14.472109228318166" lon="120.97518558323787"><ele>7.0</ele><time>2026-04-24T13:37:15Z</time></trkpt><trkpt lat="14.472159442753119" lon="120.97526219749135"><ele>7.0</ele><time>2026-04-24T13:37:16Z</time></trkpt><trkpt lat="14.472213937669714" lon="120.97533425342571"><ele>7.0</ele><time>2026-04-24T13:37:17Z</time></trkpt><trkpt lat="14.47227024995651" lon="120.97540638194862"><ele>7.000000000000001</ele><time>2026-04-24T13:37:18Z</time></trkpt><trkpt lat="14.472320822789097" lon="120.97547607714324"><ele>7.0</ele><time>2026-04-24T13:37:19Z</time></trkpt><trkpt lat="14.472365885433206" lon="120.97554351895091"><ele>7.000000000000001</ele><time>2026-04-24T13:37:20Z</time></trkpt><trkpt lat="14.472411650023508" lon="120.97560797580913"><ele>7.0</ele><time>2026-04-24T13:37:21Z</time></trkpt><trkpt lat="14.472453856270885" lon="120.97566539457826"><ele>7.0</ele><time>2026-04-24T13:37:22Z</time></trkpt><trkpt lat="14.47249618798686" lon="120.97572141451002"><ele>7.0</ele><time>2026-04-24T13:37:23Z</time></trkpt><trkpt lat="14.4725416379492" lon="120.975784626466"><ele>7.000000000000001</ele><time>2026-04-24T13:37:24Z</time></trkpt><trkpt lat="14.472589059012634" lon="120.97584947432053"><ele>7.0</ele><time>2026-04-24T13:37:25Z</time></trkpt><trkpt lat="14.472642167852188" lon="120.97591681227017"><ele>7.000000000000001</ele><time>2026-04-24T13:37:26Z</time></trkpt><trkpt lat="14.472695127092543" lon="120.97598773305303"><ele>7.0</ele><time>2026-04-24T13:37:27Z</time></trkpt><trkpt lat="14.472750470839477" lon="120.97605948374068"><ele>7.0</ele><time>2026-04-24T13:37:28Z</time></trkpt><trkpt lat="14.472808756157766" lon="120.97612820282093"><ele>7.0</ele><time>2026-04-24T13:37:29Z</time></trkpt><trkpt lat="14.472858158355908" lon="120.97619131628235"><ele>7.000000000000001</ele><time>2026-04-24T13:37:30Z</time></trkpt><trkpt lat="14.472903203173187" lon="120.97624968028585"><ele>7.0</ele><time>2026-04-24T13:37:31Z</time></trkpt><trkpt lat="14.472972574385112" lon="120.97632777864618"><ele>7.000000000000001</ele><time>2026-04-24T13:37:33Z</time></trkpt><trkpt lat="14.473034556079694" lon="120.97638947977545"><ele>7.0</ele><time>2026-04-24T13:37:35Z</time></trkpt><trkpt lat="14.473074694085204" lon="120.97644330165924"><ele>7.0</ele><time>2026-04-24T13:37:38Z</time></trkpt><trkpt lat="14.473134295612766" lon="120.97651605374048"><ele>7.0</ele><time>2026-04-24T13:37:44Z</time></trkpt><trkpt lat="14.473173965334247" lon="120.97656970797664"><ele>7.000000000000001</ele><time>2026-04-24T13:37:46Z</time></trkpt><trkpt lat="14.473219640956263" lon="120.97663552402324"><ele>7.0</ele><time>2026-04-24T13:37:48Z</time></trkpt><trkpt lat="14.473285944735194" lon="120.97673906455093"><ele>6.833333333333334</ele><time>2026-04-24T13:37:50Z</time></trkpt><trkpt lat="14.47332682591184" lon="120.97680836485301"><ele>6.666666666666667</ele><time>2026-04-24T13:37:51Z</time></trkpt><trkpt lat="14.473372421419027" lon="120.97687660448909"><ele>6.5</ele><time>2026-04-24T13:37:52Z</time></trkpt><trkpt lat="14.473419839220698" lon="120.9769487972126"><ele>6.333333333333334</ele><time>2026-04-24T13:37:53Z</time></trkpt><trkpt lat="14.473459894526634" lon="120.97702488279884"><ele>6.166666666666667</ele><time>2026-04-24T13:37:54Z</time></trkpt><trkpt lat="14.47349731925681" lon="120.97710000495474"><ele>6.0</ele><time>2026-04-24T13:37:55Z</time></trkpt><trkpt lat="14.473564148236331" lon="120.97717905386882"><ele>6.0</ele><time>2026-04-24T13:37:56Z</time></trkpt><trkpt lat="14.473604924237549" lon="120.97724531105095"><ele>6.0</ele><time>2026-04-24T13:37:57Z</time></trkpt><trkpt lat="14.473640017122223" lon="120.97730613365194"><ele>6.0</ele><time>2026-04-24T13:37:58Z</time></trkpt><trkpt lat="14.473672126168845" lon="120.97736274783526"><ele>6.0</ele><time>2026-04-24T13:37:59Z</time></trkpt><trkpt lat="14.473717081722466" lon="120.97744571204025"><ele>6.0</ele><time>2026-04-24T13:38:01Z</time></trkpt><trkpt lat="14.473757315998746" lon="120.9775186997553"><ele>6.0</ele><time>2026-04-24T13:38:04Z</time></trkpt><trkpt lat="14.47380523133534" lon="120.97759126235592"><ele>5.999999999999999</ele><time>2026-04-24T13:38:07Z</time></trkpt><trkpt lat="14.473840172778766" lon="120.97765082303896"><ele>6.0</ele><time>2026-04-24T13:38:10Z</time></trkpt><trkpt lat="14.473875325218778" lon="120.97771031319047"><ele>6.0</ele><time>2026-04-24T13:38:12Z</time></trkpt><trkpt lat="14.473928789955302" lon="120.9777905604046"><ele>6.0</ele><time>2026-04-24T13:38:14Z</time></trkpt><trkpt lat="14.473953630752389" lon="120.97785289950396"><ele>6.0</ele><time>2026-04-24T13:38:15Z</time></trkpt><trkpt lat="14.473974650049398" lon="120.97792634853877"><ele>5.999999999999999</ele><time>2026-04-24T13:38:16Z</time></trkpt><trkpt lat="14.474006913318878" lon="120.97798662892586"><ele>6.0</ele><time>2026-04-24T13:38:17Z</time></trkpt><trkpt lat="14.473966737239033" lon="120.97808600507379"><ele>6.0</ele><time>2026-04-24T13:38:18Z</time></trkpt><trkpt lat="14.473947052470193" lon="120.9781698182644"><ele>6.0</ele><time>2026-04-24T13:38:19Z</time></trkpt><trkpt lat="14.473912304102404" lon="120.97825606116635"><ele>6.0</ele><time>2026-04-24T13:38:20Z</time></trkpt><trkpt lat="14.473869693190302" lon="120.9783418224156"><ele>6.0</ele><time>2026-04-24T13:38:21Z</time></trkpt><trkpt lat="14.473827857215374" lon="120.97842732696944"><ele>6.0</ele><time>2026-04-24T13:38:22Z</time></trkpt><trkpt lat="14.473797131524162" lon="120.97850831335788"><ele>6.0</ele><time>2026-04-24T13:38:23Z</time></trkpt><trkpt lat="14.473769982685479" lon="120.9785842411677"><ele>6.5</ele><time>2026-04-24T13:38:24Z</time></trkpt><trkpt lat="14.473745579941369" lon="120.97865153945482"><ele>7.0</ele><time>2026-04-24T13:38:25Z</time></trkpt><trkpt lat="14.473718127282526" lon="120.97871829187618"><ele>7.5</ele><time>2026-04-24T13:38:26Z</time></trkpt><trkpt lat="14.473697081634175" lon="120.97879571076452"><ele>8.0</ele><time>2026-04-24T13:38:27Z</time></trkpt><trkpt lat="14.473688807624937" lon="120.97888718740371"><ele>8.5</ele><time>2026-04-24T13:38:28Z</time></trkpt><trkpt lat="14.473695580540703" lon="120.97897707061084"><ele>9.0</ele><time>2026-04-24T13:38:29Z</time></trkpt><trkpt lat="14.47369838695136" lon="120.97906319947565"><ele>9.0</ele><time>2026-04-24T13:38:30Z</time></trkpt><trkpt lat="14.473705474018296" lon="120.9791493471775"><ele>9.0</ele><time>2026-04-24T13:38:31Z</time></trkpt><trkpt lat="14.473718332803523" lon="120.97924376904676"><ele>9.0</ele><time>2026-04-24T13:38:32Z</time></trkpt><trkpt lat="14.473730067222629" lon="120.97933995386869"><ele>9.0</ele><time>2026-04-24T13:38:33Z</time></trkpt><trkpt lat="14.473745662554922" lon="120.97944932123599"><ele>9.0</ele><time>2026-04-24T13:38:34Z</time></trkpt><trkpt lat="14.473757019450273" lon="120.97956353018748"><ele>8.4</ele><time>2026-04-24T13:38:35Z</time></trkpt><trkpt lat="14.473768934423243" lon="120.97968551632421"><ele>7.800000000000001</ele><time>2026-04-24T13:38:36Z</time></trkpt><trkpt lat="14.473778012905287" lon="120.97979518174182"><ele>7.199999999999999</ele><time>2026-04-24T13:38:37Z</time></trkpt><trkpt lat="14.473791860871433" lon="120.9799022492242"><ele>6.6</ele><time>2026-04-24T13:38:38Z</time></trkpt><trkpt lat="14.473802012868724" lon="120.98000319785079"><ele>6.0</ele><time>2026-04-24T13:38:39Z</time></trkpt><trkpt lat="14.473817636571953" lon="120.98010117630253"><ele>5.8</ele><time>2026-04-24T13:38:40Z</time></trkpt><trkpt lat="14.473843629555146" lon="120.98019184661798"><ele>5.6</ele><time>2026-04-24T13:38:41Z</time></trkpt><trkpt lat="14.473879641477627" lon="120.98028165102095"><ele>5.4</ele><time>2026-04-24T13:38:42Z</time></trkpt><trkpt lat="14.473925255069604" lon="120.98036905869812"><ele>5.2</ele><time>2026-04-24T13:38:43Z</time></trkpt><trkpt lat="14.473978559699097" lon="120.98045963820749"><ele>5.0</ele><time>2026-04-24T13:38:44Z</time></trkpt><trkpt lat="14.474038382086198" lon="120.98056414037627"><ele>5.0</ele><time>2026-04-24T13:38:45Z</time></trkpt><trkpt lat="14.474100964506645" lon="120.98067921916945"><ele>5.0</ele><time>2026-04-24T13:38:46Z</time></trkpt><trkpt lat="14.474168979447375" lon="120.98079487503931"><ele>5.0</ele><time>2026-04-24T13:38:47Z</time></trkpt><trkpt lat="14.47424378203438" lon="120.98091236398623"><ele>5.0</ele><time>2026-04-24T13:38:48Z</time></trkpt><trkpt lat="14.474325792037794" lon="120.98103418943244"><ele>6.0</ele><time>2026-04-24T13:38:49Z</time></trkpt><trkpt lat="14.474419024972" lon="120.98115800389293"><ele>7.0</ele><time>2026-04-24T13:38:50Z</time></trkpt><trkpt lat="14.474518417189419" lon="120.98128013016823"><ele>8.0</ele><time>2026-04-24T13:38:51Z</time></trkpt><trkpt lat="14.474625109892143" lon="120.9813997779012"><ele>8.0</ele><time>2026-04-24T13:38:52Z</time></trkpt><trkpt lat="14.474732014387353" lon="120.98151754365232"><ele>8.0</ele><time>2026-04-24T13:38:53Z</time></trkpt><trkpt lat="14.474840579761608" lon="120.98162974568889"><ele>8.0</ele><time>2026-04-24T13:38:54Z</time></trkpt><trkpt lat="14.474949279661741" lon="120.98173985331431"><ele>8.0</ele><time>2026-04-24T13:38:55Z</time></trkpt><trkpt lat="14.475055776148999" lon="120.98185127429495"><ele>8.0</ele><time>2026-04-24T13:38:56Z</time></trkpt><trkpt lat="14.475161509410109" lon="120.9819603654776"><ele>8.0</ele><time>2026-04-24T13:38:57Z</time></trkpt><trkpt lat="14.475271132306116" lon="120.98206982084145"><ele>8.0</ele><time>2026-04-24T13:38:58Z</time></trkpt><trkpt lat="14.475381548658522" lon="120.98218096168571"><ele>8.0</ele><time>2026-04-24T13:38:59Z</time></trkpt><trkpt lat="14.475490060579968" lon="120.98228945158932"><ele>8.0</ele><time>2026-04-24T13:39:00Z</time></trkpt><trkpt lat="14.47559304081636" lon="120.98239484957566"><ele>8.0</ele><time>2026-04-24T13:39:01Z</time></trkpt><trkpt lat="14.475696622436836" lon="120.98250047975657"><ele>8.0</ele><time>2026-04-24T13:39:02Z</time></trkpt><trkpt lat="14.475797718921047" lon="120.98260684291796"><ele>8.0</ele><time>2026-04-24T13:39:03Z</time></trkpt><trkpt lat="14.475895309625695" lon="120.98271034766067"><ele>8.0</ele><time>2026-04-24T13:39:04Z</time></trkpt><trkpt lat="14.475986843567602" lon="120.9828073582516"><ele>7.75</ele><time>2026-04-24T13:39:05Z</time></trkpt><trkpt lat="14.476076773656812" lon="120.98290143820257"><ele>7.5</ele><time>2026-04-24T13:39:06Z</time></trkpt><trkpt lat="14.476166689966702" lon="120.98299218696856"><ele>7.25</ele><time>2026-04-24T13:39:07Z</time></trkpt><trkpt lat="14.476254835462855" lon="120.98308127965312"><ele>7.0</ele><time>2026-04-24T13:39:08Z</time></trkpt><trkpt lat="14.47634338977397" lon="120.98317240316737"><ele>7.0</ele><time>2026-04-24T13:39:09Z</time></trkpt><trkpt lat="14.476433447425043" lon="120.98326511544133"><ele>7.0</ele><time>2026-04-24T13:39:10Z</time></trkpt><trkpt lat="14.476524975757401" lon="120.98336099529364"><ele>7.0</ele><time>2026-04-24T13:39:11Z</time></trkpt><trkpt lat="14.476613769505926" lon="120.9834555257898"><ele>7.0</ele><time>2026-04-24T13:39:12Z</time></trkpt><trkpt lat="14.476706247914402" lon="120.9835533783208"><ele>7.5</ele><time>2026-04-24T13:39:13Z</time></trkpt><trkpt lat="14.476805539366243" lon="120.98365671740353"><ele>8.0</ele><time>2026-04-24T13:39:14Z</time></trkpt><trkpt lat="14.476909325187389" lon="120.98376266525965"><ele>8.5</ele><time>2026-04-24T13:39:15Z</time></trkpt><trkpt lat="14.477020066894916" lon="120.98386881352819"><ele>9.0</ele><time>2026-04-24T13:39:16Z</time></trkpt><trkpt lat="14.477131367897034" lon="120.98398257350577"><ele>6.666666666666667</ele><time>2026-04-24T13:39:17Z</time></trkpt><trkpt lat="14.477246148812549" lon="120.98410293352393"><ele>4.333333333333333</ele><time>2026-04-24T13:39:18Z</time></trkpt><trkpt lat="14.477365624067795" lon="120.98422753742088"><ele>2.0</ele><time>2026-04-24T13:39:19Z</time></trkpt><trkpt lat="14.477488508823074" lon="120.98435125531955"><ele>2.0</ele><time>2026-04-24T13:39:20Z</time></trkpt><trkpt lat="14.477613522225143" lon="120.98447257057305"><ele>2.0</ele><time>2026-04-24T13:39:21Z</time></trkpt><trkpt lat="14.477741497108596" lon="120.98459251758896"><ele>2.0</ele><time>2026-04-24T13:39:22Z</time></trkpt><trkpt lat="14.47786830267257" lon="120.98471602491023"><ele>3.666666666666667</ele><time>2026-04-24T13:39:23Z</time></trkpt><trkpt lat="14.477992840007483" lon="120.9848447266199"><ele>5.333333333333334</ele><time>2026-04-24T13:39:24Z</time></trkpt><trkpt lat="14.478116893653466" lon="120.98497694886217"><ele>7.0</ele><time>2026-04-24T13:39:25Z</time></trkpt><trkpt lat="14.478240445895873" lon="120.98510268628725"><ele>8.333333333333334</ele><time>2026-04-24T13:39:26Z</time></trkpt><trkpt lat="14.47835521915239" lon="120.98521761898962"><ele>9.666666666666666</ele><time>2026-04-24T13:39:27Z</time></trkpt><trkpt lat="14.478462233749191" lon="120.98532493005156"><ele>11.0</ele><time>2026-04-24T13:39:28Z</time></trkpt><trkpt lat="14.4785618283461" lon="120.98542735677994"><ele>11.0</ele><time>2026-04-24T13:39:29Z</time></trkpt><trkpt lat="14.478653873489431" lon="120.98552666440983"><ele>11.0</ele><time>2026-04-24T13:39:30Z</time></trkpt><trkpt lat="14.478735640491253" lon="120.98561128084792"><ele>11.0</ele><time>2026-04-24T13:39:31Z</time></trkpt><trkpt lat="14.478797338140502" lon="120.98567409758978"><ele>11.0</ele><time>2026-04-24T13:39:32Z</time></trkpt><trkpt lat="14.478860362900578" lon="120.9857449711983"><ele>11.0</ele><time>2026-04-24T13:39:34Z</time></trkpt><trkpt lat="14.478907240627816" lon="120.98579641006711"><ele>9.200000000000001</ele><time>2026-04-24T13:39:36Z</time></trkpt><trkpt lat="14.478990436236655" lon="120.98587485760581"><ele>7.4</ele><time>2026-04-24T13:39:38Z</time></trkpt><trkpt lat="14.479045735585085" lon="120.98593995164966"><ele>5.6000000000000005</ele><time>2026-04-24T13:39:39Z</time></trkpt><trkpt lat="14.479109128251663" lon="120.98601189496813"><ele>3.8000000000000003</ele><time>2026-04-24T13:39:40Z</time></trkpt><trkpt lat="14.479182854361403" lon="120.98608734619282"><ele>2.0</ele><time>2026-04-24T13:39:41Z</time></trkpt><trkpt lat="14.479265259439112" lon="120.98617223294389"><ele>2.0</ele><time>2026-04-24T13:39:42Z</time></trkpt><trkpt lat="14.479355038218602" lon="120.98626332837995"><ele>2.0</ele><time>2026-04-24T13:39:43Z</time></trkpt><trkpt lat="14.47944933324969" lon="120.9863612376399"><ele>2.0</ele><time>2026-04-24T13:39:44Z</time></trkpt><trkpt lat="14.47954607067857" lon="120.98646073672987"><ele>2.0</ele><time>2026-04-24T13:39:45Z</time></trkpt><trkpt lat="14.479644208542556" lon="120.98656263738721"><ele>2.0</ele><time>2026-04-24T13:39:46Z</time></trkpt><trkpt lat="14.479742620538127" lon="120.98666387208078"><ele>2.0</ele><time>2026-04-24T13:39:47Z</time></trkpt><trkpt lat="14.479837251216713" lon="120.98675916576508"><ele>2.0</ele><time>2026-04-24T13:39:48Z</time></trkpt><trkpt lat="14.47992484692563" lon="120.98684702798859"><ele>2.0</ele><time>2026-04-24T13:39:49Z</time></trkpt><trkpt lat="14.480007753107856" lon="120.986930284103"><ele>2.4000000000000004</ele><time>2026-04-24T13:39:50Z</time></trkpt><trkpt lat="14.480087568484752" lon="120.98700809707448"><ele>2.8000000000000003</ele><time>2026-04-24T13:39:51Z</time></trkpt><trkpt lat="14.48016674182394" lon="120.98708644149754"><ele>3.2</ele><time>2026-04-24T13:39:52Z</time></trkpt><trkpt lat="14.480247814520789" lon="120.98716494168102"><ele>3.6</ele><time>2026-04-24T13:39:53Z</time></trkpt><trkpt lat="14.480331871617901" lon="120.98723751188282"><ele>4.0</ele><time>2026-04-24T13:39:54Z</time></trkpt><trkpt lat="14.480420928816379" lon="120.98730843127588"><ele>3.8000000000000003</ele><time>2026-04-24T13:39:55Z</time></trkpt><trkpt lat="14.48051770761912" lon="120.98737299479157"><ele>3.6000000000000005</ele><time>2026-04-24T13:39:56Z</time></trkpt><trkpt lat="14.480612695020033" lon="120.9874328914251"><ele>3.4</ele><time>2026-04-24T13:39:57Z</time></trkpt><trkpt lat="14.480711405241564" lon="120.98749218259148"><ele>3.2</ele><time>2026-04-24T13:39:58Z</time></trkpt><trkpt lat="14.48080410171561" lon="120.9875434140174"><ele>3.0</ele><time>2026-04-24T13:39:59Z</time></trkpt><trkpt lat="14.480901648736516" lon="120.98759370394905"><ele>3.0</ele><time>2026-04-24T13:40:00Z</time></trkpt><trkpt lat="14.480998507681116" lon="120.98764029036631"><ele>3.0</ele><time>2026-04-24T13:40:01Z</time></trkpt><trkpt lat="14.48109714457673" lon="120.98768655986919"><ele>3.0</ele><time>2026-04-24T13:40:02Z</time></trkpt><trkpt lat="14.481202170935997" lon="120.98774074513429"><ele>3.0</ele><time>2026-04-24T13:40:03Z</time></trkpt><trkpt lat="14.481308401771093" lon="120.98779270160163"><ele>1.25</ele><time>2026-04-24T13:40:04Z</time></trkpt><trkpt lat="14.481421545214394" lon="120.98785206996553"><ele>-0.5</ele><time>2026-04-24T13:40:05Z</time></trkpt><trkpt lat="14.481544273270483" lon="120.9879169798469"><ele>-2.25</ele><time>2026-04-24T13:40:06Z</time></trkpt><trkpt lat="14.481671974143351" lon="120.98798302010042"><ele>-4.0</ele><time>2026-04-24T13:40:07Z</time></trkpt><trkpt lat="14.481807291262212" lon="120.98804877345322"><ele>-4.0</ele><time>2026-04-24T13:40:08Z</time></trkpt><trkpt lat="14.4819456960802" lon="120.98811271131034"><ele>-4.0</ele><time>2026-04-24T13:40:09Z</time></trkpt><trkpt lat="14.48208760124138" lon="120.98817837198052"><ele>-4.0</ele><time>2026-04-24T13:40:10Z</time></trkpt><trkpt lat="14.482231016702935" lon="120.98824690245243"><ele>-2.0</ele><time>2026-04-24T13:40:11Z</time></trkpt><trkpt lat="14.482375167594972" lon="120.98831946316517"><ele>0.0</ele><time>2026-04-24T13:40:12Z</time></trkpt><trkpt lat="14.482512840354898" lon="120.98839532552626"><ele>2.0</ele><time>2026-04-24T13:40:13Z</time></trkpt><trkpt lat="14.482640102534859" lon="120.98847344013691"><ele>2.25</ele><time>2026-04-24T13:40:14Z</time></trkpt><trkpt lat="14.48275154061383" lon="120.98855611733481"><ele>2.5</ele><time>2026-04-24T13:40:15Z</time></trkpt><trkpt lat="14.482839340453902" lon="120.98864845709059"><ele>2.75</ele><time>2026-04-24T13:40:16Z</time></trkpt><trkpt lat="14.48291596717207" lon="120.98874383564079"><ele>3.0</ele><time>2026-04-24T13:40:17Z</time></trkpt><trkpt lat="14.482980941954125" lon="120.98884435278875"><ele>3.0</ele><time>2026-04-24T13:40:18Z</time></trkpt><trkpt lat="14.483041665305024" lon="120.9889534978342"><ele>3.0</ele><time>2026-04-24T13:40:19Z</time></trkpt><trkpt lat="14.483106104515098" lon="120.98906763505425"><ele>3.0</ele><time>2026-04-24T13:40:20Z</time></trkpt><trkpt lat="14.48316615332904" lon="120.98919088826244"><ele>3.0</ele><time>2026-04-24T13:40:21Z</time></trkpt><trkpt lat="14.483226877869777" lon="120.98931295503026"><ele>3.0</ele><time>2026-04-24T13:40:22Z</time></trkpt><trkpt lat="14.48329444174202" lon="120.98944034472154"><ele>3.0</ele><time>2026-04-24T13:40:23Z</time></trkpt><trkpt lat="14.483354297466219" lon="120.98956006063223"><ele>3.0</ele><time>2026-04-24T13:40:24Z</time></trkpt><trkpt lat="14.483411930435196" lon="120.98966591929806"><ele>3.0</ele><time>2026-04-24T13:40:25Z</time></trkpt><trkpt lat="14.483456138558292" lon="120.98978174154391"><ele>3.0</ele><time>2026-04-24T13:40:26Z</time></trkpt><trkpt lat="14.483481171655711" lon="120.98989987735959"><ele>3.0</ele><time>2026-04-24T13:40:27Z</time></trkpt><trkpt lat="14.483486851844159" lon="120.9900248075321"><ele>3.0</ele><time>2026-04-24T13:40:28Z</time></trkpt><trkpt lat="14.483472350630986" lon="120.99015467157896"><ele>3.0</ele><time>2026-04-24T13:40:29Z</time></trkpt><trkpt lat="14.483437733525482" lon="120.99028078719445"><ele>4.0</ele><time>2026-04-24T13:40:30Z</time></trkpt><trkpt lat="14.483392180609782" lon="120.99040369680668"><ele>5.0</ele><time>2026-04-24T13:40:31Z</time></trkpt><trkpt lat="14.483340579037572" lon="120.99053146573642"><ele>6.0</ele><time>2026-04-24T13:40:32Z</time></trkpt><trkpt lat="14.483289111526938" lon="120.99066753346823"><ele>7.0</ele><time>2026-04-24T13:40:33Z</time></trkpt><trkpt lat="14.483244060800647" lon="120.99080086739748"><ele>7.0</ele><time>2026-04-24T13:40:34Z</time></trkpt><trkpt lat="14.483201223790319" lon="120.99094165452344"><ele>7.0</ele><time>2026-04-24T13:40:35Z</time></trkpt><trkpt lat="14.483167983188597" lon="120.991088095391"><ele>7.0</ele><time>2026-04-24T13:40:36Z</time></trkpt><trkpt lat="14.483156403319926" lon="120.99122727326537"><ele>7.0</ele><time>2026-04-24T13:40:37Z</time></trkpt><trkpt lat="14.483160827563376" lon="120.99135959633172"><ele>7.0</ele><time>2026-04-24T13:40:38Z</time></trkpt><trkpt lat="14.483187996815088" lon="120.99149192510008"><ele>7.0</ele><time>2026-04-24T13:40:39Z</time></trkpt><trkpt lat="14.48323459585161" lon="120.99162323356015"><ele>7.0</ele><time>2026-04-24T13:40:40Z</time></trkpt><trkpt lat="14.483288062881996" lon="120.99175790700507"><ele>7.0</ele><time>2026-04-24T13:40:41Z</time></trkpt><trkpt lat="14.483341534784403" lon="120.99189596557929"><ele>5.75</ele><time>2026-04-24T13:40:42Z</time></trkpt><trkpt lat="14.48339022522147" lon="120.99203191351296"><ele>4.5</ele><time>2026-04-24T13:40:43Z</time></trkpt><trkpt lat="14.483436895911026" lon="120.9921656038368"><ele>3.25</ele><time>2026-04-24T13:40:44Z</time></trkpt><trkpt lat="14.483462484583354" lon="120.99230506369578"><ele>2.0</ele><time>2026-04-24T13:40:45Z</time></trkpt><trkpt lat="14.483553175672524" lon="120.99238705646478"><ele>2.0</ele><time>2026-04-24T13:40:46Z</time></trkpt><trkpt lat="14.483638851721786" lon="120.99247880098675"><ele>2.0</ele><time>2026-04-24T13:40:47Z</time></trkpt><trkpt lat="14.48374567756435" lon="120.99254539684996"><ele>2.0</ele><time>2026-04-24T13:40:48Z</time></trkpt><trkpt lat="14.483862336584343" lon="120.99260715933812"><ele>2.0</ele><time>2026-04-24T13:40:49Z</time></trkpt><trkpt lat="14.483982255056553" lon="120.99267790751612"><ele>3.0</ele><time>2026-04-24T13:40:50Z</time></trkpt><trkpt lat="14.484102986970782" lon="120.99274956802418"><ele>4.0</ele><time>2026-04-24T13:40:51Z</time></trkpt><trkpt lat="14.484226060414361" lon="120.99283158606804"><ele>5.0</ele><time>2026-04-24T13:40:52Z</time></trkpt><trkpt lat="14.484347541272836" lon="120.99290953565287"><ele>6.0</ele><time>2026-04-24T13:40:53Z</time></trkpt><trkpt lat="14.484476491062113" lon="120.99299393950879"><ele>6.333333333333334</ele><time>2026-04-24T13:40:54Z</time></trkpt><trkpt lat="14.484601614486007" lon="120.99307073656004"><ele>6.666666666666667</ele><time>2026-04-24T13:40:55Z</time></trkpt><trkpt lat="14.484730999434849" lon="120.99315708380823"><ele>7.0</ele><time>2026-04-24T13:40:56Z</time></trkpt><trkpt lat="14.48486289327784" lon="120.99324706442762"><ele>7.0</ele><time>2026-04-24T13:40:57Z</time></trkpt><trkpt lat="14.48499612137458" lon="120.99333179997863"><ele>7.0</ele><time>2026-04-24T13:40:58Z</time></trkpt><trkpt lat="14.48513438864116" lon="120.99342524494077"><ele>7.0</ele><time>2026-04-24T13:40:59Z</time></trkpt><trkpt lat="14.485266867963432" lon="120.99352748208378"><ele>6.0</ele><time>2026-04-24T13:41:00Z</time></trkpt><trkpt lat="14.485395339041295" lon="120.99364277421014"><ele>5.0</ele><time>2026-04-24T13:41:01Z</time></trkpt><trkpt lat="14.485518161587638" lon="120.99376230216762"><ele>4.0</ele><time>2026-04-24T13:41:02Z</time></trkpt><trkpt lat="14.48564189376319" lon="120.99388639550213"><ele>4.0</ele><time>2026-04-24T13:41:03Z</time></trkpt><trkpt lat="14.485760643927584" lon="120.9940156399072"><ele>4.0</ele><time>2026-04-24T13:41:04Z</time></trkpt><trkpt lat="14.485869526143281" lon="120.99414504941063"><ele>4.0</ele><time>2026-04-24T13:41:05Z</time></trkpt><trkpt lat="14.485979245322222" lon="120.99429021042414"><ele>4.0</ele><time>2026-04-24T13:41:06Z</time></trkpt><trkpt lat="14.486080022538236" lon="120.99443928323679"><ele>4.0</ele><time>2026-04-24T13:41:07Z</time></trkpt><trkpt lat="14.486164264526334" lon="120.9945893643512"><ele>4.0</ele><time>2026-04-24T13:41:08Z</time></trkpt><trkpt lat="14.486222409564778" lon="120.99473808048603"><ele>4.0</ele><time>2026-04-24T13:41:09Z</time></trkpt><trkpt lat="14.486261376865942" lon="120.9949003812072"><ele>4.0</ele><time>2026-04-24T13:41:10Z</time></trkpt><trkpt lat="14.486276498515545" lon="120.9950617548718"><ele>4.0</ele><time>2026-04-24T13:41:11Z</time></trkpt><trkpt lat="14.486273786449068" lon="120.99522973302483"><ele>4.333333333333333</ele><time>2026-04-24T13:41:12Z</time></trkpt><trkpt lat="14.486250907250634" lon="120.9953997292798"><ele>4.666666666666667</ele><time>2026-04-24T13:41:13Z</time></trkpt><trkpt lat="14.4862066178585" lon="120.99556746174676"><ele>5.0</ele><time>2026-04-24T13:41:14Z</time></trkpt><trkpt lat="14.486147204403752" lon="120.99573334738398"><ele>4.666666666666667</ele><time>2026-04-24T13:41:15Z</time></trkpt><trkpt lat="14.486080617613037" lon="120.99589631897067"><ele>4.333333333333333</ele><time>2026-04-24T13:41:16Z</time></trkpt><trkpt lat="14.486015188430361" lon="120.99606109236397"><ele>4.0</ele><time>2026-04-24T13:41:17Z</time></trkpt><trkpt lat="14.485954189034132" lon="120.99622689068896"><ele>4.0</ele><time>2026-04-24T13:41:18Z</time></trkpt><trkpt lat="14.485910767352902" lon="120.99638828125319"><ele>4.0</ele><time>2026-04-24T13:41:19Z</time></trkpt><trkpt lat="14.485883643069718" lon="120.9965453731805"><ele>4.0</ele><time>2026-04-24T13:41:20Z</time></trkpt><trkpt lat="14.485880913777137" lon="120.99669614835582"><ele>4.75</ele><time>2026-04-24T13:41:21Z</time></trkpt><trkpt lat="14.485897669621028" lon="120.99684398915352"><ele>5.5</ele><time>2026-04-24T13:41:22Z</time></trkpt><trkpt lat="14.485925396743633" lon="120.9969872517292"><ele>6.25</ele><time>2026-04-24T13:41:23Z</time></trkpt><trkpt lat="14.485963705527375" lon="120.99712259019836"><ele>7.0</ele><time>2026-04-24T13:41:24Z</time></trkpt><trkpt lat="14.486012282353446" lon="120.99724799872901"><ele>7.0</ele><time>2026-04-24T13:41:25Z</time></trkpt><trkpt lat="14.486077715493458" lon="120.99736406166974"><ele>7.0</ele><time>2026-04-24T13:41:26Z</time></trkpt><trkpt lat="14.486157992309948" lon="120.99747132018675"><ele>7.0</ele><time>2026-04-24T13:41:27Z</time></trkpt><trkpt lat="14.486244335359778" lon="120.99757278478222"><ele>7.0</ele><time>2026-04-24T13:41:28Z</time></trkpt><trkpt lat="14.486332669415185" lon="120.9976736900101"><ele>7.25</ele><time>2026-04-24T13:41:29Z</time></trkpt><trkpt lat="14.48642415173197" lon="120.99777498124935"><ele>7.5</ele><time>2026-04-24T13:41:30Z</time></trkpt><trkpt lat="14.486515564781582" lon="120.99787578124034"><ele>7.75</ele><time>2026-04-24T13:41:31Z</time></trkpt><trkpt lat="14.486603858046383" lon="120.99797494040929"><ele>8.0</ele><time>2026-04-24T13:41:32Z</time></trkpt><trkpt lat="14.486689216801949" lon="120.99807482317809"><ele>8.0</ele><time>2026-04-24T13:41:33Z</time></trkpt><trkpt lat="14.486771648643252" lon="120.99817934306783"><ele>8.0</ele><time>2026-04-24T13:41:34Z</time></trkpt><trkpt lat="14.48685584935979" lon="120.99828489969123"><ele>8.0</ele><time>2026-04-24T13:41:35Z</time></trkpt><trkpt lat="14.486940081167958" lon="120.99839361996435"><ele>8.0</ele><time>2026-04-24T13:41:36Z</time></trkpt><trkpt lat="14.487024233608105" lon="120.99849390110495"><ele>7.25</ele><time>2026-04-24T13:41:37Z</time></trkpt><trkpt lat="14.487108463521391" lon="120.99858982559518"><ele>6.5</ele><time>2026-04-24T13:41:38Z</time></trkpt><trkpt lat="14.487187153744866" lon="120.99867751701032"><ele>5.75</ele><time>2026-04-24T13:41:39Z</time></trkpt><trkpt lat="14.487265639083033" lon="120.99876161163427"><ele>5.0</ele><time>2026-04-24T13:41:40Z</time></trkpt><trkpt lat="14.487344003761896" lon="120.9988480053684"><ele>5.0</ele><time>2026-04-24T13:41:41Z</time></trkpt><trkpt lat="14.487413537528873" lon="120.99892522902768"><ele>5.0</ele><time>2026-04-24T13:41:42Z</time></trkpt><trkpt lat="14.487481193364115" lon="120.99900218958821"><ele>5.0</ele><time>2026-04-24T13:41:43Z</time></trkpt><trkpt lat="14.487542284223212" lon="120.99907880871689"><ele>5.0</ele><time>2026-04-24T13:41:44Z</time></trkpt><trkpt lat="14.487606480294186" lon="120.99915443052316"><ele>5.0</ele><time>2026-04-24T13:41:45Z</time></trkpt><trkpt lat="14.487669436026966" lon="120.9992252821279"><ele>5.6</ele><time>2026-04-24T13:41:46Z</time></trkpt><trkpt lat="14.487737881049833" lon="120.99930016811986"><ele>6.2</ele><time>2026-04-24T13:41:47Z</time></trkpt><trkpt lat="14.487817469014853" lon="120.99937624649472"><ele>6.800000000000001</ele><time>2026-04-24T13:41:48Z</time></trkpt><trkpt lat="14.487907368908191" lon="120.99945076739672"><ele>7.4</ele><time>2026-04-24T13:41:49Z</time></trkpt><trkpt lat="14.488015924649137" lon="120.99951629025404"><ele>8.0</ele><time>2026-04-24T13:41:50Z</time></trkpt><trkpt lat="14.488130961767366" lon="120.99957513056228"><ele>8.0</ele><time>2026-04-24T13:41:51Z</time></trkpt><trkpt lat="14.488257952462826" lon="120.9996223631235"><ele>8.0</ele><time>2026-04-24T13:41:52Z</time></trkpt><trkpt lat="14.488388431866394" lon="120.99966264740578"><ele>8.0</ele><time>2026-04-24T13:41:53Z</time></trkpt><trkpt lat="14.488521341846786" lon="120.99969379530796"><ele>8.0</ele><time>2026-04-24T13:41:54Z</time></trkpt><trkpt lat="14.488654184179499" lon="120.99971187228202"><ele>6.75</ele><time>2026-04-24T13:41:55Z</time></trkpt><trkpt lat="14.488785528204417" lon="120.99972408798878"><ele>5.5</ele><time>2026-04-24T13:41:56Z</time></trkpt><trkpt lat="14.488908473892378" lon="120.99972909709015"><ele>4.25</ele><time>2026-04-24T13:41:57Z</time></trkpt><trkpt lat="14.489033384160726" lon="120.99971027395856"><ele>3.0</ele><time>2026-04-24T13:41:58Z</time></trkpt><trkpt lat="14.489161555958368" lon="120.99967383120062"><ele>3.0</ele><time>2026-04-24T13:41:59Z</time></trkpt><trkpt lat="14.489296329581192" lon="120.99962611805827"><ele>3.0</ele><time>2026-04-24T13:42:00Z</time></trkpt><trkpt lat="14.48942533773778" lon="120.99957336202493"><ele>3.0</ele><time>2026-04-24T13:42:01Z</time></trkpt><trkpt lat="14.489543425720436" lon="120.99951650138715"><ele>3.0</ele><time>2026-04-24T13:42:02Z</time></trkpt><trkpt lat="14.489658959408507" lon="120.99945248694036"><ele>3.0</ele><time>2026-04-24T13:42:03Z</time></trkpt><trkpt lat="14.489771065777802" lon="120.99937305204395"><ele>3.0</ele><time>2026-04-24T13:42:04Z</time></trkpt><trkpt lat="14.489879133702543" lon="120.99927308432208"><ele>3.0</ele><time>2026-04-24T13:42:05Z</time></trkpt><trkpt lat="14.489983525205504" lon="120.99916495803677"><ele>3.0</ele><time>2026-04-24T13:42:06Z</time></trkpt><trkpt lat="14.490090651672123" lon="120.99905290842382"><ele>1.6666666666666667</ele><time>2026-04-24T13:42:07Z</time></trkpt><trkpt lat="14.490206391966813" lon="120.99894056654367"><ele>0.33333333333333337</ele><time>2026-04-24T13:42:08Z</time></trkpt><trkpt lat="14.49032513236483" lon="120.99882631230902"><ele>-1.0</ele><time>2026-04-24T13:42:09Z</time></trkpt><trkpt lat="14.490442379444715" lon="120.99870700385978"><ele>-1.6666666666666665</ele><time>2026-04-24T13:42:10Z</time></trkpt><trkpt lat="14.49056183041253" lon="120.99858607083598"><ele>-2.3333333333333335</ele><time>2026-04-24T13:42:11Z</time></trkpt><trkpt lat="14.490665156188397" lon="120.99845919988519"><ele>-3.0</ele><time>2026-04-24T13:42:12Z</time></trkpt><trkpt lat="14.490787311108281" lon="120.99834794371694"><ele>-1.6666666666666667</ele><time>2026-04-24T13:42:13Z</time></trkpt><trkpt lat="14.49089286115169" lon="120.99823121511572"><ele>-0.33333333333333337</ele><time>2026-04-24T13:42:14Z</time></trkpt><trkpt lat="14.490991324270105" lon="120.99810984975842"><ele>1.0</ele><time>2026-04-24T13:42:15Z</time></trkpt><trkpt lat="14.491075958086006" lon="120.99797829358056"><ele>1.0</ele><time>2026-04-24T13:42:16Z</time></trkpt><trkpt lat="14.491146483710786" lon="120.99783482173848"><ele>1.0</ele><time>2026-04-24T13:42:17Z</time></trkpt><trkpt lat="14.491204059842723" lon="120.99768777351733"><ele>1.0</ele><time>2026-04-24T13:42:18Z</time></trkpt><trkpt lat="14.491254957475045" lon="120.99753960103"><ele>0.75</ele><time>2026-04-24T13:42:19Z</time></trkpt><trkpt lat="14.491300541637393" lon="120.99738802752735"><ele>0.5</ele><time>2026-04-24T13:42:20Z</time></trkpt><trkpt lat="14.491359544226597" lon="120.9972446507797"><ele>0.25</ele><time>2026-04-24T13:42:21Z</time></trkpt><trkpt lat="14.491400059707113" lon="120.99710899008758"><ele>0.0</ele><time>2026-04-24T13:42:22Z</time></trkpt><trkpt lat="14.491437187916844" lon="120.99698467124543"><ele>0.0</ele><time>2026-04-24T13:42:23Z</time></trkpt><trkpt lat="14.491471281728055" lon="120.99686887419735"><ele>0.0</ele><time>2026-04-24T13:42:24Z</time></trkpt><trkpt lat="14.491488296847063" lon="120.99675320666783"><ele>0.0</ele><time>2026-04-24T13:42:25Z</time></trkpt><trkpt lat="14.49156539277065" lon="120.9966787903699"><ele>0.0</ele><time>2026-04-24T13:42:26Z</time></trkpt><trkpt lat="14.491614792870163" lon="120.99658604850366"><ele>0.0</ele><time>2026-04-24T13:42:27Z</time></trkpt><trkpt lat="14.49168242590437" lon="120.99650823033097"><ele>1.25</ele><time>2026-04-24T13:42:28Z</time></trkpt><trkpt lat="14.49174337917651" lon="120.99641485321038"><ele>2.5</ele><time>2026-04-24T13:42:29Z</time></trkpt><trkpt lat="14.491832126238327" lon="120.99634203945666"><ele>3.75</ele><time>2026-04-24T13:42:30Z</time></trkpt><trkpt lat="14.491932613132308" lon="120.99627882616907"><ele>5.0</ele><time>2026-04-24T13:42:31Z</time></trkpt><trkpt lat="14.492046532913857" lon="120.99623489428977"><ele>6.25</ele><time>2026-04-24T13:42:32Z</time></trkpt><trkpt lat="14.492167425541899" lon="120.99621124858479"><ele>7.5</ele><time>2026-04-24T13:42:33Z</time></trkpt><trkpt lat="14.492293197379935" lon="120.99621214107609"><ele>8.75</ele><time>2026-04-24T13:42:34Z</time></trkpt><trkpt lat="14.492417112005082" lon="120.99623091360057"><ele>10.0</ele><time>2026-04-24T13:42:35Z</time></trkpt><trkpt lat="14.492548695079725" lon="120.99624758406337"><ele>10.0</ele><time>2026-04-24T13:42:36Z</time></trkpt><trkpt lat="14.492682596093646" lon="120.99625707865783"><ele>10.0</ele><time>2026-04-24T13:42:37Z</time></trkpt><trkpt lat="14.492825048489024" lon="120.99626492740772"><ele>10.0</ele><time>2026-04-24T13:42:38Z</time></trkpt><trkpt lat="14.492967431536206" lon="120.99627370434631"><ele>10.0</ele><time>2026-04-24T13:42:39Z</time></trkpt><trkpt lat="14.493116062826235" lon="120.99627857057723"><ele>9.75</ele><time>2026-04-24T13:42:40Z</time></trkpt><trkpt lat="14.493264215002009" lon="120.99628338141473"><ele>9.5</ele><time>2026-04-24T13:42:41Z</time></trkpt><trkpt lat="14.493406894725597" lon="120.99628384674861"><ele>9.25</ele><time>2026-04-24T13:42:42Z</time></trkpt><trkpt lat="14.493543256959523" lon="120.99628751752144"><ele>9.0</ele><time>2026-04-24T13:42:43Z</time></trkpt><trkpt lat="14.493671488437016" lon="120.99629273549533"><ele>7.75</ele><time>2026-04-24T13:42:44Z</time></trkpt><trkpt lat="14.493793812398295" lon="120.99630383018263"><ele>6.5</ele><time>2026-04-24T13:42:45Z</time></trkpt><trkpt lat="14.49391284353567" lon="120.99633962784975"><ele>5.25</ele><time>2026-04-24T13:42:46Z</time></trkpt><trkpt lat="14.494023466181009" lon="120.99640102312846"><ele>4.0</ele><time>2026-04-24T13:42:47Z</time></trkpt><trkpt lat="14.494123640080444" lon="120.99648879219835"><ele>4.0</ele><time>2026-04-24T13:42:48Z</time></trkpt><trkpt lat="14.49421251575482" lon="120.99659638203818"><ele>4.0</ele><time>2026-04-24T13:42:49Z</time></trkpt><trkpt lat="14.494283187217045" lon="120.99672213894314"><ele>4.0</ele><time>2026-04-24T13:42:50Z</time></trkpt><trkpt lat="14.494340591078084" lon="120.99685889995665"><ele>4.0</ele><time>2026-04-24T13:42:51Z</time></trkpt><trkpt lat="14.49439507444989" lon="120.99700382785572"><ele>5.333333333333333</ele><time>2026-04-24T13:42:52Z</time></trkpt><trkpt lat="14.494449650333507" lon="120.99714854107744"><ele>6.666666666666666</ele><time>2026-04-24T13:42:53Z</time></trkpt><trkpt lat="14.494512210956046" lon="120.9972942153157"><ele>8.0</ele><time>2026-04-24T13:42:54Z</time></trkpt><trkpt lat="14.494573896181825" lon="120.99743790802465"><ele>6.75</ele><time>2026-04-24T13:42:55Z</time></trkpt><trkpt lat="14.494635539919347" lon="120.99758113205786"><ele>5.5</ele><time>2026-04-24T13:42:56Z</time></trkpt><trkpt lat="14.49469505960604" lon="120.99772013240207"><ele>4.25</ele><time>2026-04-24T13:42:57Z</time></trkpt><trkpt lat="14.494755219454834" lon="120.9978546032747"><ele>3.0</ele><time>2026-04-24T13:42:58Z</time></trkpt><trkpt lat="14.494820430618182" lon="120.9979902021807"><ele>3.0</ele><time>2026-04-24T13:42:59Z</time></trkpt><trkpt lat="14.494891072819776" lon="120.99812927334337"><ele>3.0</ele><time>2026-04-24T13:43:00Z</time></trkpt><trkpt lat="14.494969585798206" lon="120.99827064554282"><ele>3.0</ele><time>2026-04-24T13:43:01Z</time></trkpt><trkpt lat="14.495052803858927" lon="120.99841341117218"><ele>4.666666666666666</ele><time>2026-04-24T13:43:02Z</time></trkpt><trkpt lat="14.495132504038374" lon="120.9985641130461"><ele>6.333333333333333</ele><time>2026-04-24T13:43:03Z</time></trkpt><trkpt lat="14.495212061785464" lon="120.99872029038701"><ele>8.0</ele><time>2026-04-24T13:43:04Z</time></trkpt><trkpt lat="14.495294619211231" lon="120.99887714546922"><ele>8.0</ele><time>2026-04-24T13:43:05Z</time></trkpt><trkpt lat="14.495374025420652" lon="120.99902478141716"><ele>8.0</ele><time>2026-04-24T13:43:06Z</time></trkpt><trkpt lat="14.495452342097563" lon="120.9991732972563"><ele>8.0</ele><time>2026-04-24T13:43:07Z</time></trkpt><trkpt lat="14.495525066534855" lon="120.99930600238777"><ele>7.4</ele><time>2026-04-24T13:43:08Z</time></trkpt><trkpt lat="14.495587000077995" lon="120.99941798237474"><ele>6.800000000000001</ele><time>2026-04-24T13:43:09Z</time></trkpt><trkpt lat="14.495635725435717" lon="120.9995148837636"><ele>6.2</ele><time>2026-04-24T13:43:10Z</time></trkpt><trkpt lat="14.495673679904272" lon="120.99959563971667"><ele>5.6</ele><time>2026-04-24T13:43:11Z</time></trkpt><trkpt lat="14.495704952416968" lon="120.99967537176141"><ele>5.0</ele><time>2026-04-24T13:43:12Z</time></trkpt><trkpt lat="14.495739387102276" lon="120.9997471788074"><ele>5.0</ele><time>2026-04-24T13:43:13Z</time></trkpt><trkpt lat="14.495804836625307" lon="120.99985656484651"><ele>5.0</ele><time>2026-04-24T13:43:15Z</time></trkpt><trkpt lat="14.4958646958928" lon="120.99994520720712"><ele>5.0</ele><time>2026-04-24T13:43:17Z</time></trkpt><trkpt lat="14.495913382857074" lon="120.99999953442924"><ele>5.0</ele><time>2026-04-24T13:43:19Z</time></trkpt><trkpt lat="14.495976655883739" lon="121.000065917647"><ele>5.0</ele><time>2026-04-24T13:43:21Z</time></trkpt><trkpt lat="14.496000787237117" lon="121.00012922829275"><ele>5.0</ele><time>2026-04-24T13:43:22Z</time></trkpt><trkpt lat="14.496052659103192" lon="121.0002154629267"><ele>5.0</ele><time>2026-04-24T13:43:24Z</time></trkpt><trkpt lat="14.496097074078854" lon="121.00026629589416"><ele>5.0</ele><time>2026-04-24T13:43:27Z</time></trkpt><trkpt lat="14.496267650525144" lon="121.00019763543263"><ele>5.0</ele><time>2026-04-24T13:43:29Z</time></trkpt><trkpt lat="14.496292248979287" lon="121.00011741187383"><ele>5.0</ele><time>2026-04-24T13:43:30Z</time></trkpt><trkpt lat="14.496333223268827" lon="121.00006126421964"><ele>4.833333333333334</ele><time>2026-04-24T13:43:31Z</time></trkpt><trkpt lat="14.496379503044324" lon="121.0000055384632"><ele>4.666666666666667</ele><time>2026-04-24T13:43:32Z</time></trkpt><trkpt lat="14.496431513863408" lon="120.99994899760453"><ele>4.5</ele><time>2026-04-24T13:43:33Z</time></trkpt><trkpt lat="14.496484021677944" lon="120.99988726184954"><ele>4.333333333333333</ele><time>2026-04-24T13:43:34Z</time></trkpt><trkpt lat="14.496535506163108" lon="120.99982307672792"><ele>4.166666666666666</ele><time>2026-04-24T13:43:35Z</time></trkpt><trkpt lat="14.49660419670069" lon="120.99976716097548"><ele>4.0</ele><time>2026-04-24T13:43:36Z</time></trkpt><trkpt lat="14.496663206185769" lon="120.9997021554952"><ele>3.9999999999999996</ele><time>2026-04-24T13:43:37Z</time></trkpt><trkpt lat="14.496721035975414" lon="120.99963885387506"><ele>4.0</ele><time>2026-04-24T13:43:38Z</time></trkpt><trkpt lat="14.496775283351248" lon="120.99957947357748"><ele>4.0</ele><time>2026-04-24T13:43:39Z</time></trkpt><trkpt lat="14.496818995810845" lon="120.99950718272017"><ele>4.0</ele><time>2026-04-24T13:43:40Z</time></trkpt><trkpt lat="14.496848417868648" lon="120.99943275477362"><ele>3.9999999999999996</ele><time>2026-04-24T13:43:41Z</time></trkpt><trkpt lat="14.496858034923179" lon="120.99934578364116"><ele>4.0</ele><time>2026-04-24T13:43:42Z</time></trkpt><trkpt lat="14.496875550458658" lon="120.99926479783898"><ele>3.9999999999999996</ele><time>2026-04-24T13:43:43Z</time></trkpt><trkpt lat="14.496893484974747" lon="120.99918088056185"><ele>4.0</ele><time>2026-04-24T13:43:44Z</time></trkpt><trkpt lat="14.496915586234012" lon="120.9990924800498"><ele>4.0</ele><time>2026-04-24T13:43:45Z</time></trkpt><trkpt lat="14.49694788357374" lon="120.99901585080495"><ele>4.0</ele><time>2026-04-24T13:43:46Z</time></trkpt><trkpt lat="14.496966180838196" lon="120.99894055941327"><ele>3.9999999999999996</ele><time>2026-04-24T13:43:47Z</time></trkpt><trkpt lat="14.496983699120781" lon="120.9988688635618"><ele>4.0</ele><time>2026-04-24T13:43:48Z</time></trkpt><trkpt lat="14.497001475905382" lon="120.99879782177376"><ele>4.0</ele><time>2026-04-24T13:43:49Z</time></trkpt><trkpt lat="14.49702496200715" lon="120.99872904328328"><ele>4.0</ele><time>2026-04-24T13:43:50Z</time></trkpt><trkpt lat="14.49704877258715" lon="120.99866282441275"><ele>4.0</ele><time>2026-04-24T13:43:51Z</time></trkpt><trkpt lat="14.497121645541673" lon="120.99856308045763"><ele>4.0</ele><time>2026-04-24T13:43:53Z</time></trkpt><trkpt lat="14.497181360108966" lon="120.99847366192641"><ele>4.0</ele><time>2026-04-24T13:43:55Z</time></trkpt><trkpt lat="14.49724177385243" lon="120.99839047812166"><ele>4.2</ele><time>2026-04-24T13:43:57Z</time></trkpt><trkpt lat="14.497311687051955" lon="120.99829687093694"><ele>4.4</ele><time>2026-04-24T13:43:59Z</time></trkpt><trkpt lat="14.497387527054048" lon="120.9981953283144"><ele>4.6</ele><time>2026-04-24T13:44:01Z</time></trkpt><trkpt lat="14.497477430514364" lon="120.99810203806588"><ele>4.8</ele><time>2026-04-24T13:44:03Z</time></trkpt><trkpt lat="14.497545331702447" lon="120.9980775840128"><ele>5.0</ele><time>2026-04-24T13:44:04Z</time></trkpt><trkpt lat="14.497614668708232" lon="120.99806268810214"><ele>5.0</ele><time>2026-04-24T13:44:05Z</time></trkpt><trkpt lat="14.497690653686648" lon="120.99804922889786"><ele>5.0</ele><time>2026-04-24T13:44:06Z</time></trkpt><trkpt lat="14.497770667581817" lon="120.99803135137657"><ele>5.0</ele><time>2026-04-24T13:44:07Z</time></trkpt><trkpt lat="14.497854264079816" lon="120.99801362862992"><ele>5.0</ele><time>2026-04-24T13:44:08Z</time></trkpt><trkpt lat="14.49794592527453" lon="120.99799745061532"><ele>5.0</ele><time>2026-04-24T13:44:09Z</time></trkpt><trkpt lat="14.498039942637497" lon="120.99797872124876"><ele>5.0</ele><time>2026-04-24T13:44:10Z</time></trkpt><trkpt lat="14.498129413746666" lon="120.99795690822705"><ele>5.0</ele><time>2026-04-24T13:44:11Z</time></trkpt><trkpt lat="14.498217282705937" lon="120.99793737558116"><ele>5.0</ele><time>2026-04-24T13:44:12Z</time></trkpt><trkpt lat="14.498294955790687" lon="120.99792158724314"><ele>5.0</ele><time>2026-04-24T13:44:13Z</time></trkpt><trkpt lat="14.498366110267499" lon="120.99790958536245"><ele>5.0</ele><time>2026-04-24T13:44:14Z</time></trkpt><trkpt lat="14.498466509307223" lon="120.99788960034525"><ele>5.0</ele><time>2026-04-24T13:44:16Z</time></trkpt><trkpt lat="14.498538317064874" lon="120.99787115811961"><ele>5.0</ele><time>2026-04-24T13:44:19Z</time></trkpt><trkpt lat="14.49860248951342" lon="120.9978655369878"><ele>5.0</ele><time>2026-04-24T13:44:23Z</time></trkpt><trkpt lat="14.498669215278552" lon="120.99785726883863"><ele>5.0</ele><time>2026-04-24T13:44:26Z</time></trkpt><trkpt lat="14.498760888919307" lon="120.9978353224116"><ele>5.0</ele><time>2026-04-24T13:44:44Z</time></trkpt><trkpt lat="14.4988520718063" lon="120.99781489164268"><ele>5.0</ele><time>2026-04-24T13:48:44Z</time></trkpt><trkpt lat="14.498945610339897" lon="120.99780245364902"><ele>5.0</ele><time>2026-04-24T13:48:46Z</time></trkpt><trkpt lat="14.49901275703299" lon="120.9977790661591"><ele>5.0</ele><time>2026-04-24T13:48:47Z</time></trkpt><trkpt lat="14.499087682613741" lon="120.99775681867354"><ele>4.6</ele><time>2026-04-24T13:48:48Z</time></trkpt><trkpt lat="14.499173184310997" lon="120.99773298578386"><ele>4.2</ele><time>2026-04-24T13:48:49Z</time></trkpt><trkpt lat="14.499265139378195" lon="120.99771025636585"><ele>3.8</ele><time>2026-04-24T13:48:50Z</time></trkpt><trkpt lat="14.499363377464519" lon="120.99768824860706"><ele>3.4</ele><time>2026-04-24T13:48:51Z</time></trkpt><trkpt lat="14.499463226260811" lon="120.99766619669674"><ele>3.0</ele><time>2026-04-24T13:48:52Z</time></trkpt><trkpt lat="14.499559586117922" lon="120.99764828257024"><ele>3.1666666666666665</ele><time>2026-04-24T13:48:53Z</time></trkpt><trkpt lat="14.499640708289903" lon="120.99763649376439"><ele>3.333333333333333</ele><time>2026-04-24T13:48:54Z</time></trkpt><trkpt lat="14.49971650240317" lon="120.99762194868818"><ele>3.5</ele><time>2026-04-24T13:48:55Z</time></trkpt><trkpt lat="14.49979215982484" lon="120.99760540557494"><ele>3.6666666666666665</ele><time>2026-04-24T13:48:56Z</time></trkpt><trkpt lat="14.499872251385986" lon="120.99758551344401"><ele>3.833333333333333</ele><time>2026-04-24T13:48:57Z</time></trkpt><trkpt lat="14.499947205922368" lon="120.9975620905525"><ele>4.0</ele><time>2026-04-24T13:48:58Z</time></trkpt><trkpt lat="14.500023515598524" lon="120.99754126827493"><ele>3.9999999999999996</ele><time>2026-04-24T13:48:59Z</time></trkpt><trkpt lat="14.500085604967785" lon="120.99752959395694"><ele>4.0</ele><time>2026-04-24T13:49:00Z</time></trkpt><trkpt lat="14.500149350620893" lon="120.9974976092565"><ele>4.0</ele><time>2026-04-24T13:49:01Z</time></trkpt><trkpt lat="14.500237992005333" lon="120.997452013721"><ele>4.0</ele><time>2026-04-24T13:49:03Z</time></trkpt><trkpt lat="14.500301294015337" lon="120.99742587079486"><ele>3.9999999999999996</ele><time>2026-04-24T13:49:05Z</time></trkpt><trkpt lat="14.500360857273789" lon="120.99739397662972"><ele>4.0</ele><time>2026-04-24T13:49:08Z</time></trkpt><trkpt lat="14.500509610217593" lon="120.99754695864954"><ele>4.2</ele><time>2026-04-24T13:49:10Z</time></trkpt><trkpt lat="14.500574197301388" lon="120.99759619994889"><ele>4.4</ele><time>2026-04-24T13:49:11Z</time></trkpt><trkpt lat="14.500641154361931" lon="120.99764422676617"><ele>4.6</ele><time>2026-04-24T13:49:12Z</time></trkpt><trkpt lat="14.500717065136131" lon="120.99770096547508"><ele>4.8</ele><time>2026-04-24T13:49:13Z</time></trkpt><trkpt lat="14.500797051352693" lon="120.99775287137129"><ele>5.0</ele><time>2026-04-24T13:49:14Z</time></trkpt><trkpt lat="14.500885065304432" lon="120.99780823812857"><ele>5.0</ele><time>2026-04-24T13:49:15Z</time></trkpt><trkpt lat="14.500972048482954" lon="120.99785893397531"><ele>5.0</ele><time>2026-04-24T13:49:16Z</time></trkpt><trkpt lat="14.501055436833925" lon="120.99790626106002"><ele>5.0</ele><time>2026-04-24T13:49:17Z</time></trkpt><trkpt lat="14.501131759356948" lon="120.99795497439304"><ele>5.0</ele><time>2026-04-24T13:49:18Z</time></trkpt><trkpt lat="14.501205188815971" lon="120.99799648298888"><ele>5.0</ele><time>2026-04-24T13:49:19Z</time></trkpt><trkpt lat="14.501278624458266" lon="120.99803830046902"><ele>5.166666666666667</ele><time>2026-04-24T13:49:20Z</time></trkpt><trkpt lat="14.501342767066655" lon="120.99807874436578"><ele>5.333333333333334</ele><time>2026-04-24T13:49:21Z</time></trkpt><trkpt lat="14.501413464509923" lon="120.99811861977186"><ele>5.5</ele><time>2026-04-24T13:49:22Z</time></trkpt><trkpt lat="14.501481409353671" lon="120.9981660907512"><ele>5.666666666666667</ele><time>2026-04-24T13:49:23Z</time></trkpt><trkpt lat="14.501546549707847" lon="120.99819901662065"><ele>5.833333333333333</ele><time>2026-04-24T13:49:24Z</time></trkpt><trkpt lat="14.50161284071118" lon="120.99823724363439"><ele>6.0</ele><time>2026-04-24T13:49:25Z</time></trkpt><trkpt lat="14.50166807722311" lon="120.99827759281571"><ele>6.0</ele><time>2026-04-24T13:49:26Z</time></trkpt><trkpt lat="14.501756322183951" lon="120.9983313189293"><ele>6.0</ele><time>2026-04-24T13:49:28Z</time></trkpt><trkpt lat="14.50182898977058" lon="120.998376410163"><ele>6.0</ele><time>2026-04-24T13:49:30Z</time></trkpt><trkpt lat="14.50188967414565" lon="120.99842322654789"><ele>6.0</ele><time>2026-04-24T13:49:34Z</time></trkpt><trkpt lat="14.501952441333097" lon="120.99846694010064"><ele>6.0</ele><time>2026-04-24T13:49:36Z</time></trkpt><trkpt lat="14.502029068332938" lon="120.99852664062782"><ele>6.0</ele><time>2026-04-24T13:49:38Z</time></trkpt><trkpt lat="14.502135752471064" lon="120.99859440180349"><ele>6.5</ele><time>2026-04-24T13:49:40Z</time></trkpt><trkpt lat="14.502200207341195" lon="120.99863761798227"><ele>7.0</ele><time>2026-04-24T13:49:41Z</time></trkpt><trkpt lat="14.502260615526405" lon="120.99868764664352"><ele>7.5</ele><time>2026-04-24T13:49:42Z</time></trkpt><trkpt lat="14.502341560272816" lon="120.99870937550764"><ele>8.0</ele><time>2026-04-24T13:49:43Z</time></trkpt><trkpt lat="14.502419025955211" lon="120.99875522210176"><ele>8.5</ele><time>2026-04-24T13:49:44Z</time></trkpt><trkpt lat="14.502504007492641" lon="120.99880349000853"><ele>9.0</ele><time>2026-04-24T13:49:45Z</time></trkpt><trkpt lat="14.50259030976488" lon="120.99885225247533"><ele>9.0</ele><time>2026-04-24T13:49:46Z</time></trkpt><trkpt lat="14.502680268599612" lon="120.99891440478054"><ele>9.0</ele><time>2026-04-24T13:49:47Z</time></trkpt><trkpt lat="14.502768300734369" lon="120.99896933849087"><ele>9.0</ele><time>2026-04-24T13:49:48Z</time></trkpt><trkpt lat="14.502858175058268" lon="120.99901181801995"><ele>9.0</ele><time>2026-04-24T13:49:49Z</time></trkpt><trkpt lat="14.502945000272502" lon="120.99903984270709"><ele>9.0</ele><time>2026-04-24T13:49:50Z</time></trkpt><trkpt lat="14.503012773378101" lon="120.99907893645309"><ele>9.0</ele><time>2026-04-24T13:49:51Z</time></trkpt><trkpt lat="14.503103063139903" lon="120.99915730571063"><ele>9.0</ele><time>2026-04-24T13:49:52Z</time></trkpt><trkpt lat="14.50318014720917" lon="120.99921091504855"><ele>9.0</ele><time>2026-04-24T13:49:53Z</time></trkpt><trkpt lat="14.503260242429308" lon="120.99925937457814"><ele>9.0</ele><time>2026-04-24T13:49:54Z</time></trkpt><trkpt lat="14.503337519884518" lon="120.99931231647587"><ele>9.0</ele><time>2026-04-24T13:49:55Z</time></trkpt><trkpt lat="14.503419320794332" lon="120.99936888828411"><ele>9.0</ele><time>2026-04-24T13:49:56Z</time></trkpt><trkpt lat="14.503501945505835" lon="120.99942563173332"><ele>9.0</ele><time>2026-04-24T13:49:57Z</time></trkpt><trkpt lat="14.503595639639052" lon="120.99948304572408"><ele>9.0</ele><time>2026-04-24T13:49:58Z</time></trkpt><trkpt lat="14.503684301422583" lon="120.99953881794237"><ele>9.0</ele><time>2026-04-24T13:49:59Z</time></trkpt><trkpt lat="14.503779234690043" lon="120.99959967410877"><ele>9.0</ele><time>2026-04-24T13:50:00Z</time></trkpt><trkpt lat="14.503874830442161" lon="120.99966560769582"><ele>9.25</ele><time>2026-04-24T13:50:01Z</time></trkpt><trkpt lat="14.503974675698053" lon="120.9997280680221"><ele>9.5</ele><time>2026-04-24T13:50:02Z</time></trkpt><trkpt lat="14.504070469948307" lon="120.99979862236091"><ele>9.75</ele><time>2026-04-24T13:50:03Z</time></trkpt><trkpt lat="14.504167332020613" lon="120.99986772261023"><ele>10.0</ele><time>2026-04-24T13:50:04Z</time></trkpt><trkpt lat="14.50426524110571" lon="120.99993896379208"><ele>10.0</ele><time>2026-04-24T13:50:05Z</time></trkpt><trkpt lat="14.50436702802122" lon="121.00001465788075"><ele>10.0</ele><time>2026-04-24T13:50:06Z</time></trkpt><trkpt lat="14.504470802109601" lon="121.000094237013"><ele>10.0</ele><time>2026-04-24T13:50:07Z</time></trkpt><trkpt lat="14.504587138377277" lon="121.00017340832078"><ele>10.0</ele><time>2026-04-24T13:50:08Z</time></trkpt><trkpt lat="14.504705754519167" lon="121.00025326776706"><ele>9.25</ele><time>2026-04-24T13:50:09Z</time></trkpt><trkpt lat="14.504821165024971" lon="121.00032345168066"><ele>8.5</ele><time>2026-04-24T13:50:10Z</time></trkpt><trkpt lat="14.504931883807673" lon="121.0003870789201"><ele>7.75</ele><time>2026-04-24T13:50:11Z</time></trkpt><trkpt lat="14.505029897282986" lon="121.00044959379673"><ele>7.0</ele><time>2026-04-24T13:50:12Z</time></trkpt><trkpt lat="14.505125280067116" lon="121.0005155851683"><ele>7.0</ele><time>2026-04-24T13:50:13Z</time></trkpt><trkpt lat="14.505218543190294" lon="121.00057428410449"><ele>6.999999999999999</ele><time>2026-04-24T13:50:14Z</time></trkpt><trkpt lat="14.505307204786854" lon="121.00062901551391"><ele>6.999999999999999</ele><time>2026-04-24T13:50:15Z</time></trkpt><trkpt lat="14.505399426722366" lon="121.00067893350457"><ele>7.0</ele><time>2026-04-24T13:50:16Z</time></trkpt><trkpt lat="14.50550308845361" lon="121.0007185674196"><ele>7.0</ele><time>2026-04-24T13:50:17Z</time></trkpt><trkpt lat="14.505611781170098" lon="121.00075815305692"><ele>7.75</ele><time>2026-04-24T13:50:18Z</time></trkpt><trkpt lat="14.505721093539343" lon="121.00080098345292"><ele>8.5</ele><time>2026-04-24T13:50:19Z</time></trkpt><trkpt lat="14.50584136573917" lon="121.00084518664632"><ele>9.25</ele><time>2026-04-24T13:50:20Z</time></trkpt><trkpt lat="14.50596222887373" lon="121.00089652135931"><ele>10.0</ele><time>2026-04-24T13:50:21Z</time></trkpt><trkpt lat="14.50609678330643" lon="121.00095351674129"><ele>10.0</ele><time>2026-04-24T13:50:22Z</time></trkpt><trkpt lat="14.506222752343154" lon="121.00100823021498"><ele>10.0</ele><time>2026-04-24T13:50:23Z</time></trkpt><trkpt lat="14.50635105036562" lon="121.00105394876668"><ele>10.0</ele><time>2026-04-24T13:50:24Z</time></trkpt><trkpt lat="14.506472968287556" lon="121.00109582923542"><ele>10.0</ele><time>2026-04-24T13:50:25Z</time></trkpt><trkpt lat="14.506583917905232" lon="121.00113233164195"><ele>10.0</ele><time>2026-04-24T13:50:26Z</time></trkpt><trkpt lat="14.506694523618096" lon="121.0011665014456"><ele>10.0</ele><time>2026-04-24T13:50:27Z</time></trkpt><trkpt lat="14.506805878480733" lon="121.00120472736991"><ele>10.0</ele><time>2026-04-24T13:50:28Z</time></trkpt><trkpt lat="14.506921185632532" lon="121.00124680358813"><ele>10.0</ele><time>2026-04-24T13:50:29Z</time></trkpt><trkpt lat="14.507011188761357" lon="121.0012798493026"><ele>9.6</ele><time>2026-04-24T13:50:30Z</time></trkpt><trkpt lat="14.507100347243247" lon="121.00131895561461"><ele>9.2</ele><time>2026-04-24T13:50:31Z</time></trkpt><trkpt lat="14.507178383532446" lon="121.00135064346254"><ele>8.8</ele><time>2026-04-24T13:50:32Z</time></trkpt><trkpt lat="14.507259874705667" lon="121.00139678718169"><ele>8.4</ele><time>2026-04-24T13:50:33Z</time></trkpt><trkpt lat="14.507343989904198" lon="121.00141652365856"><ele>8.0</ele><time>2026-04-24T13:50:34Z</time></trkpt><trkpt lat="14.507430844218456" lon="121.0014520145993"><ele>8.0</ele><time>2026-04-24T13:50:35Z</time></trkpt><trkpt lat="14.507516576509687" lon="121.00148366888679"><ele>8.0</ele><time>2026-04-24T13:50:36Z</time></trkpt><trkpt lat="14.507601322052142" lon="121.00151882391285"><ele>8.0</ele><time>2026-04-24T13:50:37Z</time></trkpt><trkpt lat="14.507682495597022" lon="121.00156641123472"><ele>8.0</ele><time>2026-04-24T13:50:38Z</time></trkpt><trkpt lat="14.507767492140289" lon="121.0016056075139"><ele>8.0</ele><time>2026-04-24T13:50:39Z</time></trkpt><trkpt lat="14.507855798173704" lon="121.00166155268644"><ele>8.200000000000001</ele><time>2026-04-24T13:50:40Z</time></trkpt><trkpt lat="14.507946718133399" lon="121.001716488903"><ele>8.4</ele><time>2026-04-24T13:50:41Z</time></trkpt><trkpt lat="14.508035532566746" lon="121.00177563669556"><ele>8.600000000000001</ele><time>2026-04-24T13:50:42Z</time></trkpt><trkpt lat="14.508140725422313" lon="121.00182360300924"><ele>8.8</ele><time>2026-04-24T13:50:43Z</time></trkpt><trkpt lat="14.508249095683633" lon="121.00186145891996"><ele>9.0</ele><time>2026-04-24T13:50:44Z</time></trkpt><trkpt lat="14.508369198585672" lon="121.00189709933028"><ele>9.0</ele><time>2026-04-24T13:50:45Z</time></trkpt><trkpt lat="14.508488844551398" lon="121.00194117492534"><ele>9.0</ele><time>2026-04-24T13:50:46Z</time></trkpt><trkpt lat="14.508615353291143" lon="121.00198373723623"><ele>9.0</ele><time>2026-04-24T13:50:47Z</time></trkpt><trkpt lat="14.508745555996985" lon="121.00202013234866"><ele>9.0</ele><time>2026-04-24T13:50:48Z</time></trkpt><trkpt lat="14.508883565501689" lon="121.00205142495129"><ele>8.5</ele><time>2026-04-24T13:50:49Z</time></trkpt><trkpt lat="14.50902505110396" lon="121.0020843560243"><ele>8.0</ele><time>2026-04-24T13:50:50Z</time></trkpt><trkpt lat="14.509168357273246" lon="121.00211797316348"><ele>7.5</ele><time>2026-04-24T13:50:51Z</time></trkpt><trkpt lat="14.509313942896583" lon="121.00215901867254"><ele>7.0</ele><time>2026-04-24T13:50:52Z</time></trkpt><trkpt lat="14.509459675868111" lon="121.00221116626614"><ele>6.333333333333334</ele><time>2026-04-24T13:50:53Z</time></trkpt><trkpt lat="14.509605632975063" lon="121.00226778049591"><ele>5.666666666666667</ele><time>2026-04-24T13:50:54Z</time></trkpt><trkpt lat="14.509761112313187" lon="121.00231583020911"><ele>5.0</ele><time>2026-04-24T13:50:55Z</time></trkpt><trkpt lat="14.50991580699792" lon="121.0023609558978"><ele>5.0</ele><time>2026-04-24T13:50:56Z</time></trkpt><trkpt lat="14.510071962886377" lon="121.00240863594601"><ele>5.0</ele><time>2026-04-24T13:50:57Z</time></trkpt><trkpt lat="14.510227967120866" lon="121.00246545703388"><ele>5.0</ele><time>2026-04-24T13:50:58Z</time></trkpt><trkpt lat="14.510380078830392" lon="121.00252273273968"><ele>5.25</ele><time>2026-04-24T13:50:59Z</time></trkpt><trkpt lat="14.510516614797139" lon="121.00257454931969"><ele>5.5</ele><time>2026-04-24T13:51:00Z</time></trkpt><trkpt lat="14.510641702810545" lon="121.00261973668586"><ele>5.75</ele><time>2026-04-24T13:51:01Z</time></trkpt><trkpt lat="14.510748252906739" lon="121.00266070163559"><ele>6.0</ele><time>2026-04-24T13:51:02Z</time></trkpt><trkpt lat="14.510838107936936" lon="121.0027005105132"><ele>6.0</ele><time>2026-04-24T13:51:03Z</time></trkpt><trkpt lat="14.51091513312667" lon="121.00273865224582"><ele>6.0</ele><time>2026-04-24T13:51:04Z</time></trkpt><trkpt lat="14.510994786911748" lon="121.00277571628502"><ele>6.0</ele><time>2026-04-24T13:51:05Z</time></trkpt><trkpt lat="14.511082551276855" lon="121.00281231401559"><ele>6.0</ele><time>2026-04-24T13:51:06Z</time></trkpt><trkpt lat="14.511180059661267" lon="121.00285120072557"><ele>6.0</ele><time>2026-04-24T13:51:07Z</time></trkpt><trkpt lat="14.51128911543716" lon="121.00288792242114"><ele>6.0</ele><time>2026-04-24T13:51:08Z</time></trkpt><trkpt lat="14.511396339016077" lon="121.00292646264168"><ele>6.0</ele><time>2026-04-24T13:51:09Z</time></trkpt><trkpt lat="14.51149963444672" lon="121.00295899030641"><ele>6.0</ele><time>2026-04-24T13:51:10Z</time></trkpt><trkpt lat="14.511606612445606" lon="121.00299482631425"><ele>6.0</ele><time>2026-04-24T13:51:11Z</time></trkpt><trkpt lat="14.511730257649887" lon="121.00303814751314"><ele>6.0</ele><time>2026-04-24T13:51:12Z</time></trkpt><trkpt lat="14.511855194740413" lon="121.00308271368588"><ele>6.0</ele><time>2026-04-24T13:51:13Z</time></trkpt><trkpt lat="14.511989224288616" lon="121.00311751564134"><ele>6.0</ele><time>2026-04-24T13:51:14Z</time></trkpt><trkpt lat="14.512126399262371" lon="121.00316982134045"><ele>6.0</ele><time>2026-04-24T13:51:15Z</time></trkpt><trkpt lat="14.512263220928363" lon="121.00322534493401"><ele>6.333333333333334</ele><time>2026-04-24T13:51:16Z</time></trkpt><trkpt lat="14.512397861207992" lon="121.00328062941475"><ele>6.666666666666667</ele><time>2026-04-24T13:51:17Z</time></trkpt><trkpt lat="14.512552053085779" lon="121.00332950461974"><ele>7.0</ele><time>2026-04-24T13:51:18Z</time></trkpt><trkpt lat="14.512695212945363" lon="121.0033811208319"><ele>7.0</ele><time>2026-04-24T13:51:19Z</time></trkpt><trkpt lat="14.512836223859908" lon="121.00343220442808"><ele>7.0</ele><time>2026-04-24T13:51:20Z</time></trkpt><trkpt lat="14.512974870981507" lon="121.00348079395972"><ele>7.0</ele><time>2026-04-24T13:51:21Z</time></trkpt><trkpt lat="14.513109344660412" lon="121.00353024575718"><ele>7.0</ele><time>2026-04-24T13:51:22Z</time></trkpt><trkpt lat="14.513237002859787" lon="121.00357757088338"><ele>7.25</ele><time>2026-04-24T13:51:23Z</time></trkpt><trkpt lat="14.513364721923464" lon="121.00361968208082"><ele>7.5</ele><time>2026-04-24T13:51:24Z</time></trkpt><trkpt lat="14.513489966533227" lon="121.0036599449432"><ele>7.75</ele><time>2026-04-24T13:51:25Z</time></trkpt><trkpt lat="14.513616330245732" lon="121.00370340764397"><ele>8.0</ele><time>2026-04-24T13:51:26Z</time></trkpt><trkpt lat="14.513731750121499" lon="121.00374326035195"><ele>9.0</ele><time>2026-04-24T13:51:27Z</time></trkpt><trkpt lat="14.513848948094232" lon="121.00378071787685"><ele>10.0</ele><time>2026-04-24T13:51:28Z</time></trkpt><trkpt lat="14.513955502591031" lon="121.00382928081632"><ele>11.0</ele><time>2026-04-24T13:51:29Z</time></trkpt><trkpt lat="14.514054433245825" lon="121.00386883148278"><ele>12.0</ele><time>2026-04-24T13:51:30Z</time></trkpt><trkpt lat="14.514153160397065" lon="121.00390575801534"><ele>12.0</ele><time>2026-04-24T13:51:31Z</time></trkpt><trkpt lat="14.514252123981658" lon="121.00394232187641"><ele>12.0</ele><time>2026-04-24T13:51:32Z</time></trkpt><trkpt lat="14.51435494522813" lon="121.00397988759146"><ele>12.0</ele><time>2026-04-24T13:51:33Z</time></trkpt><trkpt lat="14.5144547755427" lon="121.00401826923522"><ele>12.0</ele><time>2026-04-24T13:51:34Z</time></trkpt><trkpt lat="14.51454611368279" lon="121.00405233906018"><ele>12.0</ele><time>2026-04-24T13:51:35Z</time></trkpt><trkpt lat="14.514633664648498" lon="121.00408357873792"><ele>11.5</ele><time>2026-04-24T13:51:36Z</time></trkpt><trkpt lat="14.514720505416989" lon="121.00411001858004"><ele>11.0</ele><time>2026-04-24T13:51:37Z</time></trkpt><trkpt lat="14.514795805323129" lon="121.00413877921359"><ele>10.5</ele><time>2026-04-24T13:51:38Z</time></trkpt><trkpt lat="14.514862721712229" lon="121.00416780805163"><ele>10.0</ele><time>2026-04-24T13:51:39Z</time></trkpt><trkpt lat="14.514924377308438" lon="121.00419640260681"><ele>9.5</ele><time>2026-04-24T13:51:40Z</time></trkpt><trkpt lat="14.514988422906672" lon="121.00422517603171"><ele>9.0</ele><time>2026-04-24T13:51:41Z</time></trkpt><trkpt lat="14.515056457595449" lon="121.00425680886856"><ele>9.0</ele><time>2026-04-24T13:51:42Z</time></trkpt><trkpt lat="14.515124079536958" lon="121.00428166857205"><ele>9.0</ele><time>2026-04-24T13:51:43Z</time></trkpt><trkpt lat="14.515188931962395" lon="121.00430407278911"><ele>9.0</ele><time>2026-04-24T13:51:44Z</time></trkpt><trkpt lat="14.515296719459325" lon="121.00432117994674"><ele>9.0</ele><time>2026-04-24T13:51:46Z</time></trkpt><trkpt lat="14.515390066731898" lon="121.00429903130691"><ele>9.0</ele><time>2026-04-24T13:51:48Z</time></trkpt><trkpt lat="14.51546722907034" lon="121.0042157051819"><ele>8.833333333333334</ele><time>2026-04-24T13:51:50Z</time></trkpt><trkpt lat="14.515481628481368" lon="121.0041226754537"><ele>8.666666666666666</ele><time>2026-04-24T13:51:51Z</time></trkpt><trkpt lat="14.515512256682106" lon="121.00404464442897"><ele>8.5</ele><time>2026-04-24T13:51:52Z</time></trkpt><trkpt lat="14.51554441919691" lon="121.00397724608376"><ele>8.333333333333332</ele><time>2026-04-24T13:51:53Z</time></trkpt><trkpt lat="14.515568935478731" lon="121.00388696254124"><ele>8.166666666666666</ele><time>2026-04-24T13:51:54Z</time></trkpt><trkpt lat="14.515599672204312" lon="121.0037959315113"><ele>8.0</ele><time>2026-04-24T13:51:55Z</time></trkpt><trkpt lat="14.51563165867005" lon="121.00370361340535"><ele>8.0</ele><time>2026-04-24T13:51:56Z</time></trkpt><trkpt lat="14.515675702355736" lon="121.00360018292544"><ele>8.0</ele><time>2026-04-24T13:51:57Z</time></trkpt><trkpt lat="14.515728121501152" lon="121.00349095637611"><ele>8.0</ele><time>2026-04-24T13:51:58Z</time></trkpt><trkpt lat="14.515786708874758" lon="121.00337455549045"><ele>8.0</ele><time>2026-04-24T13:51:59Z</time></trkpt><trkpt lat="14.515845663622656" lon="121.00325855988321"><ele>7.6000000000000005</ele><time>2026-04-24T13:52:00Z</time></trkpt><trkpt lat="14.515900159334613" lon="121.00315035555586"><ele>7.200000000000001</ele><time>2026-04-24T13:52:01Z</time></trkpt><trkpt lat="14.515949340637377" lon="121.00305114616235"><ele>6.8</ele><time>2026-04-24T13:52:02Z</time></trkpt><trkpt lat="14.515997944176547" lon="121.00295810227271"><ele>6.4</ele><time>2026-04-24T13:52:03Z</time></trkpt><trkpt lat="14.51604510186043" lon="121.00286838500102"><ele>6.0</ele><time>2026-04-24T13:52:04Z</time></trkpt><trkpt lat="14.516087319707983" lon="121.00278397185883"><ele>6.0</ele><time>2026-04-24T13:52:05Z</time></trkpt><trkpt lat="14.516130124645349" lon="121.00270630607596"><ele>6.0</ele><time>2026-04-24T13:52:06Z</time></trkpt><trkpt lat="14.516174341252967" lon="121.002626226501"><ele>6.0</ele><time>2026-04-24T13:52:07Z</time></trkpt><trkpt lat="14.516222954234514" lon="121.00254144875993"><ele>6.0</ele><time>2026-04-24T13:52:08Z</time></trkpt><trkpt lat="14.516256011335908" lon="121.00245084122834"><ele>6.0</ele><time>2026-04-24T13:52:09Z</time></trkpt><trkpt lat="14.516316718794313" lon="121.00234973983191"><ele>6.199999999999999</ele><time>2026-04-24T13:52:10Z</time></trkpt><trkpt lat="14.516354050861947" lon="121.00225647341102"><ele>6.3999999999999995</ele><time>2026-04-24T13:52:11Z</time></trkpt><trkpt lat="14.516394396114407" lon="121.00216313042814"><ele>6.6</ele><time>2026-04-24T13:52:12Z</time></trkpt><trkpt lat="14.516428603989135" lon="121.00206643291732"><ele>6.8</ele><time>2026-04-24T13:52:13Z</time></trkpt><trkpt lat="14.516473210305948" lon="121.0019616806368"><ele>7.0</ele><time>2026-04-24T13:52:14Z</time></trkpt><trkpt lat="14.516524833524079" lon="121.00185937890431"><ele>7.0</ele><time>2026-04-24T13:52:15Z</time></trkpt><trkpt lat="14.516575077121908" lon="121.00176221025532"><ele>6.999999999999999</ele><time>2026-04-24T13:52:16Z</time></trkpt><trkpt lat="14.516625594450765" lon="121.00166047694016"><ele>6.999999999999999</ele><time>2026-04-24T13:52:17Z</time></trkpt><trkpt lat="14.516669622912712" lon="121.00156189005874"><ele>7.0</ele><time>2026-04-24T13:52:18Z</time></trkpt><trkpt lat="14.516717784456961" lon="121.00145873853911"><ele>7.0</ele><time>2026-04-24T13:52:19Z</time></trkpt><trkpt lat="14.516757456389154" lon="121.00136672792814"><ele>6.8</ele><time>2026-04-24T13:52:20Z</time></trkpt><trkpt lat="14.516797216899759" lon="121.00127623257637"><ele>6.6</ele><time>2026-04-24T13:52:21Z</time></trkpt><trkpt lat="14.516844357496682" lon="121.00118997260674"><ele>6.3999999999999995</ele><time>2026-04-24T13:52:22Z</time></trkpt><trkpt lat="14.51687426389549" lon="121.00110663772396"><ele>6.199999999999999</ele><time>2026-04-24T13:52:23Z</time></trkpt><trkpt lat="14.516932608724744" lon="121.00103364418183"><ele>6.0</ele><time>2026-04-24T13:52:24Z</time></trkpt><trkpt lat="14.516898902175836" lon="121.00093338008863"><ele>6.0</ele><time>2026-04-24T13:52:25Z</time></trkpt><trkpt lat="14.516915915710491" lon="121.00085140970425"><ele>6.0</ele><time>2026-04-24T13:52:26Z</time></trkpt><trkpt lat="14.516929296860118" lon="121.00074799681381"><ele>6.0</ele><time>2026-04-24T13:52:27Z</time></trkpt><trkpt lat="14.516946147867152" lon="121.0006435873525"><ele>6.0</ele><time>2026-04-24T13:52:28Z</time></trkpt><trkpt lat="14.516955029246201" lon="121.00053165345773"><ele>6.0</ele><time>2026-04-24T13:52:29Z</time></trkpt><trkpt lat="14.516962903960236" lon="121.00041496305454"><ele>5.75</ele><time>2026-04-24T13:52:30Z</time></trkpt><trkpt lat="14.516971058979228" lon="121.00028411329714"><ele>5.5</ele><time>2026-04-24T13:52:31Z</time></trkpt><trkpt lat="14.516976370075" lon="121.00015217505398"><ele>5.25</ele><time>2026-04-24T13:52:32Z</time></trkpt><trkpt lat="14.516974523219655" lon="121.00001909179421"><ele>5.0</ele><time>2026-04-24T13:52:33Z</time></trkpt><trkpt lat="14.516976375410499" lon="120.99988534603344"><ele>5.0</ele><time>2026-04-24T13:52:34Z</time></trkpt><trkpt lat="14.516974768413803" lon="120.99973830035277"><ele>5.0</ele><time>2026-04-24T13:52:35Z</time></trkpt><trkpt lat="14.51697567617072" lon="120.99958902157267"><ele>5.0</ele><time>2026-04-24T13:52:36Z</time></trkpt><trkpt lat="14.516981520114403" lon="120.99943031402127"><ele>5.0</ele><time>2026-04-24T13:52:37Z</time></trkpt><trkpt lat="14.516983482914222" lon="120.99927467944735"><ele>5.333333333333334</ele><time>2026-04-24T13:52:38Z</time></trkpt><trkpt lat="14.516980267914247" lon="120.99911710489184"><ele>5.666666666666667</ele><time>2026-04-24T13:52:39Z</time></trkpt><trkpt lat="14.516978519370106" lon="120.99896649179418"><ele>6.0</ele><time>2026-04-24T13:52:40Z</time></trkpt><trkpt lat="14.516980959839133" lon="120.99880962015344"><ele>6.0</ele><time>2026-04-24T13:52:41Z</time></trkpt><trkpt lat="14.5169868745247" lon="120.9986700725849"><ele>6.0</ele><time>2026-04-24T13:52:42Z</time></trkpt><trkpt lat="14.516989588722925" lon="120.99853963533545"><ele>6.0</ele><time>2026-04-24T13:52:43Z</time></trkpt><trkpt lat="14.517020684272822" lon="120.99841014709818"><ele>6.0</ele><time>2026-04-24T13:52:44Z</time></trkpt><trkpt lat="14.517022514665223" lon="120.9982884056986"><ele>5.8</ele><time>2026-04-24T13:52:45Z</time></trkpt><trkpt lat="14.516994899304542" lon="120.99817859956016"><ele>5.6</ele><time>2026-04-24T13:52:46Z</time></trkpt><trkpt lat="14.516997459272845" lon="120.99806425706687"><ele>5.4</ele><time>2026-04-24T13:52:47Z</time></trkpt><trkpt lat="14.516998689168481" lon="120.99795385959256"><ele>5.2</ele><time>2026-04-24T13:52:48Z</time></trkpt><trkpt lat="14.516999640397444" lon="120.9978441783905"><ele>5.0</ele><time>2026-04-24T13:52:49Z</time></trkpt><trkpt lat="14.516997835994351" lon="120.99773984891635"><ele>5.0</ele><time>2026-04-24T13:52:50Z</time></trkpt><trkpt lat="14.516978349029307" lon="120.9976547798566"><ele>5.0</ele><time>2026-04-24T13:52:51Z</time></trkpt><trkpt lat="14.516979679247608" lon="120.99756087833336"><ele>5.0</ele><time>2026-04-24T13:52:52Z</time></trkpt><trkpt lat="14.51699968926272" lon="120.99746010328018"><ele>5.0</ele><time>2026-04-24T13:52:53Z</time></trkpt><trkpt lat="14.517012608119309" lon="120.99736110165925"><ele>5.0</ele><time>2026-04-24T13:52:54Z</time></trkpt><trkpt lat="14.517028329527202" lon="120.99724925800898"><ele>4.8</ele><time>2026-04-24T13:52:55Z</time></trkpt><trkpt lat="14.517032615767835" lon="120.99711960008653"><ele>4.6</ele><time>2026-04-24T13:52:56Z</time></trkpt><trkpt lat="14.517046643362711" lon="120.99699987665218"><ele>4.4</ele><time>2026-04-24T13:52:57Z</time></trkpt><trkpt lat="14.517078726854107" lon="120.99689934067565"><ele>4.2</ele><time>2026-04-24T13:52:58Z</time></trkpt><trkpt lat="14.517094332825698" lon="120.9968002043034"><ele>4.0</ele><time>2026-04-24T13:52:59Z</time></trkpt><trkpt lat="14.517106153980187" lon="120.99670090119089"><ele>4.75</ele><time>2026-04-24T13:53:00Z</time></trkpt><trkpt lat="14.517106488754843" lon="120.9965844964942"><ele>5.5</ele><time>2026-04-24T13:53:01Z</time></trkpt><trkpt lat="14.51712478395498" lon="120.99646116988193"><ele>6.25</ele><time>2026-04-24T13:53:02Z</time></trkpt><trkpt lat="14.517145527239235" lon="120.99633866207469"><ele>7.0</ele><time>2026-04-24T13:53:03Z</time></trkpt><trkpt lat="14.517160869542396" lon="120.99620628745774"><ele>7.0</ele><time>2026-04-24T13:53:04Z</time></trkpt><trkpt lat="14.51717886766828" lon="120.99607019466055"><ele>7.0</ele><time>2026-04-24T13:53:05Z</time></trkpt><trkpt lat="14.517193917531687" lon="120.9959413107987"><ele>7.0</ele><time>2026-04-24T13:53:06Z</time></trkpt><trkpt lat="14.517214817108691" lon="120.99581378646378"><ele>7.0</ele><time>2026-04-24T13:53:07Z</time></trkpt><trkpt lat="14.517243876791524" lon="120.99565749587471"><ele>7.0</ele><time>2026-04-24T13:53:08Z</time></trkpt><trkpt lat="14.517267395188975" lon="120.99551127184259"><ele>7.0</ele><time>2026-04-24T13:53:09Z</time></trkpt><trkpt lat="14.51728591106685" lon="120.9953739022266"><ele>7.0</ele><time>2026-04-24T13:53:10Z</time></trkpt><trkpt lat="14.517302637331579" lon="120.99524492383303"><ele>7.0</ele><time>2026-04-24T13:53:11Z</time></trkpt><trkpt lat="14.517315259512223" lon="120.99515950689019"><ele>7.000000000000001</ele><time>2026-04-24T13:53:12Z</time></trkpt><trkpt lat="14.517328242600705" lon="120.99506832949798"><ele>7.0</ele><time>2026-04-24T13:53:13Z</time></trkpt><trkpt lat="14.51734171515476" lon="120.99498298977537"><ele>7.0</ele><time>2026-04-24T13:53:14Z</time></trkpt><trkpt lat="14.51735820920382" lon="120.9949120044895"><ele>7.0</ele><time>2026-04-24T13:53:15Z</time></trkpt><trkpt lat="14.51737064007365" lon="120.99483848027322"><ele>7.000000000000001</ele><time>2026-04-24T13:53:16Z</time></trkpt><trkpt lat="14.51738006704441" lon="120.99472763362773"><ele>7.0</ele><time>2026-04-24T13:53:18Z</time></trkpt><trkpt lat="14.517402327019601" lon="120.9946406037369"><ele>7.166666666666667</ele><time>2026-04-24T13:53:20Z</time></trkpt><trkpt lat="14.517420532636537" lon="120.99456685573347"><ele>7.333333333333334</ele><time>2026-04-24T13:53:22Z</time></trkpt><trkpt lat="14.51747107983536" lon="120.994464465251"><ele>7.5</ele><time>2026-04-24T13:53:24Z</time></trkpt><trkpt lat="14.517482428292265" lon="120.9943962699879"><ele>7.666666666666666</ele><time>2026-04-24T13:53:26Z</time></trkpt><trkpt lat="14.5174813221505" lon="120.99431091034859"><ele>7.833333333333333</ele><time>2026-04-24T13:53:28Z</time></trkpt><trkpt lat="14.51748465129413" lon="120.99420999673256"><ele>8.0</ele><time>2026-04-24T13:53:30Z</time></trkpt><trkpt lat="14.517496043490949" lon="120.99408611471033"><ele>8.166666666666666</ele><time>2026-04-24T13:53:32Z</time></trkpt><trkpt lat="14.517497738891166" lon="120.99400786095946"><ele>8.333333333333332</ele><time>2026-04-24T13:53:33Z</time></trkpt><trkpt lat="14.51749891114572" lon="120.99392815105469"><ele>8.5</ele><time>2026-04-24T13:53:34Z</time></trkpt><trkpt lat="14.517501431903714" lon="120.99385215856772"><ele>8.666666666666666</ele><time>2026-04-24T13:53:35Z</time></trkpt><trkpt lat="14.517507628522365" lon="120.99378560340442"><ele>8.833333333333334</ele><time>2026-04-24T13:53:36Z</time></trkpt><trkpt lat="14.517532119515003" lon="120.99368839168173"><ele>9.0</ele><time>2026-04-24T13:53:38Z</time></trkpt><trkpt lat="14.517590698690894" lon="120.99357844533532"><ele>9.0</ele><time>2026-04-24T13:53:40Z</time></trkpt><trkpt lat="14.517682840812947" lon="120.99351216351977"><ele>9.0</ele><time>2026-04-24T13:53:42Z</time></trkpt><trkpt lat="14.517772058591037" lon="120.99350294913432"><ele>9.0</ele><time>2026-04-24T13:53:43Z</time></trkpt><trkpt lat="14.517854792152919" lon="120.99349554723464"><ele>9.0</ele><time>2026-04-24T13:53:44Z</time></trkpt><trkpt lat="14.517947770979495" lon="120.99349151135546"><ele>9.0</ele><time>2026-04-24T13:53:45Z</time></trkpt><trkpt lat="14.51805605137765" lon="120.9934898613737"><ele>12.0</ele><time>2026-04-24T13:53:46Z</time></trkpt><trkpt lat="14.51817575920684" lon="120.99349440137638"><ele>15.0</ele><time>2026-04-24T13:53:47Z</time></trkpt><trkpt lat="14.518307364861876" lon="120.99350093307959"><ele>18.0</ele><time>2026-04-24T13:53:48Z</time></trkpt><trkpt lat="14.51844934547903" lon="120.99351097485389"><ele>21.0</ele><time>2026-04-24T13:53:49Z</time></trkpt><trkpt lat="14.518592546038708" lon="120.99351655022488"><ele>23.0</ele><time>2026-04-24T13:53:50Z</time></trkpt><trkpt lat="14.518748502659498" lon="120.99352218522536"><ele>25.0</ele><time>2026-04-24T13:53:51Z</time></trkpt><trkpt lat="14.518909254874474" lon="120.99352809918815"><ele>27.0</ele><time>2026-04-24T13:53:52Z</time></trkpt><trkpt lat="14.519083081994376" lon="120.99354132208275"><ele>27.0</ele><time>2026-04-24T13:53:53Z</time></trkpt><trkpt lat="14.51925533979609" lon="120.99355115101177"><ele>27.0</ele><time>2026-04-24T13:53:54Z</time></trkpt><trkpt lat="14.519435944885684" lon="120.99356313405875"><ele>27.0</ele><time>2026-04-24T13:53:55Z</time></trkpt><trkpt lat="14.519618282364025" lon="120.99357883348804"><ele>20.666666666666668</ele><time>2026-04-24T13:53:56Z</time></trkpt><trkpt lat="14.519805724394514" lon="120.9935939942736"><ele>14.333333333333332</ele><time>2026-04-24T13:53:57Z</time></trkpt><trkpt lat="14.519998256029645" lon="120.99360993309226"><ele>8.0</ele><time>2026-04-24T13:53:58Z</time></trkpt><trkpt lat="14.520192639341511" lon="120.99362242806198"><ele>8.0</ele><time>2026-04-24T13:53:59Z</time></trkpt><trkpt lat="14.520388819449604" lon="120.99363493469059"><ele>8.0</ele><time>2026-04-24T13:54:00Z</time></trkpt><trkpt lat="14.520590098829782" lon="120.99364760609471"><ele>8.0</ele><time>2026-04-24T13:54:01Z</time></trkpt><trkpt lat="14.52079673156727" lon="120.99365783092878"><ele>7.0</ele><time>2026-04-24T13:54:02Z</time></trkpt><trkpt lat="14.52099899003739" lon="120.99367029896328"><ele>6.0</ele><time>2026-04-24T13:54:03Z</time></trkpt><trkpt lat="14.52121918130389" lon="120.99368559001591"><ele>5.0</ele><time>2026-04-24T13:54:04Z</time></trkpt><trkpt lat="14.521436378709764" lon="120.99370084545009"><ele>5.0</ele><time>2026-04-24T13:54:05Z</time></trkpt><trkpt lat="14.521641242361712" lon="120.99371108213984"><ele>5.0</ele><time>2026-04-24T13:54:06Z</time></trkpt><trkpt lat="14.521865007354227" lon="120.99373216211876"><ele>5.0</ele><time>2026-04-24T13:54:07Z</time></trkpt><trkpt lat="14.522080340432753" lon="120.99373633111958"><ele>5.0</ele><time>2026-04-24T13:54:08Z</time></trkpt><trkpt lat="14.522307130667507" lon="120.99374685404021"><ele>5.0</ele><time>2026-04-24T13:54:09Z</time></trkpt><trkpt lat="14.52251989873076" lon="120.99375396062294"><ele>5.0</ele><time>2026-04-24T13:54:10Z</time></trkpt><trkpt lat="14.52272148109439" lon="120.99374941516068"><ele>6.5</ele><time>2026-04-24T13:54:11Z</time></trkpt><trkpt lat="14.522943642275226" lon="120.993746152499"><ele>8.0</ele><time>2026-04-24T13:54:12Z</time></trkpt><trkpt lat="14.523186237506664" lon="120.99375446352815"><ele>8.0</ele><time>2026-04-24T13:54:13Z</time></trkpt><trkpt lat="14.523418014464172" lon="120.99378337779385"><ele>8.0</ele><time>2026-04-24T13:54:14Z</time></trkpt><trkpt lat="14.523587498285652" lon="120.99381340670816"><ele>8.0</ele><time>2026-04-24T13:54:15Z</time></trkpt><trkpt lat="14.523736508345388" lon="120.99382002498086"><ele>8.0</ele><time>2026-04-24T13:54:16Z</time></trkpt><trkpt lat="14.523904492701257" lon="120.99378340864762"><ele>8.0</ele><time>2026-04-24T13:54:17Z</time></trkpt><trkpt lat="14.52408871111816" lon="120.99378806070877"><ele>8.0</ele><time>2026-04-24T13:54:18Z</time></trkpt><trkpt lat="14.524273700944496" lon="120.99378553311718"><ele>8.0</ele><time>2026-04-24T13:54:19Z</time></trkpt><trkpt lat="14.524454459347966" lon="120.99378112063685"><ele>8.0</ele><time>2026-04-24T13:54:20Z</time></trkpt><trkpt lat="14.524635059063343" lon="120.9937810130969"><ele>8.0</ele><time>2026-04-24T13:54:21Z</time></trkpt><trkpt lat="14.524809179238243" lon="120.99379258455248"><ele>8.333333333333332</ele><time>2026-04-24T13:54:22Z</time></trkpt><trkpt lat="14.524975034594801" lon="120.99379037354022"><ele>8.666666666666666</ele><time>2026-04-24T13:54:23Z</time></trkpt><trkpt lat="14.525130967539038" lon="120.99379307522479"><ele>9.0</ele><time>2026-04-24T13:54:24Z</time></trkpt><trkpt lat="14.525263102438261" lon="120.99379057414404"><ele>9.0</ele><time>2026-04-24T13:54:25Z</time></trkpt><trkpt lat="14.525370999766986" lon="120.9937901774243"><ele>9.0</ele><time>2026-04-24T13:54:26Z</time></trkpt><trkpt lat="14.525454467527144" lon="120.99379264082252"><ele>9.0</ele><time>2026-04-24T13:54:27Z</time></trkpt><trkpt lat="14.525558325467337" lon="120.99379536338432"><ele>9.0</ele><time>2026-04-24T13:54:29Z</time></trkpt><trkpt lat="14.525633540057472" lon="120.99380137504625"><ele>9.0</ele><time>2026-04-24T13:54:31Z</time></trkpt><trkpt lat="14.525735150774368" lon="120.99380111009054"><ele>8.666666666666666</ele><time>2026-04-24T13:54:33Z</time></trkpt><trkpt lat="14.525850780843527" lon="120.99380719662814"><ele>8.333333333333334</ele><time>2026-04-24T13:54:35Z</time></trkpt><trkpt lat="14.525978587800978" lon="120.99380832716737"><ele>8.0</ele><time>2026-04-24T13:54:37Z</time></trkpt><trkpt lat="14.526043223354334" lon="120.99380914853921"><ele>7.666666666666667</ele><time>2026-04-24T13:54:38Z</time></trkpt><trkpt lat="14.526114143275862" lon="120.99380033446037"><ele>7.333333333333334</ele><time>2026-04-24T13:54:39Z</time></trkpt><trkpt lat="14.526182332102577" lon="120.99380122766402"><ele>7.0</ele><time>2026-04-24T13:54:40Z</time></trkpt><trkpt lat="14.526254586857165" lon="120.99380353943806"><ele>7.000000000000001</ele><time>2026-04-24T13:54:41Z</time></trkpt><trkpt lat="14.526331864448455" lon="120.99380252440007"><ele>7.0</ele><time>2026-04-24T13:54:42Z</time></trkpt><trkpt lat="14.526413652547758" lon="120.9937975172814"><ele>7.0</ele><time>2026-04-24T13:54:43Z</time></trkpt><trkpt lat="14.526497690657585" lon="120.99379223221239"><ele>7.0</ele><time>2026-04-24T13:54:44Z</time></trkpt><trkpt lat="14.526584016027906" lon="120.99378718198452"><ele>7.000000000000001</ele><time>2026-04-24T13:54:45Z</time></trkpt><trkpt lat="14.526668503346079" lon="120.9937809038695"><ele>7.0</ele><time>2026-04-24T13:54:46Z</time></trkpt><trkpt lat="14.526755678610238" lon="120.99377680593156"><ele>7.000000000000001</ele><time>2026-04-24T13:54:47Z</time></trkpt><trkpt lat="14.526844082925976" lon="120.99376426438111"><ele>7.0</ele><time>2026-04-24T13:54:48Z</time></trkpt><trkpt lat="14.52692898497847" lon="120.99375831304977"><ele>7.0</ele><time>2026-04-24T13:54:49Z</time></trkpt><trkpt lat="14.527014637795643" lon="120.99374878063854"><ele>7.0</ele><time>2026-04-24T13:54:50Z</time></trkpt><trkpt lat="14.52710293382323" lon="120.99374467806722"><ele>7.000000000000001</ele><time>2026-04-24T13:54:51Z</time></trkpt><trkpt lat="14.527187654939373" lon="120.99373667091844"><ele>7.0</ele><time>2026-04-24T13:54:52Z</time></trkpt><trkpt lat="14.527284404422337" lon="120.99372446645964"><ele>7.6</ele><time>2026-04-24T13:54:53Z</time></trkpt><trkpt lat="14.527378844102984" lon="120.99370746249708"><ele>8.2</ele><time>2026-04-24T13:54:54Z</time></trkpt><trkpt lat="14.5274773424314" lon="120.99369297779029"><ele>8.8</ele><time>2026-04-24T13:54:55Z</time></trkpt><trkpt lat="14.527590543382722" lon="120.9936781716627"><ele>9.4</ele><time>2026-04-24T13:54:56Z</time></trkpt><trkpt lat="14.527701731037105" lon="120.99366218969908"><ele>10.0</ele><time>2026-04-24T13:54:57Z</time></trkpt><trkpt lat="14.527819904656297" lon="120.99364710831232"><ele>9.75</ele><time>2026-04-24T13:54:58Z</time></trkpt><trkpt lat="14.527946732713337" lon="120.99363038917687"><ele>9.5</ele><time>2026-04-24T13:54:59Z</time></trkpt><trkpt lat="14.528079952350147" lon="120.99361906244896"><ele>9.25</ele><time>2026-04-24T13:55:00Z</time></trkpt><trkpt lat="14.528209752511723" lon="120.99360413253538"><ele>9.0</ele><time>2026-04-24T13:55:01Z</time></trkpt><trkpt lat="14.528324596109387" lon="120.99358976165827"><ele>9.0</ele><time>2026-04-24T13:55:02Z</time></trkpt><trkpt lat="14.528446961505528" lon="120.99357457056081"><ele>9.0</ele><time>2026-04-24T13:55:03Z</time></trkpt><trkpt lat="14.528567197696404" lon="120.99355944235111"><ele>9.0</ele><time>2026-04-24T13:55:04Z</time></trkpt><trkpt lat="14.528687867741871" lon="120.99354180058295"><ele>9.0</ele><time>2026-04-24T13:55:05Z</time></trkpt><trkpt lat="14.528812621612945" lon="120.99352937682842"><ele>8.5</ele><time>2026-04-24T13:55:06Z</time></trkpt><trkpt lat="14.528948147041378" lon="120.99352235038369"><ele>8.0</ele><time>2026-04-24T13:55:07Z</time></trkpt><trkpt lat="14.529080398201723" lon="120.99350870824489"><ele>7.5</ele><time>2026-04-24T13:55:08Z</time></trkpt><trkpt lat="14.529220410255649" lon="120.99349865762008"><ele>7.0</ele><time>2026-04-24T13:55:09Z</time></trkpt><trkpt lat="14.529356390674252" lon="120.99348270913582"><ele>7.0</ele><time>2026-04-24T13:55:10Z</time></trkpt><trkpt lat="14.529505505851054" lon="120.9934714512881"><ele>7.0</ele><time>2026-04-24T13:55:11Z</time></trkpt><trkpt lat="14.529649154127133" lon="120.9934482862447"><ele>7.0</ele><time>2026-04-24T13:55:12Z</time></trkpt><trkpt lat="14.52980151121963" lon="120.99343566810137"><ele>7.0</ele><time>2026-04-24T13:55:13Z</time></trkpt><trkpt lat="14.529949585642644" lon="120.9934118408763"><ele>7.5</ele><time>2026-04-24T13:55:14Z</time></trkpt><trkpt lat="14.530097132447223" lon="120.99338975632625"><ele>8.0</ele><time>2026-04-24T13:55:15Z</time></trkpt><trkpt lat="14.530244360451897" lon="120.99337405281875"><ele>8.5</ele><time>2026-04-24T13:55:16Z</time></trkpt><trkpt lat="14.530386995427133" lon="120.99335597600299"><ele>9.0</ele><time>2026-04-24T13:55:17Z</time></trkpt><trkpt lat="14.530536929639386" lon="120.99333957864287"><ele>7.5</ele><time>2026-04-24T13:55:18Z</time></trkpt><trkpt lat="14.53068605879901" lon="120.99331955127526"><ele>6.0</ele><time>2026-04-24T13:55:19Z</time></trkpt><trkpt lat="14.53082230343772" lon="120.99329524271556"><ele>4.5</ele><time>2026-04-24T13:55:20Z</time></trkpt><trkpt lat="14.530965264563479" lon="120.99328060664587"><ele>3.0</ele><time>2026-04-24T13:55:21Z</time></trkpt><trkpt lat="14.531091853302552" lon="120.99326751668927"><ele>3.0</ele><time>2026-04-24T13:55:22Z</time></trkpt><trkpt lat="14.531222769502119" lon="120.99325050411635"><ele>3.0</ele><time>2026-04-24T13:55:23Z</time></trkpt><trkpt lat="14.531346423837569" lon="120.99323763891543"><ele>3.0</ele><time>2026-04-24T13:55:24Z</time></trkpt><trkpt lat="14.531463549549143" lon="120.99321852079596"><ele>3.0</ele><time>2026-04-24T13:55:25Z</time></trkpt><trkpt lat="14.53158902814053" lon="120.99320743427249"><ele>3.75</ele><time>2026-04-24T13:55:26Z</time></trkpt><trkpt lat="14.531715479799615" lon="120.99318953830623"><ele>4.5</ele><time>2026-04-24T13:55:27Z</time></trkpt><trkpt lat="14.531846238262016" lon="120.9931768164064"><ele>5.25</ele><time>2026-04-24T13:55:28Z</time></trkpt><trkpt lat="14.53197332972561" lon="120.99314999433614"><ele>6.0</ele><time>2026-04-24T13:55:29Z</time></trkpt><trkpt lat="14.532113347985753" lon="120.99311197093644"><ele>6.5</ele><time>2026-04-24T13:55:30Z</time></trkpt><trkpt lat="14.532253362999288" lon="120.99311795227541"><ele>7.0</ele><time>2026-04-24T13:55:31Z</time></trkpt><trkpt lat="14.532394038628976" lon="120.99310555737922"><ele>7.5</ele><time>2026-04-24T13:55:32Z</time></trkpt><trkpt lat="14.532535740982832" lon="120.9930870839658"><ele>8.0</ele><time>2026-04-24T13:55:33Z</time></trkpt><trkpt lat="14.532677981179253" lon="120.99306537550777"><ele>8.0</ele><time>2026-04-24T13:55:34Z</time></trkpt><trkpt lat="14.532826553445966" lon="120.99303866614329"><ele>8.0</ele><time>2026-04-24T13:55:35Z</time></trkpt><trkpt lat="14.532974742159707" lon="120.99300717700564"><ele>8.0</ele><time>2026-04-24T13:55:36Z</time></trkpt><trkpt lat="14.533128232708385" lon="120.99298630044441"><ele>9.666666666666666</ele><time>2026-04-24T13:55:37Z</time></trkpt><trkpt lat="14.533281167374694" lon="120.99296296812125"><ele>11.333333333333332</ele><time>2026-04-24T13:55:38Z</time></trkpt><trkpt lat="14.533438228196188" lon="120.99293957673153"><ele>13.0</ele><time>2026-04-24T13:55:39Z</time></trkpt><trkpt lat="14.533595340009144" lon="120.99291773748475"><ele>11.0</ele><time>2026-04-24T13:55:40Z</time></trkpt><trkpt lat="14.533753761524627" lon="120.9928967502335"><ele>9.0</ele><time>2026-04-24T13:55:41Z</time></trkpt><trkpt lat="14.53390943664809" lon="120.99288435144331"><ele>7.0</ele><time>2026-04-24T13:55:42Z</time></trkpt><trkpt lat="14.534059243120836" lon="120.9928677529897"><ele>7.0</ele><time>2026-04-24T13:55:43Z</time></trkpt><trkpt lat="14.53420138944898" lon="120.99285637844169"><ele>7.0</ele><time>2026-04-24T13:55:44Z</time></trkpt><trkpt lat="14.534334247336263" lon="120.99284138695482"><ele>7.0</ele><time>2026-04-24T13:55:45Z</time></trkpt><trkpt lat="14.5344595888246" lon="120.99282139266104"><ele>7.0</ele><time>2026-04-24T13:55:46Z</time></trkpt><trkpt lat="14.53455274585691" lon="120.99281402500053"><ele>7.333333333333334</ele><time>2026-04-24T13:55:47Z</time></trkpt><trkpt lat="14.534640986398545" lon="120.9928066844442"><ele>7.666666666666667</ele><time>2026-04-24T13:55:48Z</time></trkpt><trkpt lat="14.534732489194887" lon="120.9927942886051"><ele>8.0</ele><time>2026-04-24T13:55:49Z</time></trkpt><trkpt lat="14.534814633726647" lon="120.99278087338838"><ele>8.333333333333334</ele><time>2026-04-24T13:55:50Z</time></trkpt><trkpt lat="14.53490408622678" lon="120.99276809185415"><ele>8.666666666666666</ele><time>2026-04-24T13:55:51Z</time></trkpt><trkpt lat="14.534986329702365" lon="120.99275619453121"><ele>9.0</ele><time>2026-04-24T13:55:52Z</time></trkpt><trkpt lat="14.53506565665327" lon="120.99274906824421"><ele>9.0</ele><time>2026-04-24T13:55:53Z</time></trkpt><trkpt lat="14.535151116808194" lon="120.99273948093811"><ele>9.0</ele><time>2026-04-24T13:55:54Z</time></trkpt><trkpt lat="14.535246670585575" lon="120.99272757992962"><ele>9.0</ele><time>2026-04-24T13:55:55Z</time></trkpt><trkpt lat="14.535344298783967" lon="120.99271542762324"><ele>9.0</ele><time>2026-04-24T13:55:56Z</time></trkpt><trkpt lat="14.535456415953245" lon="120.99270990698501"><ele>9.0</ele><time>2026-04-24T13:55:57Z</time></trkpt><trkpt lat="14.535575818251353" lon="120.9926959762996"><ele>9.0</ele><time>2026-04-24T13:55:58Z</time></trkpt><trkpt lat="14.535698738812592" lon="120.99268014979025"><ele>9.0</ele><time>2026-04-24T13:55:59Z</time></trkpt><trkpt lat="14.535829546959265" lon="120.99266509466543"><ele>9.0</ele><time>2026-04-24T13:56:00Z</time></trkpt><trkpt lat="14.53595323909215" lon="120.99265323401795"><ele>9.0</ele><time>2026-04-24T13:56:01Z</time></trkpt><trkpt lat="14.53604317887095" lon="120.99263870836708"><ele>9.0</ele><time>2026-04-24T13:56:02Z</time></trkpt><trkpt lat="14.536101295385176" lon="120.99260153962413"><ele>9.0</ele><time>2026-04-24T13:56:03Z</time></trkpt><trkpt lat="14.53616862342994" lon="120.99256203587649"><ele>9.0</ele><time>2026-04-24T13:56:04Z</time></trkpt><trkpt lat="14.536276333072374" lon="120.99253829089079"><ele>9.0</ele><time>2026-04-24T13:56:05Z</time></trkpt><trkpt lat="14.536541729928386" lon="120.99257242016178"><ele>8.25</ele><time>2026-04-24T13:56:06Z</time></trkpt><trkpt lat="14.536702503794679" lon="120.99256389036965"><ele>7.5</ele><time>2026-04-24T13:56:07Z</time></trkpt><trkpt lat="14.536868189318689" lon="120.99256528999157"><ele>6.75</ele><time>2026-04-24T13:56:08Z</time></trkpt><trkpt lat="14.536969947136681" lon="120.99254423912514"><ele>6.0</ele><time>2026-04-24T13:56:09Z</time></trkpt><trkpt lat="14.537068647934584" lon="120.99253458460096"><ele>6.0</ele><time>2026-04-24T13:56:10Z</time></trkpt><trkpt lat="14.537170780706893" lon="120.9925197992297"><ele>6.0</ele><time>2026-04-24T13:56:11Z</time></trkpt><trkpt lat="14.53727382460593" lon="120.99250850771146"><ele>6.0</ele><time>2026-04-24T13:56:12Z</time></trkpt><trkpt lat="14.53737741293321" lon="120.9924980942255"><ele>6.0</ele><time>2026-04-24T13:56:13Z</time></trkpt><trkpt lat="14.537478347817423" lon="120.99248886876057"><ele>6.0</ele><time>2026-04-24T13:56:14Z</time></trkpt><trkpt lat="14.53758467937742" lon="120.9924774222097"><ele>5.8</ele><time>2026-04-24T13:56:15Z</time></trkpt><trkpt lat="14.537690044183732" lon="120.9924626065488"><ele>5.6</ele><time>2026-04-24T13:56:16Z</time></trkpt><trkpt lat="14.537797849477126" lon="120.99245000166098"><ele>5.4</ele><time>2026-04-24T13:56:17Z</time></trkpt><trkpt lat="14.537913152660659" lon="120.99243893094372"><ele>5.2</ele><time>2026-04-24T13:56:18Z</time></trkpt><trkpt lat="14.538029051212275" lon="120.99242544428644"><ele>5.0</ele><time>2026-04-24T13:56:19Z</time></trkpt><trkpt lat="14.538144905602293" lon="120.99241381518813"><ele>5.8</ele><time>2026-04-24T13:56:20Z</time></trkpt><trkpt lat="14.538255066595994" lon="120.99239913011318"><ele>6.6</ele><time>2026-04-24T13:56:21Z</time></trkpt><trkpt lat="14.538361483481212" lon="120.99238928795319"><ele>7.4</ele><time>2026-04-24T13:56:22Z</time></trkpt><trkpt lat="14.538474975155307" lon="120.99237328142189"><ele>8.2</ele><time>2026-04-24T13:56:23Z</time></trkpt><trkpt lat="14.538586303294615" lon="120.9923616652651"><ele>9.0</ele><time>2026-04-24T13:56:24Z</time></trkpt><trkpt lat="14.538702834732321" lon="120.99234737631669"><ele>8.25</ele><time>2026-04-24T13:56:25Z</time></trkpt><trkpt lat="14.538824933529243" lon="120.9923338895902"><ele>7.5</ele><time>2026-04-24T13:56:26Z</time></trkpt><trkpt lat="14.538949698855813" lon="120.99232038407352"><ele>6.75</ele><time>2026-04-24T13:56:27Z</time></trkpt><trkpt lat="14.539077160720684" lon="120.99230604825183"><ele>6.0</ele><time>2026-04-24T13:56:28Z</time></trkpt><trkpt lat="14.539209342105641" lon="120.99229156117181"><ele>6.0</ele><time>2026-04-24T13:56:29Z</time></trkpt><trkpt lat="14.53935054643607" lon="120.9922817856718"><ele>6.0</ele><time>2026-04-24T13:56:30Z</time></trkpt><trkpt lat="14.539494901219744" lon="120.99227412208502"><ele>6.0</ele><time>2026-04-24T13:56:31Z</time></trkpt><trkpt lat="14.539647342732803" lon="120.99225725988228"><ele>6.0</ele><time>2026-04-24T13:56:32Z</time></trkpt><trkpt lat="14.539803503576751" lon="120.99224246918193"><ele>7.0</ele><time>2026-04-24T13:56:33Z</time></trkpt><trkpt lat="14.539960365240104" lon="120.9922338267952"><ele>8.0</ele><time>2026-04-24T13:56:34Z</time></trkpt><trkpt lat="14.54012152363213" lon="120.99221607754295"><ele>9.0</ele><time>2026-04-24T13:56:35Z</time></trkpt><trkpt lat="14.540274059593862" lon="120.99220699957033"><ele>11.75</ele><time>2026-04-24T13:56:36Z</time></trkpt><trkpt lat="14.540423911731121" lon="120.99218933789565"><ele>14.5</ele><time>2026-04-24T13:56:37Z</time></trkpt><trkpt lat="14.540573941954372" lon="120.99216260962015"><ele>17.25</ele><time>2026-04-24T13:56:38Z</time></trkpt><trkpt lat="14.540714697965509" lon="120.99214416831201"><ele>20.0</ele><time>2026-04-24T13:56:39Z</time></trkpt><trkpt lat="14.540847064157015" lon="120.99212072777269"><ele>20.0</ele><time>2026-04-24T13:56:40Z</time></trkpt><trkpt lat="14.540975859076353" lon="120.99210539482829"><ele>20.0</ele><time>2026-04-24T13:56:41Z</time></trkpt><trkpt lat="14.541104391115173" lon="120.9920949087969"><ele>20.0</ele><time>2026-04-24T13:56:42Z</time></trkpt><trkpt lat="14.541235162901138" lon="120.99208369479439"><ele>20.0</ele><time>2026-04-24T13:56:43Z</time></trkpt><trkpt lat="14.541367877837994" lon="120.99205726885819"><ele>16.75</ele><time>2026-04-24T13:56:44Z</time></trkpt><trkpt lat="14.541486687700552" lon="120.9920351299413"><ele>13.5</ele><time>2026-04-24T13:56:45Z</time></trkpt><trkpt lat="14.541608844295281" lon="120.99201123160255"><ele>10.25</ele><time>2026-04-24T13:56:46Z</time></trkpt><trkpt lat="14.541733036224493" lon="120.9919839568414"><ele>7.0</ele><time>2026-04-24T13:56:47Z</time></trkpt><trkpt lat="14.541856370180215" lon="120.99196311594461"><ele>7.0</ele><time>2026-04-24T13:56:48Z</time></trkpt><trkpt lat="14.541992534163711" lon="120.99193982324405"><ele>7.0</ele><time>2026-04-24T13:56:49Z</time></trkpt><trkpt lat="14.54212548964726" lon="120.99191385723074"><ele>7.0</ele><time>2026-04-24T13:56:50Z</time></trkpt><trkpt lat="14.542270283921576" lon="120.99189330390152"><ele>7.0</ele><time>2026-04-24T13:56:51Z</time></trkpt><trkpt lat="14.542418225631165" lon="120.99186062383077"><ele>7.0</ele><time>2026-04-24T13:56:52Z</time></trkpt><trkpt lat="14.542571910052146" lon="120.99182349765248"><ele>7.0</ele><time>2026-04-24T13:56:53Z</time></trkpt><trkpt lat="14.542733786919058" lon="120.99178815744447"><ele>7.0</ele><time>2026-04-24T13:56:54Z</time></trkpt><trkpt lat="14.542901281215752" lon="120.99175745836503"><ele>7.0</ele><time>2026-04-24T13:56:55Z</time></trkpt><trkpt lat="14.54307148458083" lon="120.99173216587894"><ele>7.0</ele><time>2026-04-24T13:56:55.999Z</time></trkpt><trkpt lat="14.543234786806355" lon="120.99170092317662"><ele>7.0</ele><time>2026-04-24T13:56:56.999Z</time></trkpt><trkpt lat="14.543402167136708" lon="120.99167000304129"><ele>6.666666666666667</ele><time>2026-04-24T13:56:57.999Z</time></trkpt><trkpt lat="14.543554477209772" lon="120.99164517717684"><ele>6.333333333333334</ele><time>2026-04-24T13:56:58.999Z</time></trkpt><trkpt lat="14.543708708197672" lon="120.99162123743007"><ele>6.0</ele><time>2026-04-24T13:56:59.999Z</time></trkpt><trkpt lat="14.543851940719163" lon="120.99158810889237"><ele>6.5</ele><time>2026-04-24T13:57:00.999Z</time></trkpt><trkpt lat="14.544005462648709" lon="120.99156236589884"><ele>7.0</ele><time>2026-04-24T13:57:01.999Z</time></trkpt><trkpt lat="14.544151753486616" lon="120.99154048559619"><ele>7.5</ele><time>2026-04-24T13:57:02.999Z</time></trkpt><trkpt lat="14.544291154890924" lon="120.9915147489383"><ele>8.0</ele><time>2026-04-24T13:57:03.999Z</time></trkpt><trkpt lat="14.544433607611317" lon="120.99148792936748"><ele>8.75</ele><time>2026-04-24T13:57:04.999Z</time></trkpt><trkpt lat="14.544579128609845" lon="120.99146286879684"><ele>9.5</ele><time>2026-04-24T13:57:05.999Z</time></trkpt><trkpt lat="14.544721804806601" lon="120.9914428198722"><ele>10.25</ele><time>2026-04-24T13:57:06.999Z</time></trkpt><trkpt lat="14.54485838753211" lon="120.99142536790175"><ele>11.0</ele><time>2026-04-24T13:57:07.999Z</time></trkpt><trkpt lat="14.54500372223402" lon="120.99140285492595"><ele>11.0</ele><time>2026-04-24T13:57:08.999Z</time></trkpt><trkpt lat="14.545153439414436" lon="120.99136980592121"><ele>11.0</ele><time>2026-04-24T13:57:09.999Z</time></trkpt><trkpt lat="14.545310165584947" lon="120.9913280901535"><ele>11.0</ele><time>2026-04-24T13:57:10.999Z</time></trkpt><trkpt lat="14.54546718762868" lon="120.99128888208134"><ele>9.666666666666666</ele><time>2026-04-24T13:57:11.999Z</time></trkpt><trkpt lat="14.54562165828442" lon="120.99124592446223"><ele>8.333333333333334</ele><time>2026-04-24T13:57:12.999Z</time></trkpt><trkpt lat="14.545785416695994" lon="120.99120369924256"><ele>7.0</ele><time>2026-04-24T13:57:13.999Z</time></trkpt><trkpt lat="14.545952942685973" lon="120.99116029767632"><ele>7.0</ele><time>2026-04-24T13:57:14.999Z</time></trkpt><trkpt lat="14.546109750640177" lon="120.99111544170458"><ele>7.0</ele><time>2026-04-24T13:57:15.999Z</time></trkpt><trkpt lat="14.546287727302781" lon="120.99107812689537"><ele>7.0</ele><time>2026-04-24T13:57:16.999Z</time></trkpt><trkpt lat="14.546458234061516" lon="120.9910364174774"><ele>8.666666666666668</ele><time>2026-04-24T13:57:17.999Z</time></trkpt><trkpt lat="14.546634966870164" lon="120.99099937431426"><ele>10.333333333333334</ele><time>2026-04-24T13:57:18.999Z</time></trkpt><trkpt lat="14.546799435407648" lon="120.99095790658296"><ele>12.0</ele><time>2026-04-24T13:57:19.999Z</time></trkpt><trkpt lat="14.54694921362383" lon="120.99090915347915"><ele>11.25</ele><time>2026-04-24T13:57:20.999Z</time></trkpt><trkpt lat="14.547087567390571" lon="120.99087310729631"><ele>10.5</ele><time>2026-04-24T13:57:21.999Z</time></trkpt><trkpt lat="14.547205668005159" lon="120.99084913043427"><ele>9.75</ele><time>2026-04-24T13:57:22.999Z</time></trkpt><trkpt lat="14.547315076053987" lon="120.99082176081028"><ele>9.0</ele><time>2026-04-24T13:57:23.999Z</time></trkpt><trkpt lat="14.547416911027561" lon="120.99079818003327"><ele>8.8</ele><time>2026-04-24T13:57:24.999Z</time></trkpt><trkpt lat="14.547513780296363" lon="120.9907683514442"><ele>8.600000000000001</ele><time>2026-04-24T13:57:25.999Z</time></trkpt><trkpt lat="14.547617751102" lon="120.99074072760601"><ele>8.4</ele><time>2026-04-24T13:57:26.999Z</time></trkpt><trkpt lat="14.54772853837584" lon="120.9907133745263"><ele>8.200000000000001</ele><time>2026-04-24T13:57:27.999Z</time></trkpt><trkpt lat="14.547840395982503" lon="120.99068865403903"><ele>8.0</ele><time>2026-04-24T13:57:28.999Z</time></trkpt><trkpt lat="14.547959302926117" lon="120.99066638795527"><ele>9.75</ele><time>2026-04-24T13:57:29.999Z</time></trkpt><trkpt lat="14.548086896148952" lon="120.99064391138914"><ele>11.5</ele><time>2026-04-24T13:57:30.999Z</time></trkpt><trkpt lat="14.548228792482957" lon="120.99061093865214"><ele>13.25</ele><time>2026-04-24T13:57:31.999Z</time></trkpt><trkpt lat="14.548361649162475" lon="120.99057590974819"><ele>15.0</ele><time>2026-04-24T13:57:32.999Z</time></trkpt><trkpt lat="14.548512697849652" lon="120.9905337720731"><ele>15.0</ele><time>2026-04-24T13:57:33.999Z</time></trkpt><trkpt lat="14.548666598709453" lon="120.99050094786418"><ele>15.0</ele><time>2026-04-24T13:57:34.999Z</time></trkpt><trkpt lat="14.54881778058392" lon="120.99047526034217"><ele>15.0</ele><time>2026-04-24T13:57:35.999Z</time></trkpt><trkpt lat="14.548973326973195" lon="120.99042772820559"><ele>12.666666666666666</ele><time>2026-04-24T13:57:36.999Z</time></trkpt><trkpt lat="14.54914304511199" lon="120.99038588200459"><ele>10.333333333333332</ele><time>2026-04-24T13:57:37.999Z</time></trkpt><trkpt lat="14.549316561159426" lon="120.99035636070053"><ele>8.0</ele><time>2026-04-24T13:57:38.999Z</time></trkpt><trkpt lat="14.54948784139811" lon="120.99030229508413"><ele>8.333333333333332</ele><time>2026-04-24T13:57:39.999Z</time></trkpt><trkpt lat="14.549664117013572" lon="120.99025452891715"><ele>8.666666666666666</ele><time>2026-04-24T13:57:40.999Z</time></trkpt><trkpt lat="14.549836973772898" lon="120.99021924567086"><ele>9.0</ele><time>2026-04-24T13:57:41.999Z</time></trkpt><trkpt lat="14.55001578125736" lon="120.99017797908456"><ele>9.0</ele><time>2026-04-24T13:57:42.999Z</time></trkpt><trkpt lat="14.550187912553518" lon="120.9901361632728"><ele>9.0</ele><time>2026-04-24T13:57:43.999Z</time></trkpt><trkpt lat="14.550359491836275" lon="120.99010586406823"><ele>9.0</ele><time>2026-04-24T13:57:44.999Z</time></trkpt><trkpt lat="14.550523547638658" lon="120.99006581009273"><ele>9.0</ele><time>2026-04-24T13:57:45.999Z</time></trkpt><trkpt lat="14.550677678018141" lon="120.99003072955179"><ele>9.0</ele><time>2026-04-24T13:57:46.999Z</time></trkpt><trkpt lat="14.550815771644148" lon="120.98999832370535"><ele>9.0</ele><time>2026-04-24T13:57:47.999Z</time></trkpt><trkpt lat="14.550983360349424" lon="120.9899656581081"><ele>9.0</ele><time>2026-04-24T13:57:48.999Z</time></trkpt><trkpt lat="14.551122876717056" lon="120.9899373694246"><ele>9.0</ele><time>2026-04-24T13:57:49.999Z</time></trkpt><trkpt lat="14.55125440877901" lon="120.98991188197111"><ele>9.0</ele><time>2026-04-24T13:57:50.999Z</time></trkpt><trkpt lat="14.551387581668738" lon="120.98988155967612"><ele>9.0</ele><time>2026-04-24T13:57:51.999Z</time></trkpt><trkpt lat="14.551514008614566" lon="120.98985125447385"><ele>9.0</ele><time>2026-04-24T13:57:52.999Z</time></trkpt><trkpt lat="14.551632157482835" lon="120.98982378122834"><ele>9.0</ele><time>2026-04-24T13:57:53.999Z</time></trkpt><trkpt lat="14.55175391270933" lon="120.98979374103462"><ele>9.0</ele><time>2026-04-24T13:57:54.999Z</time></trkpt><trkpt lat="14.551847209324201" lon="120.98977010488295"><ele>9.0</ele><time>2026-04-24T13:57:55.999Z</time></trkpt><trkpt lat="14.551942820694025" lon="120.98974717764128"><ele>9.0</ele><time>2026-04-24T13:57:56.999Z</time></trkpt><trkpt lat="14.552024223541379" lon="120.98972872048566"><ele>9.2</ele><time>2026-04-24T13:57:57.999Z</time></trkpt><trkpt lat="14.552087435070435" lon="120.98972053644164"><ele>9.4</ele><time>2026-04-24T13:57:58.999Z</time></trkpt><trkpt lat="14.5521703270124" lon="120.98973145687886"><ele>9.6</ele><time>2026-04-24T13:58:00.999Z</time></trkpt><trkpt lat="14.552220845252506" lon="120.98977891986532"><ele>9.8</ele><time>2026-04-24T13:58:02.999Z</time></trkpt><trkpt lat="14.55220477908174" lon="120.98969095458706"><ele>10.0</ele><time>2026-04-24T13:58:03.999Z</time></trkpt><trkpt lat="14.552263480703564" lon="120.98986866384799"><ele>10.0</ele><time>2026-04-24T13:58:04.999Z</time></trkpt><trkpt lat="14.552282938085693" lon="120.98993713936017"><ele>10.0</ele><time>2026-04-24T13:58:05.999Z</time></trkpt><trkpt lat="14.55230149294688" lon="120.99000609361038"><ele>10.0</ele><time>2026-04-24T13:58:06.999Z</time></trkpt><trkpt lat="14.552312623442099" lon="120.99007032392713"><ele>10.0</ele><time>2026-04-24T13:58:07.999Z</time></trkpt><trkpt lat="14.552330488891855" lon="120.99013619469105"><ele>10.0</ele><time>2026-04-24T13:58:08.999Z</time></trkpt><trkpt lat="14.552353670766209" lon="120.99020366176819"><ele>10.0</ele><time>2026-04-24T13:58:09.999Z</time></trkpt><trkpt lat="14.552387571291181" lon="120.99030729673642"><ele>10.0</ele><time>2026-04-24T13:58:11.999Z</time></trkpt><trkpt lat="14.552416818985584" lon="120.9904155582612"><ele>10.0</ele><time>2026-04-24T13:58:13.999Z</time></trkpt><trkpt lat="14.552440635547013" lon="120.99049425673608"><ele>10.0</ele><time>2026-04-24T13:58:14.999Z</time></trkpt><trkpt lat="14.552458967313969" lon="120.99055686323935"><ele>10.0</ele><time>2026-04-24T13:58:15.999Z</time></trkpt><trkpt lat="14.552479679163085" lon="120.99062973935665"><ele>10.0</ele><time>2026-04-24T13:58:16.999Z</time></trkpt><trkpt lat="14.55251218787674" lon="120.99071287536188"><ele>10.0</ele><time>2026-04-24T13:58:17.999Z</time></trkpt><trkpt lat="14.552549285620605" lon="120.99080038520616"><ele>10.0</ele><time>2026-04-24T13:58:18.999Z</time></trkpt><trkpt lat="14.552585896943008" lon="120.99088153585899"><ele>10.0</ele><time>2026-04-24T13:58:19.999Z</time></trkpt><trkpt lat="14.552614170057446" lon="120.9909646495143"><ele>10.0</ele><time>2026-04-24T13:58:20.999Z</time></trkpt><trkpt lat="14.552633223118638" lon="120.9910567861342"><ele>10.0</ele><time>2026-04-24T13:58:21.999Z</time></trkpt><trkpt lat="14.55266474268253" lon="120.99115239981323"><ele>10.0</ele><time>2026-04-24T13:58:22.999Z</time></trkpt><trkpt lat="14.55269924469622" lon="120.99124653194973"><ele>10.0</ele><time>2026-04-24T13:58:23.999Z</time></trkpt><trkpt lat="14.552733237551688" lon="120.99134652224147"><ele>10.0</ele><time>2026-04-24T13:58:24.999Z</time></trkpt><trkpt lat="14.552763601955988" lon="120.99144784690571"><ele>10.0</ele><time>2026-04-24T13:58:25.999Z</time></trkpt><trkpt lat="14.552793673679224" lon="120.9915483390433"><ele>10.0</ele><time>2026-04-24T13:58:26.999Z</time></trkpt><trkpt lat="14.552825054941037" lon="120.99164799452853"><ele>10.0</ele><time>2026-04-24T13:58:27.999Z</time></trkpt><trkpt lat="14.552855740713301" lon="120.99174627486039"><ele>10.0</ele><time>2026-04-24T13:58:28.999Z</time></trkpt><trkpt lat="14.55288960444602" lon="120.9918515792446"><ele>10.0</ele><time>2026-04-24T13:58:29.999Z</time></trkpt><trkpt lat="14.552921918347783" lon="120.99195583549617"><ele>10.0</ele><time>2026-04-24T13:58:30.999Z</time></trkpt><trkpt lat="14.552945832271334" lon="120.99206819478019"><ele>10.0</ele><time>2026-04-24T13:58:31.999Z</time></trkpt><trkpt lat="14.552981420693575" lon="120.99217241009127"><ele>10.0</ele><time>2026-04-24T13:58:32.999Z</time></trkpt><trkpt lat="14.553012777612421" lon="120.9922877577863"><ele>10.0</ele><time>2026-04-24T13:58:33.999Z</time></trkpt><trkpt lat="14.553045323250092" lon="120.9924012894577"><ele>9.75</ele><time>2026-04-24T13:58:34.999Z</time></trkpt><trkpt lat="14.553078672354394" lon="120.9925199354897"><ele>9.5</ele><time>2026-04-24T13:58:35.999Z</time></trkpt><trkpt lat="14.55310991648787" lon="120.9926387122811"><ele>9.25</ele><time>2026-04-24T13:58:36.999Z</time></trkpt><trkpt lat="14.553139666893571" lon="120.99275716670762"><ele>9.0</ele><time>2026-04-24T13:58:37.999Z</time></trkpt><trkpt lat="14.553166452837957" lon="120.99287860848628"><ele>9.0</ele><time>2026-04-24T13:58:38.999Z</time></trkpt><trkpt lat="14.5531894043383" lon="120.9930059815002"><ele>9.0</ele><time>2026-04-24T13:58:39.999Z</time></trkpt><trkpt lat="14.553217568962143" lon="120.99313169274485"><ele>9.0</ele><time>2026-04-24T13:58:40.999Z</time></trkpt><trkpt lat="14.553239348063677" lon="120.99326477305512"><ele>9.0</ele><time>2026-04-24T13:58:41.999Z</time></trkpt><trkpt lat="14.55325631212785" lon="120.99340694004094"><ele>9.25</ele><time>2026-04-24T13:58:42.999Z</time></trkpt><trkpt lat="14.553273525863473" lon="120.99354954033153"><ele>9.5</ele><time>2026-04-24T13:58:43.999Z</time></trkpt><trkpt lat="14.553289443924799" lon="120.99369094397714"><ele>9.75</ele><time>2026-04-24T13:58:44.999Z</time></trkpt><trkpt lat="14.553306009303471" lon="120.99382734568437"><ele>10.0</ele><time>2026-04-24T13:58:45.999Z</time></trkpt><trkpt lat="14.55331328653976" lon="120.99395109770825"><ele>10.0</ele><time>2026-04-24T13:58:46.999Z</time></trkpt><trkpt lat="14.553316665431982" lon="120.99406563003653"><ele>10.0</ele><time>2026-04-24T13:58:47.999Z</time></trkpt><trkpt lat="14.553325004485625" lon="120.99417333548323"><ele>10.0</ele><time>2026-04-24T13:58:48.999Z</time></trkpt><trkpt lat="14.553341926087116" lon="120.99427717094588"><ele>10.0</ele><time>2026-04-24T13:58:49.999Z</time></trkpt><trkpt lat="14.5533656492403" lon="120.9943860452273"><ele>10.0</ele><time>2026-04-24T13:58:50.999Z</time></trkpt><trkpt lat="14.55339343240331" lon="120.99449650067409"><ele>9.25</ele><time>2026-04-24T13:58:51.999Z</time></trkpt><trkpt lat="14.55342069583686" lon="120.99461546039123"><ele>8.5</ele><time>2026-04-24T13:58:52.999Z</time></trkpt><trkpt lat="14.553440116569893" lon="120.99473254736922"><ele>7.75</ele><time>2026-04-24T13:58:53.999Z</time></trkpt><trkpt lat="14.553459842848296" lon="120.99485493109543"><ele>7.0</ele><time>2026-04-24T13:58:54.999Z</time></trkpt><trkpt lat="14.553483106147219" lon="120.99497406531606"><ele>8.2</ele><time>2026-04-24T13:58:55.999Z</time></trkpt><trkpt lat="14.55349915416892" lon="120.99508874831307"><ele>9.399999999999999</ele><time>2026-04-24T13:58:56.999Z</time></trkpt><trkpt lat="14.55351308548974" lon="120.9952028812878"><ele>10.600000000000001</ele><time>2026-04-24T13:58:57.999Z</time></trkpt><trkpt lat="14.553523408905097" lon="120.9953133874394"><ele>11.8</ele><time>2026-04-24T13:58:58.999Z</time></trkpt><trkpt lat="14.553541223725867" lon="120.9954300625625"><ele>13.0</ele><time>2026-04-24T13:58:59.999Z</time></trkpt><trkpt lat="14.553559036510261" lon="120.99554491751007"><ele>13.0</ele><time>2026-04-24T13:59:00.999Z</time></trkpt><trkpt lat="14.553585477501628" lon="120.99565302581043"><ele>13.0</ele><time>2026-04-24T13:59:01.999Z</time></trkpt><trkpt lat="14.55360974407567" lon="120.9957589671664"><ele>13.0</ele><time>2026-04-24T13:59:02.999Z</time></trkpt><trkpt lat="14.553630828413592" lon="120.99585637263007"><ele>13.0</ele><time>2026-04-24T13:59:03.999Z</time></trkpt><trkpt lat="14.553656311913354" lon="120.99596544118994"><ele>13.0</ele><time>2026-04-24T13:59:04.999Z</time></trkpt><trkpt lat="14.553682022336883" lon="120.99606467353348"><ele>12.200000000000001</ele><time>2026-04-24T13:59:05.999Z</time></trkpt><trkpt lat="14.553706057110274" lon="120.99615618101859"><ele>11.4</ele><time>2026-04-24T13:59:06.999Z</time></trkpt><trkpt lat="14.553728363157454" lon="120.99625508565259"><ele>10.600000000000001</ele><time>2026-04-24T13:59:07.999Z</time></trkpt><trkpt lat="14.55375277571626" lon="120.99634927119388"><ele>9.8</ele><time>2026-04-24T13:59:08.999Z</time></trkpt><trkpt lat="14.553774903060086" lon="120.9964428877601"><ele>9.0</ele><time>2026-04-24T13:59:09.999Z</time></trkpt><trkpt lat="14.553798767963" lon="120.99653248110549"><ele>9.0</ele><time>2026-04-24T13:59:10.999Z</time></trkpt><trkpt lat="14.553817430511252" lon="120.99661864477376"><ele>9.0</ele><time>2026-04-24T13:59:11.999Z</time></trkpt><trkpt lat="14.55383902563982" lon="120.99669184704453"><ele>9.0</ele><time>2026-04-24T13:59:12.999Z</time></trkpt><trkpt lat="14.55385624907228" lon="120.9967846494385"><ele>9.0</ele><time>2026-04-24T13:59:15Z</time></trkpt><trkpt lat="14.553879659561554" lon="120.99686578979485"><ele>9.0</ele><time>2026-04-24T13:59:18Z</time></trkpt><trkpt lat="14.55389532569558" lon="120.99693591234437"><ele>9.0</ele><time>2026-04-24T13:59:22Z</time></trkpt><trkpt lat="14.553903572607013" lon="120.99700574561324"><ele>8.25</ele><time>2026-04-24T13:59:27Z</time></trkpt><trkpt lat="14.553927437809717" lon="120.99708155921178"><ele>7.5</ele><time>2026-04-24T13:59:31Z</time></trkpt><trkpt lat="14.554172980126022" lon="120.99718398392933"><ele>6.75</ele><time>2026-04-24T13:59:46Z</time></trkpt><trkpt lat="14.55425513985837" lon="120.99716230695921"><ele>6.0</ele><time>2026-04-24T13:59:47Z</time></trkpt><trkpt lat="14.554320620936736" lon="120.99713849373033"><ele>6.0</ele><time>2026-04-24T13:59:48Z</time></trkpt><trkpt lat="14.5544470894647" lon="120.99710514729445"><ele>6.0</ele><time>2026-04-24T13:59:50Z</time></trkpt><trkpt lat="14.554557056244674" lon="120.99706356664902"><ele>6.0</ele><time>2026-04-24T13:59:52Z</time></trkpt><trkpt lat="14.554681126891351" lon="120.99705015683503"><ele>6.0</ele><time>2026-04-24T13:59:54Z</time></trkpt><trkpt lat="14.554776625642045" lon="120.9970372813895"><ele>6.5</ele><time>2026-04-24T13:59:55Z</time></trkpt><trkpt lat="14.554855117690689" lon="120.9970245499478"><ele>7.0</ele><time>2026-04-24T13:59:56Z</time></trkpt><trkpt lat="14.554927050389418" lon="120.99700780362528"><ele>7.5</ele><time>2026-04-24T13:59:57Z</time></trkpt><trkpt lat="14.55499550544674" lon="120.99698670105666"><ele>8.0</ele><time>2026-04-24T13:59:58Z</time></trkpt><trkpt lat="14.555075793775265" lon="120.99696813141739"><ele>8.5</ele><time>2026-04-24T13:59:59Z</time></trkpt><trkpt lat="14.5551567535368" lon="120.9969494487835"><ele>9.0</ele><time>2026-04-24T14:00:00Z</time></trkpt><trkpt lat="14.555242721620083" lon="120.99692817920906"><ele>9.0</ele><time>2026-04-24T14:00:01Z</time></trkpt><trkpt lat="14.555334182575258" lon="120.99690736157616"><ele>9.0</ele><time>2026-04-24T14:00:02Z</time></trkpt><trkpt lat="14.555425138778729" lon="120.99688855300008"><ele>9.0</ele><time>2026-04-24T14:00:03Z</time></trkpt><trkpt lat="14.555503196204223" lon="120.99686703507959"><ele>9.0</ele><time>2026-04-24T14:00:04Z</time></trkpt><trkpt lat="14.555581274313981" lon="120.99684741791627"><ele>9.0</ele><time>2026-04-24T14:00:05Z</time></trkpt><trkpt lat="14.55566208635673" lon="120.9968284700107"><ele>9.0</ele><time>2026-04-24T14:00:06Z</time></trkpt><trkpt lat="14.555743767780175" lon="120.9968083191619"><ele>9.0</ele><time>2026-04-24T14:00:07Z</time></trkpt><trkpt lat="14.555825310879218" lon="120.99678158571393"><ele>9.0</ele><time>2026-04-24T14:00:08Z</time></trkpt><trkpt lat="14.555921368994431" lon="120.99675754601988"><ele>9.0</ele><time>2026-04-24T14:00:09Z</time></trkpt><trkpt lat="14.556021749902277" lon="120.99673628245316"><ele>9.0</ele><time>2026-04-24T14:00:10Z</time></trkpt><trkpt lat="14.556109032542913" lon="120.99671830008211"><ele>9.0</ele><time>2026-04-24T14:00:11Z</time></trkpt><trkpt lat="14.556192519718854" lon="120.99669481769989"><ele>9.166666666666666</ele><time>2026-04-24T14:00:12Z</time></trkpt><trkpt lat="14.556265830150814" lon="120.9966793115892"><ele>9.333333333333334</ele><time>2026-04-24T14:00:13Z</time></trkpt><trkpt lat="14.556335352286188" lon="120.9966672936706"><ele>9.5</ele><time>2026-04-24T14:00:14Z</time></trkpt><trkpt lat="14.556404003253784" lon="120.99664783612907"><ele>9.666666666666668</ele><time>2026-04-24T14:00:15Z</time></trkpt><trkpt lat="14.556480645993458" lon="120.99662548721723"><ele>9.833333333333334</ele><time>2026-04-24T14:00:16Z</time></trkpt><trkpt lat="14.55656071772456" lon="120.9966029742521"><ele>10.0</ele><time>2026-04-24T14:00:17Z</time></trkpt><trkpt lat="14.556666414091241" lon="120.99658381873856"><ele>10.25</ele><time>2026-04-24T14:00:18Z</time></trkpt><trkpt lat="14.556765719256703" lon="120.99656077368728"><ele>10.5</ele><time>2026-04-24T14:00:19Z</time></trkpt><trkpt lat="14.556878315283003" lon="120.99653517229308"><ele>10.75</ele><time>2026-04-24T14:00:20Z</time></trkpt><trkpt lat="14.556990337659332" lon="120.99650959117646"><ele>11.0</ele><time>2026-04-24T14:00:21Z</time></trkpt><trkpt lat="14.557114914740026" lon="120.99648044839313"><ele>11.0</ele><time>2026-04-24T14:00:22Z</time></trkpt><trkpt lat="14.557229314494181" lon="120.99645364376626"><ele>11.0</ele><time>2026-04-24T14:00:23Z</time></trkpt><trkpt lat="14.557337852641924" lon="120.99642821253535"><ele>11.0</ele><time>2026-04-24T14:00:24Z</time></trkpt><trkpt lat="14.557454366764823" lon="120.99640091259322"><ele>11.0</ele><time>2026-04-24T14:00:25Z</time></trkpt><trkpt lat="14.557563000857145" lon="120.99636483410461"><ele>11.0</ele><time>2026-04-24T14:00:26Z</time></trkpt><trkpt lat="14.55767626447766" lon="120.99634248551388"><ele>11.0</ele><time>2026-04-24T14:00:27Z</time></trkpt><trkpt lat="14.557777839574282" lon="120.9963174724692"><ele>11.0</ele><time>2026-04-24T14:00:28Z</time></trkpt><trkpt lat="14.557873316948031" lon="120.99629808551681"><ele>11.0</ele><time>2026-04-24T14:00:29Z</time></trkpt><trkpt lat="14.557956534048209" lon="120.99627877052355"><ele>11.0</ele><time>2026-04-24T14:00:30Z</time></trkpt><trkpt lat="14.558038842495085" lon="120.9962637388265"><ele>10.5</ele><time>2026-04-24T14:00:31Z</time></trkpt><trkpt lat="14.558144754200486" lon="120.99624102012945"><ele>10.0</ele><time>2026-04-24T14:00:33Z</time></trkpt><trkpt lat="14.558230190322993" lon="120.99626554727026"><ele>9.5</ele><time>2026-04-24T14:00:35Z</time></trkpt><trkpt lat="14.558165532020599" lon="120.99606526134447"><ele>9.0</ele><time>2026-04-24T14:00:47Z</time></trkpt><trkpt lat="14.558108550112609" lon="120.995993567539"><ele>9.0</ele><time>2026-04-24T14:00:49Z</time></trkpt><trkpt lat="14.55815191628596" lon="120.99587538097947"><ele>9.0</ele><time>2026-04-24T14:00:51Z</time></trkpt><trkpt lat="14.558107663355438" lon="120.99576100525326"><ele>9.0</ele><time>2026-04-24T14:00:53Z</time></trkpt><trkpt lat="14.558064815438017" lon="120.99565026089637"><ele>9.0</ele><time>2026-04-24T14:00:55Z</time></trkpt><trkpt lat="14.557987044453789" lon="120.99561083521641"><ele>9.0</ele><time>2026-04-24T14:00:56Z</time></trkpt><trkpt lat="14.557970034936954" lon="120.99549047588114"><ele>9.0</ele><time>2026-04-24T14:00:58Z</time></trkpt><trkpt lat="14.557960613074625" lon="120.99536574328287"><ele>9.0</ele><time>2026-04-24T14:01:00.08Z</time></trkpt><trkpt lat="14.557940150789857" lon="120.99529993903703"><ele>9.0</ele><time>2026-04-24T14:01:01.048Z</time></trkpt><trkpt lat="14.557919759030097" lon="120.99523049966845"><ele>9.0</ele><time>2026-04-24T14:01:02.04Z</time></trkpt><trkpt lat="14.557901315620269" lon="120.99515552661711"><ele>9.0</ele><time>2026-04-24T14:01:03.033Z</time></trkpt><trkpt lat="14.558052622570452" lon="120.99523884121697"><ele>9.0</ele><time>2026-04-24T14:01:05.031Z</time></trkpt><trkpt lat="14.558084665828694" lon="120.99517890140925"><ele>9.0</ele><time>2026-04-24T14:01:09.027Z</time></trkpt><trkpt lat="14.558147878428285" lon="120.99512883087989"><ele>9.0</ele><time>2026-04-24T14:01:11.026Z</time></trkpt><trkpt lat="14.558407543234114" lon="120.99540102157341"><ele>9.0</ele><time>2026-04-24T14:02:26.999Z</time></trkpt><trkpt lat="14.55835117888717" lon="120.99534842951664"><ele>9.0</ele><time>2026-04-24T14:05:11Z</time></trkpt><trkpt lat="14.558275284994846" lon="120.99535394808686"><ele>9.0</ele><time>2026-04-24T14:06:50.999Z</time></trkpt><trkpt lat="14.55818156907221" lon="120.9953617268888"><ele>9.0</ele><time>2026-04-24T14:07:35.999Z</time></trkpt><trkpt lat="14.558242896821556" lon="120.99541010215097"><ele>9.0</ele><time>2026-04-24T14:08:32.999Z</time></trkpt><trkpt lat="14.558303537218167" lon="120.99544280177638"><ele>9.0</ele><time>2026-04-24T14:08:40.999Z</time></trkpt><trkpt lat="14.558365736849598" lon="120.99540241230913"><ele>9.0</ele><time>2026-04-24T14:08:49.999Z</time></trkpt><trkpt lat="14.558438699161401" lon="120.99536829366586"><ele>9.0</ele><time>2026-04-24T14:08:54.999Z</time></trkpt><trkpt lat="14.558424031109476" lon="120.99545219585214"><ele>9.0</ele><time>2026-04-24T14:10:05.999Z</time></trkpt><trkpt lat="14.558488281564008" lon="120.99543632599011"><ele>9.0</ele><time>2026-04-24T14:10:15.999Z</time></trkpt><trkpt lat="14.558458802161844" lon="120.99537308969404"><ele>9.0</ele><time>2026-04-24T14:10:52.999Z</time></trkpt><trkpt lat="14.558394645305915" lon="120.99535097492142"><ele>9.0</ele><time>2026-04-24T14:11:23.999Z</time></trkpt><trkpt lat="14.558331828627184" lon="120.99534179950356"><ele>9.0</ele><time>2026-04-24T14:11:34.999Z</time></trkpt></trkseg></trk></gpx>